<?xml version='1.0' encoding='UTF-8'?><gpx version="1.1" creator="JPX - https://github.com/jenetics/jpx" xmlns="http://www.topografix.com/GPX/1/1"><trk><trkseg><trkpt lat="43.7725317" lon="11.203075"><ele>42.0</ele><time>2026-05-02T07:09:58.727Z</time></trkpt><trkpt lat="43.7725117" lon="11.2029383"><ele>42.0</ele><time>2026-05-02T07:10:00.729Z</time></trkpt><trkpt lat="43.7725183" lon="11.2028417"><ele>42.0</ele><time>2026-05-02T07:10:01.729Z</time></trkpt><trkpt lat="43.7725367" lon="11.2027567"><ele>42.0</ele><time>2026-05-02T07:10:02.728Z</time></trkpt><trkpt lat="43.7726267" lon="11.202615"><ele>42.0</ele><time>2026-05-02T07:10:04.726Z</time></trkpt><trkpt lat="43.77268" lon="11.2025283"><ele>42.2</ele><time>2026-05-02T07:10:05.726Z</time></trkpt><trkpt lat="43.772715" lon="11.2024117"><ele>42.400000000000006</ele><time>2026-05-02T07:10:06.727Z</time></trkpt><trkpt lat="43.7727267" lon="11.2022817"><ele>42.599999999999994</ele><time>2026-05-02T07:10:07.726Z</time></trkpt><trkpt lat="43.7727317" lon="11.2021317"><ele>42.8</ele><time>2026-05-02T07:10:08.727Z</time></trkpt><trkpt lat="43.772735" lon="11.2019783"><ele>43.0</ele><time>2026-05-02T07:10:09.727Z</time></trkpt><trkpt lat="43.7727417" lon="11.201815"><ele>43.0</ele><time>2026-05-02T07:10:10.725Z</time></trkpt><trkpt lat="43.77275" lon="11.2016467"><ele>43.0</ele><time>2026-05-02T07:10:11.727Z</time></trkpt><trkpt lat="43.7727533" lon="11.201475"><ele>43.0</ele><time>2026-05-02T07:10:12.728Z</time></trkpt><trkpt lat="43.7727567" lon="11.201295"><ele>43.0</ele><time>2026-05-02T07:10:13.727Z</time></trkpt><trkpt lat="43.7727567" lon="11.2011133"><ele>42.25</ele><time>2026-05-02T07:10:14.728Z</time></trkpt><trkpt lat="43.7727567" lon="11.2009233"><ele>41.5</ele><time>2026-05-02T07:10:15.727Z</time></trkpt><trkpt lat="43.77276" lon="11.2007217"><ele>40.75</ele><time>2026-05-02T07:10:16.728Z</time></trkpt><trkpt lat="43.7727583" lon="11.2005183"><ele>40.0</ele><time>2026-05-02T07:10:17.729Z</time></trkpt><trkpt lat="43.7727633" lon="11.2003217"><ele>40.0</ele><time>2026-05-02T07:10:18.727Z</time></trkpt><trkpt lat="43.772765" lon="11.2001317"><ele>40.0</ele><time>2026-05-02T07:10:19.727Z</time></trkpt><trkpt lat="43.7727667" lon="11.19994"><ele>40.0</ele><time>2026-05-02T07:10:20.728Z</time></trkpt><trkpt lat="43.772765" lon="11.1997483"><ele>40.0</ele><time>2026-05-02T07:10:21.727Z</time></trkpt><trkpt lat="43.7727617" lon="11.199555"><ele>40.0</ele><time>2026-05-02T07:10:22.728Z</time></trkpt><trkpt lat="43.7727617" lon="11.1993617"><ele>40.0</ele><time>2026-05-02T07:10:23.727Z</time></trkpt><trkpt lat="43.772755" lon="11.1991617"><ele>40.0</ele><time>2026-05-02T07:10:24.728Z</time></trkpt><trkpt lat="43.772745" lon="11.1989583"><ele>40.0</ele><time>2026-05-02T07:10:25.727Z</time></trkpt><trkpt lat="43.7727283" lon="11.1987483"><ele>40.0</ele><time>2026-05-02T07:10:26.728Z</time></trkpt><trkpt lat="43.7727067" lon="11.1985333"><ele>40.0</ele><time>2026-05-02T07:10:27.728Z</time></trkpt><trkpt lat="43.7726767" lon="11.1983167"><ele>40.0</ele><time>2026-05-02T07:10:28.727Z</time></trkpt><trkpt lat="43.7726417" lon="11.1980967"><ele>39.66666666666667</ele><time>2026-05-02T07:10:29.727Z</time></trkpt><trkpt lat="43.77261" lon="11.1978733"><ele>39.333333333333336</ele><time>2026-05-02T07:10:30.727Z</time></trkpt><trkpt lat="43.772575" lon="11.1976483"><ele>39.0</ele><time>2026-05-02T07:10:31.728Z</time></trkpt><trkpt lat="43.7725417" lon="11.19742"><ele>39.333333333333336</ele><time>2026-05-02T07:10:32.727Z</time></trkpt><trkpt lat="43.7725017" lon="11.197195"><ele>39.66666666666667</ele><time>2026-05-02T07:10:33.727Z</time></trkpt><trkpt lat="43.7724617" lon="11.196965"><ele>40.0</ele><time>2026-05-02T07:10:34.727Z</time></trkpt><trkpt lat="43.7724233" lon="11.1967317"><ele>39.66666666666667</ele><time>2026-05-02T07:10:35.726Z</time></trkpt><trkpt lat="43.772385" lon="11.1964967"><ele>39.333333333333336</ele><time>2026-05-02T07:10:36.728Z</time></trkpt><trkpt lat="43.7723467" lon="11.1962617"><ele>39.0</ele><time>2026-05-02T07:10:37.727Z</time></trkpt><trkpt lat="43.77231" lon="11.1960233"><ele>39.0</ele><time>2026-05-02T07:10:38.727Z</time></trkpt><trkpt lat="43.7722733" lon="11.195785"><ele>39.0</ele><time>2026-05-02T07:10:39.728Z</time></trkpt><trkpt lat="43.772235" lon="11.195545"><ele>39.0</ele><time>2026-05-02T07:10:40.728Z</time></trkpt><trkpt lat="43.7721983" lon="11.1953017"><ele>39.0</ele><time>2026-05-02T07:10:41.727Z</time></trkpt><trkpt lat="43.7721617" lon="11.1950567"><ele>39.0</ele><time>2026-05-02T07:10:42.726Z</time></trkpt><trkpt lat="43.7721267" lon="11.1948133"><ele>39.0</ele><time>2026-05-02T07:10:43.728Z</time></trkpt><trkpt lat="43.7720833" lon="11.194575"><ele>39.333333333333336</ele><time>2026-05-02T07:10:44.728Z</time></trkpt><trkpt lat="43.7720433" lon="11.1943317"><ele>39.66666666666667</ele><time>2026-05-02T07:10:45.726Z</time></trkpt><trkpt lat="43.7720067" lon="11.19409"><ele>40.0</ele><time>2026-05-02T07:10:46.727Z</time></trkpt><trkpt lat="43.7719667" lon="11.1938483"><ele>40.333333333333336</ele><time>2026-05-02T07:10:47.726Z</time></trkpt><trkpt lat="43.7719283" lon="11.1936033"><ele>40.666666666666664</ele><time>2026-05-02T07:10:48.728Z</time></trkpt><trkpt lat="43.7718917" lon="11.1933583"><ele>41.0</ele><time>2026-05-02T07:10:49.727Z</time></trkpt><trkpt lat="43.7718533" lon="11.193115"><ele>41.0</ele><time>2026-05-02T07:10:50.727Z</time></trkpt><trkpt lat="43.7718133" lon="11.1928733"><ele>41.0</ele><time>2026-05-02T07:10:51.727Z</time></trkpt><trkpt lat="43.7717783" lon="11.1926317"><ele>41.0</ele><time>2026-05-02T07:10:52.727Z</time></trkpt><trkpt lat="43.7717367" lon="11.19239"><ele>41.0</ele><time>2026-05-02T07:10:53.727Z</time></trkpt><trkpt lat="43.7716967" lon="11.1921517"><ele>41.0</ele><time>2026-05-02T07:10:54.727Z</time></trkpt><trkpt lat="43.7716617" lon="11.1919067"><ele>41.0</ele><time>2026-05-02T07:10:55.727Z</time></trkpt><trkpt lat="43.77163" lon="11.19166"><ele>40.666666666666664</ele><time>2026-05-02T07:10:56.728Z</time></trkpt><trkpt lat="43.771595" lon="11.19142"><ele>40.333333333333336</ele><time>2026-05-02T07:10:57.727Z</time></trkpt><trkpt lat="43.7715633" lon="11.1911817"><ele>40.0</ele><time>2026-05-02T07:10:58.727Z</time></trkpt><trkpt lat="43.7715333" lon="11.1909417"><ele>40.0</ele><time>2026-05-02T07:10:59.728Z</time></trkpt><trkpt lat="43.7715033" lon="11.1907017"><ele>40.0</ele><time>2026-05-02T07:11:00.727Z</time></trkpt><trkpt lat="43.771475" lon="11.1904633"><ele>40.0</ele><time>2026-05-02T07:11:01.727Z</time></trkpt><trkpt lat="43.771445" lon="11.1902267"><ele>39.66666666666667</ele><time>2026-05-02T07:11:02.728Z</time></trkpt><trkpt lat="43.7714183" lon="11.18999"><ele>39.333333333333336</ele><time>2026-05-02T07:11:03.727Z</time></trkpt><trkpt lat="43.7713883" lon="11.1897583"><ele>39.0</ele><time>2026-05-02T07:11:04.726Z</time></trkpt><trkpt lat="43.7713567" lon="11.1895283"><ele>39.0</ele><time>2026-05-02T07:11:05.729Z</time></trkpt><trkpt lat="43.7713233" lon="11.1892983"><ele>39.0</ele><time>2026-05-02T07:11:06.728Z</time></trkpt><trkpt lat="43.7712867" lon="11.189075"><ele>39.0</ele><time>2026-05-02T07:11:07.727Z</time></trkpt><trkpt lat="43.7712467" lon="11.1888617"><ele>38.75</ele><time>2026-05-02T07:11:08.728Z</time></trkpt><trkpt lat="43.7712133" lon="11.1886583"><ele>38.5</ele><time>2026-05-02T07:11:09.727Z</time></trkpt><trkpt lat="43.771185" lon="11.1884633"><ele>38.25</ele><time>2026-05-02T07:11:10.726Z</time></trkpt><trkpt lat="43.77117" lon="11.188275"><ele>38.0</ele><time>2026-05-02T07:11:11.729Z</time></trkpt><trkpt lat="43.7711767" lon="11.188095"><ele>37.75</ele><time>2026-05-02T07:11:12.727Z</time></trkpt><trkpt lat="43.77121" lon="11.1879233"><ele>37.5</ele><time>2026-05-02T07:11:13.727Z</time></trkpt><trkpt lat="43.771275" lon="11.18777"><ele>37.25</ele><time>2026-05-02T07:11:14.728Z</time></trkpt><trkpt lat="43.7713633" lon="11.1876383"><ele>37.0</ele><time>2026-05-02T07:11:15.727Z</time></trkpt><trkpt lat="43.7714667" lon="11.18752"><ele>37.0</ele><time>2026-05-02T07:11:16.727Z</time></trkpt><trkpt lat="43.7715917" lon="11.187435"><ele>37.0</ele><time>2026-05-02T07:11:17.729Z</time></trkpt><trkpt lat="43.7717267" lon="11.1873467"><ele>37.0</ele><time>2026-05-02T07:11:18.727Z</time></trkpt><trkpt lat="43.7718733" lon="11.187255"><ele>37.0</ele><time>2026-05-02T07:11:19.728Z</time></trkpt><trkpt lat="43.7720267" lon="11.187155"><ele>37.333333333333336</ele><time>2026-05-02T07:11:20.729Z</time></trkpt><trkpt lat="43.7721867" lon="11.18705"><ele>37.666666666666664</ele><time>2026-05-02T07:11:21.728Z</time></trkpt><trkpt lat="43.7723533" lon="11.1869417"><ele>38.0</ele><time>2026-05-02T07:11:22.727Z</time></trkpt><trkpt lat="43.7725233" lon="11.1868367"><ele>37.666666666666664</ele><time>2026-05-02T07:11:23.728Z</time></trkpt><trkpt lat="43.7726983" lon="11.186745"><ele>37.333333333333336</ele><time>2026-05-02T07:11:24.726Z</time></trkpt><trkpt lat="43.7728833" lon="11.186685"><ele>37.0</ele><time>2026-05-02T07:11:25.727Z</time></trkpt><trkpt lat="43.773075" lon="11.1866533"><ele>37.0</ele><time>2026-05-02T07:11:26.728Z</time></trkpt><trkpt lat="43.7732717" lon="11.1866483"><ele>37.0</ele><time>2026-05-02T07:11:27.728Z</time></trkpt><trkpt lat="43.7734717" lon="11.1866533"><ele>37.0</ele><time>2026-05-02T07:11:28.728Z</time></trkpt><trkpt lat="43.7736767" lon="11.186665"><ele>37.0</ele><time>2026-05-02T07:11:29.727Z</time></trkpt><trkpt lat="43.7738833" lon="11.1866883"><ele>37.0</ele><time>2026-05-02T07:11:30.728Z</time></trkpt><trkpt lat="43.77409" lon="11.1867133"><ele>37.0</ele><time>2026-05-02T07:11:31.729Z</time></trkpt><trkpt lat="43.7742983" lon="11.1867367"><ele>37.0</ele><time>2026-05-02T07:11:32.728Z</time></trkpt><trkpt lat="43.77451" lon="11.1867567"><ele>37.0</ele><time>2026-05-02T07:11:33.728Z</time></trkpt><trkpt lat="43.7747217" lon="11.186775"><ele>37.0</ele><time>2026-05-02T07:11:34.727Z</time></trkpt><trkpt lat="43.7749317" lon="11.1867933"><ele>37.0</ele><time>2026-05-02T07:11:35.728Z</time></trkpt><trkpt lat="43.7751383" lon="11.1868117"><ele>37.0</ele><time>2026-05-02T07:11:36.727Z</time></trkpt><trkpt lat="43.7753467" lon="11.1868283"><ele>37.0</ele><time>2026-05-02T07:11:37.728Z</time></trkpt><trkpt lat="43.7755567" lon="11.1868483"><ele>37.0</ele><time>2026-05-02T07:11:38.728Z</time></trkpt><trkpt lat="43.7757667" lon="11.1868717"><ele>37.0</ele><time>2026-05-02T07:11:39.728Z</time></trkpt><trkpt lat="43.7759767" lon="11.1868917"><ele>37.0</ele><time>2026-05-02T07:11:40.728Z</time></trkpt><trkpt lat="43.7761883" lon="11.186905"><ele>36.333333333333336</ele><time>2026-05-02T07:11:41.727Z</time></trkpt><trkpt lat="43.7764" lon="11.186905"><ele>35.666666666666664</ele><time>2026-05-02T07:11:42.726Z</time></trkpt><trkpt lat="43.776615" lon="11.1868883"><ele>35.0</ele><time>2026-05-02T07:11:43.728Z</time></trkpt><trkpt lat="43.7768317" lon="11.186845"><ele>36.0</ele><time>2026-05-02T07:11:44.727Z</time></trkpt><trkpt lat="43.77705" lon="11.1867783"><ele>37.0</ele><time>2026-05-02T07:11:45.727Z</time></trkpt><trkpt lat="43.7772667" lon="11.1867017"><ele>38.0</ele><time>2026-05-02T07:11:46.728Z</time></trkpt><trkpt lat="43.7774817" lon="11.1866083"><ele>37.0</ele><time>2026-05-02T07:11:47.727Z</time></trkpt><trkpt lat="43.7776933" lon="11.1865033"><ele>36.0</ele><time>2026-05-02T07:11:48.727Z</time></trkpt><trkpt lat="43.7779033" lon="11.1863883"><ele>36.0</ele><time>2026-05-02T07:11:49.726Z</time></trkpt><trkpt lat="43.7781117" lon="11.1862683"><ele>36.0</ele><time>2026-05-02T07:11:50.727Z</time></trkpt><trkpt lat="43.77832" lon="11.1861467"><ele>36.333333333333336</ele><time>2026-05-02T07:11:51.727Z</time></trkpt><trkpt lat="43.7785283" lon="11.1860333"><ele>36.66666666666667</ele><time>2026-05-02T07:11:52.727Z</time></trkpt><trkpt lat="43.778735" lon="11.1859267"><ele>37.0</ele><time>2026-05-02T07:11:53.727Z</time></trkpt><trkpt lat="43.77894" lon="11.1858333"><ele>37.0</ele><time>2026-05-02T07:11:54.728Z</time></trkpt><trkpt lat="43.7791433" lon="11.1857667"><ele>37.0</ele><time>2026-05-02T07:11:55.728Z</time></trkpt><trkpt lat="43.7793467" lon="11.185735"><ele>37.0</ele><time>2026-05-02T07:11:56.728Z</time></trkpt><trkpt lat="43.7795517" lon="11.18573"><ele>38.0</ele><time>2026-05-02T07:11:57.729Z</time></trkpt><trkpt lat="43.779755" lon="11.1857533"><ele>39.0</ele><time>2026-05-02T07:11:58.728Z</time></trkpt><trkpt lat="43.779955" lon="11.1858"><ele>40.0</ele><time>2026-05-02T07:11:59.727Z</time></trkpt><trkpt lat="43.78015" lon="11.18587"><ele>39.333333333333336</ele><time>2026-05-02T07:12:00.728Z</time></trkpt><trkpt lat="43.78034" lon="11.1859733"><ele>38.666666666666664</ele><time>2026-05-02T07:12:01.728Z</time></trkpt><trkpt lat="43.780525" lon="11.1860967"><ele>38.0</ele><time>2026-05-02T07:12:02.728Z</time></trkpt><trkpt lat="43.7807033" lon="11.1862333"><ele>38.0</ele><time>2026-05-02T07:12:03.727Z</time></trkpt><trkpt lat="43.7808817" lon="11.1863767"><ele>38.0</ele><time>2026-05-02T07:12:04.728Z</time></trkpt><trkpt lat="43.78106" lon="11.1865233"><ele>38.0</ele><time>2026-05-02T07:12:05.727Z</time></trkpt><trkpt lat="43.7812367" lon="11.1866733"><ele>38.33333333333333</ele><time>2026-05-02T07:12:06.727Z</time></trkpt><trkpt lat="43.7814133" lon="11.1868283"><ele>38.666666666666664</ele><time>2026-05-02T07:12:07.726Z</time></trkpt><trkpt lat="43.7815917" lon="11.18698"><ele>39.0</ele><time>2026-05-02T07:12:08.728Z</time></trkpt><trkpt lat="43.78177" lon="11.1871333"><ele>38.666666666666664</ele><time>2026-05-02T07:12:09.728Z</time></trkpt><trkpt lat="43.7819483" lon="11.187285"><ele>38.33333333333333</ele><time>2026-05-02T07:12:10.727Z</time></trkpt><trkpt lat="43.7821267" lon="11.187435"><ele>38.0</ele><time>2026-05-02T07:12:11.726Z</time></trkpt><trkpt lat="43.7823033" lon="11.1875817"><ele>38.666666666666664</ele><time>2026-05-02T07:12:12.725Z</time></trkpt><trkpt lat="43.7824783" lon="11.1877283"><ele>39.333333333333336</ele><time>2026-05-02T07:12:13.726Z</time></trkpt><trkpt lat="43.7826433" lon="11.1878683"><ele>40.0</ele><time>2026-05-02T07:12:14.727Z</time></trkpt><trkpt lat="43.7828033" lon="11.188005"><ele>40.333333333333336</ele><time>2026-05-02T07:12:15.727Z</time></trkpt><trkpt lat="43.7829633" lon="11.18814"><ele>40.666666666666664</ele><time>2026-05-02T07:12:16.726Z</time></trkpt><trkpt lat="43.7831217" lon="11.1882733"><ele>41.0</ele><time>2026-05-02T07:12:17.727Z</time></trkpt><trkpt lat="43.783285" lon="11.1884067"><ele>41.33333333333333</ele><time>2026-05-02T07:12:18.727Z</time></trkpt><trkpt lat="43.7834517" lon="11.1885483"><ele>41.666666666666664</ele><time>2026-05-02T07:12:19.728Z</time></trkpt><trkpt lat="43.7836183" lon="11.188695"><ele>42.0</ele><time>2026-05-02T07:12:20.728Z</time></trkpt><trkpt lat="43.7837833" lon="11.1888533"><ele>41.666666666666664</ele><time>2026-05-02T07:12:21.727Z</time></trkpt><trkpt lat="43.783945" lon="11.18902"><ele>41.33333333333333</ele><time>2026-05-02T07:12:22.725Z</time></trkpt><trkpt lat="43.7840933" lon="11.18921"><ele>41.0</ele><time>2026-05-02T07:12:23.726Z</time></trkpt><trkpt lat="43.7842333" lon="11.1894217"><ele>40.33333333333333</ele><time>2026-05-02T07:12:24.727Z</time></trkpt><trkpt lat="43.7843633" lon="11.1896533"><ele>39.666666666666664</ele><time>2026-05-02T07:12:25.727Z</time></trkpt><trkpt lat="43.784475" lon="11.1899017"><ele>39.0</ele><time>2026-05-02T07:12:26.726Z</time></trkpt><trkpt lat="43.7845817" lon="11.1901517"><ele>39.0</ele><time>2026-05-02T07:12:27.727Z</time></trkpt><trkpt lat="43.7846867" lon="11.1904083"><ele>39.0</ele><time>2026-05-02T07:12:28.728Z</time></trkpt><trkpt lat="43.7847883" lon="11.1906617"><ele>39.0</ele><time>2026-05-02T07:12:29.728Z</time></trkpt><trkpt lat="43.7848933" lon="11.1909167"><ele>39.0</ele><time>2026-05-02T07:12:30.728Z</time></trkpt><trkpt lat="43.7850017" lon="11.1911733"><ele>39.0</ele><time>2026-05-02T07:12:31.728Z</time></trkpt><trkpt lat="43.7851117" lon="11.19143"><ele>39.0</ele><time>2026-05-02T07:12:32.727Z</time></trkpt><trkpt lat="43.7852217" lon="11.1916883"><ele>39.0</ele><time>2026-05-02T07:12:33.726Z</time></trkpt><trkpt lat="43.7853383" lon="11.1919417"><ele>39.0</ele><time>2026-05-02T07:12:34.726Z</time></trkpt><trkpt lat="43.785465" lon="11.192185"><ele>39.0</ele><time>2026-05-02T07:12:35.727Z</time></trkpt><trkpt lat="43.7855983" lon="11.19242"><ele>39.0</ele><time>2026-05-02T07:12:36.727Z</time></trkpt><trkpt lat="43.7857433" lon="11.19265"><ele>39.0</ele><time>2026-05-02T07:12:37.729Z</time></trkpt><trkpt lat="43.785895" lon="11.192865"><ele>39.0</ele><time>2026-05-02T07:12:38.728Z</time></trkpt><trkpt lat="43.7860533" lon="11.1930733"><ele>38.666666666666664</ele><time>2026-05-02T07:12:39.728Z</time></trkpt><trkpt lat="43.7862167" lon="11.1932767"><ele>38.33333333333333</ele><time>2026-05-02T07:12:40.727Z</time></trkpt><trkpt lat="43.786385" lon="11.1934667"><ele>38.0</ele><time>2026-05-02T07:12:41.727Z</time></trkpt><trkpt lat="43.7865633" lon="11.1936417"><ele>38.0</ele><time>2026-05-02T07:12:42.726Z</time></trkpt><trkpt lat="43.78675" lon="11.1937983"><ele>38.0</ele><time>2026-05-02T07:12:43.727Z</time></trkpt><trkpt lat="43.78694" lon="11.1939567"><ele>38.0</ele><time>2026-05-02T07:12:44.73Z</time></trkpt><trkpt lat="43.7871367" lon="11.1941"><ele>38.0</ele><time>2026-05-02T07:12:45.727Z</time></trkpt><trkpt lat="43.787335" lon="11.1942433"><ele>38.0</ele><time>2026-05-02T07:12:46.726Z</time></trkpt><trkpt lat="43.7875333" lon="11.194385"><ele>38.0</ele><time>2026-05-02T07:12:47.726Z</time></trkpt><trkpt lat="43.7877283" lon="11.1945317"><ele>38.5</ele><time>2026-05-02T07:12:48.726Z</time></trkpt><trkpt lat="43.7879283" lon="11.194675"><ele>39.0</ele><time>2026-05-02T07:12:49.726Z</time></trkpt><trkpt lat="43.7881283" lon="11.1948217"><ele>40.0</ele><time>2026-05-02T07:12:50.728Z</time></trkpt><trkpt lat="43.7883267" lon="11.1949683"><ele>41.0</ele><time>2026-05-02T07:12:51.728Z</time></trkpt><trkpt lat="43.788525" lon="11.195115"><ele>41.0</ele><time>2026-05-02T07:12:52.727Z</time></trkpt><trkpt lat="43.7887233" lon="11.1952583"><ele>41.0</ele><time>2026-05-02T07:12:53.727Z</time></trkpt><trkpt lat="43.78892" lon="11.1954017"><ele>41.0</ele><time>2026-05-02T07:12:54.727Z</time></trkpt><trkpt lat="43.7891183" lon="11.195545"><ele>41.0</ele><time>2026-05-02T07:12:55.726Z</time></trkpt><trkpt lat="43.7893167" lon="11.19569"><ele>41.0</ele><time>2026-05-02T07:12:56.728Z</time></trkpt><trkpt lat="43.789515" lon="11.1958317"><ele>41.0</ele><time>2026-05-02T07:12:57.728Z</time></trkpt><trkpt lat="43.7897133" lon="11.1959733"><ele>38.666666666666664</ele><time>2026-05-02T07:12:58.726Z</time></trkpt><trkpt lat="43.7899083" lon="11.1961167"><ele>36.333333333333336</ele><time>2026-05-02T07:12:59.728Z</time></trkpt><trkpt lat="43.7900983" lon="11.19626"><ele>34.0</ele><time>2026-05-02T07:13:00.728Z</time></trkpt><trkpt lat="43.7902817" lon="11.1963967"><ele>33.0</ele><time>2026-05-02T07:13:01.727Z</time></trkpt><trkpt lat="43.7904617" lon="11.1965267"><ele>32.0</ele><time>2026-05-02T07:13:02.728Z</time></trkpt><trkpt lat="43.7906383" lon="11.1966583"><ele>31.0</ele><time>2026-05-02T07:13:03.728Z</time></trkpt><trkpt lat="43.79081" lon="11.196785"><ele>31.0</ele><time>2026-05-02T07:13:04.726Z</time></trkpt><trkpt lat="43.7909767" lon="11.19691"><ele>31.0</ele><time>2026-05-02T07:13:05.728Z</time></trkpt><trkpt lat="43.7911367" lon="11.1970317"><ele>31.0</ele><time>2026-05-02T07:13:06.728Z</time></trkpt><trkpt lat="43.7912883" lon="11.1971433"><ele>33.66666666666667</ele><time>2026-05-02T07:13:07.726Z</time></trkpt><trkpt lat="43.7914333" lon="11.1972467"><ele>36.333333333333336</ele><time>2026-05-02T07:13:08.728Z</time></trkpt><trkpt lat="43.7915667" lon="11.1973417"><ele>39.0</ele><time>2026-05-02T07:13:09.727Z</time></trkpt><trkpt lat="43.7916917" lon="11.1974317"><ele>39.0</ele><time>2026-05-02T07:13:10.726Z</time></trkpt><trkpt lat="43.7918117" lon="11.1975217"><ele>39.0</ele><time>2026-05-02T07:13:11.726Z</time></trkpt><trkpt lat="43.7919233" lon="11.1976017"><ele>39.0</ele><time>2026-05-02T07:13:12.726Z</time></trkpt><trkpt lat="43.7920283" lon="11.1976817"><ele>39.0</ele><time>2026-05-02T07:13:13.728Z</time></trkpt><trkpt lat="43.792125" lon="11.1977517"><ele>39.6</ele><time>2026-05-02T07:13:14.727Z</time></trkpt><trkpt lat="43.792215" lon="11.1978167"><ele>40.2</ele><time>2026-05-02T07:13:15.728Z</time></trkpt><trkpt lat="43.7923" lon="11.1978733"><ele>40.800000000000004</ele><time>2026-05-02T07:13:16.727Z</time></trkpt><trkpt lat="43.7923883" lon="11.1979417"><ele>41.4</ele><time>2026-05-02T07:13:17.727Z</time></trkpt><trkpt lat="43.7924883" lon="11.1980117"><ele>42.0</ele><time>2026-05-02T07:13:18.727Z</time></trkpt><trkpt lat="43.7926017" lon="11.1980917"><ele>41.5</ele><time>2026-05-02T07:13:19.727Z</time></trkpt><trkpt lat="43.792725" lon="11.1981817"><ele>41.0</ele><time>2026-05-02T07:13:20.727Z</time></trkpt><trkpt lat="43.7928517" lon="11.19827"><ele>40.5</ele><time>2026-05-02T07:13:21.728Z</time></trkpt><trkpt lat="43.7929817" lon="11.1983667"><ele>40.0</ele><time>2026-05-02T07:13:22.729Z</time></trkpt><trkpt lat="43.7931167" lon="11.1984683"><ele>40.0</ele><time>2026-05-02T07:13:23.726Z</time></trkpt><trkpt lat="43.7932567" lon="11.1985717"><ele>40.0</ele><time>2026-05-02T07:13:24.727Z</time></trkpt><trkpt lat="43.7933983" lon="11.1986783"><ele>40.0</ele><time>2026-05-02T07:13:25.727Z</time></trkpt><trkpt lat="43.79354" lon="11.198795"><ele>39.66666666666667</ele><time>2026-05-02T07:13:26.728Z</time></trkpt><trkpt lat="43.7936817" lon="11.1989167"><ele>39.333333333333336</ele><time>2026-05-02T07:13:27.727Z</time></trkpt><trkpt lat="43.7938183" lon="11.1990483"><ele>39.0</ele><time>2026-05-02T07:13:28.727Z</time></trkpt><trkpt lat="43.7939517" lon="11.1991917"><ele>39.0</ele><time>2026-05-02T07:13:29.728Z</time></trkpt><trkpt lat="43.7940783" lon="11.1993417"><ele>39.0</ele><time>2026-05-02T07:13:30.727Z</time></trkpt><trkpt lat="43.7941983" lon="11.1995"><ele>39.0</ele><time>2026-05-02T07:13:31.727Z</time></trkpt><trkpt lat="43.7943133" lon="11.199665"><ele>40.333333333333336</ele><time>2026-05-02T07:13:32.729Z</time></trkpt><trkpt lat="43.7944217" lon="11.1998367"><ele>41.66666666666667</ele><time>2026-05-02T07:13:33.726Z</time></trkpt><trkpt lat="43.794525" lon="11.2000167"><ele>43.0</ele><time>2026-05-02T07:13:34.727Z</time></trkpt><trkpt lat="43.7946233" lon="11.2002033"><ele>43.0</ele><time>2026-05-02T07:13:35.727Z</time></trkpt><trkpt lat="43.79472" lon="11.200395"><ele>43.0</ele><time>2026-05-02T07:13:36.727Z</time></trkpt><trkpt lat="43.7948183" lon="11.200585"><ele>43.0</ele><time>2026-05-02T07:13:37.726Z</time></trkpt><trkpt lat="43.794915" lon="11.20077"><ele>43.0</ele><time>2026-05-02T07:13:38.727Z</time></trkpt><trkpt lat="43.7950117" lon="11.200955"><ele>43.0</ele><time>2026-05-02T07:13:39.727Z</time></trkpt><trkpt lat="43.795105" lon="11.2011383"><ele>43.0</ele><time>2026-05-02T07:13:40.728Z</time></trkpt><trkpt lat="43.7951983" lon="11.2013217"><ele>42.0</ele><time>2026-05-02T07:13:41.727Z</time></trkpt><trkpt lat="43.795295" lon="11.2015067"><ele>41.0</ele><time>2026-05-02T07:13:42.728Z</time></trkpt><trkpt lat="43.7953917" lon="11.20169"><ele>40.0</ele><time>2026-05-02T07:13:43.727Z</time></trkpt><trkpt lat="43.7954867" lon="11.2018767"><ele>40.0</ele><time>2026-05-02T07:13:44.728Z</time></trkpt><trkpt lat="43.79558" lon="11.202065"><ele>40.0</ele><time>2026-05-02T07:13:45.728Z</time></trkpt><trkpt lat="43.7956683" lon="11.2022417"><ele>40.0</ele><time>2026-05-02T07:13:46.727Z</time></trkpt><trkpt lat="43.7957583" lon="11.20242"><ele>40.0</ele><time>2026-05-02T07:13:47.727Z</time></trkpt><trkpt lat="43.7958483" lon="11.2025917"><ele>40.0</ele><time>2026-05-02T07:13:48.727Z</time></trkpt><trkpt lat="43.7959417" lon="11.2027583"><ele>40.0</ele><time>2026-05-02T07:13:49.726Z</time></trkpt><trkpt lat="43.7960417" lon="11.2029117"><ele>40.0</ele><time>2026-05-02T07:13:50.728Z</time></trkpt><trkpt lat="43.7961517" lon="11.2030433"><ele>40.0</ele><time>2026-05-02T07:13:51.727Z</time></trkpt><trkpt lat="43.79628" lon="11.2031533"><ele>40.0</ele><time>2026-05-02T07:13:52.727Z</time></trkpt><trkpt lat="43.7964167" lon="11.2032433"><ele>40.0</ele><time>2026-05-02T07:13:53.727Z</time></trkpt><trkpt lat="43.796565" lon="11.2033083"><ele>40.333333333333336</ele><time>2026-05-02T07:13:54.727Z</time></trkpt><trkpt lat="43.7967167" lon="11.2033617"><ele>40.666666666666664</ele><time>2026-05-02T07:13:55.727Z</time></trkpt><trkpt lat="43.7968683" lon="11.2034183"><ele>41.0</ele><time>2026-05-02T07:13:56.727Z</time></trkpt><trkpt lat="43.7970183" lon="11.2034783"><ele>40.5</ele><time>2026-05-02T07:13:57.727Z</time></trkpt><trkpt lat="43.7971567" lon="11.203535"><ele>40.0</ele><time>2026-05-02T07:13:58.729Z</time></trkpt><trkpt lat="43.7972883" lon="11.203595"><ele>39.5</ele><time>2026-05-02T07:13:59.728Z</time></trkpt><trkpt lat="43.7974133" lon="11.2036733"><ele>39.0</ele><time>2026-05-02T07:14:00.726Z</time></trkpt><trkpt lat="43.7975383" lon="11.2037683"><ele>39.0</ele><time>2026-05-02T07:14:01.727Z</time></trkpt><trkpt lat="43.7976633" lon="11.2038717"><ele>39.0</ele><time>2026-05-02T07:14:02.727Z</time></trkpt><trkpt lat="43.7977867" lon="11.20398"><ele>39.0</ele><time>2026-05-02T07:14:03.728Z</time></trkpt><trkpt lat="43.7979067" lon="11.20409"><ele>39.0</ele><time>2026-05-02T07:14:04.728Z</time></trkpt><trkpt lat="43.7980183" lon="11.2041917"><ele>39.5</ele><time>2026-05-02T07:14:05.726Z</time></trkpt><trkpt lat="43.7981233" lon="11.2042767"><ele>40.0</ele><time>2026-05-02T07:14:06.728Z</time></trkpt><trkpt lat="43.7982317" lon="11.2043433"><ele>40.5</ele><time>2026-05-02T07:14:07.727Z</time></trkpt><trkpt lat="43.7983483" lon="11.20438"><ele>41.0</ele><time>2026-05-02T07:14:08.727Z</time></trkpt><trkpt lat="43.79847" lon="11.204375"><ele>40.75</ele><time>2026-05-02T07:14:09.727Z</time></trkpt><trkpt lat="43.79859" lon="11.2043367"><ele>40.5</ele><time>2026-05-02T07:14:10.728Z</time></trkpt><trkpt lat="43.7987" lon="11.204265"><ele>40.25</ele><time>2026-05-02T07:14:11.726Z</time></trkpt><trkpt lat="43.7987933" lon="11.2041667"><ele>40.0</ele><time>2026-05-02T07:14:12.728Z</time></trkpt><trkpt lat="43.798865" lon="11.204045"><ele>39.5</ele><time>2026-05-02T07:14:13.726Z</time></trkpt><trkpt lat="43.798915" lon="11.2038967"><ele>39.0</ele><time>2026-05-02T07:14:14.727Z</time></trkpt><trkpt lat="43.7989433" lon="11.2037217"><ele>38.5</ele><time>2026-05-02T07:14:15.727Z</time></trkpt><trkpt lat="43.798965" lon="11.2035383"><ele>38.0</ele><time>2026-05-02T07:14:16.727Z</time></trkpt><trkpt lat="43.7989767" lon="11.20335"><ele>38.0</ele><time>2026-05-02T07:14:17.728Z</time></trkpt><trkpt lat="43.7989717" lon="11.2031683"><ele>38.0</ele><time>2026-05-02T07:14:18.728Z</time></trkpt><trkpt lat="43.798955" lon="11.203"><ele>38.0</ele><time>2026-05-02T07:14:19.727Z</time></trkpt><trkpt lat="43.7989417" lon="11.2028517"><ele>38.0</ele><time>2026-05-02T07:14:20.727Z</time></trkpt><trkpt lat="43.7989467" lon="11.2027383"><ele>38.0</ele><time>2026-05-02T07:14:21.728Z</time></trkpt><trkpt lat="43.7989717" lon="11.20265"><ele>38.0</ele><time>2026-05-02T07:14:22.727Z</time></trkpt><trkpt lat="43.7991033" lon="11.2026017"><ele>38.0</ele><time>2026-05-02T07:14:24.727Z</time></trkpt><trkpt lat="43.79919" lon="11.2026367"><ele>38.0</ele><time>2026-05-02T07:14:25.726Z</time></trkpt><trkpt lat="43.7992917" lon="11.2027017"><ele>38.0</ele><time>2026-05-02T07:14:26.728Z</time></trkpt><trkpt lat="43.7994017" lon="11.2027867"><ele>38.0</ele><time>2026-05-02T07:14:27.726Z</time></trkpt><trkpt lat="43.79951" lon="11.2028683"><ele>38.0</ele><time>2026-05-02T07:14:28.726Z</time></trkpt><trkpt lat="43.79961" lon="11.202925"><ele>38.0</ele><time>2026-05-02T07:14:29.727Z</time></trkpt><trkpt lat="43.79971" lon="11.2029483"><ele>38.0</ele><time>2026-05-02T07:14:30.727Z</time></trkpt><trkpt lat="43.79981" lon="11.2029433"><ele>38.0</ele><time>2026-05-02T07:14:31.728Z</time></trkpt><trkpt lat="43.799895" lon="11.2028867"><ele>38.0</ele><time>2026-05-02T07:14:32.728Z</time></trkpt><trkpt lat="43.799965" lon="11.2027933"><ele>38.0</ele><time>2026-05-02T07:14:33.726Z</time></trkpt><trkpt lat="43.8000283" lon="11.2026867"><ele>38.0</ele><time>2026-05-02T07:14:34.728Z</time></trkpt><trkpt lat="43.8000717" lon="11.202555"><ele>38.0</ele><time>2026-05-02T07:14:35.728Z</time></trkpt><trkpt lat="43.8001083" lon="11.20242"><ele>38.0</ele><time>2026-05-02T07:14:36.728Z</time></trkpt><trkpt lat="43.8001433" lon="11.202285"><ele>38.0</ele><time>2026-05-02T07:14:37.726Z</time></trkpt><trkpt lat="43.8001817" lon="11.2021483"><ele>38.0</ele><time>2026-05-02T07:14:38.728Z</time></trkpt><trkpt lat="43.8002183" lon="11.2020167"><ele>38.0</ele><time>2026-05-02T07:14:39.728Z</time></trkpt><trkpt lat="43.80025" lon="11.2018933"><ele>38.0</ele><time>2026-05-02T07:14:40.727Z</time></trkpt><trkpt lat="43.800265" lon="11.20178"><ele>38.0</ele><time>2026-05-02T07:14:41.727Z</time></trkpt><trkpt lat="43.8002717" lon="11.201675"><ele>38.0</ele><time>2026-05-02T07:14:42.726Z</time></trkpt><trkpt lat="43.8002667" lon="11.2015867"><ele>38.0</ele><time>2026-05-02T07:14:43.728Z</time></trkpt><trkpt lat="43.8002433" lon="11.2014383"><ele>38.0</ele><time>2026-05-02T07:14:45.726Z</time></trkpt><trkpt lat="43.8001917" lon="11.201305"><ele>38.0</ele><time>2026-05-02T07:14:47.727Z</time></trkpt><trkpt lat="43.8001633" lon="11.2012233"><ele>38.0</ele><time>2026-05-02T07:14:48.726Z</time></trkpt><trkpt lat="43.8001417" lon="11.20112"><ele>38.0</ele><time>2026-05-02T07:14:49.728Z</time></trkpt><trkpt lat="43.8001267" lon="11.2009983"><ele>38.0</ele><time>2026-05-02T07:14:50.727Z</time></trkpt><trkpt lat="43.800115" lon="11.2008683"><ele>38.0</ele><time>2026-05-02T07:14:51.728Z</time></trkpt><trkpt lat="43.8001117" lon="11.2007317"><ele>38.0</ele><time>2026-05-02T07:14:52.727Z</time></trkpt><trkpt lat="43.8001133" lon="11.2005933"><ele>38.0</ele><time>2026-05-02T07:14:53.727Z</time></trkpt><trkpt lat="43.80012" lon="11.2004483"><ele>38.0</ele><time>2026-05-02T07:14:54.726Z</time></trkpt><trkpt lat="43.8001283" lon="11.200295"><ele>38.0</ele><time>2026-05-02T07:14:55.727Z</time></trkpt><trkpt lat="43.8001333" lon="11.2001367"><ele>38.0</ele><time>2026-05-02T07:14:56.727Z</time></trkpt><trkpt lat="43.8001417" lon="11.1999617"><ele>38.0</ele><time>2026-05-02T07:14:57.728Z</time></trkpt><trkpt lat="43.8001433" lon="11.1997733"><ele>38.0</ele><time>2026-05-02T07:14:58.727Z</time></trkpt><trkpt lat="43.80014" lon="11.199555"><ele>38.0</ele><time>2026-05-02T07:14:59.727Z</time></trkpt><trkpt lat="43.800135" lon="11.19931"><ele>38.0</ele><time>2026-05-02T07:15:00.727Z</time></trkpt><trkpt lat="43.8001333" lon="11.1990467"><ele>38.0</ele><time>2026-05-02T07:15:01.727Z</time></trkpt><trkpt lat="43.800135" lon="11.1987833"><ele>37.666666666666664</ele><time>2026-05-02T07:15:02.728Z</time></trkpt><trkpt lat="43.8001417" lon="11.1985233"><ele>37.333333333333336</ele><time>2026-05-02T07:15:03.727Z</time></trkpt><trkpt lat="43.8001633" lon="11.1982633"><ele>37.0</ele><time>2026-05-02T07:15:04.729Z</time></trkpt><trkpt lat="43.8001817" lon="11.1980033"><ele>37.0</ele><time>2026-05-02T07:15:05.727Z</time></trkpt><trkpt lat="43.8001967" lon="11.19774"><ele>37.0</ele><time>2026-05-02T07:15:06.727Z</time></trkpt><trkpt lat="43.8002033" lon="11.19748"><ele>37.0</ele><time>2026-05-02T07:15:07.728Z</time></trkpt><trkpt lat="43.8002" lon="11.1972217"><ele>37.0</ele><time>2026-05-02T07:15:08.727Z</time></trkpt><trkpt lat="43.8001983" lon="11.1969633"><ele>37.0</ele><time>2026-05-02T07:15:09.726Z</time></trkpt><trkpt lat="43.800195" lon="11.1967067"><ele>37.0</ele><time>2026-05-02T07:15:10.727Z</time></trkpt><trkpt lat="43.8001883" lon="11.19645"><ele>37.66666666666667</ele><time>2026-05-02T07:15:11.728Z</time></trkpt><trkpt lat="43.8001867" lon="11.196195"><ele>38.333333333333336</ele><time>2026-05-02T07:15:12.728Z</time></trkpt><trkpt lat="43.80018" lon="11.1959467"><ele>39.0</ele><time>2026-05-02T07:15:13.729Z</time></trkpt><trkpt lat="43.8001817" lon="11.195695"><ele>39.333333333333336</ele><time>2026-05-02T07:15:14.727Z</time></trkpt><trkpt lat="43.8001783" lon="11.1954467"><ele>39.66666666666667</ele><time>2026-05-02T07:15:15.728Z</time></trkpt><trkpt lat="43.8001767" lon="11.1952"><ele>40.0</ele><time>2026-05-02T07:15:16.727Z</time></trkpt><trkpt lat="43.8001817" lon="11.1949583"><ele>39.66666666666667</ele><time>2026-05-02T07:15:17.725Z</time></trkpt><trkpt lat="43.8001833" lon="11.1947167"><ele>39.333333333333336</ele><time>2026-05-02T07:15:18.727Z</time></trkpt><trkpt lat="43.800185" lon="11.1944783"><ele>39.0</ele><time>2026-05-02T07:15:19.727Z</time></trkpt><trkpt lat="43.80018" lon="11.1942483"><ele>39.0</ele><time>2026-05-02T07:15:20.728Z</time></trkpt><trkpt lat="43.8001733" lon="11.1940217"><ele>39.0</ele><time>2026-05-02T07:15:21.727Z</time></trkpt><trkpt lat="43.8001667" lon="11.193805"><ele>39.0</ele><time>2026-05-02T07:15:22.729Z</time></trkpt><trkpt lat="43.80015" lon="11.1935983"><ele>39.0</ele><time>2026-05-02T07:15:23.727Z</time></trkpt><trkpt lat="43.8001467" lon="11.1934"><ele>39.0</ele><time>2026-05-02T07:15:24.727Z</time></trkpt><trkpt lat="43.8001417" lon="11.193215"><ele>39.0</ele><time>2026-05-02T07:15:25.726Z</time></trkpt><trkpt lat="43.8001383" lon="11.19305"><ele>39.0</ele><time>2026-05-02T07:15:26.729Z</time></trkpt><trkpt lat="43.8001333" lon="11.1929033"><ele>38.8</ele><time>2026-05-02T07:15:27.727Z</time></trkpt><trkpt lat="43.8001367" lon="11.192765"><ele>38.599999999999994</ele><time>2026-05-02T07:15:28.728Z</time></trkpt><trkpt lat="43.8001583" lon="11.1926417"><ele>38.4</ele><time>2026-05-02T07:15:29.728Z</time></trkpt><trkpt lat="43.8001883" lon="11.1925267"><ele>38.199999999999996</ele><time>2026-05-02T07:15:30.727Z</time></trkpt><trkpt lat="43.800225" lon="11.1924133"><ele>38.0</ele><time>2026-05-02T07:15:31.728Z</time></trkpt><trkpt lat="43.8002667" lon="11.1923"><ele>38.0</ele><time>2026-05-02T07:15:32.727Z</time></trkpt><trkpt lat="43.8003383" lon="11.192195"><ele>38.0</ele><time>2026-05-02T07:15:33.728Z</time></trkpt><trkpt lat="43.800415" lon="11.192085"><ele>38.0</ele><time>2026-05-02T07:15:34.728Z</time></trkpt><trkpt lat="43.8004933" lon="11.1919717"><ele>38.0</ele><time>2026-05-02T07:15:35.727Z</time></trkpt><trkpt lat="43.8005667" lon="11.1918683"><ele>38.0</ele><time>2026-05-02T07:15:36.727Z</time></trkpt><trkpt lat="43.80063" lon="11.1917717"><ele>38.0</ele><time>2026-05-02T07:15:37.727Z</time></trkpt><trkpt lat="43.8006967" lon="11.1916817"><ele>38.0</ele><time>2026-05-02T07:15:38.729Z</time></trkpt><trkpt lat="43.8007533" lon="11.1915883"><ele>38.0</ele><time>2026-05-02T07:15:39.728Z</time></trkpt><trkpt lat="43.8008067" lon="11.19147"><ele>38.0</ele><time>2026-05-02T07:15:40.728Z</time></trkpt><trkpt lat="43.80086" lon="11.1913433"><ele>38.0</ele><time>2026-05-02T07:15:41.726Z</time></trkpt><trkpt lat="43.8009283" lon="11.1912067"><ele>37.75</ele><time>2026-05-02T07:15:42.727Z</time></trkpt><trkpt lat="43.8010033" lon="11.191075"><ele>37.5</ele><time>2026-05-02T07:15:43.726Z</time></trkpt><trkpt lat="43.8010833" lon="11.190945"><ele>37.25</ele><time>2026-05-02T07:15:44.727Z</time></trkpt><trkpt lat="43.8011667" lon="11.1908067"><ele>37.0</ele><time>2026-05-02T07:15:45.726Z</time></trkpt><trkpt lat="43.8012567" lon="11.1906717"><ele>37.0</ele><time>2026-05-02T07:15:46.726Z</time></trkpt><trkpt lat="43.8013383" lon="11.1905317"><ele>37.0</ele><time>2026-05-02T07:15:47.727Z</time></trkpt><trkpt lat="43.8014217" lon="11.1903917"><ele>37.0</ele><time>2026-05-02T07:15:48.729Z</time></trkpt><trkpt lat="43.8014983" lon="11.1902433"><ele>37.0</ele><time>2026-05-02T07:15:49.727Z</time></trkpt><trkpt lat="43.8015833" lon="11.1901017"><ele>37.0</ele><time>2026-05-02T07:15:50.728Z</time></trkpt><trkpt lat="43.80167" lon="11.1899633"><ele>37.0</ele><time>2026-05-02T07:15:51.726Z</time></trkpt><trkpt lat="43.8017567" lon="11.1898217"><ele>37.0</ele><time>2026-05-02T07:15:52.727Z</time></trkpt><trkpt lat="43.8018367" lon="11.1896733"><ele>37.0</ele><time>2026-05-02T07:15:53.728Z</time></trkpt><trkpt lat="43.8019133" lon="11.1895267"><ele>37.0</ele><time>2026-05-02T07:15:54.728Z</time></trkpt><trkpt lat="43.801985" lon="11.189385"><ele>37.0</ele><time>2026-05-02T07:15:55.727Z</time></trkpt><trkpt lat="43.8020483" lon="11.189245"><ele>37.0</ele><time>2026-05-02T07:15:56.728Z</time></trkpt><trkpt lat="43.802105" lon="11.18911"><ele>37.0</ele><time>2026-05-02T07:15:57.727Z</time></trkpt><trkpt lat="43.802155" lon="11.1889817"><ele>37.0</ele><time>2026-05-02T07:15:58.726Z</time></trkpt><trkpt lat="43.8021983" lon="11.1888683"><ele>37.0</ele><time>2026-05-02T07:15:59.727Z</time></trkpt><trkpt lat="43.8022367" lon="11.1887683"><ele>37.0</ele><time>2026-05-02T07:16:00.727Z</time></trkpt><trkpt lat="43.8022733" lon="11.1886817"><ele>37.0</ele><time>2026-05-02T07:16:01.727Z</time></trkpt><trkpt lat="43.8023433" lon="11.188555"><ele>37.0</ele><time>2026-05-02T07:16:03.727Z</time></trkpt><trkpt lat="43.8023867" lon="11.1884833"><ele>37.0</ele><time>2026-05-02T07:16:04.728Z</time></trkpt><trkpt lat="43.8024317" lon="11.188405"><ele>37.0</ele><time>2026-05-02T07:16:05.728Z</time></trkpt><trkpt lat="43.8024817" lon="11.1883167"><ele>37.0</ele><time>2026-05-02T07:16:06.726Z</time></trkpt><trkpt lat="43.8025333" lon="11.18822"><ele>37.0</ele><time>2026-05-02T07:16:07.725Z</time></trkpt><trkpt lat="43.8025817" lon="11.1881117"><ele>37.0</ele><time>2026-05-02T07:16:08.727Z</time></trkpt><trkpt lat="43.8026333" lon="11.1880017"><ele>37.0</ele><time>2026-05-02T07:16:09.726Z</time></trkpt><trkpt lat="43.802685" lon="11.1878867"><ele>37.2</ele><time>2026-05-02T07:16:10.728Z</time></trkpt><trkpt lat="43.8027417" lon="11.1877617"><ele>37.400000000000006</ele><time>2026-05-02T07:16:11.728Z</time></trkpt><trkpt lat="43.8028017" lon="11.1876333"><ele>37.599999999999994</ele><time>2026-05-02T07:16:12.726Z</time></trkpt><trkpt lat="43.8028633" lon="11.1875083"><ele>37.8</ele><time>2026-05-02T07:16:13.727Z</time></trkpt><trkpt lat="43.80292" lon="11.1873867"><ele>38.0</ele><time>2026-05-02T07:16:14.726Z</time></trkpt><trkpt lat="43.8029767" lon="11.1872633"><ele>37.6</ele><time>2026-05-02T07:16:15.726Z</time></trkpt><trkpt lat="43.80304" lon="11.1871417"><ele>37.199999999999996</ele><time>2026-05-02T07:16:16.727Z</time></trkpt><trkpt lat="43.8030983" lon="11.1870233"><ele>36.8</ele><time>2026-05-02T07:16:17.727Z</time></trkpt><trkpt lat="43.8031517" lon="11.1869067"><ele>36.4</ele><time>2026-05-02T07:16:18.727Z</time></trkpt><trkpt lat="43.8032083" lon="11.1867917"><ele>36.0</ele><time>2026-05-02T07:16:19.727Z</time></trkpt><trkpt lat="43.8032633" lon="11.1866767"><ele>36.0</ele><time>2026-05-02T07:16:20.727Z</time></trkpt><trkpt lat="43.8033167" lon="11.1865617"><ele>36.0</ele><time>2026-05-02T07:16:21.728Z</time></trkpt><trkpt lat="43.8033683" lon="11.18644"><ele>36.0</ele><time>2026-05-02T07:16:22.729Z</time></trkpt><trkpt lat="43.803415" lon="11.18632"><ele>36.0</ele><time>2026-05-02T07:16:23.728Z</time></trkpt><trkpt lat="43.80346" lon="11.1861967"><ele>36.0</ele><time>2026-05-02T07:16:24.728Z</time></trkpt><trkpt lat="43.8035" lon="11.186075"><ele>36.333333333333336</ele><time>2026-05-02T07:16:25.728Z</time></trkpt><trkpt lat="43.8035367" lon="11.1859567"><ele>36.666666666666664</ele><time>2026-05-02T07:16:26.728Z</time></trkpt><trkpt lat="43.8035683" lon="11.185845"><ele>37.0</ele><time>2026-05-02T07:16:27.729Z</time></trkpt><trkpt lat="43.8035983" lon="11.1857333"><ele>37.33333333333333</ele><time>2026-05-02T07:16:28.727Z</time></trkpt><trkpt lat="43.8036267" lon="11.18563"><ele>37.666666666666664</ele><time>2026-05-02T07:16:29.729Z</time></trkpt><trkpt lat="43.8036533" lon="11.185535"><ele>38.0</ele><time>2026-05-02T07:16:30.726Z</time></trkpt><trkpt lat="43.8036767" lon="11.1854433"><ele>38.0</ele><time>2026-05-02T07:16:31.728Z</time></trkpt><trkpt lat="43.803715" lon="11.1852817"><ele>38.0</ele><time>2026-05-02T07:16:33.727Z</time></trkpt><trkpt lat="43.8037467" lon="11.185145"><ele>38.0</ele><time>2026-05-02T07:16:35.727Z</time></trkpt><trkpt lat="43.803785" lon="11.185025"><ele>38.0</ele><time>2026-05-02T07:16:37.727Z</time></trkpt><trkpt lat="43.8038533" lon="11.1849183"><ele>38.0</ele><time>2026-05-02T07:16:39.726Z</time></trkpt><trkpt lat="43.8039567" lon="11.1848267"><ele>37.857142857142854</ele><time>2026-05-02T07:16:41.726Z</time></trkpt><trkpt lat="43.8040067" lon="11.1847733"><ele>37.714285714285715</ele><time>2026-05-02T07:16:42.727Z</time></trkpt><trkpt lat="43.8040533" lon="11.1847017"><ele>37.57142857142857</ele><time>2026-05-02T07:16:43.727Z</time></trkpt><trkpt lat="43.8040867" lon="11.1846183"><ele>37.42857142857143</ele><time>2026-05-02T07:16:44.728Z</time></trkpt><trkpt lat="43.804105" lon="11.1845317"><ele>37.285714285714285</ele><time>2026-05-02T07:16:45.728Z</time></trkpt><trkpt lat="43.8041067" lon="11.1844433"><ele>37.142857142857146</ele><time>2026-05-02T07:16:46.726Z</time></trkpt><trkpt lat="43.8040917" lon="11.1843467"><ele>37.0</ele><time>2026-05-02T07:16:47.728Z</time></trkpt><trkpt lat="43.8040533" lon="11.18425"><ele>37.0</ele><time>2026-05-02T07:16:48.727Z</time></trkpt><trkpt lat="43.804025" lon="11.1841533"><ele>37.0</ele><time>2026-05-02T07:16:49.728Z</time></trkpt><trkpt lat="43.80401" lon="11.18405"><ele>37.0</ele><time>2026-05-02T07:16:50.728Z</time></trkpt><trkpt lat="43.8040133" lon="11.1839383"><ele>37.0</ele><time>2026-05-02T07:16:51.727Z</time></trkpt><trkpt lat="43.804035" lon="11.183815"><ele>37.0</ele><time>2026-05-02T07:16:52.726Z</time></trkpt><trkpt lat="43.804065" lon="11.183675"><ele>37.0</ele><time>2026-05-02T07:16:53.727Z</time></trkpt><trkpt lat="43.8040933" lon="11.1835167"><ele>36.75</ele><time>2026-05-02T07:16:54.726Z</time></trkpt><trkpt lat="43.8041233" lon="11.183345"><ele>36.5</ele><time>2026-05-02T07:16:55.728Z</time></trkpt><trkpt lat="43.8041633" lon="11.1831717"><ele>36.25</ele><time>2026-05-02T07:16:56.727Z</time></trkpt><trkpt lat="43.8042117" lon="11.182995"><ele>36.0</ele><time>2026-05-02T07:16:57.728Z</time></trkpt><trkpt lat="43.8042717" lon="11.182815"><ele>36.0</ele><time>2026-05-02T07:16:58.728Z</time></trkpt><trkpt lat="43.804345" lon="11.18264"><ele>36.0</ele><time>2026-05-02T07:16:59.726Z</time></trkpt><trkpt lat="43.8044233" lon="11.1824667"><ele>36.0</ele><time>2026-05-02T07:17:00.727Z</time></trkpt><trkpt lat="43.8045083" lon="11.1822983"><ele>36.0</ele><time>2026-05-02T07:17:01.726Z</time></trkpt><trkpt lat="43.8045883" lon="11.1821367"><ele>36.0</ele><time>2026-05-02T07:17:02.727Z</time></trkpt><trkpt lat="43.80467" lon="11.1819817"><ele>36.0</ele><time>2026-05-02T07:17:03.727Z</time></trkpt><trkpt lat="43.8047483" lon="11.1818333"><ele>36.0</ele><time>2026-05-02T07:17:04.726Z</time></trkpt><trkpt lat="43.804825" lon="11.18169"><ele>36.0</ele><time>2026-05-02T07:17:05.728Z</time></trkpt><trkpt lat="43.8049" lon="11.1815483"><ele>36.25</ele><time>2026-05-02T07:17:06.728Z</time></trkpt><trkpt lat="43.80498" lon="11.1814083"><ele>36.5</ele><time>2026-05-02T07:17:07.726Z</time></trkpt><trkpt lat="43.80506" lon="11.181265"><ele>36.75</ele><time>2026-05-02T07:17:08.727Z</time></trkpt><trkpt lat="43.805145" lon="11.1811217"><ele>37.0</ele><time>2026-05-02T07:17:09.725Z</time></trkpt><trkpt lat="43.805225" lon="11.1809733"><ele>37.25</ele><time>2026-05-02T07:17:10.727Z</time></trkpt><trkpt lat="43.8053017" lon="11.18082"><ele>37.5</ele><time>2026-05-02T07:17:11.728Z</time></trkpt><trkpt lat="43.805375" lon="11.180665"><ele>37.75</ele><time>2026-05-02T07:17:12.726Z</time></trkpt><trkpt lat="43.8054533" lon="11.18051"><ele>38.0</ele><time>2026-05-02T07:17:13.727Z</time></trkpt><trkpt lat="43.805535" lon="11.180355"><ele>38.0</ele><time>2026-05-02T07:17:14.728Z</time></trkpt><trkpt lat="43.8056133" lon="11.1802033"><ele>38.0</ele><time>2026-05-02T07:17:15.726Z</time></trkpt><trkpt lat="43.8056933" lon="11.18005"><ele>38.0</ele><time>2026-05-02T07:17:16.727Z</time></trkpt><trkpt lat="43.8057767" lon="11.179895"><ele>38.0</ele><time>2026-05-02T07:17:17.727Z</time></trkpt><trkpt lat="43.8058617" lon="11.1797383"><ele>38.0</ele><time>2026-05-02T07:17:18.727Z</time></trkpt><trkpt lat="43.80595" lon="11.179585"><ele>38.0</ele><time>2026-05-02T07:17:19.726Z</time></trkpt><trkpt lat="43.8060317" lon="11.1794383"><ele>38.0</ele><time>2026-05-02T07:17:20.728Z</time></trkpt><trkpt lat="43.8061117" lon="11.1793033"><ele>38.0</ele><time>2026-05-02T07:17:21.727Z</time></trkpt><trkpt lat="43.8062183" lon="11.1790817"><ele>37.4</ele><time>2026-05-02T07:17:23.727Z</time></trkpt><trkpt lat="43.806285" lon="11.178965"><ele>36.8</ele><time>2026-05-02T07:17:24.726Z</time></trkpt><trkpt lat="43.8063583" lon="11.178855"><ele>36.2</ele><time>2026-05-02T07:17:25.727Z</time></trkpt><trkpt lat="43.80644" lon="11.1787483"><ele>35.6</ele><time>2026-05-02T07:17:26.727Z</time></trkpt><trkpt lat="43.8065217" lon="11.1786467"><ele>35.0</ele><time>2026-05-02T07:17:27.727Z</time></trkpt><trkpt lat="43.8065983" lon="11.1785617"><ele>35.0</ele><time>2026-05-02T07:17:28.726Z</time></trkpt><trkpt lat="43.806675" lon="11.178485"><ele>35.0</ele><time>2026-05-02T07:17:29.728Z</time></trkpt><trkpt lat="43.8067417" lon="11.1784233"><ele>35.0</ele><time>2026-05-02T07:17:30.726Z</time></trkpt><trkpt lat="43.806795" lon="11.178375"><ele>35.0</ele><time>2026-05-02T07:17:31.727Z</time></trkpt><trkpt lat="43.8068583" lon="11.178395"><ele>35.0</ele><time>2026-05-02T07:17:33.726Z</time></trkpt><trkpt lat="43.8069217" lon="11.1783333"><ele>35.0</ele><time>2026-05-02T07:17:35.727Z</time></trkpt><trkpt lat="43.8069833" lon="11.1783033"><ele>35.0</ele><time>2026-05-02T07:17:36.727Z</time></trkpt><trkpt lat="43.807055" lon="11.1782767"><ele>35.0</ele><time>2026-05-02T07:17:37.728Z</time></trkpt><trkpt lat="43.8071317" lon="11.1782483"><ele>35.0</ele><time>2026-05-02T07:17:38.729Z</time></trkpt><trkpt lat="43.8072033" lon="11.17821"><ele>35.0</ele><time>2026-05-02T07:17:39.728Z</time></trkpt><trkpt lat="43.8072717" lon="11.17816"><ele>35.0</ele><time>2026-05-02T07:17:40.726Z</time></trkpt><trkpt lat="43.80733" lon="11.1780933"><ele>35.0</ele><time>2026-05-02T07:17:41.728Z</time></trkpt><trkpt lat="43.80737" lon="11.1780067"><ele>35.0</ele><time>2026-05-02T07:17:42.728Z</time></trkpt><trkpt lat="43.8073917" lon="11.1779017"><ele>35.0</ele><time>2026-05-02T07:17:43.728Z</time></trkpt><trkpt lat="43.807395" lon="11.1777883"><ele>35.0</ele><time>2026-05-02T07:17:44.729Z</time></trkpt><trkpt lat="43.8073733" lon="11.1776783"><ele>35.0</ele><time>2026-05-02T07:17:45.727Z</time></trkpt><trkpt lat="43.8073217" lon="11.17757"><ele>35.0</ele><time>2026-05-02T07:17:46.729Z</time></trkpt><trkpt lat="43.80725" lon="11.1774733"><ele>35.0</ele><time>2026-05-02T07:17:47.727Z</time></trkpt><trkpt lat="43.8071733" lon="11.1773733"><ele>35.666666666666664</ele><time>2026-05-02T07:17:48.729Z</time></trkpt><trkpt lat="43.8071083" lon="11.1771117"><ele>36.333333333333336</ele><time>2026-05-02T07:17:50.73Z</time></trkpt><trkpt lat="43.8071333" lon="11.1769467"><ele>37.0</ele><time>2026-05-02T07:17:51.727Z</time></trkpt><trkpt lat="43.8071733" lon="11.1767683"><ele>37.0</ele><time>2026-05-02T07:17:52.726Z</time></trkpt><trkpt lat="43.8072217" lon="11.1765783"><ele>37.0</ele><time>2026-05-02T07:17:53.726Z</time></trkpt><trkpt lat="43.8072667" lon="11.1763817"><ele>37.0</ele><time>2026-05-02T07:17:54.728Z</time></trkpt><trkpt lat="43.8073167" lon="11.17617"><ele>37.333333333333336</ele><time>2026-05-02T07:17:55.726Z</time></trkpt><trkpt lat="43.8073683" lon="11.1759483"><ele>37.666666666666664</ele><time>2026-05-02T07:17:56.727Z</time></trkpt><trkpt lat="43.807425" lon="11.175725"><ele>38.0</ele><time>2026-05-02T07:17:57.727Z</time></trkpt><trkpt lat="43.8074867" lon="11.1755067"><ele>38.0</ele><time>2026-05-02T07:17:58.727Z</time></trkpt><trkpt lat="43.8075533" lon="11.175295"><ele>38.0</ele><time>2026-05-02T07:17:59.728Z</time></trkpt><trkpt lat="43.8076233" lon="11.1750883"><ele>38.0</ele><time>2026-05-02T07:18:00.726Z</time></trkpt><trkpt lat="43.8076933" lon="11.17489"><ele>38.666666666666664</ele><time>2026-05-02T07:18:01.727Z</time></trkpt><trkpt lat="43.8077683" lon="11.174695"><ele>39.333333333333336</ele><time>2026-05-02T07:18:02.728Z</time></trkpt><trkpt lat="43.8078433" lon="11.1744967"><ele>40.0</ele><time>2026-05-02T07:18:03.729Z</time></trkpt><trkpt lat="43.8079183" lon="11.1743067"><ele>40.0</ele><time>2026-05-02T07:18:04.728Z</time></trkpt><trkpt lat="43.8079933" lon="11.1741233"><ele>40.0</ele><time>2026-05-02T07:18:05.727Z</time></trkpt><trkpt lat="43.8080667" lon="11.1739467"><ele>40.0</ele><time>2026-05-02T07:18:06.726Z</time></trkpt><trkpt lat="43.8081367" lon="11.1737767"><ele>40.0</ele><time>2026-05-02T07:18:07.726Z</time></trkpt><trkpt lat="43.808205" lon="11.173605"><ele>39.5</ele><time>2026-05-02T07:18:08.728Z</time></trkpt><trkpt lat="43.8082717" lon="11.173435"><ele>39.0</ele><time>2026-05-02T07:18:09.728Z</time></trkpt><trkpt lat="43.80834" lon="11.173265"><ele>38.5</ele><time>2026-05-02T07:18:10.727Z</time></trkpt><trkpt lat="43.80841" lon="11.173095"><ele>38.0</ele><time>2026-05-02T07:18:11.728Z</time></trkpt><trkpt lat="43.8084817" lon="11.1729283"><ele>37.5</ele><time>2026-05-02T07:18:12.727Z</time></trkpt><trkpt lat="43.8085533" lon="11.1727617"><ele>37.0</ele><time>2026-05-02T07:18:13.726Z</time></trkpt><trkpt lat="43.8086267" lon="11.1725967"><ele>36.5</ele><time>2026-05-02T07:18:14.727Z</time></trkpt><trkpt lat="43.8086983" lon="11.1724317"><ele>36.0</ele><time>2026-05-02T07:18:15.727Z</time></trkpt><trkpt lat="43.8087667" lon="11.172265"><ele>36.0</ele><time>2026-05-02T07:18:16.728Z</time></trkpt><trkpt lat="43.8088367" lon="11.172095"><ele>36.0</ele><time>2026-05-02T07:18:17.728Z</time></trkpt><trkpt lat="43.8089067" lon="11.171925"><ele>36.0</ele><time>2026-05-02T07:18:18.727Z</time></trkpt><trkpt lat="43.8089767" lon="11.171755"><ele>36.0</ele><time>2026-05-02T07:18:19.726Z</time></trkpt><trkpt lat="43.80905" lon="11.1715833"><ele>36.0</ele><time>2026-05-02T07:18:20.729Z</time></trkpt><trkpt lat="43.8091217" lon="11.1714117"><ele>36.0</ele><time>2026-05-02T07:18:21.729Z</time></trkpt><trkpt lat="43.8091933" lon="11.171235"><ele>36.0</ele><time>2026-05-02T07:18:22.728Z</time></trkpt><trkpt lat="43.809265" lon="11.1710583"><ele>36.0</ele><time>2026-05-02T07:18:23.728Z</time></trkpt><trkpt lat="43.8093367" lon="11.1708833"><ele>36.0</ele><time>2026-05-02T07:18:24.729Z</time></trkpt><trkpt lat="43.80941" lon="11.17071"><ele>36.0</ele><time>2026-05-02T07:18:25.729Z</time></trkpt><trkpt lat="43.8094817" lon="11.170535"><ele>36.0</ele><time>2026-05-02T07:18:26.728Z</time></trkpt><trkpt lat="43.8095517" lon="11.1703617"><ele>36.0</ele><time>2026-05-02T07:18:27.728Z</time></trkpt><trkpt lat="43.80962" lon="11.1701867"><ele>35.75</ele><time>2026-05-02T07:18:28.727Z</time></trkpt><trkpt lat="43.8096917" lon="11.170015"><ele>35.5</ele><time>2026-05-02T07:18:29.727Z</time></trkpt><trkpt lat="43.8097633" lon="11.169845"><ele>35.25</ele><time>2026-05-02T07:18:30.728Z</time></trkpt><trkpt lat="43.8098333" lon="11.169675"><ele>35.0</ele><time>2026-05-02T07:18:31.728Z</time></trkpt><trkpt lat="43.8098967" lon="11.1695033"><ele>35.0</ele><time>2026-05-02T07:18:32.729Z</time></trkpt><trkpt lat="43.8099583" lon="11.16933"><ele>35.0</ele><time>2026-05-02T07:18:33.728Z</time></trkpt><trkpt lat="43.8100133" lon="11.16915"><ele>35.0</ele><time>2026-05-02T07:18:34.726Z</time></trkpt><trkpt lat="43.81006" lon="11.1689683"><ele>35.0</ele><time>2026-05-02T07:18:35.726Z</time></trkpt><trkpt lat="43.810095" lon="11.1687783"><ele>35.0</ele><time>2026-05-02T07:18:36.727Z</time></trkpt><trkpt lat="43.8101183" lon="11.1685833"><ele>35.0</ele><time>2026-05-02T07:18:37.727Z</time></trkpt><trkpt lat="43.81014" lon="11.1683883"><ele>35.0</ele><time>2026-05-02T07:18:38.728Z</time></trkpt><trkpt lat="43.8101683" lon="11.1681933"><ele>35.0</ele><time>2026-05-02T07:18:39.728Z</time></trkpt><trkpt lat="43.810195" lon="11.1680017"><ele>35.0</ele><time>2026-05-02T07:18:40.727Z</time></trkpt><trkpt lat="43.8102217" lon="11.16781"><ele>35.0</ele><time>2026-05-02T07:18:41.727Z</time></trkpt><trkpt lat="43.8102467" lon="11.1676183"><ele>35.0</ele><time>2026-05-02T07:18:42.726Z</time></trkpt><trkpt lat="43.8102733" lon="11.1674283"><ele>35.0</ele><time>2026-05-02T07:18:43.728Z</time></trkpt><trkpt lat="43.8103" lon="11.1672417"><ele>34.75</ele><time>2026-05-02T07:18:44.727Z</time></trkpt><trkpt lat="43.8103233" lon="11.1670617"><ele>34.5</ele><time>2026-05-02T07:18:45.725Z</time></trkpt><trkpt lat="43.8103433" lon="11.166895"><ele>34.25</ele><time>2026-05-02T07:18:46.726Z</time></trkpt><trkpt lat="43.810365" lon="11.1667333"><ele>34.0</ele><time>2026-05-02T07:18:47.727Z</time></trkpt><trkpt lat="43.810385" lon="11.1665683"><ele>34.0</ele><time>2026-05-02T07:18:48.727Z</time></trkpt><trkpt lat="43.8104" lon="11.1663967"><ele>34.0</ele><time>2026-05-02T07:18:49.727Z</time></trkpt><trkpt lat="43.8104117" lon="11.1662233"><ele>34.0</ele><time>2026-05-02T07:18:50.728Z</time></trkpt><trkpt lat="43.8104267" lon="11.1660483"><ele>34.0</ele><time>2026-05-02T07:18:51.728Z</time></trkpt><trkpt lat="43.8104467" lon="11.1658767"><ele>34.0</ele><time>2026-05-02T07:18:52.726Z</time></trkpt><trkpt lat="43.8104683" lon="11.1657033"><ele>34.0</ele><time>2026-05-02T07:18:53.727Z</time></trkpt><trkpt lat="43.8104917" lon="11.1655367"><ele>34.0</ele><time>2026-05-02T07:18:54.726Z</time></trkpt><trkpt lat="43.8105183" lon="11.1653717"><ele>34.0</ele><time>2026-05-02T07:18:55.726Z</time></trkpt><trkpt lat="43.8105533" lon="11.1652083"><ele>34.0</ele><time>2026-05-02T07:18:56.728Z</time></trkpt><trkpt lat="43.8105967" lon="11.1650467"><ele>34.0</ele><time>2026-05-02T07:18:57.728Z</time></trkpt><trkpt lat="43.81065" lon="11.16489"><ele>34.0</ele><time>2026-05-02T07:18:58.727Z</time></trkpt><trkpt lat="43.8107183" lon="11.164745"><ele>34.0</ele><time>2026-05-02T07:18:59.728Z</time></trkpt><trkpt lat="43.8108" lon="11.1646083"><ele>34.25</ele><time>2026-05-02T07:19:00.727Z</time></trkpt><trkpt lat="43.8108883" lon="11.164475"><ele>34.5</ele><time>2026-05-02T07:19:01.728Z</time></trkpt><trkpt lat="43.8109733" lon="11.16433"><ele>34.75</ele><time>2026-05-02T07:19:02.729Z</time></trkpt><trkpt lat="43.8110433" lon="11.16417"><ele>35.0</ele><time>2026-05-02T07:19:03.726Z</time></trkpt><trkpt lat="43.8111017" lon="11.1639933"><ele>34.25</ele><time>2026-05-02T07:19:04.727Z</time></trkpt><trkpt lat="43.811145" lon="11.1638133"><ele>33.5</ele><time>2026-05-02T07:19:05.727Z</time></trkpt><trkpt lat="43.8111833" lon="11.16363"><ele>32.75</ele><time>2026-05-02T07:19:06.726Z</time></trkpt><trkpt lat="43.81122" lon="11.163445"><ele>32.0</ele><time>2026-05-02T07:19:07.728Z</time></trkpt><trkpt lat="43.8112617" lon="11.16326"><ele>32.75</ele><time>2026-05-02T07:19:08.728Z</time></trkpt><trkpt lat="43.8113033" lon="11.1630767"><ele>33.5</ele><time>2026-05-02T07:19:09.726Z</time></trkpt><trkpt lat="43.811345" lon="11.162895"><ele>34.25</ele><time>2026-05-02T07:19:10.728Z</time></trkpt><trkpt lat="43.811385" lon="11.1627117"><ele>35.0</ele><time>2026-05-02T07:19:11.728Z</time></trkpt><trkpt lat="43.81142" lon="11.1625267"><ele>35.0</ele><time>2026-05-02T07:19:12.728Z</time></trkpt><trkpt lat="43.81145" lon="11.162335"><ele>35.0</ele><time>2026-05-02T07:19:13.729Z</time></trkpt><trkpt lat="43.811455" lon="11.1621433"><ele>35.0</ele><time>2026-05-02T07:19:14.727Z</time></trkpt><trkpt lat="43.8114433" lon="11.1619533"><ele>35.0</ele><time>2026-05-02T07:19:15.726Z</time></trkpt><trkpt lat="43.81142" lon="11.1617633"><ele>35.0</ele><time>2026-05-02T07:19:16.727Z</time></trkpt><trkpt lat="43.8114017" lon="11.161575"><ele>35.0</ele><time>2026-05-02T07:19:17.728Z</time></trkpt><trkpt lat="43.81139" lon="11.1613833"><ele>35.0</ele><time>2026-05-02T07:19:18.726Z</time></trkpt><trkpt lat="43.8113967" lon="11.1611917"><ele>35.0</ele><time>2026-05-02T07:19:19.728Z</time></trkpt><trkpt lat="43.8114233" lon="11.1610017"><ele>35.25</ele><time>2026-05-02T07:19:20.728Z</time></trkpt><trkpt lat="43.811465" lon="11.1608117"><ele>35.5</ele><time>2026-05-02T07:19:21.727Z</time></trkpt><trkpt lat="43.8115067" lon="11.1606233"><ele>35.75</ele><time>2026-05-02T07:19:22.726Z</time></trkpt><trkpt lat="43.8115567" lon="11.160435"><ele>36.0</ele><time>2026-05-02T07:19:23.727Z</time></trkpt><trkpt lat="43.8116033" lon="11.1602467"><ele>36.0</ele><time>2026-05-02T07:19:24.728Z</time></trkpt><trkpt lat="43.81165" lon="11.160055"><ele>36.0</ele><time>2026-05-02T07:19:25.728Z</time></trkpt><trkpt lat="43.8116917" lon="11.1598667"><ele>36.0</ele><time>2026-05-02T07:19:26.727Z</time></trkpt><trkpt lat="43.8117333" lon="11.159675"><ele>36.0</ele><time>2026-05-02T07:19:27.726Z</time></trkpt><trkpt lat="43.8117717" lon="11.159485"><ele>36.0</ele><time>2026-05-02T07:19:28.727Z</time></trkpt><trkpt lat="43.81181" lon="11.1592967"><ele>36.0</ele><time>2026-05-02T07:19:29.728Z</time></trkpt><trkpt lat="43.8118433" lon="11.159115"><ele>36.0</ele><time>2026-05-02T07:19:30.727Z</time></trkpt><trkpt lat="43.8118767" lon="11.1589367"><ele>36.0</ele><time>2026-05-02T07:19:31.727Z</time></trkpt><trkpt lat="43.8119067" lon="11.1587633"><ele>36.0</ele><time>2026-05-02T07:19:32.729Z</time></trkpt><trkpt lat="43.8119433" lon="11.158595"><ele>36.0</ele><time>2026-05-02T07:19:33.727Z</time></trkpt><trkpt lat="43.8119783" lon="11.15843"><ele>36.0</ele><time>2026-05-02T07:19:34.728Z</time></trkpt><trkpt lat="43.8120133" lon="11.1582683"><ele>36.0</ele><time>2026-05-02T07:19:35.726Z</time></trkpt><trkpt lat="43.8120467" lon="11.1581083"><ele>36.0</ele><time>2026-05-02T07:19:36.726Z</time></trkpt><trkpt lat="43.8120833" lon="11.1579517"><ele>36.0</ele><time>2026-05-02T07:19:37.727Z</time></trkpt><trkpt lat="43.81212" lon="11.1578017"><ele>36.0</ele><time>2026-05-02T07:19:38.726Z</time></trkpt><trkpt lat="43.8121583" lon="11.157655"><ele>36.0</ele><time>2026-05-02T07:19:39.727Z</time></trkpt><trkpt lat="43.812205" lon="11.1575083"><ele>35.75</ele><time>2026-05-02T07:19:40.726Z</time></trkpt><trkpt lat="43.81226" lon="11.15736"><ele>35.5</ele><time>2026-05-02T07:19:41.727Z</time></trkpt><trkpt lat="43.8123283" lon="11.1572133"><ele>35.25</ele><time>2026-05-02T07:19:42.728Z</time></trkpt><trkpt lat="43.812405" lon="11.1570733"><ele>35.0</ele><time>2026-05-02T07:19:43.727Z</time></trkpt><trkpt lat="43.8124867" lon="11.1569367"><ele>35.0</ele><time>2026-05-02T07:19:44.727Z</time></trkpt><trkpt lat="43.8125833" lon="11.1568067"><ele>35.0</ele><time>2026-05-02T07:19:45.726Z</time></trkpt><trkpt lat="43.812685" lon="11.1566817"><ele>35.0</ele><time>2026-05-02T07:19:46.728Z</time></trkpt><trkpt lat="43.8127933" lon="11.1565583"><ele>35.0</ele><time>2026-05-02T07:19:47.726Z</time></trkpt><trkpt lat="43.812905" lon="11.1564417"><ele>35.0</ele><time>2026-05-02T07:19:48.727Z</time></trkpt><trkpt lat="43.813025" lon="11.156335"><ele>35.0</ele><time>2026-05-02T07:19:49.727Z</time></trkpt><trkpt lat="43.8131533" lon="11.1562383"><ele>35.0</ele><time>2026-05-02T07:19:50.727Z</time></trkpt><trkpt lat="43.81328" lon="11.1561417"><ele>35.0</ele><time>2026-05-02T07:19:51.727Z</time></trkpt><trkpt lat="43.813405" lon="11.1560433"><ele>34.75</ele><time>2026-05-02T07:19:52.726Z</time></trkpt><trkpt lat="43.8135267" lon="11.155945"><ele>34.5</ele><time>2026-05-02T07:19:53.727Z</time></trkpt><trkpt lat="43.81365" lon="11.1558483"><ele>34.25</ele><time>2026-05-02T07:19:54.728Z</time></trkpt><trkpt lat="43.813765" lon="11.15575"><ele>34.0</ele><time>2026-05-02T07:19:55.727Z</time></trkpt><trkpt lat="43.8138767" lon="11.1556617"><ele>34.0</ele><time>2026-05-02T07:19:56.728Z</time></trkpt><trkpt lat="43.81399" lon="11.1555783"><ele>34.0</ele><time>2026-05-02T07:19:57.726Z</time></trkpt><trkpt lat="43.814105" lon="11.1554967"><ele>34.0</ele><time>2026-05-02T07:19:58.726Z</time></trkpt><trkpt lat="43.8142183" lon="11.1554067"><ele>34.0</ele><time>2026-05-02T07:19:59.727Z</time></trkpt><trkpt lat="43.81433" lon="11.1553133"><ele>34.25</ele><time>2026-05-02T07:20:00.727Z</time></trkpt><trkpt lat="43.8144367" lon="11.155215"><ele>34.5</ele><time>2026-05-02T07:20:01.727Z</time></trkpt><trkpt lat="43.8145467" lon="11.1551133"><ele>34.75</ele><time>2026-05-02T07:20:02.727Z</time></trkpt><trkpt lat="43.8146617" lon="11.15501"><ele>35.0</ele><time>2026-05-02T07:20:03.727Z</time></trkpt><trkpt lat="43.81478" lon="11.1549067"><ele>35.25</ele><time>2026-05-02T07:20:04.727Z</time></trkpt><trkpt lat="43.8148883" lon="11.154795"><ele>35.5</ele><time>2026-05-02T07:20:05.728Z</time></trkpt><trkpt lat="43.8149917" lon="11.1546867"><ele>35.75</ele><time>2026-05-02T07:20:06.727Z</time></trkpt><trkpt lat="43.81508" lon="11.1545817"><ele>36.0</ele><time>2026-05-02T07:20:07.728Z</time></trkpt><trkpt lat="43.8151583" lon="11.1544783"><ele>35.4</ele><time>2026-05-02T07:20:08.727Z</time></trkpt><trkpt lat="43.8152267" lon="11.1543833"><ele>34.8</ele><time>2026-05-02T07:20:09.728Z</time></trkpt><trkpt lat="43.8152967" lon="11.154305"><ele>34.199999999999996</ele><time>2026-05-02T07:20:10.727Z</time></trkpt><trkpt lat="43.8153817" lon="11.1542417"><ele>33.6</ele><time>2026-05-02T07:20:11.727Z</time></trkpt><trkpt lat="43.8154733" lon="11.1541717"><ele>33.0</ele><time>2026-05-02T07:20:12.726Z</time></trkpt><trkpt lat="43.8155717" lon="11.1540817"><ele>33.5</ele><time>2026-05-02T07:20:13.728Z</time></trkpt><trkpt lat="43.8156683" lon="11.153965"><ele>34.0</ele><time>2026-05-02T07:20:14.727Z</time></trkpt><trkpt lat="43.81577" lon="11.1538317"><ele>34.5</ele><time>2026-05-02T07:20:15.726Z</time></trkpt><trkpt lat="43.8158733" lon="11.1536867"><ele>35.0</ele><time>2026-05-02T07:20:16.728Z</time></trkpt><trkpt lat="43.815975" lon="11.1535383"><ele>35.0</ele><time>2026-05-02T07:20:17.726Z</time></trkpt><trkpt lat="43.8160767" lon="11.15339"><ele>35.0</ele><time>2026-05-02T07:20:18.726Z</time></trkpt><trkpt lat="43.8161783" lon="11.1532383"><ele>35.0</ele><time>2026-05-02T07:20:19.728Z</time></trkpt><trkpt lat="43.8162817" lon="11.1530883"><ele>35.0</ele><time>2026-05-02T07:20:20.729Z</time></trkpt><trkpt lat="43.816385" lon="11.1529367"><ele>35.0</ele><time>2026-05-02T07:20:21.727Z</time></trkpt><trkpt lat="43.8164883" lon="11.1527833"><ele>35.0</ele><time>2026-05-02T07:20:22.727Z</time></trkpt><trkpt lat="43.8165933" lon="11.1526317"><ele>35.0</ele><time>2026-05-02T07:20:23.728Z</time></trkpt><trkpt lat="43.8167" lon="11.1524867"><ele>34.75</ele><time>2026-05-02T07:20:24.726Z</time></trkpt><trkpt lat="43.8168083" lon="11.1523417"><ele>34.5</ele><time>2026-05-02T07:20:25.727Z</time></trkpt><trkpt lat="43.816915" lon="11.1521983"><ele>34.25</ele><time>2026-05-02T07:20:26.728Z</time></trkpt><trkpt lat="43.81702" lon="11.1520567"><ele>34.0</ele><time>2026-05-02T07:20:27.726Z</time></trkpt><trkpt lat="43.81713" lon="11.151915"><ele>34.0</ele><time>2026-05-02T07:20:28.727Z</time></trkpt><trkpt lat="43.8172417" lon="11.1517717"><ele>34.0</ele><time>2026-05-02T07:20:29.726Z</time></trkpt><trkpt lat="43.81734" lon="11.1516317"><ele>34.0</ele><time>2026-05-02T07:20:30.727Z</time></trkpt><trkpt lat="43.8174417" lon="11.1514867"><ele>34.0</ele><time>2026-05-02T07:20:31.729Z</time></trkpt><trkpt lat="43.8175433" lon="11.1513417"><ele>34.0</ele><time>2026-05-02T07:20:32.729Z</time></trkpt><trkpt lat="43.81766" lon="11.1511883"><ele>34.0</ele><time>2026-05-02T07:20:33.726Z</time></trkpt><trkpt lat="43.817775" lon="11.1510233"><ele>34.0</ele><time>2026-05-02T07:20:34.728Z</time></trkpt><trkpt lat="43.8178783" lon="11.15084"><ele>34.333333333333336</ele><time>2026-05-02T07:20:35.727Z</time></trkpt><trkpt lat="43.8179833" lon="11.1506767"><ele>34.666666666666664</ele><time>2026-05-02T07:20:36.727Z</time></trkpt><trkpt lat="43.8180917" lon="11.1505067"><ele>35.0</ele><time>2026-05-02T07:20:37.727Z</time></trkpt><trkpt lat="43.8182033" lon="11.1503233"><ele>35.0</ele><time>2026-05-02T07:20:38.728Z</time></trkpt><trkpt lat="43.8183233" lon="11.150125"><ele>35.0</ele><time>2026-05-02T07:20:39.728Z</time></trkpt><trkpt lat="43.8184533" lon="11.14994"><ele>35.0</ele><time>2026-05-02T07:20:40.727Z</time></trkpt><trkpt lat="43.818585" lon="11.1497633"><ele>35.33333333333333</ele><time>2026-05-02T07:20:41.726Z</time></trkpt><trkpt lat="43.8187217" lon="11.1495983"><ele>35.666666666666664</ele><time>2026-05-02T07:20:42.727Z</time></trkpt><trkpt lat="43.81886" lon="11.1494517"><ele>36.0</ele><time>2026-05-02T07:20:43.727Z</time></trkpt><trkpt lat="43.8189967" lon="11.14932"><ele>36.0</ele><time>2026-05-02T07:20:44.728Z</time></trkpt><trkpt lat="43.8191417" lon="11.1492117"><ele>36.0</ele><time>2026-05-02T07:20:45.727Z</time></trkpt><trkpt lat="43.819285" lon="11.149115"><ele>36.0</ele><time>2026-05-02T07:20:46.726Z</time></trkpt><trkpt lat="43.8194267" lon="11.149025"><ele>36.0</ele><time>2026-05-02T07:20:47.727Z</time></trkpt><trkpt lat="43.8195733" lon="11.1489483"><ele>36.0</ele><time>2026-05-02T07:20:48.727Z</time></trkpt><trkpt lat="43.8197133" lon="11.14887"><ele>36.0</ele><time>2026-05-02T07:20:49.727Z</time></trkpt><trkpt lat="43.8198533" lon="11.14879"><ele>36.0</ele><time>2026-05-02T07:20:50.727Z</time></trkpt><trkpt lat="43.81999" lon="11.14871"><ele>36.0</ele><time>2026-05-02T07:20:51.726Z</time></trkpt><trkpt lat="43.8201283" lon="11.1486233"><ele>36.0</ele><time>2026-05-02T07:20:52.727Z</time></trkpt><trkpt lat="43.82027" lon="11.14854"><ele>36.666666666666664</ele><time>2026-05-02T07:20:53.728Z</time></trkpt><trkpt lat="43.8204133" lon="11.148455"><ele>37.33333333333333</ele><time>2026-05-02T07:20:54.725Z</time></trkpt><trkpt lat="43.8205583" lon="11.1483667"><ele>38.0</ele><time>2026-05-02T07:20:55.728Z</time></trkpt><trkpt lat="43.82071" lon="11.148275"><ele>38.0</ele><time>2026-05-02T07:20:56.728Z</time></trkpt><trkpt lat="43.8208683" lon="11.148175"><ele>38.0</ele><time>2026-05-02T07:20:57.728Z</time></trkpt><trkpt lat="43.8210317" lon="11.14807"><ele>38.0</ele><time>2026-05-02T07:20:58.728Z</time></trkpt><trkpt lat="43.8212033" lon="11.1479717"><ele>37.33333333333333</ele><time>2026-05-02T07:20:59.726Z</time></trkpt><trkpt lat="43.8213767" lon="11.14787"><ele>36.666666666666664</ele><time>2026-05-02T07:21:00.726Z</time></trkpt><trkpt lat="43.8215483" lon="11.1477833"><ele>36.0</ele><time>2026-05-02T07:21:01.728Z</time></trkpt><trkpt lat="43.8217167" lon="11.1477"><ele>36.666666666666664</ele><time>2026-05-02T07:21:02.726Z</time></trkpt><trkpt lat="43.8218783" lon="11.14762"><ele>37.33333333333333</ele><time>2026-05-02T07:21:03.728Z</time></trkpt><trkpt lat="43.8220317" lon="11.14754"><ele>38.0</ele><time>2026-05-02T07:21:04.727Z</time></trkpt><trkpt lat="43.8221767" lon="11.14746"><ele>38.0</ele><time>2026-05-02T07:21:05.727Z</time></trkpt><trkpt lat="43.8223133" lon="11.1473883"><ele>38.0</ele><time>2026-05-02T07:21:06.727Z</time></trkpt><trkpt lat="43.8224417" lon="11.14732"><ele>38.0</ele><time>2026-05-02T07:21:07.726Z</time></trkpt><trkpt lat="43.8225567" lon="11.1472567"><ele>38.0</ele><time>2026-05-02T07:21:08.727Z</time></trkpt><trkpt lat="43.82266" lon="11.1471983"><ele>38.0</ele><time>2026-05-02T07:21:09.727Z</time></trkpt><trkpt lat="43.8227567" lon="11.1471433"><ele>38.0</ele><time>2026-05-02T07:21:10.726Z</time></trkpt><trkpt lat="43.822845" lon="11.1470917"><ele>38.0</ele><time>2026-05-02T07:21:11.729Z</time></trkpt><trkpt lat="43.822925" lon="11.1470417"><ele>38.0</ele><time>2026-05-02T07:21:12.728Z</time></trkpt><trkpt lat="43.8229833" lon="11.1470033"><ele>38.0</ele><time>2026-05-02T07:21:13.728Z</time></trkpt><trkpt lat="43.8230417" lon="11.1469483"><ele>38.0</ele><time>2026-05-02T07:21:15.727Z</time></trkpt><trkpt lat="43.8231383" lon="11.14688"><ele>38.0</ele><time>2026-05-02T07:21:18.726Z</time></trkpt><trkpt lat="43.8232333" lon="11.1468167"><ele>38.0</ele><time>2026-05-02T07:21:20.727Z</time></trkpt><trkpt lat="43.8233067" lon="11.1467433"><ele>38.0</ele><time>2026-05-02T07:21:22.727Z</time></trkpt><trkpt lat="43.8233817" lon="11.146645"><ele>38.0</ele><time>2026-05-02T07:21:24.727Z</time></trkpt><trkpt lat="43.8234283" lon="11.1465833"><ele>38.0</ele><time>2026-05-02T07:21:25.728Z</time></trkpt><trkpt lat="43.8234817" lon="11.1465167"><ele>38.0</ele><time>2026-05-02T07:21:26.727Z</time></trkpt><trkpt lat="43.8235417" lon="11.1464417"><ele>37.6</ele><time>2026-05-02T07:21:27.727Z</time></trkpt><trkpt lat="43.8236033" lon="11.1463667"><ele>37.199999999999996</ele><time>2026-05-02T07:21:28.727Z</time></trkpt><trkpt lat="43.8236617" lon="11.14628"><ele>36.8</ele><time>2026-05-02T07:21:29.727Z</time></trkpt><trkpt lat="43.8237317" lon="11.1461917"><ele>36.4</ele><time>2026-05-02T07:21:30.727Z</time></trkpt><trkpt lat="43.8237967" lon="11.1460933"><ele>36.0</ele><time>2026-05-02T07:21:31.727Z</time></trkpt><trkpt lat="43.8238683" lon="11.1459933"><ele>36.0</ele><time>2026-05-02T07:21:32.727Z</time></trkpt><trkpt lat="43.823945" lon="11.1458933"><ele>36.0</ele><time>2026-05-02T07:21:33.726Z</time></trkpt><trkpt lat="43.82403" lon="11.1457883"><ele>36.0</ele><time>2026-05-02T07:21:34.727Z</time></trkpt><trkpt lat="43.824115" lon="11.145675"><ele>36.0</ele><time>2026-05-02T07:21:35.729Z</time></trkpt><trkpt lat="43.8242033" lon="11.1455617"><ele>36.4</ele><time>2026-05-02T07:21:36.727Z</time></trkpt><trkpt lat="43.8242883" lon="11.1454467"><ele>36.8</ele><time>2026-05-02T07:21:37.728Z</time></trkpt><trkpt lat="43.8243683" lon="11.145335"><ele>37.199999999999996</ele><time>2026-05-02T07:21:38.726Z</time></trkpt><trkpt lat="43.8244417" lon="11.1452333"><ele>37.6</ele><time>2026-05-02T07:21:39.728Z</time></trkpt><trkpt lat="43.824515" lon="11.1451367"><ele>38.0</ele><time>2026-05-02T07:21:40.727Z</time></trkpt><trkpt lat="43.824585" lon="11.145045"><ele>38.0</ele><time>2026-05-02T07:21:41.726Z</time></trkpt><trkpt lat="43.8246517" lon="11.14496"><ele>38.0</ele><time>2026-05-02T07:21:42.727Z</time></trkpt><trkpt lat="43.8247117" lon="11.144885"><ele>38.0</ele><time>2026-05-02T07:21:43.726Z</time></trkpt><trkpt lat="43.8247633" lon="11.1448267"><ele>38.0</ele><time>2026-05-02T07:21:44.728Z</time></trkpt><trkpt lat="43.8248283" lon="11.1447517"><ele>38.0</ele><time>2026-05-02T07:21:46.726Z</time></trkpt><trkpt lat="43.8248867" lon="11.144705"><ele>38.0</ele><time>2026-05-02T07:21:50.727Z</time></trkpt><trkpt lat="43.8249883" lon="11.1446433"><ele>38.0</ele><time>2026-05-02T07:21:53.727Z</time></trkpt><trkpt lat="43.8251217" lon="11.144595"><ele>38.0</ele><time>2026-05-02T07:21:55.727Z</time></trkpt><trkpt lat="43.8252033" lon="11.14459"><ele>38.0</ele><time>2026-05-02T07:21:56.727Z</time></trkpt><trkpt lat="43.8252917" lon="11.144605"><ele>38.0</ele><time>2026-05-02T07:21:57.727Z</time></trkpt><trkpt lat="43.8253867" lon="11.1446617"><ele>38.0</ele><time>2026-05-02T07:21:58.727Z</time></trkpt><trkpt lat="43.8254883" lon="11.14474"><ele>38.0</ele><time>2026-05-02T07:21:59.727Z</time></trkpt><trkpt lat="43.8256017" lon="11.14485"><ele>38.0</ele><time>2026-05-02T07:22:00.727Z</time></trkpt><trkpt lat="43.82572" lon="11.1449783"><ele>38.0</ele><time>2026-05-02T07:22:01.727Z</time></trkpt><trkpt lat="43.8258417" lon="11.145115"><ele>38.0</ele><time>2026-05-02T07:22:02.728Z</time></trkpt><trkpt lat="43.8259667" lon="11.1452617"><ele>37.33333333333333</ele><time>2026-05-02T07:22:03.727Z</time></trkpt><trkpt lat="43.826095" lon="11.1454067"><ele>36.666666666666664</ele><time>2026-05-02T07:22:04.727Z</time></trkpt><trkpt lat="43.826225" lon="11.1455517"><ele>36.0</ele><time>2026-05-02T07:22:05.727Z</time></trkpt><trkpt lat="43.8263567" lon="11.145695"><ele>36.0</ele><time>2026-05-02T07:22:06.726Z</time></trkpt><trkpt lat="43.8264917" lon="11.14584"><ele>36.0</ele><time>2026-05-02T07:22:07.727Z</time></trkpt><trkpt lat="43.8266283" lon="11.1459883"><ele>36.0</ele><time>2026-05-02T07:22:08.727Z</time></trkpt><trkpt lat="43.826765" lon="11.1461367"><ele>36.0</ele><time>2026-05-02T07:22:09.727Z</time></trkpt><trkpt lat="43.8269033" lon="11.1462867"><ele>36.0</ele><time>2026-05-02T07:22:10.728Z</time></trkpt><trkpt lat="43.827045" lon="11.1464417"><ele>36.0</ele><time>2026-05-02T07:22:11.726Z</time></trkpt><trkpt lat="43.8271917" lon="11.1465983"><ele>36.333333333333336</ele><time>2026-05-02T07:22:12.727Z</time></trkpt><trkpt lat="43.8273383" lon="11.146755"><ele>36.66666666666667</ele><time>2026-05-02T07:22:13.726Z</time></trkpt><trkpt lat="43.8274867" lon="11.1469067"><ele>37.0</ele><time>2026-05-02T07:22:14.727Z</time></trkpt><trkpt lat="43.827635" lon="11.14707"><ele>37.0</ele><time>2026-05-02T07:22:15.727Z</time></trkpt><trkpt lat="43.8277867" lon="11.1472283"><ele>37.0</ele><time>2026-05-02T07:22:16.727Z</time></trkpt><trkpt lat="43.8279333" lon="11.1473883"><ele>37.0</ele><time>2026-05-02T07:22:17.726Z</time></trkpt><trkpt lat="43.8280833" lon="11.1475433"><ele>36.66666666666667</ele><time>2026-05-02T07:22:18.726Z</time></trkpt><trkpt lat="43.82823" lon="11.1477017"><ele>36.333333333333336</ele><time>2026-05-02T07:22:19.728Z</time></trkpt><trkpt lat="43.8283717" lon="11.1478583"><ele>36.0</ele><time>2026-05-02T07:22:20.727Z</time></trkpt><trkpt lat="43.8285117" lon="11.14801"><ele>36.666666666666664</ele><time>2026-05-02T07:22:21.728Z</time></trkpt><trkpt lat="43.8286517" lon="11.1481567"><ele>37.33333333333333</ele><time>2026-05-02T07:22:22.727Z</time></trkpt><trkpt lat="43.8287883" lon="11.1483017"><ele>38.0</ele><time>2026-05-02T07:22:23.726Z</time></trkpt><trkpt lat="43.828925" lon="11.1484417"><ele>38.0</ele><time>2026-05-02T07:22:24.729Z</time></trkpt><trkpt lat="43.8290583" lon="11.148585"><ele>38.0</ele><time>2026-05-02T07:22:25.727Z</time></trkpt><trkpt lat="43.8291917" lon="11.1487217"><ele>38.0</ele><time>2026-05-02T07:22:26.727Z</time></trkpt><trkpt lat="43.8293183" lon="11.1488533"><ele>37.75</ele><time>2026-05-02T07:22:27.727Z</time></trkpt><trkpt lat="43.829435" lon="11.1489767"><ele>37.5</ele><time>2026-05-02T07:22:28.728Z</time></trkpt><trkpt lat="43.8295417" lon="11.14909"><ele>37.25</ele><time>2026-05-02T07:22:29.727Z</time></trkpt><trkpt lat="43.82964" lon="11.149195"><ele>37.0</ele><time>2026-05-02T07:22:30.727Z</time></trkpt><trkpt lat="43.8297283" lon="11.1492917"><ele>37.0</ele><time>2026-05-02T07:22:31.726Z</time></trkpt><trkpt lat="43.8298033" lon="11.1493767"><ele>37.0</ele><time>2026-05-02T07:22:32.727Z</time></trkpt><trkpt lat="43.8298667" lon="11.149455"><ele>37.0</ele><time>2026-05-02T07:22:33.727Z</time></trkpt><trkpt lat="43.8299117" lon="11.1495383"><ele>37.0</ele><time>2026-05-02T07:22:34.726Z</time></trkpt><trkpt lat="43.8299383" lon="11.1496233"><ele>37.0</ele><time>2026-05-02T07:22:35.727Z</time></trkpt><trkpt lat="43.82996" lon="11.14971"><ele>37.0</ele><time>2026-05-02T07:22:36.727Z</time></trkpt><trkpt lat="43.8299933" lon="11.1497917"><ele>37.0</ele><time>2026-05-02T07:22:37.728Z</time></trkpt><trkpt lat="43.83004" lon="11.14986"><ele>37.0</ele><time>2026-05-02T07:22:38.726Z</time></trkpt><trkpt lat="43.8300983" lon="11.14991"><ele>37.0</ele><time>2026-05-02T07:22:39.727Z</time></trkpt><trkpt lat="43.8301617" lon="11.1499583"><ele>37.0</ele><time>2026-05-02T07:22:40.727Z</time></trkpt><trkpt lat="43.83024" lon="11.1500083"><ele>37.0</ele><time>2026-05-02T07:22:41.727Z</time></trkpt><trkpt lat="43.83032" lon="11.150095"><ele>37.0</ele><time>2026-05-02T07:22:42.727Z</time></trkpt><trkpt lat="43.8304033" lon="11.150205"><ele>37.0</ele><time>2026-05-02T07:22:43.726Z</time></trkpt><trkpt lat="43.830495" lon="11.150335"><ele>37.0</ele><time>2026-05-02T07:22:44.726Z</time></trkpt><trkpt lat="43.830595" lon="11.1504733"><ele>37.0</ele><time>2026-05-02T07:22:45.727Z</time></trkpt><trkpt lat="43.830705" lon="11.1506283"><ele>37.0</ele><time>2026-05-02T07:22:46.727Z</time></trkpt><trkpt lat="43.8308233" lon="11.1507883"><ele>37.0</ele><time>2026-05-02T07:22:47.727Z</time></trkpt><trkpt lat="43.8309517" lon="11.15095"><ele>37.0</ele><time>2026-05-02T07:22:48.728Z</time></trkpt><trkpt lat="43.8310817" lon="11.1511217"><ele>37.0</ele><time>2026-05-02T07:22:49.73Z</time></trkpt><trkpt lat="43.8312117" lon="11.1512833"><ele>37.25</ele><time>2026-05-02T07:22:50.73Z</time></trkpt><trkpt lat="43.8313367" lon="11.1514233"><ele>37.5</ele><time>2026-05-02T07:22:51.727Z</time></trkpt><trkpt lat="43.831455" lon="11.1515383"><ele>37.75</ele><time>2026-05-02T07:22:52.727Z</time></trkpt><trkpt lat="43.8315717" lon="11.1516367"><ele>38.0</ele><time>2026-05-02T07:22:53.727Z</time></trkpt><trkpt lat="43.8316867" lon="11.151725"><ele>38.0</ele><time>2026-05-02T07:22:54.728Z</time></trkpt><trkpt lat="43.8318067" lon="11.1518083"><ele>38.0</ele><time>2026-05-02T07:22:55.728Z</time></trkpt><trkpt lat="43.8319317" lon="11.1518833"><ele>38.0</ele><time>2026-05-02T07:22:56.728Z</time></trkpt><trkpt lat="43.8320717" lon="11.15195"><ele>38.0</ele><time>2026-05-02T07:22:57.728Z</time></trkpt><trkpt lat="43.8322383" lon="11.152025"><ele>38.666666666666664</ele><time>2026-05-02T07:22:58.727Z</time></trkpt><trkpt lat="43.8324217" lon="11.1521033"><ele>39.333333333333336</ele><time>2026-05-02T07:22:59.727Z</time></trkpt><trkpt lat="43.8326017" lon="11.1521967"><ele>40.0</ele><time>2026-05-02T07:23:00.726Z</time></trkpt><trkpt lat="43.83277" lon="11.1522967"><ele>39.66666666666667</ele><time>2026-05-02T07:23:01.727Z</time></trkpt><trkpt lat="43.83294" lon="11.1523933"><ele>39.333333333333336</ele><time>2026-05-02T07:23:02.727Z</time></trkpt><trkpt lat="43.8331133" lon="11.1524767"><ele>39.0</ele><time>2026-05-02T07:23:03.728Z</time></trkpt><trkpt lat="43.8332783" lon="11.15255"><ele>39.0</ele><time>2026-05-02T07:23:04.727Z</time></trkpt><trkpt lat="43.8334417" lon="11.1526083"><ele>39.0</ele><time>2026-05-02T07:23:05.727Z</time></trkpt><trkpt lat="43.8335933" lon="11.1526667"><ele>39.0</ele><time>2026-05-02T07:23:06.727Z</time></trkpt><trkpt lat="43.8337367" lon="11.1527267"><ele>38.75</ele><time>2026-05-02T07:23:07.728Z</time></trkpt><trkpt lat="43.83387" lon="11.152785"><ele>38.5</ele><time>2026-05-02T07:23:08.728Z</time></trkpt><trkpt lat="43.8339917" lon="11.1528433"><ele>38.25</ele><time>2026-05-02T07:23:09.728Z</time></trkpt><trkpt lat="43.8341" lon="11.1529083"><ele>38.0</ele><time>2026-05-02T07:23:10.726Z</time></trkpt><trkpt lat="43.8341933" lon="11.153"><ele>38.0</ele><time>2026-05-02T07:23:11.726Z</time></trkpt><trkpt lat="43.8342833" lon="11.1530917"><ele>38.0</ele><time>2026-05-02T07:23:12.727Z</time></trkpt><trkpt lat="43.8343817" lon="11.15315"><ele>38.0</ele><time>2026-05-02T07:23:13.727Z</time></trkpt><trkpt lat="43.8344917" lon="11.153155"><ele>38.0</ele><time>2026-05-02T07:23:14.73Z</time></trkpt><trkpt lat="43.834615" lon="11.1531483"><ele>38.0</ele><time>2026-05-02T07:23:15.729Z</time></trkpt><trkpt lat="43.834745" lon="11.1531517"><ele>38.0</ele><time>2026-05-02T07:23:16.727Z</time></trkpt><trkpt lat="43.8348817" lon="11.1531783"><ele>38.0</ele><time>2026-05-02T07:23:17.728Z</time></trkpt><trkpt lat="43.8350283" lon="11.1532267"><ele>38.0</ele><time>2026-05-02T07:23:18.729Z</time></trkpt><trkpt lat="43.83518" lon="11.15328"><ele>38.666666666666664</ele><time>2026-05-02T07:23:19.727Z</time></trkpt><trkpt lat="43.835345" lon="11.1533467"><ele>39.333333333333336</ele><time>2026-05-02T07:23:20.727Z</time></trkpt><trkpt lat="43.83551" lon="11.1534183"><ele>40.0</ele><time>2026-05-02T07:23:21.728Z</time></trkpt><trkpt lat="43.835675" lon="11.1534917"><ele>40.0</ele><time>2026-05-02T07:23:22.729Z</time></trkpt><trkpt lat="43.835845" lon="11.1535617"><ele>40.0</ele><time>2026-05-02T07:23:23.728Z</time></trkpt><trkpt lat="43.836015" lon="11.1536333"><ele>40.0</ele><time>2026-05-02T07:23:24.727Z</time></trkpt><trkpt lat="43.83619" lon="11.153705"><ele>40.333333333333336</ele><time>2026-05-02T07:23:25.729Z</time></trkpt><trkpt lat="43.83637" lon="11.153775"><ele>40.666666666666664</ele><time>2026-05-02T07:23:26.729Z</time></trkpt><trkpt lat="43.8365517" lon="11.1538483"><ele>41.0</ele><time>2026-05-02T07:23:27.729Z</time></trkpt><trkpt lat="43.8367317" lon="11.15392"><ele>40.666666666666664</ele><time>2026-05-02T07:23:28.729Z</time></trkpt><trkpt lat="43.83691" lon="11.1539933"><ele>40.333333333333336</ele><time>2026-05-02T07:23:29.73Z</time></trkpt><trkpt lat="43.8370867" lon="11.154065"><ele>40.0</ele><time>2026-05-02T07:23:30.728Z</time></trkpt><trkpt lat="43.837265" lon="11.154135"><ele>40.0</ele><time>2026-05-02T07:23:31.727Z</time></trkpt><trkpt lat="43.8374433" lon="11.1542033"><ele>40.0</ele><time>2026-05-02T07:23:32.73Z</time></trkpt><trkpt lat="43.8376133" lon="11.154265"><ele>40.0</ele><time>2026-05-02T07:23:33.726Z</time></trkpt><trkpt lat="43.83777" lon="11.154325"><ele>40.25</ele><time>2026-05-02T07:23:34.729Z</time></trkpt><trkpt lat="43.8379167" lon="11.1543817"><ele>40.5</ele><time>2026-05-02T07:23:35.728Z</time></trkpt><trkpt lat="43.8380517" lon="11.1544333"><ele>40.75</ele><time>2026-05-02T07:23:36.729Z</time></trkpt><trkpt lat="43.83817" lon="11.1544833"><ele>41.0</ele><time>2026-05-02T07:23:37.728Z</time></trkpt><trkpt lat="43.838275" lon="11.154555"><ele>41.0</ele><time>2026-05-02T07:23:38.727Z</time></trkpt><trkpt lat="43.838365" lon="11.154655"><ele>41.0</ele><time>2026-05-02T07:23:39.729Z</time></trkpt><trkpt lat="43.8384517" lon="11.1547483"><ele>41.0</ele><time>2026-05-02T07:23:40.729Z</time></trkpt><trkpt lat="43.8385467" lon="11.1548183"><ele>41.0</ele><time>2026-05-02T07:23:41.729Z</time></trkpt><trkpt lat="43.8386483" lon="11.1548383"><ele>41.0</ele><time>2026-05-02T07:23:42.73Z</time></trkpt><trkpt lat="43.8387567" lon="11.15482"><ele>40.75</ele><time>2026-05-02T07:23:43.729Z</time></trkpt><trkpt lat="43.8388733" lon="11.1548033"><ele>40.5</ele><time>2026-05-02T07:23:44.728Z</time></trkpt><trkpt lat="43.8390017" lon="11.154815"><ele>40.25</ele><time>2026-05-02T07:23:45.728Z</time></trkpt><trkpt lat="43.8391383" lon="11.1548533"><ele>40.0</ele><time>2026-05-02T07:23:46.729Z</time></trkpt><trkpt lat="43.83928" lon="11.154915"><ele>40.66666666666667</ele><time>2026-05-02T07:23:47.728Z</time></trkpt><trkpt lat="43.83943" lon="11.15498"><ele>41.333333333333336</ele><time>2026-05-02T07:23:48.727Z</time></trkpt><trkpt lat="43.8395783" lon="11.1550433"><ele>42.0</ele><time>2026-05-02T07:23:49.728Z</time></trkpt><trkpt lat="43.8397267" lon="11.1551117"><ele>42.0</ele><time>2026-05-02T07:23:50.729Z</time></trkpt><trkpt lat="43.839875" lon="11.1551817"><ele>42.0</ele><time>2026-05-02T07:23:51.728Z</time></trkpt><trkpt lat="43.8400267" lon="11.1552617"><ele>42.0</ele><time>2026-05-02T07:23:52.727Z</time></trkpt><trkpt lat="43.8401767" lon="11.1553417"><ele>42.0</ele><time>2026-05-02T07:23:53.727Z</time></trkpt><trkpt lat="43.840325" lon="11.1554333"><ele>42.0</ele><time>2026-05-02T07:23:54.728Z</time></trkpt><trkpt lat="43.84047" lon="11.1555283"><ele>42.0</ele><time>2026-05-02T07:23:55.73Z</time></trkpt><trkpt lat="43.8406083" lon="11.155625"><ele>42.333333333333336</ele><time>2026-05-02T07:23:56.728Z</time></trkpt><trkpt lat="43.8407433" lon="11.1557233"><ele>42.66666666666667</ele><time>2026-05-02T07:23:57.729Z</time></trkpt><trkpt lat="43.8408783" lon="11.1558317"><ele>43.0</ele><time>2026-05-02T07:23:58.729Z</time></trkpt><trkpt lat="43.8410133" lon="11.1559417"><ele>42.333333333333336</ele><time>2026-05-02T07:23:59.73Z</time></trkpt><trkpt lat="43.8411483" lon="11.156055"><ele>41.666666666666664</ele><time>2026-05-02T07:24:00.729Z</time></trkpt><trkpt lat="43.8412817" lon="11.156175"><ele>41.0</ele><time>2026-05-02T07:24:01.726Z</time></trkpt><trkpt lat="43.8414133" lon="11.1562933"><ele>41.0</ele><time>2026-05-02T07:24:02.727Z</time></trkpt><trkpt lat="43.8415433" lon="11.15641"><ele>41.0</ele><time>2026-05-02T07:24:03.728Z</time></trkpt><trkpt lat="43.8416733" lon="11.156525"><ele>41.0</ele><time>2026-05-02T07:24:04.727Z</time></trkpt><trkpt lat="43.8418017" lon="11.1566383"><ele>40.75</ele><time>2026-05-02T07:24:05.728Z</time></trkpt><trkpt lat="43.8419283" lon="11.1567483"><ele>40.5</ele><time>2026-05-02T07:24:06.727Z</time></trkpt><trkpt lat="43.8420417" lon="11.156855"><ele>40.25</ele><time>2026-05-02T07:24:07.728Z</time></trkpt><trkpt lat="43.842135" lon="11.156965"><ele>40.0</ele><time>2026-05-02T07:24:08.728Z</time></trkpt><trkpt lat="43.84221" lon="11.1570867"><ele>40.0</ele><time>2026-05-02T07:24:09.73Z</time></trkpt><trkpt lat="43.8422517" lon="11.1572067"><ele>40.0</ele><time>2026-05-02T07:24:10.728Z</time></trkpt><trkpt lat="43.8422717" lon="11.1573017"><ele>40.0</ele><time>2026-05-02T07:24:11.728Z</time></trkpt><trkpt lat="43.84229" lon="11.1574633"><ele>40.0</ele><time>2026-05-02T07:24:13.727Z</time></trkpt><trkpt lat="43.8422933" lon="11.1575633"><ele>40.0</ele><time>2026-05-02T07:24:14.728Z</time></trkpt><trkpt lat="43.8423033" lon="11.1576767"><ele>40.0</ele><time>2026-05-02T07:24:15.727Z</time></trkpt><trkpt lat="43.842325" lon="11.1577917"><ele>40.0</ele><time>2026-05-02T07:24:16.728Z</time></trkpt><trkpt lat="43.84237" lon="11.157905"><ele>40.0</ele><time>2026-05-02T07:24:17.727Z</time></trkpt><trkpt lat="43.842435" lon="11.1580117"><ele>40.0</ele><time>2026-05-02T07:24:18.729Z</time></trkpt><trkpt lat="43.8425183" lon="11.1581133"><ele>40.0</ele><time>2026-05-02T07:24:19.728Z</time></trkpt><trkpt lat="43.8426117" lon="11.1582117"><ele>40.0</ele><time>2026-05-02T07:24:20.728Z</time></trkpt><trkpt lat="43.8427133" lon="11.1583133"><ele>40.0</ele><time>2026-05-02T07:24:21.728Z</time></trkpt><trkpt lat="43.84282" lon="11.158415"><ele>40.0</ele><time>2026-05-02T07:24:22.728Z</time></trkpt><trkpt lat="43.8429283" lon="11.1585117"><ele>40.0</ele><time>2026-05-02T07:24:23.729Z</time></trkpt><trkpt lat="43.8430333" lon="11.1586"><ele>40.0</ele><time>2026-05-02T07:24:24.728Z</time></trkpt><trkpt lat="43.84313" lon="11.1586767"><ele>40.0</ele><time>2026-05-02T07:24:25.726Z</time></trkpt><trkpt lat="43.8432233" lon="11.1587317"><ele>40.0</ele><time>2026-05-02T07:24:26.728Z</time></trkpt><trkpt lat="43.843325" lon="11.1587617"><ele>40.0</ele><time>2026-05-02T07:24:27.728Z</time></trkpt><trkpt lat="43.843435" lon="11.1587617"><ele>40.0</ele><time>2026-05-02T07:24:28.729Z</time></trkpt><trkpt lat="43.8435467" lon="11.1587583"><ele>40.0</ele><time>2026-05-02T07:24:29.728Z</time></trkpt><trkpt lat="43.8436633" lon="11.158755"><ele>41.25</ele><time>2026-05-02T07:24:30.728Z</time></trkpt><trkpt lat="43.843785" lon="11.1587567"><ele>42.5</ele><time>2026-05-02T07:24:31.728Z</time></trkpt><trkpt lat="43.8439033" lon="11.158765"><ele>43.75</ele><time>2026-05-02T07:24:32.727Z</time></trkpt><trkpt lat="43.84402" lon="11.1587717"><ele>45.0</ele><time>2026-05-02T07:24:33.728Z</time></trkpt><trkpt lat="43.84413" lon="11.1587783"><ele>45.0</ele><time>2026-05-02T07:24:34.728Z</time></trkpt><trkpt lat="43.8442367" lon="11.1587817"><ele>45.0</ele><time>2026-05-02T07:24:35.729Z</time></trkpt><trkpt lat="43.844335" lon="11.15879"><ele>45.0</ele><time>2026-05-02T07:24:36.728Z</time></trkpt><trkpt lat="43.8444283" lon="11.1588067"><ele>45.0</ele><time>2026-05-02T07:24:37.727Z</time></trkpt><trkpt lat="43.84452" lon="11.1588483"><ele>45.0</ele><time>2026-05-02T07:24:38.73Z</time></trkpt><trkpt lat="43.8446067" lon="11.1589"><ele>45.4</ele><time>2026-05-02T07:24:39.728Z</time></trkpt><trkpt lat="43.8446933" lon="11.15896"><ele>45.8</ele><time>2026-05-02T07:24:40.728Z</time></trkpt><trkpt lat="43.84478" lon="11.1590283"><ele>46.2</ele><time>2026-05-02T07:24:41.728Z</time></trkpt><trkpt lat="43.8448667" lon="11.1590983"><ele>46.6</ele><time>2026-05-02T07:24:42.729Z</time></trkpt><trkpt lat="43.8449533" lon="11.1591683"><ele>47.0</ele><time>2026-05-02T07:24:43.729Z</time></trkpt><trkpt lat="43.8450383" lon="11.15924"><ele>47.2</ele><time>2026-05-02T07:24:44.729Z</time></trkpt><trkpt lat="43.84512" lon="11.159315"><ele>47.400000000000006</ele><time>2026-05-02T07:24:45.727Z</time></trkpt><trkpt lat="43.8452" lon="11.1593883"><ele>47.599999999999994</ele><time>2026-05-02T07:24:46.728Z</time></trkpt><trkpt lat="43.8452817" lon="11.159455"><ele>47.8</ele><time>2026-05-02T07:24:47.727Z</time></trkpt><trkpt lat="43.845365" lon="11.159525"><ele>48.0</ele><time>2026-05-02T07:24:48.728Z</time></trkpt><trkpt lat="43.8454467" lon="11.159595"><ele>48.0</ele><time>2026-05-02T07:24:49.726Z</time></trkpt><trkpt lat="43.84553" lon="11.1596683"><ele>48.0</ele><time>2026-05-02T07:24:50.728Z</time></trkpt><trkpt lat="43.8456133" lon="11.159745"><ele>48.0</ele><time>2026-05-02T07:24:51.728Z</time></trkpt><trkpt lat="43.8457" lon="11.1598183"><ele>48.0</ele><time>2026-05-02T07:24:52.728Z</time></trkpt><trkpt lat="43.84579" lon="11.1598917"><ele>48.0</ele><time>2026-05-02T07:24:53.729Z</time></trkpt><trkpt lat="43.8458833" lon="11.159965"><ele>48.0</ele><time>2026-05-02T07:24:54.727Z</time></trkpt><trkpt lat="43.8459783" lon="11.1600367"><ele>48.0</ele><time>2026-05-02T07:24:55.726Z</time></trkpt><trkpt lat="43.846075" lon="11.1601117"><ele>48.0</ele><time>2026-05-02T07:24:56.73Z</time></trkpt><trkpt lat="43.84617" lon="11.1602"><ele>48.0</ele><time>2026-05-02T07:24:57.728Z</time></trkpt><trkpt lat="43.8462617" lon="11.1602967"><ele>48.0</ele><time>2026-05-02T07:24:58.728Z</time></trkpt><trkpt lat="43.8463583" lon="11.160395"><ele>48.0</ele><time>2026-05-02T07:24:59.728Z</time></trkpt><trkpt lat="43.846455" lon="11.160495"><ele>48.0</ele><time>2026-05-02T07:25:00.727Z</time></trkpt><trkpt lat="43.8465517" lon="11.160585"><ele>48.0</ele><time>2026-05-02T07:25:01.728Z</time></trkpt><trkpt lat="43.8466433" lon="11.1606667"><ele>48.0</ele><time>2026-05-02T07:25:02.727Z</time></trkpt><trkpt lat="43.8467333" lon="11.16074"><ele>48.0</ele><time>2026-05-02T07:25:03.729Z</time></trkpt><trkpt lat="43.8468233" lon="11.1608133"><ele>48.0</ele><time>2026-05-02T07:25:04.728Z</time></trkpt><trkpt lat="43.8469133" lon="11.1608833"><ele>48.0</ele><time>2026-05-02T07:25:05.73Z</time></trkpt><trkpt lat="43.8470033" lon="11.1609533"><ele>48.0</ele><time>2026-05-02T07:25:06.727Z</time></trkpt><trkpt lat="43.84709" lon="11.1610267"><ele>48.0</ele><time>2026-05-02T07:25:07.729Z</time></trkpt><trkpt lat="43.84717" lon="11.1610933"><ele>48.0</ele><time>2026-05-02T07:25:08.727Z</time></trkpt><trkpt lat="43.8472467" lon="11.161155"><ele>48.0</ele><time>2026-05-02T07:25:09.728Z</time></trkpt><trkpt lat="43.8473167" lon="11.1612133"><ele>48.0</ele><time>2026-05-02T07:25:10.729Z</time></trkpt><trkpt lat="43.8473767" lon="11.1612667"><ele>48.0</ele><time>2026-05-02T07:25:11.728Z</time></trkpt><trkpt lat="43.8474317" lon="11.1613217"><ele>48.0</ele><time>2026-05-02T07:25:12.729Z</time></trkpt><trkpt lat="43.8474817" lon="11.1613917"><ele>48.0</ele><time>2026-05-02T07:25:13.727Z</time></trkpt><trkpt lat="43.847525" lon="11.1614817"><ele>48.0</ele><time>2026-05-02T07:25:14.728Z</time></trkpt><trkpt lat="43.847565" lon="11.1615783"><ele>48.0</ele><time>2026-05-02T07:25:15.728Z</time></trkpt><trkpt lat="43.8476017" lon="11.16168"><ele>48.0</ele><time>2026-05-02T07:25:16.729Z</time></trkpt><trkpt lat="43.8476467" lon="11.1617683"><ele>48.0</ele><time>2026-05-02T07:25:17.727Z</time></trkpt><trkpt lat="43.8477" lon="11.161835"><ele>48.0</ele><time>2026-05-02T07:25:18.728Z</time></trkpt><trkpt lat="43.8477633" lon="11.1618733"><ele>48.0</ele><time>2026-05-02T07:25:19.728Z</time></trkpt><trkpt lat="43.8478317" lon="11.1618817"><ele>48.0</ele><time>2026-05-02T07:25:20.729Z</time></trkpt><trkpt lat="43.847905" lon="11.1618583"><ele>48.0</ele><time>2026-05-02T07:25:21.727Z</time></trkpt><trkpt lat="43.8479833" lon="11.1618483"><ele>48.0</ele><time>2026-05-02T07:25:22.727Z</time></trkpt><trkpt lat="43.848065" lon="11.1618583"><ele>48.0</ele><time>2026-05-02T07:25:23.73Z</time></trkpt><trkpt lat="43.84815" lon="11.1619067"><ele>48.0</ele><time>2026-05-02T07:25:24.728Z</time></trkpt><trkpt lat="43.8482367" lon="11.1619733"><ele>48.0</ele><time>2026-05-02T07:25:25.727Z</time></trkpt><trkpt lat="43.8483233" lon="11.1620483"><ele>48.0</ele><time>2026-05-02T07:25:26.73Z</time></trkpt><trkpt lat="43.8484033" lon="11.1621217"><ele>48.0</ele><time>2026-05-02T07:25:27.728Z</time></trkpt><trkpt lat="43.8484767" lon="11.1621883"><ele>48.0</ele><time>2026-05-02T07:25:28.728Z</time></trkpt><trkpt lat="43.8485467" lon="11.16226"><ele>48.0</ele><time>2026-05-02T07:25:29.727Z</time></trkpt><trkpt lat="43.8486183" lon="11.1623317"><ele>48.0</ele><time>2026-05-02T07:25:30.729Z</time></trkpt><trkpt lat="43.84869" lon="11.162395"><ele>48.0</ele><time>2026-05-02T07:25:31.736Z</time></trkpt><trkpt lat="43.848765" lon="11.1624533"><ele>48.8</ele><time>2026-05-02T07:25:32.728Z</time></trkpt><trkpt lat="43.8488483" lon="11.1625217"><ele>49.599999999999994</ele><time>2026-05-02T07:25:33.73Z</time></trkpt><trkpt lat="43.8489367" lon="11.1625917"><ele>50.400000000000006</ele><time>2026-05-02T07:25:34.728Z</time></trkpt><trkpt lat="43.849025" lon="11.162665"><ele>51.2</ele><time>2026-05-02T07:25:35.73Z</time></trkpt><trkpt lat="43.8491133" lon="11.1627483"><ele>52.0</ele><time>2026-05-02T07:25:36.727Z</time></trkpt><trkpt lat="43.8492083" lon="11.1628333"><ele>52.0</ele><time>2026-05-02T07:25:37.729Z</time></trkpt><trkpt lat="43.8493233" lon="11.1629367"><ele>52.0</ele><time>2026-05-02T07:25:38.727Z</time></trkpt><trkpt lat="43.84944" lon="11.1630617"><ele>52.0</ele><time>2026-05-02T07:25:39.727Z</time></trkpt><trkpt lat="43.849555" lon="11.1631833"><ele>52.0</ele><time>2026-05-02T07:25:40.728Z</time></trkpt><trkpt lat="43.8496683" lon="11.1633083"><ele>52.5</ele><time>2026-05-02T07:25:41.729Z</time></trkpt><trkpt lat="43.8497783" lon="11.163435"><ele>53.0</ele><time>2026-05-02T07:25:42.727Z</time></trkpt><trkpt lat="43.8498867" lon="11.1635533"><ele>53.5</ele><time>2026-05-02T07:25:43.729Z</time></trkpt><trkpt lat="43.8499933" lon="11.163665"><ele>54.0</ele><time>2026-05-02T07:25:44.728Z</time></trkpt><trkpt lat="43.8501067" lon="11.1637783"><ele>54.0</ele><time>2026-05-02T07:25:45.727Z</time></trkpt><trkpt lat="43.8502133" lon="11.1639117"><ele>54.0</ele><time>2026-05-02T07:25:46.728Z</time></trkpt><trkpt lat="43.8503133" lon="11.1640583"><ele>54.0</ele><time>2026-05-02T07:25:47.728Z</time></trkpt><trkpt lat="43.850405" lon="11.1642117"><ele>54.0</ele><time>2026-05-02T07:25:48.729Z</time></trkpt><trkpt lat="43.850495" lon="11.16437"><ele>53.75</ele><time>2026-05-02T07:25:49.727Z</time></trkpt><trkpt lat="43.8505833" lon="11.1645233"><ele>53.5</ele><time>2026-05-02T07:25:50.73Z</time></trkpt><trkpt lat="43.8506717" lon="11.1646767"><ele>53.25</ele><time>2026-05-02T07:25:51.729Z</time></trkpt><trkpt lat="43.8507533" lon="11.164825"><ele>53.0</ele><time>2026-05-02T07:25:52.73Z</time></trkpt><trkpt lat="43.8508267" lon="11.1649733"><ele>53.0</ele><time>2026-05-02T07:25:53.727Z</time></trkpt><trkpt lat="43.8508967" lon="11.16512"><ele>53.0</ele><time>2026-05-02T07:25:54.73Z</time></trkpt><trkpt lat="43.8509583" lon="11.1652583"><ele>53.0</ele><time>2026-05-02T07:25:55.727Z</time></trkpt><trkpt lat="43.8510117" lon="11.1653817"><ele>53.0</ele><time>2026-05-02T07:25:56.728Z</time></trkpt><trkpt lat="43.8510517" lon="11.16549"><ele>53.0</ele><time>2026-05-02T07:25:57.728Z</time></trkpt><trkpt lat="43.8510733" lon="11.1655733"><ele>53.4</ele><time>2026-05-02T07:25:58.728Z</time></trkpt><trkpt lat="43.8511" lon="11.16571"><ele>53.8</ele><time>2026-05-02T07:26:00.727Z</time></trkpt><trkpt lat="43.8511117" lon="11.16587"><ele>54.2</ele><time>2026-05-02T07:26:02.727Z</time></trkpt><trkpt lat="43.8511033" lon="11.1659817"><ele>54.6</ele><time>2026-05-02T07:26:03.729Z</time></trkpt><trkpt lat="43.8510767" lon="11.1661033"><ele>55.0</ele><time>2026-05-02T07:26:04.728Z</time></trkpt><trkpt lat="43.85106" lon="11.1662283"><ele>54.99999999999999</ele><time>2026-05-02T07:26:05.73Z</time></trkpt><trkpt lat="43.8510633" lon="11.1663533"><ele>55.0</ele><time>2026-05-02T07:26:06.728Z</time></trkpt><trkpt lat="43.8511033" lon="11.1664433"><ele>55.0</ele><time>2026-05-02T07:26:07.728Z</time></trkpt><trkpt lat="43.8511533" lon="11.1665033"><ele>55.0</ele><time>2026-05-02T07:26:08.728Z</time></trkpt><trkpt lat="43.8512333" lon="11.1664883"><ele>54.99999999999999</ele><time>2026-05-02T07:26:09.728Z</time></trkpt><trkpt lat="43.8513133" lon="11.1664617"><ele>55.0</ele><time>2026-05-02T07:26:10.729Z</time></trkpt><trkpt lat="43.85139" lon="11.1663917"><ele>55.0</ele><time>2026-05-02T07:26:11.728Z</time></trkpt><trkpt lat="43.8514483" lon="11.16623"><ele>55.0</ele><time>2026-05-02T07:26:12.728Z</time></trkpt><trkpt lat="43.8515067" lon="11.1660833"><ele>55.0</ele><time>2026-05-02T07:26:13.729Z</time></trkpt><trkpt lat="43.8515633" lon="11.16593"><ele>55.0</ele><time>2026-05-02T07:26:14.727Z</time></trkpt><trkpt lat="43.8516183" lon="11.1657717"><ele>54.75</ele><time>2026-05-02T07:26:15.726Z</time></trkpt><trkpt lat="43.851675" lon="11.16561"><ele>54.5</ele><time>2026-05-02T07:26:16.728Z</time></trkpt><trkpt lat="43.8517317" lon="11.16545"><ele>54.25</ele><time>2026-05-02T07:26:17.726Z</time></trkpt><trkpt lat="43.8517933" lon="11.16529"><ele>54.0</ele><time>2026-05-02T07:26:18.727Z</time></trkpt><trkpt lat="43.8518567" lon="11.1651333"><ele>54.0</ele><time>2026-05-02T07:26:19.728Z</time></trkpt><trkpt lat="43.8519183" lon="11.164975"><ele>54.0</ele><time>2026-05-02T07:26:20.727Z</time></trkpt><trkpt lat="43.8519817" lon="11.1648167"><ele>54.0</ele><time>2026-05-02T07:26:21.727Z</time></trkpt><trkpt lat="43.85204" lon="11.1646567"><ele>54.0</ele><time>2026-05-02T07:26:22.727Z</time></trkpt><trkpt lat="43.852095" lon="11.1645167"><ele>54.0</ele><time>2026-05-02T07:26:23.727Z</time></trkpt><trkpt lat="43.8521533" lon="11.164395"><ele>54.00000000000001</ele><time>2026-05-02T07:26:24.728Z</time></trkpt><trkpt lat="43.8522233" lon="11.1642917"><ele>54.00000000000001</ele><time>2026-05-02T07:26:25.728Z</time></trkpt><trkpt lat="43.8523133" lon="11.16421"><ele>54.0</ele><time>2026-05-02T07:26:26.728Z</time></trkpt><trkpt lat="43.8524133" lon="11.164145"><ele>54.0</ele><time>2026-05-02T07:26:27.728Z</time></trkpt><trkpt lat="43.8525133" lon="11.1640733"><ele>53.75</ele><time>2026-05-02T07:26:28.726Z</time></trkpt><trkpt lat="43.8526017" lon="11.163975"><ele>53.5</ele><time>2026-05-02T07:26:29.727Z</time></trkpt><trkpt lat="43.8526717" lon="11.163845"><ele>53.25</ele><time>2026-05-02T07:26:30.728Z</time></trkpt><trkpt lat="43.8527283" lon="11.163695"><ele>53.0</ele><time>2026-05-02T07:26:31.729Z</time></trkpt><trkpt lat="43.8527733" lon="11.1635483"><ele>53.0</ele><time>2026-05-02T07:26:32.728Z</time></trkpt><trkpt lat="43.8528017" lon="11.1634033"><ele>53.0</ele><time>2026-05-02T07:26:33.73Z</time></trkpt><trkpt lat="43.8528033" lon="11.1632583"><ele>53.0</ele><time>2026-05-02T07:26:34.729Z</time></trkpt><trkpt lat="43.8527683" lon="11.1631267"><ele>53.0</ele><time>2026-05-02T07:26:35.729Z</time></trkpt><trkpt lat="43.852705" lon="11.16301"><ele>53.0</ele><time>2026-05-02T07:26:36.728Z</time></trkpt><trkpt lat="43.8526367" lon="11.1629"><ele>53.0</ele><time>2026-05-02T07:26:37.728Z</time></trkpt><trkpt lat="43.8525883" lon="11.1627817"><ele>53.0</ele><time>2026-05-02T07:26:38.73Z</time></trkpt><trkpt lat="43.8525733" lon="11.162655"><ele>53.0</ele><time>2026-05-02T07:26:39.729Z</time></trkpt><trkpt lat="43.8525883" lon="11.1625167"><ele>53.0</ele><time>2026-05-02T07:26:40.728Z</time></trkpt><trkpt lat="43.8526317" lon="11.1623667"><ele>53.0</ele><time>2026-05-02T07:26:41.728Z</time></trkpt><trkpt lat="43.85269" lon="11.1622083"><ele>53.0</ele><time>2026-05-02T07:26:42.728Z</time></trkpt><trkpt lat="43.8527533" lon="11.1620433"><ele>53.0</ele><time>2026-05-02T07:26:43.726Z</time></trkpt><trkpt lat="43.852815" lon="11.1618667"><ele>53.0</ele><time>2026-05-02T07:26:44.729Z</time></trkpt><trkpt lat="43.8528767" lon="11.1616883"><ele>53.0</ele><time>2026-05-02T07:26:45.729Z</time></trkpt><trkpt lat="43.852935" lon="11.161515"><ele>53.0</ele><time>2026-05-02T07:26:46.726Z</time></trkpt><trkpt lat="43.8529867" lon="11.161345"><ele>53.0</ele><time>2026-05-02T07:26:47.728Z</time></trkpt><trkpt lat="43.8530383" lon="11.1611833"><ele>53.0</ele><time>2026-05-02T07:26:48.728Z</time></trkpt><trkpt lat="43.85309" lon="11.1610267"><ele>53.0</ele><time>2026-05-02T07:26:49.727Z</time></trkpt><trkpt lat="43.8531383" lon="11.1608783"><ele>53.0</ele><time>2026-05-02T07:26:50.728Z</time></trkpt><trkpt lat="43.8531783" lon="11.1607367"><ele>53.0</ele><time>2026-05-02T07:26:51.728Z</time></trkpt><trkpt lat="43.8532217" lon="11.1606117"><ele>53.0</ele><time>2026-05-02T07:26:52.729Z</time></trkpt><trkpt lat="43.8532683" lon="11.1605067"><ele>53.0</ele><time>2026-05-02T07:26:53.73Z</time></trkpt><trkpt lat="43.8533267" lon="11.1604217"><ele>53.0</ele><time>2026-05-02T07:26:54.727Z</time></trkpt><trkpt lat="43.853395" lon="11.1603483"><ele>53.333333333333336</ele><time>2026-05-02T07:26:55.727Z</time></trkpt><trkpt lat="43.8534667" lon="11.16028"><ele>53.66666666666667</ele><time>2026-05-02T07:26:56.727Z</time></trkpt><trkpt lat="43.8535383" lon="11.16021"><ele>54.0</ele><time>2026-05-02T07:26:57.728Z</time></trkpt><trkpt lat="43.8536083" lon="11.1601467"><ele>54.33333333333333</ele><time>2026-05-02T07:26:58.73Z</time></trkpt><trkpt lat="43.85368" lon="11.1601033"><ele>54.666666666666664</ele><time>2026-05-02T07:26:59.728Z</time></trkpt><trkpt lat="43.8537583" lon="11.160085"><ele>55.0</ele><time>2026-05-02T07:27:00.728Z</time></trkpt><trkpt lat="43.853845" lon="11.160105"><ele>55.0</ele><time>2026-05-02T07:27:01.728Z</time></trkpt><trkpt lat="43.853945" lon="11.1601533"><ele>55.0</ele><time>2026-05-02T07:27:02.73Z</time></trkpt><trkpt lat="43.8540567" lon="11.1602183"><ele>55.0</ele><time>2026-05-02T07:27:03.729Z</time></trkpt><trkpt lat="43.854165" lon="11.1602717"><ele>55.0</ele><time>2026-05-02T07:27:04.729Z</time></trkpt><trkpt lat="43.8542733" lon="11.1603217"><ele>55.33333333333333</ele><time>2026-05-02T07:27:05.728Z</time></trkpt><trkpt lat="43.8543633" lon="11.1603633"><ele>55.666666666666664</ele><time>2026-05-02T07:27:06.726Z</time></trkpt><trkpt lat="43.85444" lon="11.1603917"><ele>56.0</ele><time>2026-05-02T07:27:07.729Z</time></trkpt><trkpt lat="43.854505" lon="11.1604233"><ele>56.33333333333333</ele><time>2026-05-02T07:27:08.728Z</time></trkpt><trkpt lat="43.8545667" lon="11.1604733"><ele>56.666666666666664</ele><time>2026-05-02T07:27:09.729Z</time></trkpt><trkpt lat="43.85463" lon="11.1605433"><ele>57.0</ele><time>2026-05-02T07:27:10.729Z</time></trkpt><trkpt lat="43.8546983" lon="11.1606383"><ele>56.25</ele><time>2026-05-02T07:27:11.73Z</time></trkpt><trkpt lat="43.8547767" lon="11.1607383"><ele>55.5</ele><time>2026-05-02T07:27:12.728Z</time></trkpt><trkpt lat="43.8548667" lon="11.160835"><ele>54.75</ele><time>2026-05-02T07:27:13.729Z</time></trkpt><trkpt lat="43.8549683" lon="11.1609183"><ele>54.0</ele><time>2026-05-02T07:27:14.728Z</time></trkpt><trkpt lat="43.855075" lon="11.1610033"><ele>54.75</ele><time>2026-05-02T07:27:15.728Z</time></trkpt><trkpt lat="43.8551883" lon="11.1610883"><ele>55.5</ele><time>2026-05-02T07:27:16.728Z</time></trkpt><trkpt lat="43.8553033" lon="11.1611783"><ele>56.25</ele><time>2026-05-02T07:27:17.727Z</time></trkpt><trkpt lat="43.8554217" lon="11.1612667"><ele>57.0</ele><time>2026-05-02T07:27:18.728Z</time></trkpt><trkpt lat="43.8555367" lon="11.1613567"><ele>57.0</ele><time>2026-05-02T07:27:19.728Z</time></trkpt><trkpt lat="43.85565" lon="11.16145"><ele>57.0</ele><time>2026-05-02T07:27:20.728Z</time></trkpt><trkpt lat="43.85576" lon="11.161545"><ele>57.0</ele><time>2026-05-02T07:27:21.729Z</time></trkpt><trkpt lat="43.8558717" lon="11.1616367"><ele>57.0</ele><time>2026-05-02T07:27:22.727Z</time></trkpt><trkpt lat="43.8559833" lon="11.1617283"><ele>57.66666666666667</ele><time>2026-05-02T07:27:23.727Z</time></trkpt><trkpt lat="43.856245" lon="11.1617133"><ele>58.333333333333336</ele><time>2026-05-02T07:27:25.193Z</time></trkpt><trkpt lat="43.856315" lon="11.16187"><ele>59.0</ele><time>2026-05-02T07:27:26.227Z</time></trkpt><trkpt lat="43.8564767" lon="11.1620317"><ele>59.0</ele><time>2026-05-02T07:27:27.73Z</time></trkpt><trkpt lat="43.8565833" lon="11.1621517"><ele>59.0</ele><time>2026-05-02T07:27:28.728Z</time></trkpt><trkpt lat="43.856695" lon="11.1622617"><ele>59.0</ele><time>2026-05-02T07:27:29.728Z</time></trkpt><trkpt lat="43.8567933" lon="11.16237"><ele>59.0</ele><time>2026-05-02T07:27:30.727Z</time></trkpt><trkpt lat="43.8568983" lon="11.1624617"><ele>59.2</ele><time>2026-05-02T07:27:31.73Z</time></trkpt><trkpt lat="43.8569967" lon="11.1625517"><ele>59.400000000000006</ele><time>2026-05-02T07:27:32.729Z</time></trkpt><trkpt lat="43.857085" lon="11.1626383"><ele>59.6</ele><time>2026-05-02T07:27:33.727Z</time></trkpt><trkpt lat="43.8571617" lon="11.162715"><ele>59.8</ele><time>2026-05-02T07:27:34.728Z</time></trkpt><trkpt lat="43.85723" lon="11.1627833"><ele>60.0</ele><time>2026-05-02T07:27:35.729Z</time></trkpt><trkpt lat="43.85731" lon="11.1628833"><ele>60.0</ele><time>2026-05-02T07:27:37.728Z</time></trkpt><trkpt lat="43.8573533" lon="11.1629667"><ele>60.0</ele><time>2026-05-02T07:27:39.727Z</time></trkpt><trkpt lat="43.8574183" lon="11.1631083"><ele>60.0</ele><time>2026-05-02T07:27:41.728Z</time></trkpt><trkpt lat="43.8574733" lon="11.1631733"><ele>60.0</ele><time>2026-05-02T07:27:42.729Z</time></trkpt><trkpt lat="43.8576233" lon="11.1632383"><ele>60.0</ele><time>2026-05-02T07:27:44.728Z</time></trkpt><trkpt lat="43.85772" lon="11.16324"><ele>59.5</ele><time>2026-05-02T07:27:45.726Z</time></trkpt><trkpt lat="43.857825" lon="11.1632583"><ele>59.0</ele><time>2026-05-02T07:27:46.727Z</time></trkpt><trkpt lat="43.8579317" lon="11.1632983"><ele>58.5</ele><time>2026-05-02T07:27:47.728Z</time></trkpt><trkpt lat="43.85804" lon="11.1633567"><ele>58.0</ele><time>2026-05-02T07:27:48.726Z</time></trkpt><trkpt lat="43.85815" lon="11.1634133"><ele>58.0</ele><time>2026-05-02T07:27:49.728Z</time></trkpt><trkpt lat="43.85826" lon="11.1634683"><ele>58.0</ele><time>2026-05-02T07:27:50.728Z</time></trkpt><trkpt lat="43.8583667" lon="11.1635267"><ele>58.0</ele><time>2026-05-02T07:27:51.728Z</time></trkpt><trkpt lat="43.8584733" lon="11.1635783"><ele>58.0</ele><time>2026-05-02T07:27:52.727Z</time></trkpt><trkpt lat="43.8585783" lon="11.1636267"><ele>58.4</ele><time>2026-05-02T07:27:53.727Z</time></trkpt><trkpt lat="43.8586817" lon="11.16367"><ele>58.8</ele><time>2026-05-02T07:27:54.728Z</time></trkpt><trkpt lat="43.8587833" lon="11.163705"><ele>59.2</ele><time>2026-05-02T07:27:55.728Z</time></trkpt><trkpt lat="43.8588867" lon="11.1637367"><ele>59.6</ele><time>2026-05-02T07:27:56.727Z</time></trkpt><trkpt lat="43.8589917" lon="11.1637667"><ele>60.0</ele><time>2026-05-02T07:27:57.727Z</time></trkpt><trkpt lat="43.8590967" lon="11.1637983"><ele>60.0</ele><time>2026-05-02T07:27:58.728Z</time></trkpt><trkpt lat="43.8592033" lon="11.1638283"><ele>60.0</ele><time>2026-05-02T07:27:59.728Z</time></trkpt><trkpt lat="43.85931" lon="11.1638617"><ele>60.0</ele><time>2026-05-02T07:28:00.728Z</time></trkpt><trkpt lat="43.8594117" lon="11.1638983"><ele>60.0</ele><time>2026-05-02T07:28:01.727Z</time></trkpt><trkpt lat="43.8595083" lon="11.163945"><ele>60.0</ele><time>2026-05-02T07:28:02.728Z</time></trkpt><trkpt lat="43.8596" lon="11.16399"><ele>60.0</ele><time>2026-05-02T07:28:03.728Z</time></trkpt><trkpt lat="43.85969" lon="11.16404"><ele>60.0</ele><time>2026-05-02T07:28:04.727Z</time></trkpt><trkpt lat="43.859775" lon="11.1640983"><ele>60.0</ele><time>2026-05-02T07:28:05.727Z</time></trkpt><trkpt lat="43.8598583" lon="11.1641533"><ele>60.0</ele><time>2026-05-02T07:28:06.728Z</time></trkpt><trkpt lat="43.8599383" lon="11.164215"><ele>60.0</ele><time>2026-05-02T07:28:07.727Z</time></trkpt><trkpt lat="43.860015" lon="11.1642717"><ele>60.0</ele><time>2026-05-02T07:28:08.728Z</time></trkpt><trkpt lat="43.86009" lon="11.1643317"><ele>60.0</ele><time>2026-05-02T07:28:09.727Z</time></trkpt><trkpt lat="43.8601617" lon="11.1643917"><ele>60.0</ele><time>2026-05-02T07:28:10.726Z</time></trkpt><trkpt lat="43.86023" lon="11.1644433"><ele>60.0</ele><time>2026-05-02T07:28:11.728Z</time></trkpt><trkpt lat="43.8602883" lon="11.1644917"><ele>60.0</ele><time>2026-05-02T07:28:12.728Z</time></trkpt><trkpt lat="43.8603417" lon="11.1645433"><ele>60.0</ele><time>2026-05-02T07:28:13.728Z</time></trkpt><trkpt lat="43.86044" lon="11.164635"><ele>60.0</ele><time>2026-05-02T07:28:15.73Z</time></trkpt><trkpt lat="43.860535" lon="11.1647433"><ele>60.0</ele><time>2026-05-02T07:28:17.728Z</time></trkpt><trkpt lat="43.8605933" lon="11.1648017"><ele>60.0</ele><time>2026-05-02T07:28:18.728Z</time></trkpt><trkpt lat="43.8606583" lon="11.16487"><ele>60.0</ele><time>2026-05-02T07:28:19.727Z</time></trkpt><trkpt lat="43.8607283" lon="11.1649517"><ele>60.0</ele><time>2026-05-02T07:28:20.729Z</time></trkpt><trkpt lat="43.860795" lon="11.165055"><ele>60.0</ele><time>2026-05-02T07:28:21.727Z</time></trkpt><trkpt lat="43.8608583" lon="11.16517"><ele>60.0</ele><time>2026-05-02T07:28:22.727Z</time></trkpt><trkpt lat="43.860915" lon="11.16529"><ele>60.0</ele><time>2026-05-02T07:28:23.728Z</time></trkpt><trkpt lat="43.860965" lon="11.1654117"><ele>60.0</ele><time>2026-05-02T07:28:24.728Z</time></trkpt><trkpt lat="43.861015" lon="11.165535"><ele>60.0</ele><time>2026-05-02T07:28:25.728Z</time></trkpt><trkpt lat="43.8610633" lon="11.1656667"><ele>60.2</ele><time>2026-05-02T07:28:26.728Z</time></trkpt><trkpt lat="43.86111" lon="11.1657983"><ele>60.4</ele><time>2026-05-02T07:28:27.728Z</time></trkpt><trkpt lat="43.861155" lon="11.1659317"><ele>60.599999999999994</ele><time>2026-05-02T07:28:28.727Z</time></trkpt><trkpt lat="43.8611983" lon="11.1660683"><ele>60.8</ele><time>2026-05-02T07:28:29.728Z</time></trkpt><trkpt lat="43.8612433" lon="11.1661967"><ele>61.0</ele><time>2026-05-02T07:28:30.728Z</time></trkpt><trkpt lat="43.861285" lon="11.166325"><ele>61.0</ele><time>2026-05-02T07:28:31.728Z</time></trkpt><trkpt lat="43.861325" lon="11.166445"><ele>60.99999999999999</ele><time>2026-05-02T07:28:32.728Z</time></trkpt><trkpt lat="43.86136" lon="11.1665633"><ele>60.99999999999999</ele><time>2026-05-02T07:28:33.727Z</time></trkpt><trkpt lat="43.8613967" lon="11.1666783"><ele>61.0</ele><time>2026-05-02T07:28:34.728Z</time></trkpt><trkpt lat="43.861435" lon="11.1667983"><ele>61.0</ele><time>2026-05-02T07:28:35.727Z</time></trkpt><trkpt lat="43.8614733" lon="11.1669233"><ele>61.4</ele><time>2026-05-02T07:28:36.729Z</time></trkpt><trkpt lat="43.8615133" lon="11.1670483"><ele>61.8</ele><time>2026-05-02T07:28:37.727Z</time></trkpt><trkpt lat="43.8615533" lon="11.167175"><ele>62.199999999999996</ele><time>2026-05-02T07:28:38.728Z</time></trkpt><trkpt lat="43.861595" lon="11.167305"><ele>62.599999999999994</ele><time>2026-05-02T07:28:39.728Z</time></trkpt><trkpt lat="43.86164" lon="11.1674283"><ele>63.0</ele><time>2026-05-02T07:28:40.728Z</time></trkpt><trkpt lat="43.8616833" lon="11.1675467"><ele>63.2</ele><time>2026-05-02T07:28:41.728Z</time></trkpt><trkpt lat="43.8617317" lon="11.1676667"><ele>63.4</ele><time>2026-05-02T07:28:42.727Z</time></trkpt><trkpt lat="43.8617783" lon="11.1677883"><ele>63.60000000000001</ele><time>2026-05-02T07:28:43.73Z</time></trkpt><trkpt lat="43.8618267" lon="11.167905"><ele>63.800000000000004</ele><time>2026-05-02T07:28:44.729Z</time></trkpt><trkpt lat="43.8618733" lon="11.1680167"><ele>64.0</ele><time>2026-05-02T07:28:45.727Z</time></trkpt><trkpt lat="43.8619233" lon="11.1681283"><ele>64.8</ele><time>2026-05-02T07:28:46.727Z</time></trkpt><trkpt lat="43.8619767" lon="11.1682433"><ele>65.60000000000001</ele><time>2026-05-02T07:28:47.727Z</time></trkpt><trkpt lat="43.8620267" lon="11.1683483"><ele>66.4</ele><time>2026-05-02T07:28:48.727Z</time></trkpt><trkpt lat="43.8620767" lon="11.1684483"><ele>67.2</ele><time>2026-05-02T07:28:49.729Z</time></trkpt><trkpt lat="43.862125" lon="11.1685517"><ele>68.0</ele><time>2026-05-02T07:28:50.728Z</time></trkpt><trkpt lat="43.86217" lon="11.16866"><ele>68.0</ele><time>2026-05-02T07:28:51.728Z</time></trkpt><trkpt lat="43.862215" lon="11.1687683"><ele>68.0</ele><time>2026-05-02T07:28:52.728Z</time></trkpt><trkpt lat="43.8622533" lon="11.16888"><ele>68.0</ele><time>2026-05-02T07:28:53.728Z</time></trkpt><trkpt lat="43.8622833" lon="11.1690033"><ele>68.0</ele><time>2026-05-02T07:28:54.728Z</time></trkpt><trkpt lat="43.8623067" lon="11.1691233"><ele>68.0</ele><time>2026-05-02T07:28:55.727Z</time></trkpt><trkpt lat="43.8623283" lon="11.16924"><ele>68.0</ele><time>2026-05-02T07:28:56.728Z</time></trkpt><trkpt lat="43.862335" lon="11.16935"><ele>68.0</ele><time>2026-05-02T07:28:57.728Z</time></trkpt><trkpt lat="43.8623383" lon="11.16945"><ele>68.0</ele><time>2026-05-02T07:28:58.728Z</time></trkpt><trkpt lat="43.8623383" lon="11.1695417"><ele>68.0</ele><time>2026-05-02T07:28:59.727Z</time></trkpt><trkpt lat="43.86233" lon="11.1696383"><ele>68.0</ele><time>2026-05-02T07:29:00.727Z</time></trkpt><trkpt lat="43.8623083" lon="11.16974"><ele>68.0</ele><time>2026-05-02T07:29:01.727Z</time></trkpt><trkpt lat="43.8623833" lon="11.17027"><ele>67.8</ele><time>2026-05-02T07:29:02.972Z</time></trkpt><trkpt lat="43.8623317" lon="11.1703767"><ele>67.6</ele><time>2026-05-02T07:29:04.729Z</time></trkpt><trkpt lat="43.8623667" lon="11.17045"><ele>67.4</ele><time>2026-05-02T07:29:06.729Z</time></trkpt><trkpt lat="43.86246" lon="11.170455"><ele>67.2</ele><time>2026-05-02T07:29:08.727Z</time></trkpt><trkpt lat="43.8625667" lon="11.1704683"><ele>67.0</ele><time>2026-05-02T07:29:10.728Z</time></trkpt><trkpt lat="43.8626533" lon="11.1705967"><ele>67.33333333333333</ele><time>2026-05-02T07:29:13.729Z</time></trkpt><trkpt lat="43.8626683" lon="11.170695"><ele>67.66666666666666</ele><time>2026-05-02T07:29:14.728Z</time></trkpt><trkpt lat="43.8626683" lon="11.1707867"><ele>68.0</ele><time>2026-05-02T07:29:15.73Z</time></trkpt><trkpt lat="43.862645" lon="11.1709133"><ele>68.33333333333333</ele><time>2026-05-02T07:29:16.728Z</time></trkpt><trkpt lat="43.8626317" lon="11.1710517"><ele>68.66666666666667</ele><time>2026-05-02T07:29:17.729Z</time></trkpt><trkpt lat="43.862615" lon="11.171185"><ele>69.0</ele><time>2026-05-02T07:29:18.729Z</time></trkpt><trkpt lat="43.862595" lon="11.1713017"><ele>69.0</ele><time>2026-05-02T07:29:19.726Z</time></trkpt><trkpt lat="43.8625767" lon="11.1713983"><ele>69.0</ele><time>2026-05-02T07:29:20.728Z</time></trkpt><trkpt lat="43.8625483" lon="11.1715617"><ele>69.0</ele><time>2026-05-02T07:29:22.728Z</time></trkpt><trkpt lat="43.8625333" lon="11.17167"><ele>69.0</ele><time>2026-05-02T07:29:23.727Z</time></trkpt><trkpt lat="43.8625167" lon="11.171805"><ele>69.0</ele><time>2026-05-02T07:29:24.726Z</time></trkpt><trkpt lat="43.8625" lon="11.1719533"><ele>69.0</ele><time>2026-05-02T07:29:25.728Z</time></trkpt><trkpt lat="43.8624817" lon="11.17211"><ele>69.0</ele><time>2026-05-02T07:29:26.728Z</time></trkpt><trkpt lat="43.86246" lon="11.1722783"><ele>69.0</ele><time>2026-05-02T07:29:27.728Z</time></trkpt><trkpt lat="43.8624383" lon="11.172455"><ele>69.0</ele><time>2026-05-02T07:29:28.728Z</time></trkpt><trkpt lat="43.8624183" lon="11.1726383"><ele>69.5</ele><time>2026-05-02T07:29:29.729Z</time></trkpt><trkpt lat="43.862395" lon="11.1728233"><ele>70.0</ele><time>2026-05-02T07:29:30.728Z</time></trkpt><trkpt lat="43.86237" lon="11.1730083"><ele>70.5</ele><time>2026-05-02T07:29:31.727Z</time></trkpt><trkpt lat="43.8623467" lon="11.17319"><ele>71.0</ele><time>2026-05-02T07:29:32.727Z</time></trkpt><trkpt lat="43.8623217" lon="11.1733683"><ele>71.5</ele><time>2026-05-02T07:29:33.727Z</time></trkpt><trkpt lat="43.8623" lon="11.173545"><ele>72.0</ele><time>2026-05-02T07:29:34.728Z</time></trkpt><trkpt lat="43.8622783" lon="11.17372"><ele>72.5</ele><time>2026-05-02T07:29:35.729Z</time></trkpt><trkpt lat="43.8622567" lon="11.1738917"><ele>73.0</ele><time>2026-05-02T07:29:36.728Z</time></trkpt><trkpt lat="43.8622367" lon="11.1740617"><ele>73.25</ele><time>2026-05-02T07:29:37.729Z</time></trkpt><trkpt lat="43.862215" lon="11.1742283"><ele>73.5</ele><time>2026-05-02T07:29:38.727Z</time></trkpt><trkpt lat="43.862195" lon="11.1743933"><ele>73.75</ele><time>2026-05-02T07:29:39.728Z</time></trkpt><trkpt lat="43.862175" lon="11.1745567"><ele>74.0</ele><time>2026-05-02T07:29:40.729Z</time></trkpt><trkpt lat="43.8621533" lon="11.1747167"><ele>74.4</ele><time>2026-05-02T07:29:41.728Z</time></trkpt><trkpt lat="43.8621233" lon="11.1748667"><ele>74.80000000000001</ele><time>2026-05-02T07:29:42.728Z</time></trkpt><trkpt lat="43.8620867" lon="11.1749983"><ele>75.19999999999999</ele><time>2026-05-02T07:29:43.728Z</time></trkpt><trkpt lat="43.8620467" lon="11.17511"><ele>75.6</ele><time>2026-05-02T07:29:44.73Z</time></trkpt><trkpt lat="43.862015" lon="11.175205"><ele>76.0</ele><time>2026-05-02T07:29:45.727Z</time></trkpt><trkpt lat="43.8620083" lon="11.1753617"><ele>76.0</ele><time>2026-05-02T07:29:47.728Z</time></trkpt><trkpt lat="43.8621033" lon="11.1755"><ele>76.0</ele><time>2026-05-02T07:29:49.728Z</time></trkpt><trkpt lat="43.8621817" lon="11.17557"><ele>76.0</ele><time>2026-05-02T07:29:50.728Z</time></trkpt><trkpt lat="43.862265" lon="11.175645"><ele>76.0</ele><time>2026-05-02T07:29:51.727Z</time></trkpt><trkpt lat="43.86235" lon="11.1757217"><ele>76.0</ele><time>2026-05-02T07:29:52.727Z</time></trkpt><trkpt lat="43.8624317" lon="11.1757933"><ele>76.33333333333333</ele><time>2026-05-02T07:29:53.727Z</time></trkpt><trkpt lat="43.8625117" lon="11.175855"><ele>76.66666666666666</ele><time>2026-05-02T07:29:54.728Z</time></trkpt><trkpt lat="43.8625833" lon="11.17591"><ele>77.0</ele><time>2026-05-02T07:29:55.729Z</time></trkpt><trkpt lat="43.86265" lon="11.1759683"><ele>77.33333333333333</ele><time>2026-05-02T07:29:56.728Z</time></trkpt><trkpt lat="43.8627117" lon="11.17603"><ele>77.66666666666667</ele><time>2026-05-02T07:29:57.727Z</time></trkpt><trkpt lat="43.862765" lon="11.1761067"><ele>78.0</ele><time>2026-05-02T07:29:58.728Z</time></trkpt><trkpt lat="43.8628217" lon="11.1761817"><ele>78.16666666666667</ele><time>2026-05-02T07:29:59.729Z</time></trkpt><trkpt lat="43.8628817" lon="11.176245"><ele>78.33333333333333</ele><time>2026-05-02T07:30:00.728Z</time></trkpt><trkpt lat="43.8629517" lon="11.1762783"><ele>78.5</ele><time>2026-05-02T07:30:01.728Z</time></trkpt><trkpt lat="43.8630283" lon="11.17629"><ele>78.66666666666666</ele><time>2026-05-02T07:30:02.728Z</time></trkpt><trkpt lat="43.863125" lon="11.1762583"><ele>78.83333333333333</ele><time>2026-05-02T07:30:03.727Z</time></trkpt><trkpt lat="43.86323" lon="11.1762217"><ele>79.0</ele><time>2026-05-02T07:30:04.726Z</time></trkpt><trkpt lat="43.8633367" lon="11.1761983"><ele>79.0</ele><time>2026-05-02T07:30:05.725Z</time></trkpt><trkpt lat="43.863445" lon="11.1761783"><ele>79.0</ele><time>2026-05-02T07:30:06.727Z</time></trkpt><trkpt lat="43.8635517" lon="11.1761567"><ele>79.0</ele><time>2026-05-02T07:30:07.727Z</time></trkpt><trkpt lat="43.86366" lon="11.1761283"><ele>79.0</ele><time>2026-05-02T07:30:08.727Z</time></trkpt><trkpt lat="43.86378" lon="11.1760967"><ele>79.0</ele><time>2026-05-02T07:30:09.728Z</time></trkpt><trkpt lat="43.8639183" lon="11.1760367"><ele>80.0</ele><time>2026-05-02T07:30:10.727Z</time></trkpt><trkpt lat="43.8640767" lon="11.17595"><ele>81.0</ele><time>2026-05-02T07:30:11.728Z</time></trkpt><trkpt lat="43.8642583" lon="11.1758667"><ele>82.0</ele><time>2026-05-02T07:30:12.727Z</time></trkpt><trkpt lat="43.86445" lon="11.1757867"><ele>81.66666666666666</ele><time>2026-05-02T07:30:13.727Z</time></trkpt><trkpt lat="43.864645" lon="11.175715"><ele>81.33333333333333</ele><time>2026-05-02T07:30:14.728Z</time></trkpt><trkpt lat="43.8648417" lon="11.175635"><ele>81.0</ele><time>2026-05-02T07:30:15.728Z</time></trkpt><trkpt lat="43.8650333" lon="11.1755533"><ele>82.0</ele><time>2026-05-02T07:30:16.728Z</time></trkpt><trkpt lat="43.8652233" lon="11.1754667"><ele>83.0</ele><time>2026-05-02T07:30:17.729Z</time></trkpt><trkpt lat="43.8654117" lon="11.1753733"><ele>84.0</ele><time>2026-05-02T07:30:18.729Z</time></trkpt><trkpt lat="43.8655917" lon="11.1752783"><ele>84.0</ele><time>2026-05-02T07:30:19.728Z</time></trkpt><trkpt lat="43.86577" lon="11.1751867"><ele>84.0</ele><time>2026-05-02T07:30:20.728Z</time></trkpt><trkpt lat="43.865945" lon="11.17509"><ele>84.0</ele><time>2026-05-02T07:30:21.728Z</time></trkpt><trkpt lat="43.8661217" lon="11.174995"><ele>85.0</ele><time>2026-05-02T07:30:22.729Z</time></trkpt><trkpt lat="43.8663" lon="11.1749"><ele>86.0</ele><time>2026-05-02T07:30:23.729Z</time></trkpt><trkpt lat="43.8664783" lon="11.174805"><ele>87.0</ele><time>2026-05-02T07:30:24.728Z</time></trkpt><trkpt lat="43.8705433" lon="11.1723083"><ele>87.0</ele><time>2026-05-02T07:30:48.728Z</time></trkpt><trkpt lat="43.8706733" lon="11.1721083"><ele>87.0</ele><time>2026-05-02T07:30:49.728Z</time></trkpt><trkpt lat="43.8708083" lon="11.1719433"><ele>87.0</ele><time>2026-05-02T07:30:50.728Z</time></trkpt><trkpt lat="43.8709333" lon="11.1717333"><ele>85.0</ele><time>2026-05-02T07:30:51.726Z</time></trkpt><trkpt lat="43.8710567" lon="11.171525"><ele>83.0</ele><time>2026-05-02T07:30:52.727Z</time></trkpt><trkpt lat="43.8711783" lon="11.1713333"><ele>81.0</ele><time>2026-05-02T07:30:53.727Z</time></trkpt><trkpt lat="43.8712883" lon="11.171145"><ele>80.33333333333333</ele><time>2026-05-02T07:30:54.727Z</time></trkpt><trkpt lat="43.8713867" lon="11.1709567"><ele>79.66666666666666</ele><time>2026-05-02T07:30:55.728Z</time></trkpt><trkpt lat="43.871475" lon="11.17078"><ele>79.0</ele><time>2026-05-02T07:30:56.728Z</time></trkpt><trkpt lat="43.8715517" lon="11.1706217"><ele>79.0</ele><time>2026-05-02T07:30:57.728Z</time></trkpt><trkpt lat="43.87162" lon="11.1704883"><ele>79.0</ele><time>2026-05-02T07:30:58.726Z</time></trkpt><trkpt lat="43.8716833" lon="11.17037"><ele>79.0</ele><time>2026-05-02T07:30:59.728Z</time></trkpt><trkpt lat="43.8717383" lon="11.1702667"><ele>79.0</ele><time>2026-05-02T07:31:00.728Z</time></trkpt><trkpt lat="43.8717967" lon="11.1701933"><ele>79.0</ele><time>2026-05-02T07:31:01.727Z</time></trkpt><trkpt lat="43.87186" lon="11.1701433"><ele>77.8</ele><time>2026-05-02T07:31:02.727Z</time></trkpt><trkpt lat="43.8719333" lon="11.170125"><ele>76.60000000000001</ele><time>2026-05-02T07:31:03.728Z</time></trkpt><trkpt lat="43.8720167" lon="11.17015"><ele>75.4</ele><time>2026-05-02T07:31:04.729Z</time></trkpt><trkpt lat="43.8721033" lon="11.17022"><ele>74.2</ele><time>2026-05-02T07:31:05.727Z</time></trkpt><trkpt lat="43.8721917" lon="11.1703367"><ele>73.0</ele><time>2026-05-02T07:31:06.728Z</time></trkpt><trkpt lat="43.87227" lon="11.17046"><ele>73.0</ele><time>2026-05-02T07:31:07.728Z</time></trkpt><trkpt lat="43.87235" lon="11.1705833"><ele>73.0</ele><time>2026-05-02T07:31:08.728Z</time></trkpt><trkpt lat="43.8724367" lon="11.1707283"><ele>73.0</ele><time>2026-05-02T07:31:09.728Z</time></trkpt><trkpt lat="43.8725383" lon="11.1708867"><ele>73.0</ele><time>2026-05-02T07:31:10.727Z</time></trkpt><trkpt lat="43.8726583" lon="11.171065"><ele>73.33333333333333</ele><time>2026-05-02T07:31:11.728Z</time></trkpt><trkpt lat="43.872785" lon="11.17126"><ele>73.66666666666667</ele><time>2026-05-02T07:31:12.726Z</time></trkpt><trkpt lat="43.8729117" lon="11.171455"><ele>74.0</ele><time>2026-05-02T07:31:13.726Z</time></trkpt><trkpt lat="43.8730333" lon="11.171655"><ele>74.33333333333334</ele><time>2026-05-02T07:31:14.728Z</time></trkpt><trkpt lat="43.8731533" lon="11.1718583"><ele>74.66666666666667</ele><time>2026-05-02T07:31:15.727Z</time></trkpt><trkpt lat="43.8732733" lon="11.1720483"><ele>75.0</ele><time>2026-05-02T07:31:16.727Z</time></trkpt><trkpt lat="43.8733917" lon="11.17223"><ele>76.33333333333333</ele><time>2026-05-02T07:31:17.727Z</time></trkpt><trkpt lat="43.8735117" lon="11.1723883"><ele>77.66666666666666</ele><time>2026-05-02T07:31:18.727Z</time></trkpt><trkpt lat="43.873635" lon="11.172525"><ele>79.0</ele><time>2026-05-02T07:31:19.728Z</time></trkpt><trkpt lat="43.87376" lon="11.1726417"><ele>79.0</ele><time>2026-05-02T07:31:20.728Z</time></trkpt><trkpt lat="43.8738833" lon="11.1727417"><ele>79.0</ele><time>2026-05-02T07:31:21.728Z</time></trkpt><trkpt lat="43.8740067" lon="11.1728333"><ele>79.0</ele><time>2026-05-02T07:31:22.728Z</time></trkpt><trkpt lat="43.8741283" lon="11.1729167"><ele>79.0</ele><time>2026-05-02T07:31:23.728Z</time></trkpt><trkpt lat="43.8742533" lon="11.1730033"><ele>78.33333333333333</ele><time>2026-05-02T07:31:24.729Z</time></trkpt><trkpt lat="43.8743867" lon="11.1730917"><ele>77.66666666666667</ele><time>2026-05-02T07:31:25.727Z</time></trkpt><trkpt lat="43.8745267" lon="11.1731933"><ele>77.0</ele><time>2026-05-02T07:31:26.727Z</time></trkpt><trkpt lat="43.8746683" lon="11.1733017"><ele>79.0</ele><time>2026-05-02T07:31:27.728Z</time></trkpt><trkpt lat="43.8748033" lon="11.173415"><ele>81.0</ele><time>2026-05-02T07:31:28.726Z</time></trkpt><trkpt lat="43.8749333" lon="11.17353"><ele>83.0</ele><time>2026-05-02T07:31:29.728Z</time></trkpt><trkpt lat="43.8750617" lon="11.1736533"><ele>81.33333333333334</ele><time>2026-05-02T07:31:30.727Z</time></trkpt><trkpt lat="43.8751883" lon="11.1737717"><ele>79.66666666666667</ele><time>2026-05-02T07:31:31.728Z</time></trkpt><trkpt lat="43.8753167" lon="11.1738933"><ele>78.0</ele><time>2026-05-02T07:31:32.728Z</time></trkpt><trkpt lat="43.875445" lon="11.17402"><ele>79.0</ele><time>2026-05-02T07:31:33.726Z</time></trkpt><trkpt lat="43.8755783" lon="11.1741517"><ele>80.0</ele><time>2026-05-02T07:31:34.728Z</time></trkpt><trkpt lat="43.8757117" lon="11.1742817"><ele>81.0</ele><time>2026-05-02T07:31:35.728Z</time></trkpt><trkpt lat="43.8758467" lon="11.1744133"><ele>80.66666666666667</ele><time>2026-05-02T07:31:36.727Z</time></trkpt><trkpt lat="43.8759833" lon="11.17454"><ele>80.33333333333334</ele><time>2026-05-02T07:31:37.728Z</time></trkpt><trkpt lat="43.8761233" lon="11.17467"><ele>80.0</ele><time>2026-05-02T07:31:38.728Z</time></trkpt><trkpt lat="43.876265" lon="11.1747983"><ele>81.66666666666667</ele><time>2026-05-02T07:31:39.727Z</time></trkpt><trkpt lat="43.8764083" lon="11.17492"><ele>83.33333333333333</ele><time>2026-05-02T07:31:40.727Z</time></trkpt><trkpt lat="43.8765567" lon="11.17504"><ele>85.0</ele><time>2026-05-02T07:31:41.729Z</time></trkpt><trkpt lat="43.8767133" lon="11.175165"><ele>83.66666666666666</ele><time>2026-05-02T07:31:42.726Z</time></trkpt><trkpt lat="43.8768817" lon="11.175305"><ele>82.33333333333333</ele><time>2026-05-02T07:31:43.726Z</time></trkpt><trkpt lat="43.8770633" lon="11.17545"><ele>81.0</ele><time>2026-05-02T07:31:44.728Z</time></trkpt><trkpt lat="43.8772533" lon="11.175605"><ele>81.33333333333333</ele><time>2026-05-02T07:31:45.728Z</time></trkpt><trkpt lat="43.87744" lon="11.1757683"><ele>81.66666666666666</ele><time>2026-05-02T07:31:46.727Z</time></trkpt><trkpt lat="43.877615" lon="11.1759333"><ele>82.0</ele><time>2026-05-02T07:31:47.727Z</time></trkpt><trkpt lat="43.8777817" lon="11.17609"><ele>82.0</ele><time>2026-05-02T07:31:48.727Z</time></trkpt><trkpt lat="43.8779383" lon="11.1762417"><ele>82.0</ele><time>2026-05-02T07:31:49.729Z</time></trkpt><trkpt lat="43.8780883" lon="11.1763917"><ele>82.0</ele><time>2026-05-02T07:31:50.728Z</time></trkpt><trkpt lat="43.8782317" lon="11.1765467"><ele>81.33333333333333</ele><time>2026-05-02T07:31:51.726Z</time></trkpt><trkpt lat="43.8783667" lon="11.1767067"><ele>80.66666666666667</ele><time>2026-05-02T07:31:52.728Z</time></trkpt><trkpt lat="43.8785033" lon="11.176885"><ele>80.0</ele><time>2026-05-02T07:31:53.726Z</time></trkpt><trkpt lat="43.8786467" lon="11.1770833"><ele>80.0</ele><time>2026-05-02T07:31:54.727Z</time></trkpt><trkpt lat="43.87879" lon="11.177295"><ele>80.0</ele><time>2026-05-02T07:31:55.727Z</time></trkpt><trkpt lat="43.87893" lon="11.1775167"><ele>80.0</ele><time>2026-05-02T07:31:56.727Z</time></trkpt><trkpt lat="43.8790583" lon="11.1777517"><ele>80.66666666666667</ele><time>2026-05-02T07:31:57.727Z</time></trkpt><trkpt lat="43.87918" lon="11.1779833"><ele>81.33333333333333</ele><time>2026-05-02T07:31:58.727Z</time></trkpt><trkpt lat="43.8792983" lon="11.178215"><ele>82.0</ele><time>2026-05-02T07:31:59.727Z</time></trkpt><trkpt lat="43.87941" lon="11.178445"><ele>82.0</ele><time>2026-05-02T07:32:00.728Z</time></trkpt><trkpt lat="43.8795183" lon="11.1786783"><ele>82.0</ele><time>2026-05-02T07:32:01.727Z</time></trkpt><trkpt lat="43.8796217" lon="11.1789117"><ele>82.0</ele><time>2026-05-02T07:32:02.727Z</time></trkpt><trkpt lat="43.8797267" lon="11.1791417"><ele>83.66666666666666</ele><time>2026-05-02T07:32:03.728Z</time></trkpt><trkpt lat="43.8798333" lon="11.179355"><ele>85.33333333333333</ele><time>2026-05-02T07:32:04.728Z</time></trkpt><trkpt lat="43.879945" lon="11.1795633"><ele>87.0</ele><time>2026-05-02T07:32:05.727Z</time></trkpt><trkpt lat="43.88006" lon="11.179765"><ele>87.0</ele><time>2026-05-02T07:32:06.728Z</time></trkpt><trkpt lat="43.880185" lon="11.1799517"><ele>87.0</ele><time>2026-05-02T07:32:07.728Z</time></trkpt><trkpt lat="43.8803267" lon="11.180115"><ele>87.0</ele><time>2026-05-02T07:32:08.726Z</time></trkpt><trkpt lat="43.8804817" lon="11.180255"><ele>87.0</ele><time>2026-05-02T07:32:09.728Z</time></trkpt><trkpt lat="43.8806467" lon="11.1803667"><ele>87.0</ele><time>2026-05-02T07:32:10.728Z</time></trkpt><trkpt lat="43.8808167" lon="11.18045"><ele>87.0</ele><time>2026-05-02T07:32:11.728Z</time></trkpt><trkpt lat="43.880985" lon="11.180505"><ele>87.25</ele><time>2026-05-02T07:32:12.729Z</time></trkpt><trkpt lat="43.8811483" lon="11.1805333"><ele>87.5</ele><time>2026-05-02T07:32:13.728Z</time></trkpt><trkpt lat="43.8813" lon="11.1805317"><ele>87.75</ele><time>2026-05-02T07:32:14.728Z</time></trkpt><trkpt lat="43.88142" lon="11.1805033"><ele>88.0</ele><time>2026-05-02T07:32:15.728Z</time></trkpt><trkpt lat="43.8815267" lon="11.1804683"><ele>88.0</ele><time>2026-05-02T07:32:16.726Z</time></trkpt><trkpt lat="43.8816267" lon="11.180455"><ele>88.0</ele><time>2026-05-02T07:32:17.727Z</time></trkpt><trkpt lat="43.8817217" lon="11.1804567"><ele>88.0</ele><time>2026-05-02T07:32:18.729Z</time></trkpt><trkpt lat="43.8818133" lon="11.180445"><ele>88.0</ele><time>2026-05-02T07:32:19.728Z</time></trkpt><trkpt lat="43.8819033" lon="11.1804"><ele>88.0</ele><time>2026-05-02T07:32:20.729Z</time></trkpt><trkpt lat="43.8820017" lon="11.1803517"><ele>88.75</ele><time>2026-05-02T07:32:21.728Z</time></trkpt><trkpt lat="43.8821167" lon="11.180325"><ele>89.5</ele><time>2026-05-02T07:32:22.728Z</time></trkpt><trkpt lat="43.8822433" lon="11.1803317"><ele>90.25</ele><time>2026-05-02T07:32:23.727Z</time></trkpt><trkpt lat="43.8823783" lon="11.1803633"><ele>91.0</ele><time>2026-05-02T07:32:24.725Z</time></trkpt><trkpt lat="43.8825133" lon="11.18041"><ele>91.0</ele><time>2026-05-02T07:32:25.728Z</time></trkpt><trkpt lat="43.8826417" lon="11.1804633"><ele>91.0</ele><time>2026-05-02T07:32:26.728Z</time></trkpt><trkpt lat="43.882765" lon="11.1805167"><ele>91.0</ele><time>2026-05-02T07:32:27.728Z</time></trkpt><trkpt lat="43.8828817" lon="11.180575"><ele>91.0</ele><time>2026-05-02T07:32:28.726Z</time></trkpt><trkpt lat="43.8829967" lon="11.1806217"><ele>91.0</ele><time>2026-05-02T07:32:29.727Z</time></trkpt><trkpt lat="43.883105" lon="11.1806667"><ele>91.0</ele><time>2026-05-02T07:32:30.728Z</time></trkpt><trkpt lat="43.883205" lon="11.1807117"><ele>91.0</ele><time>2026-05-02T07:32:31.726Z</time></trkpt><trkpt lat="43.8832967" lon="11.180765"><ele>91.0</ele><time>2026-05-02T07:32:32.727Z</time></trkpt><trkpt lat="43.8833767" lon="11.1808467"><ele>91.0</ele><time>2026-05-02T07:32:33.728Z</time></trkpt><trkpt lat="43.88345" lon="11.180935"><ele>91.0</ele><time>2026-05-02T07:32:34.726Z</time></trkpt><trkpt lat="43.8835233" lon="11.1809933"><ele>91.0</ele><time>2026-05-02T07:32:35.728Z</time></trkpt><trkpt lat="43.8836033" lon="11.181015"><ele>91.0</ele><time>2026-05-02T07:32:36.727Z</time></trkpt><trkpt lat="43.8837017" lon="11.1809783"><ele>91.0</ele><time>2026-05-02T07:32:37.727Z</time></trkpt><trkpt lat="43.8838117" lon="11.1809317"><ele>91.0</ele><time>2026-05-02T07:32:38.728Z</time></trkpt><trkpt lat="43.8839417" lon="11.1809183"><ele>91.0</ele><time>2026-05-02T07:32:39.728Z</time></trkpt><trkpt lat="43.8840917" lon="11.180925"><ele>91.0</ele><time>2026-05-02T07:32:40.727Z</time></trkpt><trkpt lat="43.8842517" lon="11.1809433"><ele>91.0</ele><time>2026-05-02T07:32:41.727Z</time></trkpt><trkpt lat="43.884415" lon="11.1809567"><ele>91.0</ele><time>2026-05-02T07:32:42.728Z</time></trkpt><trkpt lat="43.8845817" lon="11.1809767"><ele>91.0</ele><time>2026-05-02T07:32:43.726Z</time></trkpt><trkpt lat="43.8847517" lon="11.1809933"><ele>91.0</ele><time>2026-05-02T07:32:44.728Z</time></trkpt><trkpt lat="43.88492" lon="11.18101"><ele>91.0</ele><time>2026-05-02T07:32:45.727Z</time></trkpt><trkpt lat="43.8850917" lon="11.1810417"><ele>91.0</ele><time>2026-05-02T07:32:46.727Z</time></trkpt><trkpt lat="43.885265" lon="11.1810983"><ele>91.0</ele><time>2026-05-02T07:32:47.728Z</time></trkpt><trkpt lat="43.885445" lon="11.1811667"><ele>91.0</ele><time>2026-05-02T07:32:48.726Z</time></trkpt><trkpt lat="43.8856267" lon="11.1812467"><ele>91.0</ele><time>2026-05-02T07:32:49.726Z</time></trkpt><trkpt lat="43.8858083" lon="11.1813383"><ele>91.0</ele><time>2026-05-02T07:32:50.727Z</time></trkpt><trkpt lat="43.8859867" lon="11.181445"><ele>92.0</ele><time>2026-05-02T07:32:51.728Z</time></trkpt><trkpt lat="43.8861617" lon="11.1815583"><ele>93.0</ele><time>2026-05-02T07:32:52.727Z</time></trkpt><trkpt lat="43.8863317" lon="11.181675"><ele>94.0</ele><time>2026-05-02T07:32:53.727Z</time></trkpt><trkpt lat="43.8865017" lon="11.1817983"><ele>94.0</ele><time>2026-05-02T07:32:54.728Z</time></trkpt><trkpt lat="43.8866767" lon="11.181915"><ele>94.0</ele><time>2026-05-02T07:32:55.727Z</time></trkpt><trkpt lat="43.8868567" lon="11.18201"><ele>94.0</ele><time>2026-05-02T07:32:56.726Z</time></trkpt><trkpt lat="43.8870433" lon="11.1820767"><ele>94.0</ele><time>2026-05-02T07:32:57.728Z</time></trkpt><trkpt lat="43.8872367" lon="11.1821317"><ele>94.0</ele><time>2026-05-02T07:32:58.727Z</time></trkpt><trkpt lat="43.887435" lon="11.1821767"><ele>94.0</ele><time>2026-05-02T07:32:59.727Z</time></trkpt><trkpt lat="43.8876317" lon="11.1822233"><ele>94.0</ele><time>2026-05-02T07:33:00.728Z</time></trkpt><trkpt lat="43.8878267" lon="11.1822683"><ele>94.0</ele><time>2026-05-02T07:33:01.727Z</time></trkpt><trkpt lat="43.8880233" lon="11.1823117"><ele>94.0</ele><time>2026-05-02T07:33:02.728Z</time></trkpt><trkpt lat="43.8882183" lon="11.182355"><ele>96.66666666666666</ele><time>2026-05-02T07:33:03.726Z</time></trkpt><trkpt lat="43.8884117" lon="11.1824017"><ele>99.33333333333333</ele><time>2026-05-02T07:33:04.727Z</time></trkpt><trkpt lat="43.8886067" lon="11.1824467"><ele>102.0</ele><time>2026-05-02T07:33:05.726Z</time></trkpt><trkpt lat="43.8888067" lon="11.1824783"><ele>102.33333333333334</ele><time>2026-05-02T07:33:06.728Z</time></trkpt><trkpt lat="43.88901" lon="11.182505"><ele>102.66666666666667</ele><time>2026-05-02T07:33:07.727Z</time></trkpt><trkpt lat="43.8892133" lon="11.182525"><ele>103.0</ele><time>2026-05-02T07:33:08.729Z</time></trkpt><trkpt lat="43.8894167" lon="11.1825417"><ele>102.33333333333334</ele><time>2026-05-02T07:33:09.727Z</time></trkpt><trkpt lat="43.8896233" lon="11.18255"><ele>101.66666666666666</ele><time>2026-05-02T07:33:10.727Z</time></trkpt><trkpt lat="43.8898283" lon="11.1825667"><ele>101.0</ele><time>2026-05-02T07:33:11.726Z</time></trkpt><trkpt lat="43.8900333" lon="11.1825883"><ele>101.66666666666666</ele><time>2026-05-02T07:33:12.728Z</time></trkpt><trkpt lat="43.8902333" lon="11.18261"><ele>102.33333333333334</ele><time>2026-05-02T07:33:13.728Z</time></trkpt><trkpt lat="43.8904317" lon="11.18263"><ele>103.0</ele><time>2026-05-02T07:33:14.728Z</time></trkpt><trkpt lat="43.8906267" lon="11.1826533"><ele>103.0</ele><time>2026-05-02T07:33:15.727Z</time></trkpt><trkpt lat="43.8908167" lon="11.1826883"><ele>103.0</ele><time>2026-05-02T07:33:16.727Z</time></trkpt><trkpt lat="43.8910033" lon="11.182735"><ele>103.0</ele><time>2026-05-02T07:33:17.726Z</time></trkpt><trkpt lat="43.8911833" lon="11.1827817"><ele>103.33333333333334</ele><time>2026-05-02T07:33:18.729Z</time></trkpt><trkpt lat="43.8913533" lon="11.182835"><ele>103.66666666666666</ele><time>2026-05-02T07:33:19.728Z</time></trkpt><trkpt lat="43.8915083" lon="11.1828867"><ele>104.0</ele><time>2026-05-02T07:33:20.728Z</time></trkpt><trkpt lat="43.891645" lon="11.1829433"><ele>104.0</ele><time>2026-05-02T07:33:21.728Z</time></trkpt><trkpt lat="43.891765" lon="11.183005"><ele>104.0</ele><time>2026-05-02T07:33:22.728Z</time></trkpt><trkpt lat="43.8918683" lon="11.1830817"><ele>104.0</ele><time>2026-05-02T07:33:23.728Z</time></trkpt><trkpt lat="43.8919483" lon="11.18318"><ele>104.0</ele><time>2026-05-02T07:33:24.728Z</time></trkpt><trkpt lat="43.8920033" lon="11.18329"><ele>104.0</ele><time>2026-05-02T07:33:25.728Z</time></trkpt><trkpt lat="43.8920567" lon="11.1833883"><ele>104.0</ele><time>2026-05-02T07:33:26.728Z</time></trkpt><trkpt lat="43.8921133" lon="11.1834667"><ele>104.0</ele><time>2026-05-02T07:33:27.728Z</time></trkpt><trkpt lat="43.8922117" lon="11.1834933"><ele>104.0</ele><time>2026-05-02T07:33:28.728Z</time></trkpt><trkpt lat="43.8923317" lon="11.1835083"><ele>104.0</ele><time>2026-05-02T07:33:29.726Z</time></trkpt><trkpt lat="43.892465" lon="11.1835683"><ele>104.0</ele><time>2026-05-02T07:33:30.726Z</time></trkpt><trkpt lat="43.8926033" lon="11.1836867"><ele>104.0</ele><time>2026-05-02T07:33:31.727Z</time></trkpt><trkpt lat="43.89274" lon="11.183855"><ele>104.0</ele><time>2026-05-02T07:33:32.728Z</time></trkpt><trkpt lat="43.8928717" lon="11.1840433"><ele>104.0</ele><time>2026-05-02T07:33:33.726Z</time></trkpt><trkpt lat="43.8930017" lon="11.184235"><ele>106.33333333333333</ele><time>2026-05-02T07:33:34.728Z</time></trkpt><trkpt lat="43.8931317" lon="11.1844367"><ele>108.66666666666666</ele><time>2026-05-02T07:33:35.729Z</time></trkpt><trkpt lat="43.893265" lon="11.18464"><ele>111.0</ele><time>2026-05-02T07:33:36.727Z</time></trkpt><trkpt lat="43.8933983" lon="11.1848483"><ele>112.0</ele><time>2026-05-02T07:33:37.727Z</time></trkpt><trkpt lat="43.8935333" lon="11.1850533"><ele>113.0</ele><time>2026-05-02T07:33:38.726Z</time></trkpt><trkpt lat="43.893665" lon="11.1852617"><ele>114.0</ele><time>2026-05-02T07:33:39.728Z</time></trkpt><trkpt lat="43.893795" lon="11.1854667"><ele>114.0</ele><time>2026-05-02T07:33:40.728Z</time></trkpt><trkpt lat="43.893925" lon="11.1856683"><ele>114.0</ele><time>2026-05-02T07:33:41.727Z</time></trkpt><trkpt lat="43.8940567" lon="11.1858683"><ele>114.0</ele><time>2026-05-02T07:33:42.728Z</time></trkpt><trkpt lat="43.894185" lon="11.1860667"><ele>115.0</ele><time>2026-05-02T07:33:43.726Z</time></trkpt><trkpt lat="43.8943133" lon="11.18626"><ele>116.0</ele><time>2026-05-02T07:33:44.728Z</time></trkpt><trkpt lat="43.8944483" lon="11.1864383"><ele>117.0</ele><time>2026-05-02T07:33:45.728Z</time></trkpt><trkpt lat="43.8945867" lon="11.1866167"><ele>120.66666666666666</ele><time>2026-05-02T07:33:46.727Z</time></trkpt><trkpt lat="43.89473" lon="11.1867867"><ele>124.33333333333333</ele><time>2026-05-02T07:33:47.729Z</time></trkpt><trkpt lat="43.8948767" lon="11.18695"><ele>128.0</ele><time>2026-05-02T07:33:48.728Z</time></trkpt><trkpt lat="43.89503" lon="11.1871017"><ele>128.0</ele><time>2026-05-02T07:33:49.728Z</time></trkpt><trkpt lat="43.8951867" lon="11.1872483"><ele>128.0</ele><time>2026-05-02T07:33:50.729Z</time></trkpt><trkpt lat="43.8953483" lon="11.1873867"><ele>128.0</ele><time>2026-05-02T07:33:51.728Z</time></trkpt><trkpt lat="43.895515" lon="11.18751"><ele>128.0</ele><time>2026-05-02T07:33:52.729Z</time></trkpt><trkpt lat="43.8956883" lon="11.1876217"><ele>128.0</ele><time>2026-05-02T07:33:53.729Z</time></trkpt><trkpt lat="43.8958667" lon="11.1877233"><ele>128.0</ele><time>2026-05-02T07:33:54.728Z</time></trkpt><trkpt lat="43.8960483" lon="11.1878183"><ele>125.66666666666666</ele><time>2026-05-02T07:33:55.73Z</time></trkpt><trkpt lat="43.8962333" lon="11.1879017"><ele>123.33333333333334</ele><time>2026-05-02T07:33:56.729Z</time></trkpt><trkpt lat="43.8964183" lon="11.187975"><ele>121.0</ele><time>2026-05-02T07:33:57.727Z</time></trkpt><trkpt lat="43.8966083" lon="11.1880367"><ele>120.0</ele><time>2026-05-02T07:33:58.729Z</time></trkpt><trkpt lat="43.8967983" lon="11.1880833"><ele>119.0</ele><time>2026-05-02T07:33:59.728Z</time></trkpt><trkpt lat="43.8969867" lon="11.18813"><ele>118.0</ele><time>2026-05-02T07:34:00.728Z</time></trkpt><trkpt lat="43.8971733" lon="11.1881733"><ele>119.66666666666667</ele><time>2026-05-02T07:34:01.727Z</time></trkpt><trkpt lat="43.89736" lon="11.1882133"><ele>121.33333333333334</ele><time>2026-05-02T07:34:02.728Z</time></trkpt><trkpt lat="43.89754" lon="11.1882517"><ele>123.0</ele><time>2026-05-02T07:34:03.728Z</time></trkpt><trkpt lat="43.8977183" lon="11.1882917"><ele>123.0</ele><time>2026-05-02T07:34:04.727Z</time></trkpt><trkpt lat="43.8978917" lon="11.1883183"><ele>123.0</ele><time>2026-05-02T07:34:05.727Z</time></trkpt><trkpt lat="43.8980583" lon="11.18832"><ele>123.0</ele><time>2026-05-02T07:34:06.727Z</time></trkpt><trkpt lat="43.898215" lon="11.1882983"><ele>123.0</ele><time>2026-05-02T07:34:07.728Z</time></trkpt><trkpt lat="43.898355" lon="11.1882633"><ele>123.00000000000001</ele><time>2026-05-02T07:34:08.727Z</time></trkpt><trkpt lat="43.8984717" lon="11.1882117"><ele>123.00000000000001</ele><time>2026-05-02T07:34:09.726Z</time></trkpt><trkpt lat="43.8985667" lon="11.188155"><ele>123.0</ele><time>2026-05-02T07:34:10.728Z</time></trkpt><trkpt lat="43.8986417" lon="11.188115"><ele>123.0</ele><time>2026-05-02T07:34:11.727Z</time></trkpt><trkpt lat="43.8987067" lon="11.18808"><ele>121.83333333333333</ele><time>2026-05-02T07:34:12.727Z</time></trkpt><trkpt lat="43.8987733" lon="11.1880667"><ele>120.66666666666666</ele><time>2026-05-02T07:34:13.728Z</time></trkpt><trkpt lat="43.8988533" lon="11.188075"><ele>119.5</ele><time>2026-05-02T07:34:14.728Z</time></trkpt><trkpt lat="43.89894" lon="11.1880833"><ele>118.33333333333333</ele><time>2026-05-02T07:34:15.727Z</time></trkpt><trkpt lat="43.89903" lon="11.1880733"><ele>117.16666666666666</ele><time>2026-05-02T07:34:16.726Z</time></trkpt><trkpt lat="43.8991133" lon="11.1880233"><ele>116.0</ele><time>2026-05-02T07:34:17.729Z</time></trkpt><trkpt lat="43.8992033" lon="11.1879967"><ele>116.5</ele><time>2026-05-02T07:34:18.728Z</time></trkpt><trkpt lat="43.8992983" lon="11.1880017"><ele>117.0</ele><time>2026-05-02T07:34:19.729Z</time></trkpt><trkpt lat="43.89941" lon="11.1880467"><ele>117.5</ele><time>2026-05-02T07:34:20.73Z</time></trkpt><trkpt lat="43.8995283" lon="11.1881267"><ele>118.0</ele><time>2026-05-02T07:34:21.729Z</time></trkpt><trkpt lat="43.89966" lon="11.1882283"><ele>118.66666666666667</ele><time>2026-05-02T07:34:22.728Z</time></trkpt><trkpt lat="43.8997967" lon="11.1883383"><ele>119.33333333333334</ele><time>2026-05-02T07:34:23.729Z</time></trkpt><trkpt lat="43.8999433" lon="11.1884567"><ele>120.0</ele><time>2026-05-02T07:34:24.727Z</time></trkpt><trkpt lat="43.9000917" lon="11.1885783"><ele>120.33333333333334</ele><time>2026-05-02T07:34:25.727Z</time></trkpt><trkpt lat="43.90024" lon="11.1886983"><ele>120.66666666666667</ele><time>2026-05-02T07:34:26.728Z</time></trkpt><trkpt lat="43.9003867" lon="11.1888033"><ele>121.0</ele><time>2026-05-02T07:34:27.727Z</time></trkpt><trkpt lat="43.9005383" lon="11.1888917"><ele>121.0</ele><time>2026-05-02T07:34:28.728Z</time></trkpt><trkpt lat="43.9006967" lon="11.1889617"><ele>121.0</ele><time>2026-05-02T07:34:29.727Z</time></trkpt><trkpt lat="43.9008633" lon="11.18901"><ele>121.0</ele><time>2026-05-02T07:34:30.726Z</time></trkpt><trkpt lat="43.901035" lon="11.1890517"><ele>121.33333333333334</ele><time>2026-05-02T07:34:31.726Z</time></trkpt><trkpt lat="43.9012083" lon="11.1890817"><ele>121.66666666666666</ele><time>2026-05-02T07:34:32.726Z</time></trkpt><trkpt lat="43.9013833" lon="11.1891067"><ele>122.0</ele><time>2026-05-02T07:34:33.728Z</time></trkpt><trkpt lat="43.9015617" lon="11.1891267"><ele>122.0</ele><time>2026-05-02T07:34:34.727Z</time></trkpt><trkpt lat="43.9017433" lon="11.18914"><ele>122.0</ele><time>2026-05-02T07:34:35.727Z</time></trkpt><trkpt lat="43.901925" lon="11.1891467"><ele>122.0</ele><time>2026-05-02T07:34:36.727Z</time></trkpt><trkpt lat="43.902105" lon="11.189155"><ele>122.33333333333333</ele><time>2026-05-02T07:34:37.727Z</time></trkpt><trkpt lat="43.9022883" lon="11.18916"><ele>122.66666666666666</ele><time>2026-05-02T07:34:38.728Z</time></trkpt><trkpt lat="43.9024717" lon="11.18916"><ele>123.0</ele><time>2026-05-02T07:34:39.728Z</time></trkpt><trkpt lat="43.9026567" lon="11.1891617"><ele>123.66666666666666</ele><time>2026-05-02T07:34:40.726Z</time></trkpt><trkpt lat="43.9028417" lon="11.1891633"><ele>124.33333333333333</ele><time>2026-05-02T07:34:41.727Z</time></trkpt><trkpt lat="43.903025" lon="11.1891683"><ele>125.0</ele><time>2026-05-02T07:34:42.726Z</time></trkpt><trkpt lat="43.903205" lon="11.1891783"><ele>125.0</ele><time>2026-05-02T07:34:43.727Z</time></trkpt><trkpt lat="43.9033817" lon="11.189185"><ele>125.0</ele><time>2026-05-02T07:34:44.727Z</time></trkpt><trkpt lat="43.903555" lon="11.189195"><ele>125.0</ele><time>2026-05-02T07:34:45.727Z</time></trkpt><trkpt lat="43.9037267" lon="11.1892033"><ele>126.0</ele><time>2026-05-02T07:34:46.727Z</time></trkpt><trkpt lat="43.9038983" lon="11.1892083"><ele>127.0</ele><time>2026-05-02T07:34:47.728Z</time></trkpt><trkpt lat="43.9040683" lon="11.18922"><ele>128.0</ele><time>2026-05-02T07:34:48.727Z</time></trkpt><trkpt lat="43.90424" lon="11.1892467"><ele>128.0</ele><time>2026-05-02T07:34:49.729Z</time></trkpt><trkpt lat="43.9044033" lon="11.1892883"><ele>128.0</ele><time>2026-05-02T07:34:50.728Z</time></trkpt><trkpt lat="43.9045617" lon="11.18935"><ele>128.0</ele><time>2026-05-02T07:34:51.727Z</time></trkpt><trkpt lat="43.9047083" lon="11.1894417"><ele>128.0</ele><time>2026-05-02T07:34:52.727Z</time></trkpt><trkpt lat="43.90485" lon="11.1895517"><ele>128.0</ele><time>2026-05-02T07:34:53.728Z</time></trkpt><trkpt lat="43.9049883" lon="11.1896733"><ele>128.0</ele><time>2026-05-02T07:34:54.727Z</time></trkpt><trkpt lat="43.905125" lon="11.1897933"><ele>129.0</ele><time>2026-05-02T07:34:55.726Z</time></trkpt><trkpt lat="43.90526" lon="11.1899133"><ele>130.0</ele><time>2026-05-02T07:34:56.727Z</time></trkpt><trkpt lat="43.9053933" lon="11.1900283"><ele>131.0</ele><time>2026-05-02T07:34:57.728Z</time></trkpt><trkpt lat="43.905525" lon="11.19014"><ele>131.0</ele><time>2026-05-02T07:34:58.727Z</time></trkpt><trkpt lat="43.905655" lon="11.1902517"><ele>131.0</ele><time>2026-05-02T07:34:59.727Z</time></trkpt><trkpt lat="43.9057867" lon="11.1903617"><ele>131.0</ele><time>2026-05-02T07:35:00.727Z</time></trkpt><trkpt lat="43.9059183" lon="11.19047"><ele>131.25</ele><time>2026-05-02T07:35:01.728Z</time></trkpt><trkpt lat="43.9060483" lon="11.1905817"><ele>131.5</ele><time>2026-05-02T07:35:02.728Z</time></trkpt><trkpt lat="43.906175" lon="11.1906867"><ele>131.75</ele><time>2026-05-02T07:35:03.727Z</time></trkpt><trkpt lat="43.9063033" lon="11.1907867"><ele>132.0</ele><time>2026-05-02T07:35:04.728Z</time></trkpt><trkpt lat="43.9064367" lon="11.1908717"><ele>132.75</ele><time>2026-05-02T07:35:05.727Z</time></trkpt><trkpt lat="43.90657" lon="11.1909367"><ele>133.5</ele><time>2026-05-02T07:35:06.728Z</time></trkpt><trkpt lat="43.9067033" lon="11.190995"><ele>134.25</ele><time>2026-05-02T07:35:07.727Z</time></trkpt><trkpt lat="43.9068317" lon="11.1910633"><ele>135.0</ele><time>2026-05-02T07:35:08.728Z</time></trkpt><trkpt lat="43.9069567" lon="11.191145"><ele>135.5</ele><time>2026-05-02T07:35:09.727Z</time></trkpt><trkpt lat="43.9070733" lon="11.1912367"><ele>136.0</ele><time>2026-05-02T07:35:10.728Z</time></trkpt><trkpt lat="43.9071833" lon="11.1913383"><ele>136.5</ele><time>2026-05-02T07:35:11.727Z</time></trkpt><trkpt lat="43.9072967" lon="11.191445"><ele>137.0</ele><time>2026-05-02T07:35:12.727Z</time></trkpt><trkpt lat="43.9074117" lon="11.1915517"><ele>138.33333333333331</ele><time>2026-05-02T07:35:13.727Z</time></trkpt><trkpt lat="43.907535" lon="11.1916567"><ele>139.66666666666666</ele><time>2026-05-02T07:35:14.727Z</time></trkpt><trkpt lat="43.9076667" lon="11.19176"><ele>141.0</ele><time>2026-05-02T07:35:15.726Z</time></trkpt><trkpt lat="43.9078067" lon="11.1918617"><ele>141.0</ele><time>2026-05-02T07:35:16.727Z</time></trkpt><trkpt lat="43.9079533" lon="11.191965"><ele>141.0</ele><time>2026-05-02T07:35:17.728Z</time></trkpt><trkpt lat="43.9081083" lon="11.1920467"><ele>141.0</ele><time>2026-05-02T07:35:18.728Z</time></trkpt><trkpt lat="43.908265" lon="11.19211"><ele>141.33333333333334</ele><time>2026-05-02T07:35:19.727Z</time></trkpt><trkpt lat="43.908425" lon="11.1921533"><ele>141.66666666666669</ele><time>2026-05-02T07:35:20.727Z</time></trkpt><trkpt lat="43.9085883" lon="11.19218"><ele>142.0</ele><time>2026-05-02T07:35:21.728Z</time></trkpt><trkpt lat="43.908755" lon="11.1922083"><ele>142.0</ele><time>2026-05-02T07:35:22.728Z</time></trkpt><trkpt lat="43.90892" lon="11.1922467"><ele>142.0</ele><time>2026-05-02T07:35:23.728Z</time></trkpt><trkpt lat="43.9090867" lon="11.1922983"><ele>142.0</ele><time>2026-05-02T07:35:24.728Z</time></trkpt><trkpt lat="43.9092533" lon="11.1923667"><ele>142.66666666666669</ele><time>2026-05-02T07:35:25.727Z</time></trkpt><trkpt lat="43.9094133" lon="11.1924583"><ele>143.33333333333334</ele><time>2026-05-02T07:35:26.727Z</time></trkpt><trkpt lat="43.9095683" lon="11.19256"><ele>144.0</ele><time>2026-05-02T07:35:27.726Z</time></trkpt><trkpt lat="43.909725" lon="11.19267"><ele>144.0</ele><time>2026-05-02T07:35:28.728Z</time></trkpt><trkpt lat="43.9098817" lon="11.1927767"><ele>144.0</ele><time>2026-05-02T07:35:29.729Z</time></trkpt><trkpt lat="43.91004" lon="11.19289"><ele>144.0</ele><time>2026-05-02T07:35:30.729Z</time></trkpt><trkpt lat="43.9102017" lon="11.1929983"><ele>145.0</ele><time>2026-05-02T07:35:31.729Z</time></trkpt><trkpt lat="43.9103667" lon="11.1931117"><ele>146.0</ele><time>2026-05-02T07:35:32.727Z</time></trkpt><trkpt lat="43.9105333" lon="11.1932217"><ele>147.0</ele><time>2026-05-02T07:35:33.727Z</time></trkpt><trkpt lat="43.9106983" lon="11.19333"><ele>148.0</ele><time>2026-05-02T07:35:34.727Z</time></trkpt><trkpt lat="43.9108633" lon="11.1934417"><ele>149.0</ele><time>2026-05-02T07:35:35.728Z</time></trkpt><trkpt lat="43.9110283" lon="11.19356"><ele>150.0</ele><time>2026-05-02T07:35:36.728Z</time></trkpt><trkpt lat="43.9111967" lon="11.19367"><ele>150.0</ele><time>2026-05-02T07:35:37.728Z</time></trkpt><trkpt lat="43.9113683" lon="11.19378"><ele>150.0</ele><time>2026-05-02T07:35:38.729Z</time></trkpt><trkpt lat="43.9115517" lon="11.1938883"><ele>150.0</ele><time>2026-05-02T07:35:39.726Z</time></trkpt><trkpt lat="43.91174" lon="11.1940083"><ele>150.66666666666666</ele><time>2026-05-02T07:35:40.728Z</time></trkpt><trkpt lat="43.9119317" lon="11.1941333"><ele>151.33333333333331</ele><time>2026-05-02T07:35:41.728Z</time></trkpt><trkpt lat="43.9121183" lon="11.1942667"><ele>152.0</ele><time>2026-05-02T07:35:42.726Z</time></trkpt><trkpt lat="43.9123033" lon="11.1944017"><ele>152.0</ele><time>2026-05-02T07:35:43.727Z</time></trkpt><trkpt lat="43.9124867" lon="11.194535"><ele>152.0</ele><time>2026-05-02T07:35:44.727Z</time></trkpt><trkpt lat="43.9126667" lon="11.1946683"><ele>152.0</ele><time>2026-05-02T07:35:45.727Z</time></trkpt><trkpt lat="43.9128417" lon="11.1948033"><ele>154.0</ele><time>2026-05-02T07:35:46.728Z</time></trkpt><trkpt lat="43.9130133" lon="11.1949333"><ele>156.0</ele><time>2026-05-02T07:35:47.728Z</time></trkpt><trkpt lat="43.913175" lon="11.195055"><ele>158.0</ele><time>2026-05-02T07:35:48.726Z</time></trkpt><trkpt lat="43.9133283" lon="11.19518"><ele>157.0</ele><time>2026-05-02T07:35:49.728Z</time></trkpt><trkpt lat="43.91348" lon="11.1953083"><ele>156.0</ele><time>2026-05-02T07:35:50.727Z</time></trkpt><trkpt lat="43.9136217" lon="11.1954533"><ele>155.0</ele><time>2026-05-02T07:35:51.727Z</time></trkpt><trkpt lat="43.9137483" lon="11.1956183"><ele>156.33333333333331</ele><time>2026-05-02T07:35:52.727Z</time></trkpt><trkpt lat="43.9138683" lon="11.1957917"><ele>157.66666666666666</ele><time>2026-05-02T07:35:53.728Z</time></trkpt><trkpt lat="43.9139933" lon="11.1959583"><ele>159.0</ele><time>2026-05-02T07:35:54.728Z</time></trkpt><trkpt lat="43.914135" lon="11.1961267"><ele>158.33333333333334</ele><time>2026-05-02T07:35:55.727Z</time></trkpt><trkpt lat="43.9142733" lon="11.19629"><ele>157.66666666666669</ele><time>2026-05-02T07:35:56.727Z</time></trkpt><trkpt lat="43.914415" lon="11.1964383"><ele>157.0</ele><time>2026-05-02T07:35:57.729Z</time></trkpt><trkpt lat="43.914565" lon="11.1965717"><ele>158.66666666666669</ele><time>2026-05-02T07:35:58.728Z</time></trkpt><trkpt lat="43.9147233" lon="11.19668"><ele>160.33333333333334</ele><time>2026-05-02T07:35:59.728Z</time></trkpt><trkpt lat="43.9148733" lon="11.1967867"><ele>162.0</ele><time>2026-05-02T07:36:00.728Z</time></trkpt><trkpt lat="43.91502" lon="11.1968817"><ele>161.66666666666666</ele><time>2026-05-02T07:36:01.728Z</time></trkpt><trkpt lat="43.91517" lon="11.19698"><ele>161.33333333333331</ele><time>2026-05-02T07:36:02.728Z</time></trkpt><trkpt lat="43.9153283" lon="11.197075"><ele>161.0</ele><time>2026-05-02T07:36:03.728Z</time></trkpt><trkpt lat="43.9155017" lon="11.1971783"><ele>161.0</ele><time>2026-05-02T07:36:04.728Z</time></trkpt><trkpt lat="43.9156967" lon="11.19729"><ele>161.0</ele><time>2026-05-02T07:36:05.727Z</time></trkpt><trkpt lat="43.9159083" lon="11.1974167"><ele>161.0</ele><time>2026-05-02T07:36:06.727Z</time></trkpt><trkpt lat="43.916125" lon="11.197545"><ele>164.0</ele><time>2026-05-02T07:36:07.727Z</time></trkpt><trkpt lat="43.91634" lon="11.197675"><ele>167.0</ele><time>2026-05-02T07:36:08.727Z</time></trkpt><trkpt lat="43.9165533" lon="11.197795"><ele>170.0</ele><time>2026-05-02T07:36:09.727Z</time></trkpt><trkpt lat="43.9167667" lon="11.1979167"><ele>173.0</ele><time>2026-05-02T07:36:10.728Z</time></trkpt><trkpt lat="43.9169733" lon="11.1980633"><ele>173.33333333333331</ele><time>2026-05-02T07:36:11.727Z</time></trkpt><trkpt lat="43.917175" lon="11.19821"><ele>173.66666666666666</ele><time>2026-05-02T07:36:12.727Z</time></trkpt><trkpt lat="43.9173717" lon="11.1983483"><ele>174.0</ele><time>2026-05-02T07:36:13.727Z</time></trkpt><trkpt lat="43.917575" lon="11.198485"><ele>172.5</ele><time>2026-05-02T07:36:14.728Z</time></trkpt><trkpt lat="43.9177817" lon="11.1986333"><ele>171.0</ele><time>2026-05-02T07:36:15.727Z</time></trkpt><trkpt lat="43.9179867" lon="11.1987783"><ele>171.0</ele><time>2026-05-02T07:36:16.728Z</time></trkpt><trkpt lat="43.9181683" lon="11.19893"><ele>171.0</ele><time>2026-05-02T07:36:17.728Z</time></trkpt><trkpt lat="43.918325" lon="11.1991017"><ele>171.0</ele><time>2026-05-02T07:36:18.728Z</time></trkpt><trkpt lat="43.91846" lon="11.1993033"><ele>171.66666666666666</ele><time>2026-05-02T07:36:19.727Z</time></trkpt><trkpt lat="43.91858" lon="11.19952"><ele>172.33333333333331</ele><time>2026-05-02T07:36:20.728Z</time></trkpt><trkpt lat="43.9187017" lon="11.199745"><ele>173.0</ele><time>2026-05-02T07:36:21.728Z</time></trkpt><trkpt lat="43.9188233" lon="11.19997"><ele>176.33333333333331</ele><time>2026-05-02T07:36:22.728Z</time></trkpt><trkpt lat="43.9189483" lon="11.20017"><ele>179.66666666666666</ele><time>2026-05-02T07:36:23.728Z</time></trkpt><trkpt lat="43.9190833" lon="11.2003633"><ele>183.0</ele><time>2026-05-02T07:36:24.728Z</time></trkpt><trkpt lat="43.91922" lon="11.20056"><ele>183.66666666666666</ele><time>2026-05-02T07:36:25.728Z</time></trkpt><trkpt lat="43.9193583" lon="11.2007617"><ele>184.33333333333331</ele><time>2026-05-02T07:36:26.728Z</time></trkpt><trkpt lat="43.9194917" lon="11.2009633"><ele>185.0</ele><time>2026-05-02T07:36:27.726Z</time></trkpt><trkpt lat="43.9196233" lon="11.201165"><ele>185.0</ele><time>2026-05-02T07:36:28.727Z</time></trkpt><trkpt lat="43.9197517" lon="11.201365"><ele>185.0</ele><time>2026-05-02T07:36:29.727Z</time></trkpt><trkpt lat="43.9198733" lon="11.2015567"><ele>185.0</ele><time>2026-05-02T07:36:30.727Z</time></trkpt><trkpt lat="43.9199867" lon="11.2017483"><ele>185.66666666666666</ele><time>2026-05-02T07:36:31.728Z</time></trkpt><trkpt lat="43.92009" lon="11.20193"><ele>186.33333333333334</ele><time>2026-05-02T07:36:32.726Z</time></trkpt><trkpt lat="43.9201767" lon="11.2021083"><ele>187.0</ele><time>2026-05-02T07:36:33.726Z</time></trkpt><trkpt lat="43.92025" lon="11.20228"><ele>190.0</ele><time>2026-05-02T07:36:34.727Z</time></trkpt><trkpt lat="43.9203167" lon="11.2024367"><ele>193.0</ele><time>2026-05-02T07:36:35.727Z</time></trkpt><trkpt lat="43.9203733" lon="11.2025767"><ele>196.0</ele><time>2026-05-02T07:36:36.728Z</time></trkpt><trkpt lat="43.920425" lon="11.2027"><ele>199.0</ele><time>2026-05-02T07:36:37.726Z</time></trkpt><trkpt lat="43.9204767" lon="11.2028233"><ele>199.0</ele><time>2026-05-02T07:36:38.727Z</time></trkpt><trkpt lat="43.9205383" lon="11.2029633"><ele>199.0</ele><time>2026-05-02T07:36:39.726Z</time></trkpt><trkpt lat="43.9206283" lon="11.203125"><ele>199.0</ele><time>2026-05-02T07:36:40.728Z</time></trkpt><trkpt lat="43.9207533" lon="11.2033"><ele>199.0</ele><time>2026-05-02T07:36:41.727Z</time></trkpt><trkpt lat="43.9209017" lon="11.2034717"><ele>198.0</ele><time>2026-05-02T07:36:42.727Z</time></trkpt><trkpt lat="43.9210717" lon="11.2036233"><ele>197.0</ele><time>2026-05-02T07:36:43.729Z</time></trkpt><trkpt lat="43.92125" lon="11.2037533"><ele>196.0</ele><time>2026-05-02T07:36:44.728Z</time></trkpt><trkpt lat="43.9214233" lon="11.2038633"><ele>196.0</ele><time>2026-05-02T07:36:45.728Z</time></trkpt><trkpt lat="43.9215817" lon="11.2039917"><ele>196.0</ele><time>2026-05-02T07:36:46.728Z</time></trkpt><trkpt lat="43.9217217" lon="11.2041533"><ele>196.0</ele><time>2026-05-02T07:36:47.727Z</time></trkpt><trkpt lat="43.921845" lon="11.2043433"><ele>196.66666666666666</ele><time>2026-05-02T07:36:48.728Z</time></trkpt><trkpt lat="43.9219483" lon="11.20456"><ele>197.33333333333331</ele><time>2026-05-02T07:36:49.727Z</time></trkpt><trkpt lat="43.9220383" lon="11.20479"><ele>198.0</ele><time>2026-05-02T07:36:50.726Z</time></trkpt><trkpt lat="43.9221183" lon="11.2050133"><ele>198.0</ele><time>2026-05-02T07:36:51.728Z</time></trkpt><trkpt lat="43.9221917" lon="11.2052267"><ele>198.0</ele><time>2026-05-02T07:36:52.728Z</time></trkpt><trkpt lat="43.9222633" lon="11.205425"><ele>198.0</ele><time>2026-05-02T07:36:53.725Z</time></trkpt><trkpt lat="43.9223317" lon="11.2056267"><ele>200.0</ele><time>2026-05-02T07:36:54.728Z</time></trkpt><trkpt lat="43.9223967" lon="11.2058383"><ele>202.0</ele><time>2026-05-02T07:36:55.728Z</time></trkpt><trkpt lat="43.9224633" lon="11.2060483"><ele>204.0</ele><time>2026-05-02T07:36:56.728Z</time></trkpt><trkpt lat="43.9225333" lon="11.2062633"><ele>200.0</ele><time>2026-05-02T07:36:57.727Z</time></trkpt><trkpt lat="43.92261" lon="11.2064817"><ele>196.0</ele><time>2026-05-02T07:36:58.726Z</time></trkpt><trkpt lat="43.9226983" lon="11.2067"><ele>192.0</ele><time>2026-05-02T07:36:59.727Z</time></trkpt><trkpt lat="43.922795" lon="11.2069133"><ele>192.0</ele><time>2026-05-02T07:37:00.728Z</time></trkpt><trkpt lat="43.9229233" lon="11.2071283"><ele>192.0</ele><time>2026-05-02T07:37:01.729Z</time></trkpt><trkpt lat="43.9230583" lon="11.2073467"><ele>192.0</ele><time>2026-05-02T07:37:02.727Z</time></trkpt><trkpt lat="43.923195" lon="11.20756"><ele>193.0</ele><time>2026-05-02T07:37:03.726Z</time></trkpt><trkpt lat="43.9233267" lon="11.207765"><ele>194.0</ele><time>2026-05-02T07:37:04.726Z</time></trkpt><trkpt lat="43.92345" lon="11.2079667"><ele>195.0</ele><time>2026-05-02T07:37:05.727Z</time></trkpt><trkpt lat="43.9235767" lon="11.20815"><ele>197.33333333333331</ele><time>2026-05-02T07:37:06.728Z</time></trkpt><trkpt lat="43.9237183" lon="11.2083033"><ele>199.66666666666666</ele><time>2026-05-02T07:37:07.727Z</time></trkpt><trkpt lat="43.9238817" lon="11.2084167"><ele>202.0</ele><time>2026-05-02T07:37:08.727Z</time></trkpt><trkpt lat="43.9240683" lon="11.208485"><ele>209.33333333333331</ele><time>2026-05-02T07:37:09.728Z</time></trkpt><trkpt lat="43.9242617" lon="11.20849"><ele>216.66666666666669</ele><time>2026-05-02T07:37:10.727Z</time></trkpt><trkpt lat="43.92445" lon="11.2084417"><ele>224.0</ele><time>2026-05-02T07:37:11.727Z</time></trkpt><trkpt lat="43.9246367" lon="11.20833"><ele>224.0</ele><time>2026-05-02T07:37:12.729Z</time></trkpt><trkpt lat="43.9248" lon="11.208185"><ele>224.0</ele><time>2026-05-02T07:37:13.728Z</time></trkpt><trkpt lat="43.9249467" lon="11.208025"><ele>224.0</ele><time>2026-05-02T07:37:14.727Z</time></trkpt><trkpt lat="43.9251017" lon="11.2079117"><ele>221.0</ele><time>2026-05-02T07:37:15.728Z</time></trkpt><trkpt lat="43.9252783" lon="11.2078383"><ele>218.0</ele><time>2026-05-02T07:37:16.728Z</time></trkpt><trkpt lat="43.9254667" lon="11.2077883"><ele>215.0</ele><time>2026-05-02T07:37:17.728Z</time></trkpt><trkpt lat="43.9256617" lon="11.2077817"><ele>215.0</ele><time>2026-05-02T07:37:18.728Z</time></trkpt><trkpt lat="43.92587" lon="11.207805"><ele>215.0</ele><time>2026-05-02T07:37:19.728Z</time></trkpt><trkpt lat="43.9260917" lon="11.2078783"><ele>215.0</ele><time>2026-05-02T07:37:20.727Z</time></trkpt><trkpt lat="43.92631" lon="11.2079517"><ele>215.66666666666669</ele><time>2026-05-02T07:37:21.728Z</time></trkpt><trkpt lat="43.92653" lon="11.2080133"><ele>216.33333333333331</ele><time>2026-05-02T07:37:22.727Z</time></trkpt><trkpt lat="43.9267533" lon="11.20805"><ele>217.0</ele><time>2026-05-02T07:37:23.728Z</time></trkpt><trkpt lat="43.9269867" lon="11.2080867"><ele>218.0</ele><time>2026-05-02T07:37:24.727Z</time></trkpt><trkpt lat="43.927205" lon="11.2081183"><ele>219.0</ele><time>2026-05-02T07:37:25.728Z</time></trkpt><trkpt lat="43.927415" lon="11.2081617"><ele>220.0</ele><time>2026-05-02T07:37:26.727Z</time></trkpt><trkpt lat="43.9276067" lon="11.2082133"><ele>226.33333333333331</ele><time>2026-05-02T07:37:27.728Z</time></trkpt><trkpt lat="43.927795" lon="11.20829"><ele>232.66666666666669</ele><time>2026-05-02T07:37:28.726Z</time></trkpt><trkpt lat="43.9279767" lon="11.208395"><ele>239.0</ele><time>2026-05-02T07:37:29.728Z</time></trkpt><trkpt lat="43.928165" lon="11.2085117"><ele>239.0</ele><time>2026-05-02T07:37:30.726Z</time></trkpt><trkpt lat="43.9283567" lon="11.2086367"><ele>239.0</ele><time>2026-05-02T07:37:31.728Z</time></trkpt><trkpt lat="43.92855" lon="11.2087617"><ele>239.0</ele><time>2026-05-02T07:37:32.73Z</time></trkpt><trkpt lat="43.92874" lon="11.2088867"><ele>238.66666666666669</ele><time>2026-05-02T07:37:33.727Z</time></trkpt><trkpt lat="43.9289233" lon="11.2090333"><ele>238.33333333333331</ele><time>2026-05-02T07:37:34.727Z</time></trkpt><trkpt lat="43.9291" lon="11.2091867"><ele>238.0</ele><time>2026-05-02T07:37:35.728Z</time></trkpt><trkpt lat="43.9292733" lon="11.20937"><ele>238.0</ele><time>2026-05-02T07:37:36.728Z</time></trkpt><trkpt lat="43.9294383" lon="11.2095517"><ele>238.0</ele><time>2026-05-02T07:37:37.729Z</time></trkpt><trkpt lat="43.9295817" lon="11.20973"><ele>238.0</ele><time>2026-05-02T07:37:38.728Z</time></trkpt><trkpt lat="43.9297" lon="11.2098983"><ele>241.0</ele><time>2026-05-02T07:37:39.727Z</time></trkpt><trkpt lat="43.929805" lon="11.21006"><ele>244.0</ele><time>2026-05-02T07:37:40.727Z</time></trkpt><trkpt lat="43.92991" lon="11.2102083"><ele>247.0</ele><time>2026-05-02T07:37:41.729Z</time></trkpt><trkpt lat="43.9300217" lon="11.2103317"><ele>250.0</ele><time>2026-05-02T07:37:42.728Z</time></trkpt><trkpt lat="43.930155" lon="11.21044"><ele>250.0</ele><time>2026-05-02T07:37:43.727Z</time></trkpt><trkpt lat="43.9303083" lon="11.2105433"><ele>250.0</ele><time>2026-05-02T07:37:44.728Z</time></trkpt><trkpt lat="43.9304883" lon="11.210645"><ele>250.0</ele><time>2026-05-02T07:37:45.727Z</time></trkpt><trkpt lat="43.9306617" lon="11.21075"><ele>254.66666666666666</ele><time>2026-05-02T07:37:46.729Z</time></trkpt><trkpt lat="43.9308283" lon="11.2108517"><ele>259.3333333333333</ele><time>2026-05-02T07:37:47.728Z</time></trkpt><trkpt lat="43.931" lon="11.21097"><ele>264.0</ele><time>2026-05-02T07:37:48.728Z</time></trkpt><trkpt lat="43.931175" lon="11.2111017"><ele>264.0</ele><time>2026-05-02T07:37:49.728Z</time></trkpt><trkpt lat="43.9313533" lon="11.2112433"><ele>264.0</ele><time>2026-05-02T07:37:50.728Z</time></trkpt><trkpt lat="43.9315317" lon="11.2113967"><ele>264.0</ele><time>2026-05-02T07:37:51.728Z</time></trkpt><trkpt lat="43.9317083" lon="11.2115483"><ele>268.6666666666667</ele><time>2026-05-02T07:37:52.729Z</time></trkpt><trkpt lat="43.9318767" lon="11.211705"><ele>273.33333333333337</ele><time>2026-05-02T07:37:53.729Z</time></trkpt><trkpt lat="43.9320383" lon="11.2118667"><ele>278.0</ele><time>2026-05-02T07:37:54.727Z</time></trkpt><trkpt lat="43.93218" lon="11.2120317"><ele>278.0</ele><time>2026-05-02T07:37:55.728Z</time></trkpt><trkpt lat="43.9322917" lon="11.2122067"><ele>278.0</ele><time>2026-05-02T07:37:56.727Z</time></trkpt><trkpt lat="43.9323867" lon="11.2123567"><ele>278.0</ele><time>2026-05-02T07:37:57.728Z</time></trkpt><trkpt lat="43.9324967" lon="11.21247"><ele>278.0</ele><time>2026-05-02T07:37:58.729Z</time></trkpt><trkpt lat="43.932625" lon="11.2125267"><ele>283.75</ele><time>2026-05-02T07:37:59.727Z</time></trkpt><trkpt lat="43.93276" lon="11.2125233"><ele>289.5</ele><time>2026-05-02T07:38:00.728Z</time></trkpt><trkpt lat="43.9328967" lon="11.2125083"><ele>295.25</ele><time>2026-05-02T07:38:01.727Z</time></trkpt><trkpt lat="43.9330267" lon="11.2125183"><ele>301.0</ele><time>2026-05-02T07:38:02.728Z</time></trkpt><trkpt lat="43.933155" lon="11.2125883"><ele>301.0</ele><time>2026-05-02T07:38:03.729Z</time></trkpt><trkpt lat="43.9332767" lon="11.2127033"><ele>301.0</ele><time>2026-05-02T07:38:04.728Z</time></trkpt><trkpt lat="43.9333983" lon="11.212835"><ele>301.0</ele><time>2026-05-02T07:38:05.728Z</time></trkpt><trkpt lat="43.9335283" lon="11.2129817"><ele>298.0</ele><time>2026-05-02T07:38:06.728Z</time></trkpt><trkpt lat="43.9336983" lon="11.21314"><ele>295.0</ele><time>2026-05-02T07:38:07.729Z</time></trkpt><trkpt lat="43.9339" lon="11.2132867"><ele>292.0</ele><time>2026-05-02T07:38:08.727Z</time></trkpt><trkpt lat="43.9341217" lon="11.21342"><ele>303.0</ele><time>2026-05-02T07:38:09.728Z</time></trkpt><trkpt lat="43.93436" lon="11.213535"><ele>314.0</ele><time>2026-05-02T07:38:10.727Z</time></trkpt><trkpt lat="43.9346033" lon="11.2136483"><ele>314.0</ele><time>2026-05-02T07:38:11.729Z</time></trkpt><trkpt lat="43.9348417" lon="11.2137433"><ele>314.0</ele><time>2026-05-02T07:38:12.729Z</time></trkpt><trkpt lat="43.9350667" lon="11.2138367"><ele>313.0</ele><time>2026-05-02T07:38:13.728Z</time></trkpt><trkpt lat="43.9352733" lon="11.21394"><ele>312.0</ele><time>2026-05-02T07:38:14.728Z</time></trkpt><trkpt lat="43.9354633" lon="11.2140767"><ele>311.0</ele><time>2026-05-02T07:38:15.727Z</time></trkpt><trkpt lat="43.9356383" lon="11.21423"><ele>319.0</ele><time>2026-05-02T07:38:16.728Z</time></trkpt><trkpt lat="43.9358133" lon="11.2143667"><ele>327.0</ele><time>2026-05-02T07:38:17.728Z</time></trkpt><trkpt lat="43.935995" lon="11.214475"><ele>335.0</ele><time>2026-05-02T07:38:18.728Z</time></trkpt><trkpt lat="43.9361867" lon="11.2145317"><ele>335.33333333333337</ele><time>2026-05-02T07:38:19.726Z</time></trkpt><trkpt lat="43.93637" lon="11.2145283"><ele>335.6666666666667</ele><time>2026-05-02T07:38:20.727Z</time></trkpt><trkpt lat="43.9365317" lon="11.2145"><ele>336.0</ele><time>2026-05-02T07:38:21.726Z</time></trkpt><trkpt lat="43.936665" lon="11.2144917"><ele>334.75</ele><time>2026-05-02T07:38:22.728Z</time></trkpt><trkpt lat="43.93678" lon="11.2145167"><ele>333.5</ele><time>2026-05-02T07:38:23.727Z</time></trkpt><trkpt lat="43.9368833" lon="11.2145933"><ele>332.25</ele><time>2026-05-02T07:38:24.729Z</time></trkpt><trkpt lat="43.9369833" lon="11.2147133"><ele>331.0</ele><time>2026-05-02T07:38:25.728Z</time></trkpt><trkpt lat="43.9370867" lon="11.2148633"><ele>338.0</ele><time>2026-05-02T07:38:26.728Z</time></trkpt><trkpt lat="43.9372" lon="11.214995"><ele>345.0</ele><time>2026-05-02T07:38:27.728Z</time></trkpt><trkpt lat="43.9373333" lon="11.2150917"><ele>352.0</ele><time>2026-05-02T07:38:28.727Z</time></trkpt><trkpt lat="43.9374967" lon="11.21513"><ele>351.3333333333333</ele><time>2026-05-02T07:38:29.729Z</time></trkpt><trkpt lat="43.937675" lon="11.2151633"><ele>350.6666666666667</ele><time>2026-05-02T07:38:30.728Z</time></trkpt><trkpt lat="43.9378583" lon="11.215205"><ele>350.0</ele><time>2026-05-02T07:38:31.728Z</time></trkpt><trkpt lat="43.9380433" lon="11.2152633"><ele>350.0</ele><time>2026-05-02T07:38:32.728Z</time></trkpt><trkpt lat="43.9382283" lon="11.215335"><ele>350.0</ele><time>2026-05-02T07:38:33.729Z</time></trkpt><trkpt lat="43.9384067" lon="11.2154183"><ele>350.0</ele><time>2026-05-02T07:38:34.727Z</time></trkpt><trkpt lat="43.93858" lon="11.2154983"><ele>351.33333333333337</ele><time>2026-05-02T07:38:35.729Z</time></trkpt><trkpt lat="43.9387433" lon="11.2155717"><ele>352.6666666666667</ele><time>2026-05-02T07:38:36.727Z</time></trkpt><trkpt lat="43.9388933" lon="11.2156517"><ele>354.0</ele><time>2026-05-02T07:38:37.728Z</time></trkpt><trkpt lat="43.939035" lon="11.21574"><ele>356.75</ele><time>2026-05-02T07:38:38.727Z</time></trkpt><trkpt lat="43.9391667" lon="11.215825"><ele>359.5</ele><time>2026-05-02T07:38:39.727Z</time></trkpt><trkpt lat="43.93929" lon="11.2159067"><ele>362.25</ele><time>2026-05-02T07:38:40.726Z</time></trkpt><trkpt lat="43.9394133" lon="11.215965"><ele>365.0</ele><time>2026-05-02T07:38:41.726Z</time></trkpt><trkpt lat="43.9395367" lon="11.2159817"><ele>366.75</ele><time>2026-05-02T07:38:42.728Z</time></trkpt><trkpt lat="43.9396583" lon="11.21597"><ele>368.5</ele><time>2026-05-02T07:38:43.727Z</time></trkpt><trkpt lat="43.9397783" lon="11.2159483"><ele>370.25</ele><time>2026-05-02T07:38:44.728Z</time></trkpt><trkpt lat="43.93991" lon="11.2159117"><ele>372.0</ele><time>2026-05-02T07:38:45.729Z</time></trkpt><trkpt lat="43.940055" lon="11.2158733"><ele>374.6666666666667</ele><time>2026-05-02T07:38:46.726Z</time></trkpt><trkpt lat="43.9402133" lon="11.2158183"><ele>377.33333333333337</ele><time>2026-05-02T07:38:47.729Z</time></trkpt><trkpt lat="43.9403883" lon="11.2157667"><ele>380.0</ele><time>2026-05-02T07:38:48.728Z</time></trkpt><trkpt lat="43.9405783" lon="11.2157"><ele>381.0</ele><time>2026-05-02T07:38:49.729Z</time></trkpt><trkpt lat="43.940775" lon="11.2156183"><ele>382.0</ele><time>2026-05-02T07:38:50.727Z</time></trkpt><trkpt lat="43.9409833" lon="11.215525"><ele>383.0</ele><time>2026-05-02T07:38:51.728Z</time></trkpt><trkpt lat="43.9411867" lon="11.2154417"><ele>383.0</ele><time>2026-05-02T07:38:52.729Z</time></trkpt><trkpt lat="43.941375" lon="11.2153667"><ele>383.0</ele><time>2026-05-02T07:38:53.726Z</time></trkpt><trkpt lat="43.9415367" lon="11.2152933"><ele>383.0</ele><time>2026-05-02T07:38:54.728Z</time></trkpt><trkpt lat="43.941675" lon="11.21523"><ele>385.4</ele><time>2026-05-02T07:38:55.725Z</time></trkpt><trkpt lat="43.9417933" lon="11.2152"><ele>387.79999999999995</ele><time>2026-05-02T07:38:56.729Z</time></trkpt><trkpt lat="43.9418933" lon="11.2152267"><ele>390.2</ele><time>2026-05-02T07:38:57.728Z</time></trkpt><trkpt lat="43.941975" lon="11.2153"><ele>392.6</ele><time>2026-05-02T07:38:58.727Z</time></trkpt><trkpt lat="43.9420267" lon="11.21541"><ele>395.0</ele><time>2026-05-02T07:38:59.729Z</time></trkpt><trkpt lat="43.94204" lon="11.21554"><ele>396.75</ele><time>2026-05-02T07:39:00.727Z</time></trkpt><trkpt lat="43.9420117" lon="11.2156667"><ele>398.5</ele><time>2026-05-02T07:39:01.729Z</time></trkpt><trkpt lat="43.941945" lon="11.2157733"><ele>400.25</ele><time>2026-05-02T07:39:02.727Z</time></trkpt><trkpt lat="43.9418433" lon="11.2158567"><ele>402.0</ele><time>2026-05-02T07:39:03.728Z</time></trkpt><trkpt lat="43.9417233" lon="11.2159467"><ele>398.66666666666663</ele><time>2026-05-02T07:39:04.729Z</time></trkpt><trkpt lat="43.9416067" lon="11.216075"><ele>395.3333333333333</ele><time>2026-05-02T07:39:05.726Z</time></trkpt><trkpt lat="43.941515" lon="11.2162617"><ele>392.0</ele><time>2026-05-02T07:39:06.728Z</time></trkpt><trkpt lat="43.9414683" lon="11.2164783"><ele>393.5</ele><time>2026-05-02T07:39:07.728Z</time></trkpt><trkpt lat="43.9414683" lon="11.2166917"><ele>395.0</ele><time>2026-05-02T07:39:08.729Z</time></trkpt><trkpt lat="43.941495" lon="11.216875"><ele>396.5</ele><time>2026-05-02T07:39:09.726Z</time></trkpt><trkpt lat="43.94155" lon="11.2170267"><ele>398.0</ele><time>2026-05-02T07:39:10.73Z</time></trkpt><trkpt lat="43.9416417" lon="11.2171283"><ele>401.0</ele><time>2026-05-02T07:39:11.728Z</time></trkpt><trkpt lat="43.9417567" lon="11.217165"><ele>404.0</ele><time>2026-05-02T07:39:12.726Z</time></trkpt><trkpt lat="43.9418867" lon="11.2171167"><ele>407.0</ele><time>2026-05-02T07:39:13.728Z</time></trkpt><trkpt lat="43.9420017" lon="11.217"><ele>410.0</ele><time>2026-05-02T07:39:14.728Z</time></trkpt><trkpt lat="43.9421017" lon="11.21683"><ele>410.0</ele><time>2026-05-02T07:39:15.728Z</time></trkpt><trkpt lat="43.9422" lon="11.21663"><ele>410.0</ele><time>2026-05-02T07:39:16.727Z</time></trkpt><trkpt lat="43.94232" lon="11.2164483"><ele>410.0</ele><time>2026-05-02T07:39:17.728Z</time></trkpt><trkpt lat="43.942475" lon="11.2163033"><ele>411.3333333333333</ele><time>2026-05-02T07:39:18.729Z</time></trkpt><trkpt lat="43.9426467" lon="11.2161917"><ele>412.66666666666663</ele><time>2026-05-02T07:39:19.728Z</time></trkpt><trkpt lat="43.9428217" lon="11.2160967"><ele>414.0</ele><time>2026-05-02T07:39:20.728Z</time></trkpt><trkpt lat="43.942995" lon="11.216005"><ele>414.0</ele><time>2026-05-02T07:39:21.726Z</time></trkpt><trkpt lat="43.94316" lon="11.2159283"><ele>414.0</ele><time>2026-05-02T07:39:22.728Z</time></trkpt><trkpt lat="43.9433133" lon="11.2158667"><ele>414.0</ele><time>2026-05-02T07:39:23.729Z</time></trkpt><trkpt lat="43.94345" lon="11.2158133"><ele>415.75</ele><time>2026-05-02T07:39:24.727Z</time></trkpt><trkpt lat="43.9435767" lon="11.2157433"><ele>417.5</ele><time>2026-05-02T07:39:25.727Z</time></trkpt><trkpt lat="43.94369" lon="11.215645"><ele>419.25</ele><time>2026-05-02T07:39:26.727Z</time></trkpt><trkpt lat="43.9437917" lon="11.21553"><ele>421.0</ele><time>2026-05-02T07:39:27.728Z</time></trkpt><trkpt lat="43.9438767" lon="11.2153983"><ele>421.0</ele><time>2026-05-02T07:39:28.728Z</time></trkpt><trkpt lat="43.943955" lon="11.2152633"><ele>421.0</ele><time>2026-05-02T07:39:29.727Z</time></trkpt><trkpt lat="43.94403" lon="11.2151283"><ele>421.0</ele><time>2026-05-02T07:39:30.727Z</time></trkpt><trkpt lat="43.944105" lon="11.2149933"><ele>421.0</ele><time>2026-05-02T07:39:31.728Z</time></trkpt><trkpt lat="43.9441767" lon="11.214865"><ele>422.20000000000005</ele><time>2026-05-02T07:39:32.728Z</time></trkpt><trkpt lat="43.9442467" lon="11.2147383"><ele>423.40000000000003</ele><time>2026-05-02T07:39:33.727Z</time></trkpt><trkpt lat="43.94432" lon="11.2146183"><ele>424.6</ele><time>2026-05-02T07:39:34.729Z</time></trkpt><trkpt lat="43.944385" lon="11.214505"><ele>425.8</ele><time>2026-05-02T07:39:35.727Z</time></trkpt><trkpt lat="43.944445" lon="11.2143883"><ele>427.0</ele><time>2026-05-02T07:39:36.728Z</time></trkpt><trkpt lat="43.9444983" lon="11.21428"><ele>427.00000000000006</ele><time>2026-05-02T07:39:37.728Z</time></trkpt><trkpt lat="43.9445483" lon="11.21418"><ele>427.0</ele><time>2026-05-02T07:39:38.728Z</time></trkpt><trkpt lat="43.9446017" lon="11.2140883"><ele>427.0</ele><time>2026-05-02T07:39:39.727Z</time></trkpt><trkpt lat="43.9446533" lon="11.21401"><ele>427.0</ele><time>2026-05-02T07:39:40.727Z</time></trkpt><trkpt lat="43.9447" lon="11.21394"><ele>427.00000000000006</ele><time>2026-05-02T07:39:41.728Z</time></trkpt><trkpt lat="43.944785" lon="11.2138317"><ele>427.0</ele><time>2026-05-02T07:39:43.728Z</time></trkpt><trkpt lat="43.9449" lon="11.2137583"><ele>427.33333333333337</ele><time>2026-05-02T07:39:45.727Z</time></trkpt><trkpt lat="43.9449767" lon="11.2137567"><ele>427.6666666666667</ele><time>2026-05-02T07:39:46.727Z</time></trkpt><trkpt lat="43.9450617" lon="11.2137583"><ele>428.0</ele><time>2026-05-02T07:39:47.726Z</time></trkpt><trkpt lat="43.945145" lon="11.213755"><ele>428.33333333333337</ele><time>2026-05-02T07:39:48.728Z</time></trkpt><trkpt lat="43.94523" lon="11.2137517"><ele>428.6666666666667</ele><time>2026-05-02T07:39:49.728Z</time></trkpt><trkpt lat="43.9453133" lon="11.2137333"><ele>429.0</ele><time>2026-05-02T07:39:50.728Z</time></trkpt><trkpt lat="43.945395" lon="11.2137017"><ele>429.0</ele><time>2026-05-02T07:39:51.729Z</time></trkpt><trkpt lat="43.9454783" lon="11.2136567"><ele>429.0</ele><time>2026-05-02T07:39:52.728Z</time></trkpt><trkpt lat="43.9455667" lon="11.213605"><ele>429.0</ele><time>2026-05-02T07:39:53.727Z</time></trkpt><trkpt lat="43.9456583" lon="11.2135433"><ele>429.0</ele><time>2026-05-02T07:39:54.728Z</time></trkpt><trkpt lat="43.94576" lon="11.2134783"><ele>429.0</ele><time>2026-05-02T07:39:55.73Z</time></trkpt><trkpt lat="43.9458683" lon="11.21341"><ele>426.25</ele><time>2026-05-02T07:39:56.727Z</time></trkpt><trkpt lat="43.9459817" lon="11.2133467"><ele>423.5</ele><time>2026-05-02T07:39:57.728Z</time></trkpt><trkpt lat="43.9461017" lon="11.2132867"><ele>420.75</ele><time>2026-05-02T07:39:58.728Z</time></trkpt><trkpt lat="43.9462317" lon="11.21324"><ele>418.0</ele><time>2026-05-02T07:39:59.729Z</time></trkpt><trkpt lat="43.9463583" lon="11.213205"><ele>418.0</ele><time>2026-05-02T07:40:00.728Z</time></trkpt><trkpt lat="43.9464867" lon="11.2131667"><ele>418.0</ele><time>2026-05-02T07:40:01.728Z</time></trkpt><trkpt lat="43.9466117" lon="11.213135"><ele>418.0</ele><time>2026-05-02T07:40:02.727Z</time></trkpt><trkpt lat="43.946735" lon="11.2130967"><ele>418.0</ele><time>2026-05-02T07:40:03.729Z</time></trkpt><trkpt lat="43.9468467" lon="11.213045"><ele>415.75</ele><time>2026-05-02T07:40:04.727Z</time></trkpt><trkpt lat="43.9469433" lon="11.2129567"><ele>413.5</ele><time>2026-05-02T07:40:05.726Z</time></trkpt><trkpt lat="43.9470183" lon="11.2128383"><ele>411.25</ele><time>2026-05-02T07:40:06.726Z</time></trkpt><trkpt lat="43.94708" lon="11.2127017"><ele>409.0</ele><time>2026-05-02T07:40:07.728Z</time></trkpt><trkpt lat="43.9471383" lon="11.2125517"><ele>409.0</ele><time>2026-05-02T07:40:08.727Z</time></trkpt><trkpt lat="43.9472017" lon="11.2124117"><ele>409.0</ele><time>2026-05-02T07:40:09.729Z</time></trkpt><trkpt lat="43.9472767" lon="11.2122917"><ele>409.0</ele><time>2026-05-02T07:40:10.73Z</time></trkpt><trkpt lat="43.9473567" lon="11.2121917"><ele>409.0</ele><time>2026-05-02T07:40:11.728Z</time></trkpt><trkpt lat="43.9474433" lon="11.212105"><ele>409.0</ele><time>2026-05-02T07:40:12.728Z</time></trkpt><trkpt lat="43.9475383" lon="11.21203"><ele>407.4</ele><time>2026-05-02T07:40:13.728Z</time></trkpt><trkpt lat="43.94763" lon="11.2119533"><ele>405.79999999999995</ele><time>2026-05-02T07:40:14.727Z</time></trkpt><trkpt lat="43.9477117" lon="11.211855"><ele>404.20000000000005</ele><time>2026-05-02T07:40:15.728Z</time></trkpt><trkpt lat="43.9477767" lon="11.2117333"><ele>402.6</ele><time>2026-05-02T07:40:16.727Z</time></trkpt><trkpt lat="43.9478233" lon="11.2116017"><ele>401.0</ele><time>2026-05-02T07:40:17.73Z</time></trkpt><trkpt lat="43.9478617" lon="11.2114717"><ele>401.0</ele><time>2026-05-02T07:40:18.728Z</time></trkpt><trkpt lat="43.9478817" lon="11.2113367"><ele>401.0</ele><time>2026-05-02T07:40:19.727Z</time></trkpt><trkpt lat="43.9478917" lon="11.211205"><ele>401.0</ele><time>2026-05-02T07:40:20.73Z</time></trkpt><trkpt lat="43.947905" lon="11.2110733"><ele>401.0</ele><time>2026-05-02T07:40:21.728Z</time></trkpt><trkpt lat="43.9479233" lon="11.2109383"><ele>401.0</ele><time>2026-05-02T07:40:22.731Z</time></trkpt><trkpt lat="43.9479617" lon="11.2108117"><ele>401.0</ele><time>2026-05-02T07:40:23.727Z</time></trkpt><trkpt lat="43.9480167" lon="11.2106917"><ele>401.0</ele><time>2026-05-02T07:40:24.726Z</time></trkpt><trkpt lat="43.9480867" lon="11.21059"><ele>401.0</ele><time>2026-05-02T07:40:25.73Z</time></trkpt><trkpt lat="43.9481733" lon="11.2105117"><ele>401.0</ele><time>2026-05-02T07:40:26.727Z</time></trkpt><trkpt lat="43.9482717" lon="11.2104667"><ele>401.0</ele><time>2026-05-02T07:40:27.727Z</time></trkpt><trkpt lat="43.948375" lon="11.21045"><ele>401.20000000000005</ele><time>2026-05-02T07:40:28.727Z</time></trkpt><trkpt lat="43.9484767" lon="11.210465"><ele>401.40000000000003</ele><time>2026-05-02T07:40:29.727Z</time></trkpt><trkpt lat="43.948575" lon="11.2105033"><ele>401.6</ele><time>2026-05-02T07:40:30.728Z</time></trkpt><trkpt lat="43.94867" lon="11.2105667"><ele>401.8</ele><time>2026-05-02T07:40:31.726Z</time></trkpt><trkpt lat="43.9487733" lon="11.2106433"><ele>402.0</ele><time>2026-05-02T07:40:32.728Z</time></trkpt><trkpt lat="43.9488767" lon="11.2107067"><ele>402.0</ele><time>2026-05-02T07:40:33.728Z</time></trkpt><trkpt lat="43.9489783" lon="11.210755"><ele>402.0</ele><time>2026-05-02T07:40:34.728Z</time></trkpt><trkpt lat="43.9490833" lon="11.210785"><ele>402.0</ele><time>2026-05-02T07:40:35.729Z</time></trkpt><trkpt lat="43.94919" lon="11.2107867"><ele>402.0</ele><time>2026-05-02T07:40:36.727Z</time></trkpt><trkpt lat="43.9492983" lon="11.2107733"><ele>402.0</ele><time>2026-05-02T07:40:37.726Z</time></trkpt><trkpt lat="43.949405" lon="11.2107367"><ele>402.20000000000005</ele><time>2026-05-02T07:40:38.728Z</time></trkpt><trkpt lat="43.94951" lon="11.2106767"><ele>402.4</ele><time>2026-05-02T07:40:39.726Z</time></trkpt><trkpt lat="43.9496083" lon="11.2106117"><ele>402.6</ele><time>2026-05-02T07:40:40.729Z</time></trkpt><trkpt lat="43.9496983" lon="11.2105183"><ele>402.79999999999995</ele><time>2026-05-02T07:40:41.727Z</time></trkpt><trkpt lat="43.9497767" lon="11.2104067"><ele>403.0</ele><time>2026-05-02T07:40:42.729Z</time></trkpt><trkpt lat="43.9498417" lon="11.2102783"><ele>403.0</ele><time>2026-05-02T07:40:43.728Z</time></trkpt><trkpt lat="43.9498967" lon="11.2101417"><ele>403.0</ele><time>2026-05-02T07:40:44.728Z</time></trkpt><trkpt lat="43.9499467" lon="11.2099967"><ele>403.0</ele><time>2026-05-02T07:40:45.728Z</time></trkpt><trkpt lat="43.9499883" lon="11.2098567"><ele>403.0</ele><time>2026-05-02T07:40:46.728Z</time></trkpt><trkpt lat="43.9500267" lon="11.20973"><ele>403.0</ele><time>2026-05-02T07:40:47.728Z</time></trkpt><trkpt lat="43.9500667" lon="11.209615"><ele>403.1666666666667</ele><time>2026-05-02T07:40:48.728Z</time></trkpt><trkpt lat="43.9501067" lon="11.20951"><ele>403.33333333333337</ele><time>2026-05-02T07:40:49.728Z</time></trkpt><trkpt lat="43.9501533" lon="11.209415"><ele>403.5</ele><time>2026-05-02T07:40:50.727Z</time></trkpt><trkpt lat="43.95022" lon="11.20934"><ele>403.66666666666663</ele><time>2026-05-02T07:40:51.726Z</time></trkpt><trkpt lat="43.9503" lon="11.2092917"><ele>403.8333333333333</ele><time>2026-05-02T07:40:52.726Z</time></trkpt><trkpt lat="43.9503883" lon="11.2092667"><ele>404.0</ele><time>2026-05-02T07:40:53.728Z</time></trkpt><trkpt lat="43.9504817" lon="11.2092817"><ele>404.0</ele><time>2026-05-02T07:40:54.728Z</time></trkpt><trkpt lat="43.9505633" lon="11.2093617"><ele>404.0</ele><time>2026-05-02T07:40:55.729Z</time></trkpt><trkpt lat="43.9506267" lon="11.2094683"><ele>404.0</ele><time>2026-05-02T07:40:56.73Z</time></trkpt><trkpt lat="43.9506783" lon="11.2096067"><ele>404.0</ele><time>2026-05-02T07:40:57.728Z</time></trkpt><trkpt lat="43.9507183" lon="11.2097633"><ele>404.0</ele><time>2026-05-02T07:40:58.728Z</time></trkpt><trkpt lat="43.95075" lon="11.20993"><ele>402.5</ele><time>2026-05-02T07:40:59.728Z</time></trkpt><trkpt lat="43.9507767" lon="11.2100933"><ele>401.0</ele><time>2026-05-02T07:41:00.728Z</time></trkpt><trkpt lat="43.950805" lon="11.21025"><ele>399.5</ele><time>2026-05-02T07:41:01.728Z</time></trkpt><trkpt lat="43.9508367" lon="11.2104133"><ele>398.0</ele><time>2026-05-02T07:41:02.728Z</time></trkpt><trkpt lat="43.9508617" lon="11.210575"><ele>402.0</ele><time>2026-05-02T07:41:03.726Z</time></trkpt><trkpt lat="43.950885" lon="11.2107333"><ele>406.0</ele><time>2026-05-02T07:41:04.729Z</time></trkpt><trkpt lat="43.95091" lon="11.2108933"><ele>410.0</ele><time>2026-05-02T07:41:05.729Z</time></trkpt><trkpt lat="43.95095" lon="11.211055"><ele>414.0</ele><time>2026-05-02T07:41:06.727Z</time></trkpt><trkpt lat="43.951015" lon="11.2112183"><ele>414.0</ele><time>2026-05-02T07:41:07.728Z</time></trkpt><trkpt lat="43.951105" lon="11.2113833"><ele>414.0</ele><time>2026-05-02T07:41:08.727Z</time></trkpt><trkpt lat="43.9512283" lon="11.2115567"><ele>414.0</ele><time>2026-05-02T07:41:09.727Z</time></trkpt><trkpt lat="43.95138" lon="11.21177"><ele>409.33333333333337</ele><time>2026-05-02T07:41:10.727Z</time></trkpt><trkpt lat="43.951535" lon="11.212005"><ele>404.6666666666667</ele><time>2026-05-02T07:41:11.727Z</time></trkpt><trkpt lat="43.9516717" lon="11.2122117"><ele>400.0</ele><time>2026-05-02T07:41:12.728Z</time></trkpt><trkpt lat="43.95179" lon="11.2123883"><ele>395.6666666666667</ele><time>2026-05-02T07:41:13.726Z</time></trkpt><trkpt lat="43.9519083" lon="11.212545"><ele>391.33333333333337</ele><time>2026-05-02T07:41:14.728Z</time></trkpt><trkpt lat="43.95203" lon="11.212675"><ele>387.0</ele><time>2026-05-02T07:41:15.726Z</time></trkpt><trkpt lat="43.95215" lon="11.21279"><ele>387.0</ele><time>2026-05-02T07:41:16.727Z</time></trkpt><trkpt lat="43.952265" lon="11.21289"><ele>387.0</ele><time>2026-05-02T07:41:17.728Z</time></trkpt><trkpt lat="43.952375" lon="11.2129883"><ele>387.0</ele><time>2026-05-02T07:41:18.727Z</time></trkpt><trkpt lat="43.95249" lon="11.2130867"><ele>387.0</ele><time>2026-05-02T07:41:19.728Z</time></trkpt><trkpt lat="43.9526067" lon="11.213175"><ele>384.25</ele><time>2026-05-02T07:41:20.729Z</time></trkpt><trkpt lat="43.952725" lon="11.213255"><ele>381.5</ele><time>2026-05-02T07:41:21.728Z</time></trkpt><trkpt lat="43.9528517" lon="11.2133133"><ele>378.75</ele><time>2026-05-02T07:41:22.727Z</time></trkpt><trkpt lat="43.9529817" lon="11.21335"><ele>376.0</ele><time>2026-05-02T07:41:23.727Z</time></trkpt><trkpt lat="43.9531117" lon="11.2133817"><ele>376.0</ele><time>2026-05-02T07:41:24.727Z</time></trkpt><trkpt lat="43.9532383" lon="11.2133983"><ele>376.0</ele><time>2026-05-02T07:41:25.727Z</time></trkpt><trkpt lat="43.9533617" lon="11.2133917"><ele>376.0</ele><time>2026-05-02T07:41:26.729Z</time></trkpt><trkpt lat="43.9534767" lon="11.2133783"><ele>376.0</ele><time>2026-05-02T07:41:27.726Z</time></trkpt><trkpt lat="43.953585" lon="11.2133583"><ele>376.4</ele><time>2026-05-02T07:41:28.726Z</time></trkpt><trkpt lat="43.95369" lon="11.21333"><ele>376.8</ele><time>2026-05-02T07:41:29.727Z</time></trkpt><trkpt lat="43.9537983" lon="11.213325"><ele>377.2</ele><time>2026-05-02T07:41:30.727Z</time></trkpt><trkpt lat="43.9539083" lon="11.2133433"><ele>377.59999999999997</ele><time>2026-05-02T07:41:31.727Z</time></trkpt><trkpt lat="43.9540067" lon="11.2133917"><ele>378.0</ele><time>2026-05-02T07:41:32.725Z</time></trkpt><trkpt lat="43.9541" lon="11.2134517"><ele>378.0</ele><time>2026-05-02T07:41:33.726Z</time></trkpt><trkpt lat="43.954195" lon="11.21351"><ele>378.0</ele><time>2026-05-02T07:41:34.725Z</time></trkpt><trkpt lat="43.954295" lon="11.2135483"><ele>378.0</ele><time>2026-05-02T07:41:35.726Z</time></trkpt><trkpt lat="43.9544" lon="11.2135683"><ele>378.0</ele><time>2026-05-02T07:41:36.726Z</time></trkpt><trkpt lat="43.9545117" lon="11.2135717"><ele>378.0</ele><time>2026-05-02T07:41:37.725Z</time></trkpt><trkpt lat="43.95463" lon="11.2135533"><ele>375.5</ele><time>2026-05-02T07:41:38.725Z</time></trkpt><trkpt lat="43.954745" lon="11.213515"><ele>373.0</ele><time>2026-05-02T07:41:39.726Z</time></trkpt><trkpt lat="43.954865" lon="11.213475"><ele>370.5</ele><time>2026-05-02T07:41:40.726Z</time></trkpt><trkpt lat="43.9549967" lon="11.2134283"><ele>368.0</ele><time>2026-05-02T07:41:41.727Z</time></trkpt><trkpt lat="43.9551567" lon="11.2133683"><ele>363.6666666666667</ele><time>2026-05-02T07:41:42.728Z</time></trkpt><trkpt lat="43.9553383" lon="11.213315"><ele>359.3333333333333</ele><time>2026-05-02T07:41:43.725Z</time></trkpt><trkpt lat="43.955525" lon="11.21328"><ele>355.0</ele><time>2026-05-02T07:41:44.726Z</time></trkpt><trkpt lat="43.9557067" lon="11.2132733"><ele>352.0</ele><time>2026-05-02T07:41:45.726Z</time></trkpt><trkpt lat="43.95589" lon="11.2132767"><ele>349.0</ele><time>2026-05-02T07:41:46.726Z</time></trkpt><trkpt lat="43.956075" lon="11.2132983"><ele>346.0</ele><time>2026-05-02T07:41:47.727Z</time></trkpt><trkpt lat="43.95626" lon="11.2133167"><ele>346.0</ele><time>2026-05-02T07:41:48.726Z</time></trkpt><trkpt lat="43.9564383" lon="11.2133417"><ele>346.0</ele><time>2026-05-02T07:41:49.726Z</time></trkpt><trkpt lat="43.9566183" lon="11.2133633"><ele>346.0</ele><time>2026-05-02T07:41:50.727Z</time></trkpt><trkpt lat="43.9567917" lon="11.2133783"><ele>342.0</ele><time>2026-05-02T07:41:51.727Z</time></trkpt><trkpt lat="43.95696" lon="11.2133833"><ele>338.0</ele><time>2026-05-02T07:41:52.726Z</time></trkpt><trkpt lat="43.9571233" lon="11.2133817"><ele>334.0</ele><time>2026-05-02T07:41:53.727Z</time></trkpt><trkpt lat="43.9572817" lon="11.2133683"><ele>334.0</ele><time>2026-05-02T07:41:54.725Z</time></trkpt><trkpt lat="43.9574333" lon="11.2133633"><ele>334.0</ele><time>2026-05-02T07:41:55.726Z</time></trkpt><trkpt lat="43.9575783" lon="11.2133717"><ele>334.0</ele><time>2026-05-02T07:41:56.726Z</time></trkpt><trkpt lat="43.9577167" lon="11.2134117"><ele>334.0</ele><time>2026-05-02T07:41:57.726Z</time></trkpt><trkpt lat="43.9578417" lon="11.2134917"><ele>330.5</ele><time>2026-05-02T07:41:58.725Z</time></trkpt><trkpt lat="43.9579583" lon="11.2136"><ele>327.0</ele><time>2026-05-02T07:41:59.726Z</time></trkpt><trkpt lat="43.9580833" lon="11.2137033"><ele>323.5</ele><time>2026-05-02T07:42:00.726Z</time></trkpt><trkpt lat="43.9582233" lon="11.213795"><ele>320.0</ele><time>2026-05-02T07:42:01.727Z</time></trkpt><trkpt lat="43.9583583" lon="11.2138933"><ele>318.75</ele><time>2026-05-02T07:42:02.726Z</time></trkpt><trkpt lat="43.958485" lon="11.214"><ele>317.5</ele><time>2026-05-02T07:42:03.726Z</time></trkpt><trkpt lat="43.9586083" lon="11.2141067"><ele>316.25</ele><time>2026-05-02T07:42:04.728Z</time></trkpt><trkpt lat="43.9587283" lon="11.21421"><ele>315.0</ele><time>2026-05-02T07:42:05.726Z</time></trkpt><trkpt lat="43.9588367" lon="11.214295"><ele>315.0</ele><time>2026-05-02T07:42:06.725Z</time></trkpt><trkpt lat="43.95893" lon="11.21436"><ele>315.0</ele><time>2026-05-02T07:42:07.725Z</time></trkpt><trkpt lat="43.95902" lon="11.2144183"><ele>315.0</ele><time>2026-05-02T07:42:08.725Z</time></trkpt><trkpt lat="43.9591133" lon="11.2144617"><ele>315.0</ele><time>2026-05-02T07:42:09.726Z</time></trkpt><trkpt lat="43.9592317" lon="11.2144967"><ele>315.0</ele><time>2026-05-02T07:42:10.726Z</time></trkpt><trkpt lat="43.959365" lon="11.2145183"><ele>313.6666666666667</ele><time>2026-05-02T07:42:11.726Z</time></trkpt><trkpt lat="43.9595117" lon="11.21452"><ele>312.33333333333337</ele><time>2026-05-02T07:42:12.726Z</time></trkpt><trkpt lat="43.959665" lon="11.214515"><ele>311.0</ele><time>2026-05-02T07:42:13.726Z</time></trkpt><trkpt lat="43.95982" lon="11.2145"><ele>311.0</ele><time>2026-05-02T07:42:14.727Z</time></trkpt><trkpt lat="43.9599717" lon="11.2144783"><ele>311.0</ele><time>2026-05-02T07:42:15.728Z</time></trkpt><trkpt lat="43.96012" lon="11.2144833"><ele>311.0</ele><time>2026-05-02T07:42:16.726Z</time></trkpt><trkpt lat="43.96027" lon="11.2145133"><ele>309.6666666666667</ele><time>2026-05-02T07:42:17.726Z</time></trkpt><trkpt lat="43.9604183" lon="11.214575"><ele>308.3333333333333</ele><time>2026-05-02T07:42:18.725Z</time></trkpt><trkpt lat="43.9605667" lon="11.21466"><ele>307.0</ele><time>2026-05-02T07:42:19.726Z</time></trkpt><trkpt lat="43.960715" lon="11.21476"><ele>306.66666666666663</ele><time>2026-05-02T07:42:20.725Z</time></trkpt><trkpt lat="43.9608717" lon="11.2148783"><ele>306.3333333333333</ele><time>2026-05-02T07:42:21.726Z</time></trkpt><trkpt lat="43.9610333" lon="11.2150033"><ele>306.0</ele><time>2026-05-02T07:42:22.726Z</time></trkpt><trkpt lat="43.9611983" lon="11.2151267"><ele>306.0</ele><time>2026-05-02T07:42:23.726Z</time></trkpt><trkpt lat="43.9613667" lon="11.2152483"><ele>306.0</ele><time>2026-05-02T07:42:24.731Z</time></trkpt><trkpt lat="43.9615367" lon="11.21537"><ele>306.0</ele><time>2026-05-02T07:42:25.726Z</time></trkpt><trkpt lat="43.9617067" lon="11.2154967"><ele>306.0</ele><time>2026-05-02T07:42:26.725Z</time></trkpt><trkpt lat="43.96188" lon="11.21563"><ele>306.0</ele><time>2026-05-02T07:42:27.726Z</time></trkpt><trkpt lat="43.9620567" lon="11.215765"><ele>306.0</ele><time>2026-05-02T07:42:28.725Z</time></trkpt><trkpt lat="43.9622333" lon="11.2159"><ele>306.0</ele><time>2026-05-02T07:42:29.725Z</time></trkpt><trkpt lat="43.9624117" lon="11.2160367"><ele>306.0</ele><time>2026-05-02T07:42:30.726Z</time></trkpt><trkpt lat="43.9625867" lon="11.2161717"><ele>306.0</ele><time>2026-05-02T07:42:31.726Z</time></trkpt><trkpt lat="43.962765" lon="11.2163117"><ele>304.6666666666667</ele><time>2026-05-02T07:42:32.726Z</time></trkpt><trkpt lat="43.9629367" lon="11.2164483"><ele>303.33333333333337</ele><time>2026-05-02T07:42:33.726Z</time></trkpt><trkpt lat="43.9631" lon="11.2165667"><ele>302.0</ele><time>2026-05-02T07:42:34.725Z</time></trkpt><trkpt lat="43.9632683" lon="11.2166483"><ele>302.33333333333337</ele><time>2026-05-02T07:42:35.726Z</time></trkpt><trkpt lat="43.963445" lon="11.2166833"><ele>302.6666666666667</ele><time>2026-05-02T07:42:36.726Z</time></trkpt><trkpt lat="43.9636267" lon="11.2166633"><ele>303.0</ele><time>2026-05-02T07:42:37.726Z</time></trkpt><trkpt lat="43.96381" lon="11.216605"><ele>303.0</ele><time>2026-05-02T07:42:38.727Z</time></trkpt><trkpt lat="43.9639933" lon="11.21654"><ele>303.0</ele><time>2026-05-02T07:42:39.726Z</time></trkpt><trkpt lat="43.9641717" lon="11.216495"><ele>303.0</ele><time>2026-05-02T07:42:40.725Z</time></trkpt><trkpt lat="43.9643583" lon="11.2164783"><ele>301.6666666666667</ele><time>2026-05-02T07:42:41.726Z</time></trkpt><trkpt lat="43.964555" lon="11.2164983"><ele>300.33333333333337</ele><time>2026-05-02T07:42:42.726Z</time></trkpt><trkpt lat="43.9647617" lon="11.2165517"><ele>299.0</ele><time>2026-05-02T07:42:43.726Z</time></trkpt><trkpt lat="43.96497" lon="11.2166117"><ele>297.6666666666667</ele><time>2026-05-02T07:42:44.726Z</time></trkpt><trkpt lat="43.9651883" lon="11.2166733"><ele>296.3333333333333</ele><time>2026-05-02T07:42:45.727Z</time></trkpt><trkpt lat="43.9654117" lon="11.2167167"><ele>295.0</ele><time>2026-05-02T07:42:46.727Z</time></trkpt><trkpt lat="43.96564" lon="11.21674"><ele>295.0</ele><time>2026-05-02T07:42:47.726Z</time></trkpt><trkpt lat="43.9658683" lon="11.2167383"><ele>295.0</ele><time>2026-05-02T07:42:48.725Z</time></trkpt><trkpt lat="43.9660967" lon="11.216705"><ele>295.0</ele><time>2026-05-02T07:42:49.726Z</time></trkpt><trkpt lat="43.9663233" lon="11.216655"><ele>295.0</ele><time>2026-05-02T07:42:50.726Z</time></trkpt><trkpt lat="43.9665417" lon="11.216595"><ele>296.0</ele><time>2026-05-02T07:42:51.726Z</time></trkpt><trkpt lat="43.966745" lon="11.2165583"><ele>297.0</ele><time>2026-05-02T07:42:52.727Z</time></trkpt><trkpt lat="43.9669433" lon="11.2165567"><ele>298.0</ele><time>2026-05-02T07:42:53.726Z</time></trkpt><trkpt lat="43.96714" lon="11.2166017"><ele>298.0</ele><time>2026-05-02T07:42:54.727Z</time></trkpt><trkpt lat="43.9673317" lon="11.2166933"><ele>298.0</ele><time>2026-05-02T07:42:55.726Z</time></trkpt><trkpt lat="43.9675133" lon="11.2168217"><ele>298.0</ele><time>2026-05-02T07:42:56.728Z</time></trkpt><trkpt lat="43.967685" lon="11.2169683"><ele>300.66666666666663</ele><time>2026-05-02T07:42:57.729Z</time></trkpt><trkpt lat="43.9678517" lon="11.217085"><ele>303.3333333333333</ele><time>2026-05-02T07:42:58.728Z</time></trkpt><trkpt lat="43.9680167" lon="11.21715"><ele>306.0</ele><time>2026-05-02T07:42:59.729Z</time></trkpt><trkpt lat="43.968185" lon="11.21715"><ele>309.3333333333333</ele><time>2026-05-02T07:43:00.73Z</time></trkpt><trkpt lat="43.968365" lon="11.2171167"><ele>312.66666666666663</ele><time>2026-05-02T07:43:01.73Z</time></trkpt><trkpt lat="43.968545" lon="11.217075"><ele>316.0</ele><time>2026-05-02T07:43:02.729Z</time></trkpt><trkpt lat="43.9687283" lon="11.2170483"><ele>316.0</ele><time>2026-05-02T07:43:03.727Z</time></trkpt><trkpt lat="43.9689117" lon="11.2170433"><ele>316.0</ele><time>2026-05-02T07:43:04.728Z</time></trkpt><trkpt lat="43.9691033" lon="11.2170633"><ele>316.0</ele><time>2026-05-02T07:43:05.73Z</time></trkpt><trkpt lat="43.9692933" lon="11.217095"><ele>318.3333333333333</ele><time>2026-05-02T07:43:06.728Z</time></trkpt><trkpt lat="43.9694833" lon="11.217135"><ele>320.6666666666667</ele><time>2026-05-02T07:43:07.728Z</time></trkpt><trkpt lat="43.969675" lon="11.2171767"><ele>323.0</ele><time>2026-05-02T07:43:08.729Z</time></trkpt><trkpt lat="43.9698567" lon="11.2172217"><ele>322.6666666666667</ele><time>2026-05-02T07:43:09.729Z</time></trkpt><trkpt lat="43.9700283" lon="11.2172567"><ele>322.3333333333333</ele><time>2026-05-02T07:43:10.726Z</time></trkpt><trkpt lat="43.9701867" lon="11.2172767"><ele>322.0</ele><time>2026-05-02T07:43:11.727Z</time></trkpt><trkpt lat="43.9703317" lon="11.21726"><ele>322.0</ele><time>2026-05-02T07:43:12.73Z</time></trkpt><trkpt lat="43.9704667" lon="11.21721"><ele>322.0</ele><time>2026-05-02T07:43:13.73Z</time></trkpt><trkpt lat="43.9705817" lon="11.21713"><ele>322.0</ele><time>2026-05-02T07:43:14.728Z</time></trkpt><trkpt lat="43.9706867" lon="11.2170467"><ele>322.0</ele><time>2026-05-02T07:43:15.728Z</time></trkpt><trkpt lat="43.97079" lon="11.2169733"><ele>320.5</ele><time>2026-05-02T07:43:16.727Z</time></trkpt><trkpt lat="43.9709" lon="11.2169133"><ele>319.0</ele><time>2026-05-02T07:43:17.728Z</time></trkpt><trkpt lat="43.97102" lon="11.2168817"><ele>317.5</ele><time>2026-05-02T07:43:18.727Z</time></trkpt><trkpt lat="43.9711433" lon="11.2168883"><ele>316.0</ele><time>2026-05-02T07:43:19.728Z</time></trkpt><trkpt lat="43.971265" lon="11.21691"><ele>316.0</ele><time>2026-05-02T07:43:20.729Z</time></trkpt><trkpt lat="43.9713917" lon="11.2169233"><ele>316.0</ele><time>2026-05-02T07:43:21.727Z</time></trkpt><trkpt lat="43.9715433" lon="11.2169017"><ele>316.0</ele><time>2026-05-02T07:43:22.727Z</time></trkpt><trkpt lat="43.9717317" lon="11.2168667"><ele>313.0</ele><time>2026-05-02T07:43:23.73Z</time></trkpt><trkpt lat="43.97194" lon="11.216835"><ele>310.0</ele><time>2026-05-02T07:43:24.73Z</time></trkpt><trkpt lat="43.9721517" lon="11.2168133"><ele>307.0</ele><time>2026-05-02T07:43:25.728Z</time></trkpt><trkpt lat="43.9723533" lon="11.2167967"><ele>307.0</ele><time>2026-05-02T07:43:26.728Z</time></trkpt><trkpt lat="43.9725433" lon="11.2168167"><ele>307.0</ele><time>2026-05-02T07:43:27.729Z</time></trkpt><trkpt lat="43.9727267" lon="11.216895"><ele>307.0</ele><time>2026-05-02T07:43:28.728Z</time></trkpt><trkpt lat="43.9729083" lon="11.2170033"><ele>307.0</ele><time>2026-05-02T07:43:29.728Z</time></trkpt><trkpt lat="43.9730867" lon="11.21714"><ele>307.0</ele><time>2026-05-02T07:43:30.728Z</time></trkpt><trkpt lat="43.9732733" lon="11.2172783"><ele>307.0</ele><time>2026-05-02T07:43:31.726Z</time></trkpt><trkpt lat="43.97345" lon="11.2174333"><ele>307.66666666666663</ele><time>2026-05-02T07:43:32.728Z</time></trkpt><trkpt lat="43.9736267" lon="11.2176033"><ele>308.3333333333333</ele><time>2026-05-02T07:43:33.726Z</time></trkpt><trkpt lat="43.9737933" lon="11.217785"><ele>309.0</ele><time>2026-05-02T07:43:34.728Z</time></trkpt><trkpt lat="43.9739533" lon="11.2179617"><ele>309.0</ele><time>2026-05-02T07:43:35.728Z</time></trkpt><trkpt lat="43.97412" lon="11.2181267"><ele>309.0</ele><time>2026-05-02T07:43:36.729Z</time></trkpt><trkpt lat="43.9742967" lon="11.2182683"><ele>309.0</ele><time>2026-05-02T07:43:37.727Z</time></trkpt><trkpt lat="43.9744933" lon="11.21838"><ele>306.3333333333333</ele><time>2026-05-02T07:43:38.729Z</time></trkpt><trkpt lat="43.974695" lon="11.2184917"><ele>303.66666666666663</ele><time>2026-05-02T07:43:39.728Z</time></trkpt><trkpt lat="43.9748817" lon="11.2186417"><ele>301.0</ele><time>2026-05-02T07:43:40.728Z</time></trkpt><trkpt lat="43.975055" lon="11.2188133"><ele>300.0</ele><time>2026-05-02T07:43:41.728Z</time></trkpt><trkpt lat="43.975215" lon="11.2189983"><ele>299.0</ele><time>2026-05-02T07:43:42.728Z</time></trkpt><trkpt lat="43.9753567" lon="11.2192083"><ele>298.0</ele><time>2026-05-02T07:43:43.729Z</time></trkpt><trkpt lat="43.975485" lon="11.219455"><ele>298.0</ele><time>2026-05-02T07:43:44.729Z</time></trkpt><trkpt lat="43.97561" lon="11.2197083"><ele>298.0</ele><time>2026-05-02T07:43:45.73Z</time></trkpt><trkpt lat="43.9757383" lon="11.2199583"><ele>298.0</ele><time>2026-05-02T07:43:46.728Z</time></trkpt><trkpt lat="43.9758583" lon="11.220195"><ele>297.66666666666663</ele><time>2026-05-02T07:43:47.729Z</time></trkpt><trkpt lat="43.9759783" lon="11.220415"><ele>297.3333333333333</ele><time>2026-05-02T07:43:48.727Z</time></trkpt><trkpt lat="43.97608" lon="11.22063"><ele>297.0</ele><time>2026-05-02T07:43:49.729Z</time></trkpt><trkpt lat="43.9761533" lon="11.2208483"><ele>297.0</ele><time>2026-05-02T07:43:50.728Z</time></trkpt><trkpt lat="43.9761933" lon="11.22108"><ele>297.0</ele><time>2026-05-02T07:43:51.728Z</time></trkpt><trkpt lat="43.97621" lon="11.2213233"><ele>297.0</ele><time>2026-05-02T07:43:52.728Z</time></trkpt><trkpt lat="43.9762" lon="11.2215833"><ele>296.6666666666667</ele><time>2026-05-02T07:43:53.727Z</time></trkpt><trkpt lat="43.9761783" lon="11.22186"><ele>296.33333333333337</ele><time>2026-05-02T07:43:54.727Z</time></trkpt><trkpt lat="43.9761567" lon="11.2221517"><ele>296.0</ele><time>2026-05-02T07:43:55.73Z</time></trkpt><trkpt lat="43.9761417" lon="11.222455"><ele>296.0</ele><time>2026-05-02T07:43:56.729Z</time></trkpt><trkpt lat="43.9761217" lon="11.2227567"><ele>296.0</ele><time>2026-05-02T07:43:57.727Z</time></trkpt><trkpt lat="43.9761083" lon="11.2230417"><ele>296.0</ele><time>2026-05-02T07:43:58.729Z</time></trkpt><trkpt lat="43.9761017" lon="11.2233133"><ele>294.33333333333337</ele><time>2026-05-02T07:43:59.729Z</time></trkpt><trkpt lat="43.9761" lon="11.2235583"><ele>292.6666666666667</ele><time>2026-05-02T07:44:00.729Z</time></trkpt><trkpt lat="43.9761267" lon="11.223775"><ele>291.0</ele><time>2026-05-02T07:44:01.73Z</time></trkpt><trkpt lat="43.9761833" lon="11.2239733"><ele>287.0</ele><time>2026-05-02T07:44:02.729Z</time></trkpt><trkpt lat="43.97628" lon="11.224135"><ele>283.0</ele><time>2026-05-02T07:44:03.727Z</time></trkpt><trkpt lat="43.976425" lon="11.2242517"><ele>279.0</ele><time>2026-05-02T07:44:04.726Z</time></trkpt><trkpt lat="43.9765917" lon="11.2243433"><ele>279.0</ele><time>2026-05-02T07:44:05.727Z</time></trkpt><trkpt lat="43.9767917" lon="11.2244167"><ele>279.0</ele><time>2026-05-02T07:44:06.728Z</time></trkpt><trkpt lat="43.9769983" lon="11.224505"><ele>279.0</ele><time>2026-05-02T07:44:07.729Z</time></trkpt><trkpt lat="43.9772" lon="11.2245933"><ele>279.0</ele><time>2026-05-02T07:44:08.729Z</time></trkpt><trkpt lat="43.9774017" lon="11.2246717"><ele>279.0</ele><time>2026-05-02T07:44:09.728Z</time></trkpt><trkpt lat="43.9775983" lon="11.2247417"><ele>279.0</ele><time>2026-05-02T07:44:10.727Z</time></trkpt><trkpt lat="43.97779" lon="11.224815"><ele>274.6666666666667</ele><time>2026-05-02T07:44:11.729Z</time></trkpt><trkpt lat="43.9779767" lon="11.2248867"><ele>270.33333333333337</ele><time>2026-05-02T07:44:12.729Z</time></trkpt><trkpt lat="43.978155" lon="11.224955"><ele>266.0</ele><time>2026-05-02T07:44:13.726Z</time></trkpt><trkpt lat="43.9783217" lon="11.225025"><ele>264.6666666666667</ele><time>2026-05-02T07:44:14.728Z</time></trkpt><trkpt lat="43.9784783" lon="11.2250933"><ele>263.3333333333333</ele><time>2026-05-02T07:44:15.728Z</time></trkpt><trkpt lat="43.9786283" lon="11.2251583"><ele>262.0</ele><time>2026-05-02T07:44:16.728Z</time></trkpt><trkpt lat="43.97877" lon="11.2252233"><ele>262.0</ele><time>2026-05-02T07:44:17.729Z</time></trkpt><trkpt lat="43.978905" lon="11.2252867"><ele>262.0</ele><time>2026-05-02T07:44:18.727Z</time></trkpt><trkpt lat="43.97903" lon="11.2253517"><ele>262.0</ele><time>2026-05-02T07:44:19.728Z</time></trkpt><trkpt lat="43.9791433" lon="11.2254083"><ele>262.0</ele><time>2026-05-02T07:44:20.727Z</time></trkpt><trkpt lat="43.9792517" lon="11.2254683"><ele>261.5</ele><time>2026-05-02T07:44:21.728Z</time></trkpt><trkpt lat="43.97936" lon="11.2255317"><ele>261.0</ele><time>2026-05-02T07:44:22.728Z</time></trkpt><trkpt lat="43.9794717" lon="11.22559"><ele>260.5</ele><time>2026-05-02T07:44:23.728Z</time></trkpt><trkpt lat="43.97958" lon="11.2256517"><ele>260.0</ele><time>2026-05-02T07:44:24.727Z</time></trkpt><trkpt lat="43.9796817" lon="11.2257117"><ele>260.0</ele><time>2026-05-02T07:44:25.729Z</time></trkpt><trkpt lat="43.9797783" lon="11.225775"><ele>260.0</ele><time>2026-05-02T07:44:26.729Z</time></trkpt><trkpt lat="43.9798667" lon="11.2258417"><ele>260.0</ele><time>2026-05-02T07:44:27.728Z</time></trkpt><trkpt lat="43.9799483" lon="11.2259067"><ele>260.0</ele><time>2026-05-02T07:44:28.729Z</time></trkpt><trkpt lat="43.9800183" lon="11.22598"><ele>260.0</ele><time>2026-05-02T07:44:29.729Z</time></trkpt><trkpt lat="43.9800783" lon="11.2260567"><ele>260.0</ele><time>2026-05-02T07:44:30.728Z</time></trkpt><trkpt lat="43.9801267" lon="11.2261367"><ele>260.0</ele><time>2026-05-02T07:44:31.728Z</time></trkpt><trkpt lat="43.9801683" lon="11.2262217"><ele>260.0</ele><time>2026-05-02T07:44:32.729Z</time></trkpt><trkpt lat="43.9802033" lon="11.2263167"><ele>260.0</ele><time>2026-05-02T07:44:33.728Z</time></trkpt><trkpt lat="43.9802333" lon="11.22642"><ele>260.0</ele><time>2026-05-02T07:44:34.728Z</time></trkpt><trkpt lat="43.9802683" lon="11.2265133"><ele>260.0</ele><time>2026-05-02T07:44:35.728Z</time></trkpt><trkpt lat="43.980315" lon="11.2265867"><ele>259.8</ele><time>2026-05-02T07:44:36.726Z</time></trkpt><trkpt lat="43.980365" lon="11.2266433"><ele>259.6</ele><time>2026-05-02T07:44:37.728Z</time></trkpt><trkpt lat="43.9804967" lon="11.2267017"><ele>259.4</ele><time>2026-05-02T07:44:39.728Z</time></trkpt><trkpt lat="43.98058" lon="11.2267417"><ele>259.2</ele><time>2026-05-02T07:44:40.727Z</time></trkpt><trkpt lat="43.9806517" lon="11.2268267"><ele>259.0</ele><time>2026-05-02T07:44:41.729Z</time></trkpt><trkpt lat="43.980705" lon="11.22695"><ele>259.0</ele><time>2026-05-02T07:44:42.727Z</time></trkpt><trkpt lat="43.98075" lon="11.2270983"><ele>259.0</ele><time>2026-05-02T07:44:43.729Z</time></trkpt><trkpt lat="43.98077" lon="11.2272817"><ele>259.0</ele><time>2026-05-02T07:44:44.726Z</time></trkpt><trkpt lat="43.9807833" lon="11.227465"><ele>259.0</ele><time>2026-05-02T07:44:45.726Z</time></trkpt><trkpt lat="43.980785" lon="11.2276517"><ele>259.75</ele><time>2026-05-02T07:44:46.728Z</time></trkpt><trkpt lat="43.98078" lon="11.22784"><ele>260.5</ele><time>2026-05-02T07:44:47.727Z</time></trkpt><trkpt lat="43.9807583" lon="11.2280267"><ele>261.25</ele><time>2026-05-02T07:44:48.727Z</time></trkpt><trkpt lat="43.9807283" lon="11.2282067"><ele>262.0</ele><time>2026-05-02T07:44:49.729Z</time></trkpt><trkpt lat="43.9806983" lon="11.228385"><ele>262.75</ele><time>2026-05-02T07:44:50.729Z</time></trkpt><trkpt lat="43.9806767" lon="11.2285667"><ele>263.5</ele><time>2026-05-02T07:44:51.728Z</time></trkpt><trkpt lat="43.9806633" lon="11.2287467"><ele>264.25</ele><time>2026-05-02T07:44:52.729Z</time></trkpt><trkpt lat="43.9806567" lon="11.2289217"><ele>265.0</ele><time>2026-05-02T07:44:53.728Z</time></trkpt><trkpt lat="43.980655" lon="11.2290983"><ele>265.5</ele><time>2026-05-02T07:44:54.727Z</time></trkpt><trkpt lat="43.9806583" lon="11.229275"><ele>266.0</ele><time>2026-05-02T07:44:55.728Z</time></trkpt><trkpt lat="43.98067" lon="11.22945"><ele>266.5</ele><time>2026-05-02T07:44:56.728Z</time></trkpt><trkpt lat="43.98068" lon="11.229625"><ele>267.0</ele><time>2026-05-02T07:44:57.729Z</time></trkpt><trkpt lat="43.9807" lon="11.2298017"><ele>267.0</ele><time>2026-05-02T07:44:58.729Z</time></trkpt><trkpt lat="43.9807283" lon="11.229985"><ele>267.0</ele><time>2026-05-02T07:44:59.726Z</time></trkpt><trkpt lat="43.9807667" lon="11.2301683"><ele>267.0</ele><time>2026-05-02T07:45:00.729Z</time></trkpt><trkpt lat="43.980805" lon="11.2303567"><ele>267.0</ele><time>2026-05-02T07:45:01.729Z</time></trkpt><trkpt lat="43.9808467" lon="11.2305467"><ele>268.5</ele><time>2026-05-02T07:45:02.729Z</time></trkpt><trkpt lat="43.9808867" lon="11.2307383"><ele>270.0</ele><time>2026-05-02T07:45:03.729Z</time></trkpt><trkpt lat="43.980925" lon="11.2309267"><ele>271.5</ele><time>2026-05-02T07:45:04.726Z</time></trkpt><trkpt lat="43.98096" lon="11.2311067"><ele>273.0</ele><time>2026-05-02T07:45:05.728Z</time></trkpt><trkpt lat="43.9809917" lon="11.231275"><ele>273.0</ele><time>2026-05-02T07:45:06.728Z</time></trkpt><trkpt lat="43.98102" lon="11.2314367"><ele>273.0</ele><time>2026-05-02T07:45:07.727Z</time></trkpt><trkpt lat="43.9810533" lon="11.2315867"><ele>273.0</ele><time>2026-05-02T07:45:08.727Z</time></trkpt><trkpt lat="43.9810883" lon="11.23173"><ele>273.0</ele><time>2026-05-02T07:45:09.727Z</time></trkpt><trkpt lat="43.9811217" lon="11.2318617"><ele>273.0</ele><time>2026-05-02T07:45:10.729Z</time></trkpt><trkpt lat="43.9811467" lon="11.2319783"><ele>272.42857142857144</ele><time>2026-05-02T07:45:11.729Z</time></trkpt><trkpt lat="43.981175" lon="11.2320767"><ele>271.8571428571429</ele><time>2026-05-02T07:45:12.728Z</time></trkpt><trkpt lat="43.9812083" lon="11.2321667"><ele>271.2857142857143</ele><time>2026-05-02T07:45:13.729Z</time></trkpt><trkpt lat="43.981245" lon="11.23225"><ele>270.7142857142857</ele><time>2026-05-02T07:45:14.729Z</time></trkpt><trkpt lat="43.9812867" lon="11.2323317"><ele>270.14285714285717</ele><time>2026-05-02T07:45:15.729Z</time></trkpt><trkpt lat="43.981335" lon="11.2324017"><ele>269.57142857142856</ele><time>2026-05-02T07:45:16.73Z</time></trkpt><trkpt lat="43.9813883" lon="11.232465"><ele>269.0</ele><time>2026-05-02T07:45:17.728Z</time></trkpt><trkpt lat="43.9814883" lon="11.232545"><ele>268.6666666666667</ele><time>2026-05-02T07:45:19.729Z</time></trkpt><trkpt lat="43.9815883" lon="11.2325533"><ele>268.33333333333337</ele><time>2026-05-02T07:45:21.728Z</time></trkpt><trkpt lat="43.9816533" lon="11.2325267"><ele>268.0</ele><time>2026-05-02T07:45:22.727Z</time></trkpt><trkpt lat="43.9817233" lon="11.232505"><ele>267.6666666666667</ele><time>2026-05-02T07:45:23.727Z</time></trkpt><trkpt lat="43.9817983" lon="11.2325"><ele>267.3333333333333</ele><time>2026-05-02T07:45:24.727Z</time></trkpt><trkpt lat="43.9818717" lon="11.2325133"><ele>267.0</ele><time>2026-05-02T07:45:25.727Z</time></trkpt><trkpt lat="43.9819417" lon="11.2325233"><ele>267.00000000000006</ele><time>2026-05-02T07:45:26.729Z</time></trkpt><trkpt lat="43.9820117" lon="11.2325367"><ele>267.0</ele><time>2026-05-02T07:45:27.728Z</time></trkpt><trkpt lat="43.9820817" lon="11.2325483"><ele>267.0</ele><time>2026-05-02T07:45:28.728Z</time></trkpt><trkpt lat="43.982155" lon="11.2325667"><ele>267.0</ele><time>2026-05-02T07:45:29.727Z</time></trkpt><trkpt lat="43.9822283" lon="11.23258"><ele>267.0</ele><time>2026-05-02T07:45:30.729Z</time></trkpt><trkpt lat="43.982305" lon="11.232595"><ele>267.00000000000006</ele><time>2026-05-02T07:45:31.729Z</time></trkpt><trkpt lat="43.982385" lon="11.2326033"><ele>267.0</ele><time>2026-05-02T07:45:32.729Z</time></trkpt><trkpt lat="43.98246" lon="11.2326133"><ele>267.14285714285717</ele><time>2026-05-02T07:45:33.728Z</time></trkpt><trkpt lat="43.9825367" lon="11.2326217"><ele>267.2857142857143</ele><time>2026-05-02T07:45:34.728Z</time></trkpt><trkpt lat="43.98261" lon="11.2326333"><ele>267.42857142857144</ele><time>2026-05-02T07:45:35.727Z</time></trkpt><trkpt lat="43.9826817" lon="11.2326467"><ele>267.57142857142856</ele><time>2026-05-02T07:45:36.728Z</time></trkpt><trkpt lat="43.982755" lon="11.232665"><ele>267.7142857142857</ele><time>2026-05-02T07:45:37.727Z</time></trkpt><trkpt lat="43.98283" lon="11.23268"><ele>267.8571428571429</ele><time>2026-05-02T07:45:38.729Z</time></trkpt><trkpt lat="43.9828967" lon="11.2326967"><ele>268.0</ele><time>2026-05-02T07:45:39.727Z</time></trkpt><trkpt lat="43.9829983" lon="11.2327267"><ele>268.0</ele><time>2026-05-02T07:45:41.728Z</time></trkpt><trkpt lat="43.9830883" lon="11.2327617"><ele>268.0</ele><time>2026-05-02T07:46:15.726Z</time></trkpt><trkpt lat="43.9832233" lon="11.2327867"><ele>268.0</ele><time>2026-05-02T07:46:17.728Z</time></trkpt><trkpt lat="43.9833067" lon="11.232795"><ele>268.0</ele><time>2026-05-02T07:46:18.728Z</time></trkpt><trkpt lat="43.9833983" lon="11.23281"><ele>268.0</ele><time>2026-05-02T07:46:19.728Z</time></trkpt><trkpt lat="43.9835" lon="11.23283"><ele>268.4</ele><time>2026-05-02T07:46:20.727Z</time></trkpt><trkpt lat="43.9836017" lon="11.232855"><ele>268.8</ele><time>2026-05-02T07:46:21.727Z</time></trkpt><trkpt lat="43.983705" lon="11.2328883"><ele>269.2</ele><time>2026-05-02T07:46:22.727Z</time></trkpt><trkpt lat="43.9838017" lon="11.2329267"><ele>269.6</ele><time>2026-05-02T07:46:23.727Z</time></trkpt><trkpt lat="43.9838967" lon="11.23297"><ele>270.0</ele><time>2026-05-02T07:46:24.726Z</time></trkpt><trkpt lat="43.98399" lon="11.2330183"><ele>270.0</ele><time>2026-05-02T07:46:25.728Z</time></trkpt><trkpt lat="43.9840833" lon="11.2330583"><ele>270.0</ele><time>2026-05-02T07:46:26.726Z</time></trkpt><trkpt lat="43.984175" lon="11.2330983"><ele>270.0</ele><time>2026-05-02T07:46:27.726Z</time></trkpt><trkpt lat="43.9842717" lon="11.2331283"><ele>270.0</ele><time>2026-05-02T07:46:28.727Z</time></trkpt><trkpt lat="43.9843517" lon="11.2331617"><ele>270.0</ele><time>2026-05-02T07:46:29.726Z</time></trkpt><trkpt lat="43.9844383" lon="11.23318"><ele>270.6</ele><time>2026-05-02T07:46:30.729Z</time></trkpt><trkpt lat="43.9845267" lon="11.2331917"><ele>271.2</ele><time>2026-05-02T07:46:31.728Z</time></trkpt><trkpt lat="43.9846183" lon="11.2332033"><ele>271.8</ele><time>2026-05-02T07:46:32.728Z</time></trkpt><trkpt lat="43.984715" lon="11.2332167"><ele>272.4</ele><time>2026-05-02T07:46:33.728Z</time></trkpt><trkpt lat="43.9848117" lon="11.2332317"><ele>273.0</ele><time>2026-05-02T07:46:34.727Z</time></trkpt><trkpt lat="43.9849067" lon="11.23325"><ele>273.0</ele><time>2026-05-02T07:46:35.729Z</time></trkpt><trkpt lat="43.9849983" lon="11.2332717"><ele>273.0</ele><time>2026-05-02T07:46:36.728Z</time></trkpt><trkpt lat="43.9850917" lon="11.2332967"><ele>273.0</ele><time>2026-05-02T07:46:37.73Z</time></trkpt><trkpt lat="43.98519" lon="11.2333217"><ele>273.0</ele><time>2026-05-02T07:46:38.727Z</time></trkpt><trkpt lat="43.98529" lon="11.2333283"><ele>273.0</ele><time>2026-05-02T07:46:39.727Z</time></trkpt><trkpt lat="43.9853933" lon="11.2333267"><ele>270.6</ele><time>2026-05-02T07:46:40.728Z</time></trkpt><trkpt lat="43.9854917" lon="11.2333133"><ele>268.20000000000005</ele><time>2026-05-02T07:46:41.726Z</time></trkpt><trkpt lat="43.9855883" lon="11.2332917"><ele>265.8</ele><time>2026-05-02T07:46:42.727Z</time></trkpt><trkpt lat="43.9856867" lon="11.233255"><ele>263.40000000000003</ele><time>2026-05-02T07:46:43.728Z</time></trkpt><trkpt lat="43.9857767" lon="11.2332133"><ele>261.0</ele><time>2026-05-02T07:46:44.727Z</time></trkpt><trkpt lat="43.9858683" lon="11.23318"><ele>261.5</ele><time>2026-05-02T07:46:46.728Z</time></trkpt><trkpt lat="43.986" lon="11.2331267"><ele>262.0</ele><time>2026-05-02T07:46:48.729Z</time></trkpt><trkpt lat="43.986105" lon="11.2330833"><ele>262.5</ele><time>2026-05-02T07:46:49.729Z</time></trkpt><trkpt lat="43.9862217" lon="11.233035"><ele>263.0</ele><time>2026-05-02T07:46:50.729Z</time></trkpt><trkpt lat="43.98635" lon="11.23299"><ele>263.0</ele><time>2026-05-02T07:46:51.729Z</time></trkpt><trkpt lat="43.98649" lon="11.2329567"><ele>263.0</ele><time>2026-05-02T07:46:52.729Z</time></trkpt><trkpt lat="43.9866367" lon="11.2329383"><ele>263.0</ele><time>2026-05-02T07:46:53.727Z</time></trkpt><trkpt lat="43.9867867" lon="11.2329383"><ele>263.0</ele><time>2026-05-02T07:46:54.729Z</time></trkpt><trkpt lat="43.986935" lon="11.2329483"><ele>262.25</ele><time>2026-05-02T07:46:55.729Z</time></trkpt><trkpt lat="43.987085" lon="11.23296"><ele>261.5</ele><time>2026-05-02T07:46:56.729Z</time></trkpt><trkpt lat="43.9872317" lon="11.232975"><ele>260.75</ele><time>2026-05-02T07:46:57.729Z</time></trkpt><trkpt lat="43.9873767" lon="11.2329867"><ele>260.0</ele><time>2026-05-02T07:46:58.728Z</time></trkpt><trkpt lat="43.9875217" lon="11.2329967"><ele>259.5</ele><time>2026-05-02T07:46:59.728Z</time></trkpt><trkpt lat="43.9876667" lon="11.2330267"><ele>259.0</ele><time>2026-05-02T07:47:00.727Z</time></trkpt><trkpt lat="43.9878067" lon="11.233075"><ele>258.5</ele><time>2026-05-02T07:47:01.729Z</time></trkpt><trkpt lat="43.98794" lon="11.23314"><ele>258.0</ele><time>2026-05-02T07:47:02.729Z</time></trkpt><trkpt lat="43.9880683" lon="11.2332267"><ele>257.75</ele><time>2026-05-02T07:47:03.728Z</time></trkpt><trkpt lat="43.9881867" lon="11.233325"><ele>257.5</ele><time>2026-05-02T07:47:04.729Z</time></trkpt><trkpt lat="43.98829" lon="11.2334267"><ele>257.25</ele><time>2026-05-02T07:47:05.728Z</time></trkpt><trkpt lat="43.9883867" lon="11.2335233"><ele>257.0</ele><time>2026-05-02T07:47:06.728Z</time></trkpt><trkpt lat="43.9884667" lon="11.233615"><ele>257.0</ele><time>2026-05-02T07:47:07.729Z</time></trkpt><trkpt lat="43.988535" lon="11.2337017"><ele>257.0</ele><time>2026-05-02T07:47:08.729Z</time></trkpt><trkpt lat="43.9885867" lon="11.2337917"><ele>257.0</ele><time>2026-05-02T07:47:09.729Z</time></trkpt><trkpt lat="43.9886217" lon="11.2338983"><ele>257.0</ele><time>2026-05-02T07:47:10.729Z</time></trkpt><trkpt lat="43.988635" lon="11.2340283"><ele>257.0</ele><time>2026-05-02T07:47:11.728Z</time></trkpt><trkpt lat="43.988625" lon="11.23417"><ele>257.25</ele><time>2026-05-02T07:47:12.727Z</time></trkpt><trkpt lat="43.988585" lon="11.2343167"><ele>257.5</ele><time>2026-05-02T07:47:13.729Z</time></trkpt><trkpt lat="43.988525" lon="11.2344617"><ele>257.75</ele><time>2026-05-02T07:47:14.729Z</time></trkpt><trkpt lat="43.98847" lon="11.234605"><ele>258.0</ele><time>2026-05-02T07:47:15.727Z</time></trkpt><trkpt lat="43.98844" lon="11.2347617"><ele>258.5</ele><time>2026-05-02T07:47:16.728Z</time></trkpt><trkpt lat="43.9884467" lon="11.23493"><ele>259.0</ele><time>2026-05-02T07:47:17.729Z</time></trkpt><trkpt lat="43.988475" lon="11.2350933"><ele>259.5</ele><time>2026-05-02T07:47:18.729Z</time></trkpt><trkpt lat="43.98854" lon="11.2352417"><ele>260.0</ele><time>2026-05-02T07:47:19.729Z</time></trkpt><trkpt lat="43.9886333" lon="11.235365"><ele>260.0</ele><time>2026-05-02T07:47:20.729Z</time></trkpt><trkpt lat="43.9887233" lon="11.2354867"><ele>260.0</ele><time>2026-05-02T07:47:21.729Z</time></trkpt><trkpt lat="43.9887917" lon="11.235615"><ele>260.0</ele><time>2026-05-02T07:47:22.729Z</time></trkpt><trkpt lat="43.9888333" lon="11.23576"><ele>260.0</ele><time>2026-05-02T07:47:23.727Z</time></trkpt><trkpt lat="43.9888533" lon="11.235925"><ele>260.25</ele><time>2026-05-02T07:47:24.729Z</time></trkpt><trkpt lat="43.988855" lon="11.2361167"><ele>260.5</ele><time>2026-05-02T07:47:25.729Z</time></trkpt><trkpt lat="43.9888483" lon="11.2363217"><ele>260.75</ele><time>2026-05-02T07:47:26.727Z</time></trkpt><trkpt lat="43.9888433" lon="11.236535"><ele>261.0</ele><time>2026-05-02T07:47:27.727Z</time></trkpt><trkpt lat="43.988835" lon="11.236745"><ele>260.5</ele><time>2026-05-02T07:47:28.726Z</time></trkpt><trkpt lat="43.9888283" lon="11.236955"><ele>260.0</ele><time>2026-05-02T07:47:29.727Z</time></trkpt><trkpt lat="43.98883" lon="11.23716"><ele>259.5</ele><time>2026-05-02T07:47:30.728Z</time></trkpt><trkpt lat="43.9888417" lon="11.237355"><ele>259.0</ele><time>2026-05-02T07:47:31.728Z</time></trkpt><trkpt lat="43.988865" lon="11.237545"><ele>258.75</ele><time>2026-05-02T07:47:32.729Z</time></trkpt><trkpt lat="43.988895" lon="11.2377367"><ele>258.5</ele><time>2026-05-02T07:47:33.727Z</time></trkpt><trkpt lat="43.988935" lon="11.2379333"><ele>258.25</ele><time>2026-05-02T07:47:34.729Z</time></trkpt><trkpt lat="43.988985" lon="11.2381267"><ele>258.0</ele><time>2026-05-02T07:47:35.727Z</time></trkpt><trkpt lat="43.9890383" lon="11.23832"><ele>257.75</ele><time>2026-05-02T07:47:36.729Z</time></trkpt><trkpt lat="43.9890967" lon="11.2385117"><ele>257.5</ele><time>2026-05-02T07:47:37.729Z</time></trkpt><trkpt lat="43.9891583" lon="11.2387"><ele>257.25</ele><time>2026-05-02T07:47:38.728Z</time></trkpt><trkpt lat="43.9892167" lon="11.23888"><ele>257.0</ele><time>2026-05-02T07:47:39.728Z</time></trkpt><trkpt lat="43.9892783" lon="11.239045"><ele>257.5</ele><time>2026-05-02T07:47:40.728Z</time></trkpt><trkpt lat="43.9893417" lon="11.2392"><ele>258.0</ele><time>2026-05-02T07:47:41.729Z</time></trkpt><trkpt lat="43.989405" lon="11.23934"><ele>258.5</ele><time>2026-05-02T07:47:42.727Z</time></trkpt><trkpt lat="43.9894633" lon="11.2394717"><ele>259.0</ele><time>2026-05-02T07:47:43.728Z</time></trkpt><trkpt lat="43.989505" lon="11.2395883"><ele>259.0</ele><time>2026-05-02T07:47:44.727Z</time></trkpt><trkpt lat="43.9895333" lon="11.239685"><ele>259.0</ele><time>2026-05-02T07:47:45.73Z</time></trkpt><trkpt lat="43.9895467" lon="11.239775"><ele>259.0</ele><time>2026-05-02T07:47:46.729Z</time></trkpt><trkpt lat="43.9895483" lon="11.23993"><ele>259.0</ele><time>2026-05-02T07:47:48.728Z</time></trkpt><trkpt lat="43.9895833" lon="11.2400283"><ele>259.0</ele><time>2026-05-02T07:47:50.728Z</time></trkpt><trkpt lat="43.98965" lon="11.239965"><ele>259.0</ele><time>2026-05-02T07:48:09.728Z</time></trkpt><trkpt lat="43.9896017" lon="11.2397867"><ele>259.0</ele><time>2026-05-02T07:48:11.727Z</time></trkpt><trkpt lat="43.9895433" lon="11.2396367"><ele>259.0</ele><time>2026-05-02T07:48:12.727Z</time></trkpt><trkpt lat="43.9894783" lon="11.2394783"><ele>259.0</ele><time>2026-05-02T07:48:13.726Z</time></trkpt><trkpt lat="43.9894067" lon="11.2393017"><ele>259.0</ele><time>2026-05-02T07:48:14.729Z</time></trkpt><trkpt lat="43.989335" lon="11.239115"><ele>259.0</ele><time>2026-05-02T07:48:15.728Z</time></trkpt><trkpt lat="43.9892633" lon="11.2389267"><ele>259.0</ele><time>2026-05-02T07:48:16.726Z</time></trkpt><trkpt lat="43.9891917" lon="11.23872"><ele>259.0</ele><time>2026-05-02T07:48:17.728Z</time></trkpt><trkpt lat="43.9891283" lon="11.2384983"><ele>258.66666666666663</ele><time>2026-05-02T07:48:18.728Z</time></trkpt><trkpt lat="43.98907" lon="11.238275"><ele>258.3333333333333</ele><time>2026-05-02T07:48:19.727Z</time></trkpt><trkpt lat="43.98902" lon="11.2380517"><ele>258.0</ele><time>2026-05-02T07:48:20.728Z</time></trkpt><trkpt lat="43.9889833" lon="11.237825"><ele>258.0</ele><time>2026-05-02T07:48:21.727Z</time></trkpt><trkpt lat="43.9889567" lon="11.2375933"><ele>258.0</ele><time>2026-05-02T07:48:22.727Z</time></trkpt><trkpt lat="43.9889417" lon="11.2373617"><ele>258.0</ele><time>2026-05-02T07:48:23.727Z</time></trkpt><trkpt lat="43.9889367" lon="11.2371283"><ele>258.3333333333333</ele><time>2026-05-02T07:48:24.728Z</time></trkpt><trkpt lat="43.9889433" lon="11.2368983"><ele>258.66666666666663</ele><time>2026-05-02T07:48:25.728Z</time></trkpt><trkpt lat="43.98896" lon="11.2366667"><ele>259.0</ele><time>2026-05-02T07:48:26.728Z</time></trkpt><trkpt lat="43.9889867" lon="11.2364317"><ele>259.66666666666663</ele><time>2026-05-02T07:48:27.727Z</time></trkpt><trkpt lat="43.9890233" lon="11.2361967"><ele>260.3333333333333</ele><time>2026-05-02T07:48:28.727Z</time></trkpt><trkpt lat="43.98907" lon="11.2359667"><ele>261.0</ele><time>2026-05-02T07:48:29.728Z</time></trkpt><trkpt lat="43.98913" lon="11.2357433"><ele>261.0</ele><time>2026-05-02T07:48:30.727Z</time></trkpt><trkpt lat="43.9891967" lon="11.23552"><ele>261.0</ele><time>2026-05-02T07:48:31.726Z</time></trkpt><trkpt lat="43.989275" lon="11.235305"><ele>261.0</ele><time>2026-05-02T07:48:32.727Z</time></trkpt><trkpt lat="43.9893567" lon="11.2350883"><ele>261.0</ele><time>2026-05-02T07:48:33.729Z</time></trkpt><trkpt lat="43.9894433" lon="11.2348733"><ele>261.0</ele><time>2026-05-02T07:48:34.726Z</time></trkpt><trkpt lat="43.9895283" lon="11.2346617"><ele>261.0</ele><time>2026-05-02T07:48:35.728Z</time></trkpt><trkpt lat="43.9896067" lon="11.2344583"><ele>260.75</ele><time>2026-05-02T07:48:36.727Z</time></trkpt><trkpt lat="43.9896783" lon="11.234275"><ele>260.5</ele><time>2026-05-02T07:48:37.726Z</time></trkpt><trkpt lat="43.989745" lon="11.2341033"><ele>260.25</ele><time>2026-05-02T07:48:38.729Z</time></trkpt><trkpt lat="43.9898083" lon="11.2339417"><ele>260.0</ele><time>2026-05-02T07:48:39.727Z</time></trkpt><trkpt lat="43.98987" lon="11.2337983"><ele>259.8</ele><time>2026-05-02T07:48:40.727Z</time></trkpt><trkpt lat="43.9899367" lon="11.23368"><ele>259.6</ele><time>2026-05-02T07:48:41.728Z</time></trkpt><trkpt lat="43.9900083" lon="11.23358"><ele>259.4</ele><time>2026-05-02T07:48:42.727Z</time></trkpt><trkpt lat="43.990095" lon="11.233505"><ele>259.2</ele><time>2026-05-02T07:48:43.728Z</time></trkpt><trkpt lat="43.9901967" lon="11.2334583"><ele>259.0</ele><time>2026-05-02T07:48:44.728Z</time></trkpt><trkpt lat="43.9903083" lon="11.2334567"><ele>259.75</ele><time>2026-05-02T07:48:45.728Z</time></trkpt><trkpt lat="43.9904217" lon="11.2334967"><ele>260.5</ele><time>2026-05-02T07:48:46.728Z</time></trkpt><trkpt lat="43.9905283" lon="11.23358"><ele>261.25</ele><time>2026-05-02T07:48:47.728Z</time></trkpt><trkpt lat="43.990615" lon="11.2336967"><ele>262.0</ele><time>2026-05-02T07:48:48.728Z</time></trkpt><trkpt lat="43.990675" lon="11.23384"><ele>262.0</ele><time>2026-05-02T07:48:49.727Z</time></trkpt><trkpt lat="43.9907067" lon="11.234"><ele>262.0</ele><time>2026-05-02T07:48:50.728Z</time></trkpt><trkpt lat="43.9907117" lon="11.2341583"><ele>262.0</ele><time>2026-05-02T07:48:51.727Z</time></trkpt><trkpt lat="43.9906867" lon="11.2343083"><ele>262.0</ele><time>2026-05-02T07:48:52.726Z</time></trkpt><trkpt lat="43.9906467" lon="11.2344467"><ele>262.0</ele><time>2026-05-02T07:48:53.728Z</time></trkpt><trkpt lat="43.9905883" lon="11.2345583"><ele>262.0</ele><time>2026-05-02T07:48:54.725Z</time></trkpt><trkpt lat="43.990535" lon="11.23465"><ele>262.0</ele><time>2026-05-02T07:48:55.727Z</time></trkpt><trkpt lat="43.9905033" lon="11.23473"><ele>262.0</ele><time>2026-05-02T07:48:56.728Z</time></trkpt><trkpt lat="43.9904817" lon="11.23484"><ele>262.0</ele><time>2026-05-02T07:48:58.728Z</time></trkpt><trkpt lat="43.9905483" lon="11.234965"><ele>262.0</ele><time>2026-05-02T07:49:01.729Z</time></trkpt><trkpt lat="43.99061" lon="11.235025"><ele>261.75</ele><time>2026-05-02T07:49:02.729Z</time></trkpt><trkpt lat="43.990695" lon="11.235085"><ele>261.5</ele><time>2026-05-02T07:49:03.729Z</time></trkpt><trkpt lat="43.9908" lon="11.2351467"><ele>261.25</ele><time>2026-05-02T07:49:04.729Z</time></trkpt><trkpt lat="43.9909183" lon="11.2352067"><ele>261.0</ele><time>2026-05-02T07:49:05.729Z</time></trkpt><trkpt lat="43.9910333" lon="11.2352817"><ele>261.2</ele><time>2026-05-02T07:49:06.729Z</time></trkpt><trkpt lat="43.9911417" lon="11.235355"><ele>261.40000000000003</ele><time>2026-05-02T07:49:07.729Z</time></trkpt><trkpt lat="43.991235" lon="11.235425"><ele>261.6</ele><time>2026-05-02T07:49:08.729Z</time></trkpt><trkpt lat="43.9913167" lon="11.23549"><ele>261.8</ele><time>2026-05-02T07:49:09.728Z</time></trkpt><trkpt lat="43.9913833" lon="11.235565"><ele>262.0</ele><time>2026-05-02T07:49:10.729Z</time></trkpt><trkpt lat="43.9914433" lon="11.235665"><ele>262.0</ele><time>2026-05-02T07:49:11.729Z</time></trkpt><trkpt lat="43.991485" lon="11.23579"><ele>262.0</ele><time>2026-05-02T07:49:12.728Z</time></trkpt><trkpt lat="43.9915417" lon="11.2359133"><ele>262.0</ele><time>2026-05-02T07:49:13.729Z</time></trkpt><trkpt lat="43.9916283" lon="11.2360133"><ele>262.0</ele><time>2026-05-02T07:49:14.728Z</time></trkpt><trkpt lat="43.991725" lon="11.23611"><ele>262.0</ele><time>2026-05-02T07:49:15.727Z</time></trkpt><trkpt lat="43.991805" lon="11.2362483"><ele>262.25</ele><time>2026-05-02T07:49:16.729Z</time></trkpt><trkpt lat="43.9918783" lon="11.23641"><ele>262.5</ele><time>2026-05-02T07:49:17.728Z</time></trkpt><trkpt lat="43.9919417" lon="11.2365917"><ele>262.75</ele><time>2026-05-02T07:49:18.73Z</time></trkpt><trkpt lat="43.992005" lon="11.2367783"><ele>263.0</ele><time>2026-05-02T07:49:19.73Z</time></trkpt><trkpt lat="43.9920633" lon="11.23697"><ele>263.0</ele><time>2026-05-02T07:49:20.729Z</time></trkpt><trkpt lat="43.9921183" lon="11.2371733"><ele>263.0</ele><time>2026-05-02T07:49:21.727Z</time></trkpt><trkpt lat="43.99218" lon="11.2373717"><ele>263.0</ele><time>2026-05-02T07:49:22.729Z</time></trkpt><trkpt lat="43.9922483" lon="11.23757"><ele>263.0</ele><time>2026-05-02T07:49:23.729Z</time></trkpt><trkpt lat="43.99231" lon="11.2377733"><ele>263.0</ele><time>2026-05-02T07:49:24.728Z</time></trkpt><trkpt lat="43.9923717" lon="11.2379733"><ele>263.0</ele><time>2026-05-02T07:49:25.729Z</time></trkpt><trkpt lat="43.9924333" lon="11.2381667"><ele>263.0</ele><time>2026-05-02T07:49:26.729Z</time></trkpt><trkpt lat="43.9924983" lon="11.238355"><ele>263.0</ele><time>2026-05-02T07:49:27.728Z</time></trkpt><trkpt lat="43.9925667" lon="11.2385467"><ele>263.0</ele><time>2026-05-02T07:49:28.729Z</time></trkpt><trkpt lat="43.99263" lon="11.2387417"><ele>263.0</ele><time>2026-05-02T07:49:29.728Z</time></trkpt><trkpt lat="43.992695" lon="11.2389383"><ele>263.0</ele><time>2026-05-02T07:49:30.727Z</time></trkpt><trkpt lat="43.9927583" lon="11.2391317"><ele>263.0</ele><time>2026-05-02T07:49:31.727Z</time></trkpt><trkpt lat="43.9928267" lon="11.2393183"><ele>263.0</ele><time>2026-05-02T07:49:32.728Z</time></trkpt><trkpt lat="43.99289" lon="11.2395017"><ele>263.0</ele><time>2026-05-02T07:49:33.725Z</time></trkpt><trkpt lat="43.99295" lon="11.23967"><ele>263.0</ele><time>2026-05-02T07:49:34.726Z</time></trkpt><trkpt lat="43.9930017" lon="11.23982"><ele>263.0</ele><time>2026-05-02T07:49:35.728Z</time></trkpt><trkpt lat="43.993045" lon="11.2399567"><ele>263.0</ele><time>2026-05-02T07:49:36.729Z</time></trkpt><trkpt lat="43.9930817" lon="11.2400917"><ele>263.0</ele><time>2026-05-02T07:49:37.729Z</time></trkpt><trkpt lat="43.9931033" lon="11.2402267"><ele>263.0</ele><time>2026-05-02T07:49:38.728Z</time></trkpt><trkpt lat="43.9931183" lon="11.2403517"><ele>263.0</ele><time>2026-05-02T07:49:39.729Z</time></trkpt><trkpt lat="43.9931433" lon="11.2404583"><ele>263.0</ele><time>2026-05-02T07:49:40.729Z</time></trkpt><trkpt lat="43.9931817" lon="11.2405367"><ele>263.0</ele><time>2026-05-02T07:49:41.729Z</time></trkpt><trkpt lat="43.9932467" lon="11.2405783"><ele>263.0</ele><time>2026-05-02T07:49:42.729Z</time></trkpt><trkpt lat="43.9933383" lon="11.2405783"><ele>263.0</ele><time>2026-05-02T07:49:43.728Z</time></trkpt><trkpt lat="43.993445" lon="11.240555"><ele>263.0</ele><time>2026-05-02T07:49:44.728Z</time></trkpt><trkpt lat="43.9935867" lon="11.2404933"><ele>263.0</ele><time>2026-05-02T07:49:45.729Z</time></trkpt><trkpt lat="43.993715" lon="11.2404433"><ele>263.0</ele><time>2026-05-02T07:49:46.728Z</time></trkpt><trkpt lat="43.9938383" lon="11.2404"><ele>263.0</ele><time>2026-05-02T07:49:47.729Z</time></trkpt><trkpt lat="43.9939517" lon="11.240375"><ele>263.0</ele><time>2026-05-02T07:49:48.727Z</time></trkpt><trkpt lat="43.994055" lon="11.2403583"><ele>263.0</ele><time>2026-05-02T07:49:49.729Z</time></trkpt><trkpt lat="43.994155" lon="11.2403467"><ele>263.0</ele><time>2026-05-02T07:49:50.728Z</time></trkpt><trkpt lat="43.9942567" lon="11.240335"><ele>263.4</ele><time>2026-05-02T07:49:51.728Z</time></trkpt><trkpt lat="43.9943583" lon="11.24032"><ele>263.8</ele><time>2026-05-02T07:49:52.726Z</time></trkpt><trkpt lat="43.99446" lon="11.240305"><ele>264.2</ele><time>2026-05-02T07:49:53.729Z</time></trkpt><trkpt lat="43.994565" lon="11.2402933"><ele>264.6</ele><time>2026-05-02T07:49:54.728Z</time></trkpt><trkpt lat="43.9946717" lon="11.2402833"><ele>265.0</ele><time>2026-05-02T07:49:55.727Z</time></trkpt><trkpt lat="43.9947767" lon="11.2402683"><ele>265.0</ele><time>2026-05-02T07:49:56.728Z</time></trkpt><trkpt lat="43.9948833" lon="11.2402483"><ele>265.0</ele><time>2026-05-02T07:49:57.729Z</time></trkpt><trkpt lat="43.9949883" lon="11.2402317"><ele>265.0</ele><time>2026-05-02T07:49:58.728Z</time></trkpt><trkpt lat="43.9950983" lon="11.24022"><ele>265.0</ele><time>2026-05-02T07:49:59.728Z</time></trkpt><trkpt lat="43.9951967" lon="11.24022"><ele>265.0</ele><time>2026-05-02T07:50:00.726Z</time></trkpt><trkpt lat="43.9952917" lon="11.2402167"><ele>265.0</ele><time>2026-05-02T07:50:01.728Z</time></trkpt><trkpt lat="43.995375" lon="11.2402117"><ele>265.0</ele><time>2026-05-02T07:50:02.728Z</time></trkpt><trkpt lat="43.9954517" lon="11.2401983"><ele>265.0</ele><time>2026-05-02T07:50:03.728Z</time></trkpt><trkpt lat="43.9955267" lon="11.2401817"><ele>265.0</ele><time>2026-05-02T07:50:04.727Z</time></trkpt><trkpt lat="43.9956017" lon="11.24017"><ele>265.0</ele><time>2026-05-02T07:50:05.728Z</time></trkpt><trkpt lat="43.995675" lon="11.24016"><ele>265.0</ele><time>2026-05-02T07:50:06.726Z</time></trkpt><trkpt lat="43.9957833" lon="11.2401433"><ele>264.8</ele><time>2026-05-02T07:50:08.729Z</time></trkpt><trkpt lat="43.9958583" lon="11.2401433"><ele>264.6</ele><time>2026-05-02T07:50:10.726Z</time></trkpt><trkpt lat="43.99598" lon="11.2401517"><ele>264.4</ele><time>2026-05-02T07:50:12.727Z</time></trkpt><trkpt lat="43.99605" lon="11.2401933"><ele>264.2</ele><time>2026-05-02T07:50:13.729Z</time></trkpt><trkpt lat="43.996115" lon="11.2402667"><ele>264.0</ele><time>2026-05-02T07:50:14.728Z</time></trkpt><trkpt lat="43.9961617" lon="11.24039"><ele>264.0</ele><time>2026-05-02T07:50:15.729Z</time></trkpt><trkpt lat="43.99619" lon="11.2405483"><ele>264.0</ele><time>2026-05-02T07:50:16.728Z</time></trkpt><trkpt lat="43.996225" lon="11.2407167"><ele>264.0</ele><time>2026-05-02T07:50:17.728Z</time></trkpt><trkpt lat="43.9962667" lon="11.2408883"><ele>264.0</ele><time>2026-05-02T07:50:18.727Z</time></trkpt><trkpt lat="43.9963133" lon="11.24106"><ele>263.25</ele><time>2026-05-02T07:50:19.729Z</time></trkpt><trkpt lat="43.99636" lon="11.2412367"><ele>262.5</ele><time>2026-05-02T07:50:20.729Z</time></trkpt><trkpt lat="43.9964117" lon="11.2414067"><ele>261.75</ele><time>2026-05-02T07:50:21.729Z</time></trkpt><trkpt lat="43.9964683" lon="11.2415567"><ele>261.0</ele><time>2026-05-02T07:50:22.729Z</time></trkpt><trkpt lat="43.9965467" lon="11.2416867"><ele>260.75</ele><time>2026-05-02T07:50:23.729Z</time></trkpt><trkpt lat="43.9966433" lon="11.2417967"><ele>260.5</ele><time>2026-05-02T07:50:24.729Z</time></trkpt><trkpt lat="43.996755" lon="11.2418867"><ele>260.25</ele><time>2026-05-02T07:50:25.728Z</time></trkpt><trkpt lat="43.996875" lon="11.2419533"><ele>260.0</ele><time>2026-05-02T07:50:26.729Z</time></trkpt><trkpt lat="43.9970033" lon="11.24201"><ele>261.0</ele><time>2026-05-02T07:50:27.728Z</time></trkpt><trkpt lat="43.9971317" lon="11.24206"><ele>262.0</ele><time>2026-05-02T07:50:28.728Z</time></trkpt><trkpt lat="43.9972583" lon="11.2421133"><ele>263.0</ele><time>2026-05-02T07:50:29.729Z</time></trkpt><trkpt lat="43.9973817" lon="11.2421667"><ele>264.0</ele><time>2026-05-02T07:50:30.728Z</time></trkpt><trkpt lat="43.997505" lon="11.2422233"><ele>264.0</ele><time>2026-05-02T07:50:31.729Z</time></trkpt><trkpt lat="43.99763" lon="11.242275"><ele>264.0</ele><time>2026-05-02T07:50:32.728Z</time></trkpt><trkpt lat="43.997755" lon="11.2423217"><ele>264.0</ele><time>2026-05-02T07:50:33.729Z</time></trkpt><trkpt lat="43.9978817" lon="11.242375"><ele>264.0</ele><time>2026-05-02T07:50:34.728Z</time></trkpt><trkpt lat="43.9980067" lon="11.2424267"><ele>264.0</ele><time>2026-05-02T07:50:35.729Z</time></trkpt><trkpt lat="43.9981333" lon="11.2424783"><ele>264.0</ele><time>2026-05-02T07:50:36.726Z</time></trkpt><trkpt lat="43.998255" lon="11.2425317"><ele>264.0</ele><time>2026-05-02T07:50:37.728Z</time></trkpt><trkpt lat="43.9983767" lon="11.242595"><ele>264.0</ele><time>2026-05-02T07:50:38.729Z</time></trkpt><trkpt lat="43.998505" lon="11.24265"><ele>265.0</ele><time>2026-05-02T07:50:39.727Z</time></trkpt><trkpt lat="43.99863" lon="11.242715"><ele>266.0</ele><time>2026-05-02T07:50:40.729Z</time></trkpt><trkpt lat="43.9987567" lon="11.2427783"><ele>267.0</ele><time>2026-05-02T07:50:41.728Z</time></trkpt><trkpt lat="43.9988817" lon="11.242835"><ele>268.0</ele><time>2026-05-02T07:50:42.728Z</time></trkpt><trkpt lat="43.99901" lon="11.242895"><ele>268.0</ele><time>2026-05-02T07:50:43.728Z</time></trkpt><trkpt lat="43.9991367" lon="11.2429417"><ele>268.0</ele><time>2026-05-02T07:50:44.73Z</time></trkpt><trkpt lat="43.9992583" lon="11.242985"><ele>268.0</ele><time>2026-05-02T07:50:45.729Z</time></trkpt><trkpt lat="43.9993667" lon="11.2430383"><ele>268.0</ele><time>2026-05-02T07:50:46.729Z</time></trkpt><trkpt lat="43.9994633" lon="11.243085"><ele>268.16666666666663</ele><time>2026-05-02T07:50:47.729Z</time></trkpt><trkpt lat="43.9995483" lon="11.243135"><ele>268.3333333333333</ele><time>2026-05-02T07:50:48.729Z</time></trkpt><trkpt lat="43.9996217" lon="11.243195"><ele>268.5</ele><time>2026-05-02T07:50:49.727Z</time></trkpt><trkpt lat="43.9996833" lon="11.2432683"><ele>268.6666666666667</ele><time>2026-05-02T07:50:50.728Z</time></trkpt><trkpt lat="43.9997433" lon="11.24334"><ele>268.83333333333337</ele><time>2026-05-02T07:50:51.727Z</time></trkpt><trkpt lat="43.99981" lon="11.2433933"><ele>269.0</ele><time>2026-05-02T07:50:52.729Z</time></trkpt><trkpt lat="43.99989" lon="11.2433883"><ele>269.0</ele><time>2026-05-02T07:50:53.728Z</time></trkpt><trkpt lat="43.9999867" lon="11.24337"><ele>269.0</ele><time>2026-05-02T07:50:54.727Z</time></trkpt><trkpt lat="44.0000967" lon="11.24339"><ele>269.0</ele><time>2026-05-02T07:50:55.729Z</time></trkpt><trkpt lat="44.0002183" lon="11.2434383"><ele>269.0</ele><time>2026-05-02T07:50:56.727Z</time></trkpt><trkpt lat="44.0003617" lon="11.2435067"><ele>269.0</ele><time>2026-05-02T07:50:57.728Z</time></trkpt><trkpt lat="44.000525" lon="11.2435717"><ele>269.0</ele><time>2026-05-02T07:50:58.729Z</time></trkpt><trkpt lat="44.000695" lon="11.2436017"><ele>269.0</ele><time>2026-05-02T07:50:59.728Z</time></trkpt><trkpt lat="44.0008683" lon="11.24361"><ele>270.0</ele><time>2026-05-02T07:51:00.729Z</time></trkpt><trkpt lat="44.0010383" lon="11.2435833"><ele>271.0</ele><time>2026-05-02T07:51:01.728Z</time></trkpt><trkpt lat="44.0012017" lon="11.2435267"><ele>272.0</ele><time>2026-05-02T07:51:02.729Z</time></trkpt><trkpt lat="44.00136" lon="11.2434533"><ele>272.0</ele><time>2026-05-02T07:51:03.726Z</time></trkpt><trkpt lat="44.0015133" lon="11.243365"><ele>272.0</ele><time>2026-05-02T07:51:04.728Z</time></trkpt><trkpt lat="44.0016567" lon="11.2432833"><ele>272.0</ele><time>2026-05-02T07:51:05.728Z</time></trkpt><trkpt lat="44.00178" lon="11.2432133"><ele>271.4</ele><time>2026-05-02T07:51:06.729Z</time></trkpt><trkpt lat="44.0018783" lon="11.2431517"><ele>270.79999999999995</ele><time>2026-05-02T07:51:07.728Z</time></trkpt><trkpt lat="44.0019667" lon="11.2430983"><ele>270.2</ele><time>2026-05-02T07:51:08.728Z</time></trkpt><trkpt lat="44.002055" lon="11.2430483"><ele>269.59999999999997</ele><time>2026-05-02T07:51:09.728Z</time></trkpt><trkpt lat="44.002155" lon="11.24298"><ele>269.0</ele><time>2026-05-02T07:51:10.729Z</time></trkpt><trkpt lat="44.0022767" lon="11.2428983"><ele>269.0</ele><time>2026-05-02T07:51:11.727Z</time></trkpt><trkpt lat="44.00242" lon="11.2427983"><ele>269.0</ele><time>2026-05-02T07:51:12.728Z</time></trkpt><trkpt lat="44.00258" lon="11.2426933"><ele>269.0</ele><time>2026-05-02T07:51:13.728Z</time></trkpt><trkpt lat="44.0027483" lon="11.242575"><ele>270.0</ele><time>2026-05-02T07:51:14.729Z</time></trkpt><trkpt lat="44.00292" lon="11.2424583"><ele>271.0</ele><time>2026-05-02T07:51:15.729Z</time></trkpt><trkpt lat="44.0030967" lon="11.242325"><ele>272.0</ele><time>2026-05-02T07:51:16.728Z</time></trkpt><trkpt lat="44.00327" lon="11.242175"><ele>273.0</ele><time>2026-05-02T07:51:17.726Z</time></trkpt><trkpt lat="44.0034317" lon="11.2420083"><ele>274.0</ele><time>2026-05-02T07:51:18.729Z</time></trkpt><trkpt lat="44.0035767" lon="11.2418167"><ele>275.0</ele><time>2026-05-02T07:51:19.729Z</time></trkpt><trkpt lat="44.0037133" lon="11.2416167"><ele>274.6666666666667</ele><time>2026-05-02T07:51:20.729Z</time></trkpt><trkpt lat="44.0038383" lon="11.24141"><ele>274.3333333333333</ele><time>2026-05-02T07:51:21.729Z</time></trkpt><trkpt lat="44.0039633" lon="11.2412017"><ele>274.0</ele><time>2026-05-02T07:51:22.728Z</time></trkpt><trkpt lat="44.0040883" lon="11.2409983"><ele>274.3333333333333</ele><time>2026-05-02T07:51:23.729Z</time></trkpt><trkpt lat="44.004215" lon="11.2408"><ele>274.6666666666667</ele><time>2026-05-02T07:51:24.728Z</time></trkpt><trkpt lat="44.0043517" lon="11.2406183"><ele>275.0</ele><time>2026-05-02T07:51:25.727Z</time></trkpt><trkpt lat="44.0045" lon="11.2404567"><ele>275.0</ele><time>2026-05-02T07:51:26.728Z</time></trkpt><trkpt lat="44.00466" lon="11.2403167"><ele>275.0</ele><time>2026-05-02T07:51:27.727Z</time></trkpt><trkpt lat="44.00483" lon="11.2401983"><ele>275.0</ele><time>2026-05-02T07:51:28.729Z</time></trkpt><trkpt lat="44.0050133" lon="11.2401167"><ele>276.0</ele><time>2026-05-02T07:51:29.729Z</time></trkpt><trkpt lat="44.0052033" lon="11.240065"><ele>277.0</ele><time>2026-05-02T07:51:30.727Z</time></trkpt><trkpt lat="44.0053967" lon="11.2400517"><ele>278.0</ele><time>2026-05-02T07:51:31.728Z</time></trkpt><trkpt lat="44.0055867" lon="11.2400667"><ele>278.0</ele><time>2026-05-02T07:51:32.729Z</time></trkpt><trkpt lat="44.0057717" lon="11.24011"><ele>278.0</ele><time>2026-05-02T07:51:33.729Z</time></trkpt><trkpt lat="44.0059517" lon="11.240155"><ele>278.0</ele><time>2026-05-02T07:51:34.728Z</time></trkpt><trkpt lat="44.0061283" lon="11.2401933"><ele>277.6666666666667</ele><time>2026-05-02T07:51:35.728Z</time></trkpt><trkpt lat="44.006305" lon="11.2402233"><ele>277.3333333333333</ele><time>2026-05-02T07:51:36.729Z</time></trkpt><trkpt lat="44.0064883" lon="11.2402483"><ele>277.0</ele><time>2026-05-02T07:51:37.729Z</time></trkpt><trkpt lat="44.00668" lon="11.240285"><ele>277.0</ele><time>2026-05-02T07:51:38.729Z</time></trkpt><trkpt lat="44.006885" lon="11.240325"><ele>277.0</ele><time>2026-05-02T07:51:39.728Z</time></trkpt><trkpt lat="44.0070967" lon="11.2403767"><ele>277.0</ele><time>2026-05-02T07:51:40.727Z</time></trkpt><trkpt lat="44.0073067" lon="11.240435"><ele>277.66666666666663</ele><time>2026-05-02T07:51:41.728Z</time></trkpt><trkpt lat="44.0075167" lon="11.2404783"><ele>278.3333333333333</ele><time>2026-05-02T07:51:42.728Z</time></trkpt><trkpt lat="44.0077217" lon="11.2405017"><ele>279.0</ele><time>2026-05-02T07:51:43.729Z</time></trkpt><trkpt lat="44.0079317" lon="11.240495"><ele>279.0</ele><time>2026-05-02T07:51:44.728Z</time></trkpt><trkpt lat="44.0081517" lon="11.2404667"><ele>279.0</ele><time>2026-05-02T07:51:45.73Z</time></trkpt><trkpt lat="44.00838" lon="11.2404133"><ele>279.0</ele><time>2026-05-02T07:51:46.728Z</time></trkpt><trkpt lat="44.00861" lon="11.24034"><ele>279.0</ele><time>2026-05-02T07:51:47.728Z</time></trkpt><trkpt lat="44.0088383" lon="11.24024"><ele>279.0</ele><time>2026-05-02T07:51:48.729Z</time></trkpt><trkpt lat="44.0090633" lon="11.240115"><ele>279.0</ele><time>2026-05-02T07:51:49.729Z</time></trkpt><trkpt lat="44.0092817" lon="11.2399617"><ele>279.5</ele><time>2026-05-02T07:51:50.73Z</time></trkpt><trkpt lat="44.0094867" lon="11.23978"><ele>280.0</ele><time>2026-05-02T07:51:51.727Z</time></trkpt><trkpt lat="44.0096833" lon="11.239585"><ele>280.0</ele><time>2026-05-02T07:51:52.728Z</time></trkpt><trkpt lat="44.0098717" lon="11.2393783"><ele>280.0</ele><time>2026-05-02T07:51:53.728Z</time></trkpt><trkpt lat="44.0100567" lon="11.23917"><ele>280.0</ele><time>2026-05-02T07:51:54.729Z</time></trkpt><trkpt lat="44.01023" lon="11.2389633"><ele>280.0</ele><time>2026-05-02T07:51:55.729Z</time></trkpt><trkpt lat="44.0103967" lon="11.2387683"><ele>280.0</ele><time>2026-05-02T07:51:56.729Z</time></trkpt><trkpt lat="44.010555" lon="11.2385883"><ele>280.0</ele><time>2026-05-02T07:51:57.73Z</time></trkpt><trkpt lat="44.0107033" lon="11.23843"><ele>280.0</ele><time>2026-05-02T07:51:58.728Z</time></trkpt><trkpt lat="44.0108417" lon="11.2382883"><ele>280.0</ele><time>2026-05-02T07:51:59.729Z</time></trkpt><trkpt lat="44.0109667" lon="11.2381633"><ele>280.6</ele><time>2026-05-02T07:52:00.728Z</time></trkpt><trkpt lat="44.0110733" lon="11.2380583"><ele>281.2</ele><time>2026-05-02T07:52:01.729Z</time></trkpt><trkpt lat="44.0111633" lon="11.2379717"><ele>281.8</ele><time>2026-05-02T07:52:02.729Z</time></trkpt><trkpt lat="44.011235" lon="11.2379"><ele>282.4</ele><time>2026-05-02T07:52:03.728Z</time></trkpt><trkpt lat="44.0112917" lon="11.2378417"><ele>283.0</ele><time>2026-05-02T07:52:04.729Z</time></trkpt><trkpt lat="44.0113883" lon="11.2377567"><ele>283.0</ele><time>2026-05-02T07:52:06.729Z</time></trkpt><trkpt lat="44.0114467" lon="11.2377167"><ele>283.0</ele><time>2026-05-02T07:52:07.728Z</time></trkpt><trkpt lat="44.0115133" lon="11.2376767"><ele>283.0</ele><time>2026-05-02T07:52:08.729Z</time></trkpt><trkpt lat="44.0115817" lon="11.2376233"><ele>283.0</ele><time>2026-05-02T07:52:09.728Z</time></trkpt><trkpt lat="44.011655" lon="11.2375633"><ele>283.0</ele><time>2026-05-02T07:52:10.729Z</time></trkpt><trkpt lat="44.01173" lon="11.2374967"><ele>283.0</ele><time>2026-05-02T07:52:11.728Z</time></trkpt><trkpt lat="44.01181" lon="11.2374283"><ele>283.2</ele><time>2026-05-02T07:52:12.729Z</time></trkpt><trkpt lat="44.0118967" lon="11.2373583"><ele>283.4</ele><time>2026-05-02T07:52:13.729Z</time></trkpt><trkpt lat="44.0119867" lon="11.2372883"><ele>283.59999999999997</ele><time>2026-05-02T07:52:14.728Z</time></trkpt><trkpt lat="44.012085" lon="11.237215"><ele>283.8</ele><time>2026-05-02T07:52:15.729Z</time></trkpt><trkpt lat="44.0122017" lon="11.237135"><ele>284.0</ele><time>2026-05-02T07:52:16.728Z</time></trkpt><trkpt lat="44.0123433" lon="11.2370417"><ele>284.6666666666667</ele><time>2026-05-02T07:52:17.726Z</time></trkpt><trkpt lat="44.01251" lon="11.2369517"><ele>285.3333333333333</ele><time>2026-05-02T07:52:18.728Z</time></trkpt><trkpt lat="44.012685" lon="11.236875"><ele>286.0</ele><time>2026-05-02T07:52:19.728Z</time></trkpt><trkpt lat="44.0128483" lon="11.2367983"><ele>286.0</ele><time>2026-05-02T07:52:20.73Z</time></trkpt><trkpt lat="44.0129967" lon="11.2367217"><ele>286.0</ele><time>2026-05-02T07:52:21.726Z</time></trkpt><trkpt lat="44.0131467" lon="11.2366433"><ele>286.0</ele><time>2026-05-02T07:52:22.728Z</time></trkpt><trkpt lat="44.013305" lon="11.236555"><ele>286.0</ele><time>2026-05-02T07:52:23.729Z</time></trkpt><trkpt lat="44.0134717" lon="11.2364517"><ele>286.0</ele><time>2026-05-02T07:52:24.728Z</time></trkpt><trkpt lat="44.0136283" lon="11.2363383"><ele>286.0</ele><time>2026-05-02T07:52:25.728Z</time></trkpt><trkpt lat="44.0137833" lon="11.23624"><ele>286.0</ele><time>2026-05-02T07:52:26.728Z</time></trkpt><trkpt lat="44.0139517" lon="11.236175"><ele>286.0</ele><time>2026-05-02T07:52:27.729Z</time></trkpt><trkpt lat="44.0141417" lon="11.2361333"><ele>286.0</ele><time>2026-05-02T07:52:28.727Z</time></trkpt><trkpt lat="44.0143417" lon="11.2360983"><ele>287.0</ele><time>2026-05-02T07:52:29.727Z</time></trkpt><trkpt lat="44.0145483" lon="11.2360667"><ele>288.0</ele><time>2026-05-02T07:52:30.727Z</time></trkpt><trkpt lat="44.014755" lon="11.2360317"><ele>289.0</ele><time>2026-05-02T07:52:31.727Z</time></trkpt><trkpt lat="44.01497" lon="11.2360067"><ele>291.3333333333333</ele><time>2026-05-02T07:52:32.729Z</time></trkpt><trkpt lat="44.0151817" lon="11.236"><ele>293.6666666666667</ele><time>2026-05-02T07:52:33.727Z</time></trkpt><trkpt lat="44.0153917" lon="11.2360067"><ele>296.0</ele><time>2026-05-02T07:52:34.729Z</time></trkpt><trkpt lat="44.0155917" lon="11.236035"><ele>296.0</ele><time>2026-05-02T07:52:35.728Z</time></trkpt><trkpt lat="44.01577" lon="11.2360833"><ele>296.0</ele><time>2026-05-02T07:52:36.728Z</time></trkpt><trkpt lat="44.0159217" lon="11.2361583"><ele>296.0</ele><time>2026-05-02T07:52:37.727Z</time></trkpt><trkpt lat="44.016045" lon="11.2362417"><ele>296.0</ele><time>2026-05-02T07:52:38.73Z</time></trkpt><trkpt lat="44.0161433" lon="11.236365"><ele>296.0</ele><time>2026-05-02T07:52:39.728Z</time></trkpt><trkpt lat="44.016235" lon="11.23652"><ele>296.0</ele><time>2026-05-02T07:52:40.728Z</time></trkpt><trkpt lat="44.016345" lon="11.236685"><ele>296.0</ele><time>2026-05-02T07:52:41.728Z</time></trkpt><trkpt lat="44.0164933" lon="11.236825"><ele>297.6666666666667</ele><time>2026-05-02T07:52:42.727Z</time></trkpt><trkpt lat="44.01669" lon="11.2369233"><ele>299.3333333333333</ele><time>2026-05-02T07:52:43.729Z</time></trkpt><trkpt lat="44.01692" lon="11.23701"><ele>301.0</ele><time>2026-05-02T07:52:44.728Z</time></trkpt><trkpt lat="44.01717" lon="11.23711"><ele>301.0</ele><time>2026-05-02T07:52:45.728Z</time></trkpt><trkpt lat="44.0174083" lon="11.23723"><ele>301.0</ele><time>2026-05-02T07:52:46.728Z</time></trkpt><trkpt lat="44.0176233" lon="11.2373433"><ele>307.0</ele><time>2026-05-02T07:52:47.729Z</time></trkpt><trkpt lat="44.017805" lon="11.237435"><ele>313.0</ele><time>2026-05-02T07:52:48.729Z</time></trkpt><trkpt lat="44.01795" lon="11.2375217"><ele>319.0</ele><time>2026-05-02T07:52:49.729Z</time></trkpt><trkpt lat="44.018055" lon="11.237605"><ele>319.0</ele><time>2026-05-02T07:52:50.727Z</time></trkpt><trkpt lat="44.0181167" lon="11.2377217"><ele>319.0</ele><time>2026-05-02T07:52:51.729Z</time></trkpt><trkpt lat="44.0181467" lon="11.2378733"><ele>319.0</ele><time>2026-05-02T07:52:52.729Z</time></trkpt><trkpt lat="44.0181333" lon="11.2380733"><ele>319.0</ele><time>2026-05-02T07:52:53.727Z</time></trkpt><trkpt lat="44.0181067" lon="11.238285"><ele>322.5</ele><time>2026-05-02T07:52:54.729Z</time></trkpt><trkpt lat="44.018095" lon="11.23849"><ele>326.0</ele><time>2026-05-02T07:52:55.729Z</time></trkpt><trkpt lat="44.018115" lon="11.2386783"><ele>329.5</ele><time>2026-05-02T07:52:56.729Z</time></trkpt><trkpt lat="44.0181917" lon="11.2388383"><ele>333.0</ele><time>2026-05-02T07:52:57.73Z</time></trkpt><trkpt lat="44.0183117" lon="11.2389767"><ele>330.0</ele><time>2026-05-02T07:52:58.729Z</time></trkpt><trkpt lat="44.0184733" lon="11.2390833"><ele>327.0</ele><time>2026-05-02T07:52:59.727Z</time></trkpt><trkpt lat="44.0186333" lon="11.23918"><ele>324.0</ele><time>2026-05-02T07:53:00.73Z</time></trkpt><trkpt lat="44.0187733" lon="11.23925"><ele>324.0</ele><time>2026-05-02T07:53:01.727Z</time></trkpt><trkpt lat="44.0188967" lon="11.23928"><ele>324.0</ele><time>2026-05-02T07:53:02.727Z</time></trkpt><trkpt lat="44.0190067" lon="11.2392467"><ele>324.0</ele><time>2026-05-02T07:53:03.727Z</time></trkpt><trkpt lat="44.0191167" lon="11.2391467"><ele>324.0</ele><time>2026-05-02T07:53:04.727Z</time></trkpt><trkpt lat="44.01922" lon="11.23898"><ele>321.3333333333333</ele><time>2026-05-02T07:53:05.729Z</time></trkpt><trkpt lat="44.0193183" lon="11.238785"><ele>318.66666666666663</ele><time>2026-05-02T07:53:06.729Z</time></trkpt><trkpt lat="44.019415" lon="11.23861"><ele>316.0</ele><time>2026-05-02T07:53:07.729Z</time></trkpt><trkpt lat="44.0195267" lon="11.2384883"><ele>316.0</ele><time>2026-05-02T07:53:08.728Z</time></trkpt><trkpt lat="44.0196517" lon="11.2384183"><ele>316.0</ele><time>2026-05-02T07:53:09.728Z</time></trkpt><trkpt lat="44.019805" lon="11.2384"><ele>316.0</ele><time>2026-05-02T07:53:10.728Z</time></trkpt><trkpt lat="44.0199717" lon="11.2383967"><ele>314.3333333333333</ele><time>2026-05-02T07:53:11.727Z</time></trkpt><trkpt lat="44.0201333" lon="11.2383367"><ele>312.6666666666667</ele><time>2026-05-02T07:53:12.728Z</time></trkpt><trkpt lat="44.0203033" lon="11.238205"><ele>311.0</ele><time>2026-05-02T07:53:13.728Z</time></trkpt><trkpt lat="44.0204683" lon="11.2380567"><ele>311.0</ele><time>2026-05-02T07:53:14.729Z</time></trkpt><trkpt lat="44.020625" lon="11.237955"><ele>311.0</ele><time>2026-05-02T07:53:15.728Z</time></trkpt><trkpt lat="44.0207567" lon="11.2379183"><ele>311.0</ele><time>2026-05-02T07:53:16.729Z</time></trkpt><trkpt lat="44.0208683" lon="11.23795"><ele>311.0</ele><time>2026-05-02T07:53:17.728Z</time></trkpt><trkpt lat="44.0209683" lon="11.2380183"><ele>318.0</ele><time>2026-05-02T07:53:18.728Z</time></trkpt><trkpt lat="44.0210533" lon="11.238195"><ele>325.0</ele><time>2026-05-02T07:53:19.729Z</time></trkpt><trkpt lat="44.021145" lon="11.2383517"><ele>332.0</ele><time>2026-05-02T07:53:20.729Z</time></trkpt><trkpt lat="44.0212567" lon="11.2384633"><ele>339.0</ele><time>2026-05-02T07:53:21.728Z</time></trkpt><trkpt lat="44.0213783" lon="11.2385133"><ele>339.0</ele><time>2026-05-02T07:53:22.729Z</time></trkpt><trkpt lat="44.0215117" lon="11.2384917"><ele>339.0</ele><time>2026-05-02T07:53:23.727Z</time></trkpt><trkpt lat="44.0216333" lon="11.238485"><ele>339.0</ele><time>2026-05-02T07:53:24.729Z</time></trkpt><trkpt lat="44.0217567" lon="11.23853"><ele>339.0</ele><time>2026-05-02T07:53:25.727Z</time></trkpt><trkpt lat="44.0218817" lon="11.2386183"><ele>339.25</ele><time>2026-05-02T07:53:26.728Z</time></trkpt><trkpt lat="44.022015" lon="11.238675"><ele>339.5</ele><time>2026-05-02T07:53:27.728Z</time></trkpt><trkpt lat="44.0221433" lon="11.2386717"><ele>339.75</ele><time>2026-05-02T07:53:28.727Z</time></trkpt><trkpt lat="44.022275" lon="11.238575"><ele>340.0</ele><time>2026-05-02T07:53:29.729Z</time></trkpt><trkpt lat="44.0224067" lon="11.2384683"><ele>340.0</ele><time>2026-05-02T07:53:30.727Z</time></trkpt><trkpt lat="44.022545" lon="11.2384067"><ele>340.0</ele><time>2026-05-02T07:53:31.727Z</time></trkpt><trkpt lat="44.0226983" lon="11.2384317"><ele>340.0</ele><time>2026-05-02T07:53:32.729Z</time></trkpt><trkpt lat="44.0228733" lon="11.2385233"><ele>340.0</ele><time>2026-05-02T07:53:33.728Z</time></trkpt><trkpt lat="44.0230567" lon="11.23865"><ele>340.0</ele><time>2026-05-02T07:53:34.728Z</time></trkpt><trkpt lat="44.023215" lon="11.23876"><ele>340.0</ele><time>2026-05-02T07:53:35.729Z</time></trkpt><trkpt lat="44.0233417" lon="11.238895"><ele>343.25</ele><time>2026-05-02T07:53:36.727Z</time></trkpt><trkpt lat="44.02343" lon="11.239055"><ele>346.5</ele><time>2026-05-02T07:53:37.728Z</time></trkpt><trkpt lat="44.0235083" lon="11.2392083"><ele>349.75</ele><time>2026-05-02T07:53:38.728Z</time></trkpt><trkpt lat="44.0235933" lon="11.2393233"><ele>353.0</ele><time>2026-05-02T07:53:39.731Z</time></trkpt><trkpt lat="44.023705" lon="11.239375"><ele>353.0</ele><time>2026-05-02T07:53:40.728Z</time></trkpt><trkpt lat="44.02385" lon="11.239385"><ele>353.0</ele><time>2026-05-02T07:53:41.729Z</time></trkpt><trkpt lat="44.0239967" lon="11.239435"><ele>353.0</ele><time>2026-05-02T07:53:42.728Z</time></trkpt><trkpt lat="44.0241433" lon="11.23955"><ele>348.6666666666667</ele><time>2026-05-02T07:53:43.729Z</time></trkpt><trkpt lat="44.0242917" lon="11.23969"><ele>344.3333333333333</ele><time>2026-05-02T07:53:44.73Z</time></trkpt><trkpt lat="44.0244383" lon="11.23982"><ele>340.0</ele><time>2026-05-02T07:53:45.728Z</time></trkpt><trkpt lat="44.0245767" lon="11.2399133"><ele>342.5</ele><time>2026-05-02T07:53:46.726Z</time></trkpt><trkpt lat="44.0246967" lon="11.2399983"><ele>345.0</ele><time>2026-05-02T07:53:47.729Z</time></trkpt><trkpt lat="44.0248" lon="11.2400733"><ele>347.5</ele><time>2026-05-02T07:53:48.73Z</time></trkpt><trkpt lat="44.0248967" lon="11.2401617"><ele>350.0</ele><time>2026-05-02T07:53:49.732Z</time></trkpt><trkpt lat="44.0249917" lon="11.2402767"><ele>350.0</ele><time>2026-05-02T07:53:50.729Z</time></trkpt><trkpt lat="44.0250867" lon="11.24045"><ele>350.0</ele><time>2026-05-02T07:53:51.729Z</time></trkpt><trkpt lat="44.025165" lon="11.240655"><ele>350.0</ele><time>2026-05-02T07:53:52.727Z</time></trkpt><trkpt lat="44.0252167" lon="11.2408617"><ele>355.8</ele><time>2026-05-02T07:53:53.727Z</time></trkpt><trkpt lat="44.0252717" lon="11.2410283"><ele>361.6</ele><time>2026-05-02T07:53:54.73Z</time></trkpt><trkpt lat="44.02535" lon="11.24113"><ele>367.4</ele><time>2026-05-02T07:53:55.728Z</time></trkpt><trkpt lat="44.0254533" lon="11.2411533"><ele>373.2</ele><time>2026-05-02T07:53:56.728Z</time></trkpt><trkpt lat="44.0255517" lon="11.2411133"><ele>379.0</ele><time>2026-05-02T07:53:57.728Z</time></trkpt><trkpt lat="44.025635" lon="11.2409833"><ele>379.0</ele><time>2026-05-02T07:53:58.73Z</time></trkpt><trkpt lat="44.0257133" lon="11.240825"><ele>379.0</ele><time>2026-05-02T07:53:59.729Z</time></trkpt><trkpt lat="44.025815" lon="11.2407017"><ele>379.0</ele><time>2026-05-02T07:54:00.729Z</time></trkpt><trkpt lat="44.0259467" lon="11.2406683"><ele>379.0</ele><time>2026-05-02T07:54:01.729Z</time></trkpt><trkpt lat="44.0261083" lon="11.2406817"><ele>373.66666666666663</ele><time>2026-05-02T07:54:02.729Z</time></trkpt><trkpt lat="44.02632" lon="11.2407283"><ele>368.3333333333333</ele><time>2026-05-02T07:54:03.729Z</time></trkpt><trkpt lat="44.0265333" lon="11.2407733"><ele>363.0</ele><time>2026-05-02T07:54:04.729Z</time></trkpt><trkpt lat="44.0267217" lon="11.2408283"><ele>363.0</ele><time>2026-05-02T07:54:05.728Z</time></trkpt><trkpt lat="44.02689" lon="11.240915"><ele>363.0</ele><time>2026-05-02T07:54:06.727Z</time></trkpt><trkpt lat="44.0270367" lon="11.2410517"><ele>363.0</ele><time>2026-05-02T07:54:07.727Z</time></trkpt><trkpt lat="44.0271567" lon="11.2412217"><ele>363.0</ele><time>2026-05-02T07:54:08.729Z</time></trkpt><trkpt lat="44.0272583" lon="11.2414333"><ele>363.0</ele><time>2026-05-02T07:54:09.726Z</time></trkpt><trkpt lat="44.02736" lon="11.2416883"><ele>363.0</ele><time>2026-05-02T07:54:10.728Z</time></trkpt><trkpt lat="44.0274733" lon="11.2419617"><ele>365.0</ele><time>2026-05-02T07:54:11.728Z</time></trkpt><trkpt lat="44.0275983" lon="11.2422133"><ele>367.0</ele><time>2026-05-02T07:54:12.729Z</time></trkpt><trkpt lat="44.027705" lon="11.24245"><ele>369.0</ele><time>2026-05-02T07:54:13.729Z</time></trkpt><trkpt lat="44.0277733" lon="11.2426783"><ele>372.75</ele><time>2026-05-02T07:54:14.729Z</time></trkpt><trkpt lat="44.0278183" lon="11.2428833"><ele>376.5</ele><time>2026-05-02T07:54:15.727Z</time></trkpt><trkpt lat="44.027865" lon="11.2430533"><ele>380.25</ele><time>2026-05-02T07:54:16.727Z</time></trkpt><trkpt lat="44.0279367" lon="11.243165"><ele>384.0</ele><time>2026-05-02T07:54:17.729Z</time></trkpt><trkpt lat="44.0280483" lon="11.2432167"><ele>382.5</ele><time>2026-05-02T07:54:18.728Z</time></trkpt><trkpt lat="44.0281817" lon="11.2432417"><ele>381.0</ele><time>2026-05-02T07:54:19.73Z</time></trkpt><trkpt lat="44.0282983" lon="11.2433117"><ele>379.5</ele><time>2026-05-02T07:54:20.728Z</time></trkpt><trkpt lat="44.0283967" lon="11.2434417"><ele>378.0</ele><time>2026-05-02T07:54:21.728Z</time></trkpt><trkpt lat="44.0284683" lon="11.2436367"><ele>378.0</ele><time>2026-05-02T07:54:22.729Z</time></trkpt><trkpt lat="44.02852" lon="11.2438867"><ele>378.0</ele><time>2026-05-02T07:54:23.728Z</time></trkpt><trkpt lat="44.0285667" lon="11.2441633"><ele>378.0</ele><time>2026-05-02T07:54:24.728Z</time></trkpt><trkpt lat="44.0286083" lon="11.2444183"><ele>383.25</ele><time>2026-05-02T07:54:25.727Z</time></trkpt><trkpt lat="44.0286617" lon="11.2446383"><ele>388.5</ele><time>2026-05-02T07:54:26.727Z</time></trkpt><trkpt lat="44.028725" lon="11.24482"><ele>393.75</ele><time>2026-05-02T07:54:27.729Z</time></trkpt><trkpt lat="44.0288017" lon="11.24496"><ele>399.0</ele><time>2026-05-02T07:54:28.728Z</time></trkpt><trkpt lat="44.0288983" lon="11.2450333"><ele>399.75</ele><time>2026-05-02T07:54:29.729Z</time></trkpt><trkpt lat="44.0290167" lon="11.2450317"><ele>400.5</ele><time>2026-05-02T07:54:30.726Z</time></trkpt><trkpt lat="44.0291283" lon="11.2449617"><ele>401.25</ele><time>2026-05-02T07:54:31.728Z</time></trkpt><trkpt lat="44.0292267" lon="11.24483"><ele>402.0</ele><time>2026-05-02T07:54:32.729Z</time></trkpt><trkpt lat="44.0293033" lon="11.244665"><ele>396.5</ele><time>2026-05-02T07:54:33.727Z</time></trkpt><trkpt lat="44.0293783" lon="11.24449"><ele>391.0</ele><time>2026-05-02T07:54:34.728Z</time></trkpt><trkpt lat="44.0294633" lon="11.244345"><ele>385.5</ele><time>2026-05-02T07:54:35.729Z</time></trkpt><trkpt lat="44.0295417" lon="11.24423"><ele>380.0</ele><time>2026-05-02T07:54:36.728Z</time></trkpt><trkpt lat="44.029615" lon="11.2441217"><ele>380.0</ele><time>2026-05-02T07:54:37.729Z</time></trkpt><trkpt lat="44.0296933" lon="11.2440117"><ele>380.0</ele><time>2026-05-02T07:54:38.727Z</time></trkpt><trkpt lat="44.0297867" lon="11.2439283"><ele>380.0</ele><time>2026-05-02T07:54:39.729Z</time></trkpt><trkpt lat="44.0298933" lon="11.2438833"><ele>380.0</ele><time>2026-05-02T07:54:40.728Z</time></trkpt><trkpt lat="44.030015" lon="11.2439017"><ele>386.6666666666667</ele><time>2026-05-02T07:54:41.726Z</time></trkpt><trkpt lat="44.03014" lon="11.2439683"><ele>393.33333333333337</ele><time>2026-05-02T07:54:42.727Z</time></trkpt><trkpt lat="44.0302767" lon="11.244095"><ele>400.0</ele><time>2026-05-02T07:54:43.728Z</time></trkpt><trkpt lat="44.0304317" lon="11.2442533"><ele>400.0</ele><time>2026-05-02T07:54:44.728Z</time></trkpt><trkpt lat="44.0306167" lon="11.2444117"><ele>400.0</ele><time>2026-05-02T07:54:45.729Z</time></trkpt><trkpt lat="44.0308167" lon="11.2445383"><ele>400.0</ele><time>2026-05-02T07:54:46.729Z</time></trkpt><trkpt lat="44.0309867" lon="11.2446517"><ele>395.33333333333337</ele><time>2026-05-02T07:54:47.728Z</time></trkpt><trkpt lat="44.03113" lon="11.2447933"><ele>390.66666666666663</ele><time>2026-05-02T07:54:48.727Z</time></trkpt><trkpt lat="44.03124" lon="11.2449517"><ele>386.0</ele><time>2026-05-02T07:54:49.729Z</time></trkpt><trkpt lat="44.031315" lon="11.245095"><ele>390.25</ele><time>2026-05-02T07:54:50.726Z</time></trkpt><trkpt lat="44.0313933" lon="11.245185"><ele>394.5</ele><time>2026-05-02T07:54:51.73Z</time></trkpt><trkpt lat="44.03148" lon="11.245215"><ele>398.75</ele><time>2026-05-02T07:54:52.73Z</time></trkpt><trkpt lat="44.0315933" lon="11.2451783"><ele>403.0</ele><time>2026-05-02T07:54:53.727Z</time></trkpt><trkpt lat="44.0317217" lon="11.2450817"><ele>403.0</ele><time>2026-05-02T07:54:54.728Z</time></trkpt><trkpt lat="44.031845" lon="11.2449917"><ele>403.0</ele><time>2026-05-02T07:54:55.729Z</time></trkpt><trkpt lat="44.0319683" lon="11.244955"><ele>403.0</ele><time>2026-05-02T07:54:56.729Z</time></trkpt><trkpt lat="44.0320983" lon="11.2449817"><ele>403.0</ele><time>2026-05-02T07:54:57.728Z</time></trkpt><trkpt lat="44.0322367" lon="11.245085"><ele>403.0</ele><time>2026-05-02T07:54:58.727Z</time></trkpt><trkpt lat="44.032375" lon="11.2452433"><ele>403.0</ele><time>2026-05-02T07:54:59.728Z</time></trkpt><trkpt lat="44.032505" lon="11.2454483"><ele>403.0</ele><time>2026-05-02T07:55:00.729Z</time></trkpt><trkpt lat="44.0326217" lon="11.2456617"><ele>408.6666666666667</ele><time>2026-05-02T07:55:01.727Z</time></trkpt><trkpt lat="44.0327333" lon="11.2458383"><ele>414.33333333333337</ele><time>2026-05-02T07:55:02.729Z</time></trkpt><trkpt lat="44.0328517" lon="11.2459667"><ele>420.0</ele><time>2026-05-02T07:55:03.73Z</time></trkpt><trkpt lat="44.0329883" lon="11.2460183"><ele>420.0</ele><time>2026-05-02T07:55:04.729Z</time></trkpt><trkpt lat="44.0331083" lon="11.2460583"><ele>420.0</ele><time>2026-05-02T07:55:05.729Z</time></trkpt><trkpt lat="44.0332067" lon="11.24613"><ele>420.0</ele><time>2026-05-02T07:55:06.727Z</time></trkpt><trkpt lat="44.0332767" lon="11.246265"><ele>420.0</ele><time>2026-05-02T07:55:07.728Z</time></trkpt><trkpt lat="44.03333" lon="11.24643"><ele>418.25</ele><time>2026-05-02T07:55:08.728Z</time></trkpt><trkpt lat="44.0333717" lon="11.246595"><ele>416.5</ele><time>2026-05-02T07:55:09.728Z</time></trkpt><trkpt lat="44.033445" lon="11.24673"><ele>414.75</ele><time>2026-05-02T07:55:10.727Z</time></trkpt><trkpt lat="44.0335733" lon="11.24684"><ele>413.0</ele><time>2026-05-02T07:55:11.727Z</time></trkpt><trkpt lat="44.0337317" lon="11.246975"><ele>413.0</ele><time>2026-05-02T07:55:12.728Z</time></trkpt><trkpt lat="44.0338983" lon="11.2471183"><ele>413.0</ele><time>2026-05-02T07:55:13.729Z</time></trkpt><trkpt lat="44.03407" lon="11.2472267"><ele>413.0</ele><time>2026-05-02T07:55:14.727Z</time></trkpt><trkpt lat="44.0342283" lon="11.2472883"><ele>415.25</ele><time>2026-05-02T07:55:15.729Z</time></trkpt><trkpt lat="44.0343583" lon="11.2473617"><ele>417.5</ele><time>2026-05-02T07:55:16.729Z</time></trkpt><trkpt lat="44.03446" lon="11.2474717"><ele>419.75</ele><time>2026-05-02T07:55:17.729Z</time></trkpt><trkpt lat="44.034535" lon="11.24764"><ele>422.0</ele><time>2026-05-02T07:55:18.728Z</time></trkpt><trkpt lat="44.0345933" lon="11.24786"><ele>422.0</ele><time>2026-05-02T07:55:19.727Z</time></trkpt><trkpt lat="44.0346617" lon="11.24808"><ele>422.0</ele><time>2026-05-02T07:55:20.727Z</time></trkpt><trkpt lat="44.0347617" lon="11.2482567"><ele>422.0</ele><time>2026-05-02T07:55:21.729Z</time></trkpt><trkpt lat="44.0348883" lon="11.2483783"><ele>422.3333333333333</ele><time>2026-05-02T07:55:22.728Z</time></trkpt><trkpt lat="44.0350367" lon="11.2484267"><ele>422.66666666666663</ele><time>2026-05-02T07:55:23.729Z</time></trkpt><trkpt lat="44.0351967" lon="11.2484167"><ele>423.0</ele><time>2026-05-02T07:55:24.729Z</time></trkpt><trkpt lat="44.0353633" lon="11.2483667"><ele>423.0</ele><time>2026-05-02T07:55:25.729Z</time></trkpt><trkpt lat="44.0355267" lon="11.2483617"><ele>423.0</ele><time>2026-05-02T07:55:26.727Z</time></trkpt><trkpt lat="44.0357033" lon="11.2484"><ele>423.0</ele><time>2026-05-02T07:55:27.729Z</time></trkpt><trkpt lat="44.035875" lon="11.248465"><ele>421.33333333333337</ele><time>2026-05-02T07:55:28.728Z</time></trkpt><trkpt lat="44.03602" lon="11.248565"><ele>419.6666666666667</ele><time>2026-05-02T07:55:29.728Z</time></trkpt><trkpt lat="44.0361483" lon="11.24869"><ele>418.0</ele><time>2026-05-02T07:55:30.726Z</time></trkpt><trkpt lat="44.0362517" lon="11.2488583"><ele>422.75</ele><time>2026-05-02T07:55:31.728Z</time></trkpt><trkpt lat="44.0363233" lon="11.2490417"><ele>427.5</ele><time>2026-05-02T07:55:32.729Z</time></trkpt><trkpt lat="44.03635" lon="11.24922"><ele>432.25</ele><time>2026-05-02T07:55:33.728Z</time></trkpt><trkpt lat="44.0363417" lon="11.2494267"><ele>437.0</ele><time>2026-05-02T07:55:34.729Z</time></trkpt><trkpt lat="44.0363333" lon="11.2496617"><ele>441.66666666666663</ele><time>2026-05-02T07:55:35.729Z</time></trkpt><trkpt lat="44.0363367" lon="11.2499017"><ele>446.33333333333337</ele><time>2026-05-02T07:55:36.728Z</time></trkpt><trkpt lat="44.03636" lon="11.25013"><ele>451.0</ele><time>2026-05-02T07:55:37.728Z</time></trkpt><trkpt lat="44.0364133" lon="11.2503317"><ele>451.0</ele><time>2026-05-02T07:55:38.729Z</time></trkpt><trkpt lat="44.03649" lon="11.2504967"><ele>451.0</ele><time>2026-05-02T07:55:39.729Z</time></trkpt><trkpt lat="44.0366" lon="11.2506167"><ele>451.0</ele><time>2026-05-02T07:55:40.729Z</time></trkpt><trkpt lat="44.03675" lon="11.2506867"><ele>451.0</ele><time>2026-05-02T07:55:41.729Z</time></trkpt><trkpt lat="44.0369417" lon="11.2507083"><ele>451.0</ele><time>2026-05-02T07:55:42.729Z</time></trkpt><trkpt lat="44.037165" lon="11.2506717"><ele>451.0</ele><time>2026-05-02T07:55:43.729Z</time></trkpt><trkpt lat="44.0373717" lon="11.2505867"><ele>451.0</ele><time>2026-05-02T07:55:44.728Z</time></trkpt><trkpt lat="44.0375317" lon="11.25051"><ele>448.4</ele><time>2026-05-02T07:55:45.727Z</time></trkpt><trkpt lat="44.03766" lon="11.2504733"><ele>445.8</ele><time>2026-05-02T07:55:46.728Z</time></trkpt><trkpt lat="44.03776" lon="11.2505033"><ele>443.19999999999993</ele><time>2026-05-02T07:55:47.728Z</time></trkpt><trkpt lat="44.03782" lon="11.2505983"><ele>440.59999999999997</ele><time>2026-05-02T07:55:48.728Z</time></trkpt><trkpt lat="44.0378333" lon="11.250725"><ele>438.0</ele><time>2026-05-02T07:55:49.727Z</time></trkpt><trkpt lat="44.0377967" lon="11.2508883"><ele>438.0</ele><time>2026-05-02T07:55:50.729Z</time></trkpt><trkpt lat="44.0377283" lon="11.251095"><ele>438.0</ele><time>2026-05-02T07:55:51.728Z</time></trkpt><trkpt lat="44.0376533" lon="11.2513333"><ele>438.0</ele><time>2026-05-02T07:55:52.728Z</time></trkpt><trkpt lat="44.0375517" lon="11.2516167"><ele>447.0</ele><time>2026-05-02T07:55:53.728Z</time></trkpt><trkpt lat="44.0374567" lon="11.25188"><ele>456.0</ele><time>2026-05-02T07:55:54.728Z</time></trkpt><trkpt lat="44.03737" lon="11.2521167"><ele>465.0</ele><time>2026-05-02T07:55:55.728Z</time></trkpt><trkpt lat="44.0373167" lon="11.2523433"><ele>465.0</ele><time>2026-05-02T07:55:56.729Z</time></trkpt><trkpt lat="44.0372917" lon="11.252585"><ele>465.0</ele><time>2026-05-02T07:55:57.728Z</time></trkpt><trkpt lat="44.0373017" lon="11.25285"><ele>465.0</ele><time>2026-05-02T07:55:58.726Z</time></trkpt><trkpt lat="44.03734" lon="11.2531283"><ele>462.66666666666663</ele><time>2026-05-02T07:55:59.727Z</time></trkpt><trkpt lat="44.03737" lon="11.2533983"><ele>460.3333333333333</ele><time>2026-05-02T07:56:00.727Z</time></trkpt><trkpt lat="44.0373883" lon="11.253635"><ele>458.0</ele><time>2026-05-02T07:56:01.729Z</time></trkpt><trkpt lat="44.037405" lon="11.253835"><ele>457.75</ele><time>2026-05-02T07:56:02.729Z</time></trkpt><trkpt lat="44.0374533" lon="11.2540133"><ele>457.5</ele><time>2026-05-02T07:56:03.728Z</time></trkpt><trkpt lat="44.03753" lon="11.2541833"><ele>457.25</ele><time>2026-05-02T07:56:04.727Z</time></trkpt><trkpt lat="44.037595" lon="11.2543467"><ele>457.0</ele><time>2026-05-02T07:56:05.729Z</time></trkpt><trkpt lat="44.0376217" lon="11.25454"><ele>457.5</ele><time>2026-05-02T07:56:06.729Z</time></trkpt><trkpt lat="44.03761" lon="11.2547467"><ele>458.0</ele><time>2026-05-02T07:56:07.729Z</time></trkpt><trkpt lat="44.0376017" lon="11.25495"><ele>458.5</ele><time>2026-05-02T07:56:08.729Z</time></trkpt><trkpt lat="44.0376267" lon="11.2551517"><ele>459.0</ele><time>2026-05-02T07:56:09.73Z</time></trkpt><trkpt lat="44.0377" lon="11.2553533"><ele>459.0</ele><time>2026-05-02T07:56:10.729Z</time></trkpt><trkpt lat="44.0377983" lon="11.2555283"><ele>459.0</ele><time>2026-05-02T07:56:11.728Z</time></trkpt><trkpt lat="44.0379167" lon="11.2556733"><ele>459.0</ele><time>2026-05-02T07:56:12.728Z</time></trkpt><trkpt lat="44.038045" lon="11.25578"><ele>459.75</ele><time>2026-05-02T07:56:13.728Z</time></trkpt><trkpt lat="44.03818" lon="11.2558567"><ele>460.5</ele><time>2026-05-02T07:56:14.729Z</time></trkpt><trkpt lat="44.0383083" lon="11.2559033"><ele>461.25</ele><time>2026-05-02T07:56:15.727Z</time></trkpt><trkpt lat="44.0384333" lon="11.2559183"><ele>462.0</ele><time>2026-05-02T07:56:16.728Z</time></trkpt><trkpt lat="44.0385583" lon="11.2558833"><ele>462.0</ele><time>2026-05-02T07:56:17.729Z</time></trkpt><trkpt lat="44.0386817" lon="11.2558033"><ele>462.0</ele><time>2026-05-02T07:56:18.729Z</time></trkpt><trkpt lat="44.0388" lon="11.2556333"><ele>462.0</ele><time>2026-05-02T07:56:19.729Z</time></trkpt><trkpt lat="44.0389317" lon="11.255415"><ele>459.0</ele><time>2026-05-02T07:56:20.728Z</time></trkpt><trkpt lat="44.03907" lon="11.2552"><ele>456.0</ele><time>2026-05-02T07:56:21.728Z</time></trkpt><trkpt lat="44.0392" lon="11.2550217"><ele>453.0</ele><time>2026-05-02T07:56:22.729Z</time></trkpt><trkpt lat="44.0393183" lon="11.254885"><ele>453.0</ele><time>2026-05-02T07:56:23.728Z</time></trkpt><trkpt lat="44.0394367" lon="11.25481"><ele>453.0</ele><time>2026-05-02T07:56:24.728Z</time></trkpt><trkpt lat="44.0395683" lon="11.2548117"><ele>453.0</ele><time>2026-05-02T07:56:25.729Z</time></trkpt><trkpt lat="44.0397133" lon="11.2548933"><ele>453.0</ele><time>2026-05-02T07:56:26.729Z</time></trkpt><trkpt lat="44.0398583" lon="11.2550217"><ele>456.5</ele><time>2026-05-02T07:56:27.729Z</time></trkpt><trkpt lat="44.0399983" lon="11.2551167"><ele>460.0</ele><time>2026-05-02T07:56:28.728Z</time></trkpt><trkpt lat="44.0401317" lon="11.255155"><ele>463.5</ele><time>2026-05-02T07:56:29.729Z</time></trkpt><trkpt lat="44.0402633" lon="11.2550867"><ele>467.0</ele><time>2026-05-02T07:56:30.727Z</time></trkpt><trkpt lat="44.04041" lon="11.25494"><ele>467.0</ele><time>2026-05-02T07:56:31.728Z</time></trkpt><trkpt lat="44.04055" lon="11.254795"><ele>467.0</ele><time>2026-05-02T07:56:32.728Z</time></trkpt><trkpt lat="44.0406683" lon="11.2546783"><ele>467.0</ele><time>2026-05-02T07:56:33.728Z</time></trkpt><trkpt lat="44.04077" lon="11.2546183"><ele>467.0</ele><time>2026-05-02T07:56:34.729Z</time></trkpt><trkpt lat="44.0408617" lon="11.2546333"><ele>467.0</ele><time>2026-05-02T07:56:35.727Z</time></trkpt><trkpt lat="44.0409433" lon="11.2546967"><ele>467.0</ele><time>2026-05-02T07:56:36.728Z</time></trkpt><trkpt lat="44.0409633" lon="11.2548383"><ele>467.0</ele><time>2026-05-02T07:56:37.728Z</time></trkpt><trkpt lat="44.040925" lon="11.25499"><ele>467.0</ele><time>2026-05-02T07:56:38.728Z</time></trkpt><trkpt lat="44.040845" lon="11.2551533"><ele>467.0</ele><time>2026-05-02T07:56:39.728Z</time></trkpt><trkpt lat="44.0407267" lon="11.255355"><ele>467.0</ele><time>2026-05-02T07:56:40.726Z</time></trkpt><trkpt lat="44.0405933" lon="11.2555967"><ele>467.0</ele><time>2026-05-02T07:56:41.728Z</time></trkpt><trkpt lat="44.04047" lon="11.2558433"><ele>472.66666666666663</ele><time>2026-05-02T07:56:42.727Z</time></trkpt><trkpt lat="44.0403817" lon="11.2560667"><ele>478.33333333333337</ele><time>2026-05-02T07:56:43.729Z</time></trkpt><trkpt lat="44.0403383" lon="11.2562767"><ele>484.0</ele><time>2026-05-02T07:56:44.727Z</time></trkpt><trkpt lat="44.04034" lon="11.2564717"><ele>485.5</ele><time>2026-05-02T07:56:45.729Z</time></trkpt><trkpt lat="44.0404017" lon="11.25665"><ele>487.0</ele><time>2026-05-02T07:56:46.729Z</time></trkpt><trkpt lat="44.0404733" lon="11.256825"><ele>488.5</ele><time>2026-05-02T07:56:47.728Z</time></trkpt><trkpt lat="44.04051" lon="11.2570417"><ele>490.0</ele><time>2026-05-02T07:56:48.727Z</time></trkpt><trkpt lat="44.04051" lon="11.2572933"><ele>490.33333333333337</ele><time>2026-05-02T07:56:49.727Z</time></trkpt><trkpt lat="44.0405133" lon="11.2575383"><ele>490.66666666666663</ele><time>2026-05-02T07:56:50.729Z</time></trkpt><trkpt lat="44.04055" lon="11.2577583"><ele>491.0</ele><time>2026-05-02T07:56:51.727Z</time></trkpt><trkpt lat="44.04063" lon="11.2579583"><ele>490.3333333333333</ele><time>2026-05-02T07:56:52.728Z</time></trkpt><trkpt lat="44.0407583" lon="11.25814"><ele>489.66666666666663</ele><time>2026-05-02T07:56:53.727Z</time></trkpt><trkpt lat="44.0409183" lon="11.2583033"><ele>489.0</ele><time>2026-05-02T07:56:54.727Z</time></trkpt><trkpt lat="44.041095" lon="11.2584283"><ele>489.0</ele><time>2026-05-02T07:56:55.727Z</time></trkpt><trkpt lat="44.04128" lon="11.2585167"><ele>489.0</ele><time>2026-05-02T07:56:56.728Z</time></trkpt><trkpt lat="44.0414683" lon="11.2585933"><ele>489.0</ele><time>2026-05-02T07:56:57.728Z</time></trkpt><trkpt lat="44.0416533" lon="11.2586683"><ele>488.33333333333337</ele><time>2026-05-02T07:56:58.727Z</time></trkpt><trkpt lat="44.0418133" lon="11.2587367"><ele>487.6666666666667</ele><time>2026-05-02T07:56:59.728Z</time></trkpt><trkpt lat="44.04196" lon="11.2587967"><ele>487.0</ele><time>2026-05-02T07:57:00.727Z</time></trkpt><trkpt lat="44.04209" lon="11.2588567"><ele>487.0</ele><time>2026-05-02T07:57:01.728Z</time></trkpt><trkpt lat="44.0422017" lon="11.2589067"><ele>487.00000000000006</ele><time>2026-05-02T07:57:02.728Z</time></trkpt><trkpt lat="44.0422933" lon="11.25895"><ele>487.00000000000006</ele><time>2026-05-02T07:57:03.727Z</time></trkpt><trkpt lat="44.0423683" lon="11.2589917"><ele>487.0</ele><time>2026-05-02T07:57:04.729Z</time></trkpt><trkpt lat="44.0424617" lon="11.259055"><ele>487.0</ele><time>2026-05-02T07:57:06.728Z</time></trkpt><trkpt lat="44.04254" lon="11.2590833"><ele>488.5</ele><time>2026-05-02T07:57:09.728Z</time></trkpt><trkpt lat="44.0426933" lon="11.25906"><ele>490.0</ele><time>2026-05-02T07:57:11.727Z</time></trkpt><trkpt lat="44.0428217" lon="11.2590283"><ele>491.5</ele><time>2026-05-02T07:57:12.728Z</time></trkpt><trkpt lat="44.0429617" lon="11.2589983"><ele>493.0</ele><time>2026-05-02T07:57:13.728Z</time></trkpt><trkpt lat="44.0431183" lon="11.25897"><ele>493.0</ele><time>2026-05-02T07:57:14.727Z</time></trkpt><trkpt lat="44.043285" lon="11.2589533"><ele>493.0</ele><time>2026-05-02T07:57:15.728Z</time></trkpt><trkpt lat="44.0434567" lon="11.258935"><ele>493.0</ele><time>2026-05-02T07:57:16.729Z</time></trkpt><trkpt lat="44.04363" lon="11.25892"><ele>491.0</ele><time>2026-05-02T07:57:17.726Z</time></trkpt><trkpt lat="44.0437967" lon="11.2588967"><ele>489.0</ele><time>2026-05-02T07:57:18.728Z</time></trkpt><trkpt lat="44.0439583" lon="11.2588583"><ele>487.0</ele><time>2026-05-02T07:57:19.728Z</time></trkpt><trkpt lat="44.044115" lon="11.25882"><ele>488.25</ele><time>2026-05-02T07:57:20.728Z</time></trkpt><trkpt lat="44.044255" lon="11.2587817"><ele>489.5</ele><time>2026-05-02T07:57:21.728Z</time></trkpt><trkpt lat="44.0443883" lon="11.2587467"><ele>490.75</ele><time>2026-05-02T07:57:22.729Z</time></trkpt><trkpt lat="44.044515" lon="11.258715"><ele>492.0</ele><time>2026-05-02T07:57:23.727Z</time></trkpt><trkpt lat="44.0446317" lon="11.2586817"><ele>492.0</ele><time>2026-05-02T07:57:24.728Z</time></trkpt><trkpt lat="44.0447417" lon="11.25865"><ele>492.00000000000006</ele><time>2026-05-02T07:57:25.728Z</time></trkpt><trkpt lat="44.0448433" lon="11.2586167"><ele>492.00000000000006</ele><time>2026-05-02T07:57:26.727Z</time></trkpt><trkpt lat="44.0449383" lon="11.2585883"><ele>492.0</ele><time>2026-05-02T07:57:27.727Z</time></trkpt><trkpt lat="44.0450333" lon="11.2585483"><ele>492.0</ele><time>2026-05-02T07:57:28.728Z</time></trkpt><trkpt lat="44.0451383" lon="11.2585117"><ele>495.66666666666663</ele><time>2026-05-02T07:57:29.727Z</time></trkpt><trkpt lat="44.0452667" lon="11.2584533"><ele>499.3333333333333</ele><time>2026-05-02T07:57:30.728Z</time></trkpt><trkpt lat="44.0454283" lon="11.2583783"><ele>503.0</ele><time>2026-05-02T07:57:31.728Z</time></trkpt><trkpt lat="44.04559" lon="11.2583067"><ele>503.0</ele><time>2026-05-02T07:57:32.727Z</time></trkpt><trkpt lat="44.0457417" lon="11.2582433"><ele>503.0</ele><time>2026-05-02T07:57:33.727Z</time></trkpt><trkpt lat="44.04588" lon="11.2581783"><ele>503.0</ele><time>2026-05-02T07:57:34.728Z</time></trkpt><trkpt lat="44.04601" lon="11.2581267"><ele>503.0</ele><time>2026-05-02T07:57:35.726Z</time></trkpt><trkpt lat="44.0461383" lon="11.2581267"><ele>505.3333333333333</ele><time>2026-05-02T07:57:36.728Z</time></trkpt><trkpt lat="44.0462683" lon="11.25819"><ele>507.66666666666663</ele><time>2026-05-02T07:57:37.727Z</time></trkpt><trkpt lat="44.046395" lon="11.2583133"><ele>510.0</ele><time>2026-05-02T07:57:38.726Z</time></trkpt><trkpt lat="44.0465233" lon="11.2584683"><ele>508.33333333333337</ele><time>2026-05-02T07:57:39.727Z</time></trkpt><trkpt lat="44.0466567" lon="11.258635"><ele>506.6666666666667</ele><time>2026-05-02T07:57:40.729Z</time></trkpt><trkpt lat="44.046795" lon="11.2587933"><ele>505.0</ele><time>2026-05-02T07:57:41.727Z</time></trkpt><trkpt lat="44.04694" lon="11.2589583"><ele>509.6666666666667</ele><time>2026-05-02T07:57:42.727Z</time></trkpt><trkpt lat="44.0470883" lon="11.25911"><ele>514.3333333333334</ele><time>2026-05-02T07:57:43.727Z</time></trkpt><trkpt lat="44.04724" lon="11.259255"><ele>519.0</ele><time>2026-05-02T07:57:44.727Z</time></trkpt><trkpt lat="44.04739" lon="11.2594"><ele>516.3333333333334</ele><time>2026-05-02T07:57:45.727Z</time></trkpt><trkpt lat="44.0475367" lon="11.25954"><ele>513.6666666666667</ele><time>2026-05-02T07:57:46.729Z</time></trkpt><trkpt lat="44.0476783" lon="11.259685"><ele>511.0</ele><time>2026-05-02T07:57:47.728Z</time></trkpt><trkpt lat="44.0478133" lon="11.259825"><ele>511.0</ele><time>2026-05-02T07:57:48.727Z</time></trkpt><trkpt lat="44.047935" lon="11.2599717"><ele>511.0</ele><time>2026-05-02T07:57:49.728Z</time></trkpt><trkpt lat="44.0480417" lon="11.2601267"><ele>511.0</ele><time>2026-05-02T07:57:50.728Z</time></trkpt><trkpt lat="44.04814" lon="11.2602717"><ele>511.0</ele><time>2026-05-02T07:57:51.728Z</time></trkpt><trkpt lat="44.04824" lon="11.2604033"><ele>511.0</ele><time>2026-05-02T07:57:52.729Z</time></trkpt><trkpt lat="44.0483433" lon="11.260525"><ele>511.0</ele><time>2026-05-02T07:57:53.729Z</time></trkpt><trkpt lat="44.0484517" lon="11.2606417"><ele>511.0</ele><time>2026-05-02T07:57:54.728Z</time></trkpt><trkpt lat="44.0485633" lon="11.26075"><ele>512.75</ele><time>2026-05-02T07:57:55.728Z</time></trkpt><trkpt lat="44.0486783" lon="11.26086"><ele>514.5</ele><time>2026-05-02T07:57:56.729Z</time></trkpt><trkpt lat="44.0487967" lon="11.2609567"><ele>516.25</ele><time>2026-05-02T07:57:57.728Z</time></trkpt><trkpt lat="44.0489183" lon="11.261035"><ele>518.0</ele><time>2026-05-02T07:57:58.728Z</time></trkpt><trkpt lat="44.04904" lon="11.2611083"><ele>517.0</ele><time>2026-05-02T07:57:59.728Z</time></trkpt><trkpt lat="44.0491667" lon="11.2611683"><ele>516.0</ele><time>2026-05-02T07:58:00.727Z</time></trkpt><trkpt lat="44.04931" lon="11.2612167"><ele>515.0</ele><time>2026-05-02T07:58:01.728Z</time></trkpt><trkpt lat="44.049455" lon="11.2612617"><ele>514.0</ele><time>2026-05-02T07:58:02.727Z</time></trkpt><trkpt lat="44.0496017" lon="11.2612967"><ele>514.0</ele><time>2026-05-02T07:58:03.726Z</time></trkpt><trkpt lat="44.0497533" lon="11.2613217"><ele>514.0</ele><time>2026-05-02T07:58:04.728Z</time></trkpt><trkpt lat="44.0499033" lon="11.26133"><ele>514.0</ele><time>2026-05-02T07:58:05.727Z</time></trkpt><trkpt lat="44.050045" lon="11.2613267"><ele>514.0</ele><time>2026-05-02T07:58:06.728Z</time></trkpt><trkpt lat="44.0501767" lon="11.2613117"><ele>514.5</ele><time>2026-05-02T07:58:07.727Z</time></trkpt><trkpt lat="44.050295" lon="11.2612917"><ele>515.0</ele><time>2026-05-02T07:58:08.729Z</time></trkpt><trkpt lat="44.0504067" lon="11.2612717"><ele>515.5</ele><time>2026-05-02T07:58:09.726Z</time></trkpt><trkpt lat="44.0505183" lon="11.2612483"><ele>516.0</ele><time>2026-05-02T07:58:10.727Z</time></trkpt><trkpt lat="44.05063" lon="11.2612217"><ele>516.0</ele><time>2026-05-02T07:58:11.726Z</time></trkpt><trkpt lat="44.0507367" lon="11.2611867"><ele>516.0</ele><time>2026-05-02T07:58:12.727Z</time></trkpt><trkpt lat="44.0508433" lon="11.261145"><ele>516.0</ele><time>2026-05-02T07:58:13.726Z</time></trkpt><trkpt lat="44.05095" lon="11.2611067"><ele>516.0</ele><time>2026-05-02T07:58:14.728Z</time></trkpt><trkpt lat="44.051055" lon="11.2610617"><ele>516.0</ele><time>2026-05-02T07:58:15.728Z</time></trkpt><trkpt lat="44.0511567" lon="11.26102"><ele>516.4</ele><time>2026-05-02T07:58:16.727Z</time></trkpt><trkpt lat="44.0512567" lon="11.2609817"><ele>516.8</ele><time>2026-05-02T07:58:17.727Z</time></trkpt><trkpt lat="44.0513533" lon="11.2609367"><ele>517.1999999999999</ele><time>2026-05-02T07:58:18.727Z</time></trkpt><trkpt lat="44.0514567" lon="11.26089"><ele>517.6</ele><time>2026-05-02T07:58:19.728Z</time></trkpt><trkpt lat="44.0515667" lon="11.2608483"><ele>518.0</ele><time>2026-05-02T07:58:20.727Z</time></trkpt><trkpt lat="44.0516867" lon="11.260805"><ele>518.75</ele><time>2026-05-02T07:58:21.728Z</time></trkpt><trkpt lat="44.0518083" lon="11.26076"><ele>519.5</ele><time>2026-05-02T07:58:22.729Z</time></trkpt><trkpt lat="44.0519317" lon="11.260715"><ele>520.25</ele><time>2026-05-02T07:58:23.728Z</time></trkpt><trkpt lat="44.0520567" lon="11.2606733"><ele>521.0</ele><time>2026-05-02T07:58:24.729Z</time></trkpt><trkpt lat="44.0521817" lon="11.2606383"><ele>519.5</ele><time>2026-05-02T07:58:25.728Z</time></trkpt><trkpt lat="44.052305" lon="11.2605983"><ele>518.0</ele><time>2026-05-02T07:58:26.727Z</time></trkpt><trkpt lat="44.0524283" lon="11.2605767"><ele>516.5</ele><time>2026-05-02T07:58:27.727Z</time></trkpt><trkpt lat="44.0525517" lon="11.260575"><ele>515.0</ele><time>2026-05-02T07:58:28.728Z</time></trkpt><trkpt lat="44.05267" lon="11.2606017"><ele>518.25</ele><time>2026-05-02T07:58:29.729Z</time></trkpt><trkpt lat="44.0527933" lon="11.2606583"><ele>521.5</ele><time>2026-05-02T07:58:30.728Z</time></trkpt><trkpt lat="44.0529183" lon="11.26074"><ele>524.75</ele><time>2026-05-02T07:58:31.728Z</time></trkpt><trkpt lat="44.0530433" lon="11.2608517"><ele>528.0</ele><time>2026-05-02T07:58:32.728Z</time></trkpt><trkpt lat="44.0531767" lon="11.2609783"><ele>527.6666666666666</ele><time>2026-05-02T07:58:33.727Z</time></trkpt><trkpt lat="44.0533183" lon="11.2611067"><ele>527.3333333333333</ele><time>2026-05-02T07:58:34.728Z</time></trkpt><trkpt lat="44.0534633" lon="11.2612317"><ele>527.0</ele><time>2026-05-02T07:58:35.727Z</time></trkpt><trkpt lat="44.0536133" lon="11.261355"><ele>531.0</ele><time>2026-05-02T07:58:36.728Z</time></trkpt><trkpt lat="44.053775" lon="11.2614633"><ele>535.0</ele><time>2026-05-02T07:58:37.727Z</time></trkpt><trkpt lat="44.0539433" lon="11.2615483"><ele>539.0</ele><time>2026-05-02T07:58:38.728Z</time></trkpt><trkpt lat="44.0541183" lon="11.2616283"><ele>537.3333333333333</ele><time>2026-05-02T07:58:39.728Z</time></trkpt><trkpt lat="44.0543067" lon="11.2617133"><ele>535.6666666666666</ele><time>2026-05-02T07:58:40.728Z</time></trkpt><trkpt lat="44.0545" lon="11.2617967"><ele>534.0</ele><time>2026-05-02T07:58:41.729Z</time></trkpt><trkpt lat="44.0547" lon="11.2618783"><ele>534.0</ele><time>2026-05-02T07:58:42.727Z</time></trkpt><trkpt lat="44.0549067" lon="11.26196"><ele>534.0</ele><time>2026-05-02T07:58:43.727Z</time></trkpt><trkpt lat="44.055115" lon="11.2620417"><ele>534.0</ele><time>2026-05-02T07:58:44.729Z</time></trkpt><trkpt lat="44.055325" lon="11.262125"><ele>532.6666666666666</ele><time>2026-05-02T07:58:45.729Z</time></trkpt><trkpt lat="44.0555317" lon="11.2622033"><ele>531.3333333333333</ele><time>2026-05-02T07:58:46.728Z</time></trkpt><trkpt lat="44.0557317" lon="11.2622783"><ele>530.0</ele><time>2026-05-02T07:58:47.728Z</time></trkpt><trkpt lat="44.0559283" lon="11.26236"><ele>533.0</ele><time>2026-05-02T07:58:48.728Z</time></trkpt><trkpt lat="44.0561017" lon="11.2624583"><ele>536.0</ele><time>2026-05-02T07:58:49.728Z</time></trkpt><trkpt lat="44.056245" lon="11.2625817"><ele>539.0</ele><time>2026-05-02T07:58:50.728Z</time></trkpt><trkpt lat="44.0563583" lon="11.262705"><ele>539.0</ele><time>2026-05-02T07:58:51.727Z</time></trkpt><trkpt lat="44.0564667" lon="11.2627983"><ele>539.0</ele><time>2026-05-02T07:58:52.73Z</time></trkpt><trkpt lat="44.0565867" lon="11.26284"><ele>539.0</ele><time>2026-05-02T07:58:53.729Z</time></trkpt><trkpt lat="44.056715" lon="11.2628183"><ele>539.0</ele><time>2026-05-02T07:58:54.73Z</time></trkpt><trkpt lat="44.0568517" lon="11.262735"><ele>542.0</ele><time>2026-05-02T07:58:55.727Z</time></trkpt><trkpt lat="44.0569967" lon="11.2626217"><ele>545.0</ele><time>2026-05-02T07:58:56.727Z</time></trkpt><trkpt lat="44.0571517" lon="11.262525"><ele>548.0</ele><time>2026-05-02T07:58:57.728Z</time></trkpt><trkpt lat="44.0573067" lon="11.2624733"><ele>550.3333333333333</ele><time>2026-05-02T07:58:58.729Z</time></trkpt><trkpt lat="44.0574633" lon="11.2624783"><ele>552.6666666666666</ele><time>2026-05-02T07:58:59.728Z</time></trkpt><trkpt lat="44.057625" lon="11.26254"><ele>555.0</ele><time>2026-05-02T07:59:00.728Z</time></trkpt><trkpt lat="44.0578" lon="11.2626517"><ele>555.0</ele><time>2026-05-02T07:59:01.729Z</time></trkpt><trkpt lat="44.05798" lon="11.2627917"><ele>555.0</ele><time>2026-05-02T07:59:02.729Z</time></trkpt><trkpt lat="44.0581517" lon="11.2629317"><ele>555.0</ele><time>2026-05-02T07:59:03.727Z</time></trkpt><trkpt lat="44.0583183" lon="11.2630367"><ele>556.0</ele><time>2026-05-02T07:59:04.729Z</time></trkpt><trkpt lat="44.058495" lon="11.263085"><ele>557.0</ele><time>2026-05-02T07:59:05.727Z</time></trkpt><trkpt lat="44.0586883" lon="11.263085"><ele>558.0</ele><time>2026-05-02T07:59:06.728Z</time></trkpt><trkpt lat="44.058885" lon="11.263065"><ele>558.0</ele><time>2026-05-02T07:59:07.728Z</time></trkpt><trkpt lat="44.0590833" lon="11.263055"><ele>558.0</ele><time>2026-05-02T07:59:08.728Z</time></trkpt><trkpt lat="44.0592833" lon="11.2630517"><ele>558.0</ele><time>2026-05-02T07:59:09.729Z</time></trkpt><trkpt lat="44.0594833" lon="11.2630517"><ele>560.0</ele><time>2026-05-02T07:59:10.727Z</time></trkpt><trkpt lat="44.0596867" lon="11.2630517"><ele>562.0</ele><time>2026-05-02T07:59:11.725Z</time></trkpt><trkpt lat="44.0598917" lon="11.2630583"><ele>564.0</ele><time>2026-05-02T07:59:12.727Z</time></trkpt><trkpt lat="44.0600983" lon="11.2630617"><ele>565.3333333333334</ele><time>2026-05-02T07:59:13.729Z</time></trkpt><trkpt lat="44.060305" lon="11.26307"><ele>566.6666666666667</ele><time>2026-05-02T07:59:14.729Z</time></trkpt><trkpt lat="44.0605133" lon="11.2630817"><ele>568.0</ele><time>2026-05-02T07:59:15.728Z</time></trkpt><trkpt lat="44.0607217" lon="11.2631167"><ele>569.3333333333334</ele><time>2026-05-02T07:59:16.726Z</time></trkpt><trkpt lat="44.0609283" lon="11.26318"><ele>570.6666666666666</ele><time>2026-05-02T07:59:17.729Z</time></trkpt><trkpt lat="44.061125" lon="11.2632733"><ele>572.0</ele><time>2026-05-02T07:59:18.729Z</time></trkpt><trkpt lat="44.0613167" lon="11.2633867"><ele>572.0</ele><time>2026-05-02T07:59:19.729Z</time></trkpt><trkpt lat="44.061505" lon="11.2635067"><ele>572.0</ele><time>2026-05-02T07:59:20.73Z</time></trkpt><trkpt lat="44.0616933" lon="11.2636317"><ele>572.0</ele><time>2026-05-02T07:59:21.727Z</time></trkpt><trkpt lat="44.0618783" lon="11.2637533"><ele>573.6666666666666</ele><time>2026-05-02T07:59:22.729Z</time></trkpt><trkpt lat="44.06207" lon="11.2638667"><ele>575.3333333333334</ele><time>2026-05-02T07:59:23.727Z</time></trkpt><trkpt lat="44.06227" lon="11.2639717"><ele>577.0</ele><time>2026-05-02T07:59:24.73Z</time></trkpt><trkpt lat="44.0624733" lon="11.2640883"><ele>581.0</ele><time>2026-05-02T07:59:25.729Z</time></trkpt><trkpt lat="44.0626633" lon="11.264215"><ele>585.0</ele><time>2026-05-02T07:59:26.729Z</time></trkpt><trkpt lat="44.0628317" lon="11.2643483"><ele>589.0</ele><time>2026-05-02T07:59:27.729Z</time></trkpt><trkpt lat="44.0629817" lon="11.264495"><ele>589.0</ele><time>2026-05-02T07:59:28.727Z</time></trkpt><trkpt lat="44.063115" lon="11.2646717"><ele>589.0</ele><time>2026-05-02T07:59:29.727Z</time></trkpt><trkpt lat="44.0632283" lon="11.2648817"><ele>589.0</ele><time>2026-05-02T07:59:30.728Z</time></trkpt><trkpt lat="44.0633217" lon="11.26511"><ele>593.0</ele><time>2026-05-02T07:59:31.729Z</time></trkpt><trkpt lat="44.0634083" lon="11.265345"><ele>597.0</ele><time>2026-05-02T07:59:32.728Z</time></trkpt><trkpt lat="44.0635017" lon="11.2655883"><ele>601.0</ele><time>2026-05-02T07:59:33.728Z</time></trkpt><trkpt lat="44.0636167" lon="11.265825"><ele>601.0</ele><time>2026-05-02T07:59:34.729Z</time></trkpt><trkpt lat="44.06375" lon="11.2660583"><ele>601.0</ele><time>2026-05-02T07:59:35.728Z</time></trkpt><trkpt lat="44.0638967" lon="11.2662733"><ele>601.0</ele><time>2026-05-02T07:59:36.73Z</time></trkpt><trkpt lat="44.0640333" lon="11.2664933"><ele>606.0</ele><time>2026-05-02T07:59:37.728Z</time></trkpt><trkpt lat="44.064155" lon="11.26669"><ele>611.0</ele><time>2026-05-02T07:59:38.728Z</time></trkpt><trkpt lat="44.0642717" lon="11.2668433"><ele>616.0</ele><time>2026-05-02T07:59:39.728Z</time></trkpt><trkpt lat="44.0643983" lon="11.2669417"><ele>616.0</ele><time>2026-05-02T07:59:40.729Z</time></trkpt><trkpt lat="44.064545" lon="11.2669733"><ele>616.0</ele><time>2026-05-02T07:59:41.728Z</time></trkpt><trkpt lat="44.06471" lon="11.2669767"><ele>616.0</ele><time>2026-05-02T07:59:42.727Z</time></trkpt><trkpt lat="44.0648967" lon="11.266975"><ele>619.3333333333334</ele><time>2026-05-02T07:59:43.727Z</time></trkpt><trkpt lat="44.0650917" lon="11.2669917"><ele>622.6666666666666</ele><time>2026-05-02T07:59:44.728Z</time></trkpt><trkpt lat="44.06528" lon="11.2670567"><ele>626.0</ele><time>2026-05-02T07:59:45.73Z</time></trkpt><trkpt lat="44.0654633" lon="11.26714"><ele>626.0</ele><time>2026-05-02T07:59:46.728Z</time></trkpt><trkpt lat="44.0656533" lon="11.2672267"><ele>626.0</ele><time>2026-05-02T07:59:47.728Z</time></trkpt><trkpt lat="44.0658517" lon="11.2673"><ele>626.0</ele><time>2026-05-02T07:59:48.727Z</time></trkpt><trkpt lat="44.0660483" lon="11.267355"><ele>625.6666666666666</ele><time>2026-05-02T07:59:49.727Z</time></trkpt><trkpt lat="44.0662417" lon="11.2674017"><ele>625.3333333333334</ele><time>2026-05-02T07:59:50.726Z</time></trkpt><trkpt lat="44.0664267" lon="11.2674767"><ele>625.0</ele><time>2026-05-02T07:59:51.727Z</time></trkpt><trkpt lat="44.0665967" lon="11.267605"><ele>627.0</ele><time>2026-05-02T07:59:52.73Z</time></trkpt><trkpt lat="44.066755" lon="11.2677767"><ele>629.0</ele><time>2026-05-02T07:59:53.727Z</time></trkpt><trkpt lat="44.06691" lon="11.2679483"><ele>631.0</ele><time>2026-05-02T07:59:54.727Z</time></trkpt><trkpt lat="44.067085" lon="11.2680817"><ele>629.3333333333334</ele><time>2026-05-02T07:59:55.727Z</time></trkpt><trkpt lat="44.067275" lon="11.2681667"><ele>627.6666666666666</ele><time>2026-05-02T07:59:56.728Z</time></trkpt><trkpt lat="44.0674517" lon="11.268225"><ele>626.0</ele><time>2026-05-02T07:59:57.728Z</time></trkpt><trkpt lat="44.0676033" lon="11.2683183"><ele>630.0</ele><time>2026-05-02T07:59:58.73Z</time></trkpt><trkpt lat="44.0677183" lon="11.2684567"><ele>634.0</ele><time>2026-05-02T07:59:59.728Z</time></trkpt><trkpt lat="44.0677983" lon="11.2686533"><ele>638.0</ele><time>2026-05-02T08:00:00.729Z</time></trkpt><trkpt lat="44.0678583" lon="11.26889"><ele>637.0</ele><time>2026-05-02T08:00:01.728Z</time></trkpt><trkpt lat="44.0679267" lon="11.2691333"><ele>636.0</ele><time>2026-05-02T08:00:02.728Z</time></trkpt><trkpt lat="44.0679917" lon="11.2693683"><ele>635.0</ele><time>2026-05-02T08:00:03.727Z</time></trkpt><trkpt lat="44.0680567" lon="11.269565"><ele>635.0</ele><time>2026-05-02T08:00:04.728Z</time></trkpt><trkpt lat="44.0681217" lon="11.2697417"><ele>635.0</ele><time>2026-05-02T08:00:05.729Z</time></trkpt><trkpt lat="44.0682067" lon="11.2698833"><ele>635.0</ele><time>2026-05-02T08:00:06.729Z</time></trkpt><trkpt lat="44.0683117" lon="11.269995"><ele>635.0</ele><time>2026-05-02T08:00:07.726Z</time></trkpt><trkpt lat="44.0684167" lon="11.2700817"><ele>638.5</ele><time>2026-05-02T08:00:08.729Z</time></trkpt><trkpt lat="44.068525" lon="11.2701433"><ele>642.0</ele><time>2026-05-02T08:00:09.728Z</time></trkpt><trkpt lat="44.0686417" lon="11.27018"><ele>645.5</ele><time>2026-05-02T08:00:10.728Z</time></trkpt><trkpt lat="44.0687733" lon="11.27019"><ele>649.0</ele><time>2026-05-02T08:00:11.728Z</time></trkpt><trkpt lat="44.06893" lon="11.2701667"><ele>649.0</ele><time>2026-05-02T08:00:12.728Z</time></trkpt><trkpt lat="44.069105" lon="11.27014"><ele>649.0</ele><time>2026-05-02T08:00:13.728Z</time></trkpt><trkpt lat="44.0692833" lon="11.2701217"><ele>649.0</ele><time>2026-05-02T08:00:14.728Z</time></trkpt><trkpt lat="44.0694583" lon="11.2701"><ele>653.3333333333334</ele><time>2026-05-02T08:00:15.728Z</time></trkpt><trkpt lat="44.06963" lon="11.2700617"><ele>657.6666666666666</ele><time>2026-05-02T08:00:16.728Z</time></trkpt><trkpt lat="44.0697967" lon="11.2700233"><ele>662.0</ele><time>2026-05-02T08:00:17.729Z</time></trkpt><trkpt lat="44.0699617" lon="11.2699783"><ele>664.0</ele><time>2026-05-02T08:00:18.728Z</time></trkpt><trkpt lat="44.07012" lon="11.2699233"><ele>666.0</ele><time>2026-05-02T08:00:19.728Z</time></trkpt><trkpt lat="44.0702683" lon="11.2698733"><ele>668.0</ele><time>2026-05-02T08:00:20.729Z</time></trkpt><trkpt lat="44.0704033" lon="11.2698467"><ele>668.0</ele><time>2026-05-02T08:00:21.728Z</time></trkpt><trkpt lat="44.07053" lon="11.2698583"><ele>668.0</ele><time>2026-05-02T08:00:22.729Z</time></trkpt><trkpt lat="44.0706533" lon="11.269915"><ele>668.0</ele><time>2026-05-02T08:00:23.727Z</time></trkpt><trkpt lat="44.0707817" lon="11.2699983"><ele>668.0</ele><time>2026-05-02T08:00:24.728Z</time></trkpt><trkpt lat="44.0709167" lon="11.2700933"><ele>670.0</ele><time>2026-05-02T08:00:25.727Z</time></trkpt><trkpt lat="44.0710533" lon="11.2701933"><ele>672.0</ele><time>2026-05-02T08:00:26.728Z</time></trkpt><trkpt lat="44.0711867" lon="11.2703033"><ele>674.0</ele><time>2026-05-02T08:00:27.728Z</time></trkpt><trkpt lat="44.0713117" lon="11.2704283"><ele>674.0</ele><time>2026-05-02T08:00:28.729Z</time></trkpt><trkpt lat="44.0714233" lon="11.2705783"><ele>674.0</ele><time>2026-05-02T08:00:29.729Z</time></trkpt><trkpt lat="44.0715267" lon="11.2707467"><ele>674.0</ele><time>2026-05-02T08:00:30.727Z</time></trkpt><trkpt lat="44.0716283" lon="11.2709183"><ele>678.0</ele><time>2026-05-02T08:00:31.729Z</time></trkpt><trkpt lat="44.0717417" lon="11.27108"><ele>682.0</ele><time>2026-05-02T08:00:32.73Z</time></trkpt><trkpt lat="44.0718717" lon="11.2712167"><ele>686.0</ele><time>2026-05-02T08:00:33.729Z</time></trkpt><trkpt lat="44.072005" lon="11.2713417"><ele>687.25</ele><time>2026-05-02T08:00:34.727Z</time></trkpt><trkpt lat="44.072135" lon="11.2714583"><ele>688.5</ele><time>2026-05-02T08:00:35.729Z</time></trkpt><trkpt lat="44.0722567" lon="11.2715617"><ele>689.75</ele><time>2026-05-02T08:00:36.729Z</time></trkpt><trkpt lat="44.0723667" lon="11.271655"><ele>691.0</ele><time>2026-05-02T08:00:37.729Z</time></trkpt><trkpt lat="44.0724767" lon="11.271735"><ele>691.0</ele><time>2026-05-02T08:00:38.728Z</time></trkpt><trkpt lat="44.0725917" lon="11.271735"><ele>691.0</ele><time>2026-05-02T08:00:39.728Z</time></trkpt><trkpt lat="44.0726983" lon="11.2716633"><ele>691.0</ele><time>2026-05-02T08:00:40.728Z</time></trkpt><trkpt lat="44.0727783" lon="11.2715533"><ele>691.0</ele><time>2026-05-02T08:00:41.729Z</time></trkpt><trkpt lat="44.072825" lon="11.271395"><ele>694.0</ele><time>2026-05-02T08:00:42.728Z</time></trkpt><trkpt lat="44.0728367" lon="11.2711917"><ele>697.0</ele><time>2026-05-02T08:00:43.728Z</time></trkpt><trkpt lat="44.0728317" lon="11.2709833"><ele>700.0</ele><time>2026-05-02T08:00:44.727Z</time></trkpt><trkpt lat="44.07282" lon="11.2707683"><ele>698.75</ele><time>2026-05-02T08:00:45.728Z</time></trkpt><trkpt lat="44.07281" lon="11.2705683"><ele>697.5</ele><time>2026-05-02T08:00:46.727Z</time></trkpt><trkpt lat="44.0728017" lon="11.2703917"><ele>696.25</ele><time>2026-05-02T08:00:47.726Z</time></trkpt><trkpt lat="44.0728283" lon="11.2702383"><ele>695.0</ele><time>2026-05-02T08:00:48.727Z</time></trkpt><trkpt lat="44.0728817" lon="11.27014"><ele>695.0</ele><time>2026-05-02T08:00:49.728Z</time></trkpt><trkpt lat="44.0729533" lon="11.2700733"><ele>695.0</ele><time>2026-05-02T08:00:50.728Z</time></trkpt><trkpt lat="44.0730383" lon="11.2700283"><ele>695.0</ele><time>2026-05-02T08:00:51.729Z</time></trkpt><trkpt lat="44.0731517" lon="11.2700433"><ele>695.0</ele><time>2026-05-02T08:00:52.728Z</time></trkpt><trkpt lat="44.0732617" lon="11.2700833"><ele>695.0</ele><time>2026-05-02T08:00:53.728Z</time></trkpt><trkpt lat="44.0733767" lon="11.2701567"><ele>697.6666666666666</ele><time>2026-05-02T08:00:54.727Z</time></trkpt><trkpt lat="44.0734967" lon="11.27026"><ele>700.3333333333334</ele><time>2026-05-02T08:00:55.728Z</time></trkpt><trkpt lat="44.07362" lon="11.2703867"><ele>703.0</ele><time>2026-05-02T08:00:56.728Z</time></trkpt><trkpt lat="44.0737367" lon="11.2705533"><ele>703.3333333333334</ele><time>2026-05-02T08:00:57.729Z</time></trkpt><trkpt lat="44.0738367" lon="11.2707583"><ele>703.6666666666666</ele><time>2026-05-02T08:00:58.726Z</time></trkpt><trkpt lat="44.0739217" lon="11.2709983"><ele>704.0</ele><time>2026-05-02T08:00:59.728Z</time></trkpt><trkpt lat="44.073995" lon="11.27125"><ele>703.3333333333333</ele><time>2026-05-02T08:01:00.727Z</time></trkpt><trkpt lat="44.0740417" lon="11.2715033"><ele>702.6666666666666</ele><time>2026-05-02T08:01:01.729Z</time></trkpt><trkpt lat="44.074075" lon="11.27176"><ele>702.0</ele><time>2026-05-02T08:01:02.729Z</time></trkpt><trkpt lat="44.0741" lon="11.2720133"><ele>709.3333333333334</ele><time>2026-05-02T08:01:03.73Z</time></trkpt><trkpt lat="44.0741183" lon="11.2722617"><ele>716.6666666666667</ele><time>2026-05-02T08:01:04.727Z</time></trkpt><trkpt lat="44.0741333" lon="11.2724917"><ele>724.0</ele><time>2026-05-02T08:01:05.727Z</time></trkpt><trkpt lat="44.0741467" lon="11.2727067"><ele>725.0</ele><time>2026-05-02T08:01:06.728Z</time></trkpt><trkpt lat="44.074155" lon="11.2729117"><ele>726.0</ele><time>2026-05-02T08:01:07.728Z</time></trkpt><trkpt lat="44.0741417" lon="11.2730983"><ele>727.0</ele><time>2026-05-02T08:01:08.728Z</time></trkpt><trkpt lat="44.0741033" lon="11.2732683"><ele>728.0</ele><time>2026-05-02T08:01:09.728Z</time></trkpt><trkpt lat="44.0740483" lon="11.27343"><ele>725.75</ele><time>2026-05-02T08:01:10.729Z</time></trkpt><trkpt lat="44.0739933" lon="11.27359"><ele>723.5</ele><time>2026-05-02T08:01:11.728Z</time></trkpt><trkpt lat="44.0739517" lon="11.2737433"><ele>721.25</ele><time>2026-05-02T08:01:12.728Z</time></trkpt><trkpt lat="44.0739333" lon="11.2738883"><ele>719.0</ele><time>2026-05-02T08:01:13.727Z</time></trkpt><trkpt lat="44.073945" lon="11.2740317"><ele>719.0</ele><time>2026-05-02T08:01:14.728Z</time></trkpt><trkpt lat="44.073995" lon="11.2741733"><ele>719.0</ele><time>2026-05-02T08:01:15.729Z</time></trkpt><trkpt lat="44.0740867" lon="11.2743233"><ele>719.0</ele><time>2026-05-02T08:01:16.728Z</time></trkpt><trkpt lat="44.0741983" lon="11.2744983"><ele>719.0</ele><time>2026-05-02T08:01:17.728Z</time></trkpt><trkpt lat="44.0743167" lon="11.274685"><ele>723.6666666666666</ele><time>2026-05-02T08:01:18.728Z</time></trkpt><trkpt lat="44.07443" lon="11.2748683"><ele>728.3333333333334</ele><time>2026-05-02T08:01:19.728Z</time></trkpt><trkpt lat="44.0745683" lon="11.2750167"><ele>733.0</ele><time>2026-05-02T08:01:20.729Z</time></trkpt><trkpt lat="44.074725" lon="11.2751233"><ele>733.0</ele><time>2026-05-02T08:01:21.728Z</time></trkpt><trkpt lat="44.074875" lon="11.2752133"><ele>733.0</ele><time>2026-05-02T08:01:22.728Z</time></trkpt><trkpt lat="44.0750033" lon="11.2753183"><ele>733.0</ele><time>2026-05-02T08:01:23.728Z</time></trkpt><trkpt lat="44.07511" lon="11.2754717"><ele>737.0</ele><time>2026-05-02T08:01:24.727Z</time></trkpt><trkpt lat="44.0751883" lon="11.2756817"><ele>741.0</ele><time>2026-05-02T08:01:25.727Z</time></trkpt><trkpt lat="44.0752733" lon="11.2759183"><ele>745.0</ele><time>2026-05-02T08:01:26.73Z</time></trkpt><trkpt lat="44.0753817" lon="11.2761483"><ele>745.0</ele><time>2026-05-02T08:01:27.729Z</time></trkpt><trkpt lat="44.075515" lon="11.2763617"><ele>745.0</ele><time>2026-05-02T08:01:28.728Z</time></trkpt><trkpt lat="44.0756533" lon="11.27655"><ele>745.0</ele><time>2026-05-02T08:01:29.727Z</time></trkpt><trkpt lat="44.0757683" lon="11.276715"><ele>750.5</ele><time>2026-05-02T08:01:30.73Z</time></trkpt><trkpt lat="44.075845" lon="11.2768767"><ele>756.0</ele><time>2026-05-02T08:01:31.732Z</time></trkpt><trkpt lat="44.0758717" lon="11.2770583"><ele>761.5</ele><time>2026-05-02T08:01:32.729Z</time></trkpt><trkpt lat="44.0758517" lon="11.2772533"><ele>767.0</ele><time>2026-05-02T08:01:33.729Z</time></trkpt><trkpt lat="44.0758167" lon="11.2774433"><ele>767.3333333333333</ele><time>2026-05-02T08:01:34.729Z</time></trkpt><trkpt lat="44.0758067" lon="11.2776417"><ele>767.6666666666666</ele><time>2026-05-02T08:01:35.728Z</time></trkpt><trkpt lat="44.0758417" lon="11.2778533"><ele>768.0</ele><time>2026-05-02T08:01:36.73Z</time></trkpt><trkpt lat="44.0758783" lon="11.278095"><ele>767.6666666666666</ele><time>2026-05-02T08:01:37.729Z</time></trkpt><trkpt lat="44.0759017" lon="11.2783683"><ele>767.3333333333333</ele><time>2026-05-02T08:01:38.729Z</time></trkpt><trkpt lat="44.0758967" lon="11.2786517"><ele>767.0</ele><time>2026-05-02T08:01:39.728Z</time></trkpt><trkpt lat="44.0758767" lon="11.27894"><ele>766.6666666666666</ele><time>2026-05-02T08:01:40.728Z</time></trkpt><trkpt lat="44.0758533" lon="11.2792267"><ele>766.3333333333334</ele><time>2026-05-02T08:01:41.729Z</time></trkpt><trkpt lat="44.0758333" lon="11.2795067"><ele>766.0</ele><time>2026-05-02T08:01:42.729Z</time></trkpt><trkpt lat="44.0758167" lon="11.2797717"><ele>765.6666666666667</ele><time>2026-05-02T08:01:43.729Z</time></trkpt><trkpt lat="44.0758083" lon="11.2800217"><ele>765.3333333333334</ele><time>2026-05-02T08:01:44.728Z</time></trkpt><trkpt lat="44.07582" lon="11.2802267"><ele>765.0</ele><time>2026-05-02T08:01:45.729Z</time></trkpt><trkpt lat="44.07587" lon="11.2804167"><ele>765.0</ele><time>2026-05-02T08:01:46.729Z</time></trkpt><trkpt lat="44.0759567" lon="11.2805717"><ele>765.0</ele><time>2026-05-02T08:01:47.728Z</time></trkpt><trkpt lat="44.0760667" lon="11.2806933"><ele>765.0</ele><time>2026-05-02T08:01:48.73Z</time></trkpt><trkpt lat="44.0761967" lon="11.2807783"><ele>765.0</ele><time>2026-05-02T08:01:49.728Z</time></trkpt><trkpt lat="44.076335" lon="11.280815"><ele>765.0</ele><time>2026-05-02T08:01:50.729Z</time></trkpt><trkpt lat="44.0764817" lon="11.2808467"><ele>765.0</ele><time>2026-05-02T08:01:51.729Z</time></trkpt><trkpt lat="44.0766283" lon="11.2808917"><ele>765.0</ele><time>2026-05-02T08:01:52.729Z</time></trkpt><trkpt lat="44.076755" lon="11.2809783"><ele>765.0</ele><time>2026-05-02T08:01:53.728Z</time></trkpt><trkpt lat="44.0768717" lon="11.28109"><ele>765.0</ele><time>2026-05-02T08:01:54.728Z</time></trkpt><trkpt lat="44.07699" lon="11.2812"><ele>765.0</ele><time>2026-05-02T08:01:55.728Z</time></trkpt><trkpt lat="44.077125" lon="11.2812917"><ele>765.0</ele><time>2026-05-02T08:01:56.727Z</time></trkpt><trkpt lat="44.0772733" lon="11.2813733"><ele>764.6666666666666</ele><time>2026-05-02T08:01:57.729Z</time></trkpt><trkpt lat="44.0774333" lon="11.281455"><ele>764.3333333333333</ele><time>2026-05-02T08:01:58.728Z</time></trkpt><trkpt lat="44.077605" lon="11.281535"><ele>764.0</ele><time>2026-05-02T08:01:59.729Z</time></trkpt><trkpt lat="44.0777767" lon="11.2816217"><ele>764.0</ele><time>2026-05-02T08:02:00.728Z</time></trkpt><trkpt lat="44.07795" lon="11.2817083"><ele>764.0</ele><time>2026-05-02T08:02:01.729Z</time></trkpt><trkpt lat="44.0781233" lon="11.2817917"><ele>764.0</ele><time>2026-05-02T08:02:02.729Z</time></trkpt><trkpt lat="44.0782983" lon="11.2818767"><ele>767.3333333333333</ele><time>2026-05-02T08:02:03.729Z</time></trkpt><trkpt lat="44.0784717" lon="11.281965"><ele>770.6666666666666</ele><time>2026-05-02T08:02:04.729Z</time></trkpt><trkpt lat="44.07865" lon="11.28204"><ele>774.0</ele><time>2026-05-02T08:02:05.726Z</time></trkpt><trkpt lat="44.0788317" lon="11.2820883"><ele>774.0</ele><time>2026-05-02T08:02:06.729Z</time></trkpt><trkpt lat="44.0790217" lon="11.2821"><ele>774.0</ele><time>2026-05-02T08:02:07.729Z</time></trkpt><trkpt lat="44.079225" lon="11.282085"><ele>774.0</ele><time>2026-05-02T08:02:08.727Z</time></trkpt><trkpt lat="44.07943" lon="11.2820583"><ele>780.0</ele><time>2026-05-02T08:02:09.728Z</time></trkpt><trkpt lat="44.0796383" lon="11.2820317"><ele>786.0</ele><time>2026-05-02T08:02:10.728Z</time></trkpt><trkpt lat="44.0798483" lon="11.2820117"><ele>792.0</ele><time>2026-05-02T08:02:11.729Z</time></trkpt><trkpt lat="44.0800583" lon="11.28199"><ele>796.6666666666667</ele><time>2026-05-02T08:02:12.729Z</time></trkpt><trkpt lat="44.0802683" lon="11.281965"><ele>801.3333333333334</ele><time>2026-05-02T08:02:13.727Z</time></trkpt><trkpt lat="44.0804767" lon="11.2819317"><ele>806.0</ele><time>2026-05-02T08:02:14.727Z</time></trkpt><trkpt lat="44.0806867" lon="11.2818883"><ele>807.0</ele><time>2026-05-02T08:02:15.728Z</time></trkpt><trkpt lat="44.0808967" lon="11.2818317"><ele>808.0</ele><time>2026-05-02T08:02:16.728Z</time></trkpt><trkpt lat="44.08109" lon="11.2817717"><ele>809.0</ele><time>2026-05-02T08:02:17.728Z</time></trkpt><trkpt lat="44.0812633" lon="11.2816933"><ele>809.0</ele><time>2026-05-02T08:02:18.727Z</time></trkpt><trkpt lat="44.0814233" lon="11.281595"><ele>809.0</ele><time>2026-05-02T08:02:19.728Z</time></trkpt><trkpt lat="44.0815517" lon="11.2814633"><ele>809.0</ele><time>2026-05-02T08:02:20.729Z</time></trkpt><trkpt lat="44.0816617" lon="11.2813183"><ele>813.0</ele><time>2026-05-02T08:02:21.729Z</time></trkpt><trkpt lat="44.0817533" lon="11.2811767"><ele>817.0</ele><time>2026-05-02T08:02:22.728Z</time></trkpt><trkpt lat="44.081845" lon="11.2810483"><ele>821.0</ele><time>2026-05-02T08:02:23.728Z</time></trkpt><trkpt lat="44.0819333" lon="11.28097"><ele>825.0</ele><time>2026-05-02T08:02:24.728Z</time></trkpt><trkpt lat="44.0820267" lon="11.2809283"><ele>825.0</ele><time>2026-05-02T08:02:25.728Z</time></trkpt><trkpt lat="44.0821267" lon="11.2809217"><ele>825.0</ele><time>2026-05-02T08:02:26.729Z</time></trkpt><trkpt lat="44.08222" lon="11.2809483"><ele>825.0</ele><time>2026-05-02T08:02:27.728Z</time></trkpt><trkpt lat="44.082315" lon="11.2810267"><ele>825.0</ele><time>2026-05-02T08:02:28.727Z</time></trkpt><trkpt lat="44.082385" lon="11.28116"><ele>825.0</ele><time>2026-05-02T08:02:29.727Z</time></trkpt><trkpt lat="44.0824267" lon="11.2813267"><ele>823.3333333333333</ele><time>2026-05-02T08:02:30.726Z</time></trkpt><trkpt lat="44.082455" lon="11.281525"><ele>821.6666666666666</ele><time>2026-05-02T08:02:31.727Z</time></trkpt><trkpt lat="44.0824717" lon="11.2817583"><ele>820.0</ele><time>2026-05-02T08:02:32.729Z</time></trkpt><trkpt lat="44.0824733" lon="11.281995"><ele>820.0</ele><time>2026-05-02T08:02:33.729Z</time></trkpt><trkpt lat="44.0824817" lon="11.2822217"><ele>820.0</ele><time>2026-05-02T08:02:34.727Z</time></trkpt><trkpt lat="44.0825183" lon="11.2824317"><ele>820.0</ele><time>2026-05-02T08:02:35.729Z</time></trkpt><trkpt lat="44.0825883" lon="11.2826717"><ele>820.3333333333333</ele><time>2026-05-02T08:02:36.73Z</time></trkpt><trkpt lat="44.08267" lon="11.2829"><ele>820.6666666666667</ele><time>2026-05-02T08:02:37.729Z</time></trkpt><trkpt lat="44.08275" lon="11.2830867"><ele>821.0</ele><time>2026-05-02T08:02:38.728Z</time></trkpt><trkpt lat="44.08281" lon="11.2832383"><ele>821.0</ele><time>2026-05-02T08:02:39.728Z</time></trkpt><trkpt lat="44.082865" lon="11.283345"><ele>821.0</ele><time>2026-05-02T08:02:40.726Z</time></trkpt><trkpt lat="44.0829267" lon="11.2833933"><ele>821.0</ele><time>2026-05-02T08:02:41.727Z</time></trkpt><trkpt lat="44.0829917" lon="11.2833667"><ele>821.0</ele><time>2026-05-02T08:02:42.729Z</time></trkpt><trkpt lat="44.0830367" lon="11.2832517"><ele>821.0</ele><time>2026-05-02T08:02:44.728Z</time></trkpt><trkpt lat="44.0829633" lon="11.28303"><ele>821.0</ele><time>2026-05-02T08:02:45.728Z</time></trkpt><trkpt lat="44.0829017" lon="11.282805"><ele>821.0</ele><time>2026-05-02T08:02:46.727Z</time></trkpt><trkpt lat="44.0828467" lon="11.2825783"><ele>821.0</ele><time>2026-05-02T08:02:47.727Z</time></trkpt><trkpt lat="44.0827983" lon="11.282355"><ele>820.75</ele><time>2026-05-02T08:02:48.727Z</time></trkpt><trkpt lat="44.082775" lon="11.2821467"><ele>820.5</ele><time>2026-05-02T08:02:49.728Z</time></trkpt><trkpt lat="44.08276" lon="11.2819583"><ele>820.25</ele><time>2026-05-02T08:02:50.728Z</time></trkpt><trkpt lat="44.0827783" lon="11.2818217"><ele>820.0</ele><time>2026-05-02T08:02:51.729Z</time></trkpt><trkpt lat="44.0828283" lon="11.2817167"><ele>820.0</ele><time>2026-05-02T08:02:52.729Z</time></trkpt><trkpt lat="44.0829117" lon="11.281645"><ele>820.0</ele><time>2026-05-02T08:02:53.728Z</time></trkpt><trkpt lat="44.0830067" lon="11.2815733"><ele>820.0</ele><time>2026-05-02T08:02:54.728Z</time></trkpt><trkpt lat="44.0830883" lon="11.2814783"><ele>820.0</ele><time>2026-05-02T08:02:55.729Z</time></trkpt><trkpt lat="44.0831417" lon="11.2813533"><ele>820.0</ele><time>2026-05-02T08:02:56.728Z</time></trkpt><trkpt lat="44.0831867" lon="11.28123"><ele>819.75</ele><time>2026-05-02T08:02:57.729Z</time></trkpt><trkpt lat="44.083245" lon="11.2811367"><ele>819.5</ele><time>2026-05-02T08:02:58.729Z</time></trkpt><trkpt lat="44.0833167" lon="11.2810783"><ele>819.25</ele><time>2026-05-02T08:02:59.729Z</time></trkpt><trkpt lat="44.0834433" lon="11.2811217"><ele>819.0</ele><time>2026-05-02T08:03:00.726Z</time></trkpt><trkpt lat="44.0836033" lon="11.28119"><ele>823.3333333333333</ele><time>2026-05-02T08:03:01.728Z</time></trkpt><trkpt lat="44.0837867" lon="11.281285"><ele>827.6666666666666</ele><time>2026-05-02T08:03:02.727Z</time></trkpt><trkpt lat="44.0839667" lon="11.281395"><ele>832.0</ele><time>2026-05-02T08:03:03.729Z</time></trkpt><trkpt lat="44.08411" lon="11.2815167"><ele>836.6</ele><time>2026-05-02T08:03:04.729Z</time></trkpt><trkpt lat="44.084215" lon="11.2816533"><ele>841.2</ele><time>2026-05-02T08:03:05.726Z</time></trkpt><trkpt lat="44.08431" lon="11.28176"><ele>845.8</ele><time>2026-05-02T08:03:06.728Z</time></trkpt><trkpt lat="44.0844017" lon="11.2818"><ele>850.4</ele><time>2026-05-02T08:03:07.729Z</time></trkpt><trkpt lat="44.08448" lon="11.281785"><ele>855.0</ele><time>2026-05-02T08:03:08.728Z</time></trkpt><trkpt lat="44.084535" lon="11.2817117"><ele>855.0</ele><time>2026-05-02T08:03:09.728Z</time></trkpt><trkpt lat="44.08453" lon="11.2815417"><ele>855.0</ele><time>2026-05-02T08:03:10.728Z</time></trkpt><trkpt lat="44.0845517" lon="11.281405"><ele>855.0</ele><time>2026-05-02T08:03:11.731Z</time></trkpt><trkpt lat="44.0845917" lon="11.2812817"><ele>855.0</ele><time>2026-05-02T08:03:12.728Z</time></trkpt><trkpt lat="44.084695" lon="11.2811783"><ele>855.0</ele><time>2026-05-02T08:03:13.727Z</time></trkpt><trkpt lat="44.0848033" lon="11.2811167"><ele>854.0</ele><time>2026-05-02T08:03:14.727Z</time></trkpt><trkpt lat="44.0849033" lon="11.2811033"><ele>853.0</ele><time>2026-05-02T08:03:15.727Z</time></trkpt><trkpt lat="44.0849933" lon="11.281155"><ele>852.0</ele><time>2026-05-02T08:03:16.727Z</time></trkpt><trkpt lat="44.085065" lon="11.2812583"><ele>851.0</ele><time>2026-05-02T08:03:17.729Z</time></trkpt><trkpt lat="44.0851383" lon="11.2813667"><ele>850.0</ele><time>2026-05-02T08:03:18.727Z</time></trkpt><trkpt lat="44.0852417" lon="11.2814517"><ele>855.6666666666666</ele><time>2026-05-02T08:03:19.728Z</time></trkpt><trkpt lat="44.08539" lon="11.2815133"><ele>861.3333333333333</ele><time>2026-05-02T08:03:20.727Z</time></trkpt><trkpt lat="44.085555" lon="11.281555"><ele>867.0</ele><time>2026-05-02T08:03:21.728Z</time></trkpt><trkpt lat="44.085715" lon="11.2816233"><ele>868.5</ele><time>2026-05-02T08:03:22.727Z</time></trkpt><trkpt lat="44.0858567" lon="11.2817467"><ele>870.0</ele><time>2026-05-02T08:03:23.727Z</time></trkpt><trkpt lat="44.0859617" lon="11.28188"><ele>871.5</ele><time>2026-05-02T08:03:24.727Z</time></trkpt><trkpt lat="44.0860483" lon="11.281995"><ele>873.0</ele><time>2026-05-02T08:03:25.727Z</time></trkpt><trkpt lat="44.0861083" lon="11.2820683"><ele>873.0</ele><time>2026-05-02T08:03:26.727Z</time></trkpt><trkpt lat="44.0861817" lon="11.2820883"><ele>873.0</ele><time>2026-05-02T08:03:27.726Z</time></trkpt><trkpt lat="44.08624" lon="11.2818817"><ele>873.0</ele><time>2026-05-02T08:03:29.728Z</time></trkpt><trkpt lat="44.0862883" lon="11.2817433"><ele>873.0</ele><time>2026-05-02T08:03:30.728Z</time></trkpt><trkpt lat="44.0863567" lon="11.2816483"><ele>873.0</ele><time>2026-05-02T08:03:31.727Z</time></trkpt><trkpt lat="44.0864333" lon="11.2816017"><ele>873.0</ele><time>2026-05-02T08:03:32.727Z</time></trkpt><trkpt lat="44.0865233" lon="11.2816467"><ele>873.0</ele><time>2026-05-02T08:03:33.726Z</time></trkpt><trkpt lat="44.086605" lon="11.2817317"><ele>873.0</ele><time>2026-05-02T08:03:34.728Z</time></trkpt><trkpt lat="44.0867" lon="11.2818017"><ele>873.0</ele><time>2026-05-02T08:03:35.728Z</time></trkpt><trkpt lat="44.0867983" lon="11.2818083"><ele>873.0</ele><time>2026-05-02T08:03:36.727Z</time></trkpt><trkpt lat="44.0868833" lon="11.2817483"><ele>875.25</ele><time>2026-05-02T08:03:37.729Z</time></trkpt><trkpt lat="44.0869417" lon="11.2816517"><ele>877.5</ele><time>2026-05-02T08:03:38.729Z</time></trkpt><trkpt lat="44.0869433" lon="11.2814617"><ele>879.75</ele><time>2026-05-02T08:03:39.726Z</time></trkpt><trkpt lat="44.08692" lon="11.2812817"><ele>882.0</ele><time>2026-05-02T08:03:40.727Z</time></trkpt><trkpt lat="44.0869167" lon="11.281105"><ele>882.0</ele><time>2026-05-02T08:03:41.727Z</time></trkpt><trkpt lat="44.0869533" lon="11.2809317"><ele>882.0</ele><time>2026-05-02T08:03:42.727Z</time></trkpt><trkpt lat="44.0870433" lon="11.2807667"><ele>882.0</ele><time>2026-05-02T08:03:43.728Z</time></trkpt><trkpt lat="44.0871483" lon="11.28062"><ele>882.0</ele><time>2026-05-02T08:03:44.726Z</time></trkpt><trkpt lat="44.0872567" lon="11.2805117"><ele>880.0</ele><time>2026-05-02T08:03:45.726Z</time></trkpt><trkpt lat="44.08736" lon="11.2804717"><ele>878.0</ele><time>2026-05-02T08:03:46.727Z</time></trkpt><trkpt lat="44.087465" lon="11.2805"><ele>876.0</ele><time>2026-05-02T08:03:47.727Z</time></trkpt><trkpt lat="44.0875967" lon="11.2806233"><ele>874.0</ele><time>2026-05-02T08:03:48.728Z</time></trkpt><trkpt lat="44.0877267" lon="11.2807917"><ele>880.6666666666666</ele><time>2026-05-02T08:03:49.73Z</time></trkpt><trkpt lat="44.08784" lon="11.2809667"><ele>887.3333333333333</ele><time>2026-05-02T08:03:50.728Z</time></trkpt><trkpt lat="44.0879533" lon="11.28112"><ele>894.0</ele><time>2026-05-02T08:03:51.728Z</time></trkpt><trkpt lat="44.08808" lon="11.2812583"><ele>894.0</ele><time>2026-05-02T08:03:52.728Z</time></trkpt><trkpt lat="44.0882267" lon="11.2813467"><ele>894.0</ele><time>2026-05-02T08:03:53.729Z</time></trkpt><trkpt lat="44.0884" lon="11.2813717"><ele>894.0</ele><time>2026-05-02T08:03:54.729Z</time></trkpt><trkpt lat="44.0885917" lon="11.2813783"><ele>896.3333333333333</ele><time>2026-05-02T08:03:55.727Z</time></trkpt><trkpt lat="44.0887917" lon="11.2814083"><ele>898.6666666666666</ele><time>2026-05-02T08:03:56.729Z</time></trkpt><trkpt lat="44.0889833" lon="11.28145"><ele>901.0</ele><time>2026-05-02T08:03:57.728Z</time></trkpt><trkpt lat="44.0891733" lon="11.2814617"><ele>897.6666666666666</ele><time>2026-05-02T08:03:58.728Z</time></trkpt><trkpt lat="44.08936" lon="11.281415"><ele>894.3333333333333</ele><time>2026-05-02T08:03:59.729Z</time></trkpt><trkpt lat="44.089535" lon="11.2813267"><ele>891.0</ele><time>2026-05-02T08:04:00.729Z</time></trkpt><trkpt lat="44.0897083" lon="11.281225"><ele>891.0</ele><time>2026-05-02T08:04:01.728Z</time></trkpt><trkpt lat="44.0898767" lon="11.2811517"><ele>891.0</ele><time>2026-05-02T08:04:02.728Z</time></trkpt><trkpt lat="44.0900383" lon="11.2811017"><ele>891.0</ele><time>2026-05-02T08:04:03.727Z</time></trkpt><trkpt lat="44.0901983" lon="11.2810983"><ele>892.0</ele><time>2026-05-02T08:04:04.728Z</time></trkpt><trkpt lat="44.0903533" lon="11.2811217"><ele>893.0</ele><time>2026-05-02T08:04:05.727Z</time></trkpt><trkpt lat="44.0905" lon="11.281145"><ele>894.0</ele><time>2026-05-02T08:04:06.728Z</time></trkpt><trkpt lat="44.09065" lon="11.281135"><ele>894.6666666666667</ele><time>2026-05-02T08:04:07.726Z</time></trkpt><trkpt lat="44.090795" lon="11.2810683"><ele>895.3333333333334</ele><time>2026-05-02T08:04:08.728Z</time></trkpt><trkpt lat="44.0909367" lon="11.2809267"><ele>896.0</ele><time>2026-05-02T08:04:09.726Z</time></trkpt><trkpt lat="44.0910817" lon="11.2807683"><ele>896.0</ele><time>2026-05-02T08:04:10.728Z</time></trkpt><trkpt lat="44.0912433" lon="11.28061"><ele>896.0</ele><time>2026-05-02T08:04:11.727Z</time></trkpt><trkpt lat="44.0914183" lon="11.2804867"><ele>896.0</ele><time>2026-05-02T08:04:12.726Z</time></trkpt><trkpt lat="44.0916067" lon="11.280385"><ele>892.6666666666667</ele><time>2026-05-02T08:04:13.728Z</time></trkpt><trkpt lat="44.09179" lon="11.2802783"><ele>889.3333333333333</ele><time>2026-05-02T08:04:14.727Z</time></trkpt><trkpt lat="44.0919617" lon="11.280185"><ele>886.0</ele><time>2026-05-02T08:04:15.727Z</time></trkpt><trkpt lat="44.09212" lon="11.2800917"><ele>886.0</ele><time>2026-05-02T08:04:16.727Z</time></trkpt><trkpt lat="44.0922567" lon="11.2799717"><ele>886.0</ele><time>2026-05-02T08:04:17.729Z</time></trkpt><trkpt lat="44.09237" lon="11.2798183"><ele>886.0</ele><time>2026-05-02T08:04:18.728Z</time></trkpt><trkpt lat="44.09246" lon="11.2796233"><ele>889.6666666666666</ele><time>2026-05-02T08:04:19.727Z</time></trkpt><trkpt lat="44.092525" lon="11.2793933"><ele>893.3333333333333</ele><time>2026-05-02T08:04:20.73Z</time></trkpt><trkpt lat="44.0925717" lon="11.2791483"><ele>897.0</ele><time>2026-05-02T08:04:21.726Z</time></trkpt><trkpt lat="44.09262" lon="11.278935"><ele>895.5</ele><time>2026-05-02T08:04:22.729Z</time></trkpt><trkpt lat="44.0926733" lon="11.27875"><ele>894.0</ele><time>2026-05-02T08:04:23.729Z</time></trkpt><trkpt lat="44.0927467" lon="11.2785983"><ele>892.5</ele><time>2026-05-02T08:04:24.727Z</time></trkpt><trkpt lat="44.09284" lon="11.2784817"><ele>891.0</ele><time>2026-05-02T08:04:25.726Z</time></trkpt><trkpt lat="44.0929533" lon="11.2783967"><ele>891.0</ele><time>2026-05-02T08:04:26.729Z</time></trkpt><trkpt lat="44.0930867" lon="11.2783567"><ele>891.0</ele><time>2026-05-02T08:04:27.728Z</time></trkpt><trkpt lat="44.09322" lon="11.2783317"><ele>891.0</ele><time>2026-05-02T08:04:28.729Z</time></trkpt><trkpt lat="44.0933483" lon="11.2782983"><ele>891.0</ele><time>2026-05-02T08:04:29.728Z</time></trkpt><trkpt lat="44.093465" lon="11.2782417"><ele>892.5</ele><time>2026-05-02T08:04:30.73Z</time></trkpt><trkpt lat="44.093575" lon="11.27815"><ele>894.0</ele><time>2026-05-02T08:04:31.729Z</time></trkpt><trkpt lat="44.0936717" lon="11.27803"><ele>895.5</ele><time>2026-05-02T08:04:32.729Z</time></trkpt><trkpt lat="44.0937517" lon="11.277855"><ele>897.0</ele><time>2026-05-02T08:04:33.729Z</time></trkpt><trkpt lat="44.0938333" lon="11.277665"><ele>897.0</ele><time>2026-05-02T08:04:34.728Z</time></trkpt><trkpt lat="44.0939167" lon="11.277485"><ele>897.0</ele><time>2026-05-02T08:04:35.729Z</time></trkpt><trkpt lat="44.0939967" lon="11.2773117"><ele>897.0</ele><time>2026-05-02T08:04:36.728Z</time></trkpt><trkpt lat="44.0940633" lon="11.2771483"><ele>897.0</ele><time>2026-05-02T08:04:37.729Z</time></trkpt><trkpt lat="44.0941117" lon="11.2769983"><ele>898.75</ele><time>2026-05-02T08:04:38.729Z</time></trkpt><trkpt lat="44.094155" lon="11.2768517"><ele>900.5</ele><time>2026-05-02T08:04:39.728Z</time></trkpt><trkpt lat="44.09419" lon="11.2766983"><ele>902.25</ele><time>2026-05-02T08:04:40.728Z</time></trkpt><trkpt lat="44.0942567" lon="11.2765467"><ele>904.0</ele><time>2026-05-02T08:04:41.727Z</time></trkpt><trkpt lat="44.0943333" lon="11.2763967"><ele>904.0</ele><time>2026-05-02T08:04:42.727Z</time></trkpt><trkpt lat="44.094405" lon="11.2762483"><ele>904.0</ele><time>2026-05-02T08:04:43.728Z</time></trkpt><trkpt lat="44.094475" lon="11.2761033"><ele>904.0</ele><time>2026-05-02T08:04:44.729Z</time></trkpt><trkpt lat="44.0945417" lon="11.2759633"><ele>904.0</ele><time>2026-05-02T08:04:45.728Z</time></trkpt><trkpt lat="44.0946117" lon="11.2758283"><ele>904.0</ele><time>2026-05-02T08:04:46.729Z</time></trkpt><trkpt lat="44.09469" lon="11.2757017"><ele>904.0</ele><time>2026-05-02T08:04:47.728Z</time></trkpt><trkpt lat="44.0947767" lon="11.27559"><ele>904.0</ele><time>2026-05-02T08:04:48.727Z</time></trkpt><trkpt lat="44.09488" lon="11.2755"><ele>904.0</ele><time>2026-05-02T08:04:49.729Z</time></trkpt><trkpt lat="44.0949933" lon="11.2754267"><ele>906.75</ele><time>2026-05-02T08:04:50.728Z</time></trkpt><trkpt lat="44.0951133" lon="11.2753717"><ele>909.5</ele><time>2026-05-02T08:04:51.728Z</time></trkpt><trkpt lat="44.0952483" lon="11.275335"><ele>912.25</ele><time>2026-05-02T08:04:52.727Z</time></trkpt><trkpt lat="44.0954017" lon="11.27532"><ele>915.0</ele><time>2026-05-02T08:04:53.728Z</time></trkpt><trkpt lat="44.095565" lon="11.2753283"><ele>915.0</ele><time>2026-05-02T08:04:54.726Z</time></trkpt><trkpt lat="44.095735" lon="11.2753383"><ele>915.0</ele><time>2026-05-02T08:04:55.726Z</time></trkpt><trkpt lat="44.0959167" lon="11.2753383"><ele>915.0</ele><time>2026-05-02T08:04:56.728Z</time></trkpt><trkpt lat="44.0961033" lon="11.2752933"><ele>916.3333333333333</ele><time>2026-05-02T08:04:57.729Z</time></trkpt><trkpt lat="44.0963" lon="11.2752433"><ele>917.6666666666666</ele><time>2026-05-02T08:04:58.729Z</time></trkpt><trkpt lat="44.0965" lon="11.2751833"><ele>919.0</ele><time>2026-05-02T08:04:59.728Z</time></trkpt><trkpt lat="44.0966933" lon="11.275115"><ele>919.6666666666666</ele><time>2026-05-02T08:05:00.728Z</time></trkpt><trkpt lat="44.0968817" lon="11.27504"><ele>920.3333333333333</ele><time>2026-05-02T08:05:01.727Z</time></trkpt><trkpt lat="44.0970717" lon="11.2749867"><ele>921.0</ele><time>2026-05-02T08:05:02.728Z</time></trkpt><trkpt lat="44.0972717" lon="11.274965"><ele>918.6666666666667</ele><time>2026-05-02T08:05:03.726Z</time></trkpt><trkpt lat="44.0974817" lon="11.2749933"><ele>916.3333333333334</ele><time>2026-05-02T08:05:04.727Z</time></trkpt><trkpt lat="44.0976917" lon="11.2750517"><ele>914.0</ele><time>2026-05-02T08:05:05.727Z</time></trkpt><trkpt lat="44.097895" lon="11.2751183"><ele>914.0</ele><time>2026-05-02T08:05:06.729Z</time></trkpt><trkpt lat="44.098095" lon="11.2751883"><ele>914.0</ele><time>2026-05-02T08:05:07.727Z</time></trkpt><trkpt lat="44.09827" lon="11.2752617"><ele>914.0</ele><time>2026-05-02T08:05:08.728Z</time></trkpt><trkpt lat="44.09842" lon="11.2753133"><ele>913.5</ele><time>2026-05-02T08:05:09.728Z</time></trkpt><trkpt lat="44.0985633" lon="11.2753317"><ele>913.0</ele><time>2026-05-02T08:05:10.728Z</time></trkpt><trkpt lat="44.0987017" lon="11.2752867"><ele>912.5</ele><time>2026-05-02T08:05:11.727Z</time></trkpt><trkpt lat="44.0988467" lon="11.2752"><ele>912.0</ele><time>2026-05-02T08:05:12.728Z</time></trkpt><trkpt lat="44.0990067" lon="11.275145"><ele>909.3333333333333</ele><time>2026-05-02T08:05:13.727Z</time></trkpt><trkpt lat="44.09916" lon="11.2751133"><ele>906.6666666666666</ele><time>2026-05-02T08:05:14.728Z</time></trkpt><trkpt lat="44.099315" lon="11.27512"><ele>904.0</ele><time>2026-05-02T08:05:15.728Z</time></trkpt><trkpt lat="44.09947" lon="11.27513"><ele>904.0</ele><time>2026-05-02T08:05:16.728Z</time></trkpt><trkpt lat="44.099615" lon="11.27512"><ele>904.0</ele><time>2026-05-02T08:05:17.727Z</time></trkpt><trkpt lat="44.0997533" lon="11.2751"><ele>904.0</ele><time>2026-05-02T08:05:18.729Z</time></trkpt><trkpt lat="44.09989" lon="11.27509"><ele>904.0</ele><time>2026-05-02T08:05:19.729Z</time></trkpt><trkpt lat="44.1000267" lon="11.2751033"><ele>903.0</ele><time>2026-05-02T08:05:20.728Z</time></trkpt><trkpt lat="44.1001633" lon="11.2751583"><ele>902.0</ele><time>2026-05-02T08:05:21.727Z</time></trkpt><trkpt lat="44.1002933" lon="11.2752583"><ele>901.0</ele><time>2026-05-02T08:05:22.728Z</time></trkpt><trkpt lat="44.10041" lon="11.2754017"><ele>900.0</ele><time>2026-05-02T08:05:23.727Z</time></trkpt><trkpt lat="44.1005267" lon="11.27556"><ele>898.75</ele><time>2026-05-02T08:05:24.729Z</time></trkpt><trkpt lat="44.1006417" lon="11.2757233"><ele>897.5</ele><time>2026-05-02T08:05:25.727Z</time></trkpt><trkpt lat="44.100745" lon="11.27587"><ele>896.25</ele><time>2026-05-02T08:05:26.727Z</time></trkpt><trkpt lat="44.1008517" lon="11.27598"><ele>895.0</ele><time>2026-05-02T08:05:27.729Z</time></trkpt><trkpt lat="44.1009717" lon="11.27606"><ele>895.0</ele><time>2026-05-02T08:05:28.728Z</time></trkpt><trkpt lat="44.101095" lon="11.2761083"><ele>895.0</ele><time>2026-05-02T08:05:29.728Z</time></trkpt><trkpt lat="44.10123" lon="11.2761117"><ele>895.0</ele><time>2026-05-02T08:05:30.728Z</time></trkpt><trkpt lat="44.10137" lon="11.2760867"><ele>895.0</ele><time>2026-05-02T08:05:31.728Z</time></trkpt><trkpt lat="44.1015083" lon="11.276035"><ele>895.5</ele><time>2026-05-02T08:05:32.728Z</time></trkpt><trkpt lat="44.1016383" lon="11.276025"><ele>896.0</ele><time>2026-05-02T08:05:33.728Z</time></trkpt><trkpt lat="44.1017517" lon="11.27604"><ele>896.5</ele><time>2026-05-02T08:05:34.727Z</time></trkpt><trkpt lat="44.10185" lon="11.2761333"><ele>897.0</ele><time>2026-05-02T08:05:35.729Z</time></trkpt><trkpt lat="44.10193" lon="11.2762483"><ele>897.0</ele><time>2026-05-02T08:05:36.728Z</time></trkpt><trkpt lat="44.1019933" lon="11.27638"><ele>897.0</ele><time>2026-05-02T08:05:37.729Z</time></trkpt><trkpt lat="44.10205" lon="11.2764967"><ele>897.0</ele><time>2026-05-02T08:05:38.727Z</time></trkpt><trkpt lat="44.1020983" lon="11.2766283"><ele>897.0</ele><time>2026-05-02T08:05:39.727Z</time></trkpt><trkpt lat="44.102145" lon="11.2767683"><ele>897.0</ele><time>2026-05-02T08:05:40.728Z</time></trkpt><trkpt lat="44.1021867" lon="11.2769217"><ele>894.5</ele><time>2026-05-02T08:05:41.728Z</time></trkpt><trkpt lat="44.1022183" lon="11.2770933"><ele>892.0</ele><time>2026-05-02T08:05:42.728Z</time></trkpt><trkpt lat="44.1022333" lon="11.277275"><ele>889.5</ele><time>2026-05-02T08:05:43.729Z</time></trkpt><trkpt lat="44.10224" lon="11.27746"><ele>887.0</ele><time>2026-05-02T08:05:44.728Z</time></trkpt><trkpt lat="44.1022483" lon="11.2776433"><ele>886.0</ele><time>2026-05-02T08:05:45.728Z</time></trkpt><trkpt lat="44.1022683" lon="11.2778183"><ele>885.0</ele><time>2026-05-02T08:05:46.729Z</time></trkpt><trkpt lat="44.1023" lon="11.2779767"><ele>884.0</ele><time>2026-05-02T08:05:47.729Z</time></trkpt><trkpt lat="44.1023567" lon="11.2781083"><ele>883.0</ele><time>2026-05-02T08:05:48.729Z</time></trkpt><trkpt lat="44.1024417" lon="11.278225"><ele>883.0</ele><time>2026-05-02T08:05:49.726Z</time></trkpt><trkpt lat="44.10255" lon="11.27833"><ele>883.0</ele><time>2026-05-02T08:05:50.729Z</time></trkpt><trkpt lat="44.1026733" lon="11.2784367"><ele>883.0</ele><time>2026-05-02T08:05:51.728Z</time></trkpt><trkpt lat="44.1028" lon="11.2785567"><ele>883.0</ele><time>2026-05-02T08:05:52.727Z</time></trkpt><trkpt lat="44.1029367" lon="11.2786817"><ele>883.0</ele><time>2026-05-02T08:05:53.728Z</time></trkpt><trkpt lat="44.10307" lon="11.278815"><ele>883.0</ele><time>2026-05-02T08:05:54.729Z</time></trkpt><trkpt lat="44.1032017" lon="11.2789533"><ele>883.0</ele><time>2026-05-02T08:05:55.728Z</time></trkpt><trkpt lat="44.103325" lon="11.279105"><ele>882.6666666666666</ele><time>2026-05-02T08:05:56.729Z</time></trkpt><trkpt lat="44.1034367" lon="11.2792583"><ele>882.3333333333333</ele><time>2026-05-02T08:05:57.728Z</time></trkpt><trkpt lat="44.1035383" lon="11.2794167"><ele>882.0</ele><time>2026-05-02T08:05:58.727Z</time></trkpt><trkpt lat="44.1036417" lon="11.279575"><ele>882.0</ele><time>2026-05-02T08:05:59.728Z</time></trkpt><trkpt lat="44.1037483" lon="11.2797433"><ele>882.0</ele><time>2026-05-02T08:06:00.727Z</time></trkpt><trkpt lat="44.1038683" lon="11.2799083"><ele>882.0</ele><time>2026-05-02T08:06:01.727Z</time></trkpt><trkpt lat="44.1039967" lon="11.2800767"><ele>882.6666666666667</ele><time>2026-05-02T08:06:02.727Z</time></trkpt><trkpt lat="44.1041267" lon="11.280245"><ele>883.3333333333334</ele><time>2026-05-02T08:06:03.728Z</time></trkpt><trkpt lat="44.1042583" lon="11.2804167"><ele>884.0</ele><time>2026-05-02T08:06:04.729Z</time></trkpt><trkpt lat="44.10439" lon="11.2805917"><ele>882.0</ele><time>2026-05-02T08:06:05.728Z</time></trkpt><trkpt lat="44.10453" lon="11.2807717"><ele>880.0</ele><time>2026-05-02T08:06:06.728Z</time></trkpt><trkpt lat="44.1046733" lon="11.2809467"><ele>878.0</ele><time>2026-05-02T08:06:07.728Z</time></trkpt><trkpt lat="44.1048183" lon="11.2811317"><ele>878.6666666666667</ele><time>2026-05-02T08:06:08.729Z</time></trkpt><trkpt lat="44.10496" lon="11.281325"><ele>879.3333333333333</ele><time>2026-05-02T08:06:09.729Z</time></trkpt><trkpt lat="44.105105" lon="11.2815283"><ele>880.0</ele><time>2026-05-02T08:06:10.728Z</time></trkpt><trkpt lat="44.105255" lon="11.28174"><ele>880.0</ele><time>2026-05-02T08:06:11.727Z</time></trkpt><trkpt lat="44.1054033" lon="11.2819517"><ele>880.0</ele><time>2026-05-02T08:06:12.729Z</time></trkpt><trkpt lat="44.10555" lon="11.2821633"><ele>880.0</ele><time>2026-05-02T08:06:13.729Z</time></trkpt><trkpt lat="44.1056933" lon="11.2823733"><ele>879.6666666666666</ele><time>2026-05-02T08:06:14.728Z</time></trkpt><trkpt lat="44.1058283" lon="11.282585"><ele>879.3333333333333</ele><time>2026-05-02T08:06:15.729Z</time></trkpt><trkpt lat="44.1059533" lon="11.2828"><ele>879.0</ele><time>2026-05-02T08:06:16.727Z</time></trkpt><trkpt lat="44.1060683" lon="11.2830067"><ele>875.6666666666667</ele><time>2026-05-02T08:06:17.729Z</time></trkpt><trkpt lat="44.1061783" lon="11.2832033"><ele>872.3333333333334</ele><time>2026-05-02T08:06:18.727Z</time></trkpt><trkpt lat="44.1062917" lon="11.2833833"><ele>869.0</ele><time>2026-05-02T08:06:19.727Z</time></trkpt><trkpt lat="44.1064167" lon="11.2835467"><ele>869.0</ele><time>2026-05-02T08:06:20.727Z</time></trkpt><trkpt lat="44.1065517" lon="11.2836783"><ele>869.0</ele><time>2026-05-02T08:06:21.727Z</time></trkpt><trkpt lat="44.1067017" lon="11.2837683"><ele>869.0</ele><time>2026-05-02T08:06:22.728Z</time></trkpt><trkpt lat="44.1068567" lon="11.2838283"><ele>871.0</ele><time>2026-05-02T08:06:23.727Z</time></trkpt><trkpt lat="44.10701" lon="11.283855"><ele>873.0</ele><time>2026-05-02T08:06:24.728Z</time></trkpt><trkpt lat="44.1071767" lon="11.28384"><ele>875.0</ele><time>2026-05-02T08:06:25.728Z</time></trkpt><trkpt lat="44.1073517" lon="11.2838233"><ele>875.0</ele><time>2026-05-02T08:06:26.728Z</time></trkpt><trkpt lat="44.1075233" lon="11.283815"><ele>875.0</ele><time>2026-05-02T08:06:27.728Z</time></trkpt><trkpt lat="44.10769" lon="11.2838033"><ele>875.0</ele><time>2026-05-02T08:06:28.728Z</time></trkpt><trkpt lat="44.1078467" lon="11.2837933"><ele>875.0</ele><time>2026-05-02T08:06:29.728Z</time></trkpt><trkpt lat="44.108" lon="11.283785"><ele>875.0</ele><time>2026-05-02T08:06:30.727Z</time></trkpt><trkpt lat="44.108145" lon="11.28375"><ele>875.0</ele><time>2026-05-02T08:06:31.727Z</time></trkpt><trkpt lat="44.1082767" lon="11.283685"><ele>875.0</ele><time>2026-05-02T08:06:32.726Z</time></trkpt><trkpt lat="44.1083967" lon="11.28362"><ele>872.25</ele><time>2026-05-02T08:06:33.725Z</time></trkpt><trkpt lat="44.1085167" lon="11.2835617"><ele>869.5</ele><time>2026-05-02T08:06:34.726Z</time></trkpt><trkpt lat="44.10864" lon="11.28352"><ele>866.75</ele><time>2026-05-02T08:06:35.726Z</time></trkpt><trkpt lat="44.1087633" lon="11.2834967"><ele>864.0</ele><time>2026-05-02T08:06:36.725Z</time></trkpt><trkpt lat="44.1088883" lon="11.2834917"><ele>864.0</ele><time>2026-05-02T08:06:37.727Z</time></trkpt><trkpt lat="44.1090117" lon="11.2834917"><ele>864.0</ele><time>2026-05-02T08:06:38.726Z</time></trkpt><trkpt lat="44.109135" lon="11.2835017"><ele>864.0</ele><time>2026-05-02T08:06:39.726Z</time></trkpt><trkpt lat="44.109255" lon="11.283525"><ele>864.0</ele><time>2026-05-02T08:06:40.725Z</time></trkpt><trkpt lat="44.1093733" lon="11.283545"><ele>863.0</ele><time>2026-05-02T08:06:41.725Z</time></trkpt><trkpt lat="44.109495" lon="11.28357"><ele>862.0</ele><time>2026-05-02T08:06:42.728Z</time></trkpt><trkpt lat="44.1096167" lon="11.2836083"><ele>861.0</ele><time>2026-05-02T08:06:43.726Z</time></trkpt><trkpt lat="44.1097383" lon="11.2836717"><ele>860.0</ele><time>2026-05-02T08:06:44.727Z</time></trkpt><trkpt lat="44.1098533" lon="11.28375"><ele>860.0</ele><time>2026-05-02T08:06:45.725Z</time></trkpt><trkpt lat="44.10997" lon="11.2838417"><ele>860.0</ele><time>2026-05-02T08:06:46.728Z</time></trkpt><trkpt lat="44.1100883" lon="11.28394"><ele>860.0</ele><time>2026-05-02T08:06:47.728Z</time></trkpt><trkpt lat="44.1102083" lon="11.284045"><ele>860.0</ele><time>2026-05-02T08:06:48.727Z</time></trkpt><trkpt lat="44.1103267" lon="11.2841467"><ele>858.25</ele><time>2026-05-02T08:06:49.729Z</time></trkpt><trkpt lat="44.1104467" lon="11.2842467"><ele>856.5</ele><time>2026-05-02T08:06:50.728Z</time></trkpt><trkpt lat="44.11057" lon="11.2843467"><ele>854.75</ele><time>2026-05-02T08:06:51.728Z</time></trkpt><trkpt lat="44.110695" lon="11.2844433"><ele>853.0</ele><time>2026-05-02T08:06:52.728Z</time></trkpt><trkpt lat="44.1108217" lon="11.284545"><ele>853.0</ele><time>2026-05-02T08:06:53.728Z</time></trkpt><trkpt lat="44.110945" lon="11.28465"><ele>853.0</ele><time>2026-05-02T08:06:54.727Z</time></trkpt><trkpt lat="44.111065" lon="11.2847533"><ele>853.0</ele><time>2026-05-02T08:06:55.727Z</time></trkpt><trkpt lat="44.1111833" lon="11.2848483"><ele>853.0</ele><time>2026-05-02T08:06:56.728Z</time></trkpt><trkpt lat="44.1113017" lon="11.284935"><ele>852.75</ele><time>2026-05-02T08:06:57.729Z</time></trkpt><trkpt lat="44.1114233" lon="11.285005"><ele>852.5</ele><time>2026-05-02T08:06:58.729Z</time></trkpt><trkpt lat="44.111555" lon="11.285035"><ele>852.25</ele><time>2026-05-02T08:06:59.727Z</time></trkpt><trkpt lat="44.11169" lon="11.285065"><ele>852.0</ele><time>2026-05-02T08:07:00.729Z</time></trkpt><trkpt lat="44.1118283" lon="11.2850767"><ele>852.0</ele><time>2026-05-02T08:07:01.729Z</time></trkpt><trkpt lat="44.1119717" lon="11.285085"><ele>852.0</ele><time>2026-05-02T08:07:02.729Z</time></trkpt><trkpt lat="44.112115" lon="11.2850917"><ele>852.0</ele><time>2026-05-02T08:07:03.727Z</time></trkpt><trkpt lat="44.112255" lon="11.2851133"><ele>852.0</ele><time>2026-05-02T08:07:04.726Z</time></trkpt><trkpt lat="44.1123917" lon="11.2851467"><ele>853.0</ele><time>2026-05-02T08:07:05.726Z</time></trkpt><trkpt lat="44.11253" lon="11.285215"><ele>854.0</ele><time>2026-05-02T08:07:06.729Z</time></trkpt><trkpt lat="44.112675" lon="11.28531"><ele>855.0</ele><time>2026-05-02T08:07:07.729Z</time></trkpt><trkpt lat="44.1128367" lon="11.2854233"><ele>855.0</ele><time>2026-05-02T08:07:08.727Z</time></trkpt><trkpt lat="44.1130067" lon="11.2855367"><ele>855.0</ele><time>2026-05-02T08:07:09.726Z</time></trkpt><trkpt lat="44.1131767" lon="11.2856467"><ele>855.0</ele><time>2026-05-02T08:07:10.728Z</time></trkpt><trkpt lat="44.1133483" lon="11.28576"><ele>853.6666666666667</ele><time>2026-05-02T08:07:11.727Z</time></trkpt><trkpt lat="44.1135267" lon="11.28589"><ele>852.3333333333334</ele><time>2026-05-02T08:07:12.729Z</time></trkpt><trkpt lat="44.1137017" lon="11.2860167"><ele>851.0</ele><time>2026-05-02T08:07:13.729Z</time></trkpt><trkpt lat="44.1138733" lon="11.2861283"><ele>851.0</ele><time>2026-05-02T08:07:14.732Z</time></trkpt><trkpt lat="44.114035" lon="11.2862367"><ele>851.0</ele><time>2026-05-02T08:07:15.728Z</time></trkpt><trkpt lat="44.1141883" lon="11.2863117"><ele>851.0</ele><time>2026-05-02T08:07:16.729Z</time></trkpt><trkpt lat="44.114345" lon="11.28637"><ele>853.3333333333334</ele><time>2026-05-02T08:07:17.728Z</time></trkpt><trkpt lat="44.1145017" lon="11.2864083"><ele>855.6666666666667</ele><time>2026-05-02T08:07:18.728Z</time></trkpt><trkpt lat="44.11466" lon="11.2864333"><ele>858.0</ele><time>2026-05-02T08:07:19.729Z</time></trkpt><trkpt lat="44.1148183" lon="11.28649"><ele>859.3333333333333</ele><time>2026-05-02T08:07:20.728Z</time></trkpt><trkpt lat="44.1149717" lon="11.2865767"><ele>860.6666666666666</ele><time>2026-05-02T08:07:21.73Z</time></trkpt><trkpt lat="44.1151117" lon="11.2867167"><ele>862.0</ele><time>2026-05-02T08:07:22.729Z</time></trkpt><trkpt lat="44.115235" lon="11.2868933"><ele>862.0</ele><time>2026-05-02T08:07:23.728Z</time></trkpt><trkpt lat="44.1153333" lon="11.2870983"><ele>862.0</ele><time>2026-05-02T08:07:24.728Z</time></trkpt><trkpt lat="44.1154133" lon="11.2873317"><ele>862.0</ele><time>2026-05-02T08:07:25.725Z</time></trkpt><trkpt lat="44.1154833" lon="11.2875667"><ele>859.6666666666666</ele><time>2026-05-02T08:07:26.728Z</time></trkpt><trkpt lat="44.1155467" lon="11.2877933"><ele>857.3333333333333</ele><time>2026-05-02T08:07:27.728Z</time></trkpt><trkpt lat="44.1156283" lon="11.2880033"><ele>855.0</ele><time>2026-05-02T08:07:28.728Z</time></trkpt><trkpt lat="44.1157217" lon="11.2881833"><ele>857.3333333333333</ele><time>2026-05-02T08:07:29.728Z</time></trkpt><trkpt lat="44.11584" lon="11.28831"><ele>859.6666666666666</ele><time>2026-05-02T08:07:30.727Z</time></trkpt><trkpt lat="44.1159833" lon="11.2883767"><ele>862.0</ele><time>2026-05-02T08:07:31.729Z</time></trkpt><trkpt lat="44.1161333" lon="11.288395"><ele>862.0</ele><time>2026-05-02T08:07:32.727Z</time></trkpt><trkpt lat="44.1162733" lon="11.2883367"><ele>862.0</ele><time>2026-05-02T08:07:33.727Z</time></trkpt><trkpt lat="44.1163917" lon="11.2882433"><ele>862.0</ele><time>2026-05-02T08:07:34.728Z</time></trkpt><trkpt lat="44.11649" lon="11.288065"><ele>862.0</ele><time>2026-05-02T08:07:35.728Z</time></trkpt><trkpt lat="44.1165717" lon="11.2878417"><ele>863.0</ele><time>2026-05-02T08:07:36.728Z</time></trkpt><trkpt lat="44.1166483" lon="11.2875767"><ele>864.0</ele><time>2026-05-02T08:07:37.726Z</time></trkpt><trkpt lat="44.1167283" lon="11.2873183"><ele>865.0</ele><time>2026-05-02T08:07:38.728Z</time></trkpt><trkpt lat="44.1168017" lon="11.2870817"><ele>868.25</ele><time>2026-05-02T08:07:39.728Z</time></trkpt><trkpt lat="44.116875" lon="11.28688"><ele>871.5</ele><time>2026-05-02T08:07:40.727Z</time></trkpt><trkpt lat="44.1169567" lon="11.286735"><ele>874.75</ele><time>2026-05-02T08:07:41.729Z</time></trkpt><trkpt lat="44.11706" lon="11.2866467"><ele>878.0</ele><time>2026-05-02T08:07:42.727Z</time></trkpt><trkpt lat="44.1171883" lon="11.28664"><ele>878.0</ele><time>2026-05-02T08:07:43.729Z</time></trkpt><trkpt lat="44.1173217" lon="11.28672"><ele>878.0</ele><time>2026-05-02T08:07:44.728Z</time></trkpt><trkpt lat="44.1174317" lon="11.286865"><ele>878.0</ele><time>2026-05-02T08:07:45.728Z</time></trkpt><trkpt lat="44.1175" lon="11.2870783"><ele>872.0</ele><time>2026-05-02T08:07:46.726Z</time></trkpt><trkpt lat="44.1175383" lon="11.2873467"><ele>866.0</ele><time>2026-05-02T08:07:47.728Z</time></trkpt><trkpt lat="44.1175783" lon="11.2876333"><ele>860.0</ele><time>2026-05-02T08:07:48.726Z</time></trkpt><trkpt lat="44.1176283" lon="11.287895"><ele>859.6666666666667</ele><time>2026-05-02T08:07:49.728Z</time></trkpt><trkpt lat="44.1177033" lon="11.2881233"><ele>859.3333333333333</ele><time>2026-05-02T08:07:50.728Z</time></trkpt><trkpt lat="44.1178117" lon="11.2883183"><ele>859.0</ele><time>2026-05-02T08:07:51.727Z</time></trkpt><trkpt lat="44.1179633" lon="11.2884917"><ele>859.0</ele><time>2026-05-02T08:07:52.729Z</time></trkpt><trkpt lat="44.1181367" lon="11.2886567"><ele>859.0</ele><time>2026-05-02T08:07:53.727Z</time></trkpt><trkpt lat="44.1183217" lon="11.2888183"><ele>859.0</ele><time>2026-05-02T08:07:54.728Z</time></trkpt><trkpt lat="44.1185067" lon="11.2889717"><ele>862.3333333333333</ele><time>2026-05-02T08:07:55.728Z</time></trkpt><trkpt lat="44.1186733" lon="11.2891167"><ele>865.6666666666667</ele><time>2026-05-02T08:07:56.728Z</time></trkpt><trkpt lat="44.1188283" lon="11.2892483"><ele>869.0</ele><time>2026-05-02T08:07:57.729Z</time></trkpt><trkpt lat="44.1189667" lon="11.2893733"><ele>869.3333333333334</ele><time>2026-05-02T08:07:58.729Z</time></trkpt><trkpt lat="44.1190933" lon="11.2894983"><ele>869.6666666666667</ele><time>2026-05-02T08:07:59.727Z</time></trkpt><trkpt lat="44.1191617" lon="11.2896767"><ele>870.0</ele><time>2026-05-02T08:08:00.729Z</time></trkpt><trkpt lat="44.1192" lon="11.2899017"><ele>870.0</ele><time>2026-05-02T08:08:01.729Z</time></trkpt><trkpt lat="44.1192117" lon="11.2901717"><ele>870.0</ele><time>2026-05-02T08:08:02.729Z</time></trkpt><trkpt lat="44.1192133" lon="11.290465"><ele>870.0</ele><time>2026-05-02T08:08:03.729Z</time></trkpt><trkpt lat="44.1192117" lon="11.290765"><ele>868.0</ele><time>2026-05-02T08:08:04.729Z</time></trkpt><trkpt lat="44.119215" lon="11.2910567"><ele>866.0</ele><time>2026-05-02T08:08:05.727Z</time></trkpt><trkpt lat="44.1192133" lon="11.2913383"><ele>864.0</ele><time>2026-05-02T08:08:06.727Z</time></trkpt><trkpt lat="44.1192133" lon="11.291605"><ele>863.3333333333333</ele><time>2026-05-02T08:08:07.729Z</time></trkpt><trkpt lat="44.1192317" lon="11.2918533"><ele>862.6666666666666</ele><time>2026-05-02T08:08:08.728Z</time></trkpt><trkpt lat="44.1192783" lon="11.29208"><ele>862.0</ele><time>2026-05-02T08:08:09.729Z</time></trkpt><trkpt lat="44.11935" lon="11.2922917"><ele>861.3333333333333</ele><time>2026-05-02T08:08:10.729Z</time></trkpt><trkpt lat="44.11945" lon="11.2924917"><ele>860.6666666666667</ele><time>2026-05-02T08:08:11.727Z</time></trkpt><trkpt lat="44.1195733" lon="11.29268"><ele>860.0</ele><time>2026-05-02T08:08:12.728Z</time></trkpt><trkpt lat="44.1197267" lon="11.2928683"><ele>860.0</ele><time>2026-05-02T08:08:13.728Z</time></trkpt><trkpt lat="44.1198967" lon="11.2930633"><ele>860.0</ele><time>2026-05-02T08:08:14.728Z</time></trkpt><trkpt lat="44.12008" lon="11.2932617"><ele>860.5</ele><time>2026-05-02T08:08:15.729Z</time></trkpt><trkpt lat="44.1202583" lon="11.29346"><ele>861.0</ele><time>2026-05-02T08:08:16.729Z</time></trkpt><trkpt lat="44.1204317" lon="11.2936683"><ele>861.0</ele><time>2026-05-02T08:08:17.729Z</time></trkpt><trkpt lat="44.1205883" lon="11.29389"><ele>861.0</ele><time>2026-05-02T08:08:18.729Z</time></trkpt><trkpt lat="44.1207217" lon="11.294135"><ele>861.0</ele><time>2026-05-02T08:08:19.728Z</time></trkpt><trkpt lat="44.1208333" lon="11.2943883"><ele>862.6666666666667</ele><time>2026-05-02T08:08:20.727Z</time></trkpt><trkpt lat="44.1209417" lon="11.2946417"><ele>864.3333333333334</ele><time>2026-05-02T08:08:21.729Z</time></trkpt><trkpt lat="44.12105" lon="11.2948883"><ele>866.0</ele><time>2026-05-02T08:08:22.727Z</time></trkpt><trkpt lat="44.1211683" lon="11.2951117"><ele>866.0</ele><time>2026-05-02T08:08:23.728Z</time></trkpt><trkpt lat="44.12128" lon="11.2953133"><ele>866.0</ele><time>2026-05-02T08:08:24.727Z</time></trkpt><trkpt lat="44.1213817" lon="11.295485"><ele>866.0</ele><time>2026-05-02T08:08:25.728Z</time></trkpt><trkpt lat="44.1214817" lon="11.2956217"><ele>871.0</ele><time>2026-05-02T08:08:26.729Z</time></trkpt><trkpt lat="44.12159" lon="11.295735"><ele>876.0</ele><time>2026-05-02T08:08:27.729Z</time></trkpt><trkpt lat="44.1217167" lon="11.2958383"><ele>881.0</ele><time>2026-05-02T08:08:28.727Z</time></trkpt><trkpt lat="44.12184" lon="11.2959567"><ele>886.0</ele><time>2026-05-02T08:08:29.728Z</time></trkpt><trkpt lat="44.1219417" lon="11.296105"><ele>886.0</ele><time>2026-05-02T08:08:30.728Z</time></trkpt><trkpt lat="44.1219983" lon="11.2962917"><ele>886.0</ele><time>2026-05-02T08:08:31.729Z</time></trkpt><trkpt lat="44.122025" lon="11.2965167"><ele>886.0</ele><time>2026-05-02T08:08:32.728Z</time></trkpt><trkpt lat="44.122025" lon="11.2967983"><ele>886.0</ele><time>2026-05-02T08:08:33.727Z</time></trkpt><trkpt lat="44.1220133" lon="11.297125"><ele>886.0</ele><time>2026-05-02T08:08:34.727Z</time></trkpt><trkpt lat="44.1219967" lon="11.2974633"><ele>886.0</ele><time>2026-05-02T08:08:35.729Z</time></trkpt><trkpt lat="44.1219783" lon="11.2977717"><ele>886.0</ele><time>2026-05-02T08:08:36.728Z</time></trkpt><trkpt lat="44.12197" lon="11.2980667"><ele>886.0</ele><time>2026-05-02T08:08:37.729Z</time></trkpt><trkpt lat="44.1219883" lon="11.2983533"><ele>885.6666666666666</ele><time>2026-05-02T08:08:38.728Z</time></trkpt><trkpt lat="44.12204" lon="11.2986367"><ele>885.3333333333333</ele><time>2026-05-02T08:08:39.73Z</time></trkpt><trkpt lat="44.12212" lon="11.298915"><ele>885.0</ele><time>2026-05-02T08:08:40.728Z</time></trkpt><trkpt lat="44.1222267" lon="11.2991867"><ele>884.3333333333333</ele><time>2026-05-02T08:08:41.73Z</time></trkpt><trkpt lat="44.1223383" lon="11.2994567"><ele>883.6666666666666</ele><time>2026-05-02T08:08:42.728Z</time></trkpt><trkpt lat="44.1224483" lon="11.2997217"><ele>883.0</ele><time>2026-05-02T08:08:43.728Z</time></trkpt><trkpt lat="44.12255" lon="11.299965"><ele>888.3333333333333</ele><time>2026-05-02T08:08:44.728Z</time></trkpt><trkpt lat="44.1226433" lon="11.3001917"><ele>893.6666666666667</ele><time>2026-05-02T08:08:45.727Z</time></trkpt><trkpt lat="44.1227317" lon="11.300385"><ele>899.0</ele><time>2026-05-02T08:08:46.728Z</time></trkpt><trkpt lat="44.1228233" lon="11.3005467"><ele>899.0</ele><time>2026-05-02T08:08:47.728Z</time></trkpt><trkpt lat="44.1229367" lon="11.300665"><ele>899.0</ele><time>2026-05-02T08:08:48.729Z</time></trkpt><trkpt lat="44.1230683" lon="11.3007533"><ele>899.0</ele><time>2026-05-02T08:08:49.729Z</time></trkpt><trkpt lat="44.1232333" lon="11.3007883"><ele>904.0</ele><time>2026-05-02T08:08:50.727Z</time></trkpt><trkpt lat="44.123415" lon="11.300805"><ele>909.0</ele><time>2026-05-02T08:08:51.728Z</time></trkpt><trkpt lat="44.1236017" lon="11.300825"><ele>914.0</ele><time>2026-05-02T08:08:52.728Z</time></trkpt><trkpt lat="44.12379" lon="11.3008317"><ele>914.0</ele><time>2026-05-02T08:08:53.728Z</time></trkpt><trkpt lat="44.1239867" lon="11.3008233"><ele>914.0</ele><time>2026-05-02T08:08:54.728Z</time></trkpt><trkpt lat="44.1241883" lon="11.3007567"><ele>914.0</ele><time>2026-05-02T08:08:55.728Z</time></trkpt><trkpt lat="44.124385" lon="11.30068"><ele>913.6666666666667</ele><time>2026-05-02T08:08:56.729Z</time></trkpt><trkpt lat="44.1245867" lon="11.3006183"><ele>913.3333333333333</ele><time>2026-05-02T08:08:57.728Z</time></trkpt><trkpt lat="44.1247917" lon="11.3005867"><ele>913.0</ele><time>2026-05-02T08:08:58.728Z</time></trkpt><trkpt lat="44.125005" lon="11.3005933"><ele>912.6666666666666</ele><time>2026-05-02T08:08:59.729Z</time></trkpt><trkpt lat="44.1252167" lon="11.3006117"><ele>912.3333333333333</ele><time>2026-05-02T08:09:00.729Z</time></trkpt><trkpt lat="44.1254367" lon="11.30064"><ele>912.0</ele><time>2026-05-02T08:09:01.727Z</time></trkpt><trkpt lat="44.1256567" lon="11.3006633"><ele>914.6666666666667</ele><time>2026-05-02T08:09:02.728Z</time></trkpt><trkpt lat="44.1258717" lon="11.3006917"><ele>917.3333333333334</ele><time>2026-05-02T08:09:03.729Z</time></trkpt><trkpt lat="44.126085" lon="11.3007233"><ele>920.0</ele><time>2026-05-02T08:09:04.727Z</time></trkpt><trkpt lat="44.1262917" lon="11.3007717"><ele>920.0</ele><time>2026-05-02T08:09:05.729Z</time></trkpt><trkpt lat="44.12648" lon="11.3008683"><ele>920.0</ele><time>2026-05-02T08:09:06.728Z</time></trkpt><trkpt lat="44.126655" lon="11.3009917"><ele>920.0</ele><time>2026-05-02T08:09:07.729Z</time></trkpt><trkpt lat="44.12682" lon="11.3011367"><ele>918.6666666666667</ele><time>2026-05-02T08:09:08.728Z</time></trkpt><trkpt lat="44.1269817" lon="11.3012933"><ele>917.3333333333333</ele><time>2026-05-02T08:09:09.728Z</time></trkpt><trkpt lat="44.1271417" lon="11.30147"><ele>916.0</ele><time>2026-05-02T08:09:10.729Z</time></trkpt><trkpt lat="44.1273067" lon="11.301655"><ele>920.6666666666666</ele><time>2026-05-02T08:09:11.729Z</time></trkpt><trkpt lat="44.1274667" lon="11.30184"><ele>925.3333333333333</ele><time>2026-05-02T08:09:12.728Z</time></trkpt><trkpt lat="44.12763" lon="11.3020033"><ele>930.0</ele><time>2026-05-02T08:09:13.729Z</time></trkpt><trkpt lat="44.1278083" lon="11.3021417"><ele>928.3333333333333</ele><time>2026-05-02T08:09:14.728Z</time></trkpt><trkpt lat="44.1280033" lon="11.3022667"><ele>926.6666666666666</ele><time>2026-05-02T08:09:15.726Z</time></trkpt><trkpt lat="44.1282133" lon="11.302375"><ele>925.0</ele><time>2026-05-02T08:09:16.728Z</time></trkpt><trkpt lat="44.1284117" lon="11.3024983"><ele>925.0</ele><time>2026-05-02T08:09:17.729Z</time></trkpt><trkpt lat="44.1285917" lon="11.3026417"><ele>925.0</ele><time>2026-05-02T08:09:18.727Z</time></trkpt><trkpt lat="44.1287433" lon="11.3028133"><ele>925.0</ele><time>2026-05-02T08:09:19.728Z</time></trkpt><trkpt lat="44.1288617" lon="11.3030083"><ele>923.25</ele><time>2026-05-02T08:09:20.729Z</time></trkpt><trkpt lat="44.128945" lon="11.3032117"><ele>921.5</ele><time>2026-05-02T08:09:21.728Z</time></trkpt><trkpt lat="44.1290033" lon="11.3033983"><ele>919.75</ele><time>2026-05-02T08:09:22.726Z</time></trkpt><trkpt lat="44.129065" lon="11.3035483"><ele>918.0</ele><time>2026-05-02T08:09:23.727Z</time></trkpt><trkpt lat="44.1291483" lon="11.3036467"><ele>918.0</ele><time>2026-05-02T08:09:24.726Z</time></trkpt><trkpt lat="44.1292517" lon="11.3037017"><ele>918.0</ele><time>2026-05-02T08:09:25.73Z</time></trkpt><trkpt lat="44.1293917" lon="11.3037"><ele>918.0</ele><time>2026-05-02T08:09:26.729Z</time></trkpt><trkpt lat="44.1295383" lon="11.3037"><ele>918.0</ele><time>2026-05-02T08:09:27.727Z</time></trkpt><trkpt lat="44.1297117" lon="11.3037583"><ele>918.0</ele><time>2026-05-02T08:09:28.728Z</time></trkpt><trkpt lat="44.12989" lon="11.3038383"><ele>918.0</ele><time>2026-05-02T08:09:29.729Z</time></trkpt><trkpt lat="44.13007" lon="11.3039167"><ele>918.0</ele><time>2026-05-02T08:09:30.727Z</time></trkpt><trkpt lat="44.1302433" lon="11.30399"><ele>912.6666666666667</ele><time>2026-05-02T08:09:31.729Z</time></trkpt><trkpt lat="44.1304183" lon="11.3040667"><ele>907.3333333333334</ele><time>2026-05-02T08:09:32.729Z</time></trkpt><trkpt lat="44.1305933" lon="11.3041283"><ele>902.0</ele><time>2026-05-02T08:09:33.727Z</time></trkpt><trkpt lat="44.130765" lon="11.3041783"><ele>902.0</ele><time>2026-05-02T08:09:34.728Z</time></trkpt><trkpt lat="44.1309317" lon="11.30422"><ele>902.0</ele><time>2026-05-02T08:09:35.729Z</time></trkpt><trkpt lat="44.13109" lon="11.3042633"><ele>902.0</ele><time>2026-05-02T08:09:36.727Z</time></trkpt><trkpt lat="44.1312383" lon="11.3043117"><ele>902.0</ele><time>2026-05-02T08:09:37.728Z</time></trkpt><trkpt lat="44.13138" lon="11.30437"><ele>902.0</ele><time>2026-05-02T08:09:38.729Z</time></trkpt><trkpt lat="44.1315117" lon="11.304445"><ele>902.0</ele><time>2026-05-02T08:09:39.728Z</time></trkpt><trkpt lat="44.131635" lon="11.304535"><ele>902.0</ele><time>2026-05-02T08:09:40.728Z</time></trkpt><trkpt lat="44.1317567" lon="11.304635"><ele>898.25</ele><time>2026-05-02T08:09:41.727Z</time></trkpt><trkpt lat="44.1318783" lon="11.3047483"><ele>894.5</ele><time>2026-05-02T08:09:42.727Z</time></trkpt><trkpt lat="44.132005" lon="11.3048583"><ele>890.75</ele><time>2026-05-02T08:09:43.729Z</time></trkpt><trkpt lat="44.1321367" lon="11.3049583"><ele>887.0</ele><time>2026-05-02T08:09:44.728Z</time></trkpt><trkpt lat="44.1322667" lon="11.3050317"><ele>889.0</ele><time>2026-05-02T08:09:45.728Z</time></trkpt><trkpt lat="44.1323967" lon="11.305075"><ele>891.0</ele><time>2026-05-02T08:09:46.727Z</time></trkpt><trkpt lat="44.1325317" lon="11.305085"><ele>893.0</ele><time>2026-05-02T08:09:47.728Z</time></trkpt><trkpt lat="44.13268" lon="11.30507"><ele>895.0</ele><time>2026-05-02T08:09:48.727Z</time></trkpt><trkpt lat="44.1328333" lon="11.305065"><ele>895.0</ele><time>2026-05-02T08:09:49.729Z</time></trkpt><trkpt lat="44.1329867" lon="11.3050383"><ele>895.0</ele><time>2026-05-02T08:09:50.729Z</time></trkpt><trkpt lat="44.1331333" lon="11.3049883"><ele>895.0</ele><time>2026-05-02T08:09:51.73Z</time></trkpt><trkpt lat="44.1332683" lon="11.30492"><ele>895.0</ele><time>2026-05-02T08:09:52.729Z</time></trkpt><trkpt lat="44.1333917" lon="11.30484"><ele>893.6</ele><time>2026-05-02T08:09:53.728Z</time></trkpt><trkpt lat="44.1334917" lon="11.3047583"><ele>892.2</ele><time>2026-05-02T08:09:54.727Z</time></trkpt><trkpt lat="44.13358" lon="11.3046983"><ele>890.8</ele><time>2026-05-02T08:09:55.729Z</time></trkpt><trkpt lat="44.1336733" lon="11.3047083"><ele>889.4</ele><time>2026-05-02T08:09:56.729Z</time></trkpt><trkpt lat="44.1337617" lon="11.3047933"><ele>888.0</ele><time>2026-05-02T08:09:57.729Z</time></trkpt><trkpt lat="44.1338233" lon="11.3049333"><ele>888.0</ele><time>2026-05-02T08:09:58.729Z</time></trkpt><trkpt lat="44.1338667" lon="11.30511"><ele>888.0</ele><time>2026-05-02T08:09:59.728Z</time></trkpt><trkpt lat="44.13389" lon="11.3052833"><ele>888.0</ele><time>2026-05-02T08:10:00.728Z</time></trkpt><trkpt lat="44.13393" lon="11.305445"><ele>888.0</ele><time>2026-05-02T08:10:01.728Z</time></trkpt><trkpt lat="44.1340067" lon="11.305585"><ele>883.75</ele><time>2026-05-02T08:10:02.729Z</time></trkpt><trkpt lat="44.13411" lon="11.3057"><ele>879.5</ele><time>2026-05-02T08:10:03.728Z</time></trkpt><trkpt lat="44.1342167" lon="11.3058083"><ele>875.25</ele><time>2026-05-02T08:10:04.729Z</time></trkpt><trkpt lat="44.1343283" lon="11.3059067"><ele>871.0</ele><time>2026-05-02T08:10:05.729Z</time></trkpt><trkpt lat="44.1344433" lon="11.3059867"><ele>871.0</ele><time>2026-05-02T08:10:06.728Z</time></trkpt><trkpt lat="44.1345683" lon="11.3060383"><ele>871.0</ele><time>2026-05-02T08:10:07.728Z</time></trkpt><trkpt lat="44.1346967" lon="11.3060767"><ele>871.0</ele><time>2026-05-02T08:10:08.729Z</time></trkpt><trkpt lat="44.13483" lon="11.3061"><ele>871.0</ele><time>2026-05-02T08:10:09.728Z</time></trkpt><trkpt lat="44.134965" lon="11.3061333"><ele>874.0</ele><time>2026-05-02T08:10:10.727Z</time></trkpt><trkpt lat="44.1351017" lon="11.3061533"><ele>877.0</ele><time>2026-05-02T08:10:11.729Z</time></trkpt><trkpt lat="44.1352333" lon="11.3061833"><ele>880.0</ele><time>2026-05-02T08:10:12.729Z</time></trkpt><trkpt lat="44.1353633" lon="11.30621"><ele>883.0</ele><time>2026-05-02T08:10:13.729Z</time></trkpt><trkpt lat="44.135485" lon="11.3062483"><ele>883.0</ele><time>2026-05-02T08:10:14.727Z</time></trkpt><trkpt lat="44.135595" lon="11.3062983"><ele>883.0</ele><time>2026-05-02T08:10:15.727Z</time></trkpt><trkpt lat="44.1357033" lon="11.3063733"><ele>883.0</ele><time>2026-05-02T08:10:16.728Z</time></trkpt><trkpt lat="44.1358083" lon="11.306465"><ele>883.0</ele><time>2026-05-02T08:10:17.729Z</time></trkpt><trkpt lat="44.1359067" lon="11.3065767"><ele>878.0</ele><time>2026-05-02T08:10:18.729Z</time></trkpt><trkpt lat="44.1359983" lon="11.3067017"><ele>873.0</ele><time>2026-05-02T08:10:19.727Z</time></trkpt><trkpt lat="44.13608" lon="11.3068467"><ele>868.0</ele><time>2026-05-02T08:10:20.729Z</time></trkpt><trkpt lat="44.136145" lon="11.3070067"><ele>863.0</ele><time>2026-05-02T08:10:21.727Z</time></trkpt><trkpt lat="44.136195" lon="11.3071733"><ele>861.25</ele><time>2026-05-02T08:10:22.728Z</time></trkpt><trkpt lat="44.1362367" lon="11.3073367"><ele>859.5</ele><time>2026-05-02T08:10:23.729Z</time></trkpt><trkpt lat="44.1362817" lon="11.3074933"><ele>857.75</ele><time>2026-05-02T08:10:24.729Z</time></trkpt><trkpt lat="44.136335" lon="11.3076483"><ele>856.0</ele><time>2026-05-02T08:10:25.729Z</time></trkpt><trkpt lat="44.1363933" lon="11.3078033"><ele>856.0</ele><time>2026-05-02T08:10:26.728Z</time></trkpt><trkpt lat="44.1364583" lon="11.3079483"><ele>856.0</ele><time>2026-05-02T08:10:27.729Z</time></trkpt><trkpt lat="44.1365283" lon="11.3080833"><ele>856.0</ele><time>2026-05-02T08:10:28.729Z</time></trkpt><trkpt lat="44.1366" lon="11.30821"><ele>856.0</ele><time>2026-05-02T08:10:29.727Z</time></trkpt><trkpt lat="44.1366783" lon="11.3083217"><ele>856.75</ele><time>2026-05-02T08:10:30.726Z</time></trkpt><trkpt lat="44.1367783" lon="11.3084283"><ele>857.5</ele><time>2026-05-02T08:10:31.728Z</time></trkpt><trkpt lat="44.1368983" lon="11.30852"><ele>858.25</ele><time>2026-05-02T08:10:32.729Z</time></trkpt><trkpt lat="44.1370217" lon="11.3086117"><ele>859.0</ele><time>2026-05-02T08:10:33.728Z</time></trkpt><trkpt lat="44.137145" lon="11.3087017"><ele>859.0</ele><time>2026-05-02T08:10:34.729Z</time></trkpt><trkpt lat="44.1372667" lon="11.3087933"><ele>859.0</ele><time>2026-05-02T08:10:35.728Z</time></trkpt><trkpt lat="44.1373867" lon="11.3088833"><ele>859.0</ele><time>2026-05-02T08:10:36.727Z</time></trkpt><trkpt lat="44.13751" lon="11.30896"><ele>859.0</ele><time>2026-05-02T08:10:37.728Z</time></trkpt><trkpt lat="44.1376167" lon="11.3090333"><ele>858.0</ele><time>2026-05-02T08:10:38.729Z</time></trkpt><trkpt lat="44.137715" lon="11.3091167"><ele>857.0</ele><time>2026-05-02T08:10:39.728Z</time></trkpt><trkpt lat="44.13779" lon="11.309235"><ele>856.0</ele><time>2026-05-02T08:10:40.728Z</time></trkpt><trkpt lat="44.137845" lon="11.3093867"><ele>855.0</ele><time>2026-05-02T08:10:41.728Z</time></trkpt><trkpt lat="44.1378883" lon="11.3095617"><ele>853.6666666666667</ele><time>2026-05-02T08:10:42.728Z</time></trkpt><trkpt lat="44.13793" lon="11.309755"><ele>852.3333333333334</ele><time>2026-05-02T08:10:43.728Z</time></trkpt><trkpt lat="44.13797" lon="11.3099617"><ele>851.0</ele><time>2026-05-02T08:10:44.728Z</time></trkpt><trkpt lat="44.1380117" lon="11.3101767"><ele>851.0</ele><time>2026-05-02T08:10:45.728Z</time></trkpt><trkpt lat="44.1380683" lon="11.31039"><ele>851.0</ele><time>2026-05-02T08:10:46.729Z</time></trkpt><trkpt lat="44.1381333" lon="11.3105933"><ele>851.0</ele><time>2026-05-02T08:10:47.727Z</time></trkpt><trkpt lat="44.1381983" lon="11.3107883"><ele>851.0</ele><time>2026-05-02T08:10:48.729Z</time></trkpt><trkpt lat="44.1382583" lon="11.31097"><ele>851.0</ele><time>2026-05-02T08:10:49.73Z</time></trkpt><trkpt lat="44.1383033" lon="11.3111433"><ele>851.0</ele><time>2026-05-02T08:10:50.728Z</time></trkpt><trkpt lat="44.13832" lon="11.3113267"><ele>851.0</ele><time>2026-05-02T08:10:51.729Z</time></trkpt><trkpt lat="44.1383" lon="11.3115183"><ele>851.0</ele><time>2026-05-02T08:10:52.728Z</time></trkpt><trkpt lat="44.1382517" lon="11.3117067"><ele>851.0</ele><time>2026-05-02T08:10:53.73Z</time></trkpt><trkpt lat="44.138205" lon="11.31189"><ele>851.0</ele><time>2026-05-02T08:10:54.728Z</time></trkpt><trkpt lat="44.1381683" lon="11.3120733"><ele>851.0</ele><time>2026-05-02T08:10:55.728Z</time></trkpt><trkpt lat="44.1381817" lon="11.31225"><ele>848.25</ele><time>2026-05-02T08:10:56.728Z</time></trkpt><trkpt lat="44.1382417" lon="11.3124083"><ele>845.5</ele><time>2026-05-02T08:10:57.728Z</time></trkpt><trkpt lat="44.13833" lon="11.312565"><ele>842.75</ele><time>2026-05-02T08:10:58.726Z</time></trkpt><trkpt lat="44.138415" lon="11.3127333"><ele>840.0</ele><time>2026-05-02T08:10:59.729Z</time></trkpt><trkpt lat="44.1384667" lon="11.3129283"><ele>838.6666666666667</ele><time>2026-05-02T08:11:00.728Z</time></trkpt><trkpt lat="44.1384683" lon="11.31315"><ele>837.3333333333334</ele><time>2026-05-02T08:11:01.728Z</time></trkpt><trkpt lat="44.1384383" lon="11.3134017"><ele>836.0</ele><time>2026-05-02T08:11:02.728Z</time></trkpt><trkpt lat="44.1383983" lon="11.3136717"><ele>836.0</ele><time>2026-05-02T08:11:03.727Z</time></trkpt><trkpt lat="44.1383683" lon="11.3139467"><ele>836.0</ele><time>2026-05-02T08:11:04.728Z</time></trkpt><trkpt lat="44.1383483" lon="11.3142333"><ele>836.0</ele><time>2026-05-02T08:11:05.728Z</time></trkpt><trkpt lat="44.1383433" lon="11.3145267"><ele>836.3333333333334</ele><time>2026-05-02T08:11:06.728Z</time></trkpt><trkpt lat="44.13835" lon="11.314825"><ele>836.6666666666667</ele><time>2026-05-02T08:11:07.729Z</time></trkpt><trkpt lat="44.1383633" lon="11.3151183"><ele>837.0</ele><time>2026-05-02T08:11:08.728Z</time></trkpt><trkpt lat="44.138385" lon="11.3154067"><ele>836.0</ele><time>2026-05-02T08:11:09.728Z</time></trkpt><trkpt lat="44.138405" lon="11.31569"><ele>835.0</ele><time>2026-05-02T08:11:10.728Z</time></trkpt><trkpt lat="44.1384283" lon="11.315955"><ele>834.0</ele><time>2026-05-02T08:11:11.729Z</time></trkpt><trkpt lat="44.138465" lon="11.316215"><ele>833.3333333333333</ele><time>2026-05-02T08:11:12.729Z</time></trkpt><trkpt lat="44.1385133" lon="11.3164717"><ele>832.6666666666666</ele><time>2026-05-02T08:11:13.727Z</time></trkpt><trkpt lat="44.1385767" lon="11.3167317"><ele>832.0</ele><time>2026-05-02T08:11:14.727Z</time></trkpt><trkpt lat="44.1386483" lon="11.31699"><ele>832.0</ele><time>2026-05-02T08:11:15.727Z</time></trkpt><trkpt lat="44.1387233" lon="11.317235"><ele>832.0</ele><time>2026-05-02T08:11:16.728Z</time></trkpt><trkpt lat="44.13879" lon="11.3174733"><ele>832.0</ele><time>2026-05-02T08:11:17.729Z</time></trkpt><trkpt lat="44.1388283" lon="11.3177067"><ele>828.6666666666666</ele><time>2026-05-02T08:11:18.729Z</time></trkpt><trkpt lat="44.1388383" lon="11.31795"><ele>825.3333333333333</ele><time>2026-05-02T08:11:19.729Z</time></trkpt><trkpt lat="44.1388267" lon="11.3182017"><ele>822.0</ele><time>2026-05-02T08:11:20.728Z</time></trkpt><trkpt lat="44.138815" lon="11.3184617"><ele>820.6666666666667</ele><time>2026-05-02T08:11:21.728Z</time></trkpt><trkpt lat="44.1388067" lon="11.3187317"><ele>819.3333333333334</ele><time>2026-05-02T08:11:22.727Z</time></trkpt><trkpt lat="44.1387983" lon="11.319"><ele>818.0</ele><time>2026-05-02T08:11:23.727Z</time></trkpt><trkpt lat="44.1387833" lon="11.3192633"><ele>818.0</ele><time>2026-05-02T08:11:24.728Z</time></trkpt><trkpt lat="44.1387633" lon="11.31951"><ele>818.0</ele><time>2026-05-02T08:11:25.727Z</time></trkpt><trkpt lat="44.1387383" lon="11.31974"><ele>818.0</ele><time>2026-05-02T08:11:26.728Z</time></trkpt><trkpt lat="44.1387133" lon="11.31995"><ele>819.25</ele><time>2026-05-02T08:11:27.727Z</time></trkpt><trkpt lat="44.138705" lon="11.3201383"><ele>820.5</ele><time>2026-05-02T08:11:28.727Z</time></trkpt><trkpt lat="44.138725" lon="11.3203"><ele>821.75</ele><time>2026-05-02T08:11:29.729Z</time></trkpt><trkpt lat="44.1387867" lon="11.3204367"><ele>823.0</ele><time>2026-05-02T08:11:30.728Z</time></trkpt><trkpt lat="44.1388833" lon="11.320545"><ele>825.3333333333333</ele><time>2026-05-02T08:11:31.729Z</time></trkpt><trkpt lat="44.1390083" lon="11.32064"><ele>827.6666666666667</ele><time>2026-05-02T08:11:32.728Z</time></trkpt><trkpt lat="44.1391467" lon="11.32074"><ele>830.0</ele><time>2026-05-02T08:11:33.729Z</time></trkpt><trkpt lat="44.139285" lon="11.32088"><ele>830.0</ele><time>2026-05-02T08:11:34.729Z</time></trkpt><trkpt lat="44.1394167" lon="11.32106"><ele>830.0</ele><time>2026-05-02T08:11:35.727Z</time></trkpt><trkpt lat="44.1395433" lon="11.3212467"><ele>830.0</ele><time>2026-05-02T08:11:36.728Z</time></trkpt><trkpt lat="44.1396617" lon="11.32141"><ele>832.6666666666667</ele><time>2026-05-02T08:11:37.726Z</time></trkpt><trkpt lat="44.1397833" lon="11.321545"><ele>835.3333333333333</ele><time>2026-05-02T08:11:38.729Z</time></trkpt><trkpt lat="44.1399167" lon="11.3216683"><ele>838.0</ele><time>2026-05-02T08:11:39.729Z</time></trkpt><trkpt lat="44.14007" lon="11.3217267"><ele>838.0</ele><time>2026-05-02T08:11:40.728Z</time></trkpt><trkpt lat="44.1402333" lon="11.3217533"><ele>838.0</ele><time>2026-05-02T08:11:41.728Z</time></trkpt><trkpt lat="44.140385" lon="11.3217767"><ele>838.0</ele><time>2026-05-02T08:11:42.728Z</time></trkpt><trkpt lat="44.1405083" lon="11.321845"><ele>838.0</ele><time>2026-05-02T08:11:43.727Z</time></trkpt><trkpt lat="44.1405933" lon="11.3219617"><ele>838.0</ele><time>2026-05-02T08:11:44.729Z</time></trkpt><trkpt lat="44.140655" lon="11.3221167"><ele>838.0</ele><time>2026-05-02T08:11:45.726Z</time></trkpt><trkpt lat="44.1407183" lon="11.3222933"><ele>838.0</ele><time>2026-05-02T08:11:46.728Z</time></trkpt><trkpt lat="44.1407883" lon="11.3224817"><ele>839.0</ele><time>2026-05-02T08:11:47.727Z</time></trkpt><trkpt lat="44.140865" lon="11.3226783"><ele>840.0</ele><time>2026-05-02T08:11:48.727Z</time></trkpt><trkpt lat="44.140945" lon="11.322885"><ele>841.0</ele><time>2026-05-02T08:11:49.729Z</time></trkpt><trkpt lat="44.1410283" lon="11.3230983"><ele>841.0</ele><time>2026-05-02T08:11:50.728Z</time></trkpt><trkpt lat="44.1411183" lon="11.3233217"><ele>841.0</ele><time>2026-05-02T08:11:51.728Z</time></trkpt><trkpt lat="44.141195" lon="11.323555"><ele>841.0</ele><time>2026-05-02T08:11:52.727Z</time></trkpt><trkpt lat="44.141235" lon="11.3238017"><ele>841.0</ele><time>2026-05-02T08:11:53.728Z</time></trkpt><trkpt lat="44.14124" lon="11.3240683"><ele>841.0</ele><time>2026-05-02T08:11:54.728Z</time></trkpt><trkpt lat="44.1412233" lon="11.3243367"><ele>841.0</ele><time>2026-05-02T08:11:55.724Z</time></trkpt><trkpt lat="44.14119" lon="11.3246033"><ele>842.0</ele><time>2026-05-02T08:11:56.728Z</time></trkpt><trkpt lat="44.14114" lon="11.324855"><ele>843.0</ele><time>2026-05-02T08:11:57.726Z</time></trkpt><trkpt lat="44.141085" lon="11.3250783"><ele>844.0</ele><time>2026-05-02T08:11:58.728Z</time></trkpt><trkpt lat="44.141045" lon="11.325285"><ele>844.0</ele><time>2026-05-02T08:11:59.729Z</time></trkpt><trkpt lat="44.1410317" lon="11.3254867"><ele>844.0</ele><time>2026-05-02T08:12:00.728Z</time></trkpt><trkpt lat="44.141045" lon="11.3256983"><ele>844.0</ele><time>2026-05-02T08:12:01.729Z</time></trkpt><trkpt lat="44.141125" lon="11.32593"><ele>844.6666666666666</ele><time>2026-05-02T08:12:02.727Z</time></trkpt><trkpt lat="44.14121" lon="11.32617"><ele>845.3333333333333</ele><time>2026-05-02T08:12:03.728Z</time></trkpt><trkpt lat="44.1412667" lon="11.3264033"><ele>846.0</ele><time>2026-05-02T08:12:04.729Z</time></trkpt><trkpt lat="44.141275" lon="11.3266283"><ele>846.0</ele><time>2026-05-02T08:12:05.728Z</time></trkpt><trkpt lat="44.1412283" lon="11.3268333"><ele>846.0</ele><time>2026-05-02T08:12:06.727Z</time></trkpt><trkpt lat="44.14113" lon="11.3270083"><ele>846.0</ele><time>2026-05-02T08:12:07.729Z</time></trkpt><trkpt lat="44.140995" lon="11.3271533"><ele>845.3333333333333</ele><time>2026-05-02T08:12:08.729Z</time></trkpt><trkpt lat="44.1408417" lon="11.3272867"><ele>844.6666666666666</ele><time>2026-05-02T08:12:09.728Z</time></trkpt><trkpt lat="44.1406967" lon="11.32741"><ele>844.0</ele><time>2026-05-02T08:12:10.727Z</time></trkpt><trkpt lat="44.1405717" lon="11.32754"><ele>844.0</ele><time>2026-05-02T08:12:11.728Z</time></trkpt><trkpt lat="44.1404817" lon="11.327685"><ele>844.0</ele><time>2026-05-02T08:12:12.727Z</time></trkpt><trkpt lat="44.1404267" lon="11.3278683"><ele>844.0</ele><time>2026-05-02T08:12:13.728Z</time></trkpt><trkpt lat="44.1404433" lon="11.3280833"><ele>844.0</ele><time>2026-05-02T08:12:14.727Z</time></trkpt><trkpt lat="44.1404767" lon="11.3282917"><ele>844.0</ele><time>2026-05-02T08:12:15.729Z</time></trkpt><trkpt lat="44.1405417" lon="11.32846"><ele>844.0</ele><time>2026-05-02T08:12:16.729Z</time></trkpt><trkpt lat="44.1406433" lon="11.328575"><ele>844.0</ele><time>2026-05-02T08:12:17.729Z</time></trkpt><trkpt lat="44.1407633" lon="11.32862"><ele>844.0</ele><time>2026-05-02T08:12:18.728Z</time></trkpt><trkpt lat="44.1408967" lon="11.3285883"><ele>849.0</ele><time>2026-05-02T08:12:19.729Z</time></trkpt><trkpt lat="44.1410383" lon="11.32848"><ele>854.0</ele><time>2026-05-02T08:12:20.727Z</time></trkpt><trkpt lat="44.141185" lon="11.3283567"><ele>859.0</ele><time>2026-05-02T08:12:21.728Z</time></trkpt><trkpt lat="44.14134" lon="11.3282283"><ele>859.0</ele><time>2026-05-02T08:12:22.728Z</time></trkpt><trkpt lat="44.1415033" lon="11.328095"><ele>859.0</ele><time>2026-05-02T08:12:23.728Z</time></trkpt><trkpt lat="44.1416717" lon="11.3279483"><ele>859.0</ele><time>2026-05-02T08:12:24.726Z</time></trkpt><trkpt lat="44.1418483" lon="11.3278067"><ele>861.0</ele><time>2026-05-02T08:12:25.728Z</time></trkpt><trkpt lat="44.1420283" lon="11.3276583"><ele>863.0</ele><time>2026-05-02T08:12:26.729Z</time></trkpt><trkpt lat="44.142215" lon="11.3275067"><ele>865.0</ele><time>2026-05-02T08:12:27.728Z</time></trkpt><trkpt lat="44.1424167" lon="11.3273733"><ele>865.0</ele><time>2026-05-02T08:12:28.729Z</time></trkpt><trkpt lat="44.14263" lon="11.3272683"><ele>865.0</ele><time>2026-05-02T08:12:29.729Z</time></trkpt><trkpt lat="44.1428533" lon="11.327205"><ele>868.5</ele><time>2026-05-02T08:12:30.729Z</time></trkpt><trkpt lat="44.14308" lon="11.32717"><ele>872.0</ele><time>2026-05-02T08:12:31.728Z</time></trkpt><trkpt lat="44.1433033" lon="11.3271517"><ele>870.0</ele><time>2026-05-02T08:12:32.728Z</time></trkpt><trkpt lat="44.1435183" lon="11.3271683"><ele>868.0</ele><time>2026-05-02T08:12:33.728Z</time></trkpt><trkpt lat="44.143725" lon="11.3272283"><ele>866.0</ele><time>2026-05-02T08:12:34.727Z</time></trkpt><trkpt lat="44.1439133" lon="11.3273233"><ele>867.6666666666667</ele><time>2026-05-02T08:12:35.727Z</time></trkpt><trkpt lat="44.14408" lon="11.3274233"><ele>869.3333333333333</ele><time>2026-05-02T08:12:36.728Z</time></trkpt><trkpt lat="44.1442333" lon="11.3275117"><ele>871.0</ele><time>2026-05-02T08:12:37.728Z</time></trkpt><trkpt lat="44.1443833" lon="11.3275567"><ele>871.0</ele><time>2026-05-02T08:12:38.729Z</time></trkpt><trkpt lat="44.1445283" lon="11.3275367"><ele>871.0</ele><time>2026-05-02T08:12:39.728Z</time></trkpt><trkpt lat="44.14467" lon="11.3274567"><ele>871.0</ele><time>2026-05-02T08:12:40.729Z</time></trkpt><trkpt lat="44.1447867" lon="11.3272817"><ele>874.3333333333333</ele><time>2026-05-02T08:12:41.729Z</time></trkpt><trkpt lat="44.1448867" lon="11.3270817"><ele>877.6666666666667</ele><time>2026-05-02T08:12:42.728Z</time></trkpt><trkpt lat="44.1450083" lon="11.3268883"><ele>881.0</ele><time>2026-05-02T08:12:43.729Z</time></trkpt><trkpt lat="44.145165" lon="11.3267467"><ele>881.0</ele><time>2026-05-02T08:12:44.729Z</time></trkpt><trkpt lat="44.145355" lon="11.3266517"><ele>881.0</ele><time>2026-05-02T08:12:45.728Z</time></trkpt><trkpt lat="44.145565" lon="11.326625"><ele>881.0</ele><time>2026-05-02T08:12:46.727Z</time></trkpt><trkpt lat="44.1457817" lon="11.32666"><ele>880.3333333333334</ele><time>2026-05-02T08:12:47.729Z</time></trkpt><trkpt lat="44.14599" lon="11.326755"><ele>879.6666666666667</ele><time>2026-05-02T08:12:48.728Z</time></trkpt><trkpt lat="44.14619" lon="11.3268783"><ele>879.0</ele><time>2026-05-02T08:12:49.728Z</time></trkpt><trkpt lat="44.146385" lon="11.3270133"><ele>883.0</ele><time>2026-05-02T08:12:50.728Z</time></trkpt><trkpt lat="44.1465733" lon="11.327135"><ele>887.0</ele><time>2026-05-02T08:12:51.729Z</time></trkpt><trkpt lat="44.14677" lon="11.327205"><ele>891.0</ele><time>2026-05-02T08:12:52.729Z</time></trkpt><trkpt lat="44.14698" lon="11.3272217"><ele>891.0</ele><time>2026-05-02T08:12:53.727Z</time></trkpt><trkpt lat="44.1471917" lon="11.3271967"><ele>891.0</ele><time>2026-05-02T08:12:54.727Z</time></trkpt><trkpt lat="44.14739" lon="11.3271933"><ele>891.0</ele><time>2026-05-02T08:12:55.728Z</time></trkpt><trkpt lat="44.14757" lon="11.32724"><ele>889.3333333333333</ele><time>2026-05-02T08:12:56.728Z</time></trkpt><trkpt lat="44.1477333" lon="11.3273283"><ele>887.6666666666666</ele><time>2026-05-02T08:12:57.727Z</time></trkpt><trkpt lat="44.1478817" lon="11.3274267"><ele>886.0</ele><time>2026-05-02T08:12:58.728Z</time></trkpt><trkpt lat="44.1480183" lon="11.32749"><ele>886.0</ele><time>2026-05-02T08:12:59.729Z</time></trkpt><trkpt lat="44.1481533" lon="11.327495"><ele>886.0</ele><time>2026-05-02T08:13:00.729Z</time></trkpt><trkpt lat="44.1482917" lon="11.3274433"><ele>886.0</ele><time>2026-05-02T08:13:01.728Z</time></trkpt><trkpt lat="44.148425" lon="11.3273283"><ele>886.0</ele><time>2026-05-02T08:13:02.727Z</time></trkpt><trkpt lat="44.148555" lon="11.3271617"><ele>892.3333333333333</ele><time>2026-05-02T08:13:03.727Z</time></trkpt><trkpt lat="44.1486967" lon="11.3269617"><ele>898.6666666666667</ele><time>2026-05-02T08:13:04.728Z</time></trkpt><trkpt lat="44.1488433" lon="11.3267367"><ele>905.0</ele><time>2026-05-02T08:13:05.729Z</time></trkpt><trkpt lat="44.1489967" lon="11.326525"><ele>906.0</ele><time>2026-05-02T08:13:06.728Z</time></trkpt><trkpt lat="44.1491483" lon="11.326325"><ele>907.0</ele><time>2026-05-02T08:13:07.729Z</time></trkpt><trkpt lat="44.1492933" lon="11.3261467"><ele>908.0</ele><time>2026-05-02T08:13:08.729Z</time></trkpt><trkpt lat="44.149445" lon="11.3259983"><ele>908.0</ele><time>2026-05-02T08:13:09.729Z</time></trkpt><trkpt lat="44.1496083" lon="11.3258883"><ele>908.0</ele><time>2026-05-02T08:13:10.727Z</time></trkpt><trkpt lat="44.149805" lon="11.32584"><ele>908.0</ele><time>2026-05-02T08:13:11.728Z</time></trkpt><trkpt lat="44.1500117" lon="11.32583"><ele>902.0</ele><time>2026-05-02T08:13:12.728Z</time></trkpt><trkpt lat="44.150235" lon="11.3258467"><ele>896.0</ele><time>2026-05-02T08:13:13.729Z</time></trkpt><trkpt lat="44.1504633" lon="11.3258733"><ele>896.0</ele><time>2026-05-02T08:13:14.729Z</time></trkpt><trkpt lat="44.1506717" lon="11.325885"><ele>896.0</ele><time>2026-05-02T08:13:15.728Z</time></trkpt><trkpt lat="44.150875" lon="11.3258783"><ele>896.0</ele><time>2026-05-02T08:13:16.729Z</time></trkpt><trkpt lat="44.1510633" lon="11.325825"><ele>897.0</ele><time>2026-05-02T08:13:17.727Z</time></trkpt><trkpt lat="44.1512517" lon="11.3257367"><ele>898.0</ele><time>2026-05-02T08:13:18.729Z</time></trkpt><trkpt lat="44.1514367" lon="11.3256283"><ele>899.0</ele><time>2026-05-02T08:13:19.728Z</time></trkpt><trkpt lat="44.15162" lon="11.3254933"><ele>899.0</ele><time>2026-05-02T08:13:20.727Z</time></trkpt><trkpt lat="44.1518" lon="11.32534"><ele>899.0</ele><time>2026-05-02T08:13:21.728Z</time></trkpt><trkpt lat="44.1519733" lon="11.3251833"><ele>899.0</ele><time>2026-05-02T08:13:22.729Z</time></trkpt><trkpt lat="44.1521417" lon="11.3250367"><ele>899.0</ele><time>2026-05-02T08:13:23.729Z</time></trkpt><trkpt lat="44.1523" lon="11.3249033"><ele>899.0</ele><time>2026-05-02T08:13:24.728Z</time></trkpt><trkpt lat="44.1524483" lon="11.3247833"><ele>899.0</ele><time>2026-05-02T08:13:25.728Z</time></trkpt><trkpt lat="44.1525817" lon="11.3246683"><ele>900.6666666666667</ele><time>2026-05-02T08:13:26.727Z</time></trkpt><trkpt lat="44.1527117" lon="11.324545"><ele>902.3333333333333</ele><time>2026-05-02T08:13:27.728Z</time></trkpt><trkpt lat="44.152855" lon="11.32446"><ele>904.0</ele><time>2026-05-02T08:13:28.729Z</time></trkpt><trkpt lat="44.153015" lon="11.3244233"><ele>904.0</ele><time>2026-05-02T08:13:29.728Z</time></trkpt><trkpt lat="44.1531933" lon="11.3244733"><ele>904.0</ele><time>2026-05-02T08:13:30.728Z</time></trkpt><trkpt lat="44.1533733" lon="11.3245767"><ele>904.0</ele><time>2026-05-02T08:13:31.727Z</time></trkpt><trkpt lat="44.1535467" lon="11.324715"><ele>897.6666666666666</ele><time>2026-05-02T08:13:32.728Z</time></trkpt><trkpt lat="44.1537017" lon="11.3248617"><ele>891.3333333333333</ele><time>2026-05-02T08:13:33.729Z</time></trkpt><trkpt lat="44.1538633" lon="11.3249917"><ele>885.0</ele><time>2026-05-02T08:13:34.727Z</time></trkpt><trkpt lat="44.1540383" lon="11.325095"><ele>887.0</ele><time>2026-05-02T08:13:35.727Z</time></trkpt><trkpt lat="44.1542117" lon="11.3251617"><ele>889.0</ele><time>2026-05-02T08:13:36.728Z</time></trkpt><trkpt lat="44.1543683" lon="11.325195"><ele>891.0</ele><time>2026-05-02T08:13:37.729Z</time></trkpt><trkpt lat="44.1545133" lon="11.3251717"><ele>891.0</ele><time>2026-05-02T08:13:38.729Z</time></trkpt><trkpt lat="44.154645" lon="11.3250883"><ele>891.0</ele><time>2026-05-02T08:13:39.728Z</time></trkpt><trkpt lat="44.154755" lon="11.3249583"><ele>891.0</ele><time>2026-05-02T08:13:40.728Z</time></trkpt><trkpt lat="44.1548517" lon="11.32478"><ele>891.0</ele><time>2026-05-02T08:13:41.728Z</time></trkpt><trkpt lat="44.1549583" lon="11.3245867"><ele>892.3333333333333</ele><time>2026-05-02T08:13:42.727Z</time></trkpt><trkpt lat="44.155095" lon="11.3244"><ele>893.6666666666666</ele><time>2026-05-02T08:13:43.728Z</time></trkpt><trkpt lat="44.1552517" lon="11.3242233"><ele>895.0</ele><time>2026-05-02T08:13:44.729Z</time></trkpt><trkpt lat="44.1554017" lon="11.3240233"><ele>896.3333333333333</ele><time>2026-05-02T08:13:45.729Z</time></trkpt><trkpt lat="44.1555383" lon="11.3238083"><ele>897.6666666666667</ele><time>2026-05-02T08:13:46.727Z</time></trkpt><trkpt lat="44.1556633" lon="11.3236"><ele>899.0</ele><time>2026-05-02T08:13:47.728Z</time></trkpt><trkpt lat="44.1557967" lon="11.3234233"><ele>899.0</ele><time>2026-05-02T08:13:48.729Z</time></trkpt><trkpt lat="44.155935" lon="11.3232917"><ele>899.0</ele><time>2026-05-02T08:13:49.729Z</time></trkpt><trkpt lat="44.1560833" lon="11.3232117"><ele>899.0</ele><time>2026-05-02T08:13:50.727Z</time></trkpt><trkpt lat="44.1562417" lon="11.3231683"><ele>899.0</ele><time>2026-05-02T08:13:51.729Z</time></trkpt><trkpt lat="44.156415" lon="11.323195"><ele>899.0</ele><time>2026-05-02T08:13:52.73Z</time></trkpt><trkpt lat="44.156585" lon="11.3232633"><ele>899.0</ele><time>2026-05-02T08:13:53.729Z</time></trkpt><trkpt lat="44.1567467" lon="11.32335"><ele>899.6666666666667</ele><time>2026-05-02T08:13:54.729Z</time></trkpt><trkpt lat="44.1569117" lon="11.3234117"><ele>900.3333333333333</ele><time>2026-05-02T08:13:55.729Z</time></trkpt><trkpt lat="44.15708" lon="11.32342"><ele>901.0</ele><time>2026-05-02T08:13:56.727Z</time></trkpt><trkpt lat="44.157255" lon="11.3233567"><ele>901.0</ele><time>2026-05-02T08:13:57.727Z</time></trkpt><trkpt lat="44.15743" lon="11.3232467"><ele>901.0</ele><time>2026-05-02T08:13:58.728Z</time></trkpt><trkpt lat="44.1575833" lon="11.3231017"><ele>901.0</ele><time>2026-05-02T08:13:59.727Z</time></trkpt><trkpt lat="44.1577233" lon="11.3229467"><ele>902.6666666666666</ele><time>2026-05-02T08:14:00.728Z</time></trkpt><trkpt lat="44.1578667" lon="11.3228083"><ele>904.3333333333333</ele><time>2026-05-02T08:14:01.728Z</time></trkpt><trkpt lat="44.1580233" lon="11.3227133"><ele>906.0</ele><time>2026-05-02T08:14:02.728Z</time></trkpt><trkpt lat="44.1581933" lon="11.3226867"><ele>905.6666666666667</ele><time>2026-05-02T08:14:03.729Z</time></trkpt><trkpt lat="44.1583617" lon="11.3227117"><ele>905.3333333333334</ele><time>2026-05-02T08:14:04.728Z</time></trkpt><trkpt lat="44.1585217" lon="11.3228017"><ele>905.0</ele><time>2026-05-02T08:14:05.727Z</time></trkpt><trkpt lat="44.1586733" lon="11.3229167"><ele>903.0</ele><time>2026-05-02T08:14:06.728Z</time></trkpt><trkpt lat="44.1588083" lon="11.3230683"><ele>901.0</ele><time>2026-05-02T08:14:07.729Z</time></trkpt><trkpt lat="44.158935" lon="11.323225"><ele>899.0</ele><time>2026-05-02T08:14:08.727Z</time></trkpt><trkpt lat="44.15907" lon="11.3233633"><ele>899.0</ele><time>2026-05-02T08:14:09.729Z</time></trkpt><trkpt lat="44.1592283" lon="11.3234883"><ele>899.0</ele><time>2026-05-02T08:14:10.728Z</time></trkpt><trkpt lat="44.1593967" lon="11.3236117"><ele>899.0</ele><time>2026-05-02T08:14:11.727Z</time></trkpt><trkpt lat="44.15956" lon="11.3237467"><ele>899.0</ele><time>2026-05-02T08:14:12.728Z</time></trkpt><trkpt lat="44.1597183" lon="11.3238883"><ele>899.0</ele><time>2026-05-02T08:14:13.728Z</time></trkpt><trkpt lat="44.159845" lon="11.3240683"><ele>899.0</ele><time>2026-05-02T08:14:14.728Z</time></trkpt><trkpt lat="44.1599383" lon="11.3243"><ele>899.0</ele><time>2026-05-02T08:14:15.729Z</time></trkpt><trkpt lat="44.1600117" lon="11.3245617"><ele>899.0</ele><time>2026-05-02T08:14:16.728Z</time></trkpt><trkpt lat="44.1600767" lon="11.32484"><ele>899.0</ele><time>2026-05-02T08:14:17.728Z</time></trkpt><trkpt lat="44.1601517" lon="11.325125"><ele>896.0</ele><time>2026-05-02T08:14:18.728Z</time></trkpt><trkpt lat="44.1602367" lon="11.3254117"><ele>893.0</ele><time>2026-05-02T08:14:19.728Z</time></trkpt><trkpt lat="44.16033" lon="11.3256967"><ele>890.0</ele><time>2026-05-02T08:14:20.729Z</time></trkpt><trkpt lat="44.1604233" lon="11.3259867"><ele>889.3333333333334</ele><time>2026-05-02T08:14:21.728Z</time></trkpt><trkpt lat="44.1605217" lon="11.3262683"><ele>888.6666666666667</ele><time>2026-05-02T08:14:22.728Z</time></trkpt><trkpt lat="44.16062" lon="11.32655"><ele>888.0</ele><time>2026-05-02T08:14:23.729Z</time></trkpt><trkpt lat="44.1607267" lon="11.3268217"><ele>888.0</ele><time>2026-05-02T08:14:24.729Z</time></trkpt><trkpt lat="44.1608383" lon="11.32708"><ele>888.0</ele><time>2026-05-02T08:14:25.728Z</time></trkpt><trkpt lat="44.1609483" lon="11.3273383"><ele>888.0</ele><time>2026-05-02T08:14:26.729Z</time></trkpt><trkpt lat="44.161045" lon="11.3276"><ele>886.3333333333333</ele><time>2026-05-02T08:14:27.727Z</time></trkpt><trkpt lat="44.1611217" lon="11.3278567"><ele>884.6666666666666</ele><time>2026-05-02T08:14:28.726Z</time></trkpt><trkpt lat="44.16118" lon="11.32811"><ele>883.0</ele><time>2026-05-02T08:14:29.727Z</time></trkpt><trkpt lat="44.1612233" lon="11.3283567"><ele>882.6666666666666</ele><time>2026-05-02T08:14:30.729Z</time></trkpt><trkpt lat="44.1612533" lon="11.3286017"><ele>882.3333333333333</ele><time>2026-05-02T08:14:31.728Z</time></trkpt><trkpt lat="44.161285" lon="11.3288317"><ele>882.0</ele><time>2026-05-02T08:14:32.729Z</time></trkpt><trkpt lat="44.1613267" lon="11.3290317"><ele>881.75</ele><time>2026-05-02T08:14:33.727Z</time></trkpt><trkpt lat="44.1613817" lon="11.3292133"><ele>881.5</ele><time>2026-05-02T08:14:34.728Z</time></trkpt><trkpt lat="44.161455" lon="11.3293667"><ele>881.25</ele><time>2026-05-02T08:14:35.729Z</time></trkpt><trkpt lat="44.1615683" lon="11.329495"><ele>881.0</ele><time>2026-05-02T08:14:36.729Z</time></trkpt><trkpt lat="44.1617083" lon="11.3295933"><ele>881.0</ele><time>2026-05-02T08:14:37.729Z</time></trkpt><trkpt lat="44.1618517" lon="11.3296667"><ele>881.0</ele><time>2026-05-02T08:14:38.728Z</time></trkpt><trkpt lat="44.162005" lon="11.32971"><ele>881.0</ele><time>2026-05-02T08:14:39.729Z</time></trkpt><trkpt lat="44.162155" lon="11.3297167"><ele>881.0</ele><time>2026-05-02T08:14:40.729Z</time></trkpt><trkpt lat="44.162305" lon="11.32971"><ele>881.0</ele><time>2026-05-02T08:14:41.729Z</time></trkpt><trkpt lat="44.1624617" lon="11.3297267"><ele>881.0</ele><time>2026-05-02T08:14:42.727Z</time></trkpt><trkpt lat="44.162605" lon="11.3297983"><ele>877.0</ele><time>2026-05-02T08:14:43.728Z</time></trkpt><trkpt lat="44.1627267" lon="11.32992"><ele>873.0</ele><time>2026-05-02T08:14:44.727Z</time></trkpt><trkpt lat="44.1628233" lon="11.330065"><ele>869.0</ele><time>2026-05-02T08:14:45.728Z</time></trkpt><trkpt lat="44.16287" lon="11.3302483"><ele>865.0</ele><time>2026-05-02T08:14:46.728Z</time></trkpt><trkpt lat="44.1628817" lon="11.330455"><ele>862.25</ele><time>2026-05-02T08:14:47.729Z</time></trkpt><trkpt lat="44.16287" lon="11.3306533"><ele>859.5</ele><time>2026-05-02T08:14:48.727Z</time></trkpt><trkpt lat="44.162845" lon="11.330845"><ele>856.75</ele><time>2026-05-02T08:14:49.728Z</time></trkpt><trkpt lat="44.162835" lon="11.3310283"><ele>854.0</ele><time>2026-05-02T08:14:50.729Z</time></trkpt><trkpt lat="44.162865" lon="11.33119"><ele>854.0</ele><time>2026-05-02T08:14:51.728Z</time></trkpt><trkpt lat="44.1629383" lon="11.3313183"><ele>854.0</ele><time>2026-05-02T08:14:52.727Z</time></trkpt><trkpt lat="44.1630483" lon="11.3314217"><ele>854.0</ele><time>2026-05-02T08:14:53.727Z</time></trkpt><trkpt lat="44.1631767" lon="11.3315167"><ele>854.0</ele><time>2026-05-02T08:14:54.728Z</time></trkpt><trkpt lat="44.16331" lon="11.3316133"><ele>853.25</ele><time>2026-05-02T08:14:55.728Z</time></trkpt><trkpt lat="44.1634383" lon="11.3317117"><ele>852.5</ele><time>2026-05-02T08:14:56.728Z</time></trkpt><trkpt lat="44.1635617" lon="11.3318167"><ele>851.75</ele><time>2026-05-02T08:14:57.727Z</time></trkpt><trkpt lat="44.1636717" lon="11.3319183"><ele>851.0</ele><time>2026-05-02T08:14:58.728Z</time></trkpt><trkpt lat="44.1637717" lon="11.3320383"><ele>851.0</ele><time>2026-05-02T08:14:59.728Z</time></trkpt><trkpt lat="44.1638617" lon="11.3321733"><ele>851.0</ele><time>2026-05-02T08:15:00.729Z</time></trkpt><trkpt lat="44.1639467" lon="11.3323183"><ele>851.0</ele><time>2026-05-02T08:15:01.728Z</time></trkpt><trkpt lat="44.1640267" lon="11.3324683"><ele>851.0</ele><time>2026-05-02T08:15:02.729Z</time></trkpt><trkpt lat="44.16411" lon="11.3326183"><ele>851.5</ele><time>2026-05-02T08:15:03.728Z</time></trkpt><trkpt lat="44.1641983" lon="11.332755"><ele>852.0</ele><time>2026-05-02T08:15:04.728Z</time></trkpt><trkpt lat="44.1642917" lon="11.332875"><ele>852.5</ele><time>2026-05-02T08:15:05.729Z</time></trkpt><trkpt lat="44.1643817" lon="11.333"><ele>853.0</ele><time>2026-05-02T08:15:06.729Z</time></trkpt><trkpt lat="44.16445" lon="11.3331367"><ele>851.5</ele><time>2026-05-02T08:15:07.729Z</time></trkpt><trkpt lat="44.1644917" lon="11.333285"><ele>850.0</ele><time>2026-05-02T08:15:08.729Z</time></trkpt><trkpt lat="44.1645217" lon="11.3334417"><ele>848.5</ele><time>2026-05-02T08:15:09.727Z</time></trkpt><trkpt lat="44.1645533" lon="11.3335983"><ele>847.0</ele><time>2026-05-02T08:15:10.729Z</time></trkpt><trkpt lat="44.1645917" lon="11.333745"><ele>847.0</ele><time>2026-05-02T08:15:11.729Z</time></trkpt><trkpt lat="44.164635" lon="11.3338867"><ele>847.0</ele><time>2026-05-02T08:15:12.727Z</time></trkpt><trkpt lat="44.16469" lon="11.3340117"><ele>847.0</ele><time>2026-05-02T08:15:13.729Z</time></trkpt><trkpt lat="44.1647533" lon="11.3341183"><ele>847.0</ele><time>2026-05-02T08:15:14.728Z</time></trkpt><trkpt lat="44.164825" lon="11.3342167"><ele>847.0</ele><time>2026-05-02T08:15:15.727Z</time></trkpt><trkpt lat="44.164895" lon="11.3343283"><ele>848.0</ele><time>2026-05-02T08:15:16.727Z</time></trkpt><trkpt lat="44.1649717" lon="11.3344483"><ele>849.0</ele><time>2026-05-02T08:15:17.728Z</time></trkpt><trkpt lat="44.1650533" lon="11.3345733"><ele>850.0</ele><time>2026-05-02T08:15:18.728Z</time></trkpt><trkpt lat="44.16514" lon="11.3347117"><ele>851.0</ele><time>2026-05-02T08:15:19.728Z</time></trkpt><trkpt lat="44.1652233" lon="11.3348683"><ele>851.0</ele><time>2026-05-02T08:15:20.727Z</time></trkpt><trkpt lat="44.1652983" lon="11.33504"><ele>851.0</ele><time>2026-05-02T08:15:21.728Z</time></trkpt><trkpt lat="44.1653517" lon="11.3352283"><ele>851.0</ele><time>2026-05-02T08:15:22.729Z</time></trkpt><trkpt lat="44.1653917" lon="11.3354183"><ele>851.0</ele><time>2026-05-02T08:15:23.727Z</time></trkpt><trkpt lat="44.16542" lon="11.335605"><ele>851.1999999999999</ele><time>2026-05-02T08:15:24.727Z</time></trkpt><trkpt lat="44.165435" lon="11.3357783"><ele>851.4</ele><time>2026-05-02T08:15:25.728Z</time></trkpt><trkpt lat="44.1654467" lon="11.335925"><ele>851.6</ele><time>2026-05-02T08:15:26.729Z</time></trkpt><trkpt lat="44.1654583" lon="11.3360483"><ele>851.8</ele><time>2026-05-02T08:15:27.726Z</time></trkpt><trkpt lat="44.1654817" lon="11.3361617"><ele>852.0</ele><time>2026-05-02T08:15:28.726Z</time></trkpt><trkpt lat="44.1655517" lon="11.3362267"><ele>852.0</ele><time>2026-05-02T08:15:29.727Z</time></trkpt><trkpt lat="44.1656383" lon="11.33624"><ele>852.0</ele><time>2026-05-02T08:15:30.728Z</time></trkpt><trkpt lat="44.1657317" lon="11.336225"><ele>852.0</ele><time>2026-05-02T08:15:31.728Z</time></trkpt><trkpt lat="44.1658417" lon="11.3361817"><ele>852.0</ele><time>2026-05-02T08:15:32.727Z</time></trkpt><trkpt lat="44.1659633" lon="11.33611"><ele>852.0</ele><time>2026-05-02T08:15:33.729Z</time></trkpt><trkpt lat="44.1660833" lon="11.3360233"><ele>854.5</ele><time>2026-05-02T08:15:34.726Z</time></trkpt><trkpt lat="44.166205" lon="11.3359383"><ele>857.0</ele><time>2026-05-02T08:15:35.729Z</time></trkpt><trkpt lat="44.1663317" lon="11.33584"><ele>859.5</ele><time>2026-05-02T08:15:36.726Z</time></trkpt><trkpt lat="44.16647" lon="11.3357183"><ele>862.0</ele><time>2026-05-02T08:15:37.728Z</time></trkpt><trkpt lat="44.1666117" lon="11.3355983"><ele>864.0</ele><time>2026-05-02T08:15:38.729Z</time></trkpt><trkpt lat="44.1667433" lon="11.3354817"><ele>866.0</ele><time>2026-05-02T08:15:39.729Z</time></trkpt><trkpt lat="44.166875" lon="11.3353733"><ele>868.0</ele><time>2026-05-02T08:15:40.727Z</time></trkpt><trkpt lat="44.1670067" lon="11.3352683"><ele>868.0</ele><time>2026-05-02T08:15:41.727Z</time></trkpt><trkpt lat="44.1671367" lon="11.33516"><ele>868.0</ele><time>2026-05-02T08:15:42.729Z</time></trkpt><trkpt lat="44.1672617" lon="11.3350583"><ele>868.0</ele><time>2026-05-02T08:15:43.729Z</time></trkpt><trkpt lat="44.1673783" lon="11.3349617"><ele>868.0</ele><time>2026-05-02T08:15:44.729Z</time></trkpt><trkpt lat="44.1674683" lon="11.3348583"><ele>869.25</ele><time>2026-05-02T08:15:45.727Z</time></trkpt><trkpt lat="44.167525" lon="11.33474"><ele>870.5</ele><time>2026-05-02T08:15:46.726Z</time></trkpt><trkpt lat="44.16753" lon="11.3346"><ele>871.75</ele><time>2026-05-02T08:15:47.728Z</time></trkpt><trkpt lat="44.1674983" lon="11.334435"><ele>873.0</ele><time>2026-05-02T08:15:48.728Z</time></trkpt><trkpt lat="44.16743" lon="11.3342717"><ele>872.75</ele><time>2026-05-02T08:15:49.728Z</time></trkpt><trkpt lat="44.16734" lon="11.3340933"><ele>872.5</ele><time>2026-05-02T08:15:50.729Z</time></trkpt><trkpt lat="44.1672483" lon="11.3339267"><ele>872.25</ele><time>2026-05-02T08:15:51.726Z</time></trkpt><trkpt lat="44.16719" lon="11.3337617"><ele>872.0</ele><time>2026-05-02T08:15:52.728Z</time></trkpt><trkpt lat="44.16718" lon="11.3335883"><ele>875.0</ele><time>2026-05-02T08:15:53.728Z</time></trkpt><trkpt lat="44.1672183" lon="11.3334167"><ele>878.0</ele><time>2026-05-02T08:15:54.728Z</time></trkpt><trkpt lat="44.1673133" lon="11.3332417"><ele>881.0</ele><time>2026-05-02T08:15:55.729Z</time></trkpt><trkpt lat="44.1674233" lon="11.3330617"><ele>884.3333333333334</ele><time>2026-05-02T08:15:56.729Z</time></trkpt><trkpt lat="44.1675317" lon="11.3328867"><ele>887.6666666666667</ele><time>2026-05-02T08:15:57.728Z</time></trkpt><trkpt lat="44.1676317" lon="11.3327217"><ele>891.0</ele><time>2026-05-02T08:15:58.727Z</time></trkpt><trkpt lat="44.167735" lon="11.332595"><ele>891.0</ele><time>2026-05-02T08:15:59.727Z</time></trkpt><trkpt lat="44.1678517" lon="11.3325467"><ele>891.0</ele><time>2026-05-02T08:16:00.728Z</time></trkpt><trkpt lat="44.1679883" lon="11.3325683"><ele>891.0</ele><time>2026-05-02T08:16:01.729Z</time></trkpt><trkpt lat="44.1681433" lon="11.3326217"><ele>891.0</ele><time>2026-05-02T08:16:02.729Z</time></trkpt><trkpt lat="44.168315" lon="11.3326767"><ele>896.3333333333333</ele><time>2026-05-02T08:16:03.727Z</time></trkpt><trkpt lat="44.168515" lon="11.332735"><ele>901.6666666666666</ele><time>2026-05-02T08:16:04.729Z</time></trkpt><trkpt lat="44.1687333" lon="11.3328017"><ele>907.0</ele><time>2026-05-02T08:16:05.729Z</time></trkpt><trkpt lat="44.1689383" lon="11.3328583"><ele>910.6666666666666</ele><time>2026-05-02T08:16:06.729Z</time></trkpt><trkpt lat="44.1691267" lon="11.3328983"><ele>914.3333333333333</ele><time>2026-05-02T08:16:07.728Z</time></trkpt><trkpt lat="44.1693133" lon="11.3328983"><ele>918.0</ele><time>2026-05-02T08:16:08.728Z</time></trkpt><trkpt lat="44.16951" lon="11.3328517"><ele>918.0</ele><time>2026-05-02T08:16:09.729Z</time></trkpt><trkpt lat="44.16971" lon="11.332775"><ele>918.0</ele><time>2026-05-02T08:16:10.727Z</time></trkpt><trkpt lat="44.169895" lon="11.3326917"><ele>918.0</ele><time>2026-05-02T08:16:11.727Z</time></trkpt><trkpt lat="44.1700733" lon="11.3326183"><ele>920.3333333333333</ele><time>2026-05-02T08:16:12.727Z</time></trkpt><trkpt lat="44.1702367" lon="11.3325683"><ele>922.6666666666666</ele><time>2026-05-02T08:16:13.727Z</time></trkpt><trkpt lat="44.17039" lon="11.33255"><ele>925.0</ele><time>2026-05-02T08:16:14.727Z</time></trkpt><trkpt lat="44.1705217" lon="11.3325783"><ele>925.0</ele><time>2026-05-02T08:16:15.727Z</time></trkpt><trkpt lat="44.1706267" lon="11.3326667"><ele>925.0</ele><time>2026-05-02T08:16:16.729Z</time></trkpt><trkpt lat="44.17071" lon="11.3328233"><ele>925.0</ele><time>2026-05-02T08:16:17.726Z</time></trkpt><trkpt lat="44.170775" lon="11.3330217"><ele>925.0</ele><time>2026-05-02T08:16:18.727Z</time></trkpt><trkpt lat="44.170825" lon="11.33325"><ele>925.0</ele><time>2026-05-02T08:16:19.73Z</time></trkpt><trkpt lat="44.1708633" lon="11.3334983"><ele>925.0</ele><time>2026-05-02T08:16:20.729Z</time></trkpt><trkpt lat="44.1708967" lon="11.3337433"><ele>925.0</ele><time>2026-05-02T08:16:21.729Z</time></trkpt><trkpt lat="44.1709417" lon="11.3339683"><ele>925.0</ele><time>2026-05-02T08:16:22.729Z</time></trkpt><trkpt lat="44.1710217" lon="11.334175"><ele>925.0</ele><time>2026-05-02T08:16:23.731Z</time></trkpt><trkpt lat="44.17113" lon="11.3343717"><ele>925.0</ele><time>2026-05-02T08:16:24.727Z</time></trkpt><trkpt lat="44.1712583" lon="11.3345767"><ele>924.3333333333333</ele><time>2026-05-02T08:16:25.728Z</time></trkpt><trkpt lat="44.17139" lon="11.334785"><ele>923.6666666666667</ele><time>2026-05-02T08:16:26.728Z</time></trkpt><trkpt lat="44.17151" lon="11.3349967"><ele>923.0</ele><time>2026-05-02T08:16:27.728Z</time></trkpt><trkpt lat="44.1716183" lon="11.3352167"><ele>928.6666666666667</ele><time>2026-05-02T08:16:28.728Z</time></trkpt><trkpt lat="44.171715" lon="11.33543"><ele>934.3333333333333</ele><time>2026-05-02T08:16:29.728Z</time></trkpt><trkpt lat="44.1718017" lon="11.335635"><ele>940.0</ele><time>2026-05-02T08:16:30.729Z</time></trkpt><trkpt lat="44.171885" lon="11.335825"><ele>940.0</ele><time>2026-05-02T08:16:31.726Z</time></trkpt><trkpt lat="44.1719617" lon="11.335995"><ele>940.0</ele><time>2026-05-02T08:16:32.73Z</time></trkpt><trkpt lat="44.1720317" lon="11.3361483"><ele>940.0</ele><time>2026-05-02T08:16:33.728Z</time></trkpt><trkpt lat="44.1720933" lon="11.3362917"><ele>940.0</ele><time>2026-05-02T08:16:34.729Z</time></trkpt><trkpt lat="44.1721517" lon="11.3364283"><ele>939.6</ele><time>2026-05-02T08:16:35.728Z</time></trkpt><trkpt lat="44.1721933" lon="11.33657"><ele>939.2</ele><time>2026-05-02T08:16:36.728Z</time></trkpt><trkpt lat="44.1722183" lon="11.33672"><ele>938.8</ele><time>2026-05-02T08:16:37.727Z</time></trkpt><trkpt lat="44.1722383" lon="11.3368717"><ele>938.4</ele><time>2026-05-02T08:16:38.728Z</time></trkpt><trkpt lat="44.1722483" lon="11.337025"><ele>938.0</ele><time>2026-05-02T08:16:39.729Z</time></trkpt><trkpt lat="44.17227" lon="11.3371817"><ele>938.0</ele><time>2026-05-02T08:16:40.728Z</time></trkpt><trkpt lat="44.1723167" lon="11.337345"><ele>938.0</ele><time>2026-05-02T08:16:41.726Z</time></trkpt><trkpt lat="44.17239" lon="11.3375167"><ele>938.0</ele><time>2026-05-02T08:16:42.725Z</time></trkpt><trkpt lat="44.1724767" lon="11.337705"><ele>938.0</ele><time>2026-05-02T08:16:43.727Z</time></trkpt><trkpt lat="44.172555" lon="11.3378983"><ele>943.75</ele><time>2026-05-02T08:16:44.727Z</time></trkpt><trkpt lat="44.1726217" lon="11.3380817"><ele>949.5</ele><time>2026-05-02T08:16:45.725Z</time></trkpt><trkpt lat="44.1726867" lon="11.3382417"><ele>955.25</ele><time>2026-05-02T08:16:46.729Z</time></trkpt><trkpt lat="44.1727433" lon="11.3383817"><ele>961.0</ele><time>2026-05-02T08:16:47.728Z</time></trkpt><trkpt lat="44.17281" lon="11.3385083"><ele>960.9999999999999</ele><time>2026-05-02T08:16:48.729Z</time></trkpt><trkpt lat="44.17286" lon="11.338615"><ele>961.0</ele><time>2026-05-02T08:16:49.729Z</time></trkpt><trkpt lat="44.1729033" lon="11.3387067"><ele>961.0</ele><time>2026-05-02T08:16:50.73Z</time></trkpt><trkpt lat="44.17294" lon="11.33878"><ele>961.0</ele><time>2026-05-02T08:16:51.728Z</time></trkpt><trkpt lat="44.1729767" lon="11.3388533"><ele>960.9999999999999</ele><time>2026-05-02T08:16:52.726Z</time></trkpt><trkpt lat="44.1730183" lon="11.33894"><ele>961.0</ele><time>2026-05-02T08:16:53.729Z</time></trkpt><trkpt lat="44.1730633" lon="11.339045"><ele>961.5</ele><time>2026-05-02T08:16:54.729Z</time></trkpt><trkpt lat="44.1731167" lon="11.3391583"><ele>962.0</ele><time>2026-05-02T08:16:55.73Z</time></trkpt><trkpt lat="44.1731767" lon="11.3392967"><ele>962.5</ele><time>2026-05-02T08:16:56.729Z</time></trkpt><trkpt lat="44.1732433" lon="11.33944"><ele>963.0</ele><time>2026-05-02T08:16:57.729Z</time></trkpt><trkpt lat="44.1733133" lon="11.33959"><ele>964.25</ele><time>2026-05-02T08:16:58.728Z</time></trkpt><trkpt lat="44.1733883" lon="11.3397383"><ele>965.5</ele><time>2026-05-02T08:16:59.729Z</time></trkpt><trkpt lat="44.17347" lon="11.33988"><ele>966.75</ele><time>2026-05-02T08:17:00.726Z</time></trkpt><trkpt lat="44.173555" lon="11.340015"><ele>968.0</ele><time>2026-05-02T08:17:01.729Z</time></trkpt><trkpt lat="44.1736417" lon="11.3401383"><ele>968.0</ele><time>2026-05-02T08:17:02.728Z</time></trkpt><trkpt lat="44.173725" lon="11.3402533"><ele>968.0</ele><time>2026-05-02T08:17:03.729Z</time></trkpt><trkpt lat="44.1738017" lon="11.34037"><ele>968.0</ele><time>2026-05-02T08:17:04.728Z</time></trkpt><trkpt lat="44.1738667" lon="11.34049"><ele>968.0</ele><time>2026-05-02T08:17:05.729Z</time></trkpt><trkpt lat="44.1739133" lon="11.3406283"><ele>968.0</ele><time>2026-05-02T08:17:06.729Z</time></trkpt><trkpt lat="44.1739333" lon="11.34078"><ele>967.75</ele><time>2026-05-02T08:17:07.728Z</time></trkpt><trkpt lat="44.17392" lon="11.340945"><ele>967.5</ele><time>2026-05-02T08:17:08.73Z</time></trkpt><trkpt lat="44.1738733" lon="11.3411033"><ele>967.25</ele><time>2026-05-02T08:17:09.729Z</time></trkpt><trkpt lat="44.1738" lon="11.341255"><ele>967.0</ele><time>2026-05-02T08:17:10.727Z</time></trkpt><trkpt lat="44.1736867" lon="11.3413867"><ele>963.75</ele><time>2026-05-02T08:17:11.728Z</time></trkpt><trkpt lat="44.1735633" lon="11.3415067"><ele>960.5</ele><time>2026-05-02T08:17:12.727Z</time></trkpt><trkpt lat="44.1734583" lon="11.3416283"><ele>957.25</ele><time>2026-05-02T08:17:13.729Z</time></trkpt><trkpt lat="44.1733783" lon="11.34177"><ele>954.0</ele><time>2026-05-02T08:17:14.728Z</time></trkpt><trkpt lat="44.1733317" lon="11.34193"><ele>954.0</ele><time>2026-05-02T08:17:15.727Z</time></trkpt><trkpt lat="44.1733183" lon="11.3421067"><ele>954.0</ele><time>2026-05-02T08:17:16.728Z</time></trkpt><trkpt lat="44.1733467" lon="11.3422933"><ele>954.0</ele><time>2026-05-02T08:17:17.727Z</time></trkpt><trkpt lat="44.1734" lon="11.342485"><ele>954.0</ele><time>2026-05-02T08:17:18.729Z</time></trkpt><trkpt lat="44.1734833" lon="11.3426783"><ele>954.0</ele><time>2026-05-02T08:17:19.73Z</time></trkpt><trkpt lat="44.1735683" lon="11.3428767"><ele>954.0</ele><time>2026-05-02T08:17:20.728Z</time></trkpt><trkpt lat="44.173655" lon="11.3430733"><ele>954.0</ele><time>2026-05-02T08:17:21.729Z</time></trkpt><trkpt lat="44.173745" lon="11.3432667"><ele>955.0</ele><time>2026-05-02T08:17:22.728Z</time></trkpt><trkpt lat="44.173845" lon="11.34345"><ele>956.0</ele><time>2026-05-02T08:17:23.729Z</time></trkpt><trkpt lat="44.17396" lon="11.3436167"><ele>957.0</ele><time>2026-05-02T08:17:24.729Z</time></trkpt><trkpt lat="44.1740883" lon="11.343765"><ele>953.3333333333333</ele><time>2026-05-02T08:17:25.728Z</time></trkpt><trkpt lat="44.17423" lon="11.3438917"><ele>949.6666666666666</ele><time>2026-05-02T08:17:26.728Z</time></trkpt><trkpt lat="44.1743833" lon="11.344"><ele>946.0</ele><time>2026-05-02T08:17:27.728Z</time></trkpt><trkpt lat="44.174545" lon="11.344085"><ele>946.0</ele><time>2026-05-02T08:17:28.729Z</time></trkpt><trkpt lat="44.1747133" lon="11.3441533"><ele>946.0</ele><time>2026-05-02T08:17:29.728Z</time></trkpt><trkpt lat="44.1748883" lon="11.3442033"><ele>946.0</ele><time>2026-05-02T08:17:30.728Z</time></trkpt><trkpt lat="44.1750633" lon="11.34424"><ele>942.6666666666666</ele><time>2026-05-02T08:17:31.728Z</time></trkpt><trkpt lat="44.1752417" lon="11.3442833"><ele>939.3333333333333</ele><time>2026-05-02T08:17:32.729Z</time></trkpt><trkpt lat="44.1754183" lon="11.3443267"><ele>936.0</ele><time>2026-05-02T08:17:33.728Z</time></trkpt><trkpt lat="44.1755933" lon="11.344375"><ele>932.3333333333333</ele><time>2026-05-02T08:17:34.727Z</time></trkpt><trkpt lat="44.17576" lon="11.344435"><ele>928.6666666666666</ele><time>2026-05-02T08:17:35.729Z</time></trkpt><trkpt lat="44.175925" lon="11.3445083"><ele>925.0</ele><time>2026-05-02T08:17:36.729Z</time></trkpt><trkpt lat="44.1760917" lon="11.3445983"><ele>925.0</ele><time>2026-05-02T08:17:37.729Z</time></trkpt><trkpt lat="44.1762583" lon="11.344705"><ele>925.0</ele><time>2026-05-02T08:17:38.729Z</time></trkpt><trkpt lat="44.17642" lon="11.344825"><ele>925.0</ele><time>2026-05-02T08:17:39.728Z</time></trkpt><trkpt lat="44.1765783" lon="11.3449467"><ele>925.6666666666666</ele><time>2026-05-02T08:17:40.728Z</time></trkpt><trkpt lat="44.1767333" lon="11.3450733"><ele>926.3333333333333</ele><time>2026-05-02T08:17:41.728Z</time></trkpt><trkpt lat="44.176875" lon="11.34522"><ele>927.0</ele><time>2026-05-02T08:17:42.728Z</time></trkpt><trkpt lat="44.1770033" lon="11.3453817"><ele>927.0</ele><time>2026-05-02T08:17:43.726Z</time></trkpt><trkpt lat="44.1771217" lon="11.3455433"><ele>927.0</ele><time>2026-05-02T08:17:44.728Z</time></trkpt><trkpt lat="44.1772383" lon="11.3456867"><ele>927.0</ele><time>2026-05-02T08:17:45.727Z</time></trkpt><trkpt lat="44.1773683" lon="11.3457883"><ele>924.6666666666667</ele><time>2026-05-02T08:17:46.729Z</time></trkpt><trkpt lat="44.1775183" lon="11.3458483"><ele>922.3333333333334</ele><time>2026-05-02T08:17:47.727Z</time></trkpt><trkpt lat="44.1776817" lon="11.345875"><ele>920.0</ele><time>2026-05-02T08:17:48.729Z</time></trkpt><trkpt lat="44.177845" lon="11.3458833"><ele>920.0</ele><time>2026-05-02T08:17:49.729Z</time></trkpt><trkpt lat="44.177995" lon="11.3459"><ele>920.0</ele><time>2026-05-02T08:17:50.729Z</time></trkpt><trkpt lat="44.1781283" lon="11.3459367"><ele>920.0</ele><time>2026-05-02T08:17:51.726Z</time></trkpt><trkpt lat="44.17824" lon="11.3460083"><ele>920.0</ele><time>2026-05-02T08:17:52.729Z</time></trkpt><trkpt lat="44.1783283" lon="11.3461217"><ele>919.5</ele><time>2026-05-02T08:17:53.73Z</time></trkpt><trkpt lat="44.1783983" lon="11.3462633"><ele>919.0</ele><time>2026-05-02T08:17:54.729Z</time></trkpt><trkpt lat="44.1784433" lon="11.3464333"><ele>918.5</ele><time>2026-05-02T08:17:55.728Z</time></trkpt><trkpt lat="44.17849" lon="11.34659"><ele>918.0</ele><time>2026-05-02T08:17:56.73Z</time></trkpt><trkpt lat="44.17856" lon="11.3467133"><ele>918.0</ele><time>2026-05-02T08:17:57.728Z</time></trkpt><trkpt lat="44.17866" lon="11.3468017"><ele>918.0</ele><time>2026-05-02T08:17:58.728Z</time></trkpt><trkpt lat="44.1787833" lon="11.3468583"><ele>918.0</ele><time>2026-05-02T08:17:59.727Z</time></trkpt><trkpt lat="44.1789233" lon="11.3468833"><ele>918.0</ele><time>2026-05-02T08:18:00.728Z</time></trkpt><trkpt lat="44.1790717" lon="11.3468967"><ele>914.0</ele><time>2026-05-02T08:18:01.726Z</time></trkpt><trkpt lat="44.1792183" lon="11.3469117"><ele>910.0</ele><time>2026-05-02T08:18:02.727Z</time></trkpt><trkpt lat="44.179355" lon="11.3469333"><ele>906.0</ele><time>2026-05-02T08:18:03.727Z</time></trkpt><trkpt lat="44.179475" lon="11.34699"><ele>902.0</ele><time>2026-05-02T08:18:04.728Z</time></trkpt><trkpt lat="44.1795717" lon="11.3470983"><ele>901.0</ele><time>2026-05-02T08:18:05.727Z</time></trkpt><trkpt lat="44.1796433" lon="11.34725"><ele>900.0</ele><time>2026-05-02T08:18:06.725Z</time></trkpt><trkpt lat="44.1797" lon="11.3474083"><ele>899.0</ele><time>2026-05-02T08:18:07.726Z</time></trkpt><trkpt lat="44.17977" lon="11.3475433"><ele>898.0</ele><time>2026-05-02T08:18:08.727Z</time></trkpt><trkpt lat="44.1798683" lon="11.347635"><ele>898.0</ele><time>2026-05-02T08:18:09.729Z</time></trkpt><trkpt lat="44.1799933" lon="11.3476917"><ele>898.0</ele><time>2026-05-02T08:18:10.728Z</time></trkpt><trkpt lat="44.1801367" lon="11.3477133"><ele>898.0</ele><time>2026-05-02T08:18:11.726Z</time></trkpt><trkpt lat="44.1802983" lon="11.3477233"><ele>898.0</ele><time>2026-05-02T08:18:12.728Z</time></trkpt><trkpt lat="44.1804667" lon="11.3477283"><ele>898.0</ele><time>2026-05-02T08:18:13.728Z</time></trkpt><trkpt lat="44.18063" lon="11.3477333"><ele>898.0</ele><time>2026-05-02T08:18:14.727Z</time></trkpt><trkpt lat="44.1807883" lon="11.3477683"><ele>898.0</ele><time>2026-05-02T08:18:15.727Z</time></trkpt><trkpt lat="44.180945" lon="11.34783"><ele>901.3333333333333</ele><time>2026-05-02T08:18:16.727Z</time></trkpt><trkpt lat="44.1811" lon="11.34794"><ele>904.6666666666667</ele><time>2026-05-02T08:18:17.726Z</time></trkpt><trkpt lat="44.1812533" lon="11.3480683"><ele>908.0</ele><time>2026-05-02T08:18:18.728Z</time></trkpt><trkpt lat="44.1814067" lon="11.3482"><ele>902.0</ele><time>2026-05-02T08:18:19.728Z</time></trkpt><trkpt lat="44.1815583" lon="11.3483283"><ele>896.0</ele><time>2026-05-02T08:18:20.729Z</time></trkpt><trkpt lat="44.1817033" lon="11.34845"><ele>890.0</ele><time>2026-05-02T08:18:21.727Z</time></trkpt><trkpt lat="44.181835" lon="11.3485733"><ele>890.0</ele><time>2026-05-02T08:18:22.728Z</time></trkpt><trkpt lat="44.1819433" lon="11.3487183"><ele>890.0</ele><time>2026-05-02T08:18:23.728Z</time></trkpt><trkpt lat="44.1820283" lon="11.3488917"><ele>890.0</ele><time>2026-05-02T08:18:24.729Z</time></trkpt><trkpt lat="44.182085" lon="11.3490817"><ele>890.0</ele><time>2026-05-02T08:18:25.727Z</time></trkpt><trkpt lat="44.1821183" lon="11.3492833"><ele>895.6666666666667</ele><time>2026-05-02T08:18:26.727Z</time></trkpt><trkpt lat="44.1821367" lon="11.3495067"><ele>901.3333333333333</ele><time>2026-05-02T08:18:27.729Z</time></trkpt><trkpt lat="44.1821567" lon="11.349745"><ele>907.0</ele><time>2026-05-02T08:18:28.728Z</time></trkpt><trkpt lat="44.1821867" lon="11.3499883"><ele>911.0</ele><time>2026-05-02T08:18:29.728Z</time></trkpt><trkpt lat="44.1822217" lon="11.3502283"><ele>915.0</ele><time>2026-05-02T08:18:30.728Z</time></trkpt><trkpt lat="44.182285" lon="11.3504517"><ele>919.0</ele><time>2026-05-02T08:18:31.728Z</time></trkpt><trkpt lat="44.1823667" lon="11.3506517"><ele>910.6666666666666</ele><time>2026-05-02T08:18:32.73Z</time></trkpt><trkpt lat="44.18244" lon="11.350845"><ele>902.3333333333333</ele><time>2026-05-02T08:18:33.727Z</time></trkpt><trkpt lat="44.18249" lon="11.3510383"><ele>894.0</ele><time>2026-05-02T08:18:34.728Z</time></trkpt><trkpt lat="44.1825067" lon="11.3512467"><ele>895.6666666666667</ele><time>2026-05-02T08:18:35.728Z</time></trkpt><trkpt lat="44.1824883" lon="11.3514717"><ele>897.3333333333334</ele><time>2026-05-02T08:18:36.727Z</time></trkpt><trkpt lat="44.1824733" lon="11.3517"><ele>899.0</ele><time>2026-05-02T08:18:37.728Z</time></trkpt><trkpt lat="44.1824667" lon="11.3519267"><ele>899.0</ele><time>2026-05-02T08:18:38.727Z</time></trkpt><trkpt lat="44.1825217" lon="11.35211"><ele>899.0</ele><time>2026-05-02T08:18:39.728Z</time></trkpt><trkpt lat="44.1826183" lon="11.3522633"><ele>899.0</ele><time>2026-05-02T08:18:40.727Z</time></trkpt><trkpt lat="44.182745" lon="11.35239"><ele>899.0</ele><time>2026-05-02T08:18:41.729Z</time></trkpt><trkpt lat="44.18291" lon="11.3524767"><ele>898.0</ele><time>2026-05-02T08:18:42.728Z</time></trkpt><trkpt lat="44.1830717" lon="11.35256"><ele>897.0</ele><time>2026-05-02T08:18:43.728Z</time></trkpt><trkpt lat="44.1832083" lon="11.3526833"><ele>896.0</ele><time>2026-05-02T08:18:44.728Z</time></trkpt><trkpt lat="44.183325" lon="11.3528567"><ele>900.6666666666667</ele><time>2026-05-02T08:18:45.727Z</time></trkpt><trkpt lat="44.1834317" lon="11.3530617"><ele>905.3333333333333</ele><time>2026-05-02T08:18:46.728Z</time></trkpt><trkpt lat="44.183535" lon="11.35329"><ele>910.0</ele><time>2026-05-02T08:18:47.728Z</time></trkpt><trkpt lat="44.18364" lon="11.3535283"><ele>910.0</ele><time>2026-05-02T08:18:48.728Z</time></trkpt><trkpt lat="44.1837483" lon="11.3537767"><ele>910.0</ele><time>2026-05-02T08:18:49.728Z</time></trkpt><trkpt lat="44.18386" lon="11.354035"><ele>910.0</ele><time>2026-05-02T08:18:50.727Z</time></trkpt><trkpt lat="44.1839767" lon="11.3543017"><ele>909.0</ele><time>2026-05-02T08:18:51.728Z</time></trkpt><trkpt lat="44.18409" lon="11.35457"><ele>908.0</ele><time>2026-05-02T08:18:52.727Z</time></trkpt><trkpt lat="44.1842033" lon="11.3548283"><ele>907.0</ele><time>2026-05-02T08:18:53.726Z</time></trkpt><trkpt lat="44.18432" lon="11.3550767"><ele>907.0</ele><time>2026-05-02T08:18:54.727Z</time></trkpt><trkpt lat="44.18446" lon="11.355295"><ele>907.0</ele><time>2026-05-02T08:18:55.728Z</time></trkpt><trkpt lat="44.184625" lon="11.3554767"><ele>907.0</ele><time>2026-05-02T08:18:56.728Z</time></trkpt><trkpt lat="44.184815" lon="11.3556333"><ele>907.6666666666666</ele><time>2026-05-02T08:18:57.727Z</time></trkpt><trkpt lat="44.1850033" lon="11.3557933"><ele>908.3333333333333</ele><time>2026-05-02T08:18:58.729Z</time></trkpt><trkpt lat="44.1851767" lon="11.35595"><ele>909.0</ele><time>2026-05-02T08:18:59.729Z</time></trkpt><trkpt lat="44.1853383" lon="11.3561067"><ele>909.0</ele><time>2026-05-02T08:19:00.728Z</time></trkpt><trkpt lat="44.185465" lon="11.3562817"><ele>909.0</ele><time>2026-05-02T08:19:01.729Z</time></trkpt><trkpt lat="44.1855583" lon="11.3564617"><ele>909.0</ele><time>2026-05-02T08:19:02.728Z</time></trkpt><trkpt lat="44.1856267" lon="11.3566567"><ele>911.75</ele><time>2026-05-02T08:19:03.727Z</time></trkpt><trkpt lat="44.1856683" lon="11.3568567"><ele>914.5</ele><time>2026-05-02T08:19:04.727Z</time></trkpt><trkpt lat="44.1856733" lon="11.35706"><ele>917.25</ele><time>2026-05-02T08:19:05.725Z</time></trkpt><trkpt lat="44.1856417" lon="11.35724"><ele>920.0</ele><time>2026-05-02T08:19:06.726Z</time></trkpt><trkpt lat="44.1855783" lon="11.3573867"><ele>921.0</ele><time>2026-05-02T08:19:07.726Z</time></trkpt><trkpt lat="44.18548" lon="11.3575017"><ele>922.0</ele><time>2026-05-02T08:19:08.728Z</time></trkpt><trkpt lat="44.18537" lon="11.357595"><ele>923.0</ele><time>2026-05-02T08:19:09.727Z</time></trkpt><trkpt lat="44.1852683" lon="11.3577083"><ele>924.0</ele><time>2026-05-02T08:19:10.729Z</time></trkpt><trkpt lat="44.1852067" lon="11.3578667"><ele>922.3333333333333</ele><time>2026-05-02T08:19:11.728Z</time></trkpt><trkpt lat="44.1851683" lon="11.3580667"><ele>920.6666666666666</ele><time>2026-05-02T08:19:12.726Z</time></trkpt><trkpt lat="44.18515" lon="11.358315"><ele>919.0</ele><time>2026-05-02T08:19:13.729Z</time></trkpt><trkpt lat="44.1851317" lon="11.35859"><ele>919.0</ele><time>2026-05-02T08:19:14.728Z</time></trkpt><trkpt lat="44.185105" lon="11.3588667"><ele>919.0</ele><time>2026-05-02T08:19:15.728Z</time></trkpt><trkpt lat="44.185065" lon="11.3591417"><ele>919.0</ele><time>2026-05-02T08:19:16.727Z</time></trkpt><trkpt lat="44.1850083" lon="11.35942"><ele>916.6666666666666</ele><time>2026-05-02T08:19:17.728Z</time></trkpt><trkpt lat="44.18495" lon="11.359695"><ele>914.3333333333333</ele><time>2026-05-02T08:19:18.727Z</time></trkpt><trkpt lat="44.1848883" lon="11.3599783"><ele>912.0</ele><time>2026-05-02T08:19:19.727Z</time></trkpt><trkpt lat="44.1848233" lon="11.3602567"><ele>920.6666666666667</ele><time>2026-05-02T08:19:20.729Z</time></trkpt><trkpt lat="44.1847633" lon="11.3605217"><ele>929.3333333333334</ele><time>2026-05-02T08:19:21.726Z</time></trkpt><trkpt lat="44.1847117" lon="11.3607733"><ele>938.0</ele><time>2026-05-02T08:19:22.729Z</time></trkpt><trkpt lat="44.18468" lon="11.3610183"><ele>938.0</ele><time>2026-05-02T08:19:23.727Z</time></trkpt><trkpt lat="44.184665" lon="11.3612733"><ele>938.0</ele><time>2026-05-02T08:19:24.727Z</time></trkpt><trkpt lat="44.184665" lon="11.3615383"><ele>938.0</ele><time>2026-05-02T08:19:25.728Z</time></trkpt><trkpt lat="44.1846867" lon="11.3618"><ele>934.3333333333334</ele><time>2026-05-02T08:19:26.728Z</time></trkpt><trkpt lat="44.1847283" lon="11.3620617"><ele>930.6666666666667</ele><time>2026-05-02T08:19:27.727Z</time></trkpt><trkpt lat="44.1847867" lon="11.3623267"><ele>927.0</ele><time>2026-05-02T08:19:28.727Z</time></trkpt><trkpt lat="44.1848483" lon="11.3625817"><ele>918.3333333333333</ele><time>2026-05-02T08:19:29.727Z</time></trkpt><trkpt lat="44.1849133" lon="11.3628183"><ele>909.6666666666666</ele><time>2026-05-02T08:19:30.728Z</time></trkpt><trkpt lat="44.184995" lon="11.3630433"><ele>901.0</ele><time>2026-05-02T08:19:31.728Z</time></trkpt><trkpt lat="44.185095" lon="11.3632567"><ele>900.3333333333333</ele><time>2026-05-02T08:19:32.729Z</time></trkpt><trkpt lat="44.18522" lon="11.3634483"><ele>899.6666666666667</ele><time>2026-05-02T08:19:33.728Z</time></trkpt><trkpt lat="44.1853633" lon="11.363615"><ele>899.0</ele><time>2026-05-02T08:19:34.728Z</time></trkpt><trkpt lat="44.18552" lon="11.3637533"><ele>898.0</ele><time>2026-05-02T08:19:35.728Z</time></trkpt><trkpt lat="44.1856817" lon="11.3638583"><ele>897.0</ele><time>2026-05-02T08:19:36.729Z</time></trkpt><trkpt lat="44.1858283" lon="11.3639517"><ele>896.0</ele><time>2026-05-02T08:19:37.728Z</time></trkpt><trkpt lat="44.185955" lon="11.3640467"><ele>896.0</ele><time>2026-05-02T08:19:38.729Z</time></trkpt><trkpt lat="44.186065" lon="11.3641433"><ele>896.0</ele><time>2026-05-02T08:19:39.727Z</time></trkpt><trkpt lat="44.18616" lon="11.3642617"><ele>896.0</ele><time>2026-05-02T08:19:40.728Z</time></trkpt><trkpt lat="44.186245" lon="11.36441"><ele>896.0</ele><time>2026-05-02T08:19:41.728Z</time></trkpt><trkpt lat="44.1863283" lon="11.3645867"><ele>895.3333333333334</ele><time>2026-05-02T08:19:42.728Z</time></trkpt><trkpt lat="44.1864083" lon="11.36478"><ele>894.6666666666667</ele><time>2026-05-02T08:19:43.729Z</time></trkpt><trkpt lat="44.1864867" lon="11.3649717"><ele>894.0</ele><time>2026-05-02T08:19:44.728Z</time></trkpt><trkpt lat="44.1865683" lon="11.36514"><ele>894.0</ele><time>2026-05-02T08:19:45.726Z</time></trkpt><trkpt lat="44.18666" lon="11.3652767"><ele>894.0</ele><time>2026-05-02T08:19:46.728Z</time></trkpt><trkpt lat="44.18677" lon="11.3653733"><ele>894.0</ele><time>2026-05-02T08:19:47.727Z</time></trkpt><trkpt lat="44.1869033" lon="11.365415"><ele>894.0</ele><time>2026-05-02T08:19:48.728Z</time></trkpt><trkpt lat="44.1870483" lon="11.3654017"><ele>894.0</ele><time>2026-05-02T08:19:49.728Z</time></trkpt><trkpt lat="44.1871883" lon="11.365365"><ele>894.0</ele><time>2026-05-02T08:19:50.729Z</time></trkpt><trkpt lat="44.1873167" lon="11.3653483"><ele>894.0</ele><time>2026-05-02T08:19:51.728Z</time></trkpt><trkpt lat="44.1874283" lon="11.3653867"><ele>894.0</ele><time>2026-05-02T08:19:52.727Z</time></trkpt><trkpt lat="44.1875267" lon="11.3654717"><ele>894.25</ele><time>2026-05-02T08:19:53.728Z</time></trkpt><trkpt lat="44.1876067" lon="11.365605"><ele>894.5</ele><time>2026-05-02T08:19:54.727Z</time></trkpt><trkpt lat="44.18766" lon="11.3657817"><ele>894.75</ele><time>2026-05-02T08:19:55.728Z</time></trkpt><trkpt lat="44.1877067" lon="11.3659817"><ele>895.0</ele><time>2026-05-02T08:19:56.728Z</time></trkpt><trkpt lat="44.187755" lon="11.366185"><ele>892.5</ele><time>2026-05-02T08:19:57.728Z</time></trkpt><trkpt lat="44.187815" lon="11.3663683"><ele>890.0</ele><time>2026-05-02T08:19:58.727Z</time></trkpt><trkpt lat="44.1878917" lon="11.36653"><ele>887.5</ele><time>2026-05-02T08:19:59.728Z</time></trkpt><trkpt lat="44.1879917" lon="11.3666567"><ele>885.0</ele><time>2026-05-02T08:20:00.727Z</time></trkpt><trkpt lat="44.188115" lon="11.3667633"><ele>885.25</ele><time>2026-05-02T08:20:01.727Z</time></trkpt><trkpt lat="44.18825" lon="11.3668583"><ele>885.5</ele><time>2026-05-02T08:20:02.729Z</time></trkpt><trkpt lat="44.188385" lon="11.3669517"><ele>885.75</ele><time>2026-05-02T08:20:03.729Z</time></trkpt><trkpt lat="44.1885017" lon="11.3670767"><ele>886.0</ele><time>2026-05-02T08:20:04.729Z</time></trkpt><trkpt lat="44.1885933" lon="11.36723"><ele>884.0</ele><time>2026-05-02T08:20:05.729Z</time></trkpt><trkpt lat="44.1886767" lon="11.367415"><ele>882.0</ele><time>2026-05-02T08:20:06.728Z</time></trkpt><trkpt lat="44.1887817" lon="11.3676083"><ele>880.0</ele><time>2026-05-02T08:20:07.727Z</time></trkpt><trkpt lat="44.18891" lon="11.36779"><ele>881.3333333333333</ele><time>2026-05-02T08:20:08.728Z</time></trkpt><trkpt lat="44.189055" lon="11.3679583"><ele>882.6666666666667</ele><time>2026-05-02T08:20:09.728Z</time></trkpt><trkpt lat="44.18921" lon="11.3681267"><ele>884.0</ele><time>2026-05-02T08:20:10.729Z</time></trkpt><trkpt lat="44.1893733" lon="11.3682967"><ele>884.3333333333334</ele><time>2026-05-02T08:20:11.727Z</time></trkpt><trkpt lat="44.1895383" lon="11.3684733"><ele>884.6666666666667</ele><time>2026-05-02T08:20:12.729Z</time></trkpt><trkpt lat="44.1897" lon="11.3686533"><ele>885.0</ele><time>2026-05-02T08:20:13.727Z</time></trkpt><trkpt lat="44.1898483" lon="11.3688483"><ele>886.3333333333333</ele><time>2026-05-02T08:20:14.727Z</time></trkpt><trkpt lat="44.1899683" lon="11.3690733"><ele>887.6666666666666</ele><time>2026-05-02T08:20:15.728Z</time></trkpt><trkpt lat="44.1900567" lon="11.3693183"><ele>889.0</ele><time>2026-05-02T08:20:16.727Z</time></trkpt><trkpt lat="44.1901267" lon="11.3695683"><ele>887.3333333333333</ele><time>2026-05-02T08:20:17.727Z</time></trkpt><trkpt lat="44.190185" lon="11.3698"><ele>885.6666666666667</ele><time>2026-05-02T08:20:18.728Z</time></trkpt><trkpt lat="44.1902483" lon="11.3700117"><ele>884.0</ele><time>2026-05-02T08:20:19.727Z</time></trkpt><trkpt lat="44.1903317" lon="11.3702067"><ele>884.0</ele><time>2026-05-02T08:20:20.727Z</time></trkpt><trkpt lat="44.1904483" lon="11.370385"><ele>884.0</ele><time>2026-05-02T08:20:21.726Z</time></trkpt><trkpt lat="44.19058" lon="11.3705617"><ele>884.0</ele><time>2026-05-02T08:20:22.727Z</time></trkpt><trkpt lat="44.1907" lon="11.3707667"><ele>883.6666666666667</ele><time>2026-05-02T08:20:23.728Z</time></trkpt><trkpt lat="44.1907833" lon="11.371015"><ele>883.3333333333333</ele><time>2026-05-02T08:20:24.728Z</time></trkpt><trkpt lat="44.1908433" lon="11.3712917"><ele>883.0</ele><time>2026-05-02T08:20:25.728Z</time></trkpt><trkpt lat="44.1908967" lon="11.3715833"><ele>883.0</ele><time>2026-05-02T08:20:26.727Z</time></trkpt><trkpt lat="44.19096" lon="11.3718767"><ele>883.0</ele><time>2026-05-02T08:20:27.727Z</time></trkpt><trkpt lat="44.191035" lon="11.37217"><ele>883.0</ele><time>2026-05-02T08:20:28.737Z</time></trkpt><trkpt lat="44.1911383" lon="11.3724483"><ele>881.6666666666666</ele><time>2026-05-02T08:20:29.728Z</time></trkpt><trkpt lat="44.191245" lon="11.37271"><ele>880.3333333333333</ele><time>2026-05-02T08:20:30.728Z</time></trkpt><trkpt lat="44.1913483" lon="11.3729533"><ele>879.0</ele><time>2026-05-02T08:20:31.728Z</time></trkpt><trkpt lat="44.1914533" lon="11.373185"><ele>884.6666666666667</ele><time>2026-05-02T08:20:32.729Z</time></trkpt><trkpt lat="44.1915683" lon="11.373405"><ele>890.3333333333334</ele><time>2026-05-02T08:20:33.729Z</time></trkpt><trkpt lat="44.1916933" lon="11.3736183"><ele>896.0</ele><time>2026-05-02T08:20:34.728Z</time></trkpt><trkpt lat="44.19182" lon="11.37383"><ele>893.0</ele><time>2026-05-02T08:20:35.729Z</time></trkpt><trkpt lat="44.191925" lon="11.3740617"><ele>890.0</ele><time>2026-05-02T08:20:36.728Z</time></trkpt><trkpt lat="44.1919983" lon="11.3743267"><ele>887.0</ele><time>2026-05-02T08:20:37.726Z</time></trkpt><trkpt lat="44.1920517" lon="11.3746067"><ele>884.0</ele><time>2026-05-02T08:20:38.728Z</time></trkpt><trkpt lat="44.1921067" lon="11.3748817"><ele>881.0</ele><time>2026-05-02T08:20:39.728Z</time></trkpt><trkpt lat="44.1921917" lon="11.3751467"><ele>878.0</ele><time>2026-05-02T08:20:40.728Z</time></trkpt><trkpt lat="44.1923033" lon="11.375405"><ele>881.0</ele><time>2026-05-02T08:20:41.728Z</time></trkpt><trkpt lat="44.1924167" lon="11.3756433"><ele>884.0</ele><time>2026-05-02T08:20:42.727Z</time></trkpt><trkpt lat="44.1925233" lon="11.3758667"><ele>887.0</ele><time>2026-05-02T08:20:43.728Z</time></trkpt><trkpt lat="44.192615" lon="11.3760717"><ele>887.0</ele><time>2026-05-02T08:20:44.728Z</time></trkpt><trkpt lat="44.1926933" lon="11.3762583"><ele>887.0</ele><time>2026-05-02T08:20:45.728Z</time></trkpt><trkpt lat="44.1927433" lon="11.3764383"><ele>887.0</ele><time>2026-05-02T08:20:46.728Z</time></trkpt><trkpt lat="44.192745" lon="11.37663"><ele>887.0</ele><time>2026-05-02T08:20:47.729Z</time></trkpt><trkpt lat="44.1926933" lon="11.3768283"><ele>886.75</ele><time>2026-05-02T08:20:48.729Z</time></trkpt><trkpt lat="44.192625" lon="11.3770233"><ele>886.5</ele><time>2026-05-02T08:20:49.729Z</time></trkpt><trkpt lat="44.1925617" lon="11.3772"><ele>886.25</ele><time>2026-05-02T08:20:50.728Z</time></trkpt><trkpt lat="44.1925283" lon="11.3773717"><ele>886.0</ele><time>2026-05-02T08:20:51.728Z</time></trkpt><trkpt lat="44.192525" lon="11.3775467"><ele>886.0</ele><time>2026-05-02T08:20:52.727Z</time></trkpt><trkpt lat="44.192575" lon="11.37772"><ele>886.0</ele><time>2026-05-02T08:20:53.726Z</time></trkpt><trkpt lat="44.1926717" lon="11.3778917"><ele>886.0</ele><time>2026-05-02T08:20:54.728Z</time></trkpt><trkpt lat="44.1928" lon="11.37807"><ele>883.0</ele><time>2026-05-02T08:20:55.728Z</time></trkpt><trkpt lat="44.192925" lon="11.3782717"><ele>880.0</ele><time>2026-05-02T08:20:56.729Z</time></trkpt><trkpt lat="44.1930217" lon="11.3784967"><ele>877.0</ele><time>2026-05-02T08:20:57.729Z</time></trkpt><trkpt lat="44.1930833" lon="11.3787217"><ele>875.5</ele><time>2026-05-02T08:20:58.726Z</time></trkpt><trkpt lat="44.1931283" lon="11.378935"><ele>874.0</ele><time>2026-05-02T08:20:59.725Z</time></trkpt><trkpt lat="44.1931933" lon="11.3791133"><ele>872.5</ele><time>2026-05-02T08:21:00.728Z</time></trkpt><trkpt lat="44.1932883" lon="11.37925"><ele>871.0</ele><time>2026-05-02T08:21:01.727Z</time></trkpt><trkpt lat="44.1934167" lon="11.3793483"><ele>875.6666666666666</ele><time>2026-05-02T08:21:02.728Z</time></trkpt><trkpt lat="44.1935667" lon="11.3794267"><ele>880.3333333333333</ele><time>2026-05-02T08:21:03.727Z</time></trkpt><trkpt lat="44.1937383" lon="11.37951"><ele>885.0</ele><time>2026-05-02T08:21:04.729Z</time></trkpt><trkpt lat="44.193925" lon="11.379605"><ele>883.0</ele><time>2026-05-02T08:21:05.728Z</time></trkpt><trkpt lat="44.19412" lon="11.3797"><ele>881.0</ele><time>2026-05-02T08:21:06.728Z</time></trkpt><trkpt lat="44.19432" lon="11.3798"><ele>879.0</ele><time>2026-05-02T08:21:07.729Z</time></trkpt><trkpt lat="44.1945217" lon="11.379895"><ele>879.0</ele><time>2026-05-02T08:21:08.728Z</time></trkpt><trkpt lat="44.1947217" lon="11.379995"><ele>879.0</ele><time>2026-05-02T08:21:09.729Z</time></trkpt><trkpt lat="44.1949167" lon="11.3800917"><ele>879.0</ele><time>2026-05-02T08:21:10.728Z</time></trkpt><trkpt lat="44.1951017" lon="11.3802017"><ele>880.6666666666667</ele><time>2026-05-02T08:21:11.728Z</time></trkpt><trkpt lat="44.1952767" lon="11.38033"><ele>882.3333333333334</ele><time>2026-05-02T08:21:12.728Z</time></trkpt><trkpt lat="44.1954383" lon="11.3804933"><ele>884.0</ele><time>2026-05-02T08:21:13.727Z</time></trkpt><trkpt lat="44.195595" lon="11.38066"><ele>882.3333333333334</ele><time>2026-05-02T08:21:14.728Z</time></trkpt><trkpt lat="44.1957467" lon="11.38082"><ele>880.6666666666667</ele><time>2026-05-02T08:21:15.729Z</time></trkpt><trkpt lat="44.1958867" lon="11.3809733"><ele>879.0</ele><time>2026-05-02T08:21:16.727Z</time></trkpt><trkpt lat="44.19601" lon="11.38113"><ele>879.0</ele><time>2026-05-02T08:21:17.728Z</time></trkpt><trkpt lat="44.1961117" lon="11.3812967"><ele>879.0</ele><time>2026-05-02T08:21:18.727Z</time></trkpt><trkpt lat="44.196185" lon="11.3814867"><ele>879.0</ele><time>2026-05-02T08:21:19.728Z</time></trkpt><trkpt lat="44.1962317" lon="11.381705"><ele>876.6666666666667</ele><time>2026-05-02T08:21:20.729Z</time></trkpt><trkpt lat="44.196265" lon="11.3819367"><ele>874.3333333333334</ele><time>2026-05-02T08:21:21.728Z</time></trkpt><trkpt lat="44.196295" lon="11.3821767"><ele>872.0</ele><time>2026-05-02T08:21:22.728Z</time></trkpt><trkpt lat="44.1963433" lon="11.3824"><ele>872.0</ele><time>2026-05-02T08:21:23.727Z</time></trkpt><trkpt lat="44.1963933" lon="11.3826067"><ele>872.0</ele><time>2026-05-02T08:21:24.727Z</time></trkpt><trkpt lat="44.1964667" lon="11.3827833"><ele>872.0</ele><time>2026-05-02T08:21:25.728Z</time></trkpt><trkpt lat="44.1965667" lon="11.3829267"><ele>872.0</ele><time>2026-05-02T08:21:26.729Z</time></trkpt><trkpt lat="44.1966833" lon="11.3830433"><ele>872.0</ele><time>2026-05-02T08:21:27.729Z</time></trkpt><trkpt lat="44.1968183" lon="11.3831517"><ele>872.0</ele><time>2026-05-02T08:21:28.727Z</time></trkpt><trkpt lat="44.196955" lon="11.3832717"><ele>872.0</ele><time>2026-05-02T08:21:29.727Z</time></trkpt><trkpt lat="44.1970717" lon="11.38341"><ele>872.0</ele><time>2026-05-02T08:21:30.726Z</time></trkpt><trkpt lat="44.1971667" lon="11.3835517"><ele>872.0</ele><time>2026-05-02T08:21:31.727Z</time></trkpt><trkpt lat="44.1972517" lon="11.3836917"><ele>872.0</ele><time>2026-05-02T08:21:32.728Z</time></trkpt><trkpt lat="44.19733" lon="11.3838217"><ele>872.0</ele><time>2026-05-02T08:21:33.727Z</time></trkpt><trkpt lat="44.197405" lon="11.3839367"><ele>870.0</ele><time>2026-05-02T08:21:34.728Z</time></trkpt><trkpt lat="44.19747" lon="11.3840217"><ele>870.0</ele><time>2026-05-02T08:21:35.729Z</time></trkpt><trkpt lat="44.197515" lon="11.384085"><ele>870.0</ele><time>2026-05-02T08:21:36.727Z</time></trkpt><trkpt lat="44.1975667" lon="11.3841717"><ele>870.0</ele><time>2026-05-02T08:21:38.728Z</time></trkpt><trkpt lat="44.1976217" lon="11.38424"><ele>870.0</ele><time>2026-05-02T08:21:41.726Z</time></trkpt><trkpt lat="44.1976933" lon="11.3842067"><ele>870.0</ele><time>2026-05-02T08:21:45.729Z</time></trkpt></trkseg><trkseg><trkpt lat="44.1977055" lon="11.3841633"><ele>870.0</ele><time>2026-05-02T08:36:04.794Z</time></trkpt><trkpt lat="44.1976502" lon="11.384212"><ele>870.0</ele><time>2026-05-02T08:36:15.757Z</time></trkpt><trkpt lat="44.1977598" lon="11.3841864"><ele>870.0</ele><time>2026-05-02T08:36:43.787Z</time></trkpt><trkpt lat="44.1979273" lon="11.3841048"><ele>870.0</ele><time>2026-05-02T08:36:46.727Z</time></trkpt><trkpt lat="44.1980164" lon="11.3840722"><ele>870.0</ele><time>2026-05-02T08:36:47.728Z</time></trkpt><trkpt lat="44.1980987" lon="11.3840559"><ele>869.8</ele><time>2026-05-02T08:36:48.729Z</time></trkpt><trkpt lat="44.1981842" lon="11.3840397"><ele>869.6</ele><time>2026-05-02T08:36:49.728Z</time></trkpt><trkpt lat="44.1982772" lon="11.3840197"><ele>869.4000000000001</ele><time>2026-05-02T08:36:50.728Z</time></trkpt><trkpt lat="44.1983804" lon="11.383998"><ele>869.2</ele><time>2026-05-02T08:36:51.727Z</time></trkpt><trkpt lat="44.1984967" lon="11.3839881"><ele>869.0</ele><time>2026-05-02T08:36:52.727Z</time></trkpt><trkpt lat="44.1986253" lon="11.384009"><ele>869.0</ele><time>2026-05-02T08:36:53.727Z</time></trkpt><trkpt lat="44.1987617" lon="11.3840697"><ele>869.0</ele><time>2026-05-02T08:36:54.727Z</time></trkpt><trkpt lat="44.1988962" lon="11.3841671"><ele>869.0</ele><time>2026-05-02T08:36:55.727Z</time></trkpt><trkpt lat="44.199025" lon="11.3842891"><ele>868.3333333333334</ele><time>2026-05-02T08:36:56.728Z</time></trkpt><trkpt lat="44.1991491" lon="11.3844315"><ele>867.6666666666667</ele><time>2026-05-02T08:36:57.726Z</time></trkpt><trkpt lat="44.1992676" lon="11.3845974"><ele>867.0</ele><time>2026-05-02T08:36:58.726Z</time></trkpt><trkpt lat="44.1993771" lon="11.3847831"><ele>867.0</ele><time>2026-05-02T08:36:59.727Z</time></trkpt><trkpt lat="44.1994748" lon="11.3850005"><ele>867.0</ele><time>2026-05-02T08:37:00.729Z</time></trkpt><trkpt lat="44.1995559" lon="11.3852454"><ele>867.0</ele><time>2026-05-02T08:37:01.728Z</time></trkpt><trkpt lat="44.19962" lon="11.3855013"><ele>865.3333333333333</ele><time>2026-05-02T08:37:02.728Z</time></trkpt><trkpt lat="44.1996697" lon="11.3857559"><ele>863.6666666666666</ele><time>2026-05-02T08:37:03.728Z</time></trkpt><trkpt lat="44.1997174" lon="11.386004"><ele>862.0</ele><time>2026-05-02T08:37:04.728Z</time></trkpt><trkpt lat="44.199775" lon="11.3862365"><ele>864.3333333333333</ele><time>2026-05-02T08:37:05.728Z</time></trkpt><trkpt lat="44.1998499" lon="11.3864369"><ele>866.6666666666667</ele><time>2026-05-02T08:37:06.728Z</time></trkpt><trkpt lat="44.1999412" lon="11.3866017"><ele>869.0</ele><time>2026-05-02T08:37:07.727Z</time></trkpt><trkpt lat="44.2000459" lon="11.3867353"><ele>869.0</ele><time>2026-05-02T08:37:08.728Z</time></trkpt><trkpt lat="44.2001662" lon="11.3868224"><ele>869.0</ele><time>2026-05-02T08:37:09.728Z</time></trkpt><trkpt lat="44.200302" lon="11.3868577"><ele>869.0</ele><time>2026-05-02T08:37:10.728Z</time></trkpt><trkpt lat="44.2004526" lon="11.3868373"><ele>869.0</ele><time>2026-05-02T08:37:11.728Z</time></trkpt><trkpt lat="44.200614" lon="11.3868178"><ele>872.3333333333334</ele><time>2026-05-02T08:37:12.725Z</time></trkpt><trkpt lat="44.2007735" lon="11.3868328"><ele>875.6666666666667</ele><time>2026-05-02T08:37:13.727Z</time></trkpt><trkpt lat="44.2009301" lon="11.3869076"><ele>879.0</ele><time>2026-05-02T08:37:14.725Z</time></trkpt><trkpt lat="44.2010819" lon="11.3870336"><ele>877.6666666666667</ele><time>2026-05-02T08:37:15.726Z</time></trkpt><trkpt lat="44.201231" lon="11.3871937"><ele>876.3333333333334</ele><time>2026-05-02T08:37:16.726Z</time></trkpt><trkpt lat="44.2013819" lon="11.3873638"><ele>875.0</ele><time>2026-05-02T08:37:17.728Z</time></trkpt><trkpt lat="44.2015289" lon="11.387532"><ele>875.0</ele><time>2026-05-02T08:37:18.727Z</time></trkpt><trkpt lat="44.2016611" lon="11.3877031"><ele>875.0</ele><time>2026-05-02T08:37:19.727Z</time></trkpt><trkpt lat="44.2017655" lon="11.3878941"><ele>875.0</ele><time>2026-05-02T08:37:20.726Z</time></trkpt><trkpt lat="44.2018475" lon="11.3881098"><ele>871.6666666666667</ele><time>2026-05-02T08:37:21.727Z</time></trkpt><trkpt lat="44.2019081" lon="11.3883556"><ele>868.3333333333333</ele><time>2026-05-02T08:37:22.726Z</time></trkpt><trkpt lat="44.2019572" lon="11.3886225"><ele>865.0</ele><time>2026-05-02T08:37:23.727Z</time></trkpt><trkpt lat="44.2020067" lon="11.3888983"><ele>862.0</ele><time>2026-05-02T08:37:24.726Z</time></trkpt><trkpt lat="44.20208" lon="11.3891367"><ele>859.0</ele><time>2026-05-02T08:37:25.728Z</time></trkpt><trkpt lat="44.2021633" lon="11.389355"><ele>856.0</ele><time>2026-05-02T08:37:26.726Z</time></trkpt><trkpt lat="44.20224" lon="11.3895583"><ele>853.6666666666666</ele><time>2026-05-02T08:37:27.727Z</time></trkpt><trkpt lat="44.2022783" lon="11.3897617"><ele>851.3333333333333</ele><time>2026-05-02T08:37:28.727Z</time></trkpt><trkpt lat="44.20227" lon="11.3899717"><ele>849.0</ele><time>2026-05-02T08:37:29.726Z</time></trkpt><trkpt lat="44.2022267" lon="11.3901967"><ele>849.0</ele><time>2026-05-02T08:37:30.725Z</time></trkpt><trkpt lat="44.2021667" lon="11.3904367"><ele>849.0</ele><time>2026-05-02T08:37:31.728Z</time></trkpt><trkpt lat="44.2020967" lon="11.39069"><ele>849.0</ele><time>2026-05-02T08:37:32.727Z</time></trkpt><trkpt lat="44.20203" lon="11.39094"><ele>849.0</ele><time>2026-05-02T08:37:33.725Z</time></trkpt><trkpt lat="44.201975" lon="11.39118"><ele>849.0</ele><time>2026-05-02T08:37:34.727Z</time></trkpt><trkpt lat="44.2019567" lon="11.39142"><ele>849.0</ele><time>2026-05-02T08:37:35.727Z</time></trkpt><trkpt lat="44.20197" lon="11.3916733"><ele>847.3333333333333</ele><time>2026-05-02T08:37:36.727Z</time></trkpt><trkpt lat="44.2020067" lon="11.3919367"><ele>845.6666666666666</ele><time>2026-05-02T08:37:37.726Z</time></trkpt><trkpt lat="44.2020467" lon="11.3921967"><ele>844.0</ele><time>2026-05-02T08:37:38.73Z</time></trkpt><trkpt lat="44.2020917" lon="11.3924467"><ele>844.6666666666666</ele><time>2026-05-02T08:37:39.728Z</time></trkpt><trkpt lat="44.20216" lon="11.3926717"><ele>845.3333333333333</ele><time>2026-05-02T08:37:40.728Z</time></trkpt><trkpt lat="44.2022567" lon="11.3928717"><ele>846.0</ele><time>2026-05-02T08:37:41.728Z</time></trkpt><trkpt lat="44.202355" lon="11.3930417"><ele>846.0</ele><time>2026-05-02T08:37:42.726Z</time></trkpt><trkpt lat="44.2024283" lon="11.39321"><ele>846.0</ele><time>2026-05-02T08:37:43.728Z</time></trkpt><trkpt lat="44.2024533" lon="11.3934033"><ele>846.0</ele><time>2026-05-02T08:37:44.729Z</time></trkpt><trkpt lat="44.2024367" lon="11.39362"><ele>846.0</ele><time>2026-05-02T08:37:45.727Z</time></trkpt><trkpt lat="44.202395" lon="11.3938517"><ele>848.0</ele><time>2026-05-02T08:37:46.728Z</time></trkpt><trkpt lat="44.202335" lon="11.39409"><ele>850.0</ele><time>2026-05-02T08:37:47.727Z</time></trkpt><trkpt lat="44.2022567" lon="11.3943217"><ele>852.0</ele><time>2026-05-02T08:37:48.729Z</time></trkpt><trkpt lat="44.20215" lon="11.3945333"><ele>845.6666666666667</ele><time>2026-05-02T08:37:49.727Z</time></trkpt><trkpt lat="44.2020267" lon="11.3947283"><ele>839.3333333333334</ele><time>2026-05-02T08:37:50.728Z</time></trkpt><trkpt lat="44.2018867" lon="11.3949267"><ele>833.0</ele><time>2026-05-02T08:37:51.727Z</time></trkpt><trkpt lat="44.201755" lon="11.3951333"><ele>833.0</ele><time>2026-05-02T08:37:52.728Z</time></trkpt><trkpt lat="44.2016417" lon="11.3953467"><ele>833.0</ele><time>2026-05-02T08:37:53.728Z</time></trkpt><trkpt lat="44.20154" lon="11.3955617"><ele>833.0</ele><time>2026-05-02T08:37:54.728Z</time></trkpt><trkpt lat="44.20144" lon="11.3957617"><ele>829.6666666666667</ele><time>2026-05-02T08:37:55.725Z</time></trkpt><trkpt lat="44.2013483" lon="11.39594"><ele>826.3333333333333</ele><time>2026-05-02T08:37:56.728Z</time></trkpt><trkpt lat="44.2012333" lon="11.39609"><ele>823.0</ele><time>2026-05-02T08:37:57.727Z</time></trkpt><trkpt lat="44.201095" lon="11.3962133"><ele>823.0</ele><time>2026-05-02T08:37:58.725Z</time></trkpt><trkpt lat="44.2009333" lon="11.396325"><ele>823.0</ele><time>2026-05-02T08:37:59.727Z</time></trkpt><trkpt lat="44.2007617" lon="11.3964333"><ele>823.0</ele><time>2026-05-02T08:38:00.726Z</time></trkpt><trkpt lat="44.2005967" lon="11.396565"><ele>820.0</ele><time>2026-05-02T08:38:01.727Z</time></trkpt><trkpt lat="44.2004467" lon="11.3967033"><ele>817.0</ele><time>2026-05-02T08:38:02.727Z</time></trkpt><trkpt lat="44.2003217" lon="11.396845"><ele>814.0</ele><time>2026-05-02T08:38:03.73Z</time></trkpt><trkpt lat="44.200215" lon="11.39698"><ele>814.0</ele><time>2026-05-02T08:38:04.728Z</time></trkpt><trkpt lat="44.20014" lon="11.3971133"><ele>814.0</ele><time>2026-05-02T08:38:05.728Z</time></trkpt><trkpt lat="44.2000917" lon="11.3972583"><ele>814.0</ele><time>2026-05-02T08:38:06.727Z</time></trkpt><trkpt lat="44.2000783" lon="11.3974167"><ele>814.0</ele><time>2026-05-02T08:38:07.727Z</time></trkpt><trkpt lat="44.2000933" lon="11.3975867"><ele>814.3333333333333</ele><time>2026-05-02T08:38:08.725Z</time></trkpt><trkpt lat="44.200145" lon="11.3977583"><ele>814.6666666666667</ele><time>2026-05-02T08:38:09.727Z</time></trkpt><trkpt lat="44.200225" lon="11.3979367"><ele>815.0</ele><time>2026-05-02T08:38:10.727Z</time></trkpt><trkpt lat="44.2003183" lon="11.3981317"><ele>811.3333333333334</ele><time>2026-05-02T08:38:11.726Z</time></trkpt><trkpt lat="44.2004133" lon="11.3983333"><ele>807.6666666666667</ele><time>2026-05-02T08:38:12.728Z</time></trkpt><trkpt lat="44.2005083" lon="11.3985367"><ele>804.0</ele><time>2026-05-02T08:38:13.727Z</time></trkpt><trkpt lat="44.2006067" lon="11.398725"><ele>805.0</ele><time>2026-05-02T08:38:14.728Z</time></trkpt><trkpt lat="44.200725" lon="11.3989"><ele>806.0</ele><time>2026-05-02T08:38:15.728Z</time></trkpt><trkpt lat="44.200865" lon="11.3990517"><ele>807.0</ele><time>2026-05-02T08:38:16.729Z</time></trkpt><trkpt lat="44.2010117" lon="11.3991767"><ele>807.0</ele><time>2026-05-02T08:38:17.728Z</time></trkpt><trkpt lat="44.201155" lon="11.3992983"><ele>807.0</ele><time>2026-05-02T08:38:18.728Z</time></trkpt><trkpt lat="44.20128" lon="11.3994217"><ele>807.0</ele><time>2026-05-02T08:38:19.728Z</time></trkpt><trkpt lat="44.2013783" lon="11.39955"><ele>805.25</ele><time>2026-05-02T08:38:20.728Z</time></trkpt><trkpt lat="44.201445" lon="11.3996933"><ele>803.5</ele><time>2026-05-02T08:38:21.726Z</time></trkpt><trkpt lat="44.20147" lon="11.3998667"><ele>801.75</ele><time>2026-05-02T08:38:22.727Z</time></trkpt><trkpt lat="44.20147" lon="11.4000767"><ele>800.0</ele><time>2026-05-02T08:38:23.728Z</time></trkpt><trkpt lat="44.2014517" lon="11.4003083"><ele>799.0</ele><time>2026-05-02T08:38:24.727Z</time></trkpt><trkpt lat="44.2014283" lon="11.4005567"><ele>798.0</ele><time>2026-05-02T08:38:25.728Z</time></trkpt><trkpt lat="44.2014033" lon="11.4008067"><ele>797.0</ele><time>2026-05-02T08:38:26.729Z</time></trkpt><trkpt lat="44.2013817" lon="11.40104"><ele>797.0</ele><time>2026-05-02T08:38:27.726Z</time></trkpt><trkpt lat="44.20135" lon="11.4012633"><ele>797.0</ele><time>2026-05-02T08:38:28.726Z</time></trkpt><trkpt lat="44.2013067" lon="11.4014783"><ele>797.0</ele><time>2026-05-02T08:38:29.729Z</time></trkpt><trkpt lat="44.2012583" lon="11.4016933"><ele>796.3333333333334</ele><time>2026-05-02T08:38:30.728Z</time></trkpt><trkpt lat="44.20121" lon="11.4019133"><ele>795.6666666666667</ele><time>2026-05-02T08:38:31.726Z</time></trkpt><trkpt lat="44.201165" lon="11.40213"><ele>795.0</ele><time>2026-05-02T08:38:32.726Z</time></trkpt><trkpt lat="44.2011183" lon="11.40234"><ele>792.3333333333333</ele><time>2026-05-02T08:38:33.728Z</time></trkpt><trkpt lat="44.2010717" lon="11.402545"><ele>789.6666666666666</ele><time>2026-05-02T08:38:34.729Z</time></trkpt><trkpt lat="44.201015" lon="11.402745"><ele>787.0</ele><time>2026-05-02T08:38:35.727Z</time></trkpt><trkpt lat="44.200945" lon="11.4029467"><ele>783.0</ele><time>2026-05-02T08:38:36.728Z</time></trkpt><trkpt lat="44.2008633" lon="11.4031433"><ele>779.0</ele><time>2026-05-02T08:38:37.726Z</time></trkpt><trkpt lat="44.20077" lon="11.4033267"><ele>775.0</ele><time>2026-05-02T08:38:38.727Z</time></trkpt><trkpt lat="44.2006767" lon="11.4034967"><ele>776.25</ele><time>2026-05-02T08:38:39.729Z</time></trkpt><trkpt lat="44.2005767" lon="11.403655"><ele>777.5</ele><time>2026-05-02T08:38:40.729Z</time></trkpt><trkpt lat="44.20047" lon="11.4037983"><ele>778.75</ele><time>2026-05-02T08:38:41.727Z</time></trkpt><trkpt lat="44.20035" lon="11.40392"><ele>780.0</ele><time>2026-05-02T08:38:42.727Z</time></trkpt><trkpt lat="44.200215" lon="11.404005"><ele>775.6666666666666</ele><time>2026-05-02T08:38:43.727Z</time></trkpt><trkpt lat="44.2000617" lon="11.4040533"><ele>771.3333333333333</ele><time>2026-05-02T08:38:44.729Z</time></trkpt><trkpt lat="44.1998967" lon="11.40408"><ele>767.0</ele><time>2026-05-02T08:38:45.727Z</time></trkpt><trkpt lat="44.1997267" lon="11.4041033"><ele>765.6666666666666</ele><time>2026-05-02T08:38:46.728Z</time></trkpt><trkpt lat="44.19956" lon="11.40414"><ele>764.3333333333334</ele><time>2026-05-02T08:38:47.725Z</time></trkpt><trkpt lat="44.199405" lon="11.4042117"><ele>763.0</ele><time>2026-05-02T08:38:48.727Z</time></trkpt><trkpt lat="44.1992633" lon="11.40432"><ele>763.0</ele><time>2026-05-02T08:38:49.728Z</time></trkpt><trkpt lat="44.1991467" lon="11.40446"><ele>763.0</ele><time>2026-05-02T08:38:50.729Z</time></trkpt><trkpt lat="44.1990567" lon="11.4046333"><ele>763.0</ele><time>2026-05-02T08:38:51.726Z</time></trkpt><trkpt lat="44.1989883" lon="11.40482"><ele>761.25</ele><time>2026-05-02T08:38:52.727Z</time></trkpt><trkpt lat="44.1989233" lon="11.4050117"><ele>759.5</ele><time>2026-05-02T08:38:53.728Z</time></trkpt><trkpt lat="44.1988633" lon="11.4052"><ele>757.75</ele><time>2026-05-02T08:38:54.727Z</time></trkpt><trkpt lat="44.1987967" lon="11.4053783"><ele>756.0</ele><time>2026-05-02T08:38:55.728Z</time></trkpt><trkpt lat="44.198735" lon="11.4055483"><ele>755.1999999999999</ele><time>2026-05-02T08:38:56.728Z</time></trkpt><trkpt lat="44.1986833" lon="11.4057033"><ele>754.4</ele><time>2026-05-02T08:38:57.726Z</time></trkpt><trkpt lat="44.19863" lon="11.405835"><ele>753.6</ele><time>2026-05-02T08:38:58.728Z</time></trkpt><trkpt lat="44.198575" lon="11.4059333"><ele>752.8</ele><time>2026-05-02T08:38:59.728Z</time></trkpt><trkpt lat="44.1985067" lon="11.4060067"><ele>752.0</ele><time>2026-05-02T08:39:00.729Z</time></trkpt><trkpt lat="44.1984233" lon="11.4060567"><ele>752.0</ele><time>2026-05-02T08:39:01.729Z</time></trkpt><trkpt lat="44.1983183" lon="11.4060783"><ele>752.0</ele><time>2026-05-02T08:39:02.727Z</time></trkpt><trkpt lat="44.198205" lon="11.4060983"><ele>752.0</ele><time>2026-05-02T08:39:03.728Z</time></trkpt><trkpt lat="44.1980867" lon="11.4061217"><ele>752.0</ele><time>2026-05-02T08:39:04.726Z</time></trkpt><trkpt lat="44.1979783" lon="11.4061517"><ele>751.0</ele><time>2026-05-02T08:39:05.728Z</time></trkpt><trkpt lat="44.1978833" lon="11.4061867"><ele>750.0</ele><time>2026-05-02T08:39:06.727Z</time></trkpt><trkpt lat="44.1978083" lon="11.406225"><ele>749.0</ele><time>2026-05-02T08:39:07.727Z</time></trkpt><trkpt lat="44.1977233" lon="11.4062817"><ele>748.0</ele><time>2026-05-02T08:39:09.728Z</time></trkpt><trkpt lat="44.1976667" lon="11.40633"><ele>747.0</ele><time>2026-05-02T08:39:12.728Z</time></trkpt><trkpt lat="44.1975933" lon="11.40632"><ele>746.0</ele><time>2026-05-02T08:39:15.727Z</time></trkpt><trkpt lat="44.19758" lon="11.4064217"><ele>746.0</ele><time>2026-05-02T08:44:06.728Z</time></trkpt><trkpt lat="44.1975533" lon="11.40655"><ele>746.0</ele><time>2026-05-02T08:44:09.726Z</time></trkpt><trkpt lat="44.1974833" lon="11.40668"><ele>746.0</ele><time>2026-05-02T08:44:11.728Z</time></trkpt><trkpt lat="44.197445" lon="11.4067583"><ele>746.0</ele><time>2026-05-02T08:44:12.727Z</time></trkpt><trkpt lat="44.1974017" lon="11.4068467"><ele>746.0</ele><time>2026-05-02T08:44:13.729Z</time></trkpt><trkpt lat="44.197355" lon="11.406935"><ele>746.0</ele><time>2026-05-02T08:44:14.729Z</time></trkpt><trkpt lat="44.1972967" lon="11.4070017"><ele>744.5</ele><time>2026-05-02T08:44:15.728Z</time></trkpt><trkpt lat="44.1972217" lon="11.407045"><ele>743.0</ele><time>2026-05-02T08:44:16.727Z</time></trkpt><trkpt lat="44.19714" lon="11.407035"><ele>741.5</ele><time>2026-05-02T08:44:17.728Z</time></trkpt><trkpt lat="44.1970733" lon="11.4069967"><ele>740.0</ele><time>2026-05-02T08:44:18.729Z</time></trkpt><trkpt lat="44.1970183" lon="11.4069333"><ele>738.5</ele><time>2026-05-02T08:44:19.726Z</time></trkpt><trkpt lat="44.1969933" lon="11.4068433"><ele>737.0</ele><time>2026-05-02T08:44:20.729Z</time></trkpt><trkpt lat="44.1970133" lon="11.406725"><ele>737.0</ele><time>2026-05-02T08:44:21.729Z</time></trkpt><trkpt lat="44.1970567" lon="11.4065967"><ele>737.0</ele><time>2026-05-02T08:44:22.727Z</time></trkpt><trkpt lat="44.1971117" lon="11.4064483"><ele>737.0</ele><time>2026-05-02T08:44:23.729Z</time></trkpt><trkpt lat="44.19716" lon="11.4062867"><ele>737.0</ele><time>2026-05-02T08:44:24.728Z</time></trkpt><trkpt lat="44.1972033" lon="11.40611"><ele>733.5</ele><time>2026-05-02T08:44:25.729Z</time></trkpt><trkpt lat="44.1972433" lon="11.40593"><ele>730.0</ele><time>2026-05-02T08:44:26.726Z</time></trkpt><trkpt lat="44.197275" lon="11.4057583"><ele>726.5</ele><time>2026-05-02T08:44:27.727Z</time></trkpt><trkpt lat="44.19729" lon="11.4055917"><ele>723.0</ele><time>2026-05-02T08:44:28.727Z</time></trkpt><trkpt lat="44.197275" lon="11.405425"><ele>720.5</ele><time>2026-05-02T08:44:29.728Z</time></trkpt><trkpt lat="44.1972383" lon="11.4052567"><ele>718.0</ele><time>2026-05-02T08:44:30.729Z</time></trkpt><trkpt lat="44.1971817" lon="11.4050967"><ele>715.5</ele><time>2026-05-02T08:44:31.728Z</time></trkpt><trkpt lat="44.1971283" lon="11.4049383"><ele>713.0</ele><time>2026-05-02T08:44:32.728Z</time></trkpt><trkpt lat="44.1970933" lon="11.4047767"><ele>712.5</ele><time>2026-05-02T08:44:33.728Z</time></trkpt><trkpt lat="44.1970867" lon="11.4045933"><ele>712.0</ele><time>2026-05-02T08:44:34.729Z</time></trkpt><trkpt lat="44.1971083" lon="11.4044017"><ele>711.5</ele><time>2026-05-02T08:44:35.726Z</time></trkpt><trkpt lat="44.19715" lon="11.40421"><ele>711.0</ele><time>2026-05-02T08:44:36.726Z</time></trkpt><trkpt lat="44.1971917" lon="11.4040233"><ele>711.0</ele><time>2026-05-02T08:44:37.728Z</time></trkpt><trkpt lat="44.197205" lon="11.4038383"><ele>711.0</ele><time>2026-05-02T08:44:38.727Z</time></trkpt><trkpt lat="44.197185" lon="11.4036467"><ele>711.0</ele><time>2026-05-02T08:44:39.729Z</time></trkpt><trkpt lat="44.197145" lon="11.4034583"><ele>711.0</ele><time>2026-05-02T08:44:40.728Z</time></trkpt><trkpt lat="44.19712" lon="11.4032633"><ele>709.6666666666666</ele><time>2026-05-02T08:44:41.726Z</time></trkpt><trkpt lat="44.19713" lon="11.403055"><ele>708.3333333333333</ele><time>2026-05-02T08:44:42.726Z</time></trkpt><trkpt lat="44.1971567" lon="11.4028433"><ele>707.0</ele><time>2026-05-02T08:44:43.727Z</time></trkpt><trkpt lat="44.1971783" lon="11.402625"><ele>705.0</ele><time>2026-05-02T08:44:44.729Z</time></trkpt><trkpt lat="44.19716" lon="11.4023983"><ele>703.0</ele><time>2026-05-02T08:44:45.727Z</time></trkpt><trkpt lat="44.1971167" lon="11.4021617"><ele>701.0</ele><time>2026-05-02T08:44:46.727Z</time></trkpt><trkpt lat="44.197085" lon="11.401915"><ele>700.6666666666666</ele><time>2026-05-02T08:44:47.73Z</time></trkpt><trkpt lat="44.197075" lon="11.4016783"><ele>700.3333333333334</ele><time>2026-05-02T08:44:48.728Z</time></trkpt><trkpt lat="44.1970917" lon="11.4014533"><ele>700.0</ele><time>2026-05-02T08:44:49.728Z</time></trkpt><trkpt lat="44.1971233" lon="11.4012467"><ele>700.0</ele><time>2026-05-02T08:44:50.727Z</time></trkpt><trkpt lat="44.1971433" lon="11.4010583"><ele>700.0</ele><time>2026-05-02T08:44:51.729Z</time></trkpt><trkpt lat="44.1971317" lon="11.400875"><ele>700.0</ele><time>2026-05-02T08:44:52.726Z</time></trkpt><trkpt lat="44.1970767" lon="11.4007083"><ele>700.0</ele><time>2026-05-02T08:44:53.727Z</time></trkpt><trkpt lat="44.19698" lon="11.400575"><ele>699.0</ele><time>2026-05-02T08:44:54.728Z</time></trkpt><trkpt lat="44.1968483" lon="11.400475"><ele>698.0</ele><time>2026-05-02T08:44:55.728Z</time></trkpt><trkpt lat="44.1966833" lon="11.4004133"><ele>697.0</ele><time>2026-05-02T08:44:56.727Z</time></trkpt><trkpt lat="44.1964983" lon="11.40037"><ele>697.0</ele><time>2026-05-02T08:44:57.728Z</time></trkpt><trkpt lat="44.1963117" lon="11.400325"><ele>697.0</ele><time>2026-05-02T08:44:58.726Z</time></trkpt><trkpt lat="44.19613" lon="11.4002817"><ele>697.0</ele><time>2026-05-02T08:44:59.727Z</time></trkpt><trkpt lat="44.1959567" lon="11.4002433"><ele>697.0</ele><time>2026-05-02T08:45:00.727Z</time></trkpt><trkpt lat="44.1957967" lon="11.4002083"><ele>697.0</ele><time>2026-05-02T08:45:01.728Z</time></trkpt><trkpt lat="44.1956583" lon="11.4001733"><ele>697.0</ele><time>2026-05-02T08:45:02.727Z</time></trkpt><trkpt lat="44.1955433" lon="11.4001133"><ele>697.0</ele><time>2026-05-02T08:45:03.728Z</time></trkpt><trkpt lat="44.195455" lon="11.400015"><ele>693.0</ele><time>2026-05-02T08:45:04.729Z</time></trkpt><trkpt lat="44.1954133" lon="11.3998783"><ele>689.0</ele><time>2026-05-02T08:45:05.729Z</time></trkpt><trkpt lat="44.19542" lon="11.3997117"><ele>685.0</ele><time>2026-05-02T08:45:06.726Z</time></trkpt><trkpt lat="44.195445" lon="11.3995183"><ele>681.0</ele><time>2026-05-02T08:45:07.728Z</time></trkpt><trkpt lat="44.195455" lon="11.3993067"><ele>681.0</ele><time>2026-05-02T08:45:08.728Z</time></trkpt><trkpt lat="44.1954283" lon="11.3990983"><ele>681.0</ele><time>2026-05-02T08:45:09.728Z</time></trkpt><trkpt lat="44.19536" lon="11.3989033"><ele>681.0</ele><time>2026-05-02T08:45:10.729Z</time></trkpt><trkpt lat="44.1952667" lon="11.3987317"><ele>682.5</ele><time>2026-05-02T08:45:11.726Z</time></trkpt><trkpt lat="44.1951533" lon="11.3985883"><ele>684.0</ele><time>2026-05-02T08:45:12.725Z</time></trkpt><trkpt lat="44.195045" lon="11.3984467"><ele>685.5</ele><time>2026-05-02T08:45:13.729Z</time></trkpt><trkpt lat="44.1949483" lon="11.3983167"><ele>687.0</ele><time>2026-05-02T08:45:14.728Z</time></trkpt><trkpt lat="44.1948733" lon="11.3982017"><ele>685.0</ele><time>2026-05-02T08:45:15.728Z</time></trkpt><trkpt lat="44.1948083" lon="11.3980867"><ele>683.0</ele><time>2026-05-02T08:45:16.728Z</time></trkpt><trkpt lat="44.1947417" lon="11.3979617"><ele>681.0</ele><time>2026-05-02T08:45:17.728Z</time></trkpt><trkpt lat="44.1946733" lon="11.3978217"><ele>679.0</ele><time>2026-05-02T08:45:18.728Z</time></trkpt><trkpt lat="44.194605" lon="11.39766"><ele>679.0</ele><time>2026-05-02T08:45:19.729Z</time></trkpt><trkpt lat="44.1945333" lon="11.3974883"><ele>679.0</ele><time>2026-05-02T08:45:20.73Z</time></trkpt><trkpt lat="44.1944517" lon="11.3973233"><ele>679.0</ele><time>2026-05-02T08:45:21.729Z</time></trkpt><trkpt lat="44.1943417" lon="11.39717"><ele>679.0</ele><time>2026-05-02T08:45:22.728Z</time></trkpt><trkpt lat="44.1942067" lon="11.3970383"><ele>681.0</ele><time>2026-05-02T08:45:23.729Z</time></trkpt><trkpt lat="44.1940533" lon="11.39693"><ele>683.0</ele><time>2026-05-02T08:45:24.728Z</time></trkpt><trkpt lat="44.1938917" lon="11.396855"><ele>685.0</ele><time>2026-05-02T08:45:25.729Z</time></trkpt><trkpt lat="44.1937183" lon="11.3968233"><ele>685.3333333333334</ele><time>2026-05-02T08:45:26.729Z</time></trkpt><trkpt lat="44.1935317" lon="11.396825"><ele>685.6666666666666</ele><time>2026-05-02T08:45:27.726Z</time></trkpt><trkpt lat="44.1933433" lon="11.39684"><ele>686.0</ele><time>2026-05-02T08:45:28.728Z</time></trkpt><trkpt lat="44.193155" lon="11.39685"><ele>686.6666666666666</ele><time>2026-05-02T08:45:29.729Z</time></trkpt><trkpt lat="44.1929617" lon="11.396855"><ele>687.3333333333334</ele><time>2026-05-02T08:45:30.728Z</time></trkpt><trkpt lat="44.1927633" lon="11.3968583"><ele>688.0</ele><time>2026-05-02T08:45:31.727Z</time></trkpt><trkpt lat="44.1925633" lon="11.3968633"><ele>688.0</ele><time>2026-05-02T08:45:32.73Z</time></trkpt><trkpt lat="44.1923633" lon="11.3968683"><ele>688.0</ele><time>2026-05-02T08:45:33.729Z</time></trkpt><trkpt lat="44.1921633" lon="11.3968683"><ele>688.0</ele><time>2026-05-02T08:45:34.728Z</time></trkpt><trkpt lat="44.1919617" lon="11.3968683"><ele>688.6666666666667</ele><time>2026-05-02T08:45:35.729Z</time></trkpt><trkpt lat="44.1917683" lon="11.3968717"><ele>689.3333333333334</ele><time>2026-05-02T08:45:36.726Z</time></trkpt><trkpt lat="44.1915933" lon="11.3968783"><ele>690.0</ele><time>2026-05-02T08:45:37.728Z</time></trkpt><trkpt lat="44.1914467" lon="11.3968817"><ele>689.2</ele><time>2026-05-02T08:45:38.729Z</time></trkpt><trkpt lat="44.1913333" lon="11.39686"><ele>688.4</ele><time>2026-05-02T08:45:39.729Z</time></trkpt><trkpt lat="44.1912367" lon="11.3968"><ele>687.5999999999999</ele><time>2026-05-02T08:45:40.728Z</time></trkpt><trkpt lat="44.1911517" lon="11.3967167"><ele>686.8</ele><time>2026-05-02T08:45:41.728Z</time></trkpt><trkpt lat="44.1910717" lon="11.3966017"><ele>686.0</ele><time>2026-05-02T08:45:42.729Z</time></trkpt><trkpt lat="44.1909933" lon="11.3964517"><ele>687.6666666666666</ele><time>2026-05-02T08:45:43.729Z</time></trkpt><trkpt lat="44.1909133" lon="11.3962733"><ele>689.3333333333334</ele><time>2026-05-02T08:45:44.73Z</time></trkpt><trkpt lat="44.1908217" lon="11.3960767"><ele>691.0</ele><time>2026-05-02T08:45:45.729Z</time></trkpt><trkpt lat="44.1907183" lon="11.3958767"><ele>691.75</ele><time>2026-05-02T08:45:46.729Z</time></trkpt><trkpt lat="44.190625" lon="11.3956817"><ele>692.5</ele><time>2026-05-02T08:45:47.729Z</time></trkpt><trkpt lat="44.1905433" lon="11.3955133"><ele>693.25</ele><time>2026-05-02T08:45:48.729Z</time></trkpt><trkpt lat="44.1904683" lon="11.395385"><ele>694.0</ele><time>2026-05-02T08:45:49.727Z</time></trkpt><trkpt lat="44.1903917" lon="11.3953017"><ele>694.0</ele><time>2026-05-02T08:45:50.728Z</time></trkpt><trkpt lat="44.1903167" lon="11.39526"><ele>694.0</ele><time>2026-05-02T08:45:51.729Z</time></trkpt><trkpt lat="44.1902417" lon="11.3952583"><ele>694.0</ele><time>2026-05-02T08:45:52.728Z</time></trkpt><trkpt lat="44.1901483" lon="11.3953433"><ele>694.0</ele><time>2026-05-02T08:45:53.727Z</time></trkpt><trkpt lat="44.190075" lon="11.3954633"><ele>694.0</ele><time>2026-05-02T08:45:54.726Z</time></trkpt><trkpt lat="44.1900117" lon="11.395625"><ele>692.0</ele><time>2026-05-02T08:45:55.728Z</time></trkpt><trkpt lat="44.18994" lon="11.3957833"><ele>690.0</ele><time>2026-05-02T08:45:56.728Z</time></trkpt><trkpt lat="44.1898467" lon="11.3959117"><ele>688.0</ele><time>2026-05-02T08:45:57.726Z</time></trkpt><trkpt lat="44.1897433" lon="11.395985"><ele>686.0</ele><time>2026-05-02T08:45:58.727Z</time></trkpt><trkpt lat="44.189625" lon="11.3959983"><ele>686.75</ele><time>2026-05-02T08:45:59.728Z</time></trkpt><trkpt lat="44.1895133" lon="11.3959483"><ele>687.5</ele><time>2026-05-02T08:46:00.727Z</time></trkpt><trkpt lat="44.1894133" lon="11.3958417"><ele>688.25</ele><time>2026-05-02T08:46:01.725Z</time></trkpt><trkpt lat="44.1893283" lon="11.3956733"><ele>689.0</ele><time>2026-05-02T08:46:02.728Z</time></trkpt><trkpt lat="44.1892467" lon="11.3955"><ele>689.0</ele><time>2026-05-02T08:46:03.728Z</time></trkpt><trkpt lat="44.1891717" lon="11.3953567"><ele>689.0</ele><time>2026-05-02T08:46:04.726Z</time></trkpt><trkpt lat="44.1890933" lon="11.39525"><ele>689.0</ele><time>2026-05-02T08:46:05.729Z</time></trkpt><trkpt lat="44.1890033" lon="11.395185"><ele>689.0</ele><time>2026-05-02T08:46:06.727Z</time></trkpt><trkpt lat="44.1889117" lon="11.395165"><ele>689.0</ele><time>2026-05-02T08:46:07.728Z</time></trkpt><trkpt lat="44.1888167" lon="11.3952117"><ele>687.4000000000001</ele><time>2026-05-02T08:46:08.729Z</time></trkpt><trkpt lat="44.1887267" lon="11.3952917"><ele>685.8</ele><time>2026-05-02T08:46:09.728Z</time></trkpt><trkpt lat="44.1886433" lon="11.3953333"><ele>684.2</ele><time>2026-05-02T08:46:10.728Z</time></trkpt><trkpt lat="44.188555" lon="11.395325"><ele>682.5999999999999</ele><time>2026-05-02T08:46:11.728Z</time></trkpt><trkpt lat="44.1884633" lon="11.3952833"><ele>681.0</ele><time>2026-05-02T08:46:12.726Z</time></trkpt><trkpt lat="44.188385" lon="11.3951567"><ele>681.0</ele><time>2026-05-02T08:46:13.728Z</time></trkpt><trkpt lat="44.188305" lon="11.3949967"><ele>681.0</ele><time>2026-05-02T08:46:14.728Z</time></trkpt><trkpt lat="44.1882167" lon="11.394855"><ele>681.0</ele><time>2026-05-02T08:46:15.727Z</time></trkpt><trkpt lat="44.188125" lon="11.39477"><ele>681.0</ele><time>2026-05-02T08:46:16.728Z</time></trkpt><trkpt lat="44.188025" lon="11.39473"><ele>680.5</ele><time>2026-05-02T08:46:17.727Z</time></trkpt><trkpt lat="44.18792" lon="11.3947433"><ele>680.0</ele><time>2026-05-02T08:46:18.727Z</time></trkpt><trkpt lat="44.1878" lon="11.394795"><ele>679.5</ele><time>2026-05-02T08:46:19.728Z</time></trkpt><trkpt lat="44.1876683" lon="11.3948383"><ele>679.0</ele><time>2026-05-02T08:46:20.727Z</time></trkpt><trkpt lat="44.1875283" lon="11.3948533"><ele>679.0</ele><time>2026-05-02T08:46:21.728Z</time></trkpt><trkpt lat="44.1873867" lon="11.394815"><ele>679.0</ele><time>2026-05-02T08:46:22.726Z</time></trkpt><trkpt lat="44.18725" lon="11.39473"><ele>679.0</ele><time>2026-05-02T08:46:23.727Z</time></trkpt><trkpt lat="44.18712" lon="11.39464"><ele>679.0</ele><time>2026-05-02T08:46:24.727Z</time></trkpt><trkpt lat="44.1869833" lon="11.3945867"><ele>678.6666666666667</ele><time>2026-05-02T08:46:25.727Z</time></trkpt><trkpt lat="44.1868333" lon="11.3945883"><ele>678.3333333333334</ele><time>2026-05-02T08:46:26.727Z</time></trkpt><trkpt lat="44.1866733" lon="11.3946433"><ele>678.0</ele><time>2026-05-02T08:46:27.724Z</time></trkpt><trkpt lat="44.1865183" lon="11.3947333"><ele>680.3333333333334</ele><time>2026-05-02T08:46:28.727Z</time></trkpt><trkpt lat="44.1863667" lon="11.3948483"><ele>682.6666666666667</ele><time>2026-05-02T08:46:29.727Z</time></trkpt><trkpt lat="44.1862317" lon="11.3949917"><ele>685.0</ele><time>2026-05-02T08:46:30.726Z</time></trkpt><trkpt lat="44.1861267" lon="11.3951717"><ele>685.0</ele><time>2026-05-02T08:46:31.728Z</time></trkpt><trkpt lat="44.186055" lon="11.39539"><ele>685.0</ele><time>2026-05-02T08:46:32.726Z</time></trkpt><trkpt lat="44.186005" lon="11.3956383"><ele>685.0</ele><time>2026-05-02T08:46:33.728Z</time></trkpt><trkpt lat="44.18596" lon="11.3958933"><ele>682.6666666666667</ele><time>2026-05-02T08:46:34.727Z</time></trkpt><trkpt lat="44.1859117" lon="11.39614"><ele>680.3333333333334</ele><time>2026-05-02T08:46:35.727Z</time></trkpt><trkpt lat="44.1858683" lon="11.3963783"><ele>678.0</ele><time>2026-05-02T08:46:36.726Z</time></trkpt><trkpt lat="44.1858267" lon="11.3966"><ele>676.75</ele><time>2026-05-02T08:46:37.727Z</time></trkpt><trkpt lat="44.18579" lon="11.3967983"><ele>675.5</ele><time>2026-05-02T08:46:38.728Z</time></trkpt><trkpt lat="44.1857417" lon="11.3969617"><ele>674.25</ele><time>2026-05-02T08:46:39.728Z</time></trkpt><trkpt lat="44.1856733" lon="11.3970833"><ele>673.0</ele><time>2026-05-02T08:46:40.728Z</time></trkpt><trkpt lat="44.1855817" lon="11.3971583"><ele>671.5</ele><time>2026-05-02T08:46:41.726Z</time></trkpt><trkpt lat="44.1854817" lon="11.3971767"><ele>670.0</ele><time>2026-05-02T08:46:42.726Z</time></trkpt><trkpt lat="44.1853717" lon="11.3971317"><ele>668.5</ele><time>2026-05-02T08:46:43.728Z</time></trkpt><trkpt lat="44.18527" lon="11.3970283"><ele>667.0</ele><time>2026-05-02T08:46:44.728Z</time></trkpt><trkpt lat="44.18519" lon="11.3968633"><ele>667.0</ele><time>2026-05-02T08:46:45.727Z</time></trkpt><trkpt lat="44.1851217" lon="11.3966633"><ele>667.0</ele><time>2026-05-02T08:46:46.726Z</time></trkpt><trkpt lat="44.1850467" lon="11.396445"><ele>667.0</ele><time>2026-05-02T08:46:47.727Z</time></trkpt><trkpt lat="44.1849567" lon="11.396225"><ele>668.3333333333334</ele><time>2026-05-02T08:46:48.73Z</time></trkpt><trkpt lat="44.1848467" lon="11.3960267"><ele>669.6666666666666</ele><time>2026-05-02T08:46:49.728Z</time></trkpt><trkpt lat="44.1847283" lon="11.3958583"><ele>671.0</ele><time>2026-05-02T08:46:50.73Z</time></trkpt><trkpt lat="44.1846083" lon="11.3957183"><ele>670.6666666666666</ele><time>2026-05-02T08:46:51.728Z</time></trkpt><trkpt lat="44.1844783" lon="11.3956167"><ele>670.3333333333334</ele><time>2026-05-02T08:46:52.727Z</time></trkpt><trkpt lat="44.1843283" lon="11.39555"><ele>670.0</ele><time>2026-05-02T08:46:53.73Z</time></trkpt><trkpt lat="44.1841683" lon="11.3954883"><ele>667.3333333333334</ele><time>2026-05-02T08:46:54.728Z</time></trkpt><trkpt lat="44.1840117" lon="11.3954183"><ele>664.6666666666666</ele><time>2026-05-02T08:46:55.728Z</time></trkpt><trkpt lat="44.1838717" lon="11.39534"><ele>662.0</ele><time>2026-05-02T08:46:56.728Z</time></trkpt><trkpt lat="44.1837417" lon="11.3952767"><ele>662.0</ele><time>2026-05-02T08:46:57.729Z</time></trkpt><trkpt lat="44.1836067" lon="11.3952533"><ele>662.0</ele><time>2026-05-02T08:46:58.727Z</time></trkpt><trkpt lat="44.183465" lon="11.3952833"><ele>662.0</ele><time>2026-05-02T08:46:59.728Z</time></trkpt><trkpt lat="44.183325" lon="11.3953567"><ele>662.0</ele><time>2026-05-02T08:47:00.726Z</time></trkpt><trkpt lat="44.1831717" lon="11.3954417"><ele>657.0</ele><time>2026-05-02T08:47:01.727Z</time></trkpt><trkpt lat="44.183025" lon="11.3955267"><ele>652.0</ele><time>2026-05-02T08:47:02.726Z</time></trkpt><trkpt lat="44.18289" lon="11.3956033"><ele>647.0</ele><time>2026-05-02T08:47:03.729Z</time></trkpt><trkpt lat="44.18276" lon="11.39567"><ele>642.0</ele><time>2026-05-02T08:47:04.73Z</time></trkpt><trkpt lat="44.1826267" lon="11.395705"><ele>642.0</ele><time>2026-05-02T08:47:05.728Z</time></trkpt><trkpt lat="44.1824833" lon="11.3956967"><ele>642.0</ele><time>2026-05-02T08:47:06.727Z</time></trkpt><trkpt lat="44.1823283" lon="11.39565"><ele>642.0</ele><time>2026-05-02T08:47:07.725Z</time></trkpt><trkpt lat="44.1821783" lon="11.395585"><ele>642.0</ele><time>2026-05-02T08:47:08.727Z</time></trkpt><trkpt lat="44.1820367" lon="11.39552"><ele>642.0</ele><time>2026-05-02T08:47:09.728Z</time></trkpt><trkpt lat="44.1818967" lon="11.3954683"><ele>642.0</ele><time>2026-05-02T08:47:10.727Z</time></trkpt><trkpt lat="44.1817617" lon="11.395425"><ele>642.0</ele><time>2026-05-02T08:47:11.727Z</time></trkpt><trkpt lat="44.1816317" lon="11.39541"><ele>638.25</ele><time>2026-05-02T08:47:12.726Z</time></trkpt><trkpt lat="44.1814983" lon="11.395445"><ele>634.5</ele><time>2026-05-02T08:47:13.727Z</time></trkpt><trkpt lat="44.1813667" lon="11.3955233"><ele>630.75</ele><time>2026-05-02T08:47:14.726Z</time></trkpt><trkpt lat="44.1812333" lon="11.3956367"><ele>627.0</ele><time>2026-05-02T08:47:15.728Z</time></trkpt><trkpt lat="44.1810967" lon="11.3957683"><ele>627.0</ele><time>2026-05-02T08:47:16.728Z</time></trkpt><trkpt lat="44.1809533" lon="11.3959"><ele>627.0</ele><time>2026-05-02T08:47:17.726Z</time></trkpt><trkpt lat="44.1808117" lon="11.3960267"><ele>627.0</ele><time>2026-05-02T08:47:18.727Z</time></trkpt><trkpt lat="44.1806783" lon="11.3961517"><ele>624.0</ele><time>2026-05-02T08:47:19.729Z</time></trkpt><trkpt lat="44.1805567" lon="11.3962683"><ele>621.0</ele><time>2026-05-02T08:47:20.729Z</time></trkpt><trkpt lat="44.1804517" lon="11.3963717"><ele>618.0</ele><time>2026-05-02T08:47:21.726Z</time></trkpt><trkpt lat="44.1803717" lon="11.3964867"><ele>615.0</ele><time>2026-05-02T08:47:22.726Z</time></trkpt><trkpt lat="44.18033" lon="11.3966183"><ele>615.0</ele><time>2026-05-02T08:47:23.728Z</time></trkpt><trkpt lat="44.18033" lon="11.39675"><ele>615.0</ele><time>2026-05-02T08:47:24.728Z</time></trkpt><trkpt lat="44.1803633" lon="11.39688"><ele>615.0</ele><time>2026-05-02T08:47:25.728Z</time></trkpt><trkpt lat="44.1804317" lon="11.3969783"><ele>615.0</ele><time>2026-05-02T08:47:26.727Z</time></trkpt><trkpt lat="44.1805333" lon="11.397025"><ele>615.0</ele><time>2026-05-02T08:47:27.726Z</time></trkpt><trkpt lat="44.1806333" lon="11.3970083"><ele>616.6</ele><time>2026-05-02T08:47:28.729Z</time></trkpt><trkpt lat="44.1807233" lon="11.3969567"><ele>618.2</ele><time>2026-05-02T08:47:29.728Z</time></trkpt><trkpt lat="44.1808033" lon="11.3968383"><ele>619.8</ele><time>2026-05-02T08:47:30.728Z</time></trkpt><trkpt lat="44.1808783" lon="11.396735"><ele>621.4</ele><time>2026-05-02T08:47:31.728Z</time></trkpt><trkpt lat="44.1809583" lon="11.3966617"><ele>623.0</ele><time>2026-05-02T08:47:32.726Z</time></trkpt><trkpt lat="44.18103" lon="11.3966317"><ele>623.0</ele><time>2026-05-02T08:47:33.727Z</time></trkpt><trkpt lat="44.1810933" lon="11.396785"><ele>623.0</ele><time>2026-05-02T08:47:35.727Z</time></trkpt><trkpt lat="44.1810567" lon="11.3968967"><ele>623.0</ele><time>2026-05-02T08:47:36.724Z</time></trkpt><trkpt lat="44.1809967" lon="11.39701"><ele>623.0</ele><time>2026-05-02T08:47:37.727Z</time></trkpt><trkpt lat="44.1809083" lon="11.3971333"><ele>623.0</ele><time>2026-05-02T08:47:38.727Z</time></trkpt><trkpt lat="44.1808033" lon="11.3972567"><ele>618.5</ele><time>2026-05-02T08:47:39.728Z</time></trkpt><trkpt lat="44.1806767" lon="11.39735"><ele>614.0</ele><time>2026-05-02T08:47:40.728Z</time></trkpt><trkpt lat="44.1805283" lon="11.3974133"><ele>609.5</ele><time>2026-05-02T08:47:41.727Z</time></trkpt><trkpt lat="44.1803883" lon="11.39745"><ele>605.0</ele><time>2026-05-02T08:47:42.727Z</time></trkpt><trkpt lat="44.18026" lon="11.39746"><ele>605.0</ele><time>2026-05-02T08:47:43.728Z</time></trkpt><trkpt lat="44.1801417" lon="11.3974167"><ele>605.0</ele><time>2026-05-02T08:47:44.729Z</time></trkpt><trkpt lat="44.1800167" lon="11.39733"><ele>605.0</ele><time>2026-05-02T08:47:45.727Z</time></trkpt><trkpt lat="44.179875" lon="11.39724"><ele>605.0</ele><time>2026-05-02T08:47:46.727Z</time></trkpt><trkpt lat="44.1797233" lon="11.3971817"><ele>603.25</ele><time>2026-05-02T08:47:47.727Z</time></trkpt><trkpt lat="44.1795733" lon="11.3971517"><ele>601.5</ele><time>2026-05-02T08:47:48.729Z</time></trkpt><trkpt lat="44.17943" lon="11.39712"><ele>599.75</ele><time>2026-05-02T08:47:49.73Z</time></trkpt><trkpt lat="44.1792983" lon="11.3970667"><ele>598.0</ele><time>2026-05-02T08:47:50.729Z</time></trkpt><trkpt lat="44.1791783" lon="11.396965"><ele>598.0</ele><time>2026-05-02T08:47:51.73Z</time></trkpt><trkpt lat="44.1790733" lon="11.396835"><ele>598.0</ele><time>2026-05-02T08:47:52.727Z</time></trkpt><trkpt lat="44.1789817" lon="11.3967017"><ele>598.0</ele><time>2026-05-02T08:47:53.727Z</time></trkpt><trkpt lat="44.17891" lon="11.3965683"><ele>598.0</ele><time>2026-05-02T08:47:54.728Z</time></trkpt><trkpt lat="44.1788783" lon="11.3964217"><ele>594.4</ele><time>2026-05-02T08:47:55.726Z</time></trkpt><trkpt lat="44.1788883" lon="11.3962617"><ele>590.8</ele><time>2026-05-02T08:47:56.729Z</time></trkpt><trkpt lat="44.178915" lon="11.3961167"><ele>587.2</ele><time>2026-05-02T08:47:57.728Z</time></trkpt><trkpt lat="44.1789217" lon="11.39599"><ele>583.6</ele><time>2026-05-02T08:47:58.728Z</time></trkpt><trkpt lat="44.1788983" lon="11.3958767"><ele>580.0</ele><time>2026-05-02T08:47:59.727Z</time></trkpt><trkpt lat="44.1788433" lon="11.395815"><ele>580.0</ele><time>2026-05-02T08:48:00.726Z</time></trkpt><trkpt lat="44.17878" lon="11.39579"><ele>580.0</ele><time>2026-05-02T08:48:01.726Z</time></trkpt><trkpt lat="44.1787217" lon="11.3958567"><ele>580.0</ele><time>2026-05-02T08:48:02.729Z</time></trkpt><trkpt lat="44.178675" lon="11.395935"><ele>580.0</ele><time>2026-05-02T08:48:03.727Z</time></trkpt><trkpt lat="44.1786283" lon="11.3960933"><ele>580.0</ele><time>2026-05-02T08:48:04.727Z</time></trkpt><trkpt lat="44.1785917" lon="11.3962533"><ele>579.5</ele><time>2026-05-02T08:48:05.728Z</time></trkpt><trkpt lat="44.1785667" lon="11.39641"><ele>579.0</ele><time>2026-05-02T08:48:06.728Z</time></trkpt><trkpt lat="44.178565" lon="11.3965817"><ele>578.5</ele><time>2026-05-02T08:48:07.729Z</time></trkpt><trkpt lat="44.1785833" lon="11.39677"><ele>578.0</ele><time>2026-05-02T08:48:08.728Z</time></trkpt><trkpt lat="44.17862" lon="11.3969567"><ele>578.0</ele><time>2026-05-02T08:48:09.728Z</time></trkpt><trkpt lat="44.17866" lon="11.3971333"><ele>578.0</ele><time>2026-05-02T08:48:10.728Z</time></trkpt><trkpt lat="44.17869" lon="11.39729"><ele>578.0</ele><time>2026-05-02T08:48:11.728Z</time></trkpt><trkpt lat="44.1787083" lon="11.3974167"><ele>578.0</ele><time>2026-05-02T08:48:12.726Z</time></trkpt><trkpt lat="44.1787017" lon="11.397525"><ele>578.0</ele><time>2026-05-02T08:48:13.728Z</time></trkpt><trkpt lat="44.1786683" lon="11.3976033"><ele>578.0</ele><time>2026-05-02T08:48:14.728Z</time></trkpt><trkpt lat="44.1785967" lon="11.3975983"><ele>578.0</ele><time>2026-05-02T08:48:15.726Z</time></trkpt><trkpt lat="44.1785333" lon="11.397535"><ele>578.0</ele><time>2026-05-02T08:48:16.728Z</time></trkpt><trkpt lat="44.178475" lon="11.39743"><ele>578.0</ele><time>2026-05-02T08:48:17.728Z</time></trkpt><trkpt lat="44.1784317" lon="11.3972717"><ele>578.0</ele><time>2026-05-02T08:48:18.728Z</time></trkpt><trkpt lat="44.178375" lon="11.3971017"><ele>578.0</ele><time>2026-05-02T08:48:19.729Z</time></trkpt><trkpt lat="44.1782917" lon="11.3969417"><ele>578.0</ele><time>2026-05-02T08:48:20.729Z</time></trkpt><trkpt lat="44.178185" lon="11.3967967"><ele>578.0</ele><time>2026-05-02T08:48:21.726Z</time></trkpt><trkpt lat="44.1780567" lon="11.3966817"><ele>578.0</ele><time>2026-05-02T08:48:22.726Z</time></trkpt><trkpt lat="44.17792" lon="11.3965917"><ele>574.25</ele><time>2026-05-02T08:48:23.728Z</time></trkpt><trkpt lat="44.17779" lon="11.39652"><ele>570.5</ele><time>2026-05-02T08:48:24.728Z</time></trkpt><trkpt lat="44.1776717" lon="11.3964567"><ele>566.75</ele><time>2026-05-02T08:48:25.727Z</time></trkpt><trkpt lat="44.177575" lon="11.39639"><ele>563.0</ele><time>2026-05-02T08:48:26.725Z</time></trkpt><trkpt lat="44.1774983" lon="11.396305"><ele>563.0</ele><time>2026-05-02T08:48:27.727Z</time></trkpt><trkpt lat="44.1774483" lon="11.3961983"><ele>563.0</ele><time>2026-05-02T08:48:28.727Z</time></trkpt><trkpt lat="44.17743" lon="11.39608"><ele>563.0</ele><time>2026-05-02T08:48:29.727Z</time></trkpt><trkpt lat="44.1774367" lon="11.395945"><ele>563.0</ele><time>2026-05-02T08:48:30.727Z</time></trkpt><trkpt lat="44.1774567" lon="11.39579"><ele>563.0</ele><time>2026-05-02T08:48:31.727Z</time></trkpt><trkpt lat="44.17748" lon="11.395615"><ele>561.75</ele><time>2026-05-02T08:48:32.727Z</time></trkpt><trkpt lat="44.177505" lon="11.3954283"><ele>560.5</ele><time>2026-05-02T08:48:33.725Z</time></trkpt><trkpt lat="44.17753" lon="11.39524"><ele>559.25</ele><time>2026-05-02T08:48:34.726Z</time></trkpt><trkpt lat="44.1775533" lon="11.3950483"><ele>558.0</ele><time>2026-05-02T08:48:35.727Z</time></trkpt><trkpt lat="44.1775783" lon="11.3948667"><ele>558.0</ele><time>2026-05-02T08:48:36.727Z</time></trkpt><trkpt lat="44.1776067" lon="11.3947"><ele>558.0</ele><time>2026-05-02T08:48:37.726Z</time></trkpt><trkpt lat="44.1776283" lon="11.39455"><ele>558.0</ele><time>2026-05-02T08:48:38.727Z</time></trkpt><trkpt lat="44.177635" lon="11.3944117"><ele>558.0</ele><time>2026-05-02T08:48:39.728Z</time></trkpt><trkpt lat="44.1776117" lon="11.3942783"><ele>558.0</ele><time>2026-05-02T08:48:40.726Z</time></trkpt><trkpt lat="44.17756" lon="11.3941417"><ele>556.75</ele><time>2026-05-02T08:48:41.726Z</time></trkpt><trkpt lat="44.1774867" lon="11.3940033"><ele>555.5</ele><time>2026-05-02T08:48:42.728Z</time></trkpt><trkpt lat="44.177415" lon="11.393865"><ele>554.25</ele><time>2026-05-02T08:48:43.727Z</time></trkpt><trkpt lat="44.1773483" lon="11.39372"><ele>553.0</ele><time>2026-05-02T08:48:44.728Z</time></trkpt><trkpt lat="44.1772867" lon="11.39356"><ele>549.75</ele><time>2026-05-02T08:48:45.727Z</time></trkpt><trkpt lat="44.177235" lon="11.39339"><ele>546.5</ele><time>2026-05-02T08:48:46.727Z</time></trkpt><trkpt lat="44.17719" lon="11.3932083"><ele>543.25</ele><time>2026-05-02T08:48:47.729Z</time></trkpt><trkpt lat="44.17716" lon="11.3930117"><ele>540.0</ele><time>2026-05-02T08:48:48.729Z</time></trkpt><trkpt lat="44.1771317" lon="11.3928083"><ele>540.0</ele><time>2026-05-02T08:48:49.729Z</time></trkpt><trkpt lat="44.1771033" lon="11.39261"><ele>540.0</ele><time>2026-05-02T08:48:50.728Z</time></trkpt><trkpt lat="44.1770733" lon="11.392425"><ele>540.0</ele><time>2026-05-02T08:48:51.729Z</time></trkpt><trkpt lat="44.1770367" lon="11.3922567"><ele>540.0</ele><time>2026-05-02T08:48:52.729Z</time></trkpt><trkpt lat="44.1769767" lon="11.392115"><ele>539.4</ele><time>2026-05-02T08:48:53.728Z</time></trkpt><trkpt lat="44.176895" lon="11.3920083"><ele>538.8</ele><time>2026-05-02T08:48:54.729Z</time></trkpt><trkpt lat="44.1767967" lon="11.3919417"><ele>538.2</ele><time>2026-05-02T08:48:55.728Z</time></trkpt><trkpt lat="44.1766883" lon="11.3919317"><ele>537.6</ele><time>2026-05-02T08:48:56.728Z</time></trkpt><trkpt lat="44.1765767" lon="11.3919767"><ele>537.0</ele><time>2026-05-02T08:48:57.726Z</time></trkpt><trkpt lat="44.176475" lon="11.3920817"><ele>535.75</ele><time>2026-05-02T08:48:58.727Z</time></trkpt><trkpt lat="44.17639" lon="11.392215"><ele>534.5</ele><time>2026-05-02T08:48:59.727Z</time></trkpt><trkpt lat="44.17632" lon="11.39237"><ele>533.25</ele><time>2026-05-02T08:49:00.728Z</time></trkpt><trkpt lat="44.17626" lon="11.3925267"><ele>532.0</ele><time>2026-05-02T08:49:01.725Z</time></trkpt><trkpt lat="44.1761933" lon="11.392665"><ele>532.0</ele><time>2026-05-02T08:49:02.728Z</time></trkpt><trkpt lat="44.1761117" lon="11.392775"><ele>532.0</ele><time>2026-05-02T08:49:03.729Z</time></trkpt><trkpt lat="44.1760083" lon="11.3928433"><ele>532.0</ele><time>2026-05-02T08:49:04.727Z</time></trkpt><trkpt lat="44.175905" lon="11.3928617"><ele>532.0</ele><time>2026-05-02T08:49:05.728Z</time></trkpt><trkpt lat="44.17581" lon="11.3928217"><ele>532.0</ele><time>2026-05-02T08:49:06.727Z</time></trkpt><trkpt lat="44.1757283" lon="11.3927333"><ele>527.75</ele><time>2026-05-02T08:49:07.727Z</time></trkpt><trkpt lat="44.175655" lon="11.3926067"><ele>523.5</ele><time>2026-05-02T08:49:08.727Z</time></trkpt><trkpt lat="44.1755883" lon="11.392455"><ele>519.25</ele><time>2026-05-02T08:49:09.728Z</time></trkpt><trkpt lat="44.1755217" lon="11.3923017"><ele>515.0</ele><time>2026-05-02T08:49:10.728Z</time></trkpt><trkpt lat="44.1754383" lon="11.3921767"><ele>516.5</ele><time>2026-05-02T08:49:11.728Z</time></trkpt><trkpt lat="44.1753217" lon="11.39209"><ele>518.0</ele><time>2026-05-02T08:49:12.727Z</time></trkpt><trkpt lat="44.1752" lon="11.3920267"><ele>519.5</ele><time>2026-05-02T08:49:13.729Z</time></trkpt><trkpt lat="44.1750833" lon="11.39197"><ele>521.0</ele><time>2026-05-02T08:49:14.729Z</time></trkpt><trkpt lat="44.174985" lon="11.39194"><ele>521.0</ele><time>2026-05-02T08:49:15.729Z</time></trkpt><trkpt lat="44.1748933" lon="11.391945"><ele>521.0</ele><time>2026-05-02T08:49:16.726Z</time></trkpt><trkpt lat="44.1748183" lon="11.3919967"><ele>521.0</ele><time>2026-05-02T08:49:17.728Z</time></trkpt><trkpt lat="44.1747967" lon="11.392115"><ele>521.0</ele><time>2026-05-02T08:49:18.729Z</time></trkpt><trkpt lat="44.1748083" lon="11.392245"><ele>521.0</ele><time>2026-05-02T08:49:19.728Z</time></trkpt><trkpt lat="44.1748667" lon="11.3923783"><ele>519.5</ele><time>2026-05-02T08:49:20.729Z</time></trkpt><trkpt lat="44.174935" lon="11.392535"><ele>518.0</ele><time>2026-05-02T08:49:21.726Z</time></trkpt><trkpt lat="44.1750067" lon="11.3927183"><ele>516.5</ele><time>2026-05-02T08:49:22.727Z</time></trkpt><trkpt lat="44.1750767" lon="11.39292"><ele>515.0</ele><time>2026-05-02T08:49:23.727Z</time></trkpt><trkpt lat="44.17515" lon="11.3931367"><ele>512.3333333333333</ele><time>2026-05-02T08:49:24.725Z</time></trkpt><trkpt lat="44.175225" lon="11.3933683"><ele>509.66666666666663</ele><time>2026-05-02T08:49:25.726Z</time></trkpt><trkpt lat="44.175305" lon="11.3936"><ele>507.0</ele><time>2026-05-02T08:49:26.726Z</time></trkpt><trkpt lat="44.1753833" lon="11.3938333"><ele>505.33333333333337</ele><time>2026-05-02T08:49:27.726Z</time></trkpt><trkpt lat="44.1754533" lon="11.3940633"><ele>503.6666666666667</ele><time>2026-05-02T08:49:28.725Z</time></trkpt><trkpt lat="44.1755283" lon="11.39429"><ele>502.0</ele><time>2026-05-02T08:49:29.725Z</time></trkpt><trkpt lat="44.1756033" lon="11.3945083"><ele>503.33333333333337</ele><time>2026-05-02T08:49:30.726Z</time></trkpt><trkpt lat="44.1756667" lon="11.394725"><ele>504.66666666666663</ele><time>2026-05-02T08:49:31.725Z</time></trkpt><trkpt lat="44.17572" lon="11.3949417"><ele>506.0</ele><time>2026-05-02T08:49:32.726Z</time></trkpt><trkpt lat="44.1757533" lon="11.3951567"><ele>506.0</ele><time>2026-05-02T08:49:33.727Z</time></trkpt><trkpt lat="44.1757767" lon="11.3953633"><ele>506.0</ele><time>2026-05-02T08:49:34.728Z</time></trkpt><trkpt lat="44.1757767" lon="11.3955683"><ele>506.0</ele><time>2026-05-02T08:49:35.729Z</time></trkpt><trkpt lat="44.1757517" lon="11.3957767"><ele>506.0</ele><time>2026-05-02T08:49:36.729Z</time></trkpt><trkpt lat="44.1757" lon="11.3959967"><ele>501.0</ele><time>2026-05-02T08:49:37.728Z</time></trkpt><trkpt lat="44.175635" lon="11.3962167"><ele>496.0</ele><time>2026-05-02T08:49:38.728Z</time></trkpt><trkpt lat="44.1755633" lon="11.396445"><ele>491.0</ele><time>2026-05-02T08:49:39.728Z</time></trkpt><trkpt lat="44.1755" lon="11.3966633"><ele>488.75</ele><time>2026-05-02T08:49:40.726Z</time></trkpt><trkpt lat="44.1754367" lon="11.3968717"><ele>486.5</ele><time>2026-05-02T08:49:41.726Z</time></trkpt><trkpt lat="44.1753783" lon="11.3970583"><ele>484.25</ele><time>2026-05-02T08:49:42.726Z</time></trkpt><trkpt lat="44.175325" lon="11.3972317"><ele>482.0</ele><time>2026-05-02T08:49:43.727Z</time></trkpt><trkpt lat="44.17529" lon="11.3974117"><ele>480.5</ele><time>2026-05-02T08:49:44.728Z</time></trkpt><trkpt lat="44.1752767" lon="11.3976017"><ele>479.0</ele><time>2026-05-02T08:49:45.729Z</time></trkpt><trkpt lat="44.17528" lon="11.3978083"><ele>477.5</ele><time>2026-05-02T08:49:46.728Z</time></trkpt><trkpt lat="44.1753067" lon="11.39802"><ele>476.0</ele><time>2026-05-02T08:49:47.728Z</time></trkpt><trkpt lat="44.1753333" lon="11.3982367"><ele>474.75</ele><time>2026-05-02T08:49:48.727Z</time></trkpt><trkpt lat="44.1753467" lon="11.39845"><ele>473.5</ele><time>2026-05-02T08:49:49.728Z</time></trkpt><trkpt lat="44.175365" lon="11.398645"><ele>472.25</ele><time>2026-05-02T08:49:50.728Z</time></trkpt><trkpt lat="44.1753683" lon="11.3988467"><ele>471.0</ele><time>2026-05-02T08:49:51.727Z</time></trkpt><trkpt lat="44.175345" lon="11.3990483"><ele>468.0</ele><time>2026-05-02T08:49:52.728Z</time></trkpt><trkpt lat="44.1753017" lon="11.3992567"><ele>465.0</ele><time>2026-05-02T08:49:53.727Z</time></trkpt><trkpt lat="44.1752467" lon="11.39947"><ele>462.0</ele><time>2026-05-02T08:49:54.727Z</time></trkpt><trkpt lat="44.1751867" lon="11.39969"><ele>461.66666666666663</ele><time>2026-05-02T08:49:55.728Z</time></trkpt><trkpt lat="44.1751217" lon="11.39991"><ele>461.3333333333333</ele><time>2026-05-02T08:49:56.728Z</time></trkpt><trkpt lat="44.17505" lon="11.4001183"><ele>461.0</ele><time>2026-05-02T08:49:57.728Z</time></trkpt><trkpt lat="44.1749733" lon="11.4002967"><ele>461.0</ele><time>2026-05-02T08:49:58.728Z</time></trkpt><trkpt lat="44.1749" lon="11.4004483"><ele>461.0</ele><time>2026-05-02T08:49:59.726Z</time></trkpt><trkpt lat="44.1748367" lon="11.400595"><ele>461.0</ele><time>2026-05-02T08:50:00.729Z</time></trkpt><trkpt lat="44.17479" lon="11.4007533"><ele>461.0</ele><time>2026-05-02T08:50:01.728Z</time></trkpt><trkpt lat="44.174775" lon="11.400935"><ele>457.25</ele><time>2026-05-02T08:50:02.726Z</time></trkpt><trkpt lat="44.1747683" lon="11.4011167"><ele>453.5</ele><time>2026-05-02T08:50:03.727Z</time></trkpt><trkpt lat="44.1747517" lon="11.4012917"><ele>449.75</ele><time>2026-05-02T08:50:04.727Z</time></trkpt><trkpt lat="44.1747017" lon="11.4014517"><ele>446.0</ele><time>2026-05-02T08:50:05.727Z</time></trkpt><trkpt lat="44.1746267" lon="11.4016033"><ele>445.66666666666663</ele><time>2026-05-02T08:50:06.729Z</time></trkpt><trkpt lat="44.1745317" lon="11.4017533"><ele>445.33333333333337</ele><time>2026-05-02T08:50:07.727Z</time></trkpt><trkpt lat="44.1744317" lon="11.4019183"><ele>445.0</ele><time>2026-05-02T08:50:08.73Z</time></trkpt><trkpt lat="44.1743417" lon="11.40211"><ele>445.6666666666667</ele><time>2026-05-02T08:50:09.728Z</time></trkpt><trkpt lat="44.1742583" lon="11.4023167"><ele>446.33333333333337</ele><time>2026-05-02T08:50:10.729Z</time></trkpt><trkpt lat="44.1741717" lon="11.4025217"><ele>447.0</ele><time>2026-05-02T08:50:11.727Z</time></trkpt><trkpt lat="44.174085" lon="11.4027167"><ele>444.5</ele><time>2026-05-02T08:50:12.728Z</time></trkpt><trkpt lat="44.1740017" lon="11.4029017"><ele>442.0</ele><time>2026-05-02T08:50:13.727Z</time></trkpt><trkpt lat="44.1739283" lon="11.40308"><ele>439.5</ele><time>2026-05-02T08:50:14.728Z</time></trkpt><trkpt lat="44.1738617" lon="11.403245"><ele>437.0</ele><time>2026-05-02T08:50:15.728Z</time></trkpt><trkpt lat="44.173805" lon="11.4034"><ele>437.0</ele><time>2026-05-02T08:50:16.728Z</time></trkpt><trkpt lat="44.173765" lon="11.4035633"><ele>437.0</ele><time>2026-05-02T08:50:17.728Z</time></trkpt><trkpt lat="44.1737417" lon="11.4037317"><ele>437.0</ele><time>2026-05-02T08:50:18.729Z</time></trkpt><trkpt lat="44.1737267" lon="11.4039083"><ele>437.0</ele><time>2026-05-02T08:50:19.728Z</time></trkpt><trkpt lat="44.1736983" lon="11.40409"><ele>436.5</ele><time>2026-05-02T08:50:20.728Z</time></trkpt><trkpt lat="44.1736717" lon="11.4042617"><ele>436.0</ele><time>2026-05-02T08:50:21.725Z</time></trkpt><trkpt lat="44.1736317" lon="11.4044183"><ele>435.5</ele><time>2026-05-02T08:50:22.729Z</time></trkpt><trkpt lat="44.17359" lon="11.4045583"><ele>435.0</ele><time>2026-05-02T08:50:23.727Z</time></trkpt><trkpt lat="44.1735367" lon="11.4046767"><ele>435.0</ele><time>2026-05-02T08:50:24.727Z</time></trkpt><trkpt lat="44.173475" lon="11.4047633"><ele>435.0</ele><time>2026-05-02T08:50:25.727Z</time></trkpt><trkpt lat="44.1733983" lon="11.4048267"><ele>435.0</ele><time>2026-05-02T08:50:26.728Z</time></trkpt><trkpt lat="44.17331" lon="11.40487"><ele>435.0</ele><time>2026-05-02T08:50:27.727Z</time></trkpt><trkpt lat="44.17319" lon="11.40487"><ele>435.0</ele><time>2026-05-02T08:50:28.728Z</time></trkpt><trkpt lat="44.1730733" lon="11.4048633"><ele>436.0</ele><time>2026-05-02T08:50:29.727Z</time></trkpt><trkpt lat="44.1729683" lon="11.404885"><ele>437.0</ele><time>2026-05-02T08:50:30.727Z</time></trkpt><trkpt lat="44.1728817" lon="11.4049467"><ele>438.0</ele><time>2026-05-02T08:50:31.727Z</time></trkpt><trkpt lat="44.1727983" lon="11.4050417"><ele>439.0</ele><time>2026-05-02T08:50:32.726Z</time></trkpt><trkpt lat="44.172705" lon="11.4051383"><ele>440.0</ele><time>2026-05-02T08:50:33.727Z</time></trkpt><trkpt lat="44.1725883" lon="11.405215"><ele>440.0</ele><time>2026-05-02T08:50:34.729Z</time></trkpt><trkpt lat="44.17246" lon="11.405285"><ele>440.0</ele><time>2026-05-02T08:50:35.728Z</time></trkpt><trkpt lat="44.17233" lon="11.40538"><ele>440.0</ele><time>2026-05-02T08:50:36.727Z</time></trkpt><trkpt lat="44.1721933" lon="11.4054967"><ele>440.0</ele><time>2026-05-02T08:50:37.726Z</time></trkpt><trkpt lat="44.1720417" lon="11.405625"><ele>443.3333333333333</ele><time>2026-05-02T08:50:38.729Z</time></trkpt><trkpt lat="44.1718933" lon="11.4057433"><ele>446.66666666666663</ele><time>2026-05-02T08:50:39.725Z</time></trkpt><trkpt lat="44.1717567" lon="11.40586"><ele>450.0</ele><time>2026-05-02T08:50:40.726Z</time></trkpt><trkpt lat="44.1716467" lon="11.405985"><ele>450.0</ele><time>2026-05-02T08:50:41.728Z</time></trkpt><trkpt lat="44.1715733" lon="11.4061433"><ele>450.0</ele><time>2026-05-02T08:50:42.728Z</time></trkpt><trkpt lat="44.1715417" lon="11.4063367"><ele>450.0</ele><time>2026-05-02T08:50:43.728Z</time></trkpt><trkpt lat="44.1715433" lon="11.4065533"><ele>450.0</ele><time>2026-05-02T08:50:44.73Z</time></trkpt><trkpt lat="44.171575" lon="11.406785"><ele>449.75</ele><time>2026-05-02T08:50:45.727Z</time></trkpt><trkpt lat="44.1716117" lon="11.4070117"><ele>449.5</ele><time>2026-05-02T08:50:46.727Z</time></trkpt><trkpt lat="44.171635" lon="11.40721"><ele>449.25</ele><time>2026-05-02T08:50:47.729Z</time></trkpt><trkpt lat="44.17163" lon="11.4073917"><ele>449.0</ele><time>2026-05-02T08:50:48.727Z</time></trkpt><trkpt lat="44.1715967" lon="11.4075633"><ele>450.25</ele><time>2026-05-02T08:50:49.728Z</time></trkpt><trkpt lat="44.1715333" lon="11.40772"><ele>451.5</ele><time>2026-05-02T08:50:50.727Z</time></trkpt><trkpt lat="44.171435" lon="11.407845"><ele>452.75</ele><time>2026-05-02T08:50:51.726Z</time></trkpt><trkpt lat="44.1713067" lon="11.4079417"><ele>454.0</ele><time>2026-05-02T08:50:52.727Z</time></trkpt><trkpt lat="44.1711533" lon="11.4080183"><ele>456.6666666666667</ele><time>2026-05-02T08:50:53.727Z</time></trkpt><trkpt lat="44.170995" lon="11.4080867"><ele>459.33333333333337</ele><time>2026-05-02T08:50:54.728Z</time></trkpt><trkpt lat="44.1708483" lon="11.4081567"><ele>462.0</ele><time>2026-05-02T08:50:55.728Z</time></trkpt><trkpt lat="44.1707183" lon="11.408245"><ele>467.0</ele><time>2026-05-02T08:50:56.728Z</time></trkpt><trkpt lat="44.170615" lon="11.4083617"><ele>472.0</ele><time>2026-05-02T08:50:57.727Z</time></trkpt><trkpt lat="44.17054" lon="11.4085117"><ele>477.0</ele><time>2026-05-02T08:50:58.728Z</time></trkpt><trkpt lat="44.1704883" lon="11.408695"><ele>482.0</ele><time>2026-05-02T08:50:59.726Z</time></trkpt><trkpt lat="44.1704433" lon="11.4089133"><ele>482.25</ele><time>2026-05-02T08:51:00.728Z</time></trkpt><trkpt lat="44.17041" lon="11.4091283"><ele>482.5</ele><time>2026-05-02T08:51:01.726Z</time></trkpt><trkpt lat="44.1703933" lon="11.409335"><ele>482.75</ele><time>2026-05-02T08:51:02.728Z</time></trkpt><trkpt lat="44.1703883" lon="11.409515"><ele>483.0</ele><time>2026-05-02T08:51:03.729Z</time></trkpt><trkpt lat="44.17037" lon="11.4096633"><ele>483.0</ele><time>2026-05-02T08:51:04.727Z</time></trkpt><trkpt lat="44.1703267" lon="11.4097883"><ele>483.0</ele><time>2026-05-02T08:51:05.727Z</time></trkpt><trkpt lat="44.1702517" lon="11.4099067"><ele>483.0</ele><time>2026-05-02T08:51:06.728Z</time></trkpt><trkpt lat="44.1701483" lon="11.4100217"><ele>483.0</ele><time>2026-05-02T08:51:07.726Z</time></trkpt><trkpt lat="44.1700283" lon="11.4101383"><ele>483.0</ele><time>2026-05-02T08:51:08.727Z</time></trkpt><trkpt lat="44.169895" lon="11.4102433"><ele>483.0</ele><time>2026-05-02T08:51:09.725Z</time></trkpt><trkpt lat="44.16976" lon="11.410335"><ele>483.0</ele><time>2026-05-02T08:51:10.728Z</time></trkpt><trkpt lat="44.169605" lon="11.4103967"><ele>480.33333333333337</ele><time>2026-05-02T08:51:11.728Z</time></trkpt><trkpt lat="44.169435" lon="11.410425"><ele>477.6666666666667</ele><time>2026-05-02T08:51:12.726Z</time></trkpt><trkpt lat="44.1692583" lon="11.410445"><ele>475.0</ele><time>2026-05-02T08:51:13.728Z</time></trkpt><trkpt lat="44.1690883" lon="11.4104917"><ele>480.0</ele><time>2026-05-02T08:51:14.728Z</time></trkpt><trkpt lat="44.1689283" lon="11.410555"><ele>485.0</ele><time>2026-05-02T08:51:15.728Z</time></trkpt><trkpt lat="44.168775" lon="11.410625"><ele>490.0</ele><time>2026-05-02T08:51:16.727Z</time></trkpt><trkpt lat="44.168625" lon="11.410705"><ele>490.0</ele><time>2026-05-02T08:51:17.728Z</time></trkpt><trkpt lat="44.1684867" lon="11.4107783"><ele>490.0</ele><time>2026-05-02T08:51:18.727Z</time></trkpt><trkpt lat="44.1683683" lon="11.4108183"><ele>490.0</ele><time>2026-05-02T08:51:19.728Z</time></trkpt><trkpt lat="44.1682733" lon="11.4108217"><ele>490.0</ele><time>2026-05-02T08:51:20.728Z</time></trkpt><trkpt lat="44.1682017" lon="11.4107833"><ele>490.0</ele><time>2026-05-02T08:51:21.726Z</time></trkpt><trkpt lat="44.1681633" lon="11.41071"><ele>490.0</ele><time>2026-05-02T08:51:22.727Z</time></trkpt><trkpt lat="44.1681517" lon="11.41062"><ele>490.0</ele><time>2026-05-02T08:51:23.727Z</time></trkpt><trkpt lat="44.1682233" lon="11.4104983"><ele>490.0</ele><time>2026-05-02T08:51:24.728Z</time></trkpt><trkpt lat="44.1683183" lon="11.4103917"><ele>490.0</ele><time>2026-05-02T08:51:25.727Z</time></trkpt><trkpt lat="44.1684533" lon="11.410285"><ele>494.33333333333337</ele><time>2026-05-02T08:51:26.729Z</time></trkpt><trkpt lat="44.1686033" lon="11.4101733"><ele>498.66666666666663</ele><time>2026-05-02T08:51:27.729Z</time></trkpt><trkpt lat="44.1687517" lon="11.4100417"><ele>503.0</ele><time>2026-05-02T08:51:28.726Z</time></trkpt><trkpt lat="44.1689033" lon="11.4098933"><ele>504.3333333333333</ele><time>2026-05-02T08:51:29.727Z</time></trkpt><trkpt lat="44.1690533" lon="11.4097417"><ele>505.66666666666663</ele><time>2026-05-02T08:51:30.728Z</time></trkpt><trkpt lat="44.169195" lon="11.4096033"><ele>507.0</ele><time>2026-05-02T08:51:31.728Z</time></trkpt><trkpt lat="44.16932" lon="11.40948"><ele>507.0</ele><time>2026-05-02T08:51:32.728Z</time></trkpt><trkpt lat="44.169425" lon="11.409345"><ele>507.0</ele><time>2026-05-02T08:51:33.728Z</time></trkpt><trkpt lat="44.169505" lon="11.4091817"><ele>507.0</ele><time>2026-05-02T08:51:34.728Z</time></trkpt><trkpt lat="44.16954" lon="11.4089933"><ele>507.0</ele><time>2026-05-02T08:51:35.728Z</time></trkpt><trkpt lat="44.1695383" lon="11.4087817"><ele>508.0</ele><time>2026-05-02T08:51:36.728Z</time></trkpt><trkpt lat="44.169505" lon="11.4085433"><ele>509.0</ele><time>2026-05-02T08:51:37.729Z</time></trkpt><trkpt lat="44.16947" lon="11.4082833"><ele>510.0</ele><time>2026-05-02T08:51:38.726Z</time></trkpt><trkpt lat="44.1694417" lon="11.4080117"><ele>510.0</ele><time>2026-05-02T08:51:39.727Z</time></trkpt><trkpt lat="44.1694133" lon="11.4077317"><ele>510.0</ele><time>2026-05-02T08:51:40.728Z</time></trkpt><trkpt lat="44.1693883" lon="11.40744"><ele>510.0</ele><time>2026-05-02T08:51:41.726Z</time></trkpt><trkpt lat="44.169365" lon="11.4071517"><ele>510.66666666666663</ele><time>2026-05-02T08:51:42.727Z</time></trkpt><trkpt lat="44.1693417" lon="11.4068683"><ele>511.3333333333333</ele><time>2026-05-02T08:51:43.728Z</time></trkpt><trkpt lat="44.1693167" lon="11.406605"><ele>512.0</ele><time>2026-05-02T08:51:44.728Z</time></trkpt><trkpt lat="44.169295" lon="11.4063717"><ele>512.25</ele><time>2026-05-02T08:51:45.728Z</time></trkpt><trkpt lat="44.169265" lon="11.4061683"><ele>512.5</ele><time>2026-05-02T08:51:46.728Z</time></trkpt><trkpt lat="44.1692167" lon="11.40598"><ele>512.75</ele><time>2026-05-02T08:51:47.729Z</time></trkpt><trkpt lat="44.1691233" lon="11.40582"><ele>513.0</ele><time>2026-05-02T08:51:48.728Z</time></trkpt><trkpt lat="44.1689917" lon="11.405695"><ele>521.0</ele><time>2026-05-02T08:51:49.728Z</time></trkpt><trkpt lat="44.1688417" lon="11.4055683"><ele>529.0</ele><time>2026-05-02T08:51:50.727Z</time></trkpt><trkpt lat="44.16869" lon="11.4054367"><ele>537.0</ele><time>2026-05-02T08:51:51.728Z</time></trkpt><trkpt lat="44.1685617" lon="11.4052833"><ele>537.0</ele><time>2026-05-02T08:51:52.726Z</time></trkpt><trkpt lat="44.1684667" lon="11.4051033"><ele>537.0</ele><time>2026-05-02T08:51:53.727Z</time></trkpt><trkpt lat="44.1684" lon="11.4049167"><ele>537.0</ele><time>2026-05-02T08:51:54.727Z</time></trkpt><trkpt lat="44.1683817" lon="11.404735"><ele>537.0</ele><time>2026-05-02T08:51:55.728Z</time></trkpt><trkpt lat="44.168405" lon="11.40455"><ele>536.0</ele><time>2026-05-02T08:51:56.727Z</time></trkpt><trkpt lat="44.1684533" lon="11.4043733"><ele>535.0</ele><time>2026-05-02T08:51:57.728Z</time></trkpt><trkpt lat="44.1684983" lon="11.4042133"><ele>534.0</ele><time>2026-05-02T08:51:58.726Z</time></trkpt><trkpt lat="44.1685033" lon="11.4040567"><ele>533.0</ele><time>2026-05-02T08:51:59.727Z</time></trkpt><trkpt lat="44.168465" lon="11.4039033"><ele>533.0</ele><time>2026-05-02T08:52:00.729Z</time></trkpt><trkpt lat="44.1683867" lon="11.4037583"><ele>533.0</ele><time>2026-05-02T08:52:01.727Z</time></trkpt><trkpt lat="44.1683083" lon="11.4036183"><ele>533.0</ele><time>2026-05-02T08:52:02.729Z</time></trkpt><trkpt lat="44.168265" lon="11.4034683"><ele>533.0</ele><time>2026-05-02T08:52:03.729Z</time></trkpt><trkpt lat="44.168245" lon="11.40331"><ele>533.0</ele><time>2026-05-02T08:52:04.728Z</time></trkpt><trkpt lat="44.1682283" lon="11.4031683"><ele>533.0</ele><time>2026-05-02T08:52:05.727Z</time></trkpt><trkpt lat="44.1681833" lon="11.40304"><ele>533.0</ele><time>2026-05-02T08:52:06.727Z</time></trkpt><trkpt lat="44.1681067" lon="11.40292"><ele>533.0</ele><time>2026-05-02T08:52:07.728Z</time></trkpt><trkpt lat="44.1680133" lon="11.4027967"><ele>533.0</ele><time>2026-05-02T08:52:08.728Z</time></trkpt><trkpt lat="44.16793" lon="11.4026567"><ele>537.25</ele><time>2026-05-02T08:52:09.728Z</time></trkpt><trkpt lat="44.1678683" lon="11.40248"><ele>541.5</ele><time>2026-05-02T08:52:10.728Z</time></trkpt><trkpt lat="44.167825" lon="11.4022783"><ele>545.75</ele><time>2026-05-02T08:52:11.727Z</time></trkpt><trkpt lat="44.1677917" lon="11.40208"><ele>550.0</ele><time>2026-05-02T08:52:12.726Z</time></trkpt><trkpt lat="44.1677683" lon="11.4019117"><ele>550.2</ele><time>2026-05-02T08:52:13.727Z</time></trkpt><trkpt lat="44.1677233" lon="11.4017667"><ele>550.4</ele><time>2026-05-02T08:52:14.729Z</time></trkpt><trkpt lat="44.1676433" lon="11.4016517"><ele>550.6</ele><time>2026-05-02T08:52:15.729Z</time></trkpt><trkpt lat="44.1675383" lon="11.401585"><ele>550.8</ele><time>2026-05-02T08:52:16.728Z</time></trkpt><trkpt lat="44.1674333" lon="11.4015667"><ele>551.0</ele><time>2026-05-02T08:52:17.729Z</time></trkpt><trkpt lat="44.16733" lon="11.4016283"><ele>555.25</ele><time>2026-05-02T08:52:18.726Z</time></trkpt><trkpt lat="44.16725" lon="11.4017433"><ele>559.5</ele><time>2026-05-02T08:52:19.727Z</time></trkpt><trkpt lat="44.1672167" lon="11.40192"><ele>563.75</ele><time>2026-05-02T08:52:20.729Z</time></trkpt><trkpt lat="44.1672083" lon="11.4021317"><ele>568.0</ele><time>2026-05-02T08:52:21.725Z</time></trkpt><trkpt lat="44.16721" lon="11.4023667"><ele>570.0</ele><time>2026-05-02T08:52:22.727Z</time></trkpt><trkpt lat="44.1672033" lon="11.4026167"><ele>572.0</ele><time>2026-05-02T08:52:23.728Z</time></trkpt><trkpt lat="44.1671883" lon="11.4028683"><ele>574.0</ele><time>2026-05-02T08:52:24.726Z</time></trkpt><trkpt lat="44.1671583" lon="11.40311"><ele>574.0</ele><time>2026-05-02T08:52:25.727Z</time></trkpt><trkpt lat="44.1671217" lon="11.4033383"><ele>574.0</ele><time>2026-05-02T08:52:26.728Z</time></trkpt><trkpt lat="44.1670867" lon="11.40352"><ele>574.0</ele><time>2026-05-02T08:52:27.727Z</time></trkpt><trkpt lat="44.16705" lon="11.40365"><ele>574.0</ele><time>2026-05-02T08:52:28.728Z</time></trkpt><trkpt lat="44.1669933" lon="11.403745"><ele>574.0</ele><time>2026-05-02T08:52:29.729Z</time></trkpt><trkpt lat="44.1669167" lon="11.4038033"><ele>574.0</ele><time>2026-05-02T08:52:30.726Z</time></trkpt><trkpt lat="44.1668217" lon="11.403765"><ele>574.0</ele><time>2026-05-02T08:52:31.728Z</time></trkpt><trkpt lat="44.1667533" lon="11.403675"><ele>574.0</ele><time>2026-05-02T08:52:32.729Z</time></trkpt><trkpt lat="44.1667117" lon="11.4035333"><ele>574.0</ele><time>2026-05-02T08:52:33.726Z</time></trkpt><trkpt lat="44.1667017" lon="11.4033483"><ele>574.0</ele><time>2026-05-02T08:52:34.728Z</time></trkpt><trkpt lat="44.1666983" lon="11.403155"><ele>574.0</ele><time>2026-05-02T08:52:35.727Z</time></trkpt><trkpt lat="44.1666883" lon="11.4029717"><ele>574.0</ele><time>2026-05-02T08:52:36.729Z</time></trkpt><trkpt lat="44.1666533" lon="11.4027967"><ele>574.0</ele><time>2026-05-02T08:52:37.729Z</time></trkpt><trkpt lat="44.16657" lon="11.4026317"><ele>579.5</ele><time>2026-05-02T08:52:38.727Z</time></trkpt><trkpt lat="44.1664933" lon="11.4024633"><ele>585.0</ele><time>2026-05-02T08:52:39.727Z</time></trkpt><trkpt lat="44.16643" lon="11.402275"><ele>590.5</ele><time>2026-05-02T08:52:40.727Z</time></trkpt><trkpt lat="44.166395" lon="11.402095"><ele>596.0</ele><time>2026-05-02T08:52:41.727Z</time></trkpt><trkpt lat="44.1663667" lon="11.4019267"><ele>596.0</ele><time>2026-05-02T08:52:42.727Z</time></trkpt><trkpt lat="44.166325" lon="11.401765"><ele>596.0</ele><time>2026-05-02T08:52:43.727Z</time></trkpt><trkpt lat="44.1662467" lon="11.4016167"><ele>596.0</ele><time>2026-05-02T08:52:44.729Z</time></trkpt><trkpt lat="44.16614" lon="11.4014917"><ele>596.0</ele><time>2026-05-02T08:52:45.728Z</time></trkpt><trkpt lat="44.1660067" lon="11.4013733"><ele>592.3333333333333</ele><time>2026-05-02T08:52:46.729Z</time></trkpt><trkpt lat="44.165855" lon="11.4012667"><ele>588.6666666666666</ele><time>2026-05-02T08:52:47.727Z</time></trkpt><trkpt lat="44.1657017" lon="11.40116"><ele>585.0</ele><time>2026-05-02T08:52:48.728Z</time></trkpt><trkpt lat="44.1655383" lon="11.4010783"><ele>592.3333333333334</ele><time>2026-05-02T08:52:49.729Z</time></trkpt><trkpt lat="44.16538" lon="11.401005"><ele>599.6666666666667</ele><time>2026-05-02T08:52:50.729Z</time></trkpt><trkpt lat="44.1652233" lon="11.4009067"><ele>607.0</ele><time>2026-05-02T08:52:51.727Z</time></trkpt><trkpt lat="44.165065" lon="11.400785"><ele>607.0</ele><time>2026-05-02T08:52:52.727Z</time></trkpt><trkpt lat="44.1649133" lon="11.4006417"><ele>607.0</ele><time>2026-05-02T08:52:53.727Z</time></trkpt><trkpt lat="44.1647617" lon="11.4004783"><ele>607.0</ele><time>2026-05-02T08:52:54.726Z</time></trkpt><trkpt lat="44.1646267" lon="11.4002983"><ele>613.3333333333334</ele><time>2026-05-02T08:52:55.728Z</time></trkpt><trkpt lat="44.164495" lon="11.400115"><ele>619.6666666666666</ele><time>2026-05-02T08:52:56.73Z</time></trkpt><trkpt lat="44.1643583" lon="11.39994"><ele>626.0</ele><time>2026-05-02T08:52:57.728Z</time></trkpt><trkpt lat="44.1642117" lon="11.3997767"><ele>625.6666666666666</ele><time>2026-05-02T08:52:58.726Z</time></trkpt><trkpt lat="44.1640567" lon="11.3996233"><ele>625.3333333333334</ele><time>2026-05-02T08:52:59.728Z</time></trkpt><trkpt lat="44.163895" lon="11.39949"><ele>625.0</ele><time>2026-05-02T08:53:00.729Z</time></trkpt><trkpt lat="44.163735" lon="11.399375"><ele>625.0</ele><time>2026-05-02T08:53:01.728Z</time></trkpt><trkpt lat="44.16357" lon="11.3992867"><ele>625.0</ele><time>2026-05-02T08:53:02.728Z</time></trkpt><trkpt lat="44.1634033" lon="11.39923"><ele>625.0</ele><time>2026-05-02T08:53:03.728Z</time></trkpt><trkpt lat="44.16323" lon="11.3992167"><ele>631.3333333333334</ele><time>2026-05-02T08:53:04.728Z</time></trkpt><trkpt lat="44.1630583" lon="11.399225"><ele>637.6666666666666</ele><time>2026-05-02T08:53:05.728Z</time></trkpt><trkpt lat="44.1628817" lon="11.3992267"><ele>644.0</ele><time>2026-05-02T08:53:06.728Z</time></trkpt><trkpt lat="44.16271" lon="11.3991967"><ele>644.0</ele><time>2026-05-02T08:53:07.728Z</time></trkpt><trkpt lat="44.16254" lon="11.39912"><ele>644.0</ele><time>2026-05-02T08:53:08.73Z</time></trkpt><trkpt lat="44.162365" lon="11.3990167"><ele>644.0</ele><time>2026-05-02T08:53:09.728Z</time></trkpt><trkpt lat="44.16219" lon="11.3988983"><ele>643.3333333333333</ele><time>2026-05-02T08:53:10.727Z</time></trkpt><trkpt lat="44.162015" lon="11.3987733"><ele>642.6666666666666</ele><time>2026-05-02T08:53:11.728Z</time></trkpt><trkpt lat="44.1618433" lon="11.3986433"><ele>642.0</ele><time>2026-05-02T08:53:12.728Z</time></trkpt><trkpt lat="44.161685" lon="11.3985233"><ele>642.0</ele><time>2026-05-02T08:53:13.727Z</time></trkpt><trkpt lat="44.1615417" lon="11.3984133"><ele>642.0</ele><time>2026-05-02T08:53:14.727Z</time></trkpt><trkpt lat="44.1614033" lon="11.398325"><ele>642.0</ele><time>2026-05-02T08:53:15.729Z</time></trkpt><trkpt lat="44.1612633" lon="11.3982783"><ele>646.3333333333334</ele><time>2026-05-02T08:53:16.727Z</time></trkpt><trkpt lat="44.1611033" lon="11.3982933"><ele>650.6666666666667</ele><time>2026-05-02T08:53:17.728Z</time></trkpt><trkpt lat="44.1609283" lon="11.3983317"><ele>655.0</ele><time>2026-05-02T08:53:18.728Z</time></trkpt><trkpt lat="44.160745" lon="11.3983667"><ele>659.0</ele><time>2026-05-02T08:53:19.729Z</time></trkpt><trkpt lat="44.1605633" lon="11.3983867"><ele>663.0</ele><time>2026-05-02T08:53:20.729Z</time></trkpt><trkpt lat="44.160405" lon="11.3983867"><ele>667.0</ele><time>2026-05-02T08:53:21.729Z</time></trkpt><trkpt lat="44.1602683" lon="11.3983567"><ele>667.0</ele><time>2026-05-02T08:53:22.727Z</time></trkpt><trkpt lat="44.1601583" lon="11.39829"><ele>667.0</ele><time>2026-05-02T08:53:23.727Z</time></trkpt><trkpt lat="44.1600717" lon="11.398165"><ele>667.0</ele><time>2026-05-02T08:53:24.726Z</time></trkpt><trkpt lat="44.16001" lon="11.397995"><ele>667.0</ele><time>2026-05-02T08:53:25.728Z</time></trkpt><trkpt lat="44.1599717" lon="11.3977817"><ele>667.0</ele><time>2026-05-02T08:53:26.729Z</time></trkpt><trkpt lat="44.159915" lon="11.3975533"><ele>667.0</ele><time>2026-05-02T08:53:27.726Z</time></trkpt><trkpt lat="44.1598383" lon="11.3973117"><ele>667.0</ele><time>2026-05-02T08:53:28.728Z</time></trkpt><trkpt lat="44.159755" lon="11.3970583"><ele>670.0</ele><time>2026-05-02T08:53:29.729Z</time></trkpt><trkpt lat="44.1596733" lon="11.3968033"><ele>673.0</ele><time>2026-05-02T08:53:30.728Z</time></trkpt><trkpt lat="44.1595917" lon="11.3965567"><ele>676.0</ele><time>2026-05-02T08:53:31.729Z</time></trkpt><trkpt lat="44.1595" lon="11.3963367"><ele>677.3333333333334</ele><time>2026-05-02T08:53:32.728Z</time></trkpt><trkpt lat="44.1593833" lon="11.39613"><ele>678.6666666666666</ele><time>2026-05-02T08:53:33.727Z</time></trkpt><trkpt lat="44.1592467" lon="11.3959417"><ele>680.0</ele><time>2026-05-02T08:53:34.729Z</time></trkpt><trkpt lat="44.1590983" lon="11.3957517"><ele>682.3333333333333</ele><time>2026-05-02T08:53:35.728Z</time></trkpt><trkpt lat="44.1589533" lon="11.3955667"><ele>684.6666666666666</ele><time>2026-05-02T08:53:36.726Z</time></trkpt><trkpt lat="44.1588267" lon="11.3954017"><ele>687.0</ele><time>2026-05-02T08:53:37.727Z</time></trkpt><trkpt lat="44.1587283" lon="11.395255"><ele>687.0</ele><time>2026-05-02T08:53:38.727Z</time></trkpt><trkpt lat="44.1586767" lon="11.3950967"><ele>687.0</ele><time>2026-05-02T08:53:39.727Z</time></trkpt><trkpt lat="44.1586733" lon="11.3949383"><ele>687.0</ele><time>2026-05-02T08:53:40.728Z</time></trkpt><trkpt lat="44.1587167" lon="11.3947967"><ele>687.0</ele><time>2026-05-02T08:53:41.727Z</time></trkpt><trkpt lat="44.1587967" lon="11.39467"><ele>689.2</ele><time>2026-05-02T08:53:42.728Z</time></trkpt><trkpt lat="44.1588717" lon="11.3945567"><ele>691.4000000000001</ele><time>2026-05-02T08:53:43.728Z</time></trkpt><trkpt lat="44.158915" lon="11.3944267"><ele>693.5999999999999</ele><time>2026-05-02T08:53:44.728Z</time></trkpt><trkpt lat="44.1589133" lon="11.394295"><ele>695.8</ele><time>2026-05-02T08:53:45.727Z</time></trkpt><trkpt lat="44.15885" lon="11.3941967"><ele>698.0</ele><time>2026-05-02T08:53:46.727Z</time></trkpt><trkpt lat="44.1587383" lon="11.39415"><ele>698.0</ele><time>2026-05-02T08:53:47.728Z</time></trkpt><trkpt lat="44.1586167" lon="11.3941667"><ele>698.0</ele><time>2026-05-02T08:53:48.728Z</time></trkpt><trkpt lat="44.15849" lon="11.3941767"><ele>698.0</ele><time>2026-05-02T08:53:49.729Z</time></trkpt><trkpt lat="44.1583717" lon="11.3941233"><ele>698.0</ele><time>2026-05-02T08:53:50.729Z</time></trkpt><trkpt lat="44.1582717" lon="11.3939983"><ele>695.25</ele><time>2026-05-02T08:53:51.727Z</time></trkpt><trkpt lat="44.1581967" lon="11.3938383"><ele>692.5</ele><time>2026-05-02T08:53:52.729Z</time></trkpt><trkpt lat="44.158155" lon="11.3936583"><ele>689.75</ele><time>2026-05-02T08:53:53.728Z</time></trkpt><trkpt lat="44.1581517" lon="11.393455"><ele>687.0</ele><time>2026-05-02T08:53:54.728Z</time></trkpt><trkpt lat="44.1581767" lon="11.3932233"><ele>695.0</ele><time>2026-05-02T08:53:55.728Z</time></trkpt><trkpt lat="44.1582017" lon="11.3929583"><ele>703.0</ele><time>2026-05-02T08:53:56.728Z</time></trkpt><trkpt lat="44.158215" lon="11.392695"><ele>711.0</ele><time>2026-05-02T08:53:57.728Z</time></trkpt><trkpt lat="44.1582367" lon="11.3924533"><ele>711.0</ele><time>2026-05-02T08:53:58.729Z</time></trkpt><trkpt lat="44.1582817" lon="11.3922233"><ele>711.0</ele><time>2026-05-02T08:53:59.728Z</time></trkpt><trkpt lat="44.1583417" lon="11.3920083"><ele>711.0</ele><time>2026-05-02T08:54:00.728Z</time></trkpt><trkpt lat="44.1584017" lon="11.391835"><ele>711.4</ele><time>2026-05-02T08:54:01.728Z</time></trkpt><trkpt lat="44.1584667" lon="11.3917083"><ele>711.8</ele><time>2026-05-02T08:54:02.728Z</time></trkpt><trkpt lat="44.1585617" lon="11.39163"><ele>712.1999999999999</ele><time>2026-05-02T08:54:03.727Z</time></trkpt><trkpt lat="44.158665" lon="11.3915667"><ele>712.5999999999999</ele><time>2026-05-02T08:54:04.728Z</time></trkpt><trkpt lat="44.158755" lon="11.391475"><ele>713.0</ele><time>2026-05-02T08:54:05.728Z</time></trkpt><trkpt lat="44.15882" lon="11.3913367"><ele>716.6666666666666</ele><time>2026-05-02T08:54:06.728Z</time></trkpt><trkpt lat="44.1588733" lon="11.391175"><ele>720.3333333333334</ele><time>2026-05-02T08:54:07.729Z</time></trkpt><trkpt lat="44.1589133" lon="11.39094"><ele>724.0</ele><time>2026-05-02T08:54:08.728Z</time></trkpt><trkpt lat="44.1589533" lon="11.3906983"><ele>725.75</ele><time>2026-05-02T08:54:09.727Z</time></trkpt><trkpt lat="44.1590017" lon="11.3904683"><ele>727.5</ele><time>2026-05-02T08:54:10.728Z</time></trkpt><trkpt lat="44.159065" lon="11.39029"><ele>729.25</ele><time>2026-05-02T08:54:11.729Z</time></trkpt><trkpt lat="44.15913" lon="11.390145"><ele>731.0</ele><time>2026-05-02T08:54:12.728Z</time></trkpt><trkpt lat="44.1591733" lon="11.3900067"><ele>731.75</ele><time>2026-05-02T08:54:13.727Z</time></trkpt><trkpt lat="44.1591767" lon="11.3898433"><ele>732.5</ele><time>2026-05-02T08:54:14.728Z</time></trkpt><trkpt lat="44.1591533" lon="11.3896667"><ele>733.25</ele><time>2026-05-02T08:54:15.729Z</time></trkpt><trkpt lat="44.1590933" lon="11.3894933"><ele>734.0</ele><time>2026-05-02T08:54:16.728Z</time></trkpt><trkpt lat="44.1590017" lon="11.3893417"><ele>735.75</ele><time>2026-05-02T08:54:17.726Z</time></trkpt><trkpt lat="44.1588833" lon="11.3892117"><ele>737.5</ele><time>2026-05-02T08:54:18.727Z</time></trkpt><trkpt lat="44.1587617" lon="11.38909"><ele>739.25</ele><time>2026-05-02T08:54:19.727Z</time></trkpt><trkpt lat="44.1586517" lon="11.388975"><ele>741.0</ele><time>2026-05-02T08:54:20.728Z</time></trkpt><trkpt lat="44.1585517" lon="11.3888667"><ele>741.4</ele><time>2026-05-02T08:54:21.727Z</time></trkpt><trkpt lat="44.1584683" lon="11.3887783"><ele>741.8</ele><time>2026-05-02T08:54:22.727Z</time></trkpt><trkpt lat="44.15839" lon="11.3887017"><ele>742.1999999999999</ele><time>2026-05-02T08:54:23.729Z</time></trkpt><trkpt lat="44.1583067" lon="11.3886483"><ele>742.5999999999999</ele><time>2026-05-02T08:54:24.728Z</time></trkpt><trkpt lat="44.1582117" lon="11.38862"><ele>743.0</ele><time>2026-05-02T08:54:25.729Z</time></trkpt><trkpt lat="44.1581067" lon="11.388585"><ele>743.0</ele><time>2026-05-02T08:54:26.728Z</time></trkpt><trkpt lat="44.1580033" lon="11.388525"><ele>743.0</ele><time>2026-05-02T08:54:27.727Z</time></trkpt><trkpt lat="44.1579" lon="11.38844"><ele>743.0</ele><time>2026-05-02T08:54:28.728Z</time></trkpt><trkpt lat="44.15779" lon="11.3883267"><ele>743.0</ele><time>2026-05-02T08:54:29.729Z</time></trkpt><trkpt lat="44.1576667" lon="11.3882"><ele>743.0</ele><time>2026-05-02T08:54:30.728Z</time></trkpt><trkpt lat="44.15753" lon="11.3880633"><ele>743.0</ele><time>2026-05-02T08:54:31.729Z</time></trkpt><trkpt lat="44.1573867" lon="11.387925"><ele>743.0</ele><time>2026-05-02T08:54:32.729Z</time></trkpt><trkpt lat="44.1572317" lon="11.387785"><ele>743.0</ele><time>2026-05-02T08:54:33.729Z</time></trkpt><trkpt lat="44.1570683" lon="11.3876433"><ele>743.0</ele><time>2026-05-02T08:54:34.727Z</time></trkpt><trkpt lat="44.1569067" lon="11.38748"><ele>743.0</ele><time>2026-05-02T08:54:35.729Z</time></trkpt><trkpt lat="44.156745" lon="11.3873"><ele>742.3333333333333</ele><time>2026-05-02T08:54:36.727Z</time></trkpt><trkpt lat="44.1565817" lon="11.3871217"><ele>741.6666666666666</ele><time>2026-05-02T08:54:37.728Z</time></trkpt><trkpt lat="44.1564217" lon="11.38694"><ele>741.0</ele><time>2026-05-02T08:54:38.728Z</time></trkpt><trkpt lat="44.156265" lon="11.3867683"><ele>741.0</ele><time>2026-05-02T08:54:39.728Z</time></trkpt><trkpt lat="44.156115" lon="11.386605"><ele>741.0</ele><time>2026-05-02T08:54:40.728Z</time></trkpt><trkpt lat="44.1559667" lon="11.3864583"><ele>741.0</ele><time>2026-05-02T08:54:41.727Z</time></trkpt><trkpt lat="44.1558167" lon="11.38632"><ele>743.6666666666666</ele><time>2026-05-02T08:54:42.729Z</time></trkpt><trkpt lat="44.155665" lon="11.3862117"><ele>746.3333333333333</ele><time>2026-05-02T08:54:43.728Z</time></trkpt><trkpt lat="44.1554983" lon="11.3861283"><ele>749.0</ele><time>2026-05-02T08:54:44.728Z</time></trkpt><trkpt lat="44.1553283" lon="11.3860733"><ele>749.0</ele><time>2026-05-02T08:54:45.727Z</time></trkpt><trkpt lat="44.1551467" lon="11.3860367"><ele>749.0</ele><time>2026-05-02T08:54:46.728Z</time></trkpt><trkpt lat="44.1549567" lon="11.3859783"><ele>749.0</ele><time>2026-05-02T08:54:47.727Z</time></trkpt><trkpt lat="44.15477" lon="11.3859333"><ele>748.6666666666666</ele><time>2026-05-02T08:54:48.728Z</time></trkpt><trkpt lat="44.1545867" lon="11.3858833"><ele>748.3333333333334</ele><time>2026-05-02T08:54:49.729Z</time></trkpt><trkpt lat="44.1544133" lon="11.3857983"><ele>748.0</ele><time>2026-05-02T08:54:50.728Z</time></trkpt><trkpt lat="44.154245" lon="11.385695"><ele>748.0</ele><time>2026-05-02T08:54:51.727Z</time></trkpt><trkpt lat="44.15409" lon="11.3856033"><ele>748.0</ele><time>2026-05-02T08:54:52.727Z</time></trkpt><trkpt lat="44.1539467" lon="11.3855167"><ele>748.0</ele><time>2026-05-02T08:54:53.728Z</time></trkpt><trkpt lat="44.1538133" lon="11.38545"><ele>749.0</ele><time>2026-05-02T08:54:54.728Z</time></trkpt><trkpt lat="44.1536783" lon="11.3854117"><ele>750.0</ele><time>2026-05-02T08:54:55.727Z</time></trkpt><trkpt lat="44.15353" lon="11.3854117"><ele>751.0</ele><time>2026-05-02T08:54:56.728Z</time></trkpt><trkpt lat="44.1533683" lon="11.3854417"><ele>752.0</ele><time>2026-05-02T08:54:57.728Z</time></trkpt><trkpt lat="44.1532067" lon="11.38548"><ele>750.5</ele><time>2026-05-02T08:54:58.727Z</time></trkpt><trkpt lat="44.15305" lon="11.3855117"><ele>749.0</ele><time>2026-05-02T08:54:59.728Z</time></trkpt><trkpt lat="44.152905" lon="11.3855383"><ele>747.5</ele><time>2026-05-02T08:55:00.728Z</time></trkpt><trkpt lat="44.1527667" lon="11.3855667"><ele>746.0</ele><time>2026-05-02T08:55:01.727Z</time></trkpt><trkpt lat="44.1526283" lon="11.3855917"><ele>746.0</ele><time>2026-05-02T08:55:02.728Z</time></trkpt><trkpt lat="44.152485" lon="11.3855967"><ele>746.0</ele><time>2026-05-02T08:55:03.729Z</time></trkpt><trkpt lat="44.1523417" lon="11.38558"><ele>746.0</ele><time>2026-05-02T08:55:04.728Z</time></trkpt><trkpt lat="44.1521983" lon="11.3855483"><ele>746.0</ele><time>2026-05-02T08:55:05.727Z</time></trkpt><trkpt lat="44.1520417" lon="11.38551"><ele>741.6666666666666</ele><time>2026-05-02T08:55:06.729Z</time></trkpt><trkpt lat="44.151875" lon="11.38546"><ele>737.3333333333334</ele><time>2026-05-02T08:55:07.727Z</time></trkpt><trkpt lat="44.1517067" lon="11.3854067"><ele>733.0</ele><time>2026-05-02T08:55:08.73Z</time></trkpt><trkpt lat="44.1515467" lon="11.3853533"><ele>731.5</ele><time>2026-05-02T08:55:09.728Z</time></trkpt><trkpt lat="44.1513983" lon="11.3853117"><ele>730.0</ele><time>2026-05-02T08:55:10.729Z</time></trkpt><trkpt lat="44.151265" lon="11.385285"><ele>728.5</ele><time>2026-05-02T08:55:11.728Z</time></trkpt><trkpt lat="44.15115" lon="11.38524"><ele>727.0</ele><time>2026-05-02T08:55:12.729Z</time></trkpt><trkpt lat="44.1510633" lon="11.38516"><ele>727.0</ele><time>2026-05-02T08:55:13.729Z</time></trkpt><trkpt lat="44.1510167" lon="11.38505"><ele>727.0</ele><time>2026-05-02T08:55:14.729Z</time></trkpt><trkpt lat="44.1510133" lon="11.3849283"><ele>727.0</ele><time>2026-05-02T08:55:15.729Z</time></trkpt><trkpt lat="44.151065" lon="11.38481"><ele>727.0</ele><time>2026-05-02T08:55:16.728Z</time></trkpt><trkpt lat="44.1511667" lon="11.384695"><ele>727.0</ele><time>2026-05-02T08:55:17.727Z</time></trkpt><trkpt lat="44.1512817" lon="11.3845783"><ele>726.75</ele><time>2026-05-02T08:55:18.728Z</time></trkpt><trkpt lat="44.1513933" lon="11.3844583"><ele>726.5</ele><time>2026-05-02T08:55:19.727Z</time></trkpt><trkpt lat="44.1514833" lon="11.3843133"><ele>726.25</ele><time>2026-05-02T08:55:20.727Z</time></trkpt><trkpt lat="44.1515367" lon="11.3841217"><ele>726.0</ele><time>2026-05-02T08:55:21.727Z</time></trkpt><trkpt lat="44.1515617" lon="11.38392"><ele>725.0</ele><time>2026-05-02T08:55:22.727Z</time></trkpt><trkpt lat="44.1515867" lon="11.3837267"><ele>724.0</ele><time>2026-05-02T08:55:23.728Z</time></trkpt><trkpt lat="44.151635" lon="11.3835517"><ele>723.0</ele><time>2026-05-02T08:55:24.729Z</time></trkpt><trkpt lat="44.1517117" lon="11.383395"><ele>722.0</ele><time>2026-05-02T08:55:25.729Z</time></trkpt><trkpt lat="44.15181" lon="11.3832517"><ele>722.0</ele><time>2026-05-02T08:55:26.728Z</time></trkpt><trkpt lat="44.1519183" lon="11.3831133"><ele>722.0</ele><time>2026-05-02T08:55:27.728Z</time></trkpt><trkpt lat="44.1520167" lon="11.3829783"><ele>722.0</ele><time>2026-05-02T08:55:28.728Z</time></trkpt><trkpt lat="44.1520933" lon="11.3828217"><ele>722.0</ele><time>2026-05-02T08:55:29.728Z</time></trkpt><trkpt lat="44.1521483" lon="11.3826483"><ele>719.75</ele><time>2026-05-02T08:55:30.726Z</time></trkpt><trkpt lat="44.1521867" lon="11.382455"><ele>717.5</ele><time>2026-05-02T08:55:31.727Z</time></trkpt><trkpt lat="44.1522183" lon="11.3822667"><ele>715.25</ele><time>2026-05-02T08:55:32.728Z</time></trkpt><trkpt lat="44.1522517" lon="11.3820833"><ele>713.0</ele><time>2026-05-02T08:55:33.727Z</time></trkpt><trkpt lat="44.1522917" lon="11.3819067"><ele>712.0</ele><time>2026-05-02T08:55:34.727Z</time></trkpt><trkpt lat="44.1523417" lon="11.3817317"><ele>711.0</ele><time>2026-05-02T08:55:35.728Z</time></trkpt><trkpt lat="44.15241" lon="11.38156"><ele>710.0</ele><time>2026-05-02T08:55:36.727Z</time></trkpt><trkpt lat="44.1524883" lon="11.38139"><ele>709.0</ele><time>2026-05-02T08:55:37.729Z</time></trkpt><trkpt lat="44.1525567" lon="11.3812117"><ele>709.0</ele><time>2026-05-02T08:55:38.727Z</time></trkpt><trkpt lat="44.152615" lon="11.38104"><ele>709.0</ele><time>2026-05-02T08:55:39.726Z</time></trkpt><trkpt lat="44.1526533" lon="11.3808817"><ele>709.0</ele><time>2026-05-02T08:55:40.727Z</time></trkpt><trkpt lat="44.1526683" lon="11.3807517"><ele>709.0</ele><time>2026-05-02T08:55:41.726Z</time></trkpt><trkpt lat="44.1526667" lon="11.380635"><ele>709.0</ele><time>2026-05-02T08:55:42.727Z</time></trkpt><trkpt lat="44.152625" lon="11.38056"><ele>709.0</ele><time>2026-05-02T08:55:43.73Z</time></trkpt><trkpt lat="44.1525633" lon="11.3805233"><ele>709.0</ele><time>2026-05-02T08:55:44.726Z</time></trkpt><trkpt lat="44.1524967" lon="11.38054"><ele>709.0</ele><time>2026-05-02T08:55:45.728Z</time></trkpt><trkpt lat="44.1524267" lon="11.3806017"><ele>709.0</ele><time>2026-05-02T08:55:46.728Z</time></trkpt><trkpt lat="44.1523633" lon="11.3807533"><ele>709.0</ele><time>2026-05-02T08:55:47.726Z</time></trkpt><trkpt lat="44.1522883" lon="11.3808967"><ele>704.3333333333334</ele><time>2026-05-02T08:55:48.727Z</time></trkpt><trkpt lat="44.15219" lon="11.3810467"><ele>699.6666666666666</ele><time>2026-05-02T08:55:49.729Z</time></trkpt><trkpt lat="44.1520667" lon="11.3811767"><ele>695.0</ele><time>2026-05-02T08:55:50.727Z</time></trkpt><trkpt lat="44.1519233" lon="11.3812817"><ele>693.6666666666666</ele><time>2026-05-02T08:55:51.729Z</time></trkpt><trkpt lat="44.1517667" lon="11.3813733"><ele>692.3333333333334</ele><time>2026-05-02T08:55:52.728Z</time></trkpt><trkpt lat="44.151615" lon="11.38145"><ele>691.0</ele><time>2026-05-02T08:55:53.728Z</time></trkpt><trkpt lat="44.1514683" lon="11.38153"><ele>691.0</ele><time>2026-05-02T08:55:54.728Z</time></trkpt><trkpt lat="44.1513267" lon="11.3816083"><ele>691.0</ele><time>2026-05-02T08:55:55.728Z</time></trkpt><trkpt lat="44.1511883" lon="11.3816867"><ele>691.0</ele><time>2026-05-02T08:55:56.729Z</time></trkpt><trkpt lat="44.15106" lon="11.3817567"><ele>691.0</ele><time>2026-05-02T08:55:57.728Z</time></trkpt><trkpt lat="44.150945" lon="11.3817967"><ele>691.0</ele><time>2026-05-02T08:55:58.726Z</time></trkpt><trkpt lat="44.1508267" lon="11.3817983"><ele>691.0</ele><time>2026-05-02T08:55:59.727Z</time></trkpt><trkpt lat="44.1507267" lon="11.3817567"><ele>691.0</ele><time>2026-05-02T08:56:00.727Z</time></trkpt><trkpt lat="44.1506533" lon="11.3816733"><ele>691.0</ele><time>2026-05-02T08:56:01.728Z</time></trkpt><trkpt lat="44.1505883" lon="11.3815783"><ele>691.0</ele><time>2026-05-02T08:56:02.729Z</time></trkpt><trkpt lat="44.1505533" lon="11.38144"><ele>687.0</ele><time>2026-05-02T08:56:03.726Z</time></trkpt><trkpt lat="44.15055" lon="11.381275"><ele>683.0</ele><time>2026-05-02T08:56:04.727Z</time></trkpt><trkpt lat="44.1505733" lon="11.3810883"><ele>679.0</ele><time>2026-05-02T08:56:05.728Z</time></trkpt><trkpt lat="44.1506" lon="11.380895"><ele>675.0</ele><time>2026-05-02T08:56:06.729Z</time></trkpt><trkpt lat="44.150625" lon="11.3806983"><ele>674.0</ele><time>2026-05-02T08:56:07.728Z</time></trkpt><trkpt lat="44.150645" lon="11.3805133"><ele>673.0</ele><time>2026-05-02T08:56:08.727Z</time></trkpt><trkpt lat="44.15065" lon="11.3803417"><ele>672.0</ele><time>2026-05-02T08:56:09.728Z</time></trkpt><trkpt lat="44.1506283" lon="11.38019"><ele>671.0</ele><time>2026-05-02T08:56:10.727Z</time></trkpt><trkpt lat="44.1505817" lon="11.380065"><ele>671.0</ele><time>2026-05-02T08:56:11.728Z</time></trkpt><trkpt lat="44.1505117" lon="11.3799867"><ele>671.0</ele><time>2026-05-02T08:56:12.728Z</time></trkpt><trkpt lat="44.1504067" lon="11.3799917"><ele>671.0</ele><time>2026-05-02T08:56:13.727Z</time></trkpt><trkpt lat="44.1503133" lon="11.3800333"><ele>671.0</ele><time>2026-05-02T08:56:14.728Z</time></trkpt><trkpt lat="44.1502283" lon="11.3801517"><ele>671.0</ele><time>2026-05-02T08:56:15.728Z</time></trkpt><trkpt lat="44.150165" lon="11.3803033"><ele>671.0</ele><time>2026-05-02T08:56:16.727Z</time></trkpt><trkpt lat="44.1501067" lon="11.3804583"><ele>671.0</ele><time>2026-05-02T08:56:17.728Z</time></trkpt><trkpt lat="44.1500267" lon="11.3806083"><ele>671.0</ele><time>2026-05-02T08:56:18.729Z</time></trkpt><trkpt lat="44.1499267" lon="11.3807183"><ele>671.0</ele><time>2026-05-02T08:56:19.727Z</time></trkpt><trkpt lat="44.1498167" lon="11.380795"><ele>669.0</ele><time>2026-05-02T08:56:20.729Z</time></trkpt><trkpt lat="44.1496983" lon="11.3808367"><ele>667.0</ele><time>2026-05-02T08:56:21.726Z</time></trkpt><trkpt lat="44.1495767" lon="11.3808267"><ele>665.0</ele><time>2026-05-02T08:56:22.728Z</time></trkpt><trkpt lat="44.1494617" lon="11.3807533"><ele>663.0</ele><time>2026-05-02T08:56:23.726Z</time></trkpt><trkpt lat="44.1493583" lon="11.3806317"><ele>661.3333333333334</ele><time>2026-05-02T08:56:24.728Z</time></trkpt><trkpt lat="44.14927" lon="11.3804583"><ele>659.6666666666667</ele><time>2026-05-02T08:56:25.728Z</time></trkpt><trkpt lat="44.1491883" lon="11.3802533"><ele>658.0</ele><time>2026-05-02T08:56:26.729Z</time></trkpt><trkpt lat="44.1491183" lon="11.3800333"><ele>658.0</ele><time>2026-05-02T08:56:27.728Z</time></trkpt><trkpt lat="44.149055" lon="11.3798083"><ele>658.0</ele><time>2026-05-02T08:56:28.727Z</time></trkpt><trkpt lat="44.1489933" lon="11.3796"><ele>658.0</ele><time>2026-05-02T08:56:29.728Z</time></trkpt><trkpt lat="44.1489333" lon="11.3794233"><ele>653.5</ele><time>2026-05-02T08:56:30.726Z</time></trkpt><trkpt lat="44.1488967" lon="11.3792633"><ele>649.0</ele><time>2026-05-02T08:56:31.726Z</time></trkpt><trkpt lat="44.1488983" lon="11.379105"><ele>644.5</ele><time>2026-05-02T08:56:32.728Z</time></trkpt><trkpt lat="44.1489317" lon="11.3789367"><ele>640.0</ele><time>2026-05-02T08:56:33.726Z</time></trkpt><trkpt lat="44.1489917" lon="11.37876"><ele>638.75</ele><time>2026-05-02T08:56:34.728Z</time></trkpt><trkpt lat="44.1490367" lon="11.3785833"><ele>637.5</ele><time>2026-05-02T08:56:35.727Z</time></trkpt><trkpt lat="44.1490533" lon="11.378415"><ele>636.25</ele><time>2026-05-02T08:56:36.727Z</time></trkpt><trkpt lat="44.1490333" lon="11.37824"><ele>635.0</ele><time>2026-05-02T08:56:37.727Z</time></trkpt><trkpt lat="44.1489783" lon="11.3780733"><ele>632.75</ele><time>2026-05-02T08:56:38.726Z</time></trkpt><trkpt lat="44.1489083" lon="11.3779233"><ele>630.5</ele><time>2026-05-02T08:56:39.725Z</time></trkpt><trkpt lat="44.148855" lon="11.37778"><ele>628.25</ele><time>2026-05-02T08:56:40.728Z</time></trkpt><trkpt lat="44.1488467" lon="11.3776267"><ele>626.0</ele><time>2026-05-02T08:56:41.728Z</time></trkpt><trkpt lat="44.1488867" lon="11.3774733"><ele>626.0</ele><time>2026-05-02T08:56:42.728Z</time></trkpt><trkpt lat="44.14896" lon="11.3773383"><ele>626.0</ele><time>2026-05-02T08:56:43.728Z</time></trkpt><trkpt lat="44.1490333" lon="11.3772317"><ele>626.0</ele><time>2026-05-02T08:56:44.727Z</time></trkpt><trkpt lat="44.1490817" lon="11.3771167"><ele>626.0</ele><time>2026-05-02T08:56:45.726Z</time></trkpt><trkpt lat="44.1491017" lon="11.3769967"><ele>626.0</ele><time>2026-05-02T08:56:46.728Z</time></trkpt><trkpt lat="44.1490533" lon="11.3769083"><ele>623.5</ele><time>2026-05-02T08:56:47.729Z</time></trkpt><trkpt lat="44.1490017" lon="11.3768417"><ele>621.0</ele><time>2026-05-02T08:56:48.727Z</time></trkpt><trkpt lat="44.14887" lon="11.3769083"><ele>618.5</ele><time>2026-05-02T08:56:49.728Z</time></trkpt><trkpt lat="44.14873" lon="11.377005"><ele>616.0</ele><time>2026-05-02T08:56:50.727Z</time></trkpt><trkpt lat="44.1485917" lon="11.3771067"><ele>615.0</ele><time>2026-05-02T08:56:51.728Z</time></trkpt><trkpt lat="44.1484633" lon="11.3772317"><ele>614.0</ele><time>2026-05-02T08:56:52.728Z</time></trkpt><trkpt lat="44.148355" lon="11.3773733"><ele>613.0</ele><time>2026-05-02T08:56:53.728Z</time></trkpt><trkpt lat="44.1482417" lon="11.3774967"><ele>612.0</ele><time>2026-05-02T08:56:54.727Z</time></trkpt><trkpt lat="44.14811" lon="11.3775617"><ele>612.0</ele><time>2026-05-02T08:56:55.728Z</time></trkpt><trkpt lat="44.14796" lon="11.377565"><ele>612.0</ele><time>2026-05-02T08:56:56.729Z</time></trkpt><trkpt lat="44.147805" lon="11.377535"><ele>612.0</ele><time>2026-05-02T08:56:57.729Z</time></trkpt><trkpt lat="44.1476617" lon="11.3775183"><ele>612.0</ele><time>2026-05-02T08:56:58.728Z</time></trkpt><trkpt lat="44.147535" lon="11.3775517"><ele>612.0</ele><time>2026-05-02T08:56:59.726Z</time></trkpt><trkpt lat="44.1474167" lon="11.3776367"><ele>612.0</ele><time>2026-05-02T08:57:00.73Z</time></trkpt><trkpt lat="44.1472883" lon="11.3777233"><ele>612.0</ele><time>2026-05-02T08:57:01.729Z</time></trkpt><trkpt lat="44.147135" lon="11.37777"><ele>608.0</ele><time>2026-05-02T08:57:02.727Z</time></trkpt><trkpt lat="44.1469717" lon="11.377785"><ele>604.0</ele><time>2026-05-02T08:57:03.728Z</time></trkpt><trkpt lat="44.146815" lon="11.3777883"><ele>600.0</ele><time>2026-05-02T08:57:04.728Z</time></trkpt><trkpt lat="44.146675" lon="11.37782"><ele>600.0</ele><time>2026-05-02T08:57:05.728Z</time></trkpt><trkpt lat="44.1465517" lon="11.3779133"><ele>600.0</ele><time>2026-05-02T08:57:06.728Z</time></trkpt><trkpt lat="44.146455" lon="11.3780617"><ele>600.0</ele><time>2026-05-02T08:57:07.727Z</time></trkpt><trkpt lat="44.146365" lon="11.378205"><ele>600.0</ele><time>2026-05-02T08:57:08.729Z</time></trkpt><trkpt lat="44.1462583" lon="11.3783017"><ele>599.0</ele><time>2026-05-02T08:57:09.726Z</time></trkpt><trkpt lat="44.1461283" lon="11.378345"><ele>598.0</ele><time>2026-05-02T08:57:10.726Z</time></trkpt><trkpt lat="44.145995" lon="11.3783233"><ele>597.0</ele><time>2026-05-02T08:57:11.729Z</time></trkpt><trkpt lat="44.14586" lon="11.3782417"><ele>596.0</ele><time>2026-05-02T08:57:12.727Z</time></trkpt><trkpt lat="44.1457217" lon="11.3781183"><ele>593.3333333333333</ele><time>2026-05-02T08:57:13.727Z</time></trkpt><trkpt lat="44.1455783" lon="11.377975"><ele>590.6666666666666</ele><time>2026-05-02T08:57:14.728Z</time></trkpt><trkpt lat="44.1454267" lon="11.377825"><ele>588.0</ele><time>2026-05-02T08:57:15.726Z</time></trkpt><trkpt lat="44.1452767" lon="11.37767"><ele>588.0</ele><time>2026-05-02T08:57:16.728Z</time></trkpt><trkpt lat="44.1451333" lon="11.37752"><ele>588.0</ele><time>2026-05-02T08:57:17.728Z</time></trkpt><trkpt lat="44.1449983" lon="11.3773817"><ele>588.0</ele><time>2026-05-02T08:57:18.729Z</time></trkpt><trkpt lat="44.1448733" lon="11.37727"><ele>587.75</ele><time>2026-05-02T08:57:19.729Z</time></trkpt><trkpt lat="44.14474" lon="11.3772033"><ele>587.5</ele><time>2026-05-02T08:57:20.729Z</time></trkpt><trkpt lat="44.1445933" lon="11.37719"><ele>587.25</ele><time>2026-05-02T08:57:21.729Z</time></trkpt><trkpt lat="44.14444" lon="11.377185"><ele>587.0</ele><time>2026-05-02T08:57:22.728Z</time></trkpt><trkpt lat="44.144285" lon="11.3771583"><ele>583.25</ele><time>2026-05-02T08:57:23.728Z</time></trkpt><trkpt lat="44.144135" lon="11.377095"><ele>579.5</ele><time>2026-05-02T08:57:24.728Z</time></trkpt><trkpt lat="44.1440083" lon="11.377"><ele>575.75</ele><time>2026-05-02T08:57:25.727Z</time></trkpt><trkpt lat="44.14391" lon="11.376895"><ele>572.0</ele><time>2026-05-02T08:57:26.725Z</time></trkpt><trkpt lat="44.1438267" lon="11.3768033"><ele>572.0</ele><time>2026-05-02T08:57:27.727Z</time></trkpt><trkpt lat="44.1437317" lon="11.37673"><ele>572.0</ele><time>2026-05-02T08:57:28.727Z</time></trkpt><trkpt lat="44.1436067" lon="11.3766783"><ele>572.0</ele><time>2026-05-02T08:57:29.729Z</time></trkpt><trkpt lat="44.1434633" lon="11.37664"><ele>572.0</ele><time>2026-05-02T08:57:30.729Z</time></trkpt><trkpt lat="44.1433217" lon="11.376595"><ele>569.25</ele><time>2026-05-02T08:57:31.728Z</time></trkpt><trkpt lat="44.143195" lon="11.37656"><ele>566.5</ele><time>2026-05-02T08:57:32.729Z</time></trkpt><trkpt lat="44.14307" lon="11.3765633"><ele>563.75</ele><time>2026-05-02T08:57:33.726Z</time></trkpt><trkpt lat="44.142945" lon="11.3765917"><ele>561.0</ele><time>2026-05-02T08:57:34.727Z</time></trkpt><trkpt lat="44.14282" lon="11.376645"><ele>561.0</ele><time>2026-05-02T08:57:35.728Z</time></trkpt><trkpt lat="44.1427017" lon="11.37674"><ele>561.0</ele><time>2026-05-02T08:57:36.727Z</time></trkpt><trkpt lat="44.1425983" lon="11.3768767"><ele>561.0</ele><time>2026-05-02T08:57:37.728Z</time></trkpt><trkpt lat="44.1424983" lon="11.3770367"><ele>561.0</ele><time>2026-05-02T08:57:38.728Z</time></trkpt><trkpt lat="44.142415" lon="11.37719"><ele>558.3333333333334</ele><time>2026-05-02T08:57:39.727Z</time></trkpt><trkpt lat="44.142355" lon="11.37733"><ele>555.6666666666666</ele><time>2026-05-02T08:57:40.729Z</time></trkpt><trkpt lat="44.1422983" lon="11.37744"><ele>553.0</ele><time>2026-05-02T08:57:41.729Z</time></trkpt><trkpt lat="44.1422383" lon="11.3775133"><ele>550.3333333333333</ele><time>2026-05-02T08:57:42.729Z</time></trkpt><trkpt lat="44.14217" lon="11.3775167"><ele>547.6666666666666</ele><time>2026-05-02T08:57:43.728Z</time></trkpt><trkpt lat="44.1421133" lon="11.3774783"><ele>545.0</ele><time>2026-05-02T08:57:44.729Z</time></trkpt><trkpt lat="44.1421" lon="11.377355"><ele>545.0</ele><time>2026-05-02T08:57:45.728Z</time></trkpt><trkpt lat="44.1421117" lon="11.3772117"><ele>545.0</ele><time>2026-05-02T08:57:46.728Z</time></trkpt><trkpt lat="44.1421617" lon="11.3770133"><ele>545.0</ele><time>2026-05-02T08:57:47.728Z</time></trkpt><trkpt lat="44.1422217" lon="11.3767867"><ele>545.0</ele><time>2026-05-02T08:57:48.728Z</time></trkpt><trkpt lat="44.1422783" lon="11.3765533"><ele>541.6666666666666</ele><time>2026-05-02T08:57:49.728Z</time></trkpt><trkpt lat="44.14232" lon="11.376315"><ele>538.3333333333334</ele><time>2026-05-02T08:57:50.728Z</time></trkpt><trkpt lat="44.14233" lon="11.3760833"><ele>535.0</ele><time>2026-05-02T08:57:51.728Z</time></trkpt><trkpt lat="44.1423283" lon="11.37587"><ele>535.0</ele><time>2026-05-02T08:57:52.729Z</time></trkpt><trkpt lat="44.1423233" lon="11.37568"><ele>535.0</ele><time>2026-05-02T08:57:53.729Z</time></trkpt><trkpt lat="44.1423133" lon="11.3755217"><ele>535.0</ele><time>2026-05-02T08:57:54.727Z</time></trkpt><trkpt lat="44.1422767" lon="11.3753967"><ele>535.0</ele><time>2026-05-02T08:57:55.728Z</time></trkpt><trkpt lat="44.1422167" lon="11.375325"><ele>535.0</ele><time>2026-05-02T08:57:56.728Z</time></trkpt><trkpt lat="44.1421433" lon="11.37533"><ele>535.0</ele><time>2026-05-02T08:57:57.728Z</time></trkpt><trkpt lat="44.1420733" lon="11.3754017"><ele>535.0</ele><time>2026-05-02T08:57:58.728Z</time></trkpt><trkpt lat="44.1420317" lon="11.3755367"><ele>535.0</ele><time>2026-05-02T08:57:59.728Z</time></trkpt><trkpt lat="44.1420033" lon="11.3757217"><ele>535.0</ele><time>2026-05-02T08:58:00.729Z</time></trkpt><trkpt lat="44.141965" lon="11.3759133"><ele>535.0</ele><time>2026-05-02T08:58:01.729Z</time></trkpt><trkpt lat="44.14189" lon="11.3760917"><ele>535.0</ele><time>2026-05-02T08:58:02.729Z</time></trkpt><trkpt lat="44.141785" lon="11.37625"><ele>535.0</ele><time>2026-05-02T08:58:03.727Z</time></trkpt><trkpt lat="44.141665" lon="11.3764017"><ele>530.6666666666667</ele><time>2026-05-02T08:58:04.728Z</time></trkpt><trkpt lat="44.141535" lon="11.3765483"><ele>526.3333333333334</ele><time>2026-05-02T08:58:05.727Z</time></trkpt><trkpt lat="44.1414133" lon="11.3766817"><ele>522.0</ele><time>2026-05-02T08:58:06.729Z</time></trkpt><trkpt lat="44.141305" lon="11.376825"><ele>522.0</ele><time>2026-05-02T08:58:07.729Z</time></trkpt><trkpt lat="44.1412183" lon="11.3769917"><ele>522.0</ele><time>2026-05-02T08:58:08.729Z</time></trkpt><trkpt lat="44.1411617" lon="11.3771817"><ele>522.0</ele><time>2026-05-02T08:58:09.728Z</time></trkpt><trkpt lat="44.1411367" lon="11.377395"><ele>522.6666666666666</ele><time>2026-05-02T08:58:10.728Z</time></trkpt><trkpt lat="44.14113" lon="11.377625"><ele>523.3333333333333</ele><time>2026-05-02T08:58:11.726Z</time></trkpt><trkpt lat="44.1411283" lon="11.3778683"><ele>524.0</ele><time>2026-05-02T08:58:12.729Z</time></trkpt><trkpt lat="44.1411233" lon="11.3781167"><ele>522.3333333333333</ele><time>2026-05-02T08:58:13.727Z</time></trkpt><trkpt lat="44.1411083" lon="11.3783733"><ele>520.6666666666666</ele><time>2026-05-02T08:58:14.728Z</time></trkpt><trkpt lat="44.141085" lon="11.3786233"><ele>519.0</ele><time>2026-05-02T08:58:15.728Z</time></trkpt><trkpt lat="44.14106" lon="11.37886"><ele>518.75</ele><time>2026-05-02T08:58:16.727Z</time></trkpt><trkpt lat="44.1410367" lon="11.3790833"><ele>518.5</ele><time>2026-05-02T08:58:17.728Z</time></trkpt><trkpt lat="44.1410217" lon="11.3792867"><ele>518.25</ele><time>2026-05-02T08:58:18.729Z</time></trkpt><trkpt lat="44.1410033" lon="11.3794583"><ele>518.0</ele><time>2026-05-02T08:58:19.729Z</time></trkpt><trkpt lat="44.1409683" lon="11.3795967"><ele>519.6</ele><time>2026-05-02T08:58:20.729Z</time></trkpt><trkpt lat="44.1409017" lon="11.3796983"><ele>521.1999999999999</ele><time>2026-05-02T08:58:21.728Z</time></trkpt><trkpt lat="44.1408117" lon="11.3797283"><ele>522.8</ele><time>2026-05-02T08:58:22.729Z</time></trkpt><trkpt lat="44.14072" lon="11.3796867"><ele>524.4</ele><time>2026-05-02T08:58:23.729Z</time></trkpt><trkpt lat="44.140655" lon="11.379585"><ele>526.0</ele><time>2026-05-02T08:58:24.727Z</time></trkpt><trkpt lat="44.1406167" lon="11.3794433"><ele>518.0</ele><time>2026-05-02T08:58:25.727Z</time></trkpt><trkpt lat="44.1406083" lon="11.3792383"><ele>510.0</ele><time>2026-05-02T08:58:26.728Z</time></trkpt><trkpt lat="44.1405933" lon="11.37902"><ele>502.0</ele><time>2026-05-02T08:58:27.728Z</time></trkpt><trkpt lat="44.1405783" lon="11.378815"><ele>500.8</ele><time>2026-05-02T08:58:28.727Z</time></trkpt><trkpt lat="44.1405633" lon="11.3786467"><ele>499.6</ele><time>2026-05-02T08:58:29.728Z</time></trkpt><trkpt lat="44.140535" lon="11.378515"><ele>498.40000000000003</ele><time>2026-05-02T08:58:30.728Z</time></trkpt><trkpt lat="44.1404833" lon="11.37843"><ele>497.20000000000005</ele><time>2026-05-02T08:58:31.728Z</time></trkpt><trkpt lat="44.1404133" lon="11.37843"><ele>496.0</ele><time>2026-05-02T08:58:32.729Z</time></trkpt><trkpt lat="44.1403417" lon="11.3784917"><ele>496.0</ele><time>2026-05-02T08:58:33.728Z</time></trkpt><trkpt lat="44.1402683" lon="11.3786"><ele>496.0</ele><time>2026-05-02T08:58:34.727Z</time></trkpt><trkpt lat="44.1401567" lon="11.3787583"><ele>496.0</ele><time>2026-05-02T08:58:35.729Z</time></trkpt><trkpt lat="44.1400467" lon="11.3789067"><ele>496.0</ele><time>2026-05-02T08:58:36.729Z</time></trkpt><trkpt lat="44.1399533" lon="11.37903"><ele>492.83333333333337</ele><time>2026-05-02T08:58:37.728Z</time></trkpt><trkpt lat="44.139875" lon="11.3791333"><ele>489.6666666666667</ele><time>2026-05-02T08:58:38.728Z</time></trkpt><trkpt lat="44.1397917" lon="11.3791833"><ele>486.5</ele><time>2026-05-02T08:58:39.726Z</time></trkpt><trkpt lat="44.1397183" lon="11.3791667"><ele>483.33333333333337</ele><time>2026-05-02T08:58:40.728Z</time></trkpt><trkpt lat="44.1396717" lon="11.3790883"><ele>480.1666666666667</ele><time>2026-05-02T08:58:41.729Z</time></trkpt><trkpt lat="44.13965" lon="11.3789683"><ele>477.0</ele><time>2026-05-02T08:58:42.729Z</time></trkpt><trkpt lat="44.1396383" lon="11.3788433"><ele>475.33333333333337</ele><time>2026-05-02T08:58:43.726Z</time></trkpt><trkpt lat="44.1396883" lon="11.378625"><ele>473.6666666666667</ele><time>2026-05-02T08:58:44.728Z</time></trkpt><trkpt lat="44.1397433" lon="11.37841"><ele>472.0</ele><time>2026-05-02T08:58:45.727Z</time></trkpt><trkpt lat="44.1398083" lon="11.378225"><ele>472.0</ele><time>2026-05-02T08:58:46.729Z</time></trkpt><trkpt lat="44.1398733" lon="11.3780767"><ele>472.00000000000006</ele><time>2026-05-02T08:58:47.728Z</time></trkpt><trkpt lat="44.1399117" lon="11.377955"><ele>472.00000000000006</ele><time>2026-05-02T08:58:48.725Z</time></trkpt><trkpt lat="44.1399333" lon="11.377845"><ele>472.0</ele><time>2026-05-02T08:58:49.728Z</time></trkpt><trkpt lat="44.1399233" lon="11.37774"><ele>472.0</ele><time>2026-05-02T08:58:50.728Z</time></trkpt><trkpt lat="44.1398083" lon="11.377685"><ele>472.0</ele><time>2026-05-02T08:58:52.727Z</time></trkpt><trkpt lat="44.139665" lon="11.3778167"><ele>472.0</ele><time>2026-05-02T08:58:53.728Z</time></trkpt><trkpt lat="44.13954" lon="11.37795"><ele>472.0</ele><time>2026-05-02T08:58:54.728Z</time></trkpt><trkpt lat="44.1394467" lon="11.3780917"><ele>472.0</ele><time>2026-05-02T08:58:55.729Z</time></trkpt><trkpt lat="44.1394" lon="11.37826"><ele>472.0</ele><time>2026-05-02T08:58:56.727Z</time></trkpt><trkpt lat="44.1393883" lon="11.3784533"><ele>472.0</ele><time>2026-05-02T08:58:57.727Z</time></trkpt><trkpt lat="44.1393967" lon="11.378635"><ele>472.0</ele><time>2026-05-02T08:58:58.728Z</time></trkpt><trkpt lat="44.139415" lon="11.378795"><ele>472.83333333333337</ele><time>2026-05-02T08:58:59.725Z</time></trkpt><trkpt lat="44.1394233" lon="11.3789233"><ele>473.6666666666667</ele><time>2026-05-02T08:59:00.727Z</time></trkpt><trkpt lat="44.1394217" lon="11.3790333"><ele>474.5</ele><time>2026-05-02T08:59:01.728Z</time></trkpt><trkpt lat="44.139375" lon="11.3791017"><ele>475.33333333333337</ele><time>2026-05-02T08:59:02.727Z</time></trkpt><trkpt lat="44.1392867" lon="11.379135"><ele>476.1666666666667</ele><time>2026-05-02T08:59:03.728Z</time></trkpt><trkpt lat="44.1391933" lon="11.3791567"><ele>477.0</ele><time>2026-05-02T08:59:04.728Z</time></trkpt><trkpt lat="44.1390633" lon="11.3791817"><ele>478.33333333333337</ele><time>2026-05-02T08:59:05.728Z</time></trkpt><trkpt lat="44.1389117" lon="11.3792117"><ele>479.6666666666667</ele><time>2026-05-02T08:59:06.728Z</time></trkpt><trkpt lat="44.13876" lon="11.3792333"><ele>481.0</ele><time>2026-05-02T08:59:07.727Z</time></trkpt><trkpt lat="44.1386067" lon="11.379265"><ele>481.0</ele><time>2026-05-02T08:59:08.729Z</time></trkpt><trkpt lat="44.1384667" lon="11.3793183"><ele>481.0</ele><time>2026-05-02T08:59:09.728Z</time></trkpt><trkpt lat="44.1383417" lon="11.37941"><ele>481.0</ele><time>2026-05-02T08:59:10.726Z</time></trkpt><trkpt lat="44.13825" lon="11.379555"><ele>481.0</ele><time>2026-05-02T08:59:11.73Z</time></trkpt><trkpt lat="44.1381967" lon="11.3797517"><ele>486.20000000000005</ele><time>2026-05-02T08:59:12.727Z</time></trkpt><trkpt lat="44.1381683" lon="11.3799533"><ele>491.40000000000003</ele><time>2026-05-02T08:59:13.726Z</time></trkpt><trkpt lat="44.13814" lon="11.3801117"><ele>496.6</ele><time>2026-05-02T08:59:14.729Z</time></trkpt><trkpt lat="44.1381083" lon="11.3802317"><ele>501.8</ele><time>2026-05-02T08:59:15.728Z</time></trkpt><trkpt lat="44.1380567" lon="11.380315"><ele>507.0</ele><time>2026-05-02T08:59:16.728Z</time></trkpt><trkpt lat="44.1379933" lon="11.3803267"><ele>507.0</ele><time>2026-05-02T08:59:17.729Z</time></trkpt><trkpt lat="44.1379267" lon="11.38029"><ele>507.00000000000006</ele><time>2026-05-02T08:59:18.727Z</time></trkpt><trkpt lat="44.137885" lon="11.380175"><ele>507.00000000000006</ele><time>2026-05-02T08:59:19.726Z</time></trkpt><trkpt lat="44.1378467" lon="11.380015"><ele>507.0</ele><time>2026-05-02T08:59:20.729Z</time></trkpt><trkpt lat="44.13779" lon="11.3798317"><ele>507.0</ele><time>2026-05-02T08:59:21.727Z</time></trkpt><trkpt lat="44.1377133" lon="11.3796383"><ele>505.33333333333337</ele><time>2026-05-02T08:59:22.728Z</time></trkpt><trkpt lat="44.137615" lon="11.379455"><ele>503.6666666666667</ele><time>2026-05-02T08:59:23.727Z</time></trkpt><trkpt lat="44.1375017" lon="11.3792683"><ele>502.0</ele><time>2026-05-02T08:59:24.727Z</time></trkpt><trkpt lat="44.137375" lon="11.37908"><ele>505.33333333333337</ele><time>2026-05-02T08:59:25.729Z</time></trkpt><trkpt lat="44.1372383" lon="11.3789017"><ele>508.66666666666663</ele><time>2026-05-02T08:59:26.729Z</time></trkpt><trkpt lat="44.1371083" lon="11.378745"><ele>512.0</ele><time>2026-05-02T08:59:27.729Z</time></trkpt><trkpt lat="44.136995" lon="11.37861"><ele>512.0</ele><time>2026-05-02T08:59:28.729Z</time></trkpt><trkpt lat="44.1368883" lon="11.37852"><ele>512.0</ele><time>2026-05-02T08:59:29.727Z</time></trkpt><trkpt lat="44.1367867" lon="11.37848"><ele>512.0</ele><time>2026-05-02T08:59:30.729Z</time></trkpt><trkpt lat="44.1366917" lon="11.3784967"><ele>512.0</ele><time>2026-05-02T08:59:31.729Z</time></trkpt><trkpt lat="44.1366367" lon="11.3785883"><ele>512.0</ele><time>2026-05-02T08:59:32.729Z</time></trkpt><trkpt lat="44.13667" lon="11.3787933"><ele>513.6666666666666</ele><time>2026-05-02T08:59:33.725Z</time></trkpt><trkpt lat="44.1367117" lon="11.37898"><ele>515.3333333333334</ele><time>2026-05-02T08:59:34.726Z</time></trkpt><trkpt lat="44.1367617" lon="11.3791883"><ele>517.0</ele><time>2026-05-02T08:59:35.728Z</time></trkpt><trkpt lat="44.1368333" lon="11.3793933"><ele>517.0</ele><time>2026-05-02T08:59:36.822Z</time></trkpt><trkpt lat="44.1369033" lon="11.3795683"><ele>517.0</ele><time>2026-05-02T08:59:37.728Z</time></trkpt><trkpt lat="44.1369417" lon="11.3797217"><ele>517.0</ele><time>2026-05-02T08:59:38.729Z</time></trkpt><trkpt lat="44.1369267" lon="11.3798667"><ele>517.0</ele><time>2026-05-02T08:59:39.729Z</time></trkpt><trkpt lat="44.13687" lon="11.3799933"><ele>518.5</ele><time>2026-05-02T08:59:40.727Z</time></trkpt><trkpt lat="44.1367717" lon="11.3800983"><ele>520.0</ele><time>2026-05-02T08:59:41.728Z</time></trkpt><trkpt lat="44.1366483" lon="11.380195"><ele>521.5</ele><time>2026-05-02T08:59:42.725Z</time></trkpt><trkpt lat="44.1365233" lon="11.380305"><ele>523.0</ele><time>2026-05-02T08:59:43.728Z</time></trkpt><trkpt lat="44.1364067" lon="11.380435"><ele>528.3333333333334</ele><time>2026-05-02T08:59:44.729Z</time></trkpt><trkpt lat="44.136335" lon="11.3806133"><ele>533.6666666666666</ele><time>2026-05-02T08:59:45.728Z</time></trkpt><trkpt lat="44.1362833" lon="11.3808183"><ele>539.0</ele><time>2026-05-02T08:59:46.726Z</time></trkpt><trkpt lat="44.1362583" lon="11.3810467"><ele>539.0</ele><time>2026-05-02T08:59:47.726Z</time></trkpt><trkpt lat="44.1362417" lon="11.3812533"><ele>539.0</ele><time>2026-05-02T08:59:48.728Z</time></trkpt><trkpt lat="44.13623" lon="11.3814333"><ele>539.0</ele><time>2026-05-02T08:59:49.728Z</time></trkpt><trkpt lat="44.1361967" lon="11.3815633"><ele>539.0</ele><time>2026-05-02T08:59:50.727Z</time></trkpt><trkpt lat="44.1361367" lon="11.3816383"><ele>539.0</ele><time>2026-05-02T08:59:51.729Z</time></trkpt><trkpt lat="44.1360617" lon="11.3816467"><ele>539.0</ele><time>2026-05-02T08:59:52.728Z</time></trkpt><trkpt lat="44.1359933" lon="11.3815883"><ele>539.0</ele><time>2026-05-02T08:59:53.729Z</time></trkpt><trkpt lat="44.135935" lon="11.381495"><ele>539.0</ele><time>2026-05-02T08:59:54.729Z</time></trkpt><trkpt lat="44.1359033" lon="11.3813183"><ele>539.0</ele><time>2026-05-02T08:59:55.728Z</time></trkpt><trkpt lat="44.13588" lon="11.3811"><ele>539.0</ele><time>2026-05-02T08:59:56.728Z</time></trkpt><trkpt lat="44.1358517" lon="11.3808817"><ele>539.0</ele><time>2026-05-02T08:59:57.729Z</time></trkpt><trkpt lat="44.1358217" lon="11.380645"><ele>539.0</ele><time>2026-05-02T08:59:58.729Z</time></trkpt><trkpt lat="44.1357867" lon="11.3804"><ele>539.6666666666666</ele><time>2026-05-02T08:59:59.729Z</time></trkpt><trkpt lat="44.1357517" lon="11.3801683"><ele>540.3333333333334</ele><time>2026-05-02T09:00:00.728Z</time></trkpt><trkpt lat="44.1357183" lon="11.3799533"><ele>541.0</ele><time>2026-05-02T09:00:01.728Z</time></trkpt><trkpt lat="44.1356817" lon="11.37975"><ele>545.6666666666667</ele><time>2026-05-02T09:00:02.728Z</time></trkpt><trkpt lat="44.13562" lon="11.3795717"><ele>550.3333333333334</ele><time>2026-05-02T09:00:03.729Z</time></trkpt><trkpt lat="44.1355267" lon="11.37941"><ele>555.0</ele><time>2026-05-02T09:00:04.728Z</time></trkpt><trkpt lat="44.1354033" lon="11.3792533"><ele>555.0</ele><time>2026-05-02T09:00:05.728Z</time></trkpt><trkpt lat="44.1352667" lon="11.3790867"><ele>555.0</ele><time>2026-05-02T09:00:06.729Z</time></trkpt><trkpt lat="44.135145" lon="11.378905"><ele>555.0</ele><time>2026-05-02T09:00:07.729Z</time></trkpt><trkpt lat="44.1350517" lon="11.3787067"><ele>554.6666666666666</ele><time>2026-05-02T09:00:08.728Z</time></trkpt><trkpt lat="44.1349817" lon="11.3784917"><ele>554.3333333333333</ele><time>2026-05-02T09:00:09.729Z</time></trkpt><trkpt lat="44.1349383" lon="11.378255"><ele>554.0</ele><time>2026-05-02T09:00:10.726Z</time></trkpt><trkpt lat="44.134905" lon="11.3780233"><ele>555.0</ele><time>2026-05-02T09:00:11.728Z</time></trkpt><trkpt lat="44.13489" lon="11.3778033"><ele>556.0</ele><time>2026-05-02T09:00:12.729Z</time></trkpt><trkpt lat="44.13489" lon="11.3776133"><ele>557.0</ele><time>2026-05-02T09:00:13.727Z</time></trkpt><trkpt lat="44.1349217" lon="11.3774483"><ele>558.0</ele><time>2026-05-02T09:00:14.728Z</time></trkpt><trkpt lat="44.1349617" lon="11.3773117"><ele>558.0</ele><time>2026-05-02T09:00:15.727Z</time></trkpt><trkpt lat="44.1349867" lon="11.377195"><ele>558.0</ele><time>2026-05-02T09:00:16.726Z</time></trkpt><trkpt lat="44.1349917" lon="11.3770983"><ele>558.0</ele><time>2026-05-02T09:00:17.728Z</time></trkpt><trkpt lat="44.1349183" lon="11.3769867"><ele>558.0</ele><time>2026-05-02T09:00:19.728Z</time></trkpt><trkpt lat="44.134825" lon="11.3770933"><ele>558.0</ele><time>2026-05-02T09:00:20.727Z</time></trkpt><trkpt lat="44.134745" lon="11.3772067"><ele>564.0</ele><time>2026-05-02T09:00:21.729Z</time></trkpt><trkpt lat="44.1346567" lon="11.3773967"><ele>570.0</ele><time>2026-05-02T09:00:22.729Z</time></trkpt><trkpt lat="44.13455" lon="11.37761"><ele>576.0</ele><time>2026-05-02T09:00:23.727Z</time></trkpt><trkpt lat="44.1344533" lon="11.377815"><ele>574.6666666666666</ele><time>2026-05-02T09:00:24.726Z</time></trkpt><trkpt lat="44.1343533" lon="11.3780267"><ele>573.3333333333333</ele><time>2026-05-02T09:00:25.729Z</time></trkpt><trkpt lat="44.1342533" lon="11.3782317"><ele>572.0</ele><time>2026-05-02T09:00:26.728Z</time></trkpt><trkpt lat="44.1341483" lon="11.378425"><ele>573.6666666666666</ele><time>2026-05-02T09:00:27.727Z</time></trkpt><trkpt lat="44.1340417" lon="11.3786117"><ele>575.3333333333334</ele><time>2026-05-02T09:00:28.727Z</time></trkpt><trkpt lat="44.133945" lon="11.3788"><ele>577.0</ele><time>2026-05-02T09:00:29.727Z</time></trkpt><trkpt lat="44.1338617" lon="11.3789933"><ele>577.0</ele><time>2026-05-02T09:00:30.728Z</time></trkpt><trkpt lat="44.1338017" lon="11.3791933"><ele>577.0</ele><time>2026-05-02T09:00:31.727Z</time></trkpt><trkpt lat="44.1337533" lon="11.3793967"><ele>577.0</ele><time>2026-05-02T09:00:32.73Z</time></trkpt><trkpt lat="44.1337083" lon="11.3795983"><ele>577.25</ele><time>2026-05-02T09:00:33.729Z</time></trkpt><trkpt lat="44.1336667" lon="11.379785"><ele>577.5</ele><time>2026-05-02T09:00:34.729Z</time></trkpt><trkpt lat="44.1336283" lon="11.3799533"><ele>577.75</ele><time>2026-05-02T09:00:35.728Z</time></trkpt><trkpt lat="44.1335833" lon="11.3801133"><ele>578.0</ele><time>2026-05-02T09:00:36.729Z</time></trkpt><trkpt lat="44.1335317" lon="11.3802667"><ele>578.0</ele><time>2026-05-02T09:00:37.729Z</time></trkpt><trkpt lat="44.13347" lon="11.3804067"><ele>578.0</ele><time>2026-05-02T09:00:38.73Z</time></trkpt><trkpt lat="44.1333933" lon="11.38053"><ele>578.0</ele><time>2026-05-02T09:00:39.726Z</time></trkpt><trkpt lat="44.133305" lon="11.3806433"><ele>578.0</ele><time>2026-05-02T09:00:40.727Z</time></trkpt><trkpt lat="44.1332117" lon="11.380755"><ele>576.5</ele><time>2026-05-02T09:00:41.726Z</time></trkpt><trkpt lat="44.1331083" lon="11.38086"><ele>575.0</ele><time>2026-05-02T09:00:42.725Z</time></trkpt><trkpt lat="44.13299" lon="11.38097"><ele>573.5</ele><time>2026-05-02T09:00:43.727Z</time></trkpt><trkpt lat="44.1328683" lon="11.3810817"><ele>572.0</ele><time>2026-05-02T09:00:44.727Z</time></trkpt><trkpt lat="44.1327333" lon="11.3811967"><ele>572.0</ele><time>2026-05-02T09:00:45.726Z</time></trkpt><trkpt lat="44.1325883" lon="11.3812983"><ele>572.0</ele><time>2026-05-02T09:00:46.726Z</time></trkpt><trkpt lat="44.1324417" lon="11.38139"><ele>572.0</ele><time>2026-05-02T09:00:47.727Z</time></trkpt><trkpt lat="44.1323033" lon="11.3814783"><ele>569.5</ele><time>2026-05-02T09:00:48.727Z</time></trkpt><trkpt lat="44.1321767" lon="11.3815867"><ele>567.0</ele><time>2026-05-02T09:00:49.728Z</time></trkpt><trkpt lat="44.1320767" lon="11.3817267"><ele>564.5</ele><time>2026-05-02T09:00:50.726Z</time></trkpt><trkpt lat="44.1320017" lon="11.38188"><ele>562.0</ele><time>2026-05-02T09:00:51.728Z</time></trkpt><trkpt lat="44.131925" lon="11.3820167"><ele>562.0</ele><time>2026-05-02T09:00:52.726Z</time></trkpt><trkpt lat="44.1318283" lon="11.3821083"><ele>562.0</ele><time>2026-05-02T09:00:53.726Z</time></trkpt><trkpt lat="44.1317133" lon="11.3821433"><ele>562.0</ele><time>2026-05-02T09:00:54.727Z</time></trkpt><trkpt lat="44.131585" lon="11.3821183"><ele>562.0</ele><time>2026-05-02T09:00:55.726Z</time></trkpt><trkpt lat="44.1314383" lon="11.3820533"><ele>559.0</ele><time>2026-05-02T09:00:56.726Z</time></trkpt><trkpt lat="44.1312833" lon="11.3819767"><ele>556.0</ele><time>2026-05-02T09:00:57.726Z</time></trkpt><trkpt lat="44.1311233" lon="11.3819133"><ele>553.0</ele><time>2026-05-02T09:00:58.728Z</time></trkpt><trkpt lat="44.1309717" lon="11.3818867"><ele>553.0</ele><time>2026-05-02T09:00:59.726Z</time></trkpt><trkpt lat="44.1308283" lon="11.3819017"><ele>553.0</ele><time>2026-05-02T09:01:00.726Z</time></trkpt><trkpt lat="44.1306967" lon="11.3819633"><ele>553.0</ele><time>2026-05-02T09:01:01.728Z</time></trkpt><trkpt lat="44.130575" lon="11.3820817"><ele>553.0</ele><time>2026-05-02T09:01:02.728Z</time></trkpt><trkpt lat="44.1304533" lon="11.3822467"><ele>550.6666666666667</ele><time>2026-05-02T09:01:03.726Z</time></trkpt><trkpt lat="44.1303317" lon="11.3824183"><ele>548.3333333333334</ele><time>2026-05-02T09:01:04.726Z</time></trkpt><trkpt lat="44.1302133" lon="11.3825767"><ele>546.0</ele><time>2026-05-02T09:01:05.727Z</time></trkpt><trkpt lat="44.13011" lon="11.3827383"><ele>546.0</ele><time>2026-05-02T09:01:06.727Z</time></trkpt><trkpt lat="44.1300417" lon="11.3829183"><ele>546.0</ele><time>2026-05-02T09:01:07.727Z</time></trkpt><trkpt lat="44.1300017" lon="11.3831267"><ele>546.0</ele><time>2026-05-02T09:01:08.727Z</time></trkpt><trkpt lat="44.1299683" lon="11.383355"><ele>546.6666666666666</ele><time>2026-05-02T09:01:09.727Z</time></trkpt><trkpt lat="44.1299417" lon="11.3835883"><ele>547.3333333333333</ele><time>2026-05-02T09:01:10.728Z</time></trkpt><trkpt lat="44.1299117" lon="11.3838167"><ele>548.0</ele><time>2026-05-02T09:01:11.725Z</time></trkpt><trkpt lat="44.1299017" lon="11.3840333"><ele>546.3333333333333</ele><time>2026-05-02T09:01:12.729Z</time></trkpt><trkpt lat="44.1299283" lon="11.3842483"><ele>544.6666666666666</ele><time>2026-05-02T09:01:13.729Z</time></trkpt><trkpt lat="44.12999" lon="11.3844617"><ele>543.0</ele><time>2026-05-02T09:01:14.728Z</time></trkpt><trkpt lat="44.1300517" lon="11.38467"><ele>542.0</ele><time>2026-05-02T09:01:15.728Z</time></trkpt><trkpt lat="44.1300933" lon="11.384885"><ele>541.0</ele><time>2026-05-02T09:01:16.727Z</time></trkpt><trkpt lat="44.1301183" lon="11.3850967"><ele>540.0</ele><time>2026-05-02T09:01:17.729Z</time></trkpt><trkpt lat="44.1301283" lon="11.3853017"><ele>540.0</ele><time>2026-05-02T09:01:18.729Z</time></trkpt><trkpt lat="44.1301267" lon="11.3854883"><ele>540.0</ele><time>2026-05-02T09:01:19.729Z</time></trkpt><trkpt lat="44.13009" lon="11.3856533"><ele>540.0</ele><time>2026-05-02T09:01:20.729Z</time></trkpt><trkpt lat="44.1300133" lon="11.385785"><ele>540.0</ele><time>2026-05-02T09:01:21.728Z</time></trkpt><trkpt lat="44.129905" lon="11.3858833"><ele>535.0</ele><time>2026-05-02T09:01:22.729Z</time></trkpt><trkpt lat="44.1297967" lon="11.3859767"><ele>530.0</ele><time>2026-05-02T09:01:23.729Z</time></trkpt><trkpt lat="44.1297083" lon="11.386095"><ele>525.0</ele><time>2026-05-02T09:01:24.727Z</time></trkpt><trkpt lat="44.12965" lon="11.3862467"><ele>520.0</ele><time>2026-05-02T09:01:25.728Z</time></trkpt><trkpt lat="44.1296183" lon="11.386415"><ele>520.0</ele><time>2026-05-02T09:01:26.728Z</time></trkpt><trkpt lat="44.1295817" lon="11.3865717"><ele>520.0</ele><time>2026-05-02T09:01:27.727Z</time></trkpt><trkpt lat="44.1295033" lon="11.3866983"><ele>520.0</ele><time>2026-05-02T09:01:28.728Z</time></trkpt><trkpt lat="44.12938" lon="11.386785"><ele>520.0</ele><time>2026-05-02T09:01:29.729Z</time></trkpt><trkpt lat="44.1292517" lon="11.3868383"><ele>520.0</ele><time>2026-05-02T09:01:30.729Z</time></trkpt><trkpt lat="44.1291333" lon="11.3868383"><ele>520.0</ele><time>2026-05-02T09:01:31.728Z</time></trkpt><trkpt lat="44.1290317" lon="11.3867867"><ele>520.0</ele><time>2026-05-02T09:01:32.73Z</time></trkpt><trkpt lat="44.1289433" lon="11.3867017"><ele>520.0</ele><time>2026-05-02T09:01:33.726Z</time></trkpt><trkpt lat="44.12889" lon="11.38655"><ele>519.25</ele><time>2026-05-02T09:01:34.729Z</time></trkpt><trkpt lat="44.1288683" lon="11.3863567"><ele>518.5</ele><time>2026-05-02T09:01:35.728Z</time></trkpt><trkpt lat="44.1288417" lon="11.3861717"><ele>517.75</ele><time>2026-05-02T09:01:36.728Z</time></trkpt><trkpt lat="44.1287733" lon="11.385995"><ele>517.0</ele><time>2026-05-02T09:01:37.729Z</time></trkpt><trkpt lat="44.1286567" lon="11.385835"><ele>514.3333333333334</ele><time>2026-05-02T09:01:38.729Z</time></trkpt><trkpt lat="44.1285217" lon="11.38568"><ele>511.66666666666663</ele><time>2026-05-02T09:01:39.725Z</time></trkpt><trkpt lat="44.12838" lon="11.3855233"><ele>509.0</ele><time>2026-05-02T09:01:40.728Z</time></trkpt><trkpt lat="44.12824" lon="11.3853533"><ele>505.66666666666663</ele><time>2026-05-02T09:01:41.727Z</time></trkpt><trkpt lat="44.128105" lon="11.385185"><ele>502.33333333333337</ele><time>2026-05-02T09:01:42.728Z</time></trkpt><trkpt lat="44.1279617" lon="11.3850133"><ele>499.0</ele><time>2026-05-02T09:01:43.728Z</time></trkpt><trkpt lat="44.1278183" lon="11.3848433"><ele>496.6666666666667</ele><time>2026-05-02T09:01:44.728Z</time></trkpt><trkpt lat="44.127675" lon="11.3846733"><ele>494.33333333333337</ele><time>2026-05-02T09:01:45.729Z</time></trkpt><trkpt lat="44.1275333" lon="11.384505"><ele>492.0</ele><time>2026-05-02T09:01:46.726Z</time></trkpt><trkpt lat="44.1273983" lon="11.3843433"><ele>491.0</ele><time>2026-05-02T09:01:47.726Z</time></trkpt><trkpt lat="44.1272667" lon="11.3841867"><ele>490.0</ele><time>2026-05-02T09:01:48.729Z</time></trkpt><trkpt lat="44.1271383" lon="11.3840383"><ele>489.0</ele><time>2026-05-02T09:01:49.726Z</time></trkpt><trkpt lat="44.1270183" lon="11.3838883"><ele>488.0</ele><time>2026-05-02T09:01:50.728Z</time></trkpt><trkpt lat="44.1269067" lon="11.3837417"><ele>487.0</ele><time>2026-05-02T09:01:51.729Z</time></trkpt><trkpt lat="44.1267983" lon="11.3836017"><ele>486.0</ele><time>2026-05-02T09:01:52.726Z</time></trkpt><trkpt lat="44.1266817" lon="11.3834917"><ele>485.0</ele><time>2026-05-02T09:01:53.727Z</time></trkpt><trkpt lat="44.1265533" lon="11.383435"><ele>482.25</ele><time>2026-05-02T09:01:54.727Z</time></trkpt><trkpt lat="44.1264233" lon="11.3834167"><ele>479.5</ele><time>2026-05-02T09:01:55.728Z</time></trkpt><trkpt lat="44.126295" lon="11.3834017"><ele>476.75</ele><time>2026-05-02T09:01:56.727Z</time></trkpt><trkpt lat="44.12619" lon="11.3833167"><ele>474.0</ele><time>2026-05-02T09:01:57.73Z</time></trkpt><trkpt lat="44.1261233" lon="11.3831833"><ele>474.0</ele><time>2026-05-02T09:01:58.728Z</time></trkpt><trkpt lat="44.1261067" lon="11.3830233"><ele>474.0</ele><time>2026-05-02T09:01:59.729Z</time></trkpt><trkpt lat="44.12613" lon="11.3828567"><ele>474.0</ele><time>2026-05-02T09:02:00.729Z</time></trkpt><trkpt lat="44.1262017" lon="11.3826933"><ele>474.0</ele><time>2026-05-02T09:02:01.729Z</time></trkpt><trkpt lat="44.1263083" lon="11.3825417"><ele>472.79999999999995</ele><time>2026-05-02T09:02:02.729Z</time></trkpt><trkpt lat="44.1264033" lon="11.3824083"><ele>471.59999999999997</ele><time>2026-05-02T09:02:03.73Z</time></trkpt><trkpt lat="44.1264667" lon="11.3822867"><ele>470.4</ele><time>2026-05-02T09:02:04.73Z</time></trkpt><trkpt lat="44.1264917" lon="11.3821683"><ele>469.2</ele><time>2026-05-02T09:02:05.729Z</time></trkpt><trkpt lat="44.126485" lon="11.3820617"><ele>468.0</ele><time>2026-05-02T09:02:06.729Z</time></trkpt><trkpt lat="44.126395" lon="11.38203"><ele>465.75</ele><time>2026-05-02T09:02:07.729Z</time></trkpt><trkpt lat="44.1262867" lon="11.382035"><ele>463.5</ele><time>2026-05-02T09:02:08.729Z</time></trkpt><trkpt lat="44.1261517" lon="11.3820767"><ele>461.25</ele><time>2026-05-02T09:02:09.729Z</time></trkpt><trkpt lat="44.1260067" lon="11.3821"><ele>459.0</ele><time>2026-05-02T09:02:10.727Z</time></trkpt><trkpt lat="44.1258583" lon="11.3820833"><ele>457.33333333333337</ele><time>2026-05-02T09:02:11.728Z</time></trkpt><trkpt lat="44.1257067" lon="11.382035"><ele>455.6666666666667</ele><time>2026-05-02T09:02:12.726Z</time></trkpt><trkpt lat="44.125555" lon="11.381955"><ele>454.0</ele><time>2026-05-02T09:02:13.729Z</time></trkpt><trkpt lat="44.12541" lon="11.3818783"><ele>454.0</ele><time>2026-05-02T09:02:14.729Z</time></trkpt><trkpt lat="44.1252717" lon="11.3817967"><ele>454.0</ele><time>2026-05-02T09:02:15.725Z</time></trkpt><trkpt lat="44.1251417" lon="11.38173"><ele>454.0</ele><time>2026-05-02T09:02:16.726Z</time></trkpt><trkpt lat="44.125015" lon="11.3816983"><ele>454.0</ele><time>2026-05-02T09:02:17.729Z</time></trkpt><trkpt lat="44.1248967" lon="11.381735"><ele>453.0</ele><time>2026-05-02T09:02:18.729Z</time></trkpt><trkpt lat="44.1247933" lon="11.3818267"><ele>452.0</ele><time>2026-05-02T09:02:19.729Z</time></trkpt><trkpt lat="44.1247167" lon="11.381975"><ele>451.0</ele><time>2026-05-02T09:02:20.728Z</time></trkpt><trkpt lat="44.1246633" lon="11.3821583"><ele>450.0</ele><time>2026-05-02T09:02:21.728Z</time></trkpt><trkpt lat="44.124595" lon="11.3823217"><ele>450.0</ele><time>2026-05-02T09:02:22.728Z</time></trkpt><trkpt lat="44.1245117" lon="11.38244"><ele>450.0</ele><time>2026-05-02T09:02:23.729Z</time></trkpt><trkpt lat="44.1244183" lon="11.3825133"><ele>450.0</ele><time>2026-05-02T09:02:24.729Z</time></trkpt><trkpt lat="44.12432" lon="11.3825283"><ele>450.0</ele><time>2026-05-02T09:02:25.728Z</time></trkpt><trkpt lat="44.1242183" lon="11.3824733"><ele>450.0</ele><time>2026-05-02T09:02:26.729Z</time></trkpt><trkpt lat="44.1241133" lon="11.3823683"><ele>451.66666666666663</ele><time>2026-05-02T09:02:27.727Z</time></trkpt><trkpt lat="44.1240017" lon="11.3822383"><ele>453.3333333333333</ele><time>2026-05-02T09:02:28.726Z</time></trkpt><trkpt lat="44.1238833" lon="11.3820933"><ele>455.0</ele><time>2026-05-02T09:02:29.73Z</time></trkpt><trkpt lat="44.1237667" lon="11.3819517"><ele>452.0</ele><time>2026-05-02T09:02:30.729Z</time></trkpt><trkpt lat="44.1236583" lon="11.381815"><ele>449.0</ele><time>2026-05-02T09:02:31.729Z</time></trkpt><trkpt lat="44.1235483" lon="11.3816867"><ele>446.0</ele><time>2026-05-02T09:02:32.728Z</time></trkpt><trkpt lat="44.123445" lon="11.3815583"><ele>443.0</ele><time>2026-05-02T09:02:33.729Z</time></trkpt><trkpt lat="44.1233417" lon="11.3814333"><ele>442.25</ele><time>2026-05-02T09:02:34.729Z</time></trkpt><trkpt lat="44.12324" lon="11.3813133"><ele>441.5</ele><time>2026-05-02T09:02:35.729Z</time></trkpt><trkpt lat="44.1231433" lon="11.3811967"><ele>440.75</ele><time>2026-05-02T09:02:36.73Z</time></trkpt><trkpt lat="44.1230483" lon="11.38108"><ele>440.0</ele><time>2026-05-02T09:02:37.727Z</time></trkpt><trkpt lat="44.1229567" lon="11.38097"><ele>440.0</ele><time>2026-05-02T09:02:38.728Z</time></trkpt><trkpt lat="44.1228683" lon="11.3808617"><ele>440.0</ele><time>2026-05-02T09:02:39.729Z</time></trkpt><trkpt lat="44.1227783" lon="11.38076"><ele>440.0</ele><time>2026-05-02T09:02:40.729Z</time></trkpt><trkpt lat="44.1226867" lon="11.3806717"><ele>440.0</ele><time>2026-05-02T09:02:41.729Z</time></trkpt><trkpt lat="44.12259" lon="11.380595"><ele>440.0</ele><time>2026-05-02T09:02:42.727Z</time></trkpt><trkpt lat="44.1224867" lon="11.3805333"><ele>440.0</ele><time>2026-05-02T09:02:43.728Z</time></trkpt><trkpt lat="44.122375" lon="11.3805017"><ele>440.0</ele><time>2026-05-02T09:02:44.73Z</time></trkpt><trkpt lat="44.122255" lon="11.380475"><ele>440.0</ele><time>2026-05-02T09:02:45.729Z</time></trkpt><trkpt lat="44.122135" lon="11.380455"><ele>437.8</ele><time>2026-05-02T09:02:46.728Z</time></trkpt><trkpt lat="44.1220233" lon="11.3804267"><ele>435.6</ele><time>2026-05-02T09:02:47.729Z</time></trkpt><trkpt lat="44.12192" lon="11.38039"><ele>433.4</ele><time>2026-05-02T09:02:48.729Z</time></trkpt><trkpt lat="44.1218183" lon="11.3803583"><ele>431.2</ele><time>2026-05-02T09:02:49.729Z</time></trkpt><trkpt lat="44.1217167" lon="11.3803317"><ele>429.0</ele><time>2026-05-02T09:02:50.729Z</time></trkpt><trkpt lat="44.1216217" lon="11.38031"><ele>428.4</ele><time>2026-05-02T09:02:51.729Z</time></trkpt><trkpt lat="44.1215317" lon="11.380285"><ele>427.79999999999995</ele><time>2026-05-02T09:02:52.728Z</time></trkpt><trkpt lat="44.121445" lon="11.380275"><ele>427.20000000000005</ele><time>2026-05-02T09:02:53.725Z</time></trkpt><trkpt lat="44.1213583" lon="11.3802917"><ele>426.6</ele><time>2026-05-02T09:02:54.729Z</time></trkpt><trkpt lat="44.1212683" lon="11.3803117"><ele>426.0</ele><time>2026-05-02T09:02:55.729Z</time></trkpt><trkpt lat="44.1211767" lon="11.3803433"><ele>426.0</ele><time>2026-05-02T09:02:56.729Z</time></trkpt><trkpt lat="44.1210833" lon="11.3803833"><ele>426.0</ele><time>2026-05-02T09:02:57.727Z</time></trkpt><trkpt lat="44.1209967" lon="11.3804183"><ele>426.0</ele><time>2026-05-02T09:02:58.728Z</time></trkpt><trkpt lat="44.12092" lon="11.38044"><ele>426.0</ele><time>2026-05-02T09:02:59.728Z</time></trkpt><trkpt lat="44.1208483" lon="11.3804483"><ele>426.0</ele><time>2026-05-02T09:03:00.729Z</time></trkpt><trkpt lat="44.1207417" lon="11.38041"><ele>426.0</ele><time>2026-05-02T09:03:02.728Z</time></trkpt><trkpt lat="44.1206533" lon="11.380295"><ele>426.0</ele><time>2026-05-02T09:03:04.728Z</time></trkpt><trkpt lat="44.12061" lon="11.3802217"><ele>426.0</ele><time>2026-05-02T09:03:05.729Z</time></trkpt><trkpt lat="44.120565" lon="11.38014"><ele>426.0</ele><time>2026-05-02T09:03:06.729Z</time></trkpt><trkpt lat="44.1205167" lon="11.3800567"><ele>426.0</ele><time>2026-05-02T09:03:07.729Z</time></trkpt><trkpt lat="44.120475" lon="11.3799667"><ele>426.0</ele><time>2026-05-02T09:03:08.73Z</time></trkpt><trkpt lat="44.1204467" lon="11.379885"><ele>426.0</ele><time>2026-05-02T09:03:09.727Z</time></trkpt><trkpt lat="44.120415" lon="11.379755"><ele>426.0</ele><time>2026-05-02T09:03:11.73Z</time></trkpt><trkpt lat="44.1203467" lon="11.3796667"><ele>426.0</ele><time>2026-05-02T09:03:52.727Z</time></trkpt><trkpt lat="44.120285" lon="11.3795183"><ele>426.0</ele><time>2026-05-02T09:03:54.73Z</time></trkpt><trkpt lat="44.1202567" lon="11.3794367"><ele>426.0</ele><time>2026-05-02T09:03:55.727Z</time></trkpt><trkpt lat="44.1202267" lon="11.3793517"><ele>426.0</ele><time>2026-05-02T09:03:56.727Z</time></trkpt><trkpt lat="44.120205" lon="11.379265"><ele>426.0</ele><time>2026-05-02T09:03:57.728Z</time></trkpt><trkpt lat="44.1201817" lon="11.3791833"><ele>426.0</ele><time>2026-05-02T09:03:58.727Z</time></trkpt><trkpt lat="44.1201333" lon="11.3790567"><ele>426.0</ele><time>2026-05-02T09:04:00.726Z</time></trkpt><trkpt lat="44.1200683" lon="11.37905"><ele>426.0</ele><time>2026-05-02T09:04:02.729Z</time></trkpt><trkpt lat="44.1199833" lon="11.3791"><ele>426.0</ele><time>2026-05-02T09:04:04.728Z</time></trkpt><trkpt lat="44.1198683" lon="11.3791583"><ele>426.0</ele><time>2026-05-02T09:04:06.729Z</time></trkpt><trkpt lat="44.1198067" lon="11.379185"><ele>426.0</ele><time>2026-05-02T09:04:07.729Z</time></trkpt><trkpt lat="44.1197433" lon="11.37921"><ele>426.1666666666667</ele><time>2026-05-02T09:04:08.729Z</time></trkpt><trkpt lat="44.1196767" lon="11.37924"><ele>426.33333333333337</ele><time>2026-05-02T09:04:09.728Z</time></trkpt><trkpt lat="44.11961" lon="11.3792667"><ele>426.5</ele><time>2026-05-02T09:04:10.728Z</time></trkpt><trkpt lat="44.1195417" lon="11.3792983"><ele>426.6666666666667</ele><time>2026-05-02T09:04:11.73Z</time></trkpt><trkpt lat="44.119475" lon="11.37933"><ele>426.83333333333337</ele><time>2026-05-02T09:04:12.727Z</time></trkpt><trkpt lat="44.1193683" lon="11.3793783"><ele>427.0</ele><time>2026-05-02T09:04:14.728Z</time></trkpt><trkpt lat="44.1192667" lon="11.3794183"><ele>427.0</ele><time>2026-05-02T09:04:16.727Z</time></trkpt><trkpt lat="44.119155" lon="11.379465"><ele>427.00000000000006</ele><time>2026-05-02T09:04:18.728Z</time></trkpt><trkpt lat="44.1190383" lon="11.379535"><ele>427.00000000000006</ele><time>2026-05-02T09:04:20.728Z</time></trkpt><trkpt lat="44.1189783" lon="11.3795767"><ele>427.0</ele><time>2026-05-02T09:04:21.728Z</time></trkpt><trkpt lat="44.1188667" lon="11.3796433"><ele>427.0</ele><time>2026-05-02T09:04:23.729Z</time></trkpt><trkpt lat="44.1187483" lon="11.3797"><ele>426.33333333333337</ele><time>2026-05-02T09:04:25.727Z</time></trkpt><trkpt lat="44.1186433" lon="11.3797517"><ele>425.6666666666667</ele><time>2026-05-02T09:04:27.728Z</time></trkpt><trkpt lat="44.118535" lon="11.3798117"><ele>425.0</ele><time>2026-05-02T09:04:29.729Z</time></trkpt><trkpt lat="44.1184683" lon="11.3798467"><ele>424.33333333333337</ele><time>2026-05-02T09:04:30.729Z</time></trkpt><trkpt lat="44.1184067" lon="11.3798733"><ele>423.6666666666667</ele><time>2026-05-02T09:04:31.727Z</time></trkpt><trkpt lat="44.1183433" lon="11.3799033"><ele>423.0</ele><time>2026-05-02T09:04:32.727Z</time></trkpt><trkpt lat="44.1182833" lon="11.37993"><ele>422.57142857142856</ele><time>2026-05-02T09:04:33.729Z</time></trkpt><trkpt lat="44.118215" lon="11.3799667"><ele>422.14285714285717</ele><time>2026-05-02T09:04:34.729Z</time></trkpt><trkpt lat="44.1181517" lon="11.3799983"><ele>421.7142857142857</ele><time>2026-05-02T09:04:35.728Z</time></trkpt><trkpt lat="44.1180833" lon="11.3800317"><ele>421.2857142857143</ele><time>2026-05-02T09:04:36.728Z</time></trkpt><trkpt lat="44.1180183" lon="11.3800517"><ele>420.8571428571429</ele><time>2026-05-02T09:04:37.728Z</time></trkpt><trkpt lat="44.1179517" lon="11.3800733"><ele>420.42857142857144</ele><time>2026-05-02T09:04:38.729Z</time></trkpt><trkpt lat="44.117885" lon="11.3800967"><ele>420.0</ele><time>2026-05-02T09:04:39.729Z</time></trkpt><trkpt lat="44.11782" lon="11.3801233"><ele>420.0</ele><time>2026-05-02T09:04:40.727Z</time></trkpt><trkpt lat="44.1177567" lon="11.3801567"><ele>420.0</ele><time>2026-05-02T09:04:41.728Z</time></trkpt><trkpt lat="44.11765" lon="11.3802017"><ele>420.0</ele><time>2026-05-02T09:04:43.729Z</time></trkpt><trkpt lat="44.1175617" lon="11.3802"><ele>420.0</ele><time>2026-05-02T09:04:46.728Z</time></trkpt><trkpt lat="44.1175083" lon="11.38012"><ele>420.0</ele><time>2026-05-02T09:04:48.728Z</time></trkpt><trkpt lat="44.11746" lon="11.37998"><ele>420.0</ele><time>2026-05-02T09:04:50.729Z</time></trkpt><trkpt lat="44.1174333" lon="11.3798333"><ele>420.0</ele><time>2026-05-02T09:04:52.728Z</time></trkpt><trkpt lat="44.1174067" lon="11.3797483"><ele>420.0</ele><time>2026-05-02T09:04:54.729Z</time></trkpt><trkpt lat="44.1173517" lon="11.3797"><ele>420.0</ele><time>2026-05-02T09:04:59.728Z</time></trkpt><trkpt lat="44.1172567" lon="11.379705"><ele>420.0</ele><time>2026-05-02T09:05:01.729Z</time></trkpt><trkpt lat="44.1171867" lon="11.379735"><ele>420.0</ele><time>2026-05-02T09:05:02.728Z</time></trkpt><trkpt lat="44.1171133" lon="11.37977"><ele>419.6</ele><time>2026-05-02T09:05:03.729Z</time></trkpt><trkpt lat="44.11703" lon="11.3797983"><ele>419.2</ele><time>2026-05-02T09:05:04.726Z</time></trkpt><trkpt lat="44.116925" lon="11.3798383"><ele>418.79999999999995</ele><time>2026-05-02T09:05:05.729Z</time></trkpt><trkpt lat="44.1168117" lon="11.379885"><ele>418.4</ele><time>2026-05-02T09:05:06.73Z</time></trkpt><trkpt lat="44.11671" lon="11.3799317"><ele>418.0</ele><time>2026-05-02T09:05:07.727Z</time></trkpt><trkpt lat="44.116595" lon="11.37998"><ele>418.25</ele><time>2026-05-02T09:05:08.728Z</time></trkpt><trkpt lat="44.1164783" lon="11.3800233"><ele>418.5</ele><time>2026-05-02T09:05:09.727Z</time></trkpt><trkpt lat="44.1163367" lon="11.3800667"><ele>418.75</ele><time>2026-05-02T09:05:10.728Z</time></trkpt><trkpt lat="44.1161933" lon="11.3801167"><ele>419.0</ele><time>2026-05-02T09:05:11.728Z</time></trkpt><trkpt lat="44.1160583" lon="11.3801617"><ele>419.0</ele><time>2026-05-02T09:05:12.727Z</time></trkpt><trkpt lat="44.11592" lon="11.3802117"><ele>419.0</ele><time>2026-05-02T09:05:13.727Z</time></trkpt><trkpt lat="44.1157833" lon="11.3802333"><ele>419.0</ele><time>2026-05-02T09:05:14.728Z</time></trkpt><trkpt lat="44.1156417" lon="11.3802317"><ele>419.0</ele><time>2026-05-02T09:05:15.725Z</time></trkpt><trkpt lat="44.1155017" lon="11.3802033"><ele>420.5</ele><time>2026-05-02T09:05:16.729Z</time></trkpt><trkpt lat="44.1153633" lon="11.38019"><ele>422.0</ele><time>2026-05-02T09:05:17.728Z</time></trkpt><trkpt lat="44.1152383" lon="11.3802033"><ele>423.5</ele><time>2026-05-02T09:05:18.728Z</time></trkpt><trkpt lat="44.1151183" lon="11.380255"><ele>425.0</ele><time>2026-05-02T09:05:19.728Z</time></trkpt><trkpt lat="44.1149983" lon="11.3803433"><ele>425.66666666666663</ele><time>2026-05-02T09:05:20.728Z</time></trkpt><trkpt lat="44.114875" lon="11.380455"><ele>426.33333333333337</ele><time>2026-05-02T09:05:21.729Z</time></trkpt><trkpt lat="44.114745" lon="11.3805717"><ele>427.0</ele><time>2026-05-02T09:05:22.726Z</time></trkpt><trkpt lat="44.1144667" lon="11.3807867"><ele>427.0</ele><time>2026-05-02T09:05:24.729Z</time></trkpt><trkpt lat="44.1143233" lon="11.3808567"><ele>427.0</ele><time>2026-05-02T09:05:25.727Z</time></trkpt><trkpt lat="44.11418" lon="11.3808883"><ele>427.0</ele><time>2026-05-02T09:05:26.73Z</time></trkpt><trkpt lat="44.1140383" lon="11.3808783"><ele>427.0</ele><time>2026-05-02T09:05:27.728Z</time></trkpt><trkpt lat="44.1138883" lon="11.380825"><ele>425.6666666666667</ele><time>2026-05-02T09:05:28.727Z</time></trkpt><trkpt lat="44.113735" lon="11.3807433"><ele>424.33333333333337</ele><time>2026-05-02T09:05:29.729Z</time></trkpt><trkpt lat="44.1135733" lon="11.38065"><ele>423.0</ele><time>2026-05-02T09:05:30.729Z</time></trkpt><trkpt lat="44.1134067" lon="11.38056"><ele>424.66666666666663</ele><time>2026-05-02T09:05:31.729Z</time></trkpt><trkpt lat="44.1132383" lon="11.3804617"><ele>426.3333333333333</ele><time>2026-05-02T09:05:32.728Z</time></trkpt><trkpt lat="44.113065" lon="11.3803667"><ele>428.0</ele><time>2026-05-02T09:05:33.729Z</time></trkpt><trkpt lat="44.1128883" lon="11.38027"><ele>428.0</ele><time>2026-05-02T09:05:34.729Z</time></trkpt><trkpt lat="44.11271" lon="11.38017"><ele>428.0</ele><time>2026-05-02T09:05:35.727Z</time></trkpt><trkpt lat="44.11253" lon="11.3800667"><ele>428.0</ele><time>2026-05-02T09:05:36.729Z</time></trkpt><trkpt lat="44.1123483" lon="11.379965"><ele>427.3333333333333</ele><time>2026-05-02T09:05:37.728Z</time></trkpt><trkpt lat="44.1121633" lon="11.3798683"><ele>426.66666666666663</ele><time>2026-05-02T09:05:38.729Z</time></trkpt><trkpt lat="44.1119833" lon="11.3797783"><ele>426.0</ele><time>2026-05-02T09:05:39.727Z</time></trkpt><trkpt lat="44.1118033" lon="11.3796933"><ele>426.66666666666663</ele><time>2026-05-02T09:05:40.727Z</time></trkpt><trkpt lat="44.1116183" lon="11.379645"><ele>427.3333333333333</ele><time>2026-05-02T09:05:41.728Z</time></trkpt><trkpt lat="44.1114267" lon="11.3796467"><ele>428.0</ele><time>2026-05-02T09:05:42.729Z</time></trkpt><trkpt lat="44.1112367" lon="11.3796917"><ele>428.0</ele><time>2026-05-02T09:05:43.728Z</time></trkpt><trkpt lat="44.1110417" lon="11.3797483"><ele>428.0</ele><time>2026-05-02T09:05:44.729Z</time></trkpt><trkpt lat="44.1108433" lon="11.3798133"><ele>428.0</ele><time>2026-05-02T09:05:45.728Z</time></trkpt><trkpt lat="44.1106417" lon="11.3798817"><ele>429.3333333333333</ele><time>2026-05-02T09:05:46.728Z</time></trkpt><trkpt lat="44.1104417" lon="11.3799517"><ele>430.66666666666663</ele><time>2026-05-02T09:05:47.729Z</time></trkpt><trkpt lat="44.1102517" lon="11.38002"><ele>432.0</ele><time>2026-05-02T09:05:48.729Z</time></trkpt><trkpt lat="44.1100683" lon="11.38007"><ele>431.0</ele><time>2026-05-02T09:05:49.732Z</time></trkpt><trkpt lat="44.1098833" lon="11.3800917"><ele>430.0</ele><time>2026-05-02T09:05:50.727Z</time></trkpt><trkpt lat="44.1096983" lon="11.3800717"><ele>429.0</ele><time>2026-05-02T09:05:51.728Z</time></trkpt><trkpt lat="44.10951" lon="11.380015"><ele>429.0</ele><time>2026-05-02T09:05:52.725Z</time></trkpt><trkpt lat="44.109325" lon="11.3799317"><ele>429.0</ele><time>2026-05-02T09:05:53.728Z</time></trkpt><trkpt lat="44.10913" lon="11.3798367"><ele>429.0</ele><time>2026-05-02T09:05:54.728Z</time></trkpt><trkpt lat="44.1089267" lon="11.37974"><ele>431.0</ele><time>2026-05-02T09:05:55.726Z</time></trkpt><trkpt lat="44.1087217" lon="11.3796417"><ele>433.0</ele><time>2026-05-02T09:05:56.73Z</time></trkpt><trkpt lat="44.1085183" lon="11.3795483"><ele>435.0</ele><time>2026-05-02T09:05:57.727Z</time></trkpt><trkpt lat="44.1083133" lon="11.3794517"><ele>433.33333333333337</ele><time>2026-05-02T09:05:58.728Z</time></trkpt><trkpt lat="44.10811" lon="11.3793517"><ele>431.6666666666667</ele><time>2026-05-02T09:05:59.727Z</time></trkpt><trkpt lat="44.107905" lon="11.379245"><ele>430.0</ele><time>2026-05-02T09:06:00.729Z</time></trkpt><trkpt lat="44.1076967" lon="11.3791417"><ele>430.0</ele><time>2026-05-02T09:06:01.728Z</time></trkpt><trkpt lat="44.1074867" lon="11.3790383"><ele>430.0</ele><time>2026-05-02T09:06:02.73Z</time></trkpt><trkpt lat="44.1072783" lon="11.3789333"><ele>430.0</ele><time>2026-05-02T09:06:03.728Z</time></trkpt><trkpt lat="44.1070683" lon="11.3788317"><ele>431.6666666666667</ele><time>2026-05-02T09:06:04.726Z</time></trkpt><trkpt lat="44.106855" lon="11.3787367"><ele>433.33333333333337</ele><time>2026-05-02T09:06:05.728Z</time></trkpt><trkpt lat="44.1066383" lon="11.378655"><ele>435.0</ele><time>2026-05-02T09:06:06.728Z</time></trkpt><trkpt lat="44.1064167" lon="11.3785833"><ele>435.0</ele><time>2026-05-02T09:06:07.729Z</time></trkpt><trkpt lat="44.1061983" lon="11.3785267"><ele>435.0</ele><time>2026-05-02T09:06:08.73Z</time></trkpt><trkpt lat="44.1059917" lon="11.3784867"><ele>435.0</ele><time>2026-05-02T09:06:09.727Z</time></trkpt><trkpt lat="44.105785" lon="11.3784517"><ele>436.0</ele><time>2026-05-02T09:06:10.727Z</time></trkpt><trkpt lat="44.1055767" lon="11.3784233"><ele>437.0</ele><time>2026-05-02T09:06:11.727Z</time></trkpt><trkpt lat="44.1053683" lon="11.3783967"><ele>438.0</ele><time>2026-05-02T09:06:12.728Z</time></trkpt><trkpt lat="44.1051567" lon="11.3783667"><ele>438.0</ele><time>2026-05-02T09:06:13.728Z</time></trkpt><trkpt lat="44.1049417" lon="11.3783417"><ele>438.0</ele><time>2026-05-02T09:06:14.729Z</time></trkpt><trkpt lat="44.1047267" lon="11.3783067"><ele>438.0</ele><time>2026-05-02T09:06:15.728Z</time></trkpt><trkpt lat="44.1045167" lon="11.3782683"><ele>438.33333333333337</ele><time>2026-05-02T09:06:16.727Z</time></trkpt><trkpt lat="44.104305" lon="11.3782367"><ele>438.6666666666667</ele><time>2026-05-02T09:06:17.73Z</time></trkpt><trkpt lat="44.1040917" lon="11.37821"><ele>439.0</ele><time>2026-05-02T09:06:18.729Z</time></trkpt><trkpt lat="44.1038783" lon="11.378185"><ele>439.0</ele><time>2026-05-02T09:06:19.728Z</time></trkpt><trkpt lat="44.10367" lon="11.3781567"><ele>439.0</ele><time>2026-05-02T09:06:20.729Z</time></trkpt><trkpt lat="44.1034617" lon="11.3781317"><ele>439.0</ele><time>2026-05-02T09:06:21.728Z</time></trkpt><trkpt lat="44.1032533" lon="11.3781083"><ele>439.33333333333337</ele><time>2026-05-02T09:06:22.729Z</time></trkpt><trkpt lat="44.1030467" lon="11.37809"><ele>439.66666666666663</ele><time>2026-05-02T09:06:23.727Z</time></trkpt><trkpt lat="44.1028433" lon="11.3780767"><ele>440.0</ele><time>2026-05-02T09:06:24.728Z</time></trkpt><trkpt lat="44.10264" lon="11.3780867"><ele>440.0</ele><time>2026-05-02T09:06:25.729Z</time></trkpt><trkpt lat="44.1024383" lon="11.3781183"><ele>440.0</ele><time>2026-05-02T09:06:26.727Z</time></trkpt><trkpt lat="44.1022367" lon="11.3781817"><ele>440.0</ele><time>2026-05-02T09:06:27.727Z</time></trkpt><trkpt lat="44.102045" lon="11.378275"><ele>440.3333333333333</ele><time>2026-05-02T09:06:28.728Z</time></trkpt><trkpt lat="44.1018617" lon="11.378385"><ele>440.66666666666663</ele><time>2026-05-02T09:06:29.73Z</time></trkpt><trkpt lat="44.1016767" lon="11.3785033"><ele>441.0</ele><time>2026-05-02T09:06:30.729Z</time></trkpt><trkpt lat="44.10149" lon="11.3786267"><ele>441.66666666666663</ele><time>2026-05-02T09:06:31.729Z</time></trkpt><trkpt lat="44.1013033" lon="11.3787483"><ele>442.3333333333333</ele><time>2026-05-02T09:06:32.729Z</time></trkpt><trkpt lat="44.10112" lon="11.37887"><ele>443.0</ele><time>2026-05-02T09:06:33.727Z</time></trkpt><trkpt lat="44.1009417" lon="11.3789917"><ele>443.0</ele><time>2026-05-02T09:06:34.729Z</time></trkpt><trkpt lat="44.100765" lon="11.3791183"><ele>443.0</ele><time>2026-05-02T09:06:35.729Z</time></trkpt><trkpt lat="44.100585" lon="11.3792483"><ele>443.0</ele><time>2026-05-02T09:06:36.728Z</time></trkpt><trkpt lat="44.100405" lon="11.3793683"><ele>444.3333333333333</ele><time>2026-05-02T09:06:37.73Z</time></trkpt><trkpt lat="44.1002233" lon="11.379485"><ele>445.66666666666663</ele><time>2026-05-02T09:06:38.729Z</time></trkpt><trkpt lat="44.1000483" lon="11.3796"><ele>447.0</ele><time>2026-05-02T09:06:39.729Z</time></trkpt><trkpt lat="44.0998783" lon="11.379715"><ele>447.0</ele><time>2026-05-02T09:06:40.729Z</time></trkpt><trkpt lat="44.0997" lon="11.3798367"><ele>447.0</ele><time>2026-05-02T09:06:41.728Z</time></trkpt><trkpt lat="44.09952" lon="11.37997"><ele>447.0</ele><time>2026-05-02T09:06:42.729Z</time></trkpt><trkpt lat="44.0993267" lon="11.3801"><ele>447.0</ele><time>2026-05-02T09:06:43.728Z</time></trkpt><trkpt lat="44.09913" lon="11.3802333"><ele>447.0</ele><time>2026-05-02T09:06:44.727Z</time></trkpt><trkpt lat="44.09893" lon="11.3803583"><ele>447.0</ele><time>2026-05-02T09:06:45.728Z</time></trkpt><trkpt lat="44.0987333" lon="11.3804833"><ele>447.66666666666663</ele><time>2026-05-02T09:06:46.728Z</time></trkpt><trkpt lat="44.098535" lon="11.3806033"><ele>448.3333333333333</ele><time>2026-05-02T09:06:47.73Z</time></trkpt><trkpt lat="44.0983383" lon="11.3807133"><ele>449.0</ele><time>2026-05-02T09:06:48.729Z</time></trkpt><trkpt lat="44.09815" lon="11.3808117"><ele>451.66666666666663</ele><time>2026-05-02T09:06:49.728Z</time></trkpt><trkpt lat="44.0979683" lon="11.3808683"><ele>454.33333333333337</ele><time>2026-05-02T09:06:50.728Z</time></trkpt><trkpt lat="44.0977817" lon="11.38088"><ele>457.0</ele><time>2026-05-02T09:06:51.729Z</time></trkpt><trkpt lat="44.097585" lon="11.38086"><ele>460.33333333333337</ele><time>2026-05-02T09:06:52.729Z</time></trkpt><trkpt lat="44.0973883" lon="11.38082"><ele>463.66666666666663</ele><time>2026-05-02T09:06:53.728Z</time></trkpt><trkpt lat="44.0971967" lon="11.3807917"><ele>467.0</ele><time>2026-05-02T09:06:54.729Z</time></trkpt><trkpt lat="44.0970117" lon="11.3808083"><ele>467.0</ele><time>2026-05-02T09:06:55.729Z</time></trkpt><trkpt lat="44.0968367" lon="11.3808817"><ele>467.0</ele><time>2026-05-02T09:06:56.73Z</time></trkpt><trkpt lat="44.0966567" lon="11.3809967"><ele>467.0</ele><time>2026-05-02T09:06:57.728Z</time></trkpt><trkpt lat="44.0964667" lon="11.3811283"><ele>469.66666666666663</ele><time>2026-05-02T09:06:58.727Z</time></trkpt><trkpt lat="44.0962767" lon="11.3812583"><ele>472.33333333333337</ele><time>2026-05-02T09:06:59.73Z</time></trkpt><trkpt lat="44.0960967" lon="11.3813833"><ele>475.0</ele><time>2026-05-02T09:07:00.728Z</time></trkpt><trkpt lat="44.095935" lon="11.381535"><ele>475.0</ele><time>2026-05-02T09:07:01.728Z</time></trkpt><trkpt lat="44.0957983" lon="11.3817067"><ele>475.0</ele><time>2026-05-02T09:07:02.728Z</time></trkpt><trkpt lat="44.0957" lon="11.3819183"><ele>475.0</ele><time>2026-05-02T09:07:03.728Z</time></trkpt><trkpt lat="44.0956333" lon="11.3821283"><ele>476.0</ele><time>2026-05-02T09:07:04.727Z</time></trkpt><trkpt lat="44.095565" lon="11.3823067"><ele>477.0</ele><time>2026-05-02T09:07:05.728Z</time></trkpt><trkpt lat="44.0954733" lon="11.3824333"><ele>478.0</ele><time>2026-05-02T09:07:06.729Z</time></trkpt><trkpt lat="44.09535" lon="11.3825017"><ele>479.0</ele><time>2026-05-02T09:07:07.728Z</time></trkpt><trkpt lat="44.0952033" lon="11.382515"><ele>479.0</ele><time>2026-05-02T09:07:08.73Z</time></trkpt><trkpt lat="44.0950317" lon="11.3824783"><ele>479.0</ele><time>2026-05-02T09:07:09.73Z</time></trkpt><trkpt lat="44.094845" lon="11.3823933"><ele>479.0</ele><time>2026-05-02T09:07:10.728Z</time></trkpt><trkpt lat="44.0946683" lon="11.3822733"><ele>485.3333333333333</ele><time>2026-05-02T09:07:11.727Z</time></trkpt><trkpt lat="44.094515" lon="11.3821417"><ele>491.66666666666663</ele><time>2026-05-02T09:07:12.726Z</time></trkpt><trkpt lat="44.09438" lon="11.38203"><ele>498.0</ele><time>2026-05-02T09:07:13.729Z</time></trkpt><trkpt lat="44.0942533" lon="11.3819683"><ele>498.0</ele><time>2026-05-02T09:07:14.729Z</time></trkpt><trkpt lat="44.094135" lon="11.381985"><ele>498.0</ele><time>2026-05-02T09:07:15.727Z</time></trkpt><trkpt lat="44.0940283" lon="11.3820733"><ele>498.0</ele><time>2026-05-02T09:07:16.727Z</time></trkpt><trkpt lat="44.09393" lon="11.3822417"><ele>498.0</ele><time>2026-05-02T09:07:17.729Z</time></trkpt><trkpt lat="44.0938367" lon="11.3824717"><ele>500.0</ele><time>2026-05-02T09:07:18.73Z</time></trkpt><trkpt lat="44.09375" lon="11.3826983"><ele>502.0</ele><time>2026-05-02T09:07:19.727Z</time></trkpt><trkpt lat="44.0936483" lon="11.38289"><ele>504.0</ele><time>2026-05-02T09:07:20.729Z</time></trkpt><trkpt lat="44.09352" lon="11.3830583"><ele>502.0</ele><time>2026-05-02T09:07:21.728Z</time></trkpt><trkpt lat="44.093365" lon="11.3831967"><ele>500.0</ele><time>2026-05-02T09:07:22.729Z</time></trkpt><trkpt lat="44.0932117" lon="11.383305"><ele>498.0</ele><time>2026-05-02T09:07:23.728Z</time></trkpt><trkpt lat="44.093075" lon="11.3833767"><ele>498.0</ele><time>2026-05-02T09:07:24.726Z</time></trkpt><trkpt lat="44.092955" lon="11.3833783"><ele>498.0</ele><time>2026-05-02T09:07:25.728Z</time></trkpt><trkpt lat="44.0928483" lon="11.3833117"><ele>498.0</ele><time>2026-05-02T09:07:26.728Z</time></trkpt><trkpt lat="44.09276" lon="11.3831767"><ele>498.0</ele><time>2026-05-02T09:07:27.728Z</time></trkpt><trkpt lat="44.0926833" lon="11.3830283"><ele>499.25</ele><time>2026-05-02T09:07:28.727Z</time></trkpt><trkpt lat="44.0925817" lon="11.3829117"><ele>500.5</ele><time>2026-05-02T09:07:29.727Z</time></trkpt><trkpt lat="44.092455" lon="11.38285"><ele>501.75</ele><time>2026-05-02T09:07:30.727Z</time></trkpt><trkpt lat="44.0923183" lon="11.3828533"><ele>503.0</ele><time>2026-05-02T09:07:31.727Z</time></trkpt><trkpt lat="44.0921983" lon="11.3828383"><ele>503.0</ele><time>2026-05-02T09:07:32.729Z</time></trkpt><trkpt lat="44.0921067" lon="11.3827583"><ele>503.0</ele><time>2026-05-02T09:07:33.729Z</time></trkpt><trkpt lat="44.0920567" lon="11.382605"><ele>503.0</ele><time>2026-05-02T09:07:34.729Z</time></trkpt><trkpt lat="44.0920483" lon="11.3824117"><ele>503.0</ele><time>2026-05-02T09:07:35.729Z</time></trkpt><trkpt lat="44.0920583" lon="11.382205"><ele>505.0</ele><time>2026-05-02T09:07:36.731Z</time></trkpt><trkpt lat="44.092035" lon="11.3820183"><ele>507.0</ele><time>2026-05-02T09:07:37.728Z</time></trkpt><trkpt lat="44.0919467" lon="11.3818667"><ele>509.0</ele><time>2026-05-02T09:07:38.729Z</time></trkpt><trkpt lat="44.0918133" lon="11.381745"><ele>511.0</ele><time>2026-05-02T09:07:39.729Z</time></trkpt><trkpt lat="44.0916417" lon="11.3816617"><ele>509.33333333333337</ele><time>2026-05-02T09:07:40.729Z</time></trkpt><trkpt lat="44.0914517" lon="11.381625"><ele>507.66666666666663</ele><time>2026-05-02T09:07:41.729Z</time></trkpt><trkpt lat="44.0912767" lon="11.3815833"><ele>506.0</ele><time>2026-05-02T09:07:42.727Z</time></trkpt><trkpt lat="44.0911133" lon="11.3814883"><ele>507.3333333333333</ele><time>2026-05-02T09:07:43.728Z</time></trkpt><trkpt lat="44.09097" lon="11.38133"><ele>508.66666666666663</ele><time>2026-05-02T09:07:44.729Z</time></trkpt><trkpt lat="44.0908317" lon="11.381115"><ele>510.0</ele><time>2026-05-02T09:07:45.728Z</time></trkpt><trkpt lat="44.090695" lon="11.38088"><ele>510.0</ele><time>2026-05-02T09:07:46.729Z</time></trkpt><trkpt lat="44.0905583" lon="11.3806417"><ele>510.0</ele><time>2026-05-02T09:07:47.728Z</time></trkpt><trkpt lat="44.0904333" lon="11.3803983"><ele>510.0</ele><time>2026-05-02T09:07:48.728Z</time></trkpt><trkpt lat="44.0903367" lon="11.3801417"><ele>513.3333333333334</ele><time>2026-05-02T09:07:49.728Z</time></trkpt><trkpt lat="44.090265" lon="11.379915"><ele>516.6666666666667</ele><time>2026-05-02T09:07:50.727Z</time></trkpt><trkpt lat="44.090185" lon="11.3797433"><ele>520.0</ele><time>2026-05-02T09:07:51.729Z</time></trkpt><trkpt lat="44.0900833" lon="11.3796117"><ele>523.0</ele><time>2026-05-02T09:07:52.726Z</time></trkpt><trkpt lat="44.0899267" lon="11.3795367"><ele>526.0</ele><time>2026-05-02T09:07:53.727Z</time></trkpt><trkpt lat="44.08976" lon="11.3794783"><ele>529.0</ele><time>2026-05-02T09:07:54.729Z</time></trkpt><trkpt lat="44.08961" lon="11.3793983"><ele>529.0</ele><time>2026-05-02T09:07:55.729Z</time></trkpt><trkpt lat="44.089475" lon="11.379275"><ele>529.0</ele><time>2026-05-02T09:07:56.728Z</time></trkpt><trkpt lat="44.0893633" lon="11.379085"><ele>529.0</ele><time>2026-05-02T09:07:57.727Z</time></trkpt><trkpt lat="44.0892717" lon="11.378885"><ele>530.75</ele><time>2026-05-02T09:07:58.728Z</time></trkpt><trkpt lat="44.089175" lon="11.378725"><ele>532.5</ele><time>2026-05-02T09:07:59.728Z</time></trkpt><trkpt lat="44.0890567" lon="11.3786267"><ele>534.25</ele><time>2026-05-02T09:08:00.728Z</time></trkpt><trkpt lat="44.0889233" lon="11.37861"><ele>536.0</ele><time>2026-05-02T09:08:01.728Z</time></trkpt><trkpt lat="44.0887683" lon="11.3786733"><ele>536.3333333333333</ele><time>2026-05-02T09:08:02.728Z</time></trkpt><trkpt lat="44.0885783" lon="11.37877"><ele>536.6666666666666</ele><time>2026-05-02T09:08:03.728Z</time></trkpt><trkpt lat="44.0883767" lon="11.3788633"><ele>537.0</ele><time>2026-05-02T09:08:04.729Z</time></trkpt><trkpt lat="44.08818" lon="11.378935"><ele>537.0</ele><time>2026-05-02T09:08:05.729Z</time></trkpt><trkpt lat="44.0880017" lon="11.37896"><ele>537.0</ele><time>2026-05-02T09:08:06.727Z</time></trkpt><trkpt lat="44.0878317" lon="11.3789317"><ele>537.0</ele><time>2026-05-02T09:08:07.727Z</time></trkpt><trkpt lat="44.0876617" lon="11.3788533"><ele>539.0</ele><time>2026-05-02T09:08:08.728Z</time></trkpt><trkpt lat="44.0874883" lon="11.3787417"><ele>541.0</ele><time>2026-05-02T09:08:09.726Z</time></trkpt><trkpt lat="44.0873" lon="11.3786267"><ele>543.0</ele><time>2026-05-02T09:08:10.728Z</time></trkpt><trkpt lat="44.087115" lon="11.378525"><ele>545.0</ele><time>2026-05-02T09:08:11.728Z</time></trkpt><trkpt lat="44.0869467" lon="11.3784317"><ele>547.0</ele><time>2026-05-02T09:08:12.727Z</time></trkpt><trkpt lat="44.0867833" lon="11.3783617"><ele>549.0</ele><time>2026-05-02T09:08:13.728Z</time></trkpt><trkpt lat="44.086615" lon="11.3783233"><ele>550.3333333333334</ele><time>2026-05-02T09:08:14.729Z</time></trkpt><trkpt lat="44.0864383" lon="11.37832"><ele>551.6666666666667</ele><time>2026-05-02T09:08:15.728Z</time></trkpt><trkpt lat="44.08625" lon="11.3783583"><ele>553.0</ele><time>2026-05-02T09:08:16.726Z</time></trkpt><trkpt lat="44.0860567" lon="11.3784233"><ele>553.0</ele><time>2026-05-02T09:08:17.727Z</time></trkpt><trkpt lat="44.085865" lon="11.378495"><ele>553.0</ele><time>2026-05-02T09:08:18.727Z</time></trkpt><trkpt lat="44.085675" lon="11.37856"><ele>553.0</ele><time>2026-05-02T09:08:19.729Z</time></trkpt><trkpt lat="44.0854933" lon="11.37863"><ele>555.6666666666667</ele><time>2026-05-02T09:08:20.73Z</time></trkpt><trkpt lat="44.085315" lon="11.3787117"><ele>558.3333333333334</ele><time>2026-05-02T09:08:21.729Z</time></trkpt><trkpt lat="44.0851467" lon="11.3788317"><ele>561.0</ele><time>2026-05-02T09:08:22.727Z</time></trkpt><trkpt lat="44.0849967" lon="11.3790017"><ele>564.0</ele><time>2026-05-02T09:08:23.727Z</time></trkpt><trkpt lat="44.0848583" lon="11.3792117"><ele>567.0</ele><time>2026-05-02T09:08:24.73Z</time></trkpt><trkpt lat="44.0847283" lon="11.3794433"><ele>570.0</ele><time>2026-05-02T09:08:25.728Z</time></trkpt><trkpt lat="44.0846067" lon="11.3796583"><ele>568.3333333333334</ele><time>2026-05-02T09:08:26.727Z</time></trkpt><trkpt lat="44.0844883" lon="11.3798383"><ele>566.6666666666667</ele><time>2026-05-02T09:08:27.729Z</time></trkpt><trkpt lat="44.0843717" lon="11.3799767"><ele>565.0</ele><time>2026-05-02T09:08:28.728Z</time></trkpt><trkpt lat="44.0842467" lon="11.3800817"><ele>565.0</ele><time>2026-05-02T09:08:29.729Z</time></trkpt><trkpt lat="44.0841233" lon="11.3801483"><ele>565.0</ele><time>2026-05-02T09:08:30.728Z</time></trkpt><trkpt lat="44.0840017" lon="11.38015"><ele>565.0</ele><time>2026-05-02T09:08:31.727Z</time></trkpt><trkpt lat="44.0838733" lon="11.3800933"><ele>565.0</ele><time>2026-05-02T09:08:32.728Z</time></trkpt><trkpt lat="44.0837417" lon="11.37999"><ele>567.0</ele><time>2026-05-02T09:08:33.728Z</time></trkpt><trkpt lat="44.0836083" lon="11.37986"><ele>569.0</ele><time>2026-05-02T09:08:34.729Z</time></trkpt><trkpt lat="44.0834667" lon="11.3797417"><ele>571.0</ele><time>2026-05-02T09:08:35.728Z</time></trkpt><trkpt lat="44.0833183" lon="11.3796433"><ele>576.3333333333334</ele><time>2026-05-02T09:08:36.727Z</time></trkpt><trkpt lat="44.0831633" lon="11.379595"><ele>581.6666666666666</ele><time>2026-05-02T09:08:37.728Z</time></trkpt><trkpt lat="44.0830117" lon="11.37961"><ele>587.0</ele><time>2026-05-02T09:08:38.729Z</time></trkpt><trkpt lat="44.0828633" lon="11.3796783"><ele>585.6666666666666</ele><time>2026-05-02T09:08:39.728Z</time></trkpt><trkpt lat="44.082715" lon="11.3798"><ele>584.3333333333334</ele><time>2026-05-02T09:08:40.729Z</time></trkpt><trkpt lat="44.0825833" lon="11.3799633"><ele>583.0</ele><time>2026-05-02T09:08:41.73Z</time></trkpt><trkpt lat="44.0824783" lon="11.380165"><ele>588.3333333333334</ele><time>2026-05-02T09:08:42.729Z</time></trkpt><trkpt lat="44.0823983" lon="11.3803933"><ele>593.6666666666666</ele><time>2026-05-02T09:08:43.729Z</time></trkpt><trkpt lat="44.082345" lon="11.3806583"><ele>599.0</ele><time>2026-05-02T09:08:44.727Z</time></trkpt><trkpt lat="44.0823033" lon="11.3809517"><ele>599.0</ele><time>2026-05-02T09:08:45.729Z</time></trkpt><trkpt lat="44.08226" lon="11.3812333"><ele>599.0</ele><time>2026-05-02T09:08:46.728Z</time></trkpt><trkpt lat="44.08223" lon="11.3814933"><ele>599.0</ele><time>2026-05-02T09:08:47.728Z</time></trkpt><trkpt lat="44.0822417" lon="11.3817267"><ele>599.0</ele><time>2026-05-02T09:08:48.729Z</time></trkpt><trkpt lat="44.0823083" lon="11.3819417"><ele>599.0</ele><time>2026-05-02T09:08:49.727Z</time></trkpt><trkpt lat="44.0824167" lon="11.382135"><ele>599.0</ele><time>2026-05-02T09:08:50.728Z</time></trkpt><trkpt lat="44.08254" lon="11.38231"><ele>596.0</ele><time>2026-05-02T09:08:51.728Z</time></trkpt><trkpt lat="44.082655" lon="11.3824783"><ele>593.0</ele><time>2026-05-02T09:08:52.728Z</time></trkpt><trkpt lat="44.0827367" lon="11.3826783"><ele>590.0</ele><time>2026-05-02T09:08:53.729Z</time></trkpt><trkpt lat="44.0827717" lon="11.3829033"><ele>592.0</ele><time>2026-05-02T09:08:54.728Z</time></trkpt><trkpt lat="44.0827617" lon="11.383135"><ele>594.0</ele><time>2026-05-02T09:08:55.728Z</time></trkpt><trkpt lat="44.0827183" lon="11.3833483"><ele>596.0</ele><time>2026-05-02T09:08:56.726Z</time></trkpt><trkpt lat="44.0826383" lon="11.3835117"><ele>596.0</ele><time>2026-05-02T09:08:57.729Z</time></trkpt><trkpt lat="44.08253" lon="11.3836183"><ele>596.0</ele><time>2026-05-02T09:08:58.729Z</time></trkpt><trkpt lat="44.0824033" lon="11.38366"><ele>596.0</ele><time>2026-05-02T09:08:59.729Z</time></trkpt><trkpt lat="44.082275" lon="11.3836367"><ele>596.0</ele><time>2026-05-02T09:09:00.729Z</time></trkpt><trkpt lat="44.0821483" lon="11.3835483"><ele>598.0</ele><time>2026-05-02T09:09:01.728Z</time></trkpt><trkpt lat="44.0820333" lon="11.3834133"><ele>600.0</ele><time>2026-05-02T09:09:02.728Z</time></trkpt><trkpt lat="44.0819267" lon="11.38329"><ele>602.0</ele><time>2026-05-02T09:09:03.729Z</time></trkpt><trkpt lat="44.0818083" lon="11.3832183"><ele>604.0</ele><time>2026-05-02T09:09:04.726Z</time></trkpt><trkpt lat="44.0816833" lon="11.38323"><ele>605.3333333333334</ele><time>2026-05-02T09:09:05.729Z</time></trkpt><trkpt lat="44.0815567" lon="11.3833133"><ele>606.6666666666666</ele><time>2026-05-02T09:09:06.729Z</time></trkpt><trkpt lat="44.0814117" lon="11.3834367"><ele>608.0</ele><time>2026-05-02T09:09:07.728Z</time></trkpt><trkpt lat="44.0812483" lon="11.3835417"><ele>608.0</ele><time>2026-05-02T09:09:08.728Z</time></trkpt><trkpt lat="44.081085" lon="11.3835917"><ele>608.0</ele><time>2026-05-02T09:09:09.727Z</time></trkpt><trkpt lat="44.0809417" lon="11.3835817"><ele>608.0</ele><time>2026-05-02T09:09:10.728Z</time></trkpt><trkpt lat="44.08082" lon="11.383505"><ele>608.0</ele><time>2026-05-02T09:09:11.729Z</time></trkpt><trkpt lat="44.0807183" lon="11.3833533"><ele>607.6666666666666</ele><time>2026-05-02T09:09:12.727Z</time></trkpt><trkpt lat="44.08065" lon="11.3831433"><ele>607.3333333333334</ele><time>2026-05-02T09:09:13.729Z</time></trkpt><trkpt lat="44.0806283" lon="11.3829167"><ele>607.0</ele><time>2026-05-02T09:09:14.728Z</time></trkpt><trkpt lat="44.0806667" lon="11.3826833"><ele>609.3333333333334</ele><time>2026-05-02T09:09:15.728Z</time></trkpt><trkpt lat="44.08075" lon="11.38245"><ele>611.6666666666666</ele><time>2026-05-02T09:09:16.726Z</time></trkpt><trkpt lat="44.0808383" lon="11.3821983"><ele>614.0</ele><time>2026-05-02T09:09:17.727Z</time></trkpt><trkpt lat="44.080895" lon="11.3819233"><ele>616.3333333333333</ele><time>2026-05-02T09:09:18.728Z</time></trkpt><trkpt lat="44.080925" lon="11.381635"><ele>618.6666666666666</ele><time>2026-05-02T09:09:19.73Z</time></trkpt><trkpt lat="44.0809317" lon="11.3813617"><ele>621.0</ele><time>2026-05-02T09:09:20.729Z</time></trkpt><trkpt lat="44.0809033" lon="11.381115"><ele>622.0</ele><time>2026-05-02T09:09:21.729Z</time></trkpt><trkpt lat="44.0808317" lon="11.380895"><ele>623.0</ele><time>2026-05-02T09:09:22.73Z</time></trkpt><trkpt lat="44.080715" lon="11.380695"><ele>624.0</ele><time>2026-05-02T09:09:23.728Z</time></trkpt><trkpt lat="44.08058" lon="11.3805067"><ele>628.0</ele><time>2026-05-02T09:09:24.729Z</time></trkpt><trkpt lat="44.0804533" lon="11.3803417"><ele>632.0</ele><time>2026-05-02T09:09:25.73Z</time></trkpt><trkpt lat="44.08035" lon="11.38019"><ele>636.0</ele><time>2026-05-02T09:09:26.728Z</time></trkpt><trkpt lat="44.080295" lon="11.3800333"><ele>640.0</ele><time>2026-05-02T09:09:27.728Z</time></trkpt><trkpt lat="44.0802933" lon="11.3798733"><ele>640.0</ele><time>2026-05-02T09:09:28.727Z</time></trkpt><trkpt lat="44.0803267" lon="11.379735"><ele>640.0</ele><time>2026-05-02T09:09:29.729Z</time></trkpt><trkpt lat="44.0803783" lon="11.3796317"><ele>640.0</ele><time>2026-05-02T09:09:30.728Z</time></trkpt><trkpt lat="44.0804267" lon="11.3795417"><ele>640.0</ele><time>2026-05-02T09:09:31.728Z</time></trkpt><trkpt lat="44.0804667" lon="11.379445"><ele>640.0</ele><time>2026-05-02T09:09:32.726Z</time></trkpt><trkpt lat="44.0805" lon="11.3793467"><ele>640.0</ele><time>2026-05-02T09:09:33.728Z</time></trkpt><trkpt lat="44.0805217" lon="11.37925"><ele>641.0</ele><time>2026-05-02T09:09:34.728Z</time></trkpt><trkpt lat="44.0805117" lon="11.3791483"><ele>642.0</ele><time>2026-05-02T09:09:35.728Z</time></trkpt><trkpt lat="44.0804567" lon="11.3790767"><ele>643.0</ele><time>2026-05-02T09:09:36.727Z</time></trkpt><trkpt lat="44.0803167" lon="11.3791"><ele>644.0</ele><time>2026-05-02T09:09:38.729Z</time></trkpt><trkpt lat="44.080255" lon="11.37917"><ele>645.0</ele><time>2026-05-02T09:09:39.726Z</time></trkpt><trkpt lat="44.0801833" lon="11.3793267"><ele>645.0</ele><time>2026-05-02T09:09:40.727Z</time></trkpt><trkpt lat="44.0800883" lon="11.3795017"><ele>645.0</ele><time>2026-05-02T09:09:41.727Z</time></trkpt><trkpt lat="44.07998" lon="11.3796667"><ele>645.0</ele><time>2026-05-02T09:09:42.726Z</time></trkpt><trkpt lat="44.0798583" lon="11.37983"><ele>650.3333333333334</ele><time>2026-05-02T09:09:43.729Z</time></trkpt><trkpt lat="44.07973" lon="11.379995"><ele>655.6666666666667</ele><time>2026-05-02T09:09:44.728Z</time></trkpt><trkpt lat="44.0796033" lon="11.3801483"><ele>661.0</ele><time>2026-05-02T09:09:45.727Z</time></trkpt><trkpt lat="44.079475" lon="11.3802833"><ele>661.0</ele><time>2026-05-02T09:09:46.727Z</time></trkpt><trkpt lat="44.07934" lon="11.3804067"><ele>661.0</ele><time>2026-05-02T09:09:47.728Z</time></trkpt><trkpt lat="44.07919" lon="11.3805"><ele>661.0</ele><time>2026-05-02T09:09:48.728Z</time></trkpt><trkpt lat="44.07903" lon="11.3805633"><ele>662.3333333333334</ele><time>2026-05-02T09:09:49.728Z</time></trkpt><trkpt lat="44.0788667" lon="11.3806383"><ele>663.6666666666666</ele><time>2026-05-02T09:09:50.726Z</time></trkpt><trkpt lat="44.0787233" lon="11.38075"><ele>665.0</ele><time>2026-05-02T09:09:51.728Z</time></trkpt><trkpt lat="44.0785967" lon="11.38092"><ele>665.0</ele><time>2026-05-02T09:09:52.727Z</time></trkpt><trkpt lat="44.0784633" lon="11.3811483"><ele>665.0</ele><time>2026-05-02T09:09:53.727Z</time></trkpt><trkpt lat="44.0783117" lon="11.381395"><ele>665.0</ele><time>2026-05-02T09:09:54.728Z</time></trkpt><trkpt lat="44.0781567" lon="11.381625"><ele>668.6666666666666</ele><time>2026-05-02T09:09:55.727Z</time></trkpt><trkpt lat="44.0780133" lon="11.3818433"><ele>672.3333333333334</ele><time>2026-05-02T09:09:56.726Z</time></trkpt><trkpt lat="44.0778933" lon="11.3820667"><ele>676.0</ele><time>2026-05-02T09:09:57.727Z</time></trkpt><trkpt lat="44.0777883" lon="11.3822917"><ele>676.0</ele><time>2026-05-02T09:09:58.725Z</time></trkpt><trkpt lat="44.0777067" lon="11.3825283"><ele>676.0</ele><time>2026-05-02T09:09:59.727Z</time></trkpt><trkpt lat="44.07767" lon="11.382755"><ele>676.0</ele><time>2026-05-02T09:10:00.729Z</time></trkpt><trkpt lat="44.0776433" lon="11.3829517"><ele>678.25</ele><time>2026-05-02T09:10:01.727Z</time></trkpt><trkpt lat="44.0775983" lon="11.3831133"><ele>680.5</ele><time>2026-05-02T09:10:02.727Z</time></trkpt><trkpt lat="44.07751" lon="11.3832567"><ele>682.75</ele><time>2026-05-02T09:10:03.727Z</time></trkpt><trkpt lat="44.077375" lon="11.3833867"><ele>685.0</ele><time>2026-05-02T09:10:04.726Z</time></trkpt><trkpt lat="44.0772183" lon="11.3835067"><ele>685.0</ele><time>2026-05-02T09:10:05.728Z</time></trkpt><trkpt lat="44.0770667" lon="11.3836083"><ele>685.0</ele><time>2026-05-02T09:10:06.727Z</time></trkpt><trkpt lat="44.07691" lon="11.38367"><ele>685.0</ele><time>2026-05-02T09:10:07.728Z</time></trkpt><trkpt lat="44.0767517" lon="11.383665"><ele>684.6666666666667</ele><time>2026-05-02T09:10:08.727Z</time></trkpt><trkpt lat="44.0765883" lon="11.383615"><ele>684.3333333333334</ele><time>2026-05-02T09:10:09.728Z</time></trkpt><trkpt lat="44.0764183" lon="11.3835417"><ele>684.0</ele><time>2026-05-02T09:10:10.728Z</time></trkpt><trkpt lat="44.0762583" lon="11.3834583"><ele>684.0</ele><time>2026-05-02T09:10:11.727Z</time></trkpt><trkpt lat="44.0761217" lon="11.3834083"><ele>684.0</ele><time>2026-05-02T09:10:12.727Z</time></trkpt><trkpt lat="44.0760017" lon="11.3834217"><ele>684.0</ele><time>2026-05-02T09:10:13.728Z</time></trkpt><trkpt lat="44.0758817" lon="11.3835167"><ele>684.0</ele><time>2026-05-02T09:10:14.727Z</time></trkpt><trkpt lat="44.0757417" lon="11.3836467"><ele>682.6666666666666</ele><time>2026-05-02T09:10:15.728Z</time></trkpt><trkpt lat="44.075585" lon="11.3837817"><ele>681.3333333333333</ele><time>2026-05-02T09:10:16.726Z</time></trkpt><trkpt lat="44.07543" lon="11.383895"><ele>680.0</ele><time>2026-05-02T09:10:17.727Z</time></trkpt><trkpt lat="44.0752767" lon="11.383965"><ele>680.0</ele><time>2026-05-02T09:10:18.728Z</time></trkpt><trkpt lat="44.0751233" lon="11.3839783"><ele>680.0</ele><time>2026-05-02T09:10:19.729Z</time></trkpt><trkpt lat="44.074975" lon="11.383965"><ele>680.0</ele><time>2026-05-02T09:10:20.728Z</time></trkpt><trkpt lat="44.0748383" lon="11.383985"><ele>680.0</ele><time>2026-05-02T09:10:21.729Z</time></trkpt><trkpt lat="44.074725" lon="11.3840833"><ele>688.6666666666666</ele><time>2026-05-02T09:10:22.727Z</time></trkpt><trkpt lat="44.0746033" lon="11.3842517"><ele>697.3333333333334</ele><time>2026-05-02T09:10:23.727Z</time></trkpt><trkpt lat="44.0744833" lon="11.384415"><ele>706.0</ele><time>2026-05-02T09:10:24.727Z</time></trkpt><trkpt lat="44.0743783" lon="11.3845567"><ele>702.5</ele><time>2026-05-02T09:10:25.725Z</time></trkpt><trkpt lat="44.0743" lon="11.384705"><ele>699.0</ele><time>2026-05-02T09:10:26.729Z</time></trkpt><trkpt lat="44.074285" lon="11.3848667"><ele>695.5</ele><time>2026-05-02T09:10:27.729Z</time></trkpt><trkpt lat="44.0742817" lon="11.385035"><ele>692.0</ele><time>2026-05-02T09:10:28.726Z</time></trkpt><trkpt lat="44.0742567" lon="11.385175"><ele>692.0</ele><time>2026-05-02T09:10:29.727Z</time></trkpt><trkpt lat="44.0741883" lon="11.3852767"><ele>692.0</ele><time>2026-05-02T09:10:30.727Z</time></trkpt><trkpt lat="44.074095" lon="11.3853183"><ele>692.0</ele><time>2026-05-02T09:10:31.724Z</time></trkpt><trkpt lat="44.073985" lon="11.3852967"><ele>692.0</ele><time>2026-05-02T09:10:32.73Z</time></trkpt><trkpt lat="44.073865" lon="11.38523"><ele>692.0</ele><time>2026-05-02T09:10:33.73Z</time></trkpt><trkpt lat="44.0737367" lon="11.38518"><ele>694.25</ele><time>2026-05-02T09:10:34.73Z</time></trkpt><trkpt lat="44.0736183" lon="11.3851733"><ele>696.5</ele><time>2026-05-02T09:10:35.729Z</time></trkpt><trkpt lat="44.0734983" lon="11.385235"><ele>698.75</ele><time>2026-05-02T09:10:36.727Z</time></trkpt><trkpt lat="44.07342" lon="11.38542"><ele>701.0</ele><time>2026-05-02T09:10:37.727Z</time></trkpt><trkpt lat="44.0733467" lon="11.3856417"><ele>701.0</ele><time>2026-05-02T09:10:38.728Z</time></trkpt><trkpt lat="44.0732833" lon="11.385865"><ele>701.0</ele><time>2026-05-02T09:10:39.727Z</time></trkpt><trkpt lat="44.0732517" lon="11.38608"><ele>701.0</ele><time>2026-05-02T09:10:40.727Z</time></trkpt><trkpt lat="44.0732733" lon="11.386285"><ele>701.8</ele><time>2026-05-02T09:10:41.727Z</time></trkpt><trkpt lat="44.0733183" lon="11.3864633"><ele>702.5999999999999</ele><time>2026-05-02T09:10:42.727Z</time></trkpt><trkpt lat="44.0733483" lon="11.3866117"><ele>703.4</ele><time>2026-05-02T09:10:43.725Z</time></trkpt><trkpt lat="44.073335" lon="11.3867283"><ele>704.2</ele><time>2026-05-02T09:10:44.726Z</time></trkpt><trkpt lat="44.0732767" lon="11.3867967"><ele>705.0</ele><time>2026-05-02T09:10:45.726Z</time></trkpt><trkpt lat="44.073185" lon="11.386795"><ele>710.0</ele><time>2026-05-02T09:10:46.728Z</time></trkpt><trkpt lat="44.0730633" lon="11.3867283"><ele>715.0</ele><time>2026-05-02T09:10:47.729Z</time></trkpt><trkpt lat="44.07292" lon="11.386615"><ele>720.0</ele><time>2026-05-02T09:10:48.726Z</time></trkpt><trkpt lat="44.0727633" lon="11.386475"><ele>720.0</ele><time>2026-05-02T09:10:49.729Z</time></trkpt><trkpt lat="44.072605" lon="11.3863317"><ele>720.0</ele><time>2026-05-02T09:10:50.729Z</time></trkpt><trkpt lat="44.0724583" lon="11.38618"><ele>720.0</ele><time>2026-05-02T09:10:51.727Z</time></trkpt><trkpt lat="44.0723367" lon="11.3860417"><ele>720.75</ele><time>2026-05-02T09:10:52.729Z</time></trkpt><trkpt lat="44.0722233" lon="11.3859367"><ele>721.5</ele><time>2026-05-02T09:10:53.727Z</time></trkpt><trkpt lat="44.0721133" lon="11.3859033"><ele>722.25</ele><time>2026-05-02T09:10:54.729Z</time></trkpt><trkpt lat="44.0720067" lon="11.3859483"><ele>723.0</ele><time>2026-05-02T09:10:55.728Z</time></trkpt><trkpt lat="44.071895" lon="11.38607"><ele>723.0</ele><time>2026-05-02T09:10:56.729Z</time></trkpt><trkpt lat="44.071785" lon="11.386215"><ele>723.0</ele><time>2026-05-02T09:10:57.728Z</time></trkpt><trkpt lat="44.0716783" lon="11.38635"><ele>723.0</ele><time>2026-05-02T09:10:58.729Z</time></trkpt><trkpt lat="44.07156" lon="11.3864317"><ele>723.0</ele><time>2026-05-02T09:10:59.726Z</time></trkpt><trkpt lat="44.0714217" lon="11.3864433"><ele>718.3333333333334</ele><time>2026-05-02T09:11:00.728Z</time></trkpt><trkpt lat="44.07127" lon="11.386365"><ele>713.6666666666667</ele><time>2026-05-02T09:11:01.728Z</time></trkpt><trkpt lat="44.0711183" lon="11.3862433"><ele>709.0</ele><time>2026-05-02T09:11:02.726Z</time></trkpt><trkpt lat="44.070965" lon="11.386095"><ele>709.0</ele><time>2026-05-02T09:11:03.728Z</time></trkpt><trkpt lat="44.07082" lon="11.38592"><ele>709.0</ele><time>2026-05-02T09:11:04.726Z</time></trkpt><trkpt lat="44.0706867" lon="11.385715"><ele>709.0</ele><time>2026-05-02T09:11:05.726Z</time></trkpt><trkpt lat="44.070565" lon="11.3854917"><ele>703.0</ele><time>2026-05-02T09:11:06.728Z</time></trkpt><trkpt lat="44.0704683" lon="11.3852383"><ele>697.0</ele><time>2026-05-02T09:11:07.727Z</time></trkpt><trkpt lat="44.070385" lon="11.3849733"><ele>691.0</ele><time>2026-05-02T09:11:08.728Z</time></trkpt><trkpt lat="44.0703017" lon="11.3847133"><ele>692.6666666666667</ele><time>2026-05-02T09:11:09.728Z</time></trkpt><trkpt lat="44.070225" lon="11.3844583"><ele>694.3333333333334</ele><time>2026-05-02T09:11:10.727Z</time></trkpt><trkpt lat="44.070165" lon="11.38421"><ele>696.0</ele><time>2026-05-02T09:11:11.728Z</time></trkpt><trkpt lat="44.0701" lon="11.383975"><ele>695.3333333333334</ele><time>2026-05-02T09:11:12.728Z</time></trkpt><trkpt lat="44.0700033" lon="11.38378"><ele>694.6666666666667</ele><time>2026-05-02T09:11:13.728Z</time></trkpt><trkpt lat="44.0698867" lon="11.38363"><ele>694.0</ele><time>2026-05-02T09:11:14.729Z</time></trkpt><trkpt lat="44.06975" lon="11.3835133"><ele>694.0</ele><time>2026-05-02T09:11:15.726Z</time></trkpt><trkpt lat="44.0695767" lon="11.3834333"><ele>694.0</ele><time>2026-05-02T09:11:16.729Z</time></trkpt><trkpt lat="44.0694067" lon="11.3833433"><ele>694.0</ele><time>2026-05-02T09:11:17.728Z</time></trkpt><trkpt lat="44.0692533" lon="11.3832417"><ele>694.0</ele><time>2026-05-02T09:11:18.728Z</time></trkpt><trkpt lat="44.0691233" lon="11.3831583"><ele>694.0</ele><time>2026-05-02T09:11:19.728Z</time></trkpt><trkpt lat="44.06899" lon="11.3831333"><ele>694.0</ele><time>2026-05-02T09:11:20.727Z</time></trkpt><trkpt lat="44.0688717" lon="11.38317"><ele>694.0</ele><time>2026-05-02T09:11:21.728Z</time></trkpt><trkpt lat="44.068775" lon="11.3832617"><ele>693.3333333333334</ele><time>2026-05-02T09:11:22.727Z</time></trkpt><trkpt lat="44.0687" lon="11.3834167"><ele>692.6666666666666</ele><time>2026-05-02T09:11:23.727Z</time></trkpt><trkpt lat="44.0686517" lon="11.3836217"><ele>692.0</ele><time>2026-05-02T09:11:24.728Z</time></trkpt><trkpt lat="44.068635" lon="11.3838867"><ele>692.0</ele><time>2026-05-02T09:11:25.727Z</time></trkpt><trkpt lat="44.0686233" lon="11.38419"><ele>692.0</ele><time>2026-05-02T09:11:26.728Z</time></trkpt><trkpt lat="44.068595" lon="11.3844983"><ele>692.0</ele><time>2026-05-02T09:11:27.729Z</time></trkpt><trkpt lat="44.0685567" lon="11.3848083"><ele>690.5</ele><time>2026-05-02T09:11:28.727Z</time></trkpt><trkpt lat="44.0684933" lon="11.3851167"><ele>689.0</ele><time>2026-05-02T09:11:29.727Z</time></trkpt><trkpt lat="44.0684117" lon="11.385415"><ele>688.0</ele><time>2026-05-02T09:11:30.729Z</time></trkpt><trkpt lat="44.0683267" lon="11.3857083"><ele>687.0</ele><time>2026-05-02T09:11:31.725Z</time></trkpt><trkpt lat="44.0682667" lon="11.3859817"><ele>686.0</ele><time>2026-05-02T09:11:32.729Z</time></trkpt><trkpt lat="44.0682183" lon="11.3862333"><ele>690.0</ele><time>2026-05-02T09:11:33.728Z</time></trkpt><trkpt lat="44.068165" lon="11.386445"><ele>694.0</ele><time>2026-05-02T09:11:34.726Z</time></trkpt><trkpt lat="44.068085" lon="11.38661"><ele>698.0</ele><time>2026-05-02T09:11:35.728Z</time></trkpt><trkpt lat="44.0679833" lon="11.38671"><ele>702.0</ele><time>2026-05-02T09:11:36.727Z</time></trkpt><trkpt lat="44.0678433" lon="11.3867767"><ele>702.0</ele><time>2026-05-02T09:11:37.729Z</time></trkpt><trkpt lat="44.0676917" lon="11.3868417"><ele>702.0</ele><time>2026-05-02T09:11:38.728Z</time></trkpt><trkpt lat="44.067555" lon="11.3869167"><ele>702.0</ele><time>2026-05-02T09:11:39.728Z</time></trkpt><trkpt lat="44.06744" lon="11.3870083"><ele>702.0</ele><time>2026-05-02T09:11:40.729Z</time></trkpt><trkpt lat="44.0673667" lon="11.387125"><ele>705.75</ele><time>2026-05-02T09:11:41.727Z</time></trkpt><trkpt lat="44.067325" lon="11.38729"><ele>709.5</ele><time>2026-05-02T09:11:42.726Z</time></trkpt><trkpt lat="44.067305" lon="11.3874917"><ele>713.25</ele><time>2026-05-02T09:11:43.726Z</time></trkpt><trkpt lat="44.0672783" lon="11.3877183"><ele>717.0</ele><time>2026-05-02T09:11:44.729Z</time></trkpt><trkpt lat="44.0672233" lon="11.3879533"><ele>713.6666666666666</ele><time>2026-05-02T09:11:45.727Z</time></trkpt><trkpt lat="44.06715" lon="11.388185"><ele>710.3333333333333</ele><time>2026-05-02T09:11:46.727Z</time></trkpt><trkpt lat="44.0670683" lon="11.38841"><ele>707.0</ele><time>2026-05-02T09:11:47.727Z</time></trkpt><trkpt lat="44.0669733" lon="11.3886283"><ele>707.0</ele><time>2026-05-02T09:11:48.727Z</time></trkpt><trkpt lat="44.0668683" lon="11.3888267"><ele>707.0</ele><time>2026-05-02T09:11:49.727Z</time></trkpt><trkpt lat="44.0667517" lon="11.3890067"><ele>707.0</ele><time>2026-05-02T09:11:50.726Z</time></trkpt><trkpt lat="44.0666267" lon="11.3891617"><ele>710.75</ele><time>2026-05-02T09:11:51.728Z</time></trkpt><trkpt lat="44.06652" lon="11.3892983"><ele>714.5</ele><time>2026-05-02T09:11:52.727Z</time></trkpt><trkpt lat="44.06642" lon="11.3894167"><ele>718.25</ele><time>2026-05-02T09:11:53.727Z</time></trkpt><trkpt lat="44.0663283" lon="11.389505"><ele>722.0</ele><time>2026-05-02T09:11:54.728Z</time></trkpt><trkpt lat="44.0662267" lon="11.389565"><ele>722.0</ele><time>2026-05-02T09:11:55.729Z</time></trkpt><trkpt lat="44.066115" lon="11.3896067"><ele>722.0</ele><time>2026-05-02T09:11:56.728Z</time></trkpt><trkpt lat="44.066005" lon="11.3896567"><ele>722.0</ele><time>2026-05-02T09:11:57.729Z</time></trkpt><trkpt lat="44.0659117" lon="11.3897317"><ele>722.0</ele><time>2026-05-02T09:11:58.728Z</time></trkpt><trkpt lat="44.0658417" lon="11.3898433"><ele>722.0</ele><time>2026-05-02T09:11:59.728Z</time></trkpt><trkpt lat="44.065805" lon="11.3899917"><ele>725.6</ele><time>2026-05-02T09:12:00.726Z</time></trkpt><trkpt lat="44.0657717" lon="11.3901417"><ele>729.2</ele><time>2026-05-02T09:12:01.728Z</time></trkpt><trkpt lat="44.06573" lon="11.3902717"><ele>732.8</ele><time>2026-05-02T09:12:02.728Z</time></trkpt><trkpt lat="44.0656667" lon="11.3903917"><ele>736.4</ele><time>2026-05-02T09:12:03.727Z</time></trkpt><trkpt lat="44.0655883" lon="11.3905183"><ele>740.0</ele><time>2026-05-02T09:12:04.727Z</time></trkpt><trkpt lat="44.065515" lon="11.3906733"><ele>741.3333333333333</ele><time>2026-05-02T09:12:05.728Z</time></trkpt><trkpt lat="44.0654533" lon="11.3908467"><ele>742.6666666666666</ele><time>2026-05-02T09:12:06.728Z</time></trkpt><trkpt lat="44.065405" lon="11.39105"><ele>744.0</ele><time>2026-05-02T09:12:07.727Z</time></trkpt><trkpt lat="44.0653683" lon="11.3912633"><ele>741.25</ele><time>2026-05-02T09:12:08.728Z</time></trkpt><trkpt lat="44.0653367" lon="11.3914667"><ele>738.5</ele><time>2026-05-02T09:12:09.728Z</time></trkpt><trkpt lat="44.0653017" lon="11.39165"><ele>735.75</ele><time>2026-05-02T09:12:10.728Z</time></trkpt><trkpt lat="44.0652467" lon="11.3918233"><ele>733.0</ele><time>2026-05-02T09:12:11.729Z</time></trkpt><trkpt lat="44.065175" lon="11.3919817"><ele>733.0</ele><time>2026-05-02T09:12:12.729Z</time></trkpt><trkpt lat="44.0650867" lon="11.3921383"><ele>733.0</ele><time>2026-05-02T09:12:13.728Z</time></trkpt><trkpt lat="44.0649817" lon="11.3923017"><ele>733.0</ele><time>2026-05-02T09:12:14.727Z</time></trkpt><trkpt lat="44.064875" lon="11.392465"><ele>727.25</ele><time>2026-05-02T09:12:15.729Z</time></trkpt><trkpt lat="44.0647583" lon="11.3926133"><ele>721.5</ele><time>2026-05-02T09:12:16.728Z</time></trkpt><trkpt lat="44.0646283" lon="11.3927267"><ele>715.75</ele><time>2026-05-02T09:12:17.728Z</time></trkpt><trkpt lat="44.0645083" lon="11.3928083"><ele>710.0</ele><time>2026-05-02T09:12:18.727Z</time></trkpt><trkpt lat="44.0644033" lon="11.3928533"><ele>710.0</ele><time>2026-05-02T09:12:19.726Z</time></trkpt><trkpt lat="44.0643083" lon="11.3928517"><ele>710.0</ele><time>2026-05-02T09:12:20.729Z</time></trkpt><trkpt lat="44.0642183" lon="11.3927867"><ele>710.0</ele><time>2026-05-02T09:12:21.728Z</time></trkpt><trkpt lat="44.0641367" lon="11.3926583"><ele>710.0</ele><time>2026-05-02T09:12:22.727Z</time></trkpt><trkpt lat="44.06405" lon="11.392485"><ele>710.6666666666666</ele><time>2026-05-02T09:12:23.726Z</time></trkpt><trkpt lat="44.0639333" lon="11.3923017"><ele>711.3333333333334</ele><time>2026-05-02T09:12:24.726Z</time></trkpt><trkpt lat="44.0637883" lon="11.392125"><ele>712.0</ele><time>2026-05-02T09:12:25.728Z</time></trkpt><trkpt lat="44.0636417" lon="11.391955"><ele>712.0</ele><time>2026-05-02T09:12:26.727Z</time></trkpt><trkpt lat="44.0635083" lon="11.3917883"><ele>712.0</ele><time>2026-05-02T09:12:27.729Z</time></trkpt><trkpt lat="44.0633933" lon="11.3916367"><ele>712.0</ele><time>2026-05-02T09:12:28.728Z</time></trkpt><trkpt lat="44.0632867" lon="11.391525"><ele>713.8</ele><time>2026-05-02T09:12:29.728Z</time></trkpt><trkpt lat="44.0631867" lon="11.3914667"><ele>715.6</ele><time>2026-05-02T09:12:30.728Z</time></trkpt><trkpt lat="44.0631" lon="11.3914783"><ele>717.4</ele><time>2026-05-02T09:12:31.728Z</time></trkpt><trkpt lat="44.063035" lon="11.3915533"><ele>719.1999999999999</ele><time>2026-05-02T09:12:32.727Z</time></trkpt><trkpt lat="44.06298" lon="11.3916483"><ele>721.0</ele><time>2026-05-02T09:12:33.728Z</time></trkpt><trkpt lat="44.0629933" lon="11.3918083"><ele>721.0</ele><time>2026-05-02T09:12:34.729Z</time></trkpt><trkpt lat="44.063025" lon="11.3920033"><ele>721.0</ele><time>2026-05-02T09:12:35.728Z</time></trkpt><trkpt lat="44.0630567" lon="11.3922367"><ele>721.0</ele><time>2026-05-02T09:12:36.728Z</time></trkpt><trkpt lat="44.0630733" lon="11.39247"><ele>729.6666666666667</ele><time>2026-05-02T09:12:37.728Z</time></trkpt><trkpt lat="44.0630683" lon="11.392705"><ele>738.3333333333334</ele><time>2026-05-02T09:12:38.728Z</time></trkpt><trkpt lat="44.0630367" lon="11.39295"><ele>747.0</ele><time>2026-05-02T09:12:39.727Z</time></trkpt><trkpt lat="44.0630033" lon="11.3932133"><ele>748.3333333333334</ele><time>2026-05-02T09:12:40.728Z</time></trkpt><trkpt lat="44.062965" lon="11.39349"><ele>749.6666666666667</ele><time>2026-05-02T09:12:41.728Z</time></trkpt><trkpt lat="44.06292" lon="11.3937667"><ele>751.0</ele><time>2026-05-02T09:12:42.727Z</time></trkpt><trkpt lat="44.0629517" lon="11.3940083"><ele>747.3333333333334</ele><time>2026-05-02T09:12:43.728Z</time></trkpt><trkpt lat="44.06295" lon="11.3942383"><ele>743.6666666666666</ele><time>2026-05-02T09:12:44.729Z</time></trkpt><trkpt lat="44.0629417" lon="11.3944483"><ele>740.0</ele><time>2026-05-02T09:12:45.729Z</time></trkpt><trkpt lat="44.0629167" lon="11.39464"><ele>743.0</ele><time>2026-05-02T09:12:46.727Z</time></trkpt><trkpt lat="44.0628633" lon="11.3947933"><ele>746.0</ele><time>2026-05-02T09:12:47.726Z</time></trkpt><trkpt lat="44.0627667" lon="11.3949167"><ele>749.0</ele><time>2026-05-02T09:12:48.729Z</time></trkpt><trkpt lat="44.06262" lon="11.3950233"><ele>752.0</ele><time>2026-05-02T09:12:49.727Z</time></trkpt><trkpt lat="44.062435" lon="11.39512"><ele>752.0</ele><time>2026-05-02T09:12:50.727Z</time></trkpt><trkpt lat="44.062245" lon="11.3952033"><ele>752.0</ele><time>2026-05-02T09:12:51.726Z</time></trkpt><trkpt lat="44.0620667" lon="11.3952933"><ele>752.0</ele><time>2026-05-02T09:12:52.727Z</time></trkpt><trkpt lat="44.0619133" lon="11.3954083"><ele>745.5</ele><time>2026-05-02T09:12:53.728Z</time></trkpt><trkpt lat="44.0617967" lon="11.3955433"><ele>739.0</ele><time>2026-05-02T09:12:54.728Z</time></trkpt><trkpt lat="44.06171" lon="11.39569"><ele>732.5</ele><time>2026-05-02T09:12:55.728Z</time></trkpt><trkpt lat="44.0616717" lon="11.3958433"><ele>726.0</ele><time>2026-05-02T09:12:56.727Z</time></trkpt><trkpt lat="44.0616767" lon="11.395985"><ele>726.0</ele><time>2026-05-02T09:12:57.727Z</time></trkpt><trkpt lat="44.0617017" lon="11.39613"><ele>726.0</ele><time>2026-05-02T09:12:58.728Z</time></trkpt><trkpt lat="44.06169" lon="11.3962767"><ele>726.0</ele><time>2026-05-02T09:12:59.729Z</time></trkpt><trkpt lat="44.0616283" lon="11.3964183"><ele>726.0</ele><time>2026-05-02T09:13:00.728Z</time></trkpt><trkpt lat="44.0615317" lon="11.3965383"><ele>728.25</ele><time>2026-05-02T09:13:01.729Z</time></trkpt><trkpt lat="44.06142" lon="11.3966533"><ele>730.5</ele><time>2026-05-02T09:13:02.727Z</time></trkpt><trkpt lat="44.0613183" lon="11.3967717"><ele>732.75</ele><time>2026-05-02T09:13:03.727Z</time></trkpt><trkpt lat="44.0612433" lon="11.3969067"><ele>735.0</ele><time>2026-05-02T09:13:04.728Z</time></trkpt><trkpt lat="44.0611933" lon="11.3970517"><ele>732.8</ele><time>2026-05-02T09:13:05.729Z</time></trkpt><trkpt lat="44.06114" lon="11.3971733"><ele>730.6</ele><time>2026-05-02T09:13:06.728Z</time></trkpt><trkpt lat="44.0610583" lon="11.3972467"><ele>728.4000000000001</ele><time>2026-05-02T09:13:07.726Z</time></trkpt><trkpt lat="44.0609583" lon="11.3972617"><ele>726.2</ele><time>2026-05-02T09:13:08.728Z</time></trkpt><trkpt lat="44.0608533" lon="11.3972167"><ele>724.0</ele><time>2026-05-02T09:13:09.727Z</time></trkpt><trkpt lat="44.0607367" lon="11.3971533"><ele>728.5</ele><time>2026-05-02T09:13:10.728Z</time></trkpt><trkpt lat="44.0606083" lon="11.3971067"><ele>733.0</ele><time>2026-05-02T09:13:11.729Z</time></trkpt><trkpt lat="44.060475" lon="11.39711"><ele>737.5</ele><time>2026-05-02T09:13:12.727Z</time></trkpt><trkpt lat="44.0603483" lon="11.3971783"><ele>742.0</ele><time>2026-05-02T09:13:13.729Z</time></trkpt><trkpt lat="44.0602333" lon="11.3973067"><ele>742.0</ele><time>2026-05-02T09:13:14.728Z</time></trkpt><trkpt lat="44.0601467" lon="11.39747"><ele>742.0</ele><time>2026-05-02T09:13:15.726Z</time></trkpt><trkpt lat="44.0601033" lon="11.3976467"><ele>742.0</ele><time>2026-05-02T09:13:16.726Z</time></trkpt><trkpt lat="44.0600767" lon="11.397815"><ele>742.0</ele><time>2026-05-02T09:13:17.726Z</time></trkpt><trkpt lat="44.06004" lon="11.3979567"><ele>739.75</ele><time>2026-05-02T09:13:18.728Z</time></trkpt><trkpt lat="44.0599683" lon="11.3980583"><ele>737.5</ele><time>2026-05-02T09:13:19.726Z</time></trkpt><trkpt lat="44.05987" lon="11.3980967"><ele>735.25</ele><time>2026-05-02T09:13:20.729Z</time></trkpt><trkpt lat="44.05975" lon="11.3980767"><ele>733.0</ele><time>2026-05-02T09:13:21.728Z</time></trkpt><trkpt lat="44.0596267" lon="11.3980067"><ele>738.25</ele><time>2026-05-02T09:13:22.726Z</time></trkpt><trkpt lat="44.0595017" lon="11.3979167"><ele>743.5</ele><time>2026-05-02T09:13:23.728Z</time></trkpt><trkpt lat="44.0593617" lon="11.3978433"><ele>748.75</ele><time>2026-05-02T09:13:24.728Z</time></trkpt><trkpt lat="44.0592117" lon="11.397805"><ele>754.0</ele><time>2026-05-02T09:13:25.729Z</time></trkpt><trkpt lat="44.05906" lon="11.3978083"><ele>754.0</ele><time>2026-05-02T09:13:26.729Z</time></trkpt><trkpt lat="44.0589133" lon="11.3978517"><ele>754.0</ele><time>2026-05-02T09:13:27.728Z</time></trkpt><trkpt lat="44.0587817" lon="11.3979067"><ele>754.0</ele><time>2026-05-02T09:13:28.727Z</time></trkpt><trkpt lat="44.0586517" lon="11.3979367"><ele>754.0</ele><time>2026-05-02T09:13:29.728Z</time></trkpt><trkpt lat="44.0585333" lon="11.3979433"><ele>754.0</ele><time>2026-05-02T09:13:30.728Z</time></trkpt><trkpt lat="44.0584133" lon="11.3979217"><ele>754.0</ele><time>2026-05-02T09:13:31.726Z</time></trkpt><trkpt lat="44.0582917" lon="11.3978767"><ele>754.0</ele><time>2026-05-02T09:13:32.727Z</time></trkpt><trkpt lat="44.0581683" lon="11.397815"><ele>754.0</ele><time>2026-05-02T09:13:33.728Z</time></trkpt><trkpt lat="44.0580483" lon="11.3977283"><ele>752.75</ele><time>2026-05-02T09:13:34.729Z</time></trkpt><trkpt lat="44.0579417" lon="11.39762"><ele>751.5</ele><time>2026-05-02T09:13:35.728Z</time></trkpt><trkpt lat="44.0578483" lon="11.3974883"><ele>750.25</ele><time>2026-05-02T09:13:36.727Z</time></trkpt><trkpt lat="44.05777" lon="11.397335"><ele>749.0</ele><time>2026-05-02T09:13:37.728Z</time></trkpt><trkpt lat="44.0577233" lon="11.3971683"><ele>749.0</ele><time>2026-05-02T09:13:38.729Z</time></trkpt><trkpt lat="44.0577083" lon="11.3969833"><ele>749.0</ele><time>2026-05-02T09:13:39.727Z</time></trkpt><trkpt lat="44.0577117" lon="11.396785"><ele>749.0</ele><time>2026-05-02T09:13:40.728Z</time></trkpt><trkpt lat="44.0576967" lon="11.396565"><ele>749.0</ele><time>2026-05-02T09:13:41.727Z</time></trkpt><trkpt lat="44.0576367" lon="11.3963383"><ele>754.0</ele><time>2026-05-02T09:13:42.728Z</time></trkpt><trkpt lat="44.0575517" lon="11.396105"><ele>759.0</ele><time>2026-05-02T09:13:43.725Z</time></trkpt><trkpt lat="44.0574717" lon="11.395865"><ele>764.0</ele><time>2026-05-02T09:13:44.727Z</time></trkpt><trkpt lat="44.057395" lon="11.3956533"><ele>757.0</ele><time>2026-05-02T09:13:45.728Z</time></trkpt><trkpt lat="44.0573333" lon="11.3954683"><ele>750.0</ele><time>2026-05-02T09:13:46.728Z</time></trkpt><trkpt lat="44.0572933" lon="11.3953067"><ele>743.0</ele><time>2026-05-02T09:13:47.727Z</time></trkpt><trkpt lat="44.057285" lon="11.39517"><ele>736.0</ele><time>2026-05-02T09:13:48.727Z</time></trkpt><trkpt lat="44.0573183" lon="11.3950383"><ele>736.0</ele><time>2026-05-02T09:13:49.728Z</time></trkpt><trkpt lat="44.0574" lon="11.3949233"><ele>736.0</ele><time>2026-05-02T09:13:50.726Z</time></trkpt><trkpt lat="44.0575017" lon="11.3948333"><ele>736.0</ele><time>2026-05-02T09:13:51.728Z</time></trkpt><trkpt lat="44.05758" lon="11.3947567"><ele>736.0</ele><time>2026-05-02T09:13:52.728Z</time></trkpt><trkpt lat="44.0576217" lon="11.394665"><ele>736.0</ele><time>2026-05-02T09:13:53.728Z</time></trkpt><trkpt lat="44.0576133" lon="11.3945633"><ele>741.25</ele><time>2026-05-02T09:13:54.727Z</time></trkpt><trkpt lat="44.0575567" lon="11.39446"><ele>746.5</ele><time>2026-05-02T09:13:55.728Z</time></trkpt><trkpt lat="44.057455" lon="11.39436"><ele>751.75</ele><time>2026-05-02T09:13:56.728Z</time></trkpt><trkpt lat="44.0573267" lon="11.3942467"><ele>757.0</ele><time>2026-05-02T09:13:57.729Z</time></trkpt><trkpt lat="44.0571817" lon="11.3941367"><ele>757.0</ele><time>2026-05-02T09:13:58.727Z</time></trkpt><trkpt lat="44.0570367" lon="11.3940433"><ele>757.0</ele><time>2026-05-02T09:13:59.729Z</time></trkpt><trkpt lat="44.05691" lon="11.3939667"><ele>757.0</ele><time>2026-05-02T09:14:00.728Z</time></trkpt><trkpt lat="44.0568167" lon="11.39388"><ele>757.0</ele><time>2026-05-02T09:14:01.728Z</time></trkpt><trkpt lat="44.0567733" lon="11.3937517"><ele>761.4000000000001</ele><time>2026-05-02T09:14:02.728Z</time></trkpt><trkpt lat="44.056775" lon="11.3935933"><ele>765.8000000000001</ele><time>2026-05-02T09:14:03.728Z</time></trkpt><trkpt lat="44.0567983" lon="11.3934267"><ele>770.2</ele><time>2026-05-02T09:14:04.73Z</time></trkpt><trkpt lat="44.0568117" lon="11.3932733"><ele>774.6</ele><time>2026-05-02T09:14:05.728Z</time></trkpt><trkpt lat="44.0567917" lon="11.3931467"><ele>779.0</ele><time>2026-05-02T09:14:06.728Z</time></trkpt><trkpt lat="44.0567433" lon="11.393065"><ele>779.0</ele><time>2026-05-02T09:14:07.726Z</time></trkpt><trkpt lat="44.056685" lon="11.3930317"><ele>779.0</ele><time>2026-05-02T09:14:08.728Z</time></trkpt><trkpt lat="44.0565667" lon="11.39307"><ele>779.0</ele><time>2026-05-02T09:14:10.729Z</time></trkpt><trkpt lat="44.0564783" lon="11.393175"><ele>779.0</ele><time>2026-05-02T09:14:11.729Z</time></trkpt><trkpt lat="44.0563583" lon="11.39327"><ele>779.0</ele><time>2026-05-02T09:14:12.727Z</time></trkpt><trkpt lat="44.05624" lon="11.39331"><ele>781.75</ele><time>2026-05-02T09:14:13.727Z</time></trkpt><trkpt lat="44.0561183" lon="11.3932917"><ele>784.5</ele><time>2026-05-02T09:14:14.728Z</time></trkpt><trkpt lat="44.0560233" lon="11.3931917"><ele>787.25</ele><time>2026-05-02T09:14:15.728Z</time></trkpt><trkpt lat="44.055945" lon="11.3930267"><ele>790.0</ele><time>2026-05-02T09:14:16.728Z</time></trkpt><trkpt lat="44.0558633" lon="11.392825"><ele>788.3333333333333</ele><time>2026-05-02T09:14:17.727Z</time></trkpt><trkpt lat="44.0557667" lon="11.3926067"><ele>786.6666666666667</ele><time>2026-05-02T09:14:18.728Z</time></trkpt><trkpt lat="44.0556717" lon="11.392375"><ele>785.0</ele><time>2026-05-02T09:14:19.727Z</time></trkpt><trkpt lat="44.055575" lon="11.392135"><ele>785.0</ele><time>2026-05-02T09:14:20.726Z</time></trkpt><trkpt lat="44.0554767" lon="11.3919033"><ele>785.0</ele><time>2026-05-02T09:14:21.727Z</time></trkpt><trkpt lat="44.0553883" lon="11.3916817"><ele>785.0</ele><time>2026-05-02T09:14:22.728Z</time></trkpt><trkpt lat="44.0553283" lon="11.391455"><ele>788.3333333333334</ele><time>2026-05-02T09:14:23.728Z</time></trkpt><trkpt lat="44.055305" lon="11.391215"><ele>791.6666666666667</ele><time>2026-05-02T09:14:24.729Z</time></trkpt><trkpt lat="44.055315" lon="11.3909567"><ele>795.0</ele><time>2026-05-02T09:14:25.727Z</time></trkpt><trkpt lat="44.0553217" lon="11.3907067"><ele>798.5</ele><time>2026-05-02T09:14:26.727Z</time></trkpt><trkpt lat="44.0553183" lon="11.3904733"><ele>802.0</ele><time>2026-05-02T09:14:27.729Z</time></trkpt><trkpt lat="44.055305" lon="11.3902783"><ele>805.5</ele><time>2026-05-02T09:14:28.729Z</time></trkpt><trkpt lat="44.0552833" lon="11.390135"><ele>809.0</ele><time>2026-05-02T09:14:29.727Z</time></trkpt><trkpt lat="44.0552367" lon="11.390045"><ele>809.0</ele><time>2026-05-02T09:14:30.728Z</time></trkpt><trkpt lat="44.0551617" lon="11.3900433"><ele>809.0</ele><time>2026-05-02T09:14:31.728Z</time></trkpt><trkpt lat="44.0550883" lon="11.3901133"><ele>809.0</ele><time>2026-05-02T09:14:32.728Z</time></trkpt><trkpt lat="44.055015" lon="11.39024"><ele>809.0</ele><time>2026-05-02T09:14:33.728Z</time></trkpt><trkpt lat="44.05494" lon="11.3904"><ele>809.0</ele><time>2026-05-02T09:14:34.729Z</time></trkpt><trkpt lat="44.0548467" lon="11.3905383"><ele>806.0</ele><time>2026-05-02T09:14:35.726Z</time></trkpt><trkpt lat="44.0547283" lon="11.39063"><ele>803.0</ele><time>2026-05-02T09:14:36.725Z</time></trkpt><trkpt lat="44.0545867" lon="11.39068"><ele>800.0</ele><time>2026-05-02T09:14:37.727Z</time></trkpt><trkpt lat="44.0544183" lon="11.390685"><ele>800.0</ele><time>2026-05-02T09:14:38.728Z</time></trkpt><trkpt lat="44.05424" lon="11.3906417"><ele>800.0</ele><time>2026-05-02T09:14:39.726Z</time></trkpt><trkpt lat="44.0540483" lon="11.390575"><ele>800.0</ele><time>2026-05-02T09:14:40.729Z</time></trkpt><trkpt lat="44.0538367" lon="11.3905067"><ele>806.6666666666667</ele><time>2026-05-02T09:14:41.728Z</time></trkpt><trkpt lat="44.0536183" lon="11.3904733"><ele>813.3333333333333</ele><time>2026-05-02T09:14:42.727Z</time></trkpt><trkpt lat="44.0534067" lon="11.3904683"><ele>820.0</ele><time>2026-05-02T09:14:43.728Z</time></trkpt><trkpt lat="44.0532083" lon="11.390485"><ele>815.0</ele><time>2026-05-02T09:14:44.73Z</time></trkpt><trkpt lat="44.0530317" lon="11.3905383"><ele>810.0</ele><time>2026-05-02T09:14:45.726Z</time></trkpt><trkpt lat="44.0528733" lon="11.390575"><ele>805.0</ele><time>2026-05-02T09:14:46.726Z</time></trkpt><trkpt lat="44.05271" lon="11.3905767"><ele>805.0</ele><time>2026-05-02T09:14:47.727Z</time></trkpt><trkpt lat="44.0525333" lon="11.39052"><ele>805.0</ele><time>2026-05-02T09:14:48.728Z</time></trkpt><trkpt lat="44.052345" lon="11.3904267"><ele>805.0</ele><time>2026-05-02T09:14:49.727Z</time></trkpt><trkpt lat="44.0521383" lon="11.39032"><ele>809.3333333333333</ele><time>2026-05-02T09:14:50.727Z</time></trkpt><trkpt lat="44.051925" lon="11.3902167"><ele>813.6666666666667</ele><time>2026-05-02T09:14:51.727Z</time></trkpt><trkpt lat="44.0517167" lon="11.390135"><ele>818.0</ele><time>2026-05-02T09:14:52.727Z</time></trkpt><trkpt lat="44.0515083" lon="11.3901033"><ele>818.6666666666667</ele><time>2026-05-02T09:14:53.727Z</time></trkpt><trkpt lat="44.051305" lon="11.39011"><ele>819.3333333333333</ele><time>2026-05-02T09:14:54.729Z</time></trkpt><trkpt lat="44.051115" lon="11.3901"><ele>820.0</ele><time>2026-05-02T09:14:55.727Z</time></trkpt><trkpt lat="44.0509317" lon="11.3900417"><ele>823.0</ele><time>2026-05-02T09:14:56.727Z</time></trkpt><trkpt lat="44.0507533" lon="11.3899267"><ele>826.0</ele><time>2026-05-02T09:14:57.726Z</time></trkpt><trkpt lat="44.05056" lon="11.3898117"><ele>829.0</ele><time>2026-05-02T09:14:58.726Z</time></trkpt><trkpt lat="44.0503533" lon="11.3897233"><ele>835.3333333333333</ele><time>2026-05-02T09:14:59.728Z</time></trkpt><trkpt lat="44.0501483" lon="11.38967"><ele>841.6666666666667</ele><time>2026-05-02T09:15:00.728Z</time></trkpt><trkpt lat="44.0499533" lon="11.3896467"><ele>848.0</ele><time>2026-05-02T09:15:01.728Z</time></trkpt><trkpt lat="44.0497683" lon="11.3896533"><ele>846.6666666666667</ele><time>2026-05-02T09:15:02.728Z</time></trkpt><trkpt lat="44.0495867" lon="11.3897033"><ele>845.3333333333333</ele><time>2026-05-02T09:15:03.729Z</time></trkpt><trkpt lat="44.049415" lon="11.389795"><ele>844.0</ele><time>2026-05-02T09:15:04.726Z</time></trkpt><trkpt lat="44.0492633" lon="11.3899117"><ele>844.0</ele><time>2026-05-02T09:15:05.728Z</time></trkpt><trkpt lat="44.04914" lon="11.3900433"><ele>844.0</ele><time>2026-05-02T09:15:06.729Z</time></trkpt><trkpt lat="44.0490617" lon="11.39019"><ele>844.0</ele><time>2026-05-02T09:15:07.727Z</time></trkpt><trkpt lat="44.0490167" lon="11.39035"><ele>844.0</ele><time>2026-05-02T09:15:08.729Z</time></trkpt><trkpt lat="44.0489767" lon="11.3905333"><ele>845.6666666666666</ele><time>2026-05-02T09:15:09.729Z</time></trkpt><trkpt lat="44.0489117" lon="11.3907333"><ele>847.3333333333333</ele><time>2026-05-02T09:15:10.728Z</time></trkpt><trkpt lat="44.04882" lon="11.390945"><ele>849.0</ele><time>2026-05-02T09:15:11.726Z</time></trkpt><trkpt lat="44.048735" lon="11.39115"><ele>848.0</ele><time>2026-05-02T09:15:12.728Z</time></trkpt><trkpt lat="44.048665" lon="11.391345"><ele>847.0</ele><time>2026-05-02T09:15:13.728Z</time></trkpt><trkpt lat="44.0486083" lon="11.391515"><ele>846.0</ele><time>2026-05-02T09:15:14.73Z</time></trkpt><trkpt lat="44.0485583" lon="11.391635"><ele>845.0</ele><time>2026-05-02T09:15:15.728Z</time></trkpt><trkpt lat="44.0485033" lon="11.3916867"><ele>845.0</ele><time>2026-05-02T09:15:16.729Z</time></trkpt><trkpt lat="44.048415" lon="11.3916083"><ele>845.0</ele><time>2026-05-02T09:15:18.727Z</time></trkpt><trkpt lat="44.0483917" lon="11.3915"><ele>845.0</ele><time>2026-05-02T09:15:19.728Z</time></trkpt><trkpt lat="44.0483883" lon="11.3913117"><ele>845.0</ele><time>2026-05-02T09:15:20.728Z</time></trkpt><trkpt lat="44.0483483" lon="11.3911017"><ele>847.6666666666667</ele><time>2026-05-02T09:15:21.728Z</time></trkpt><trkpt lat="44.04828" lon="11.3908683"><ele>850.3333333333333</ele><time>2026-05-02T09:15:22.729Z</time></trkpt><trkpt lat="44.0481967" lon="11.3906433"><ele>853.0</ele><time>2026-05-02T09:15:23.728Z</time></trkpt><trkpt lat="44.0481033" lon="11.3904517"><ele>856.5</ele><time>2026-05-02T09:15:24.727Z</time></trkpt><trkpt lat="44.0479983" lon="11.3903117"><ele>860.0</ele><time>2026-05-02T09:15:25.728Z</time></trkpt><trkpt lat="44.047875" lon="11.3902483"><ele>863.5</ele><time>2026-05-02T09:15:26.73Z</time></trkpt><trkpt lat="44.047735" lon="11.3902667"><ele>867.0</ele><time>2026-05-02T09:15:27.727Z</time></trkpt><trkpt lat="44.04759" lon="11.3903633"><ele>867.0</ele><time>2026-05-02T09:15:28.728Z</time></trkpt><trkpt lat="44.0474667" lon="11.3904717"><ele>867.0</ele><time>2026-05-02T09:15:29.728Z</time></trkpt><trkpt lat="44.0473633" lon="11.390535"><ele>867.0</ele><time>2026-05-02T09:15:30.727Z</time></trkpt><trkpt lat="44.0472767" lon="11.39053"><ele>867.0</ele><time>2026-05-02T09:15:31.728Z</time></trkpt><trkpt lat="44.0472183" lon="11.39044"><ele>867.0</ele><time>2026-05-02T09:15:32.73Z</time></trkpt><trkpt lat="44.0471783" lon="11.3903"><ele>868.0</ele><time>2026-05-02T09:15:33.729Z</time></trkpt><trkpt lat="44.0471583" lon="11.3900983"><ele>869.0</ele><time>2026-05-02T09:15:34.729Z</time></trkpt><trkpt lat="44.0471567" lon="11.3898183"><ele>870.0</ele><time>2026-05-02T09:15:35.728Z</time></trkpt><trkpt lat="44.0471383" lon="11.3895683"><ele>870.0</ele><time>2026-05-02T09:15:36.728Z</time></trkpt><trkpt lat="44.0471067" lon="11.38933"><ele>870.0</ele><time>2026-05-02T09:15:37.726Z</time></trkpt><trkpt lat="44.0470767" lon="11.3891083"><ele>870.0</ele><time>2026-05-02T09:15:38.726Z</time></trkpt><trkpt lat="44.0470733" lon="11.38891"><ele>872.2</ele><time>2026-05-02T09:15:39.728Z</time></trkpt><trkpt lat="44.0470883" lon="11.3887433"><ele>874.4</ele><time>2026-05-02T09:15:40.727Z</time></trkpt><trkpt lat="44.04711" lon="11.38859"><ele>876.5999999999999</ele><time>2026-05-02T09:15:41.727Z</time></trkpt><trkpt lat="44.04711" lon="11.3884517"><ele>878.8</ele><time>2026-05-02T09:15:42.73Z</time></trkpt><trkpt lat="44.04709" lon="11.38834"><ele>881.0</ele><time>2026-05-02T09:15:43.726Z</time></trkpt><trkpt lat="44.047055" lon="11.38825"><ele>881.0000000000001</ele><time>2026-05-02T09:15:44.727Z</time></trkpt><trkpt lat="44.0470083" lon="11.3881783"><ele>881.0</ele><time>2026-05-02T09:15:45.727Z</time></trkpt><trkpt lat="44.046955" lon="11.3881233"><ele>881.0</ele><time>2026-05-02T09:15:46.728Z</time></trkpt><trkpt lat="44.0468533" lon="11.3880467"><ele>881.0</ele><time>2026-05-02T09:15:48.728Z</time></trkpt><trkpt lat="44.046765" lon="11.3879917"><ele>881.0000000000001</ele><time>2026-05-02T09:15:50.728Z</time></trkpt><trkpt lat="44.0467" lon="11.3879433"><ele>881.0</ele><time>2026-05-02T09:15:52.729Z</time></trkpt><trkpt lat="44.0466333" lon="11.3879067"><ele>881.0</ele><time>2026-05-02T09:16:05.728Z</time></trkpt><trkpt lat="44.0466667" lon="11.3879917"><ele>880.9999999999999</ele><time>2026-05-02T09:16:10.728Z</time></trkpt><trkpt lat="44.0467383" lon="11.3880417"><ele>880.9999999999999</ele><time>2026-05-02T09:16:13.726Z</time></trkpt><trkpt lat="44.0467867" lon="11.388165"><ele>881.0</ele><time>2026-05-02T09:19:23.728Z</time></trkpt><trkpt lat="44.0468158" lon="11.3880713"><ele>881.0</ele><time>2026-05-02T09:23:27.839Z</time></trkpt><trkpt lat="44.0466878" lon="11.3879425"><ele>880.0</ele><time>2026-05-02T09:27:07.728Z</time></trkpt><trkpt lat="44.0465834" lon="11.387884"><ele>878.9999999999999</ele><time>2026-05-02T09:27:08.728Z</time></trkpt><trkpt lat="44.0464826" lon="11.3878321"><ele>877.9999999999999</ele><time>2026-05-02T09:27:09.729Z</time></trkpt><trkpt lat="44.0463772" lon="11.3877757"><ele>877.0</ele><time>2026-05-02T09:27:10.728Z</time></trkpt><trkpt lat="44.0462712" lon="11.387712"><ele>876.0</ele><time>2026-05-02T09:27:11.728Z</time></trkpt><trkpt lat="44.0461648" lon="11.3876362"><ele>876.0</ele><time>2026-05-02T09:27:12.729Z</time></trkpt><trkpt lat="44.0460603" lon="11.3875503"><ele>876.0</ele><time>2026-05-02T09:27:13.728Z</time></trkpt><trkpt lat="44.0459545" lon="11.3874729"><ele>876.0</ele><time>2026-05-02T09:27:14.728Z</time></trkpt><trkpt lat="44.0458471" lon="11.3874142"><ele>876.0</ele><time>2026-05-02T09:27:15.728Z</time></trkpt><trkpt lat="44.0457252" lon="11.3873979"><ele>874.75</ele><time>2026-05-02T09:27:16.728Z</time></trkpt><trkpt lat="44.0456012" lon="11.3874088"><ele>873.5</ele><time>2026-05-02T09:27:17.728Z</time></trkpt><trkpt lat="44.0454656" lon="11.3874359"><ele>872.25</ele><time>2026-05-02T09:27:18.728Z</time></trkpt><trkpt lat="44.0453208" lon="11.38748"><ele>871.0</ele><time>2026-05-02T09:27:19.728Z</time></trkpt><trkpt lat="44.0451735" lon="11.3875349"><ele>871.0</ele><time>2026-05-02T09:27:20.729Z</time></trkpt><trkpt lat="44.0450243" lon="11.387607"><ele>871.0</ele><time>2026-05-02T09:27:21.729Z</time></trkpt><trkpt lat="44.0448815" lon="11.387691"><ele>871.0</ele><time>2026-05-02T09:27:22.727Z</time></trkpt><trkpt lat="44.0447583" lon="11.3877521"><ele>871.0</ele><time>2026-05-02T09:27:23.727Z</time></trkpt><trkpt lat="44.0446522" lon="11.3877987"><ele>870.0</ele><time>2026-05-02T09:27:24.73Z</time></trkpt><trkpt lat="44.0445615" lon="11.3878322"><ele>868.9999999999999</ele><time>2026-05-02T09:27:25.728Z</time></trkpt><trkpt lat="44.0444824" lon="11.3878231"><ele>867.9999999999999</ele><time>2026-05-02T09:27:26.729Z</time></trkpt><trkpt lat="44.0444312" lon="11.387747"><ele>867.0</ele><time>2026-05-02T09:27:27.726Z</time></trkpt><trkpt lat="44.044415" lon="11.3875967"><ele>866.0</ele><time>2026-05-02T09:27:28.725Z</time></trkpt><trkpt lat="44.044405" lon="11.3874117"><ele>866.0</ele><time>2026-05-02T09:27:29.729Z</time></trkpt><trkpt lat="44.044385" lon="11.3872317"><ele>866.0</ele><time>2026-05-02T09:27:30.725Z</time></trkpt><trkpt lat="44.0443817" lon="11.3870383"><ele>866.0</ele><time>2026-05-02T09:27:31.725Z</time></trkpt><trkpt lat="44.0444083" lon="11.3868533"><ele>866.0</ele><time>2026-05-02T09:27:32.726Z</time></trkpt><trkpt lat="44.04447" lon="11.386685"><ele>862.0</ele><time>2026-05-02T09:27:33.726Z</time></trkpt><trkpt lat="44.044565" lon="11.386525"><ele>858.0</ele><time>2026-05-02T09:27:34.727Z</time></trkpt><trkpt lat="44.0446833" lon="11.3864083"><ele>854.0</ele><time>2026-05-02T09:27:35.727Z</time></trkpt><trkpt lat="44.0448117" lon="11.386335"><ele>850.0</ele><time>2026-05-02T09:27:36.727Z</time></trkpt><trkpt lat="44.04494" lon="11.3862433"><ele>849.0</ele><time>2026-05-02T09:27:37.727Z</time></trkpt><trkpt lat="44.04504" lon="11.3861133"><ele>848.0</ele><time>2026-05-02T09:27:38.729Z</time></trkpt><trkpt lat="44.0451267" lon="11.3859617"><ele>847.0</ele><time>2026-05-02T09:27:39.727Z</time></trkpt><trkpt lat="44.04522" lon="11.38584"><ele>846.0</ele><time>2026-05-02T09:27:40.728Z</time></trkpt><trkpt lat="44.0453117" lon="11.3857433"><ele>846.0</ele><time>2026-05-02T09:27:41.728Z</time></trkpt><trkpt lat="44.0453817" lon="11.3856683"><ele>846.0</ele><time>2026-05-02T09:27:42.729Z</time></trkpt><trkpt lat="44.045435" lon="11.3855817"><ele>846.0</ele><time>2026-05-02T09:27:43.729Z</time></trkpt><trkpt lat="44.0454333" lon="11.385485"><ele>846.0</ele><time>2026-05-02T09:27:44.729Z</time></trkpt><trkpt lat="44.0453367" lon="11.3854017"><ele>846.0</ele><time>2026-05-02T09:27:46.728Z</time></trkpt><trkpt lat="44.045245" lon="11.385415"><ele>846.0</ele><time>2026-05-02T09:27:47.728Z</time></trkpt><trkpt lat="44.0451433" lon="11.3854267"><ele>842.5</ele><time>2026-05-02T09:27:48.729Z</time></trkpt><trkpt lat="44.0450233" lon="11.3854"><ele>839.0</ele><time>2026-05-02T09:27:49.729Z</time></trkpt><trkpt lat="44.044905" lon="11.3853667"><ele>835.5</ele><time>2026-05-02T09:27:50.729Z</time></trkpt><trkpt lat="44.0447917" lon="11.3853633"><ele>832.0</ele><time>2026-05-02T09:27:51.727Z</time></trkpt><trkpt lat="44.04467" lon="11.3854017"><ele>832.25</ele><time>2026-05-02T09:27:52.729Z</time></trkpt><trkpt lat="44.0445533" lon="11.3854967"><ele>832.5</ele><time>2026-05-02T09:27:53.728Z</time></trkpt><trkpt lat="44.0444583" lon="11.385635"><ele>832.75</ele><time>2026-05-02T09:27:54.728Z</time></trkpt><trkpt lat="44.0443533" lon="11.3857483"><ele>833.0</ele><time>2026-05-02T09:27:55.729Z</time></trkpt><trkpt lat="44.04423" lon="11.3858467"><ele>823.3333333333334</ele><time>2026-05-02T09:27:56.728Z</time></trkpt><trkpt lat="44.044085" lon="11.38591"><ele>813.6666666666667</ele><time>2026-05-02T09:27:57.729Z</time></trkpt><trkpt lat="44.04393" lon="11.385965"><ele>804.0</ele><time>2026-05-02T09:27:58.729Z</time></trkpt><trkpt lat="44.0437767" lon="11.38604"><ele>804.0</ele><time>2026-05-02T09:27:59.728Z</time></trkpt><trkpt lat="44.0436233" lon="11.3861517"><ele>804.0</ele><time>2026-05-02T09:28:00.727Z</time></trkpt><trkpt lat="44.0435033" lon="11.3863033"><ele>804.0</ele><time>2026-05-02T09:28:01.729Z</time></trkpt><trkpt lat="44.0433683" lon="11.38644"><ele>803.4000000000001</ele><time>2026-05-02T09:28:02.728Z</time></trkpt><trkpt lat="44.043255" lon="11.3865683"><ele>802.8</ele><time>2026-05-02T09:28:03.728Z</time></trkpt><trkpt lat="44.0431767" lon="11.386665"><ele>802.2</ele><time>2026-05-02T09:28:04.728Z</time></trkpt><trkpt lat="44.04311" lon="11.386735"><ele>801.5999999999999</ele><time>2026-05-02T09:28:05.728Z</time></trkpt><trkpt lat="44.043045" lon="11.3867867"><ele>801.0</ele><time>2026-05-02T09:28:06.729Z</time></trkpt><trkpt lat="44.0430017" lon="11.38672"><ele>801.0</ele><time>2026-05-02T09:28:07.727Z</time></trkpt><trkpt lat="44.043" lon="11.3866233"><ele>801.0</ele><time>2026-05-02T09:28:08.725Z</time></trkpt><trkpt lat="44.043045" lon="11.3865333"><ele>801.0</ele><time>2026-05-02T09:28:09.728Z</time></trkpt><trkpt lat="44.0431133" lon="11.3864267"><ele>801.0</ele><time>2026-05-02T09:28:10.728Z</time></trkpt><trkpt lat="44.0432217" lon="11.3862683"><ele>801.0</ele><time>2026-05-02T09:28:11.728Z</time></trkpt><trkpt lat="44.0433367" lon="11.38609"><ele>802.0</ele><time>2026-05-02T09:28:12.73Z</time></trkpt><trkpt lat="44.0434517" lon="11.385895"><ele>803.0</ele><time>2026-05-02T09:28:13.727Z</time></trkpt><trkpt lat="44.0435633" lon="11.3856717"><ele>804.0</ele><time>2026-05-02T09:28:14.728Z</time></trkpt><trkpt lat="44.04366" lon="11.3854317"><ele>798.3333333333333</ele><time>2026-05-02T09:28:15.728Z</time></trkpt><trkpt lat="44.0437383" lon="11.3851917"><ele>792.6666666666666</ele><time>2026-05-02T09:28:16.729Z</time></trkpt><trkpt lat="44.0438033" lon="11.3849533"><ele>787.0</ele><time>2026-05-02T09:28:17.729Z</time></trkpt><trkpt lat="44.0438683" lon="11.3847267"><ele>781.0</ele><time>2026-05-02T09:28:18.728Z</time></trkpt><trkpt lat="44.0439433" lon="11.384525"><ele>775.0</ele><time>2026-05-02T09:28:19.729Z</time></trkpt><trkpt lat="44.0440333" lon="11.3843533"><ele>769.0</ele><time>2026-05-02T09:28:20.728Z</time></trkpt><trkpt lat="44.0441233" lon="11.384215"><ele>769.0</ele><time>2026-05-02T09:28:21.729Z</time></trkpt><trkpt lat="44.044195" lon="11.3841067"><ele>769.0</ele><time>2026-05-02T09:28:22.729Z</time></trkpt><trkpt lat="44.0442367" lon="11.3840067"><ele>769.0</ele><time>2026-05-02T09:28:23.729Z</time></trkpt><trkpt lat="44.04424" lon="11.383915"><ele>769.0</ele><time>2026-05-02T09:28:24.728Z</time></trkpt><trkpt lat="44.0441867" lon="11.3838617"><ele>769.0</ele><time>2026-05-02T09:28:25.728Z</time></trkpt><trkpt lat="44.04404" lon="11.3839383"><ele>769.0</ele><time>2026-05-02T09:28:27.729Z</time></trkpt><trkpt lat="44.0439283" lon="11.3840583"><ele>769.0</ele><time>2026-05-02T09:28:28.728Z</time></trkpt><trkpt lat="44.0438117" lon="11.3842167"><ele>769.0</ele><time>2026-05-02T09:28:29.727Z</time></trkpt><trkpt lat="44.043685" lon="11.3843933"><ele>769.0</ele><time>2026-05-02T09:28:30.728Z</time></trkpt><trkpt lat="44.0435683" lon="11.3845767"><ele>769.0</ele><time>2026-05-02T09:28:31.727Z</time></trkpt><trkpt lat="44.04347" lon="11.3847533"><ele>769.0</ele><time>2026-05-02T09:28:32.73Z</time></trkpt><trkpt lat="44.0433933" lon="11.3849133"><ele>766.8000000000001</ele><time>2026-05-02T09:28:33.729Z</time></trkpt><trkpt lat="44.04333" lon="11.38505"><ele>764.6</ele><time>2026-05-02T09:28:34.728Z</time></trkpt><trkpt lat="44.04327" lon="11.385145"><ele>762.4</ele><time>2026-05-02T09:28:35.729Z</time></trkpt><trkpt lat="44.0432017" lon="11.3851767"><ele>760.2</ele><time>2026-05-02T09:28:36.728Z</time></trkpt><trkpt lat="44.0431433" lon="11.3850533"><ele>758.0</ele><time>2026-05-02T09:28:38.729Z</time></trkpt><trkpt lat="44.0431833" lon="11.384925"><ele>758.0</ele><time>2026-05-02T09:28:39.729Z</time></trkpt><trkpt lat="44.043265" lon="11.384755"><ele>758.0</ele><time>2026-05-02T09:28:40.727Z</time></trkpt><trkpt lat="44.0433567" lon="11.3845583"><ele>758.0</ele><time>2026-05-02T09:28:41.728Z</time></trkpt><trkpt lat="44.0434533" lon="11.384345"><ele>757.0</ele><time>2026-05-02T09:28:42.728Z</time></trkpt><trkpt lat="44.0435533" lon="11.3841133"><ele>756.0</ele><time>2026-05-02T09:28:43.728Z</time></trkpt><trkpt lat="44.043665" lon="11.3838867"><ele>755.0</ele><time>2026-05-02T09:28:44.728Z</time></trkpt><trkpt lat="44.0437733" lon="11.3836617"><ele>755.0</ele><time>2026-05-02T09:28:45.727Z</time></trkpt><trkpt lat="44.0438817" lon="11.3834583"><ele>755.0</ele><time>2026-05-02T09:28:46.727Z</time></trkpt><trkpt lat="44.0439817" lon="11.38326"><ele>755.0</ele><time>2026-05-02T09:28:47.729Z</time></trkpt><trkpt lat="44.0440533" lon="11.3830417"><ele>753.3333333333333</ele><time>2026-05-02T09:28:48.728Z</time></trkpt><trkpt lat="44.0441033" lon="11.3828"><ele>751.6666666666666</ele><time>2026-05-02T09:28:49.728Z</time></trkpt><trkpt lat="44.0441333" lon="11.3825317"><ele>750.0</ele><time>2026-05-02T09:28:50.727Z</time></trkpt><trkpt lat="44.0441667" lon="11.38226"><ele>756.6666666666667</ele><time>2026-05-02T09:28:51.729Z</time></trkpt><trkpt lat="44.044185" lon="11.381995"><ele>763.3333333333334</ele><time>2026-05-02T09:28:52.729Z</time></trkpt><trkpt lat="44.0441933" lon="11.3817417"><ele>770.0</ele><time>2026-05-02T09:28:53.727Z</time></trkpt><trkpt lat="44.0442033" lon="11.3815083"><ele>771.75</ele><time>2026-05-02T09:28:54.728Z</time></trkpt><trkpt lat="44.044205" lon="11.3813217"><ele>773.5</ele><time>2026-05-02T09:28:55.73Z</time></trkpt><trkpt lat="44.0441867" lon="11.3811433"><ele>775.25</ele><time>2026-05-02T09:28:56.728Z</time></trkpt><trkpt lat="44.0441117" lon="11.3810033"><ele>777.0</ele><time>2026-05-02T09:28:57.729Z</time></trkpt><trkpt lat="44.043995" lon="11.3809067"><ele>769.0</ele><time>2026-05-02T09:28:58.728Z</time></trkpt><trkpt lat="44.0438267" lon="11.380865"><ele>761.0</ele><time>2026-05-02T09:28:59.729Z</time></trkpt><trkpt lat="44.0436783" lon="11.380805"><ele>753.0</ele><time>2026-05-02T09:29:00.729Z</time></trkpt><trkpt lat="44.04354" lon="11.380725"><ele>753.0</ele><time>2026-05-02T09:29:01.727Z</time></trkpt><trkpt lat="44.043465" lon="11.38059"><ele>753.0</ele><time>2026-05-02T09:29:02.728Z</time></trkpt><trkpt lat="44.0434317" lon="11.3804117"><ele>753.0</ele><time>2026-05-02T09:29:03.728Z</time></trkpt><trkpt lat="44.043415" lon="11.3802017"><ele>753.0</ele><time>2026-05-02T09:29:04.727Z</time></trkpt><trkpt lat="44.0434017" lon="11.3799733"><ele>754.75</ele><time>2026-05-02T09:29:05.727Z</time></trkpt><trkpt lat="44.0433767" lon="11.3797567"><ele>756.5</ele><time>2026-05-02T09:29:06.727Z</time></trkpt><trkpt lat="44.043335" lon="11.3795583"><ele>758.25</ele><time>2026-05-02T09:29:07.725Z</time></trkpt><trkpt lat="44.0432867" lon="11.3793867"><ele>760.0</ele><time>2026-05-02T09:29:08.728Z</time></trkpt><trkpt lat="44.0432217" lon="11.3792633"><ele>763.5</ele><time>2026-05-02T09:29:09.729Z</time></trkpt><trkpt lat="44.0431333" lon="11.3791783"><ele>767.0</ele><time>2026-05-02T09:29:10.727Z</time></trkpt><trkpt lat="44.04301" lon="11.379185"><ele>770.5</ele><time>2026-05-02T09:29:11.727Z</time></trkpt><trkpt lat="44.0428533" lon="11.379255"><ele>774.0</ele><time>2026-05-02T09:29:12.729Z</time></trkpt><trkpt lat="44.04268" lon="11.3793317"><ele>774.0</ele><time>2026-05-02T09:29:13.728Z</time></trkpt><trkpt lat="44.0425067" lon="11.37937"><ele>774.0</ele><time>2026-05-02T09:29:14.729Z</time></trkpt><trkpt lat="44.0423433" lon="11.37942"><ele>774.0</ele><time>2026-05-02T09:29:15.728Z</time></trkpt><trkpt lat="44.0421917" lon="11.37951"><ele>772.0</ele><time>2026-05-02T09:29:16.728Z</time></trkpt><trkpt lat="44.0420617" lon="11.3796717"><ele>770.0</ele><time>2026-05-02T09:29:17.728Z</time></trkpt><trkpt lat="44.04195" lon="11.3798717"><ele>768.0</ele><time>2026-05-02T09:29:18.727Z</time></trkpt><trkpt lat="44.0418467" lon="11.380065"><ele>765.5999999999999</ele><time>2026-05-02T09:29:19.728Z</time></trkpt><trkpt lat="44.0417583" lon="11.38022"><ele>763.1999999999999</ele><time>2026-05-02T09:29:20.729Z</time></trkpt><trkpt lat="44.0416717" lon="11.3803233"><ele>760.8</ele><time>2026-05-02T09:29:21.728Z</time></trkpt><trkpt lat="44.0415883" lon="11.380365"><ele>758.4</ele><time>2026-05-02T09:29:22.728Z</time></trkpt><trkpt lat="44.0415" lon="11.3803417"><ele>756.0</ele><time>2026-05-02T09:29:23.728Z</time></trkpt><trkpt lat="44.0414133" lon="11.380255"><ele>748.25</ele><time>2026-05-02T09:29:24.728Z</time></trkpt><trkpt lat="44.0413167" lon="11.3801367"><ele>740.5</ele><time>2026-05-02T09:29:25.728Z</time></trkpt><trkpt lat="44.0412217" lon="11.3800033"><ele>732.75</ele><time>2026-05-02T09:29:26.728Z</time></trkpt><trkpt lat="44.0411467" lon="11.3798717"><ele>725.0</ele><time>2026-05-02T09:29:27.728Z</time></trkpt><trkpt lat="44.0411183" lon="11.379725"><ele>726.5</ele><time>2026-05-02T09:29:28.729Z</time></trkpt><trkpt lat="44.0411433" lon="11.379565"><ele>728.0</ele><time>2026-05-02T09:29:29.727Z</time></trkpt><trkpt lat="44.041225" lon="11.37939"><ele>729.5</ele><time>2026-05-02T09:29:30.728Z</time></trkpt><trkpt lat="44.0413167" lon="11.3792167"><ele>731.0</ele><time>2026-05-02T09:29:31.727Z</time></trkpt><trkpt lat="44.0413767" lon="11.37905"><ele>731.0</ele><time>2026-05-02T09:29:32.728Z</time></trkpt><trkpt lat="44.0414" lon="11.3788817"><ele>731.0</ele><time>2026-05-02T09:29:33.729Z</time></trkpt><trkpt lat="44.0413767" lon="11.3787233"><ele>731.0</ele><time>2026-05-02T09:29:34.729Z</time></trkpt><trkpt lat="44.0412933" lon="11.3785833"><ele>731.0</ele><time>2026-05-02T09:29:35.727Z</time></trkpt><trkpt lat="44.0411433" lon="11.37846"><ele>733.3333333333333</ele><time>2026-05-02T09:29:36.73Z</time></trkpt><trkpt lat="44.040965" lon="11.3783633"><ele>735.6666666666666</ele><time>2026-05-02T09:29:37.73Z</time></trkpt><trkpt lat="44.0408217" lon="11.3782717"><ele>738.0</ele><time>2026-05-02T09:29:38.727Z</time></trkpt><trkpt lat="44.04072" lon="11.3781567"><ele>736.0</ele><time>2026-05-02T09:29:39.727Z</time></trkpt><trkpt lat="44.0406783" lon="11.3780033"><ele>734.0</ele><time>2026-05-02T09:29:40.729Z</time></trkpt><trkpt lat="44.0406983" lon="11.3778233"><ele>732.0</ele><time>2026-05-02T09:29:41.728Z</time></trkpt><trkpt lat="44.0407783" lon="11.377635"><ele>730.0</ele><time>2026-05-02T09:29:42.728Z</time></trkpt><trkpt lat="44.0409033" lon="11.377475"><ele>730.0</ele><time>2026-05-02T09:29:43.728Z</time></trkpt><trkpt lat="44.0410367" lon="11.3773433"><ele>730.0</ele><time>2026-05-02T09:29:44.726Z</time></trkpt><trkpt lat="44.041155" lon="11.3772367"><ele>730.0</ele><time>2026-05-02T09:29:45.727Z</time></trkpt><trkpt lat="44.041235" lon="11.3771217"><ele>730.0</ele><time>2026-05-02T09:29:46.727Z</time></trkpt><trkpt lat="44.0412683" lon="11.3769933"><ele>728.0</ele><time>2026-05-02T09:29:47.727Z</time></trkpt><trkpt lat="44.041225" lon="11.3768567"><ele>726.0</ele><time>2026-05-02T09:29:48.73Z</time></trkpt><trkpt lat="44.0411533" lon="11.376745"><ele>724.0</ele><time>2026-05-02T09:29:49.73Z</time></trkpt><trkpt lat="44.04105" lon="11.3766833"><ele>722.0</ele><time>2026-05-02T09:29:50.731Z</time></trkpt><trkpt lat="44.0409383" lon="11.3766133"><ele>722.0</ele><time>2026-05-02T09:29:51.728Z</time></trkpt><trkpt lat="44.0408567" lon="11.3764967"><ele>722.0</ele><time>2026-05-02T09:29:52.73Z</time></trkpt><trkpt lat="44.040815" lon="11.376335"><ele>722.0</ele><time>2026-05-02T09:29:53.728Z</time></trkpt><trkpt lat="44.0408083" lon="11.376115"><ele>722.0</ele><time>2026-05-02T09:29:54.728Z</time></trkpt><trkpt lat="44.04081" lon="11.3758833"><ele>720.5</ele><time>2026-05-02T09:29:55.728Z</time></trkpt><trkpt lat="44.0408133" lon="11.375675"><ele>719.0</ele><time>2026-05-02T09:29:56.728Z</time></trkpt><trkpt lat="44.0408067" lon="11.3755017"><ele>717.5</ele><time>2026-05-02T09:29:57.728Z</time></trkpt><trkpt lat="44.04076" lon="11.3753867"><ele>716.0</ele><time>2026-05-02T09:29:58.728Z</time></trkpt><trkpt lat="44.040695" lon="11.375305"><ele>716.0</ele><time>2026-05-02T09:29:59.729Z</time></trkpt><trkpt lat="44.0405533" lon="11.3753233"><ele>716.0</ele><time>2026-05-02T09:30:00.728Z</time></trkpt><trkpt lat="44.0404183" lon="11.375345"><ele>716.0</ele><time>2026-05-02T09:30:01.727Z</time></trkpt><trkpt lat="44.0402783" lon="11.3753233"><ele>716.0</ele><time>2026-05-02T09:30:02.729Z</time></trkpt><trkpt lat="44.0401283" lon="11.37529"><ele>716.0</ele><time>2026-05-02T09:30:03.729Z</time></trkpt><trkpt lat="44.0399667" lon="11.375305"><ele>716.0</ele><time>2026-05-02T09:30:04.727Z</time></trkpt><trkpt lat="44.039785" lon="11.3753617"><ele>716.0</ele><time>2026-05-02T09:30:05.729Z</time></trkpt><trkpt lat="44.039595" lon="11.3754133"><ele>711.3333333333333</ele><time>2026-05-02T09:30:06.729Z</time></trkpt><trkpt lat="44.0393967" lon="11.3754633"><ele>706.6666666666666</ele><time>2026-05-02T09:30:07.728Z</time></trkpt><trkpt lat="44.0392033" lon="11.3755233"><ele>702.0</ele><time>2026-05-02T09:30:08.729Z</time></trkpt><trkpt lat="44.0390217" lon="11.3756033"><ele>700.3333333333334</ele><time>2026-05-02T09:30:09.728Z</time></trkpt><trkpt lat="44.03885" lon="11.3757067"><ele>698.6666666666667</ele><time>2026-05-02T09:30:10.728Z</time></trkpt><trkpt lat="44.0386933" lon="11.375835"><ele>697.0</ele><time>2026-05-02T09:30:11.727Z</time></trkpt><trkpt lat="44.0385583" lon="11.375965"><ele>697.0</ele><time>2026-05-02T09:30:12.728Z</time></trkpt><trkpt lat="44.038435" lon="11.376095"><ele>697.0</ele><time>2026-05-02T09:30:13.728Z</time></trkpt><trkpt lat="44.038325" lon="11.3762217"><ele>697.0</ele><time>2026-05-02T09:30:14.727Z</time></trkpt><trkpt lat="44.03822" lon="11.3763233"><ele>697.0</ele><time>2026-05-02T09:30:15.729Z</time></trkpt><trkpt lat="44.03811" lon="11.3763717"><ele>692.0</ele><time>2026-05-02T09:30:16.728Z</time></trkpt><trkpt lat="44.038" lon="11.3763467"><ele>687.0</ele><time>2026-05-02T09:30:17.728Z</time></trkpt><trkpt lat="44.03789" lon="11.3762467"><ele>682.0</ele><time>2026-05-02T09:30:18.729Z</time></trkpt><trkpt lat="44.0377867" lon="11.3760733"><ele>677.0</ele><time>2026-05-02T09:30:19.728Z</time></trkpt><trkpt lat="44.0376967" lon="11.375855"><ele>677.0</ele><time>2026-05-02T09:30:20.729Z</time></trkpt><trkpt lat="44.03761" lon="11.37561"><ele>677.0</ele><time>2026-05-02T09:30:21.728Z</time></trkpt><trkpt lat="44.0375283" lon="11.3753667"><ele>677.0</ele><time>2026-05-02T09:30:22.728Z</time></trkpt><trkpt lat="44.0374533" lon="11.3751467"><ele>671.75</ele><time>2026-05-02T09:30:23.728Z</time></trkpt><trkpt lat="44.0373717" lon="11.3749683"><ele>666.5</ele><time>2026-05-02T09:30:24.728Z</time></trkpt><trkpt lat="44.0372783" lon="11.3748367"><ele>661.25</ele><time>2026-05-02T09:30:25.727Z</time></trkpt><trkpt lat="44.0371867" lon="11.374755"><ele>656.0</ele><time>2026-05-02T09:30:26.728Z</time></trkpt><trkpt lat="44.0371383" lon="11.3746567"><ele>654.4</ele><time>2026-05-02T09:30:27.728Z</time></trkpt><trkpt lat="44.0371233" lon="11.3745467"><ele>652.8</ele><time>2026-05-02T09:30:28.728Z</time></trkpt><trkpt lat="44.03715" lon="11.3744383"><ele>651.1999999999999</ele><time>2026-05-02T09:30:29.728Z</time></trkpt><trkpt lat="44.0372833" lon="11.3744033"><ele>649.5999999999999</ele><time>2026-05-02T09:30:30.729Z</time></trkpt><trkpt lat="44.0373983" lon="11.3744217"><ele>648.0</ele><time>2026-05-02T09:30:31.729Z</time></trkpt><trkpt lat="44.0375083" lon="11.3744467"><ele>652.2</ele><time>2026-05-02T09:30:32.728Z</time></trkpt><trkpt lat="44.0376133" lon="11.3744367"><ele>656.4</ele><time>2026-05-02T09:30:33.729Z</time></trkpt><trkpt lat="44.03768" lon="11.3743683"><ele>660.6</ele><time>2026-05-02T09:30:34.726Z</time></trkpt><trkpt lat="44.0376867" lon="11.374245"><ele>664.8000000000001</ele><time>2026-05-02T09:30:35.727Z</time></trkpt><trkpt lat="44.0376467" lon="11.374145"><ele>669.0</ele><time>2026-05-02T09:30:36.731Z</time></trkpt><trkpt lat="44.03756" lon="11.3740683"><ele>663.75</ele><time>2026-05-02T09:30:37.73Z</time></trkpt><trkpt lat="44.0374467" lon="11.374045"><ele>658.5</ele><time>2026-05-02T09:30:38.728Z</time></trkpt><trkpt lat="44.0373117" lon="11.37408"><ele>653.25</ele><time>2026-05-02T09:30:39.728Z</time></trkpt><trkpt lat="44.037145" lon="11.37416"><ele>648.0</ele><time>2026-05-02T09:30:40.727Z</time></trkpt><trkpt lat="44.036985" lon="11.374235"><ele>648.0</ele><time>2026-05-02T09:30:41.727Z</time></trkpt><trkpt lat="44.0368383" lon="11.3743133"><ele>648.0</ele><time>2026-05-02T09:30:42.726Z</time></trkpt><trkpt lat="44.0367233" lon="11.3744"><ele>648.0</ele><time>2026-05-02T09:30:43.728Z</time></trkpt><trkpt lat="44.0366317" lon="11.3745333"><ele>648.0</ele><time>2026-05-02T09:30:44.728Z</time></trkpt><trkpt lat="44.0365717" lon="11.3746783"><ele>650.0</ele><time>2026-05-02T09:30:45.728Z</time></trkpt><trkpt lat="44.036575" lon="11.3748717"><ele>652.0</ele><time>2026-05-02T09:30:46.73Z</time></trkpt><trkpt lat="44.0366183" lon="11.3750767"><ele>654.0</ele><time>2026-05-02T09:30:47.729Z</time></trkpt><trkpt lat="44.0366833" lon="11.3752567"><ele>656.0</ele><time>2026-05-02T09:30:48.729Z</time></trkpt><trkpt lat="44.036805" lon="11.375385"><ele>656.0</ele><time>2026-05-02T09:30:49.729Z</time></trkpt><trkpt lat="44.0369133" lon="11.37549"><ele>656.0</ele><time>2026-05-02T09:30:50.729Z</time></trkpt><trkpt lat="44.03699" lon="11.37561"><ele>656.0</ele><time>2026-05-02T09:30:51.729Z</time></trkpt><trkpt lat="44.0370267" lon="11.37578"><ele>656.0</ele><time>2026-05-02T09:30:52.728Z</time></trkpt><trkpt lat="44.0370267" lon="11.375985"><ele>652.75</ele><time>2026-05-02T09:30:53.726Z</time></trkpt><trkpt lat="44.03699" lon="11.3762067"><ele>649.5</ele><time>2026-05-02T09:30:54.729Z</time></trkpt><trkpt lat="44.0369567" lon="11.3764117"><ele>646.25</ele><time>2026-05-02T09:30:55.728Z</time></trkpt><trkpt lat="44.0369233" lon="11.37659"><ele>643.0</ele><time>2026-05-02T09:30:56.729Z</time></trkpt><trkpt lat="44.0368833" lon="11.37673"><ele>643.0</ele><time>2026-05-02T09:30:57.728Z</time></trkpt><trkpt lat="44.0368217" lon="11.3768183"><ele>643.0</ele><time>2026-05-02T09:30:58.728Z</time></trkpt><trkpt lat="44.0367117" lon="11.3767583"><ele>643.0</ele><time>2026-05-02T09:31:00.728Z</time></trkpt><trkpt lat="44.0366917" lon="11.3766283"><ele>643.0</ele><time>2026-05-02T09:31:01.728Z</time></trkpt><trkpt lat="44.0367083" lon="11.3764467"><ele>643.0</ele><time>2026-05-02T09:31:02.728Z</time></trkpt><trkpt lat="44.0367417" lon="11.3762433"><ele>643.0</ele><time>2026-05-02T09:31:03.728Z</time></trkpt><trkpt lat="44.0367717" lon="11.3760533"><ele>643.0</ele><time>2026-05-02T09:31:04.729Z</time></trkpt><trkpt lat="44.03678" lon="11.3758783"><ele>643.0</ele><time>2026-05-02T09:31:05.729Z</time></trkpt><trkpt lat="44.0367467" lon="11.375725"><ele>643.0</ele><time>2026-05-02T09:31:06.728Z</time></trkpt><trkpt lat="44.0366617" lon="11.3756"><ele>636.3333333333334</ele><time>2026-05-02T09:31:07.729Z</time></trkpt><trkpt lat="44.036535" lon="11.3754917"><ele>629.6666666666666</ele><time>2026-05-02T09:31:08.729Z</time></trkpt><trkpt lat="44.0364" lon="11.3753867"><ele>623.0</ele><time>2026-05-02T09:31:09.728Z</time></trkpt><trkpt lat="44.0362633" lon="11.37528"><ele>623.0</ele><time>2026-05-02T09:31:10.726Z</time></trkpt><trkpt lat="44.03615" lon="11.3751567"><ele>623.0</ele><time>2026-05-02T09:31:11.73Z</time></trkpt><trkpt lat="44.036065" lon="11.3750133"><ele>623.0</ele><time>2026-05-02T09:31:12.727Z</time></trkpt><trkpt lat="44.0360283" lon="11.374835"><ele>623.0</ele><time>2026-05-02T09:31:13.727Z</time></trkpt><trkpt lat="44.036015" lon="11.374645"><ele>623.75</ele><time>2026-05-02T09:31:14.729Z</time></trkpt><trkpt lat="44.036" lon="11.37447"><ele>624.5</ele><time>2026-05-02T09:31:15.727Z</time></trkpt><trkpt lat="44.0359633" lon="11.3743133"><ele>625.25</ele><time>2026-05-02T09:31:16.728Z</time></trkpt><trkpt lat="44.0359033" lon="11.3741867"><ele>626.0</ele><time>2026-05-02T09:31:17.729Z</time></trkpt><trkpt lat="44.0358133" lon="11.37411"><ele>627.8</ele><time>2026-05-02T09:31:18.728Z</time></trkpt><trkpt lat="44.0357067" lon="11.37407"><ele>629.6</ele><time>2026-05-02T09:31:19.729Z</time></trkpt><trkpt lat="44.035615" lon="11.3740917"><ele>631.4</ele><time>2026-05-02T09:31:20.728Z</time></trkpt><trkpt lat="44.0355333" lon="11.3741867"><ele>633.2</ele><time>2026-05-02T09:31:21.727Z</time></trkpt><trkpt lat="44.0354767" lon="11.37434"><ele>635.0</ele><time>2026-05-02T09:31:22.728Z</time></trkpt><trkpt lat="44.03541" lon="11.374515"><ele>635.0</ele><time>2026-05-02T09:31:23.728Z</time></trkpt><trkpt lat="44.0353217" lon="11.3746833"><ele>635.0</ele><time>2026-05-02T09:31:24.728Z</time></trkpt><trkpt lat="44.0352067" lon="11.3748333"><ele>635.0</ele><time>2026-05-02T09:31:25.727Z</time></trkpt><trkpt lat="44.0350817" lon="11.374975"><ele>630.6666666666666</ele><time>2026-05-02T09:31:26.73Z</time></trkpt><trkpt lat="44.034955" lon="11.3751167"><ele>626.3333333333334</ele><time>2026-05-02T09:31:27.728Z</time></trkpt><trkpt lat="44.034825" lon="11.375265"><ele>622.0</ele><time>2026-05-02T09:31:28.729Z</time></trkpt><trkpt lat="44.0347" lon="11.3754033"><ele>619.75</ele><time>2026-05-02T09:31:29.729Z</time></trkpt><trkpt lat="44.0345833" lon="11.3755333"><ele>617.5</ele><time>2026-05-02T09:31:30.728Z</time></trkpt><trkpt lat="44.03447" lon="11.3756483"><ele>615.25</ele><time>2026-05-02T09:31:31.728Z</time></trkpt><trkpt lat="44.03436" lon="11.3757417"><ele>613.0</ele><time>2026-05-02T09:31:32.728Z</time></trkpt><trkpt lat="44.0342333" lon="11.3758"><ele>611.5</ele><time>2026-05-02T09:31:33.729Z</time></trkpt><trkpt lat="44.0341133" lon="11.3758167"><ele>610.0</ele><time>2026-05-02T09:31:34.728Z</time></trkpt><trkpt lat="44.0339883" lon="11.3757983"><ele>608.5</ele><time>2026-05-02T09:31:35.729Z</time></trkpt><trkpt lat="44.0338667" lon="11.3757617"><ele>607.0</ele><time>2026-05-02T09:31:36.727Z</time></trkpt><trkpt lat="44.0337383" lon="11.3757267"><ele>607.0</ele><time>2026-05-02T09:31:37.728Z</time></trkpt><trkpt lat="44.0336167" lon="11.3756817"><ele>607.0</ele><time>2026-05-02T09:31:38.728Z</time></trkpt><trkpt lat="44.0334967" lon="11.3756517"><ele>607.0</ele><time>2026-05-02T09:31:39.729Z</time></trkpt><trkpt lat="44.03338" lon="11.37567"><ele>607.0</ele><time>2026-05-02T09:31:40.728Z</time></trkpt><trkpt lat="44.0332667" lon="11.37572"><ele>608.0</ele><time>2026-05-02T09:31:41.727Z</time></trkpt><trkpt lat="44.0331533" lon="11.3758"><ele>609.0</ele><time>2026-05-02T09:31:42.726Z</time></trkpt><trkpt lat="44.03305" lon="11.3759183"><ele>610.0</ele><time>2026-05-02T09:31:43.728Z</time></trkpt><trkpt lat="44.0329617" lon="11.3760417"><ele>611.0</ele><time>2026-05-02T09:31:44.728Z</time></trkpt><trkpt lat="44.0328617" lon="11.37636"><ele>607.75</ele><time>2026-05-02T09:31:46.728Z</time></trkpt><trkpt lat="44.0328167" lon="11.3765167"><ele>604.5</ele><time>2026-05-02T09:31:47.728Z</time></trkpt><trkpt lat="44.03276" lon="11.3766533"><ele>601.25</ele><time>2026-05-02T09:31:48.728Z</time></trkpt><trkpt lat="44.0326783" lon="11.3767517"><ele>598.0</ele><time>2026-05-02T09:31:49.727Z</time></trkpt><trkpt lat="44.0325633" lon="11.3768283"><ele>596.75</ele><time>2026-05-02T09:31:50.731Z</time></trkpt><trkpt lat="44.03243" lon="11.3768767"><ele>595.5</ele><time>2026-05-02T09:31:51.728Z</time></trkpt><trkpt lat="44.0322867" lon="11.3769033"><ele>594.25</ele><time>2026-05-02T09:31:52.728Z</time></trkpt><trkpt lat="44.0321333" lon="11.3769267"><ele>593.0</ele><time>2026-05-02T09:31:53.728Z</time></trkpt><trkpt lat="44.0319733" lon="11.3769417"><ele>593.0</ele><time>2026-05-02T09:31:54.728Z</time></trkpt><trkpt lat="44.0318083" lon="11.3769483"><ele>593.0</ele><time>2026-05-02T09:31:55.729Z</time></trkpt><trkpt lat="44.03164" lon="11.3769367"><ele>593.0</ele><time>2026-05-02T09:31:56.729Z</time></trkpt><trkpt lat="44.0314717" lon="11.3769183"><ele>593.3333333333333</ele><time>2026-05-02T09:31:57.728Z</time></trkpt><trkpt lat="44.03131" lon="11.3769017"><ele>593.6666666666666</ele><time>2026-05-02T09:31:58.728Z</time></trkpt><trkpt lat="44.0311517" lon="11.376885"><ele>594.0</ele><time>2026-05-02T09:31:59.728Z</time></trkpt><trkpt lat="44.0310033" lon="11.3768783"><ele>594.0</ele><time>2026-05-02T09:32:00.729Z</time></trkpt><trkpt lat="44.0308767" lon="11.3769033"><ele>594.0</ele><time>2026-05-02T09:32:01.729Z</time></trkpt><trkpt lat="44.0307717" lon="11.3769633"><ele>594.0</ele><time>2026-05-02T09:32:02.729Z</time></trkpt><trkpt lat="44.0306933" lon="11.37708"><ele>594.0</ele><time>2026-05-02T09:32:03.729Z</time></trkpt><trkpt lat="44.0306517" lon="11.3772533"><ele>591.25</ele><time>2026-05-02T09:32:04.729Z</time></trkpt><trkpt lat="44.030615" lon="11.37743"><ele>588.5</ele><time>2026-05-02T09:32:05.728Z</time></trkpt><trkpt lat="44.03056" lon="11.3775767"><ele>585.75</ele><time>2026-05-02T09:32:06.727Z</time></trkpt><trkpt lat="44.0304683" lon="11.37767"><ele>583.0</ele><time>2026-05-02T09:32:07.728Z</time></trkpt><trkpt lat="44.0303683" lon="11.377755"><ele>583.0</ele><time>2026-05-02T09:32:08.729Z</time></trkpt><trkpt lat="44.03027" lon="11.37787"><ele>583.0</ele><time>2026-05-02T09:32:09.727Z</time></trkpt><trkpt lat="44.0301917" lon="11.3780183"><ele>583.0</ele><time>2026-05-02T09:32:10.728Z</time></trkpt><trkpt lat="44.0301267" lon="11.37816"><ele>583.0</ele><time>2026-05-02T09:32:11.728Z</time></trkpt><trkpt lat="44.03004" lon="11.37827"><ele>578.0</ele><time>2026-05-02T09:32:12.729Z</time></trkpt><trkpt lat="44.0299267" lon="11.378335"><ele>573.0</ele><time>2026-05-02T09:32:13.729Z</time></trkpt><trkpt lat="44.0297967" lon="11.3783367"><ele>568.0</ele><time>2026-05-02T09:32:14.727Z</time></trkpt><trkpt lat="44.0296533" lon="11.37829"><ele>563.0</ele><time>2026-05-02T09:32:15.729Z</time></trkpt><trkpt lat="44.0295117" lon="11.3781933"><ele>563.0</ele><time>2026-05-02T09:32:16.728Z</time></trkpt><trkpt lat="44.029385" lon="11.37807"><ele>563.0</ele><time>2026-05-02T09:32:17.726Z</time></trkpt><trkpt lat="44.029285" lon="11.3779267"><ele>563.0</ele><time>2026-05-02T09:32:18.727Z</time></trkpt><trkpt lat="44.0292267" lon="11.377765"><ele>563.0</ele><time>2026-05-02T09:32:19.729Z</time></trkpt><trkpt lat="44.0292183" lon="11.3775883"><ele>563.25</ele><time>2026-05-02T09:32:20.728Z</time></trkpt><trkpt lat="44.0292283" lon="11.37742"><ele>563.5</ele><time>2026-05-02T09:32:21.729Z</time></trkpt><trkpt lat="44.029225" lon="11.37726"><ele>563.75</ele><time>2026-05-02T09:32:22.728Z</time></trkpt><trkpt lat="44.0291733" lon="11.37712"><ele>564.0</ele><time>2026-05-02T09:32:23.729Z</time></trkpt><trkpt lat="44.0290667" lon="11.3770167"><ele>564.0</ele><time>2026-05-02T09:32:24.728Z</time></trkpt><trkpt lat="44.02893" lon="11.37695"><ele>564.0</ele><time>2026-05-02T09:32:25.729Z</time></trkpt><trkpt lat="44.028775" lon="11.37691"><ele>564.0</ele><time>2026-05-02T09:32:26.728Z</time></trkpt><trkpt lat="44.0286133" lon="11.3768517"><ele>564.0</ele><time>2026-05-02T09:32:27.728Z</time></trkpt><trkpt lat="44.02845" lon="11.37676"><ele>564.0</ele><time>2026-05-02T09:32:28.729Z</time></trkpt><trkpt lat="44.028295" lon="11.3766483"><ele>564.0</ele><time>2026-05-02T09:32:29.728Z</time></trkpt><trkpt lat="44.02815" lon="11.3765317"><ele>561.6666666666666</ele><time>2026-05-02T09:32:30.728Z</time></trkpt><trkpt lat="44.0280133" lon="11.3764133"><ele>559.3333333333333</ele><time>2026-05-02T09:32:31.729Z</time></trkpt><trkpt lat="44.0278867" lon="11.37629"><ele>557.0</ele><time>2026-05-02T09:32:32.729Z</time></trkpt><trkpt lat="44.0277783" lon="11.3761467"><ele>557.0</ele><time>2026-05-02T09:32:33.727Z</time></trkpt><trkpt lat="44.02769" lon="11.37598"><ele>557.0</ele><time>2026-05-02T09:32:34.729Z</time></trkpt><trkpt lat="44.02762" lon="11.3757983"><ele>557.0</ele><time>2026-05-02T09:32:35.728Z</time></trkpt><trkpt lat="44.0275283" lon="11.3756383"><ele>557.0</ele><time>2026-05-02T09:32:36.729Z</time></trkpt><trkpt lat="44.0274067" lon="11.3754933"><ele>552.6666666666666</ele><time>2026-05-02T09:32:37.729Z</time></trkpt><trkpt lat="44.02725" lon="11.3753833"><ele>548.3333333333334</ele><time>2026-05-02T09:32:38.727Z</time></trkpt><trkpt lat="44.0270883" lon="11.3752733"><ele>544.0</ele><time>2026-05-02T09:32:39.727Z</time></trkpt><trkpt lat="44.0269217" lon="11.3751567"><ele>544.0</ele><time>2026-05-02T09:32:40.728Z</time></trkpt><trkpt lat="44.0267633" lon="11.3750233"><ele>544.0</ele><time>2026-05-02T09:32:41.729Z</time></trkpt><trkpt lat="44.0266117" lon="11.3748833"><ele>544.0</ele><time>2026-05-02T09:32:42.728Z</time></trkpt><trkpt lat="44.0264617" lon="11.3747533"><ele>538.6666666666667</ele><time>2026-05-02T09:32:43.727Z</time></trkpt><trkpt lat="44.0263233" lon="11.3746167"><ele>533.3333333333334</ele><time>2026-05-02T09:32:44.729Z</time></trkpt><trkpt lat="44.02619" lon="11.3744783"><ele>528.0</ele><time>2026-05-02T09:32:45.728Z</time></trkpt><trkpt lat="44.0260767" lon="11.3743283"><ele>528.0</ele><time>2026-05-02T09:32:46.727Z</time></trkpt><trkpt lat="44.0259883" lon="11.37416"><ele>528.0</ele><time>2026-05-02T09:32:47.727Z</time></trkpt><trkpt lat="44.0259267" lon="11.37399"><ele>528.0</ele><time>2026-05-02T09:32:48.726Z</time></trkpt><trkpt lat="44.0258967" lon="11.373815"><ele>528.0</ele><time>2026-05-02T09:32:49.727Z</time></trkpt><trkpt lat="44.0259083" lon="11.3736483"><ele>526.5</ele><time>2026-05-02T09:32:50.726Z</time></trkpt><trkpt lat="44.0259683" lon="11.3734783"><ele>525.0</ele><time>2026-05-02T09:32:51.727Z</time></trkpt><trkpt lat="44.02605" lon="11.3733033"><ele>523.5</ele><time>2026-05-02T09:32:52.727Z</time></trkpt><trkpt lat="44.0261417" lon="11.3731433"><ele>522.0</ele><time>2026-05-02T09:32:53.728Z</time></trkpt><trkpt lat="44.02624" lon="11.3730117"><ele>520.5</ele><time>2026-05-02T09:32:54.727Z</time></trkpt><trkpt lat="44.026365" lon="11.3729283"><ele>519.0</ele><time>2026-05-02T09:32:55.727Z</time></trkpt><trkpt lat="44.0265" lon="11.3728833"><ele>517.5</ele><time>2026-05-02T09:32:56.727Z</time></trkpt><trkpt lat="44.026625" lon="11.372855"><ele>516.0</ele><time>2026-05-02T09:32:57.726Z</time></trkpt><trkpt lat="44.0267333" lon="11.3728117"><ele>516.0</ele><time>2026-05-02T09:32:58.728Z</time></trkpt><trkpt lat="44.02682" lon="11.372725"><ele>516.0</ele><time>2026-05-02T09:32:59.73Z</time></trkpt><trkpt lat="44.0268867" lon="11.3725883"><ele>516.0</ele><time>2026-05-02T09:33:00.729Z</time></trkpt><trkpt lat="44.0269467" lon="11.3724417"><ele>516.0</ele><time>2026-05-02T09:33:01.728Z</time></trkpt><trkpt lat="44.0270167" lon="11.3723217"><ele>516.0</ele><time>2026-05-02T09:33:02.73Z</time></trkpt><trkpt lat="44.02711" lon="11.3722283"><ele>516.0</ele><time>2026-05-02T09:33:03.728Z</time></trkpt><trkpt lat="44.02721" lon="11.3721433"><ele>516.0</ele><time>2026-05-02T09:33:04.729Z</time></trkpt><trkpt lat="44.0272817" lon="11.3720283"><ele>516.0</ele><time>2026-05-02T09:33:05.73Z</time></trkpt><trkpt lat="44.0273283" lon="11.3718933"><ele>516.0</ele><time>2026-05-02T09:33:06.729Z</time></trkpt><trkpt lat="44.02734" lon="11.3717467"><ele>515.0</ele><time>2026-05-02T09:33:07.73Z</time></trkpt><trkpt lat="44.0273683" lon="11.3716033"><ele>514.0</ele><time>2026-05-02T09:33:08.73Z</time></trkpt><trkpt lat="44.0274433" lon="11.3714733"><ele>513.0</ele><time>2026-05-02T09:33:09.729Z</time></trkpt><trkpt lat="44.0275717" lon="11.371365"><ele>512.0</ele><time>2026-05-02T09:33:10.728Z</time></trkpt><trkpt lat="44.0277133" lon="11.3712533"><ele>503.66666666666663</ele><time>2026-05-02T09:33:11.728Z</time></trkpt><trkpt lat="44.02785" lon="11.3711417"><ele>495.33333333333337</ele><time>2026-05-02T09:33:12.727Z</time></trkpt><trkpt lat="44.0279817" lon="11.371035"><ele>487.0</ele><time>2026-05-02T09:33:13.728Z</time></trkpt><trkpt lat="44.0281083" lon="11.37094"><ele>487.0</ele><time>2026-05-02T09:33:14.728Z</time></trkpt><trkpt lat="44.028235" lon="11.3708633"><ele>487.0</ele><time>2026-05-02T09:33:15.728Z</time></trkpt><trkpt lat="44.028365" lon="11.3707983"><ele>487.0</ele><time>2026-05-02T09:33:16.727Z</time></trkpt><trkpt lat="44.0284983" lon="11.3707567"><ele>487.0</ele><time>2026-05-02T09:33:17.728Z</time></trkpt><trkpt lat="44.0286283" lon="11.37074"><ele>489.6</ele><time>2026-05-02T09:33:18.729Z</time></trkpt><trkpt lat="44.028745" lon="11.370745"><ele>492.20000000000005</ele><time>2026-05-02T09:33:19.727Z</time></trkpt><trkpt lat="44.0288383" lon="11.37075"><ele>494.8</ele><time>2026-05-02T09:33:20.729Z</time></trkpt><trkpt lat="44.02892" lon="11.370745"><ele>497.4</ele><time>2026-05-02T09:33:21.728Z</time></trkpt><trkpt lat="44.028955" lon="11.3706683"><ele>500.0</ele><time>2026-05-02T09:33:22.728Z</time></trkpt><trkpt lat="44.028925" lon="11.3705217"><ele>494.8</ele><time>2026-05-02T09:33:24.727Z</time></trkpt><trkpt lat="44.0288333" lon="11.370495"><ele>489.6</ele><time>2026-05-02T09:33:25.727Z</time></trkpt><trkpt lat="44.0287367" lon="11.3704833"><ele>484.4</ele><time>2026-05-02T09:33:26.729Z</time></trkpt><trkpt lat="44.028625" lon="11.3704867"><ele>479.2</ele><time>2026-05-02T09:33:27.728Z</time></trkpt><trkpt lat="44.0284917" lon="11.370495"><ele>474.0</ele><time>2026-05-02T09:33:28.729Z</time></trkpt><trkpt lat="44.0283633" lon="11.370505"><ele>471.25</ele><time>2026-05-02T09:33:29.727Z</time></trkpt><trkpt lat="44.02824" lon="11.3705117"><ele>468.5</ele><time>2026-05-02T09:33:30.727Z</time></trkpt><trkpt lat="44.0281167" lon="11.37053"><ele>465.75</ele><time>2026-05-02T09:33:31.729Z</time></trkpt><trkpt lat="44.027995" lon="11.37057"><ele>463.0</ele><time>2026-05-02T09:33:32.729Z</time></trkpt><trkpt lat="44.0278683" lon="11.37063"><ele>466.75</ele><time>2026-05-02T09:33:33.726Z</time></trkpt><trkpt lat="44.02773" lon="11.3706733"><ele>470.5</ele><time>2026-05-02T09:33:34.728Z</time></trkpt><trkpt lat="44.02759" lon="11.3707017"><ele>474.25</ele><time>2026-05-02T09:33:35.728Z</time></trkpt><trkpt lat="44.0274483" lon="11.3707133"><ele>478.0</ele><time>2026-05-02T09:33:36.728Z</time></trkpt><trkpt lat="44.0273033" lon="11.3707267"><ele>478.0</ele><time>2026-05-02T09:33:37.729Z</time></trkpt><trkpt lat="44.0271583" lon="11.37074"><ele>478.0</ele><time>2026-05-02T09:33:38.727Z</time></trkpt><trkpt lat="44.027015" lon="11.3707533"><ele>478.0</ele><time>2026-05-02T09:33:39.728Z</time></trkpt><trkpt lat="44.02688" lon="11.3707667"><ele>478.0</ele><time>2026-05-02T09:33:40.727Z</time></trkpt><trkpt lat="44.0267483" lon="11.37078"><ele>476.75</ele><time>2026-05-02T09:33:41.728Z</time></trkpt><trkpt lat="44.0266267" lon="11.3707867"><ele>475.5</ele><time>2026-05-02T09:33:42.728Z</time></trkpt><trkpt lat="44.0265033" lon="11.3707617"><ele>474.25</ele><time>2026-05-02T09:33:43.728Z</time></trkpt><trkpt lat="44.02639" lon="11.3707083"><ele>473.0</ele><time>2026-05-02T09:33:44.727Z</time></trkpt><trkpt lat="44.026285" lon="11.3706317"><ele>473.0</ele><time>2026-05-02T09:33:45.727Z</time></trkpt><trkpt lat="44.0261867" lon="11.3705467"><ele>473.0</ele><time>2026-05-02T09:33:46.727Z</time></trkpt><trkpt lat="44.0260883" lon="11.3704617"><ele>473.0</ele><time>2026-05-02T09:33:47.727Z</time></trkpt><trkpt lat="44.0259917" lon="11.37038"><ele>473.0</ele><time>2026-05-02T09:33:48.728Z</time></trkpt><trkpt lat="44.0259017" lon="11.3702983"><ele>471.79999999999995</ele><time>2026-05-02T09:33:49.728Z</time></trkpt><trkpt lat="44.02582" lon="11.3702183"><ele>470.59999999999997</ele><time>2026-05-02T09:33:50.728Z</time></trkpt><trkpt lat="44.0257417" lon="11.3701383"><ele>469.40000000000003</ele><time>2026-05-02T09:33:51.728Z</time></trkpt><trkpt lat="44.0256617" lon="11.370065"><ele>468.20000000000005</ele><time>2026-05-02T09:33:52.729Z</time></trkpt><trkpt lat="44.025575" lon="11.3699933"><ele>467.0</ele><time>2026-05-02T09:33:53.727Z</time></trkpt><trkpt lat="44.0254833" lon="11.36993"><ele>464.75</ele><time>2026-05-02T09:33:54.728Z</time></trkpt><trkpt lat="44.0253733" lon="11.3698783"><ele>462.5</ele><time>2026-05-02T09:33:55.727Z</time></trkpt><trkpt lat="44.0252583" lon="11.3698267"><ele>460.25</ele><time>2026-05-02T09:33:56.73Z</time></trkpt><trkpt lat="44.0251383" lon="11.3697867"><ele>458.0</ele><time>2026-05-02T09:33:57.728Z</time></trkpt><trkpt lat="44.0250133" lon="11.3697567"><ele>457.0</ele><time>2026-05-02T09:33:58.727Z</time></trkpt><trkpt lat="44.0248883" lon="11.36973"><ele>456.0</ele><time>2026-05-02T09:33:59.728Z</time></trkpt><trkpt lat="44.0247633" lon="11.3697117"><ele>455.0</ele><time>2026-05-02T09:34:00.726Z</time></trkpt><trkpt lat="44.024635" lon="11.3697"><ele>454.0</ele><time>2026-05-02T09:34:01.728Z</time></trkpt><trkpt lat="44.0245117" lon="11.3696867"><ele>454.0</ele><time>2026-05-02T09:34:02.727Z</time></trkpt><trkpt lat="44.0243933" lon="11.3696833"><ele>454.0</ele><time>2026-05-02T09:34:03.727Z</time></trkpt><trkpt lat="44.0242833" lon="11.3697083"><ele>454.0</ele><time>2026-05-02T09:34:04.726Z</time></trkpt><trkpt lat="44.024175" lon="11.3697633"><ele>454.0</ele><time>2026-05-02T09:34:05.728Z</time></trkpt><trkpt lat="44.0240867" lon="11.3698717"><ele>451.75</ele><time>2026-05-02T09:34:06.729Z</time></trkpt><trkpt lat="44.0239967" lon="11.3699967"><ele>449.5</ele><time>2026-05-02T09:34:07.728Z</time></trkpt><trkpt lat="44.02391" lon="11.3701167"><ele>447.25</ele><time>2026-05-02T09:34:08.729Z</time></trkpt><trkpt lat="44.023815" lon="11.3702233"><ele>445.0</ele><time>2026-05-02T09:34:09.729Z</time></trkpt><trkpt lat="44.0237117" lon="11.37031"><ele>445.0</ele><time>2026-05-02T09:34:10.729Z</time></trkpt><trkpt lat="44.0235967" lon="11.37037"><ele>445.0</ele><time>2026-05-02T09:34:11.728Z</time></trkpt><trkpt lat="44.0234783" lon="11.3704083"><ele>445.0</ele><time>2026-05-02T09:34:12.729Z</time></trkpt><trkpt lat="44.023365" lon="11.3704367"><ele>445.0</ele><time>2026-05-02T09:34:13.728Z</time></trkpt><trkpt lat="44.0232533" lon="11.3704617"><ele>443.4</ele><time>2026-05-02T09:34:14.728Z</time></trkpt><trkpt lat="44.02314" lon="11.3704867"><ele>441.8</ele><time>2026-05-02T09:34:15.729Z</time></trkpt><trkpt lat="44.0230267" lon="11.3705083"><ele>440.20000000000005</ele><time>2026-05-02T09:34:16.728Z</time></trkpt><trkpt lat="44.0229183" lon="11.370535"><ele>438.6</ele><time>2026-05-02T09:34:17.728Z</time></trkpt><trkpt lat="44.0228117" lon="11.37056"><ele>437.0</ele><time>2026-05-02T09:34:18.728Z</time></trkpt><trkpt lat="44.0227083" lon="11.3705817"><ele>435.20000000000005</ele><time>2026-05-02T09:34:19.728Z</time></trkpt><trkpt lat="44.0226067" lon="11.37059"><ele>433.40000000000003</ele><time>2026-05-02T09:34:20.729Z</time></trkpt><trkpt lat="44.0225067" lon="11.370575"><ele>431.59999999999997</ele><time>2026-05-02T09:34:21.728Z</time></trkpt><trkpt lat="44.0224067" lon="11.3705333"><ele>429.79999999999995</ele><time>2026-05-02T09:34:22.729Z</time></trkpt><trkpt lat="44.0223" lon="11.3704833"><ele>428.0</ele><time>2026-05-02T09:34:23.727Z</time></trkpt><trkpt lat="44.0221883" lon="11.3704533"><ele>427.59999999999997</ele><time>2026-05-02T09:34:24.728Z</time></trkpt><trkpt lat="44.0220767" lon="11.3704467"><ele>427.19999999999993</ele><time>2026-05-02T09:34:25.729Z</time></trkpt><trkpt lat="44.02197" lon="11.3704633"><ele>426.8</ele><time>2026-05-02T09:34:26.728Z</time></trkpt><trkpt lat="44.021875" lon="11.3704967"><ele>426.4</ele><time>2026-05-02T09:34:27.727Z</time></trkpt><trkpt lat="44.021795" lon="11.3705317"><ele>426.0</ele><time>2026-05-02T09:34:28.729Z</time></trkpt><trkpt lat="44.0217" lon="11.3705817"><ele>423.0</ele><time>2026-05-02T09:34:30.728Z</time></trkpt><trkpt lat="44.0216117" lon="11.3706"><ele>420.0</ele><time>2026-05-02T09:35:53.727Z</time></trkpt><trkpt lat="44.0215417" lon="11.3706233"><ele>417.0</ele><time>2026-05-02T09:35:54.726Z</time></trkpt><trkpt lat="44.02146" lon="11.3706333"><ele>414.0</ele><time>2026-05-02T09:35:55.726Z</time></trkpt><trkpt lat="44.0213683" lon="11.3706333"><ele>411.0</ele><time>2026-05-02T09:35:56.728Z</time></trkpt><trkpt lat="44.0212667" lon="11.3706083"><ele>408.0</ele><time>2026-05-02T09:35:57.727Z</time></trkpt><trkpt lat="44.02116" lon="11.370565"><ele>409.75</ele><time>2026-05-02T09:35:58.726Z</time></trkpt><trkpt lat="44.0210517" lon="11.37051"><ele>411.5</ele><time>2026-05-02T09:35:59.727Z</time></trkpt><trkpt lat="44.020945" lon="11.3704367"><ele>413.25</ele><time>2026-05-02T09:36:00.728Z</time></trkpt><trkpt lat="44.0208433" lon="11.3703483"><ele>415.0</ele><time>2026-05-02T09:36:01.728Z</time></trkpt><trkpt lat="44.0207567" lon="11.3702367"><ele>411.5</ele><time>2026-05-02T09:36:02.726Z</time></trkpt><trkpt lat="44.020675" lon="11.3701317"><ele>408.0</ele><time>2026-05-02T09:36:03.727Z</time></trkpt><trkpt lat="44.0205767" lon="11.3700533"><ele>404.5</ele><time>2026-05-02T09:36:04.728Z</time></trkpt><trkpt lat="44.02046" lon="11.3700217"><ele>401.0</ele><time>2026-05-02T09:36:05.728Z</time></trkpt><trkpt lat="44.0203283" lon="11.3700317"><ele>401.0</ele><time>2026-05-02T09:36:06.728Z</time></trkpt><trkpt lat="44.020185" lon="11.3700533"><ele>401.0</ele><time>2026-05-02T09:36:07.728Z</time></trkpt><trkpt lat="44.02004" lon="11.370085"><ele>401.0</ele><time>2026-05-02T09:36:08.728Z</time></trkpt><trkpt lat="44.0198983" lon="11.3701167"><ele>401.0</ele><time>2026-05-02T09:36:09.728Z</time></trkpt><trkpt lat="44.019755" lon="11.3701417"><ele>398.5</ele><time>2026-05-02T09:36:10.728Z</time></trkpt><trkpt lat="44.0196117" lon="11.3701767"><ele>396.0</ele><time>2026-05-02T09:36:11.725Z</time></trkpt><trkpt lat="44.0194683" lon="11.3702283"><ele>393.5</ele><time>2026-05-02T09:36:12.726Z</time></trkpt><trkpt lat="44.01933" lon="11.3703067"><ele>391.0</ele><time>2026-05-02T09:36:13.727Z</time></trkpt><trkpt lat="44.0192067" lon="11.370405"><ele>391.33333333333337</ele><time>2026-05-02T09:36:14.726Z</time></trkpt><trkpt lat="44.0190817" lon="11.3705233"><ele>391.66666666666663</ele><time>2026-05-02T09:36:15.727Z</time></trkpt><trkpt lat="44.0189483" lon="11.3706283"><ele>392.0</ele><time>2026-05-02T09:36:16.727Z</time></trkpt><trkpt lat="44.018815" lon="11.37072"><ele>393.0</ele><time>2026-05-02T09:36:17.728Z</time></trkpt><trkpt lat="44.0186883" lon="11.370815"><ele>394.0</ele><time>2026-05-02T09:36:18.728Z</time></trkpt><trkpt lat="44.01857" lon="11.3709067"><ele>395.0</ele><time>2026-05-02T09:36:19.727Z</time></trkpt><trkpt lat="44.0184467" lon="11.3709667"><ele>396.0</ele><time>2026-05-02T09:36:20.727Z</time></trkpt><trkpt lat="44.018315" lon="11.370995"><ele>392.75</ele><time>2026-05-02T09:36:21.727Z</time></trkpt><trkpt lat="44.01818" lon="11.3709667"><ele>389.5</ele><time>2026-05-02T09:36:22.825Z</time></trkpt><trkpt lat="44.0180517" lon="11.3708883"><ele>386.25</ele><time>2026-05-02T09:36:23.727Z</time></trkpt><trkpt lat="44.0179233" lon="11.37078"><ele>383.0</ele><time>2026-05-02T09:36:24.728Z</time></trkpt><trkpt lat="44.017785" lon="11.3706583"><ele>383.0</ele><time>2026-05-02T09:36:25.726Z</time></trkpt><trkpt lat="44.0176483" lon="11.3705333"><ele>383.0</ele><time>2026-05-02T09:36:26.727Z</time></trkpt><trkpt lat="44.01752" lon="11.3704233"><ele>383.0</ele><time>2026-05-02T09:36:27.727Z</time></trkpt><trkpt lat="44.0173933" lon="11.3703417"><ele>383.5</ele><time>2026-05-02T09:36:28.725Z</time></trkpt><trkpt lat="44.017265" lon="11.3703133"><ele>384.0</ele><time>2026-05-02T09:36:29.727Z</time></trkpt><trkpt lat="44.01713" lon="11.3703483"><ele>384.5</ele><time>2026-05-02T09:36:30.728Z</time></trkpt><trkpt lat="44.0169783" lon="11.37043"><ele>385.0</ele><time>2026-05-02T09:36:31.728Z</time></trkpt><trkpt lat="44.01683" lon="11.3705183"><ele>385.33333333333337</ele><time>2026-05-02T09:36:32.728Z</time></trkpt><trkpt lat="44.0167017" lon="11.3706133"><ele>385.66666666666663</ele><time>2026-05-02T09:36:33.727Z</time></trkpt><trkpt lat="44.0165767" lon="11.3707417"><ele>386.0</ele><time>2026-05-02T09:36:34.728Z</time></trkpt><trkpt lat="44.0164817" lon="11.3709033"><ele>386.5</ele><time>2026-05-02T09:36:35.728Z</time></trkpt><trkpt lat="44.0163967" lon="11.371065"><ele>387.0</ele><time>2026-05-02T09:36:36.728Z</time></trkpt><trkpt lat="44.01631" lon="11.3711917"><ele>387.5</ele><time>2026-05-02T09:36:37.728Z</time></trkpt><trkpt lat="44.0162167" lon="11.3712733"><ele>388.0</ele><time>2026-05-02T09:36:38.727Z</time></trkpt><trkpt lat="44.016095" lon="11.37125"><ele>388.0</ele><time>2026-05-02T09:36:39.726Z</time></trkpt><trkpt lat="44.01596" lon="11.37115"><ele>388.0</ele><time>2026-05-02T09:36:40.728Z</time></trkpt><trkpt lat="44.0158033" lon="11.3710817"><ele>388.0</ele><time>2026-05-02T09:36:41.727Z</time></trkpt><trkpt lat="44.0156467" lon="11.3710767"><ele>386.0</ele><time>2026-05-02T09:36:42.728Z</time></trkpt><trkpt lat="44.0154867" lon="11.3711433"><ele>384.0</ele><time>2026-05-02T09:36:43.727Z</time></trkpt><trkpt lat="44.015335" lon="11.3712183"><ele>382.0</ele><time>2026-05-02T09:36:44.727Z</time></trkpt><trkpt lat="44.0151733" lon="11.3712483"><ele>382.0</ele><time>2026-05-02T09:36:45.726Z</time></trkpt><trkpt lat="44.0149967" lon="11.3712333"><ele>382.0</ele><time>2026-05-02T09:36:46.726Z</time></trkpt><trkpt lat="44.014815" lon="11.3711717"><ele>382.0</ele><time>2026-05-02T09:36:47.727Z</time></trkpt><trkpt lat="44.014635" lon="11.3711117"><ele>378.3333333333333</ele><time>2026-05-02T09:36:48.727Z</time></trkpt><trkpt lat="44.0144633" lon="11.3710183"><ele>374.6666666666667</ele><time>2026-05-02T09:36:49.727Z</time></trkpt><trkpt lat="44.0143" lon="11.3709117"><ele>371.0</ele><time>2026-05-02T09:36:50.727Z</time></trkpt><trkpt lat="44.0141417" lon="11.3708133"><ele>369.6666666666667</ele><time>2026-05-02T09:36:51.728Z</time></trkpt><trkpt lat="44.01399" lon="11.370725"><ele>368.3333333333333</ele><time>2026-05-02T09:36:52.728Z</time></trkpt><trkpt lat="44.0138483" lon="11.3706233"><ele>367.0</ele><time>2026-05-02T09:36:53.727Z</time></trkpt><trkpt lat="44.01372" lon="11.3704933"><ele>366.66666666666663</ele><time>2026-05-02T09:36:54.727Z</time></trkpt><trkpt lat="44.0136067" lon="11.3703283"><ele>366.3333333333333</ele><time>2026-05-02T09:36:55.728Z</time></trkpt><trkpt lat="44.0135117" lon="11.3701317"><ele>366.0</ele><time>2026-05-02T09:36:56.728Z</time></trkpt><trkpt lat="44.013425" lon="11.3699117"><ele>363.6666666666667</ele><time>2026-05-02T09:36:57.728Z</time></trkpt><trkpt lat="44.01334" lon="11.3696767"><ele>361.33333333333337</ele><time>2026-05-02T09:36:58.728Z</time></trkpt><trkpt lat="44.01324" lon="11.3694517"><ele>359.0</ele><time>2026-05-02T09:36:59.726Z</time></trkpt><trkpt lat="44.01312" lon="11.3692383"><ele>357.33333333333337</ele><time>2026-05-02T09:37:00.728Z</time></trkpt><trkpt lat="44.0129833" lon="11.3690433"><ele>355.6666666666667</ele><time>2026-05-02T09:37:01.729Z</time></trkpt><trkpt lat="44.012835" lon="11.3688617"><ele>354.0</ele><time>2026-05-02T09:37:02.728Z</time></trkpt><trkpt lat="44.0126883" lon="11.3686933"><ele>353.6666666666667</ele><time>2026-05-02T09:37:03.729Z</time></trkpt><trkpt lat="44.0125433" lon="11.3685383"><ele>353.33333333333337</ele><time>2026-05-02T09:37:04.727Z</time></trkpt><trkpt lat="44.012395" lon="11.36842"><ele>353.0</ele><time>2026-05-02T09:37:05.728Z</time></trkpt><trkpt lat="44.01224" lon="11.3683483"><ele>353.0</ele><time>2026-05-02T09:37:06.729Z</time></trkpt><trkpt lat="44.0120817" lon="11.3683367"><ele>353.0</ele><time>2026-05-02T09:37:07.728Z</time></trkpt><trkpt lat="44.01193" lon="11.3683533"><ele>353.0</ele><time>2026-05-02T09:37:08.729Z</time></trkpt><trkpt lat="44.0117733" lon="11.3683817"><ele>351.0</ele><time>2026-05-02T09:37:09.728Z</time></trkpt><trkpt lat="44.011615" lon="11.3684133"><ele>349.0</ele><time>2026-05-02T09:37:10.728Z</time></trkpt><trkpt lat="44.011455" lon="11.3684517"><ele>347.0</ele><time>2026-05-02T09:37:11.728Z</time></trkpt><trkpt lat="44.0113033" lon="11.3684833"><ele>347.0</ele><time>2026-05-02T09:37:12.727Z</time></trkpt><trkpt lat="44.0111483" lon="11.36849"><ele>347.0</ele><time>2026-05-02T09:37:13.727Z</time></trkpt><trkpt lat="44.0109967" lon="11.3684483"><ele>347.0</ele><time>2026-05-02T09:37:14.729Z</time></trkpt><trkpt lat="44.010845" lon="11.3683833"><ele>344.33333333333337</ele><time>2026-05-02T09:37:15.727Z</time></trkpt><trkpt lat="44.0106867" lon="11.3683067"><ele>341.6666666666667</ele><time>2026-05-02T09:37:16.728Z</time></trkpt><trkpt lat="44.0105183" lon="11.3682267"><ele>339.0</ele><time>2026-05-02T09:37:17.728Z</time></trkpt><trkpt lat="44.0103517" lon="11.3681317"><ele>339.0</ele><time>2026-05-02T09:37:18.728Z</time></trkpt><trkpt lat="44.0101817" lon="11.3680383"><ele>339.0</ele><time>2026-05-02T09:37:19.726Z</time></trkpt><trkpt lat="44.0100117" lon="11.3679517"><ele>339.0</ele><time>2026-05-02T09:37:20.729Z</time></trkpt><trkpt lat="44.0098417" lon="11.3678633"><ele>337.6666666666667</ele><time>2026-05-02T09:37:21.728Z</time></trkpt><trkpt lat="44.0096733" lon="11.367775"><ele>336.33333333333337</ele><time>2026-05-02T09:37:22.728Z</time></trkpt><trkpt lat="44.0095083" lon="11.3676867"><ele>335.0</ele><time>2026-05-02T09:37:23.728Z</time></trkpt><trkpt lat="44.0093483" lon="11.3676033"><ele>335.0</ele><time>2026-05-02T09:37:24.728Z</time></trkpt><trkpt lat="44.00919" lon="11.36752"><ele>335.0</ele><time>2026-05-02T09:37:25.728Z</time></trkpt><trkpt lat="44.0090333" lon="11.36744"><ele>335.0</ele><time>2026-05-02T09:37:26.728Z</time></trkpt><trkpt lat="44.00888" lon="11.3673667"><ele>333.33333333333337</ele><time>2026-05-02T09:37:27.728Z</time></trkpt><trkpt lat="44.008725" lon="11.3672983"><ele>331.6666666666667</ele><time>2026-05-02T09:37:28.727Z</time></trkpt><trkpt lat="44.0085633" lon="11.367245"><ele>330.0</ele><time>2026-05-02T09:37:29.728Z</time></trkpt><trkpt lat="44.0083967" lon="11.36721"><ele>328.6666666666667</ele><time>2026-05-02T09:37:30.728Z</time></trkpt><trkpt lat="44.00823" lon="11.3671883"><ele>327.33333333333337</ele><time>2026-05-02T09:37:31.726Z</time></trkpt><trkpt lat="44.0080617" lon="11.367175"><ele>326.0</ele><time>2026-05-02T09:37:32.728Z</time></trkpt><trkpt lat="44.0079017" lon="11.3671583"><ele>326.0</ele><time>2026-05-02T09:37:33.728Z</time></trkpt><trkpt lat="44.0077517" lon="11.3671467"><ele>326.0</ele><time>2026-05-02T09:37:34.728Z</time></trkpt><trkpt lat="44.00761" lon="11.36713"><ele>326.0</ele><time>2026-05-02T09:37:35.727Z</time></trkpt><trkpt lat="44.00748" lon="11.3670917"><ele>326.0</ele><time>2026-05-02T09:37:36.728Z</time></trkpt><trkpt lat="44.007355" lon="11.3670283"><ele>326.0</ele><time>2026-05-02T09:37:37.727Z</time></trkpt><trkpt lat="44.00723" lon="11.3669417"><ele>326.0</ele><time>2026-05-02T09:37:38.725Z</time></trkpt><trkpt lat="44.0070983" lon="11.3668333"><ele>326.0</ele><time>2026-05-02T09:37:39.727Z</time></trkpt><trkpt lat="44.0069633" lon="11.36671"><ele>326.0</ele><time>2026-05-02T09:37:40.727Z</time></trkpt><trkpt lat="44.006825" lon="11.36658"><ele>326.0</ele><time>2026-05-02T09:37:41.728Z</time></trkpt><trkpt lat="44.0066833" lon="11.366445"><ele>326.0</ele><time>2026-05-02T09:37:42.728Z</time></trkpt><trkpt lat="44.0065367" lon="11.36631"><ele>325.6666666666667</ele><time>2026-05-02T09:37:43.727Z</time></trkpt><trkpt lat="44.0063867" lon="11.3661767"><ele>325.3333333333333</ele><time>2026-05-02T09:37:44.728Z</time></trkpt><trkpt lat="44.006235" lon="11.366045"><ele>325.0</ele><time>2026-05-02T09:37:45.727Z</time></trkpt><trkpt lat="44.0060817" lon="11.3659133"><ele>325.0</ele><time>2026-05-02T09:37:46.726Z</time></trkpt><trkpt lat="44.005935" lon="11.365795"><ele>325.0</ele><time>2026-05-02T09:37:47.727Z</time></trkpt><trkpt lat="44.0058" lon="11.365695"><ele>325.0</ele><time>2026-05-02T09:37:48.727Z</time></trkpt><trkpt lat="44.0056817" lon="11.3656117"><ele>324.75</ele><time>2026-05-02T09:37:49.726Z</time></trkpt><trkpt lat="44.0055667" lon="11.3655467"><ele>324.5</ele><time>2026-05-02T09:37:50.727Z</time></trkpt><trkpt lat="44.00545" lon="11.3654867"><ele>324.25</ele><time>2026-05-02T09:37:51.725Z</time></trkpt><trkpt lat="44.0053333" lon="11.3654283"><ele>324.0</ele><time>2026-05-02T09:37:52.726Z</time></trkpt><trkpt lat="44.00522" lon="11.365375"><ele>324.0</ele><time>2026-05-02T09:37:53.727Z</time></trkpt><trkpt lat="44.0051133" lon="11.3653233"><ele>324.0</ele><time>2026-05-02T09:37:54.728Z</time></trkpt><trkpt lat="44.0050033" lon="11.3652733"><ele>324.0</ele><time>2026-05-02T09:37:55.727Z</time></trkpt><trkpt lat="44.00489" lon="11.36522"><ele>324.0</ele><time>2026-05-02T09:37:56.727Z</time></trkpt><trkpt lat="44.0047733" lon="11.3651633"><ele>323.75</ele><time>2026-05-02T09:37:57.727Z</time></trkpt><trkpt lat="44.00465" lon="11.3651083"><ele>323.5</ele><time>2026-05-02T09:37:58.728Z</time></trkpt><trkpt lat="44.004525" lon="11.3650517"><ele>323.25</ele><time>2026-05-02T09:37:59.728Z</time></trkpt><trkpt lat="44.004405" lon="11.36499"><ele>323.0</ele><time>2026-05-02T09:38:00.728Z</time></trkpt><trkpt lat="44.0042883" lon="11.36492"><ele>323.0</ele><time>2026-05-02T09:38:01.728Z</time></trkpt><trkpt lat="44.0041767" lon="11.3648317"><ele>323.0</ele><time>2026-05-02T09:38:02.729Z</time></trkpt><trkpt lat="44.0040733" lon="11.36473"><ele>323.0</ele><time>2026-05-02T09:38:03.728Z</time></trkpt><trkpt lat="44.0039817" lon="11.3646167"><ele>323.0</ele><time>2026-05-02T09:38:04.728Z</time></trkpt><trkpt lat="44.0039017" lon="11.36448"><ele>321.75</ele><time>2026-05-02T09:38:05.727Z</time></trkpt><trkpt lat="44.003835" lon="11.364335"><ele>320.5</ele><time>2026-05-02T09:38:06.728Z</time></trkpt><trkpt lat="44.0037783" lon="11.3641667"><ele>319.25</ele><time>2026-05-02T09:38:07.728Z</time></trkpt><trkpt lat="44.003725" lon="11.3639867"><ele>318.0</ele><time>2026-05-02T09:38:08.727Z</time></trkpt><trkpt lat="44.0036667" lon="11.363805"><ele>318.0</ele><time>2026-05-02T09:38:09.727Z</time></trkpt><trkpt lat="44.0036017" lon="11.363635"><ele>318.0</ele><time>2026-05-02T09:38:10.727Z</time></trkpt><trkpt lat="44.003535" lon="11.3634633"><ele>318.0</ele><time>2026-05-02T09:38:11.728Z</time></trkpt><trkpt lat="44.00347" lon="11.3632917"><ele>318.0</ele><time>2026-05-02T09:38:12.728Z</time></trkpt><trkpt lat="44.0034083" lon="11.3631183"><ele>317.6</ele><time>2026-05-02T09:38:13.726Z</time></trkpt><trkpt lat="44.003345" lon="11.3629517"><ele>317.20000000000005</ele><time>2026-05-02T09:38:14.727Z</time></trkpt><trkpt lat="44.00329" lon="11.3627967"><ele>316.8</ele><time>2026-05-02T09:38:15.729Z</time></trkpt><trkpt lat="44.00324" lon="11.3626683"><ele>316.40000000000003</ele><time>2026-05-02T09:38:16.729Z</time></trkpt><trkpt lat="44.0032017" lon="11.3625683"><ele>316.0</ele><time>2026-05-02T09:38:17.728Z</time></trkpt><trkpt lat="44.00316" lon="11.3624217"><ele>315.66666666666663</ele><time>2026-05-02T09:38:19.728Z</time></trkpt><trkpt lat="44.0030933" lon="11.362385"><ele>315.3333333333333</ele><time>2026-05-02T09:38:28.73Z</time></trkpt><trkpt lat="44.003135" lon="11.3625033"><ele>315.0</ele><time>2026-05-02T09:38:32.728Z</time></trkpt><trkpt lat="44.0031717" lon="11.3625817"><ele>314.6666666666667</ele><time>2026-05-02T09:38:33.727Z</time></trkpt><trkpt lat="44.0032167" lon="11.3626883"><ele>314.33333333333337</ele><time>2026-05-02T09:38:34.728Z</time></trkpt><trkpt lat="44.0032683" lon="11.3628167"><ele>314.0</ele><time>2026-05-02T09:38:35.728Z</time></trkpt><trkpt lat="44.00333" lon="11.3629783"><ele>315.33333333333337</ele><time>2026-05-02T09:38:36.728Z</time></trkpt><trkpt lat="44.003405" lon="11.3631583"><ele>316.6666666666667</ele><time>2026-05-02T09:38:37.729Z</time></trkpt><trkpt lat="44.003485" lon="11.3633517"><ele>318.0</ele><time>2026-05-02T09:38:38.729Z</time></trkpt><trkpt lat="44.0035717" lon="11.3635533"><ele>318.0</ele><time>2026-05-02T09:38:39.728Z</time></trkpt><trkpt lat="44.0036583" lon="11.3637533"><ele>318.0</ele><time>2026-05-02T09:38:40.729Z</time></trkpt><trkpt lat="44.0037383" lon="11.363965"><ele>318.0</ele><time>2026-05-02T09:38:41.728Z</time></trkpt><trkpt lat="44.00382" lon="11.3641683"><ele>318.0</ele><time>2026-05-02T09:38:42.729Z</time></trkpt><trkpt lat="44.0038933" lon="11.3643567"><ele>318.0</ele><time>2026-05-02T09:38:43.726Z</time></trkpt><trkpt lat="44.00397" lon="11.3645283"><ele>318.0</ele><time>2026-05-02T09:38:44.728Z</time></trkpt><trkpt lat="44.0040667" lon="11.3646717"><ele>318.0</ele><time>2026-05-02T09:38:45.729Z</time></trkpt><trkpt lat="44.0041733" lon="11.364795"><ele>319.6666666666667</ele><time>2026-05-02T09:38:46.729Z</time></trkpt><trkpt lat="44.004305" lon="11.3648933"><ele>321.33333333333337</ele><time>2026-05-02T09:38:47.727Z</time></trkpt><trkpt lat="44.0044517" lon="11.36497"><ele>323.0</ele><time>2026-05-02T09:38:48.728Z</time></trkpt><trkpt lat="44.0046017" lon="11.3650417"><ele>323.0</ele><time>2026-05-02T09:38:49.728Z</time></trkpt><trkpt lat="44.004755" lon="11.36512"><ele>323.0</ele><time>2026-05-02T09:38:50.729Z</time></trkpt><trkpt lat="44.004915" lon="11.3652017"><ele>323.0</ele><time>2026-05-02T09:38:51.727Z</time></trkpt><trkpt lat="44.0050733" lon="11.3652883"><ele>323.0</ele><time>2026-05-02T09:38:52.728Z</time></trkpt><trkpt lat="44.0052167" lon="11.3653617"><ele>323.0</ele><time>2026-05-02T09:38:53.729Z</time></trkpt><trkpt lat="44.00534" lon="11.3654233"><ele>323.0</ele><time>2026-05-02T09:38:54.728Z</time></trkpt><trkpt lat="44.00545" lon="11.3654817"><ele>323.0</ele><time>2026-05-02T09:38:55.729Z</time></trkpt><trkpt lat="44.0055567" lon="11.3655483"><ele>323.0</ele><time>2026-05-02T09:38:56.728Z</time></trkpt><trkpt lat="44.0056567" lon="11.3656217"><ele>323.0</ele><time>2026-05-02T09:38:57.728Z</time></trkpt><trkpt lat="44.0057383" lon="11.3657083"><ele>323.0</ele><time>2026-05-02T09:38:58.729Z</time></trkpt><trkpt lat="44.0057967" lon="11.36581"><ele>323.0</ele><time>2026-05-02T09:38:59.728Z</time></trkpt><trkpt lat="44.00584" lon="11.36593"><ele>323.0</ele><time>2026-05-02T09:39:00.727Z</time></trkpt><trkpt lat="44.00583" lon="11.3660683"><ele>323.0</ele><time>2026-05-02T09:39:01.729Z</time></trkpt><trkpt lat="44.0057783" lon="11.366215"><ele>323.0</ele><time>2026-05-02T09:39:02.728Z</time></trkpt><trkpt lat="44.0057" lon="11.366365"><ele>323.0</ele><time>2026-05-02T09:39:03.728Z</time></trkpt><trkpt lat="44.0056033" lon="11.3665267"><ele>323.0</ele><time>2026-05-02T09:39:04.726Z</time></trkpt><trkpt lat="44.005505" lon="11.366695"><ele>323.0</ele><time>2026-05-02T09:39:05.728Z</time></trkpt><trkpt lat="44.005395" lon="11.3668667"><ele>323.0</ele><time>2026-05-02T09:39:06.727Z</time></trkpt><trkpt lat="44.0052867" lon="11.367035"><ele>323.0</ele><time>2026-05-02T09:39:07.727Z</time></trkpt><trkpt lat="44.0051717" lon="11.3671983"><ele>323.0</ele><time>2026-05-02T09:39:08.729Z</time></trkpt><trkpt lat="44.0050517" lon="11.367355"><ele>323.0</ele><time>2026-05-02T09:39:09.727Z</time></trkpt><trkpt lat="44.00492" lon="11.3674967"><ele>323.0</ele><time>2026-05-02T09:39:10.729Z</time></trkpt><trkpt lat="44.0047767" lon="11.36762"><ele>322.33333333333337</ele><time>2026-05-02T09:39:11.728Z</time></trkpt><trkpt lat="44.0046233" lon="11.367715"><ele>321.6666666666667</ele><time>2026-05-02T09:39:12.729Z</time></trkpt><trkpt lat="44.0044667" lon="11.3677783"><ele>321.0</ele><time>2026-05-02T09:39:13.728Z</time></trkpt><trkpt lat="44.004305" lon="11.3678133"><ele>321.6666666666667</ele><time>2026-05-02T09:39:14.728Z</time></trkpt><trkpt lat="44.0041417" lon="11.36783"><ele>322.33333333333337</ele><time>2026-05-02T09:39:15.727Z</time></trkpt><trkpt lat="44.00397" lon="11.3678183"><ele>323.0</ele><time>2026-05-02T09:39:16.728Z</time></trkpt><trkpt lat="44.003795" lon="11.3677683"><ele>323.0</ele><time>2026-05-02T09:39:17.727Z</time></trkpt><trkpt lat="44.0036167" lon="11.367695"><ele>323.0</ele><time>2026-05-02T09:39:18.728Z</time></trkpt><trkpt lat="44.0034383" lon="11.3676067"><ele>323.0</ele><time>2026-05-02T09:39:19.729Z</time></trkpt><trkpt lat="44.0032583" lon="11.3675117"><ele>321.6666666666667</ele><time>2026-05-02T09:39:20.729Z</time></trkpt><trkpt lat="44.0030767" lon="11.3674167"><ele>320.3333333333333</ele><time>2026-05-02T09:39:21.728Z</time></trkpt><trkpt lat="44.0028917" lon="11.3673233"><ele>319.0</ele><time>2026-05-02T09:39:22.728Z</time></trkpt><trkpt lat="44.0027033" lon="11.3672233"><ele>318.66666666666663</ele><time>2026-05-02T09:39:23.73Z</time></trkpt><trkpt lat="44.00251" lon="11.3671183"><ele>318.3333333333333</ele><time>2026-05-02T09:39:24.729Z</time></trkpt><trkpt lat="44.0023117" lon="11.3670117"><ele>318.0</ele><time>2026-05-02T09:39:25.729Z</time></trkpt><trkpt lat="44.0021083" lon="11.3669067"><ele>318.0</ele><time>2026-05-02T09:39:26.728Z</time></trkpt><trkpt lat="44.001905" lon="11.3668"><ele>318.0</ele><time>2026-05-02T09:39:27.729Z</time></trkpt><trkpt lat="44.0017017" lon="11.3666917"><ele>318.0</ele><time>2026-05-02T09:39:28.729Z</time></trkpt><trkpt lat="44.0014967" lon="11.36658"><ele>317.3333333333333</ele><time>2026-05-02T09:39:29.729Z</time></trkpt><trkpt lat="44.00129" lon="11.36646"><ele>316.66666666666663</ele><time>2026-05-02T09:39:30.727Z</time></trkpt><trkpt lat="44.00108" lon="11.3663467"><ele>316.0</ele><time>2026-05-02T09:39:31.728Z</time></trkpt><trkpt lat="44.0008683" lon="11.3662333"><ele>315.0</ele><time>2026-05-02T09:39:32.728Z</time></trkpt><trkpt lat="44.0006517" lon="11.3661117"><ele>314.0</ele><time>2026-05-02T09:39:33.727Z</time></trkpt><trkpt lat="44.0004317" lon="11.3659933"><ele>314.0</ele><time>2026-05-02T09:39:34.729Z</time></trkpt><trkpt lat="44.00021" lon="11.3658717"><ele>314.0</ele><time>2026-05-02T09:39:35.728Z</time></trkpt><trkpt lat="43.9999867" lon="11.3657533"><ele>314.0</ele><time>2026-05-02T09:39:36.728Z</time></trkpt><trkpt lat="43.9997617" lon="11.3656333"><ele>314.0</ele><time>2026-05-02T09:39:37.728Z</time></trkpt><trkpt lat="43.9995367" lon="11.3655133"><ele>313.0</ele><time>2026-05-02T09:39:38.728Z</time></trkpt><trkpt lat="43.99931" lon="11.3653917"><ele>312.0</ele><time>2026-05-02T09:39:39.728Z</time></trkpt><trkpt lat="43.9990833" lon="11.3652717"><ele>310.5</ele><time>2026-05-02T09:39:40.728Z</time></trkpt><trkpt lat="43.9988567" lon="11.3651483"><ele>309.0</ele><time>2026-05-02T09:39:41.729Z</time></trkpt><trkpt lat="43.9986317" lon="11.3650317"><ele>309.0</ele><time>2026-05-02T09:39:42.728Z</time></trkpt><trkpt lat="43.998405" lon="11.3649083"><ele>309.0</ele><time>2026-05-02T09:39:43.729Z</time></trkpt><trkpt lat="43.99818" lon="11.36479"><ele>304.0</ele><time>2026-05-02T09:39:44.727Z</time></trkpt><trkpt lat="43.9979517" lon="11.3646767"><ele>299.0</ele><time>2026-05-02T09:39:45.729Z</time></trkpt><trkpt lat="43.9977267" lon="11.36457"><ele>299.0</ele><time>2026-05-02T09:39:46.727Z</time></trkpt><trkpt lat="43.9975067" lon="11.3644717"><ele>299.0</ele><time>2026-05-02T09:39:47.728Z</time></trkpt><trkpt lat="43.9972933" lon="11.3643817"><ele>302.33333333333337</ele><time>2026-05-02T09:39:48.727Z</time></trkpt><trkpt lat="43.9970833" lon="11.3642917"><ele>305.6666666666667</ele><time>2026-05-02T09:39:49.729Z</time></trkpt><trkpt lat="43.9968783" lon="11.3642017"><ele>309.0</ele><time>2026-05-02T09:39:50.729Z</time></trkpt><trkpt lat="43.996675" lon="11.36411"><ele>309.6666666666667</ele><time>2026-05-02T09:39:51.727Z</time></trkpt><trkpt lat="43.9964733" lon="11.3640167"><ele>310.33333333333337</ele><time>2026-05-02T09:39:52.729Z</time></trkpt><trkpt lat="43.9962717" lon="11.3639333"><ele>311.0</ele><time>2026-05-02T09:39:53.727Z</time></trkpt><trkpt lat="43.9960733" lon="11.3638433"><ele>307.33333333333337</ele><time>2026-05-02T09:39:54.727Z</time></trkpt><trkpt lat="43.9958733" lon="11.3637583"><ele>303.6666666666667</ele><time>2026-05-02T09:39:55.73Z</time></trkpt><trkpt lat="43.9956767" lon="11.36367"><ele>300.0</ele><time>2026-05-02T09:39:56.729Z</time></trkpt><trkpt lat="43.9954833" lon="11.3635783"><ele>300.0</ele><time>2026-05-02T09:39:57.729Z</time></trkpt><trkpt lat="43.99529" lon="11.3634867"><ele>300.0</ele><time>2026-05-02T09:39:58.727Z</time></trkpt><trkpt lat="43.9950917" lon="11.3634033"><ele>300.0</ele><time>2026-05-02T09:39:59.727Z</time></trkpt><trkpt lat="43.9948917" lon="11.363335"><ele>299.6666666666667</ele><time>2026-05-02T09:40:00.726Z</time></trkpt><trkpt lat="43.9946867" lon="11.3632833"><ele>299.33333333333337</ele><time>2026-05-02T09:40:01.727Z</time></trkpt><trkpt lat="43.9944917" lon="11.363255"><ele>299.0</ele><time>2026-05-02T09:40:02.729Z</time></trkpt><trkpt lat="43.9942983" lon="11.3632333"><ele>297.0</ele><time>2026-05-02T09:40:03.728Z</time></trkpt><trkpt lat="43.9941067" lon="11.36322"><ele>295.0</ele><time>2026-05-02T09:40:04.729Z</time></trkpt><trkpt lat="43.9939217" lon="11.3632083"><ele>293.0</ele><time>2026-05-02T09:40:05.728Z</time></trkpt><trkpt lat="43.993745" lon="11.3631983"><ele>293.0</ele><time>2026-05-02T09:40:06.726Z</time></trkpt><trkpt lat="43.9935817" lon="11.363195"><ele>293.0</ele><time>2026-05-02T09:40:07.728Z</time></trkpt><trkpt lat="43.9934333" lon="11.3631883"><ele>293.0</ele><time>2026-05-02T09:40:08.728Z</time></trkpt><trkpt lat="43.9933" lon="11.3631917"><ele>293.0</ele><time>2026-05-02T09:40:09.729Z</time></trkpt><trkpt lat="43.993185" lon="11.3631883"><ele>292.1666666666667</ele><time>2026-05-02T09:40:10.728Z</time></trkpt><trkpt lat="43.9930883" lon="11.3631733"><ele>291.33333333333337</ele><time>2026-05-02T09:40:11.729Z</time></trkpt><trkpt lat="43.993" lon="11.363135"><ele>290.5</ele><time>2026-05-02T09:40:12.726Z</time></trkpt><trkpt lat="43.9929133" lon="11.363095"><ele>289.6666666666667</ele><time>2026-05-02T09:40:13.729Z</time></trkpt><trkpt lat="43.9928283" lon="11.3630867"><ele>288.8333333333333</ele><time>2026-05-02T09:40:14.729Z</time></trkpt><trkpt lat="43.992755" lon="11.363105"><ele>288.0</ele><time>2026-05-02T09:40:15.738Z</time></trkpt><trkpt lat="43.992705" lon="11.3631917"><ele>288.0</ele><time>2026-05-02T09:40:16.729Z</time></trkpt><trkpt lat="43.9926683" lon="11.36331"><ele>288.0</ele><time>2026-05-02T09:40:17.729Z</time></trkpt><trkpt lat="43.9926117" lon="11.3634533"><ele>288.0</ele><time>2026-05-02T09:40:18.728Z</time></trkpt><trkpt lat="43.99254" lon="11.3636"><ele>288.0</ele><time>2026-05-02T09:40:19.727Z</time></trkpt><trkpt lat="43.9924533" lon="11.3637567"><ele>283.5</ele><time>2026-05-02T09:40:20.727Z</time></trkpt><trkpt lat="43.9923617" lon="11.36393"><ele>279.0</ele><time>2026-05-02T09:40:21.728Z</time></trkpt><trkpt lat="43.9921817" lon="11.3643117"><ele>279.0</ele><time>2026-05-02T09:40:23.729Z</time></trkpt><trkpt lat="43.9921017" lon="11.364525"><ele>279.0</ele><time>2026-05-02T09:40:24.728Z</time></trkpt><trkpt lat="43.9920167" lon="11.3647383"><ele>279.0</ele><time>2026-05-02T09:40:25.728Z</time></trkpt><trkpt lat="43.9919367" lon="11.3649467"><ele>275.6666666666667</ele><time>2026-05-02T09:40:26.729Z</time></trkpt><trkpt lat="43.991865" lon="11.365155"><ele>272.33333333333337</ele><time>2026-05-02T09:40:27.729Z</time></trkpt><trkpt lat="43.99179" lon="11.36536"><ele>269.0</ele><time>2026-05-02T09:40:28.728Z</time></trkpt><trkpt lat="43.9917167" lon="11.3655617"><ele>266.0</ele><time>2026-05-02T09:40:29.729Z</time></trkpt><trkpt lat="43.9916433" lon="11.365755"><ele>263.0</ele><time>2026-05-02T09:40:30.729Z</time></trkpt><trkpt lat="43.9915683" lon="11.3659533"><ele>260.0</ele><time>2026-05-02T09:40:31.73Z</time></trkpt><trkpt lat="43.9914917" lon="11.3661567"><ele>257.6666666666667</ele><time>2026-05-02T09:40:32.728Z</time></trkpt><trkpt lat="43.991415" lon="11.366365"><ele>255.33333333333331</ele><time>2026-05-02T09:40:33.729Z</time></trkpt><trkpt lat="43.9913383" lon="11.3665767"><ele>253.0</ele><time>2026-05-02T09:40:34.728Z</time></trkpt><trkpt lat="43.9912583" lon="11.3667883"><ele>253.0</ele><time>2026-05-02T09:40:35.728Z</time></trkpt><trkpt lat="43.9911783" lon="11.3670067"><ele>253.0</ele><time>2026-05-02T09:40:36.729Z</time></trkpt><trkpt lat="43.991105" lon="11.3672283"><ele>253.0</ele><time>2026-05-02T09:40:37.73Z</time></trkpt><trkpt lat="43.9910333" lon="11.367455"><ele>251.33333333333331</ele><time>2026-05-02T09:40:38.729Z</time></trkpt><trkpt lat="43.990965" lon="11.367685"><ele>249.66666666666669</ele><time>2026-05-02T09:40:39.728Z</time></trkpt><trkpt lat="43.9909017" lon="11.3679133"><ele>248.0</ele><time>2026-05-02T09:40:40.728Z</time></trkpt><trkpt lat="43.9908367" lon="11.3681383"><ele>246.0</ele><time>2026-05-02T09:40:41.728Z</time></trkpt><trkpt lat="43.9907717" lon="11.3683533"><ele>244.0</ele><time>2026-05-02T09:40:42.728Z</time></trkpt><trkpt lat="43.9907083" lon="11.3685633"><ele>242.0</ele><time>2026-05-02T09:40:43.729Z</time></trkpt><trkpt lat="43.9906467" lon="11.3687633"><ele>242.25</ele><time>2026-05-02T09:40:44.73Z</time></trkpt><trkpt lat="43.990595" lon="11.368955"><ele>242.5</ele><time>2026-05-02T09:40:45.73Z</time></trkpt><trkpt lat="43.990545" lon="11.3691333"><ele>242.75</ele><time>2026-05-02T09:40:46.728Z</time></trkpt><trkpt lat="43.9905033" lon="11.3693"><ele>243.0</ele><time>2026-05-02T09:40:47.727Z</time></trkpt><trkpt lat="43.99047" lon="11.369445"><ele>243.0</ele><time>2026-05-02T09:40:48.728Z</time></trkpt><trkpt lat="43.99044" lon="11.3695667"><ele>243.0</ele><time>2026-05-02T09:40:49.727Z</time></trkpt><trkpt lat="43.990415" lon="11.3696733"><ele>243.0</ele><time>2026-05-02T09:40:50.728Z</time></trkpt><trkpt lat="43.9903967" lon="11.36976"><ele>243.0</ele><time>2026-05-02T09:40:51.727Z</time></trkpt><trkpt lat="43.99037" lon="11.3698933"><ele>243.0</ele><time>2026-05-02T09:40:53.729Z</time></trkpt><trkpt lat="43.990375" lon="11.3700233"><ele>243.0</ele><time>2026-05-02T09:40:55.728Z</time></trkpt><trkpt lat="43.9904217" lon="11.370105"><ele>243.57142857142856</ele><time>2026-05-02T09:40:57.728Z</time></trkpt><trkpt lat="43.99048" lon="11.3701583"><ele>244.14285714285717</ele><time>2026-05-02T09:40:59.728Z</time></trkpt><trkpt lat="43.9905433" lon="11.37019"><ele>244.71428571428572</ele><time>2026-05-02T09:41:01.729Z</time></trkpt><trkpt lat="43.9906067" lon="11.370205"><ele>245.28571428571428</ele><time>2026-05-02T09:41:03.728Z</time></trkpt><trkpt lat="43.99054" lon="11.3701617"><ele>245.85714285714283</ele><time>2026-05-02T09:41:13.727Z</time></trkpt><trkpt lat="43.990485" lon="11.3700533"><ele>246.42857142857144</ele><time>2026-05-02T09:43:27.729Z</time></trkpt><trkpt lat="43.9904567" lon="11.3699733"><ele>247.0</ele><time>2026-05-02T09:43:29.728Z</time></trkpt><trkpt lat="43.99045" lon="11.3698817"><ele>247.0</ele><time>2026-05-02T09:43:31.728Z</time></trkpt><trkpt lat="43.9904483" lon="11.3697333"><ele>247.0</ele><time>2026-05-02T09:43:33.729Z</time></trkpt><trkpt lat="43.9904567" lon="11.3696267"><ele>247.0</ele><time>2026-05-02T09:43:34.728Z</time></trkpt><trkpt lat="43.9904767" lon="11.369505"><ele>247.0</ele><time>2026-05-02T09:43:35.728Z</time></trkpt><trkpt lat="43.9905033" lon="11.3693667"><ele>247.0</ele><time>2026-05-02T09:43:36.728Z</time></trkpt><trkpt lat="43.9905383" lon="11.3692133"><ele>246.0</ele><time>2026-05-02T09:43:37.728Z</time></trkpt><trkpt lat="43.9905767" lon="11.3690567"><ele>245.0</ele><time>2026-05-02T09:43:38.73Z</time></trkpt><trkpt lat="43.9906217" lon="11.3688917"><ele>244.0</ele><time>2026-05-02T09:43:39.729Z</time></trkpt><trkpt lat="43.9906667" lon="11.3687183"><ele>243.0</ele><time>2026-05-02T09:43:40.727Z</time></trkpt><trkpt lat="43.990715" lon="11.368535"><ele>242.66666666666669</ele><time>2026-05-02T09:43:41.729Z</time></trkpt><trkpt lat="43.9907683" lon="11.3683417"><ele>242.33333333333334</ele><time>2026-05-02T09:43:42.728Z</time></trkpt><trkpt lat="43.990825" lon="11.3681367"><ele>242.0</ele><time>2026-05-02T09:43:43.73Z</time></trkpt><trkpt lat="43.9908867" lon="11.36792"><ele>244.0</ele><time>2026-05-02T09:43:44.729Z</time></trkpt><trkpt lat="43.9909517" lon="11.3677017"><ele>246.0</ele><time>2026-05-02T09:43:45.729Z</time></trkpt><trkpt lat="43.9910167" lon="11.36749"><ele>248.0</ele><time>2026-05-02T09:43:46.728Z</time></trkpt><trkpt lat="43.991085" lon="11.3672733"><ele>249.66666666666669</ele><time>2026-05-02T09:43:47.728Z</time></trkpt><trkpt lat="43.9911567" lon="11.3670533"><ele>251.33333333333331</ele><time>2026-05-02T09:43:48.73Z</time></trkpt><trkpt lat="43.9912333" lon="11.3668333"><ele>253.0</ele><time>2026-05-02T09:43:49.73Z</time></trkpt><trkpt lat="43.991315" lon="11.36661"><ele>253.0</ele><time>2026-05-02T09:43:50.728Z</time></trkpt><trkpt lat="43.9914" lon="11.366385"><ele>253.0</ele><time>2026-05-02T09:43:51.728Z</time></trkpt><trkpt lat="43.9914817" lon="11.3661633"><ele>253.0</ele><time>2026-05-02T09:43:52.729Z</time></trkpt><trkpt lat="43.9915633" lon="11.3659417"><ele>255.33333333333331</ele><time>2026-05-02T09:43:53.729Z</time></trkpt><trkpt lat="43.9916483" lon="11.3657217"><ele>257.6666666666667</ele><time>2026-05-02T09:43:54.73Z</time></trkpt><trkpt lat="43.9917317" lon="11.3655033"><ele>260.0</ele><time>2026-05-02T09:43:55.728Z</time></trkpt><trkpt lat="43.9918083" lon="11.3652867"><ele>263.0</ele><time>2026-05-02T09:43:56.728Z</time></trkpt><trkpt lat="43.9918883" lon="11.36507"><ele>266.0</ele><time>2026-05-02T09:43:57.729Z</time></trkpt><trkpt lat="43.9919667" lon="11.3648533"><ele>269.0</ele><time>2026-05-02T09:43:58.728Z</time></trkpt><trkpt lat="43.99205" lon="11.3646417"><ele>272.33333333333337</ele><time>2026-05-02T09:43:59.729Z</time></trkpt><trkpt lat="43.9921283" lon="11.3644333"><ele>275.6666666666667</ele><time>2026-05-02T09:44:00.729Z</time></trkpt><trkpt lat="43.9922083" lon="11.36423"><ele>279.0</ele><time>2026-05-02T09:44:01.728Z</time></trkpt><trkpt lat="43.9923017" lon="11.364045"><ele>279.0</ele><time>2026-05-02T09:44:02.729Z</time></trkpt><trkpt lat="43.992385" lon="11.3638867"><ele>279.0</ele><time>2026-05-02T09:44:03.727Z</time></trkpt><trkpt lat="43.9924733" lon="11.3637483"><ele>279.0</ele><time>2026-05-02T09:44:04.739Z</time></trkpt><trkpt lat="43.9925683" lon="11.3636333"><ele>279.0</ele><time>2026-05-02T09:44:05.727Z</time></trkpt><trkpt lat="43.9926617" lon="11.36355"><ele>281.25</ele><time>2026-05-02T09:44:06.727Z</time></trkpt><trkpt lat="43.9927683" lon="11.3634883"><ele>283.5</ele><time>2026-05-02T09:44:07.729Z</time></trkpt><trkpt lat="43.9928767" lon="11.3634317"><ele>285.75</ele><time>2026-05-02T09:44:08.727Z</time></trkpt><trkpt lat="43.9929867" lon="11.36336"><ele>288.0</ele><time>2026-05-02T09:44:09.727Z</time></trkpt><trkpt lat="43.99311" lon="11.3632867"><ele>288.0</ele><time>2026-05-02T09:44:10.725Z</time></trkpt><trkpt lat="43.9932517" lon="11.363235"><ele>288.0</ele><time>2026-05-02T09:44:11.726Z</time></trkpt><trkpt lat="43.9934017" lon="11.3632"><ele>288.0</ele><time>2026-05-02T09:44:12.726Z</time></trkpt><trkpt lat="43.993565" lon="11.3631783"><ele>289.6666666666667</ele><time>2026-05-02T09:44:13.726Z</time></trkpt><trkpt lat="43.9937317" lon="11.3631767"><ele>291.33333333333337</ele><time>2026-05-02T09:44:14.727Z</time></trkpt><trkpt lat="43.993905" lon="11.3631867"><ele>293.0</ele><time>2026-05-02T09:44:15.727Z</time></trkpt><trkpt lat="43.9940783" lon="11.3632"><ele>295.0</ele><time>2026-05-02T09:44:16.728Z</time></trkpt><trkpt lat="43.9942533" lon="11.3632183"><ele>297.0</ele><time>2026-05-02T09:44:17.726Z</time></trkpt><trkpt lat="43.9944283" lon="11.3632417"><ele>299.0</ele><time>2026-05-02T09:44:18.726Z</time></trkpt><trkpt lat="43.99461" lon="11.3632767"><ele>299.0</ele><time>2026-05-02T09:44:19.728Z</time></trkpt><trkpt lat="43.9947967" lon="11.3633283"><ele>299.0</ele><time>2026-05-02T09:44:20.728Z</time></trkpt><trkpt lat="43.9949833" lon="11.36339"><ele>299.0</ele><time>2026-05-02T09:44:21.727Z</time></trkpt><trkpt lat="43.9951717" lon="11.3634617"><ele>299.33333333333337</ele><time>2026-05-02T09:44:22.726Z</time></trkpt><trkpt lat="43.9953583" lon="11.3635383"><ele>299.6666666666667</ele><time>2026-05-02T09:44:23.728Z</time></trkpt><trkpt lat="43.9955433" lon="11.3636183"><ele>300.0</ele><time>2026-05-02T09:44:24.728Z</time></trkpt><trkpt lat="43.9957317" lon="11.3637067"><ele>300.0</ele><time>2026-05-02T09:44:25.728Z</time></trkpt><trkpt lat="43.9959217" lon="11.3637867"><ele>300.0</ele><time>2026-05-02T09:44:26.727Z</time></trkpt><trkpt lat="43.9961067" lon="11.3638617"><ele>300.0</ele><time>2026-05-02T09:44:27.726Z</time></trkpt><trkpt lat="43.9962933" lon="11.3639433"><ele>303.0</ele><time>2026-05-02T09:44:28.73Z</time></trkpt><trkpt lat="43.99648" lon="11.3640233"><ele>306.0</ele><time>2026-05-02T09:44:29.727Z</time></trkpt><trkpt lat="43.996665" lon="11.3641033"><ele>309.0</ele><time>2026-05-02T09:44:30.728Z</time></trkpt><trkpt lat="43.996855" lon="11.364195"><ele>309.0</ele><time>2026-05-02T09:44:31.729Z</time></trkpt><trkpt lat="43.9970467" lon="11.3642733"><ele>309.0</ele><time>2026-05-02T09:44:32.727Z</time></trkpt><trkpt lat="43.9972467" lon="11.3643683"><ele>309.0</ele><time>2026-05-02T09:44:33.729Z</time></trkpt><trkpt lat="43.9974483" lon="11.3644567"><ele>308.0</ele><time>2026-05-02T09:44:34.729Z</time></trkpt><trkpt lat="43.99765" lon="11.3645517"><ele>307.0</ele><time>2026-05-02T09:44:35.728Z</time></trkpt><trkpt lat="43.997855" lon="11.3646517"><ele>306.0</ele><time>2026-05-02T09:44:36.728Z</time></trkpt><trkpt lat="43.99806" lon="11.3647533"><ele>306.0</ele><time>2026-05-02T09:44:37.726Z</time></trkpt><trkpt lat="43.998265" lon="11.364855"><ele>306.0</ele><time>2026-05-02T09:44:38.728Z</time></trkpt><trkpt lat="43.9984683" lon="11.3649617"><ele>306.0</ele><time>2026-05-02T09:44:39.728Z</time></trkpt><trkpt lat="43.99867" lon="11.3650717"><ele>307.0</ele><time>2026-05-02T09:44:40.728Z</time></trkpt><trkpt lat="43.9988717" lon="11.3651783"><ele>308.0</ele><time>2026-05-02T09:44:41.728Z</time></trkpt><trkpt lat="43.9990733" lon="11.3652883"><ele>309.0</ele><time>2026-05-02T09:44:42.728Z</time></trkpt><trkpt lat="43.999275" lon="11.365395"><ele>310.0</ele><time>2026-05-02T09:44:43.729Z</time></trkpt><trkpt lat="43.9994767" lon="11.3655"><ele>311.0</ele><time>2026-05-02T09:44:44.729Z</time></trkpt><trkpt lat="43.9996767" lon="11.3656067"><ele>312.0</ele><time>2026-05-02T09:44:45.728Z</time></trkpt><trkpt lat="43.9998767" lon="11.3657133"><ele>312.6666666666667</ele><time>2026-05-02T09:44:46.728Z</time></trkpt><trkpt lat="44.0000767" lon="11.365815"><ele>313.33333333333337</ele><time>2026-05-02T09:44:47.728Z</time></trkpt><trkpt lat="44.0002783" lon="11.36592"><ele>314.0</ele><time>2026-05-02T09:44:48.729Z</time></trkpt><trkpt lat="44.0004817" lon="11.3660217"><ele>314.0</ele><time>2026-05-02T09:44:49.728Z</time></trkpt><trkpt lat="44.0006833" lon="11.366125"><ele>314.0</ele><time>2026-05-02T09:44:50.729Z</time></trkpt><trkpt lat="44.0008867" lon="11.3662283"><ele>314.0</ele><time>2026-05-02T09:44:51.727Z</time></trkpt><trkpt lat="44.00109" lon="11.3663317"><ele>314.6666666666667</ele><time>2026-05-02T09:44:52.727Z</time></trkpt><trkpt lat="44.0012933" lon="11.366435"><ele>315.3333333333333</ele><time>2026-05-02T09:44:53.729Z</time></trkpt><trkpt lat="44.0014917" lon="11.3665433"><ele>316.0</ele><time>2026-05-02T09:44:54.727Z</time></trkpt><trkpt lat="44.001685" lon="11.3666533"><ele>316.66666666666663</ele><time>2026-05-02T09:44:55.728Z</time></trkpt><trkpt lat="44.0018783" lon="11.3667667"><ele>317.3333333333333</ele><time>2026-05-02T09:44:56.729Z</time></trkpt><trkpt lat="44.00207" lon="11.366875"><ele>318.0</ele><time>2026-05-02T09:44:57.728Z</time></trkpt><trkpt lat="44.00226" lon="11.3669783"><ele>318.0</ele><time>2026-05-02T09:44:58.729Z</time></trkpt><trkpt lat="44.00245" lon="11.3670833"><ele>318.0</ele><time>2026-05-02T09:44:59.726Z</time></trkpt><trkpt lat="44.0026367" lon="11.3671817"><ele>318.0</ele><time>2026-05-02T09:45:00.727Z</time></trkpt><trkpt lat="44.0028183" lon="11.3672767"><ele>318.3333333333333</ele><time>2026-05-02T09:45:01.727Z</time></trkpt><trkpt lat="44.0029983" lon="11.3673717"><ele>318.66666666666663</ele><time>2026-05-02T09:45:02.727Z</time></trkpt><trkpt lat="44.0031767" lon="11.367465"><ele>319.0</ele><time>2026-05-02T09:45:03.728Z</time></trkpt><trkpt lat="44.0033517" lon="11.3675533"><ele>320.3333333333333</ele><time>2026-05-02T09:45:04.727Z</time></trkpt><trkpt lat="44.0035217" lon="11.3676417"><ele>321.6666666666667</ele><time>2026-05-02T09:45:05.729Z</time></trkpt><trkpt lat="44.0036883" lon="11.367725"><ele>323.0</ele><time>2026-05-02T09:45:06.729Z</time></trkpt><trkpt lat="44.0038533" lon="11.367795"><ele>323.0</ele><time>2026-05-02T09:45:07.729Z</time></trkpt><trkpt lat="44.004025" lon="11.3678417"><ele>323.0</ele><time>2026-05-02T09:45:08.728Z</time></trkpt><trkpt lat="44.0042033" lon="11.3678583"><ele>323.0</ele><time>2026-05-02T09:45:09.728Z</time></trkpt><trkpt lat="44.0043867" lon="11.3678433"><ele>322.33333333333337</ele><time>2026-05-02T09:45:10.728Z</time></trkpt><trkpt lat="44.00457" lon="11.36779"><ele>321.6666666666667</ele><time>2026-05-02T09:45:11.728Z</time></trkpt><trkpt lat="44.0047433" lon="11.3677033"><ele>321.0</ele><time>2026-05-02T09:45:12.729Z</time></trkpt><trkpt lat="44.004905" lon="11.3675833"><ele>321.3333333333333</ele><time>2026-05-02T09:45:13.733Z</time></trkpt><trkpt lat="44.0050567" lon="11.3674317"><ele>321.66666666666663</ele><time>2026-05-02T09:45:14.728Z</time></trkpt><trkpt lat="44.0051967" lon="11.3672567"><ele>322.0</ele><time>2026-05-02T09:45:15.728Z</time></trkpt><trkpt lat="44.00532" lon="11.3670667"><ele>322.0</ele><time>2026-05-02T09:45:16.728Z</time></trkpt><trkpt lat="44.005435" lon="11.3668733"><ele>322.0</ele><time>2026-05-02T09:45:17.729Z</time></trkpt><trkpt lat="44.0055433" lon="11.3666917"><ele>322.0</ele><time>2026-05-02T09:45:18.728Z</time></trkpt><trkpt lat="44.0056517" lon="11.366525"><ele>322.0</ele><time>2026-05-02T09:45:19.726Z</time></trkpt><trkpt lat="44.0057483" lon="11.3663733"><ele>322.0</ele><time>2026-05-02T09:45:20.729Z</time></trkpt><trkpt lat="44.0058333" lon="11.3662383"><ele>322.0</ele><time>2026-05-02T09:45:21.729Z</time></trkpt><trkpt lat="44.0059117" lon="11.36613"><ele>322.0</ele><time>2026-05-02T09:45:22.729Z</time></trkpt><trkpt lat="44.0059867" lon="11.3660617"><ele>322.5</ele><time>2026-05-02T09:45:23.728Z</time></trkpt><trkpt lat="44.00606" lon="11.36603"><ele>323.0</ele><time>2026-05-02T09:45:24.728Z</time></trkpt><trkpt lat="44.0061533" lon="11.3660283"><ele>323.5</ele><time>2026-05-02T09:45:26.729Z</time></trkpt><trkpt lat="44.006245" lon="11.3660783"><ele>324.0</ele><time>2026-05-02T09:45:29.728Z</time></trkpt><trkpt lat="44.00631" lon="11.366115"><ele>324.5</ele><time>2026-05-02T09:45:30.728Z</time></trkpt><trkpt lat="44.006395" lon="11.366175"><ele>325.0</ele><time>2026-05-02T09:45:31.731Z</time></trkpt><trkpt lat="44.00649" lon="11.366255"><ele>325.0</ele><time>2026-05-02T09:45:32.729Z</time></trkpt><trkpt lat="44.006595" lon="11.3663467"><ele>325.0</ele><time>2026-05-02T09:45:33.727Z</time></trkpt><trkpt lat="44.006705" lon="11.3664433"><ele>325.0</ele><time>2026-05-02T09:45:34.73Z</time></trkpt><trkpt lat="44.006815" lon="11.3665433"><ele>325.0</ele><time>2026-05-02T09:45:35.728Z</time></trkpt><trkpt lat="44.0069233" lon="11.3666433"><ele>325.2</ele><time>2026-05-02T09:45:36.729Z</time></trkpt><trkpt lat="44.0070267" lon="11.366745"><ele>325.4</ele><time>2026-05-02T09:45:37.73Z</time></trkpt><trkpt lat="44.007125" lon="11.366835"><ele>325.6</ele><time>2026-05-02T09:45:38.728Z</time></trkpt><trkpt lat="44.0072133" lon="11.3669133"><ele>325.8</ele><time>2026-05-02T09:45:39.728Z</time></trkpt><trkpt lat="44.0072933" lon="11.366975"><ele>326.0</ele><time>2026-05-02T09:45:40.728Z</time></trkpt><trkpt lat="44.00737" lon="11.3670217"><ele>326.0</ele><time>2026-05-02T09:45:41.728Z</time></trkpt><trkpt lat="44.0074417" lon="11.3670417"><ele>326.0</ele><time>2026-05-02T09:45:42.728Z</time></trkpt><trkpt lat="44.0075483" lon="11.3669917"><ele>326.0</ele><time>2026-05-02T09:45:44.727Z</time></trkpt><trkpt lat="44.0075667" lon="11.36688"><ele>326.0</ele><time>2026-05-02T09:45:45.727Z</time></trkpt><trkpt lat="44.007585" lon="11.3667883"><ele>326.0</ele><time>2026-05-02T09:45:46.728Z</time></trkpt><trkpt lat="44.00756" lon="11.366695"><ele>326.0</ele><time>2026-05-02T09:45:47.729Z</time></trkpt><trkpt lat="44.0075033" lon="11.36662"><ele>326.0</ele><time>2026-05-02T09:45:48.728Z</time></trkpt><trkpt lat="44.0074067" lon="11.3665417"><ele>326.0</ele><time>2026-05-02T09:45:49.729Z</time></trkpt><trkpt lat="44.0072767" lon="11.3664433"><ele>326.0</ele><time>2026-05-02T09:45:50.726Z</time></trkpt><trkpt lat="44.0071483" lon="11.3663333"><ele>326.0</ele><time>2026-05-02T09:45:51.729Z</time></trkpt><trkpt lat="44.0070217" lon="11.3662083"><ele>325.6666666666667</ele><time>2026-05-02T09:45:52.725Z</time></trkpt><trkpt lat="44.0068933" lon="11.3660667"><ele>325.3333333333333</ele><time>2026-05-02T09:45:53.726Z</time></trkpt><trkpt lat="44.0067733" lon="11.3659167"><ele>325.0</ele><time>2026-05-02T09:45:54.727Z</time></trkpt><trkpt lat="44.0066517" lon="11.36575"><ele>325.0</ele><time>2026-05-02T09:45:55.728Z</time></trkpt><trkpt lat="44.00653" lon="11.365575"><ele>325.0</ele><time>2026-05-02T09:45:56.728Z</time></trkpt><trkpt lat="44.0064117" lon="11.36539"><ele>325.0</ele><time>2026-05-02T09:45:57.729Z</time></trkpt><trkpt lat="44.0063" lon="11.36518"><ele>323.0</ele><time>2026-05-02T09:45:58.727Z</time></trkpt><trkpt lat="44.006195" lon="11.36496"><ele>321.0</ele><time>2026-05-02T09:45:59.727Z</time></trkpt><trkpt lat="44.006095" lon="11.3647283"><ele>319.0</ele><time>2026-05-02T09:46:00.728Z</time></trkpt><trkpt lat="44.006" lon="11.3644933"><ele>319.3333333333333</ele><time>2026-05-02T09:46:01.727Z</time></trkpt><trkpt lat="44.0059067" lon="11.3642517"><ele>319.6666666666667</ele><time>2026-05-02T09:46:02.728Z</time></trkpt><trkpt lat="44.0058117" lon="11.3640033"><ele>320.0</ele><time>2026-05-02T09:46:03.727Z</time></trkpt><trkpt lat="44.0057167" lon="11.363755"><ele>318.33333333333337</ele><time>2026-05-02T09:46:04.728Z</time></trkpt><trkpt lat="44.00562" lon="11.363505"><ele>316.6666666666667</ele><time>2026-05-02T09:46:05.728Z</time></trkpt><trkpt lat="44.00552" lon="11.3632483"><ele>315.0</ele><time>2026-05-02T09:46:06.728Z</time></trkpt><trkpt lat="44.00542" lon="11.3629933"><ele>310.0</ele><time>2026-05-02T09:46:07.729Z</time></trkpt><trkpt lat="44.0053183" lon="11.36274"><ele>305.0</ele><time>2026-05-02T09:46:08.728Z</time></trkpt><trkpt lat="44.0052183" lon="11.3624867"><ele>300.0</ele><time>2026-05-02T09:46:09.727Z</time></trkpt><trkpt lat="44.00512" lon="11.36223"><ele>299.3333333333333</ele><time>2026-05-02T09:46:10.729Z</time></trkpt><trkpt lat="44.00502" lon="11.3619767"><ele>298.66666666666663</ele><time>2026-05-02T09:46:11.729Z</time></trkpt><trkpt lat="44.0049183" lon="11.361725"><ele>298.0</ele><time>2026-05-02T09:46:12.727Z</time></trkpt><trkpt lat="44.0048217" lon="11.3614717"><ele>297.3333333333333</ele><time>2026-05-02T09:46:13.728Z</time></trkpt><trkpt lat="44.00472" lon="11.3612183"><ele>296.6666666666667</ele><time>2026-05-02T09:46:14.729Z</time></trkpt><trkpt lat="44.00462" lon="11.3609567"><ele>296.0</ele><time>2026-05-02T09:46:15.728Z</time></trkpt><trkpt lat="44.004525" lon="11.3606967"><ele>294.33333333333337</ele><time>2026-05-02T09:46:16.728Z</time></trkpt><trkpt lat="44.0044283" lon="11.360435"><ele>292.6666666666667</ele><time>2026-05-02T09:46:17.726Z</time></trkpt><trkpt lat="44.00433" lon="11.3601733"><ele>291.0</ele><time>2026-05-02T09:46:18.728Z</time></trkpt><trkpt lat="44.0042283" lon="11.359915"><ele>290.3333333333333</ele><time>2026-05-02T09:46:19.727Z</time></trkpt><trkpt lat="44.004125" lon="11.3596533"><ele>289.66666666666663</ele><time>2026-05-02T09:46:20.728Z</time></trkpt><trkpt lat="44.0040217" lon="11.3593883"><ele>289.0</ele><time>2026-05-02T09:46:21.727Z</time></trkpt><trkpt lat="44.00392" lon="11.3591233"><ele>288.3333333333333</ele><time>2026-05-02T09:46:22.729Z</time></trkpt><trkpt lat="44.0038167" lon="11.35886"><ele>287.6666666666667</ele><time>2026-05-02T09:46:23.727Z</time></trkpt><trkpt lat="44.0037133" lon="11.3586"><ele>287.0</ele><time>2026-05-02T09:46:24.727Z</time></trkpt><trkpt lat="44.0036133" lon="11.3583367"><ele>287.0</ele><time>2026-05-02T09:46:25.727Z</time></trkpt><trkpt lat="44.0035117" lon="11.3580767"><ele>287.0</ele><time>2026-05-02T09:46:26.728Z</time></trkpt><trkpt lat="44.00341" lon="11.3578133"><ele>287.0</ele><time>2026-05-02T09:46:27.727Z</time></trkpt><trkpt lat="44.0033067" lon="11.3575517"><ele>286.0</ele><time>2026-05-02T09:46:28.728Z</time></trkpt><trkpt lat="44.0032017" lon="11.35728"><ele>285.0</ele><time>2026-05-02T09:46:29.726Z</time></trkpt><trkpt lat="44.0030967" lon="11.3570067"><ele>284.0</ele><time>2026-05-02T09:46:30.728Z</time></trkpt><trkpt lat="44.0029883" lon="11.3567333"><ele>283.5</ele><time>2026-05-02T09:46:31.728Z</time></trkpt><trkpt lat="44.0028817" lon="11.356455"><ele>283.0</ele><time>2026-05-02T09:46:32.727Z</time></trkpt><trkpt lat="44.0027733" lon="11.356175"><ele>282.5</ele><time>2026-05-02T09:46:33.729Z</time></trkpt><trkpt lat="44.002665" lon="11.3558883"><ele>282.0</ele><time>2026-05-02T09:46:34.728Z</time></trkpt><trkpt lat="44.0025533" lon="11.3556017"><ele>281.5</ele><time>2026-05-02T09:46:35.727Z</time></trkpt><trkpt lat="44.0024433" lon="11.355315"><ele>281.0</ele><time>2026-05-02T09:46:36.726Z</time></trkpt><trkpt lat="44.002335" lon="11.355025"><ele>281.0</ele><time>2026-05-02T09:46:37.727Z</time></trkpt><trkpt lat="44.002225" lon="11.3547383"><ele>281.0</ele><time>2026-05-02T09:46:38.727Z</time></trkpt><trkpt lat="44.00211" lon="11.3544583"><ele>281.0</ele><time>2026-05-02T09:46:39.726Z</time></trkpt><trkpt lat="44.0019917" lon="11.3541817"><ele>281.0</ele><time>2026-05-02T09:46:40.728Z</time></trkpt><trkpt lat="44.0018633" lon="11.3539167"><ele>280.6666666666667</ele><time>2026-05-02T09:46:41.726Z</time></trkpt><trkpt lat="44.00173" lon="11.3536633"><ele>280.3333333333333</ele><time>2026-05-02T09:46:42.726Z</time></trkpt><trkpt lat="44.0015917" lon="11.35342"><ele>280.0</ele><time>2026-05-02T09:46:43.726Z</time></trkpt><trkpt lat="44.0014483" lon="11.35318"><ele>279.3333333333333</ele><time>2026-05-02T09:46:44.728Z</time></trkpt><trkpt lat="44.0013033" lon="11.3529517"><ele>278.6666666666667</ele><time>2026-05-02T09:46:45.726Z</time></trkpt><trkpt lat="44.0011567" lon="11.3527283"><ele>278.0</ele><time>2026-05-02T09:46:46.727Z</time></trkpt><trkpt lat="44.001005" lon="11.35251"><ele>278.0</ele><time>2026-05-02T09:46:47.727Z</time></trkpt><trkpt lat="44.00085" lon="11.3523067"><ele>278.0</ele><time>2026-05-02T09:46:48.729Z</time></trkpt><trkpt lat="44.000695" lon="11.3521083"><ele>278.0</ele><time>2026-05-02T09:46:49.727Z</time></trkpt><trkpt lat="44.00054" lon="11.35192"><ele>277.6666666666667</ele><time>2026-05-02T09:46:50.729Z</time></trkpt><trkpt lat="44.0003867" lon="11.3517367"><ele>277.3333333333333</ele><time>2026-05-02T09:46:51.728Z</time></trkpt><trkpt lat="44.0002283" lon="11.3515683"><ele>277.0</ele><time>2026-05-02T09:46:52.728Z</time></trkpt><trkpt lat="44.00007" lon="11.3514033"><ele>276.3333333333333</ele><time>2026-05-02T09:46:53.728Z</time></trkpt><trkpt lat="43.9999117" lon="11.35125"><ele>275.6666666666667</ele><time>2026-05-02T09:46:54.726Z</time></trkpt><trkpt lat="43.999755" lon="11.3511167"><ele>275.0</ele><time>2026-05-02T09:46:55.729Z</time></trkpt><trkpt lat="43.999605" lon="11.3509917"><ele>275.0</ele><time>2026-05-02T09:46:56.727Z</time></trkpt><trkpt lat="43.99946" lon="11.3508733"><ele>275.0</ele><time>2026-05-02T09:46:57.728Z</time></trkpt><trkpt lat="43.9993217" lon="11.35077"><ele>275.0</ele><time>2026-05-02T09:46:58.731Z</time></trkpt><trkpt lat="43.999195" lon="11.350675"><ele>275.0</ele><time>2026-05-02T09:46:59.728Z</time></trkpt><trkpt lat="43.999075" lon="11.35058"><ele>275.0</ele><time>2026-05-02T09:47:00.729Z</time></trkpt><trkpt lat="43.9989667" lon="11.3504983"><ele>275.0</ele><time>2026-05-02T09:47:01.728Z</time></trkpt><trkpt lat="43.9988717" lon="11.35042"><ele>275.0</ele><time>2026-05-02T09:47:02.729Z</time></trkpt><trkpt lat="43.9987933" lon="11.3503417"><ele>274.33333333333337</ele><time>2026-05-02T09:47:03.728Z</time></trkpt><trkpt lat="43.9987317" lon="11.3502467"><ele>273.6666666666667</ele><time>2026-05-02T09:47:04.728Z</time></trkpt><trkpt lat="43.998685" lon="11.35013"><ele>273.0</ele><time>2026-05-02T09:47:05.728Z</time></trkpt><trkpt lat="43.9986367" lon="11.3500317"><ele>272.3333333333333</ele><time>2026-05-02T09:47:06.729Z</time></trkpt><trkpt lat="43.9985817" lon="11.34994"><ele>271.66666666666663</ele><time>2026-05-02T09:47:07.728Z</time></trkpt><trkpt lat="43.99851" lon="11.3499167"><ele>271.0</ele><time>2026-05-02T09:47:08.728Z</time></trkpt><trkpt lat="43.9984267" lon="11.3499033"><ele>270.75</ele><time>2026-05-02T09:47:09.727Z</time></trkpt><trkpt lat="43.998325" lon="11.34991"><ele>270.5</ele><time>2026-05-02T09:47:10.727Z</time></trkpt><trkpt lat="43.9982083" lon="11.349875"><ele>270.25</ele><time>2026-05-02T09:47:11.727Z</time></trkpt><trkpt lat="43.9980817" lon="11.34981"><ele>270.0</ele><time>2026-05-02T09:47:12.728Z</time></trkpt><trkpt lat="43.9979467" lon="11.34972"><ele>269.3333333333333</ele><time>2026-05-02T09:47:13.729Z</time></trkpt><trkpt lat="43.9978033" lon="11.3496267"><ele>268.66666666666663</ele><time>2026-05-02T09:47:14.729Z</time></trkpt><trkpt lat="43.9976583" lon="11.3495233"><ele>268.0</ele><time>2026-05-02T09:47:15.728Z</time></trkpt><trkpt lat="43.99751" lon="11.349415"><ele>267.66666666666663</ele><time>2026-05-02T09:47:16.728Z</time></trkpt><trkpt lat="43.9973617" lon="11.3493067"><ele>267.3333333333333</ele><time>2026-05-02T09:47:17.728Z</time></trkpt><trkpt lat="43.997215" lon="11.3491933"><ele>267.0</ele><time>2026-05-02T09:47:18.729Z</time></trkpt><trkpt lat="43.9970733" lon="11.3490733"><ele>267.0</ele><time>2026-05-02T09:47:19.729Z</time></trkpt><trkpt lat="43.99694" lon="11.3489317"><ele>267.0</ele><time>2026-05-02T09:47:20.728Z</time></trkpt><trkpt lat="43.996815" lon="11.3487817"><ele>267.0</ele><time>2026-05-02T09:47:21.729Z</time></trkpt><trkpt lat="43.9966917" lon="11.34862"><ele>265.6666666666667</ele><time>2026-05-02T09:47:22.729Z</time></trkpt><trkpt lat="43.9965717" lon="11.3484433"><ele>264.33333333333337</ele><time>2026-05-02T09:47:23.728Z</time></trkpt><trkpt lat="43.9964533" lon="11.3482533"><ele>263.0</ele><time>2026-05-02T09:47:24.727Z</time></trkpt><trkpt lat="43.996335" lon="11.348055"><ele>261.0</ele><time>2026-05-02T09:47:25.727Z</time></trkpt><trkpt lat="43.9962167" lon="11.3478517"><ele>259.0</ele><time>2026-05-02T09:47:26.73Z</time></trkpt><trkpt lat="43.9960983" lon="11.3476467"><ele>257.0</ele><time>2026-05-02T09:47:27.729Z</time></trkpt><trkpt lat="43.99598" lon="11.3474433"><ele>257.0</ele><time>2026-05-02T09:47:28.728Z</time></trkpt><trkpt lat="43.9958583" lon="11.34724"><ele>257.0</ele><time>2026-05-02T09:47:29.726Z</time></trkpt><trkpt lat="43.99574" lon="11.3470317"><ele>257.0</ele><time>2026-05-02T09:47:30.727Z</time></trkpt><trkpt lat="43.9956217" lon="11.3468233"><ele>257.6666666666667</ele><time>2026-05-02T09:47:31.728Z</time></trkpt><trkpt lat="43.9955" lon="11.3466167"><ele>258.3333333333333</ele><time>2026-05-02T09:47:32.728Z</time></trkpt><trkpt lat="43.9953767" lon="11.3464117"><ele>259.0</ele><time>2026-05-02T09:47:33.727Z</time></trkpt><trkpt lat="43.9952467" lon="11.34622"><ele>259.0</ele><time>2026-05-02T09:47:34.726Z</time></trkpt><trkpt lat="43.99511" lon="11.3460383"><ele>259.0</ele><time>2026-05-02T09:47:35.729Z</time></trkpt><trkpt lat="43.9949633" lon="11.3458733"><ele>259.0</ele><time>2026-05-02T09:47:36.727Z</time></trkpt><trkpt lat="43.9948067" lon="11.345725"><ele>259.0</ele><time>2026-05-02T09:47:37.726Z</time></trkpt><trkpt lat="43.9946383" lon="11.3456017"><ele>259.0</ele><time>2026-05-02T09:47:38.73Z</time></trkpt><trkpt lat="43.994455" lon="11.3455017"><ele>259.0</ele><time>2026-05-02T09:47:39.727Z</time></trkpt><trkpt lat="43.994265" lon="11.3454167"><ele>258.0</ele><time>2026-05-02T09:47:40.729Z</time></trkpt><trkpt lat="43.9940733" lon="11.3453417"><ele>257.0</ele><time>2026-05-02T09:47:41.729Z</time></trkpt><trkpt lat="43.9938817" lon="11.3452667"><ele>256.0</ele><time>2026-05-02T09:47:42.727Z</time></trkpt><trkpt lat="43.9936917" lon="11.3451917"><ele>256.0</ele><time>2026-05-02T09:47:43.728Z</time></trkpt><trkpt lat="43.9935" lon="11.3451067"><ele>256.0</ele><time>2026-05-02T09:47:44.728Z</time></trkpt><trkpt lat="43.9933117" lon="11.3450067"><ele>256.0</ele><time>2026-05-02T09:47:45.819Z</time></trkpt><trkpt lat="43.9931267" lon="11.3448783"><ele>255.0</ele><time>2026-05-02T09:47:46.728Z</time></trkpt><trkpt lat="43.9929467" lon="11.3447317"><ele>254.0</ele><time>2026-05-02T09:47:47.728Z</time></trkpt><trkpt lat="43.992775" lon="11.34457"><ele>253.0</ele><time>2026-05-02T09:47:48.728Z</time></trkpt><trkpt lat="43.9926067" lon="11.34439"><ele>247.66666666666666</ele><time>2026-05-02T09:47:49.728Z</time></trkpt><trkpt lat="43.99244" lon="11.344205"><ele>242.33333333333331</ele><time>2026-05-02T09:47:50.727Z</time></trkpt><trkpt lat="43.99227" lon="11.344025"><ele>237.0</ele><time>2026-05-02T09:47:51.727Z</time></trkpt><trkpt lat="43.9920967" lon="11.3438433"><ele>236.66666666666669</ele><time>2026-05-02T09:47:52.729Z</time></trkpt><trkpt lat="43.991925" lon="11.343665"><ele>236.33333333333334</ele><time>2026-05-02T09:47:53.727Z</time></trkpt><trkpt lat="43.9917517" lon="11.3434867"><ele>236.0</ele><time>2026-05-02T09:47:54.728Z</time></trkpt><trkpt lat="43.99158" lon="11.34331"><ele>236.66666666666669</ele><time>2026-05-02T09:47:55.728Z</time></trkpt><trkpt lat="43.9914083" lon="11.3431267"><ele>237.33333333333331</ele><time>2026-05-02T09:47:56.728Z</time></trkpt><trkpt lat="43.99124" lon="11.342945"><ele>238.0</ele><time>2026-05-02T09:47:57.729Z</time></trkpt><trkpt lat="43.99107" lon="11.342765"><ele>238.66666666666666</ele><time>2026-05-02T09:47:58.728Z</time></trkpt><trkpt lat="43.9909" lon="11.3425933"><ele>239.33333333333331</ele><time>2026-05-02T09:47:59.727Z</time></trkpt><trkpt lat="43.990725" lon="11.34244"><ele>240.0</ele><time>2026-05-02T09:48:00.727Z</time></trkpt><trkpt lat="43.9905383" lon="11.3422967"><ele>239.33333333333331</ele><time>2026-05-02T09:48:01.728Z</time></trkpt><trkpt lat="43.990345" lon="11.3421667"><ele>238.66666666666666</ele><time>2026-05-02T09:48:02.728Z</time></trkpt><trkpt lat="43.9901467" lon="11.3420467"><ele>238.0</ele><time>2026-05-02T09:48:03.728Z</time></trkpt><trkpt lat="43.9899433" lon="11.3419467"><ele>238.0</ele><time>2026-05-02T09:48:04.728Z</time></trkpt><trkpt lat="43.9897433" lon="11.3418667"><ele>238.0</ele><time>2026-05-02T09:48:05.729Z</time></trkpt><trkpt lat="43.9895383" lon="11.3417933"><ele>238.0</ele><time>2026-05-02T09:48:06.729Z</time></trkpt><trkpt lat="43.9893317" lon="11.3417183"><ele>238.0</ele><time>2026-05-02T09:48:07.727Z</time></trkpt><trkpt lat="43.9891267" lon="11.3416367"><ele>238.0</ele><time>2026-05-02T09:48:08.729Z</time></trkpt><trkpt lat="43.988925" lon="11.3415633"><ele>238.0</ele><time>2026-05-02T09:48:09.728Z</time></trkpt><trkpt lat="43.9887233" lon="11.3414867"><ele>238.0</ele><time>2026-05-02T09:48:10.727Z</time></trkpt><trkpt lat="43.9885233" lon="11.34141"><ele>238.0</ele><time>2026-05-02T09:48:11.727Z</time></trkpt><trkpt lat="43.9883233" lon="11.34133"><ele>238.0</ele><time>2026-05-02T09:48:12.728Z</time></trkpt><trkpt lat="43.9881233" lon="11.3412483"><ele>238.33333333333331</ele><time>2026-05-02T09:48:13.729Z</time></trkpt><trkpt lat="43.987925" lon="11.341165"><ele>238.66666666666669</ele><time>2026-05-02T09:48:14.729Z</time></trkpt><trkpt lat="43.9877283" lon="11.3410733"><ele>239.0</ele><time>2026-05-02T09:48:15.726Z</time></trkpt><trkpt lat="43.9875333" lon="11.3409683"><ele>237.33333333333334</ele><time>2026-05-02T09:48:16.728Z</time></trkpt><trkpt lat="43.98734" lon="11.3408567"><ele>235.66666666666669</ele><time>2026-05-02T09:48:17.73Z</time></trkpt><trkpt lat="43.9871483" lon="11.3407467"><ele>234.0</ele><time>2026-05-02T09:48:18.728Z</time></trkpt><trkpt lat="43.9869567" lon="11.3406333"><ele>234.0</ele><time>2026-05-02T09:48:19.729Z</time></trkpt><trkpt lat="43.9867667" lon="11.3405183"><ele>234.0</ele><time>2026-05-02T09:48:20.728Z</time></trkpt><trkpt lat="43.98658" lon="11.3404067"><ele>234.0</ele><time>2026-05-02T09:48:21.728Z</time></trkpt><trkpt lat="43.9863983" lon="11.3402983"><ele>234.0</ele><time>2026-05-02T09:48:22.729Z</time></trkpt><trkpt lat="43.9862267" lon="11.340205"><ele>234.0</ele><time>2026-05-02T09:48:23.728Z</time></trkpt><trkpt lat="43.9860617" lon="11.3401233"><ele>234.0</ele><time>2026-05-02T09:48:24.727Z</time></trkpt><trkpt lat="43.985915" lon="11.34005"><ele>233.6</ele><time>2026-05-02T09:48:25.728Z</time></trkpt><trkpt lat="43.985785" lon="11.3399917"><ele>233.2</ele><time>2026-05-02T09:48:26.728Z</time></trkpt><trkpt lat="43.985685" lon="11.33993"><ele>232.79999999999998</ele><time>2026-05-02T09:48:27.729Z</time></trkpt><trkpt lat="43.9856067" lon="11.33985"><ele>232.39999999999998</ele><time>2026-05-02T09:48:28.729Z</time></trkpt><trkpt lat="43.9855433" lon="11.3397517"><ele>232.0</ele><time>2026-05-02T09:48:29.729Z</time></trkpt><trkpt lat="43.9854767" lon="11.3396633"><ele>232.8</ele><time>2026-05-02T09:48:30.727Z</time></trkpt><trkpt lat="43.9853867" lon="11.339615"><ele>233.6</ele><time>2026-05-02T09:48:31.728Z</time></trkpt><trkpt lat="43.9852817" lon="11.3396117"><ele>234.40000000000003</ele><time>2026-05-02T09:48:32.728Z</time></trkpt><trkpt lat="43.9851717" lon="11.3396133"><ele>235.20000000000002</ele><time>2026-05-02T09:48:33.729Z</time></trkpt><trkpt lat="43.9850533" lon="11.3395683"><ele>236.0</ele><time>2026-05-02T09:48:34.727Z</time></trkpt><trkpt lat="43.98493" lon="11.3394833"><ele>237.33333333333334</ele><time>2026-05-02T09:48:35.728Z</time></trkpt><trkpt lat="43.9847967" lon="11.3393933"><ele>238.66666666666669</ele><time>2026-05-02T09:48:36.728Z</time></trkpt><trkpt lat="43.9846483" lon="11.3393233"><ele>240.0</ele><time>2026-05-02T09:48:37.729Z</time></trkpt><trkpt lat="43.9844917" lon="11.3392917"><ele>240.0</ele><time>2026-05-02T09:48:38.729Z</time></trkpt><trkpt lat="43.984335" lon="11.3392733"><ele>240.0</ele><time>2026-05-02T09:48:39.729Z</time></trkpt><trkpt lat="43.98418" lon="11.33926"><ele>240.0</ele><time>2026-05-02T09:48:40.727Z</time></trkpt><trkpt lat="43.9840267" lon="11.3392417"><ele>239.66666666666669</ele><time>2026-05-02T09:48:41.729Z</time></trkpt><trkpt lat="43.9838733" lon="11.3392183"><ele>239.33333333333334</ele><time>2026-05-02T09:48:42.729Z</time></trkpt><trkpt lat="43.9837217" lon="11.3391983"><ele>239.0</ele><time>2026-05-02T09:48:43.727Z</time></trkpt><trkpt lat="43.9835767" lon="11.3391833"><ele>239.0</ele><time>2026-05-02T09:48:44.729Z</time></trkpt><trkpt lat="43.9834367" lon="11.3391783"><ele>239.0</ele><time>2026-05-02T09:48:45.728Z</time></trkpt><trkpt lat="43.983295" lon="11.3392017"><ele>239.0</ele><time>2026-05-02T09:48:46.728Z</time></trkpt><trkpt lat="43.9831517" lon="11.3392417"><ele>239.0</ele><time>2026-05-02T09:48:47.73Z</time></trkpt><trkpt lat="43.9830067" lon="11.339295"><ele>239.0</ele><time>2026-05-02T09:48:48.727Z</time></trkpt><trkpt lat="43.982865" lon="11.3393533"><ele>239.0</ele><time>2026-05-02T09:48:49.731Z</time></trkpt><trkpt lat="43.9827133" lon="11.33941"><ele>239.0</ele><time>2026-05-02T09:48:50.728Z</time></trkpt><trkpt lat="43.9825767" lon="11.33947"><ele>239.0</ele><time>2026-05-02T09:48:51.728Z</time></trkpt><trkpt lat="43.9824383" lon="11.3395167"><ele>239.25</ele><time>2026-05-02T09:48:52.728Z</time></trkpt><trkpt lat="43.9823" lon="11.3395433"><ele>239.5</ele><time>2026-05-02T09:48:53.728Z</time></trkpt><trkpt lat="43.9821483" lon="11.3395283"><ele>239.75</ele><time>2026-05-02T09:48:54.728Z</time></trkpt><trkpt lat="43.9820033" lon="11.3394783"><ele>240.0</ele><time>2026-05-02T09:48:55.728Z</time></trkpt><trkpt lat="43.98187" lon="11.3394"><ele>240.0</ele><time>2026-05-02T09:48:56.728Z</time></trkpt><trkpt lat="43.98174" lon="11.3393017"><ele>240.0</ele><time>2026-05-02T09:48:57.728Z</time></trkpt><trkpt lat="43.981615" lon="11.3391967"><ele>240.0</ele><time>2026-05-02T09:48:58.728Z</time></trkpt><trkpt lat="43.981485" lon="11.339085"><ele>240.0</ele><time>2026-05-02T09:48:59.728Z</time></trkpt><trkpt lat="43.9813567" lon="11.338975"><ele>239.25</ele><time>2026-05-02T09:49:00.729Z</time></trkpt><trkpt lat="43.9812317" lon="11.338865"><ele>238.5</ele><time>2026-05-02T09:49:01.731Z</time></trkpt><trkpt lat="43.98111" lon="11.3387433"><ele>237.75</ele><time>2026-05-02T09:49:02.73Z</time></trkpt><trkpt lat="43.9809933" lon="11.338625"><ele>237.0</ele><time>2026-05-02T09:49:03.727Z</time></trkpt><trkpt lat="43.98088" lon="11.3385217"><ele>236.75</ele><time>2026-05-02T09:49:04.728Z</time></trkpt><trkpt lat="43.9807667" lon="11.3384133"><ele>236.5</ele><time>2026-05-02T09:49:05.727Z</time></trkpt><trkpt lat="43.9806567" lon="11.3383017"><ele>236.25</ele><time>2026-05-02T09:49:06.727Z</time></trkpt><trkpt lat="43.9805467" lon="11.3381917"><ele>236.0</ele><time>2026-05-02T09:49:07.729Z</time></trkpt><trkpt lat="43.980435" lon="11.338085"><ele>236.0</ele><time>2026-05-02T09:49:08.729Z</time></trkpt><trkpt lat="43.980325" lon="11.3379933"><ele>236.0</ele><time>2026-05-02T09:49:09.73Z</time></trkpt><trkpt lat="43.9802117" lon="11.3379067"><ele>236.0</ele><time>2026-05-02T09:49:10.728Z</time></trkpt><trkpt lat="43.9800933" lon="11.3378267"><ele>236.0</ele><time>2026-05-02T09:49:11.729Z</time></trkpt><trkpt lat="43.979975" lon="11.3377533"><ele>235.25</ele><time>2026-05-02T09:49:12.729Z</time></trkpt><trkpt lat="43.979855" lon="11.3376817"><ele>234.5</ele><time>2026-05-02T09:49:13.729Z</time></trkpt><trkpt lat="43.9797333" lon="11.3376117"><ele>233.75</ele><time>2026-05-02T09:49:14.73Z</time></trkpt><trkpt lat="43.9796083" lon="11.337545"><ele>233.0</ele><time>2026-05-02T09:49:15.73Z</time></trkpt><trkpt lat="43.979485" lon="11.337475"><ele>233.0</ele><time>2026-05-02T09:49:16.728Z</time></trkpt><trkpt lat="43.97937" lon="11.33741"><ele>233.0</ele><time>2026-05-02T09:49:17.728Z</time></trkpt><trkpt lat="43.9792617" lon="11.33735"><ele>233.0</ele><time>2026-05-02T09:49:18.731Z</time></trkpt><trkpt lat="43.9791567" lon="11.3372883"><ele>233.0</ele><time>2026-05-02T09:49:19.728Z</time></trkpt><trkpt lat="43.9790483" lon="11.3372267"><ele>232.75</ele><time>2026-05-02T09:49:20.728Z</time></trkpt><trkpt lat="43.978935" lon="11.33716"><ele>232.5</ele><time>2026-05-02T09:49:21.727Z</time></trkpt><trkpt lat="43.97882" lon="11.3370967"><ele>232.25</ele><time>2026-05-02T09:49:22.725Z</time></trkpt><trkpt lat="43.9787033" lon="11.3370283"><ele>232.0</ele><time>2026-05-02T09:49:23.728Z</time></trkpt><trkpt lat="43.978585" lon="11.33696"><ele>232.0</ele><time>2026-05-02T09:49:24.728Z</time></trkpt><trkpt lat="43.97847" lon="11.3368983"><ele>232.0</ele><time>2026-05-02T09:49:25.729Z</time></trkpt><trkpt lat="43.9783567" lon="11.3368417"><ele>232.0</ele><time>2026-05-02T09:49:26.731Z</time></trkpt><trkpt lat="43.9782483" lon="11.3367833"><ele>232.0</ele><time>2026-05-02T09:49:27.729Z</time></trkpt><trkpt lat="43.9781417" lon="11.33672"><ele>231.75</ele><time>2026-05-02T09:49:28.729Z</time></trkpt><trkpt lat="43.9780317" lon="11.3366567"><ele>231.5</ele><time>2026-05-02T09:49:29.727Z</time></trkpt><trkpt lat="43.9779133" lon="11.3365867"><ele>231.25</ele><time>2026-05-02T09:49:30.73Z</time></trkpt><trkpt lat="43.9777867" lon="11.3365233"><ele>231.0</ele><time>2026-05-02T09:49:31.731Z</time></trkpt><trkpt lat="43.9776583" lon="11.3364583"><ele>231.0</ele><time>2026-05-02T09:49:32.729Z</time></trkpt><trkpt lat="43.97753" lon="11.336395"><ele>231.0</ele><time>2026-05-02T09:49:33.73Z</time></trkpt><trkpt lat="43.977405" lon="11.33633"><ele>231.0</ele><time>2026-05-02T09:49:34.729Z</time></trkpt><trkpt lat="43.97728" lon="11.3362667"><ele>231.0</ele><time>2026-05-02T09:49:35.727Z</time></trkpt><trkpt lat="43.97715" lon="11.336185"><ele>231.0</ele><time>2026-05-02T09:49:36.729Z</time></trkpt><trkpt lat="43.977015" lon="11.336095"><ele>231.0</ele><time>2026-05-02T09:49:37.731Z</time></trkpt><trkpt lat="43.9768883" lon="11.3360183"><ele>231.0</ele><time>2026-05-02T09:49:38.729Z</time></trkpt><trkpt lat="43.9767617" lon="11.33594"><ele>231.0</ele><time>2026-05-02T09:49:39.728Z</time></trkpt><trkpt lat="43.9766283" lon="11.3358667"><ele>230.75</ele><time>2026-05-02T09:49:40.727Z</time></trkpt><trkpt lat="43.976495" lon="11.335785"><ele>230.5</ele><time>2026-05-02T09:49:41.729Z</time></trkpt><trkpt lat="43.9763633" lon="11.3357083"><ele>230.25</ele><time>2026-05-02T09:49:42.729Z</time></trkpt><trkpt lat="43.9762283" lon="11.3356367"><ele>230.0</ele><time>2026-05-02T09:49:43.726Z</time></trkpt><trkpt lat="43.97609" lon="11.3355617"><ele>230.25</ele><time>2026-05-02T09:49:44.728Z</time></trkpt><trkpt lat="43.9759533" lon="11.3354833"><ele>230.5</ele><time>2026-05-02T09:49:45.727Z</time></trkpt><trkpt lat="43.9758167" lon="11.3353967"><ele>230.75</ele><time>2026-05-02T09:49:46.731Z</time></trkpt><trkpt lat="43.97568" lon="11.3353133"><ele>231.0</ele><time>2026-05-02T09:49:47.729Z</time></trkpt><trkpt lat="43.9755417" lon="11.33523"><ele>230.25</ele><time>2026-05-02T09:49:48.728Z</time></trkpt><trkpt lat="43.9754067" lon="11.335145"><ele>229.5</ele><time>2026-05-02T09:49:49.727Z</time></trkpt><trkpt lat="43.97527" lon="11.33506"><ele>228.75</ele><time>2026-05-02T09:49:50.729Z</time></trkpt><trkpt lat="43.9751367" lon="11.3349767"><ele>228.0</ele><time>2026-05-02T09:49:51.729Z</time></trkpt><trkpt lat="43.975005" lon="11.33489"><ele>227.5</ele><time>2026-05-02T09:49:52.731Z</time></trkpt><trkpt lat="43.9748733" lon="11.3348"><ele>227.0</ele><time>2026-05-02T09:49:53.729Z</time></trkpt><trkpt lat="43.97474" lon="11.3347183"><ele>226.5</ele><time>2026-05-02T09:49:54.729Z</time></trkpt><trkpt lat="43.9746033" lon="11.3346367"><ele>226.0</ele><time>2026-05-02T09:49:55.73Z</time></trkpt><trkpt lat="43.974465" lon="11.3345583"><ele>226.0</ele><time>2026-05-02T09:49:56.727Z</time></trkpt><trkpt lat="43.9743217" lon="11.33448"><ele>226.0</ele><time>2026-05-02T09:49:57.727Z</time></trkpt><trkpt lat="43.974175" lon="11.3344067"><ele>226.0</ele><time>2026-05-02T09:49:58.731Z</time></trkpt><trkpt lat="43.9740267" lon="11.3343333"><ele>225.66666666666666</ele><time>2026-05-02T09:49:59.728Z</time></trkpt><trkpt lat="43.973875" lon="11.334255"><ele>225.33333333333331</ele><time>2026-05-02T09:50:00.731Z</time></trkpt><trkpt lat="43.973725" lon="11.3341717"><ele>225.0</ele><time>2026-05-02T09:50:01.728Z</time></trkpt><trkpt lat="43.9735767" lon="11.3340967"><ele>225.0</ele><time>2026-05-02T09:50:02.729Z</time></trkpt><trkpt lat="43.9734267" lon="11.3340183"><ele>225.0</ele><time>2026-05-02T09:50:03.729Z</time></trkpt><trkpt lat="43.9732767" lon="11.3339433"><ele>225.0</ele><time>2026-05-02T09:50:04.73Z</time></trkpt><trkpt lat="43.9731283" lon="11.3338717"><ele>224.66666666666669</ele><time>2026-05-02T09:50:05.728Z</time></trkpt><trkpt lat="43.9729833" lon="11.3338"><ele>224.33333333333334</ele><time>2026-05-02T09:50:06.729Z</time></trkpt><trkpt lat="43.9728383" lon="11.3337283"><ele>224.0</ele><time>2026-05-02T09:50:07.727Z</time></trkpt><trkpt lat="43.972695" lon="11.3336583"><ele>224.0</ele><time>2026-05-02T09:50:08.729Z</time></trkpt><trkpt lat="43.9725517" lon="11.333585"><ele>224.0</ele><time>2026-05-02T09:50:09.728Z</time></trkpt><trkpt lat="43.97241" lon="11.3335133"><ele>224.0</ele><time>2026-05-02T09:50:10.727Z</time></trkpt><trkpt lat="43.9722683" lon="11.333445"><ele>223.0</ele><time>2026-05-02T09:50:11.728Z</time></trkpt><trkpt lat="43.9721283" lon="11.333375"><ele>222.0</ele><time>2026-05-02T09:50:12.728Z</time></trkpt><trkpt lat="43.9719883" lon="11.3333017"><ele>221.0</ele><time>2026-05-02T09:50:13.728Z</time></trkpt><trkpt lat="43.97185" lon="11.3332317"><ele>220.0</ele><time>2026-05-02T09:50:14.73Z</time></trkpt><trkpt lat="43.9717083" lon="11.333165"><ele>220.0</ele><time>2026-05-02T09:50:15.728Z</time></trkpt><trkpt lat="43.9715667" lon="11.3331033"><ele>220.0</ele><time>2026-05-02T09:50:16.728Z</time></trkpt><trkpt lat="43.971425" lon="11.3330367"><ele>220.0</ele><time>2026-05-02T09:50:17.729Z</time></trkpt><trkpt lat="43.9712833" lon="11.3329667"><ele>220.0</ele><time>2026-05-02T09:50:18.731Z</time></trkpt><trkpt lat="43.9711433" lon="11.3328933"><ele>219.75</ele><time>2026-05-02T09:50:19.729Z</time></trkpt><trkpt lat="43.971005" lon="11.3328267"><ele>219.5</ele><time>2026-05-02T09:50:20.731Z</time></trkpt><trkpt lat="43.9708633" lon="11.3327567"><ele>219.25</ele><time>2026-05-02T09:50:21.731Z</time></trkpt><trkpt lat="43.970725" lon="11.3326833"><ele>219.0</ele><time>2026-05-02T09:50:22.729Z</time></trkpt><trkpt lat="43.9705933" lon="11.332615"><ele>218.75</ele><time>2026-05-02T09:50:23.728Z</time></trkpt><trkpt lat="43.9704733" lon="11.33255"><ele>218.5</ele><time>2026-05-02T09:50:24.728Z</time></trkpt><trkpt lat="43.9703667" lon="11.3324867"><ele>218.25</ele><time>2026-05-02T09:50:25.729Z</time></trkpt><trkpt lat="43.9702717" lon="11.3324133"><ele>218.0</ele><time>2026-05-02T09:50:26.728Z</time></trkpt><trkpt lat="43.97019" lon="11.3323283"><ele>218.0</ele><time>2026-05-02T09:50:27.731Z</time></trkpt><trkpt lat="43.9701217" lon="11.3322367"><ele>218.0</ele><time>2026-05-02T09:50:28.728Z</time></trkpt><trkpt lat="43.9700567" lon="11.33214"><ele>218.0</ele><time>2026-05-02T09:50:29.728Z</time></trkpt><trkpt lat="43.97" lon="11.3320217"><ele>218.0</ele><time>2026-05-02T09:50:30.732Z</time></trkpt><trkpt lat="43.9699617" lon="11.331885"><ele>218.0</ele><time>2026-05-02T09:50:31.728Z</time></trkpt><trkpt lat="43.9699517" lon="11.3317283"><ele>218.0</ele><time>2026-05-02T09:50:32.728Z</time></trkpt><trkpt lat="43.9699683" lon="11.3315683"><ele>218.0</ele><time>2026-05-02T09:50:33.73Z</time></trkpt><trkpt lat="43.9700067" lon="11.3313967"><ele>218.0</ele><time>2026-05-02T09:50:34.728Z</time></trkpt><trkpt lat="43.9700517" lon="11.3312167"><ele>218.0</ele><time>2026-05-02T09:50:35.728Z</time></trkpt><trkpt lat="43.9701017" lon="11.331025"><ele>218.0</ele><time>2026-05-02T09:50:36.729Z</time></trkpt><trkpt lat="43.9701517" lon="11.33083"><ele>218.0</ele><time>2026-05-02T09:50:37.73Z</time></trkpt><trkpt lat="43.9702033" lon="11.330625"><ele>218.0</ele><time>2026-05-02T09:50:38.729Z</time></trkpt><trkpt lat="43.9702533" lon="11.330415"><ele>217.0</ele><time>2026-05-02T09:50:39.73Z</time></trkpt><trkpt lat="43.9703" lon="11.3301967"><ele>216.0</ele><time>2026-05-02T09:50:40.728Z</time></trkpt><trkpt lat="43.9703433" lon="11.3299717"><ele>215.0</ele><time>2026-05-02T09:50:41.727Z</time></trkpt><trkpt lat="43.9703817" lon="11.32974"><ele>213.66666666666669</ele><time>2026-05-02T09:50:42.73Z</time></trkpt><trkpt lat="43.9704067" lon="11.3294983"><ele>212.33333333333331</ele><time>2026-05-02T09:50:43.731Z</time></trkpt><trkpt lat="43.9704233" lon="11.3292467"><ele>211.0</ele><time>2026-05-02T09:50:44.728Z</time></trkpt><trkpt lat="43.9704317" lon="11.3289933"><ele>209.66666666666666</ele><time>2026-05-02T09:50:45.727Z</time></trkpt><trkpt lat="43.970435" lon="11.328735"><ele>208.33333333333331</ele><time>2026-05-02T09:50:46.728Z</time></trkpt><trkpt lat="43.9704383" lon="11.3284717"><ele>207.0</ele><time>2026-05-02T09:50:47.729Z</time></trkpt><trkpt lat="43.9704417" lon="11.3282167"><ele>207.0</ele><time>2026-05-02T09:50:48.727Z</time></trkpt><trkpt lat="43.970445" lon="11.32796"><ele>207.0</ele><time>2026-05-02T09:50:49.729Z</time></trkpt><trkpt lat="43.970445" lon="11.3277067"><ele>207.0</ele><time>2026-05-02T09:50:50.729Z</time></trkpt><trkpt lat="43.9704483" lon="11.3274567"><ele>207.0</ele><time>2026-05-02T09:50:51.729Z</time></trkpt><trkpt lat="43.9704517" lon="11.3272033"><ele>207.0</ele><time>2026-05-02T09:50:52.728Z</time></trkpt><trkpt lat="43.970455" lon="11.3269467"><ele>207.0</ele><time>2026-05-02T09:50:53.73Z</time></trkpt><trkpt lat="43.9704567" lon="11.326685"><ele>207.0</ele><time>2026-05-02T09:50:54.729Z</time></trkpt><trkpt lat="43.9704583" lon="11.3264217"><ele>207.0</ele><time>2026-05-02T09:50:55.727Z</time></trkpt><trkpt lat="43.9704617" lon="11.3261617"><ele>207.0</ele><time>2026-05-02T09:50:56.731Z</time></trkpt><trkpt lat="43.9704633" lon="11.3259033"><ele>205.66666666666669</ele><time>2026-05-02T09:50:57.727Z</time></trkpt><trkpt lat="43.9704667" lon="11.3256467"><ele>204.33333333333334</ele><time>2026-05-02T09:50:58.728Z</time></trkpt><trkpt lat="43.9704717" lon="11.3253933"><ele>203.0</ele><time>2026-05-02T09:50:59.727Z</time></trkpt><trkpt lat="43.9704733" lon="11.32514"><ele>203.0</ele><time>2026-05-02T09:51:00.728Z</time></trkpt><trkpt lat="43.9704717" lon="11.32489"><ele>203.0</ele><time>2026-05-02T09:51:01.727Z</time></trkpt><trkpt lat="43.9704717" lon="11.32464"><ele>203.0</ele><time>2026-05-02T09:51:02.727Z</time></trkpt><trkpt lat="43.9704683" lon="11.3243967"><ele>203.0</ele><time>2026-05-02T09:51:03.728Z</time></trkpt><trkpt lat="43.97047" lon="11.3241533"><ele>203.0</ele><time>2026-05-02T09:51:04.729Z</time></trkpt><trkpt lat="43.97047" lon="11.323915"><ele>203.0</ele><time>2026-05-02T09:51:05.728Z</time></trkpt><trkpt lat="43.97047" lon="11.3236667"><ele>203.33333333333334</ele><time>2026-05-02T09:51:06.728Z</time></trkpt><trkpt lat="43.97047" lon="11.3234133"><ele>203.66666666666669</ele><time>2026-05-02T09:51:07.731Z</time></trkpt><trkpt lat="43.9704583" lon="11.32316"><ele>204.0</ele><time>2026-05-02T09:51:08.729Z</time></trkpt><trkpt lat="43.9704367" lon="11.322905"><ele>204.0</ele><time>2026-05-02T09:51:09.73Z</time></trkpt><trkpt lat="43.9704083" lon="11.32265"><ele>204.0</ele><time>2026-05-02T09:51:10.728Z</time></trkpt><trkpt lat="43.9703733" lon="11.3224017"><ele>204.0</ele><time>2026-05-02T09:51:11.731Z</time></trkpt><trkpt lat="43.9703217" lon="11.32216"><ele>204.0</ele><time>2026-05-02T09:51:12.728Z</time></trkpt><trkpt lat="43.970265" lon="11.3219233"><ele>204.0</ele><time>2026-05-02T09:51:13.728Z</time></trkpt><trkpt lat="43.9701983" lon="11.32169"><ele>204.0</ele><time>2026-05-02T09:51:14.731Z</time></trkpt><trkpt lat="43.9701283" lon="11.321465"><ele>204.33333333333331</ele><time>2026-05-02T09:51:15.728Z</time></trkpt><trkpt lat="43.9700517" lon="11.3212517"><ele>204.66666666666666</ele><time>2026-05-02T09:51:16.727Z</time></trkpt><trkpt lat="43.969975" lon="11.321045"><ele>205.0</ele><time>2026-05-02T09:51:17.729Z</time></trkpt><trkpt lat="43.9699017" lon="11.3208333"><ele>205.33333333333331</ele><time>2026-05-02T09:51:18.727Z</time></trkpt><trkpt lat="43.9698283" lon="11.3206233"><ele>205.66666666666669</ele><time>2026-05-02T09:51:19.73Z</time></trkpt><trkpt lat="43.9697533" lon="11.3204217"><ele>206.0</ele><time>2026-05-02T09:51:20.729Z</time></trkpt><trkpt lat="43.9696817" lon="11.320225"><ele>206.0</ele><time>2026-05-02T09:51:21.731Z</time></trkpt><trkpt lat="43.969615" lon="11.32004"><ele>206.0</ele><time>2026-05-02T09:51:22.728Z</time></trkpt><trkpt lat="43.9695517" lon="11.3198633"><ele>206.0</ele><time>2026-05-02T09:51:23.727Z</time></trkpt><trkpt lat="43.96949" lon="11.31969"><ele>206.0</ele><time>2026-05-02T09:51:24.729Z</time></trkpt><trkpt lat="43.9694333" lon="11.3195317"><ele>206.0</ele><time>2026-05-02T09:51:25.731Z</time></trkpt><trkpt lat="43.96938" lon="11.3193733"><ele>206.0</ele><time>2026-05-02T09:51:26.728Z</time></trkpt><trkpt lat="43.96933" lon="11.3192317"><ele>206.0</ele><time>2026-05-02T09:51:27.73Z</time></trkpt><trkpt lat="43.96928" lon="11.31909"><ele>206.0</ele><time>2026-05-02T09:51:28.727Z</time></trkpt><trkpt lat="43.9692283" lon="11.318935"><ele>206.33333333333334</ele><time>2026-05-02T09:51:29.728Z</time></trkpt><trkpt lat="43.9691667" lon="11.31876"><ele>206.66666666666669</ele><time>2026-05-02T09:51:30.728Z</time></trkpt><trkpt lat="43.9690983" lon="11.3185733"><ele>207.0</ele><time>2026-05-02T09:51:31.73Z</time></trkpt><trkpt lat="43.9690233" lon="11.31837"><ele>207.0</ele><time>2026-05-02T09:51:32.73Z</time></trkpt><trkpt lat="43.9689467" lon="11.3181667"><ele>207.0</ele><time>2026-05-02T09:51:33.73Z</time></trkpt><trkpt lat="43.9688717" lon="11.3179617"><ele>207.0</ele><time>2026-05-02T09:51:34.729Z</time></trkpt><trkpt lat="43.968795" lon="11.3177533"><ele>207.0</ele><time>2026-05-02T09:51:35.73Z</time></trkpt><trkpt lat="43.9687167" lon="11.3175483"><ele>207.0</ele><time>2026-05-02T09:51:36.728Z</time></trkpt><trkpt lat="43.9686367" lon="11.3173467"><ele>207.0</ele><time>2026-05-02T09:51:37.727Z</time></trkpt><trkpt lat="43.9685617" lon="11.3171533"><ele>207.0</ele><time>2026-05-02T09:51:38.726Z</time></trkpt><trkpt lat="43.9684867" lon="11.3169617"><ele>207.0</ele><time>2026-05-02T09:51:39.726Z</time></trkpt><trkpt lat="43.9684133" lon="11.31678"><ele>207.0</ele><time>2026-05-02T09:51:40.728Z</time></trkpt><trkpt lat="43.9683417" lon="11.316595"><ele>207.0</ele><time>2026-05-02T09:51:41.728Z</time></trkpt><trkpt lat="43.9682733" lon="11.3164033"><ele>207.0</ele><time>2026-05-02T09:51:42.729Z</time></trkpt><trkpt lat="43.9682033" lon="11.3161983"><ele>207.0</ele><time>2026-05-02T09:51:43.727Z</time></trkpt><trkpt lat="43.968125" lon="11.3159783"><ele>208.0</ele><time>2026-05-02T09:51:44.729Z</time></trkpt><trkpt lat="43.9680433" lon="11.3157617"><ele>209.0</ele><time>2026-05-02T09:51:45.728Z</time></trkpt><trkpt lat="43.96796" lon="11.315535"><ele>210.0</ele><time>2026-05-02T09:51:46.727Z</time></trkpt><trkpt lat="43.9678767" lon="11.3153033"><ele>210.66666666666669</ele><time>2026-05-02T09:51:47.727Z</time></trkpt><trkpt lat="43.9677867" lon="11.3150683"><ele>211.33333333333334</ele><time>2026-05-02T09:51:48.727Z</time></trkpt><trkpt lat="43.9676983" lon="11.314835"><ele>212.0</ele><time>2026-05-02T09:51:49.729Z</time></trkpt><trkpt lat="43.9676117" lon="11.3146017"><ele>212.0</ele><time>2026-05-02T09:51:50.728Z</time></trkpt><trkpt lat="43.967525" lon="11.3143617"><ele>212.0</ele><time>2026-05-02T09:51:51.729Z</time></trkpt><trkpt lat="43.9674383" lon="11.3141217"><ele>212.0</ele><time>2026-05-02T09:51:52.728Z</time></trkpt><trkpt lat="43.9673483" lon="11.3138783"><ele>212.66666666666669</ele><time>2026-05-02T09:51:53.729Z</time></trkpt><trkpt lat="43.96726" lon="11.3136367"><ele>213.33333333333331</ele><time>2026-05-02T09:51:54.728Z</time></trkpt><trkpt lat="43.9671733" lon="11.3134"><ele>214.0</ele><time>2026-05-02T09:51:55.729Z</time></trkpt><trkpt lat="43.9670867" lon="11.3131583"><ele>213.33333333333331</ele><time>2026-05-02T09:51:56.728Z</time></trkpt><trkpt lat="43.9670017" lon="11.31292"><ele>212.66666666666669</ele><time>2026-05-02T09:51:57.727Z</time></trkpt><trkpt lat="43.966915" lon="11.3126883"><ele>212.0</ele><time>2026-05-02T09:51:58.726Z</time></trkpt><trkpt lat="43.9668283" lon="11.3124567"><ele>212.0</ele><time>2026-05-02T09:51:59.727Z</time></trkpt><trkpt lat="43.9667333" lon="11.3122367"><ele>212.0</ele><time>2026-05-02T09:52:00.726Z</time></trkpt><trkpt lat="43.9666267" lon="11.3120233"><ele>212.0</ele><time>2026-05-02T09:52:01.726Z</time></trkpt><trkpt lat="43.9665083" lon="11.3118217"><ele>212.0</ele><time>2026-05-02T09:52:02.727Z</time></trkpt><trkpt lat="43.9663733" lon="11.311635"><ele>212.0</ele><time>2026-05-02T09:52:03.728Z</time></trkpt><trkpt lat="43.966225" lon="11.3114633"><ele>212.0</ele><time>2026-05-02T09:52:04.727Z</time></trkpt><trkpt lat="43.96606" lon="11.3113167"><ele>212.0</ele><time>2026-05-02T09:52:05.727Z</time></trkpt><trkpt lat="43.9658867" lon="11.311195"><ele>212.0</ele><time>2026-05-02T09:52:06.727Z</time></trkpt><trkpt lat="43.9657033" lon="11.3110883"><ele>212.0</ele><time>2026-05-02T09:52:07.729Z</time></trkpt><trkpt lat="43.96552" lon="11.311"><ele>212.0</ele><time>2026-05-02T09:52:08.729Z</time></trkpt><trkpt lat="43.9653267" lon="11.3109283"><ele>212.0</ele><time>2026-05-02T09:52:09.728Z</time></trkpt><trkpt lat="43.9651333" lon="11.3108683"><ele>212.0</ele><time>2026-05-02T09:52:10.728Z</time></trkpt><trkpt lat="43.9649367" lon="11.310805"><ele>211.33333333333334</ele><time>2026-05-02T09:52:11.728Z</time></trkpt><trkpt lat="43.9647367" lon="11.3107367"><ele>210.66666666666669</ele><time>2026-05-02T09:52:12.727Z</time></trkpt><trkpt lat="43.9645367" lon="11.3106683"><ele>210.0</ele><time>2026-05-02T09:52:13.729Z</time></trkpt><trkpt lat="43.96434" lon="11.3105967"><ele>210.66666666666669</ele><time>2026-05-02T09:52:14.729Z</time></trkpt><trkpt lat="43.9641433" lon="11.3105083"><ele>211.33333333333334</ele><time>2026-05-02T09:52:15.729Z</time></trkpt><trkpt lat="43.9639533" lon="11.310405"><ele>212.0</ele><time>2026-05-02T09:52:16.731Z</time></trkpt><trkpt lat="43.963775" lon="11.3102667"><ele>212.0</ele><time>2026-05-02T09:52:17.728Z</time></trkpt><trkpt lat="43.9636083" lon="11.3100983"><ele>212.0</ele><time>2026-05-02T09:52:18.727Z</time></trkpt><trkpt lat="43.9634533" lon="11.3099083"><ele>212.0</ele><time>2026-05-02T09:52:19.729Z</time></trkpt><trkpt lat="43.9633117" lon="11.3097017"><ele>213.66666666666669</ele><time>2026-05-02T09:52:20.73Z</time></trkpt><trkpt lat="43.963185" lon="11.3094767"><ele>215.33333333333331</ele><time>2026-05-02T09:52:21.727Z</time></trkpt><trkpt lat="43.9630733" lon="11.309235"><ele>217.0</ele><time>2026-05-02T09:52:22.726Z</time></trkpt><trkpt lat="43.9629767" lon="11.30898"><ele>215.0</ele><time>2026-05-02T09:52:23.729Z</time></trkpt><trkpt lat="43.9628933" lon="11.3087233"><ele>213.0</ele><time>2026-05-02T09:52:24.728Z</time></trkpt><trkpt lat="43.9628083" lon="11.3084733"><ele>211.0</ele><time>2026-05-02T09:52:25.727Z</time></trkpt><trkpt lat="43.9627333" lon="11.3082283"><ele>210.33333333333331</ele><time>2026-05-02T09:52:26.728Z</time></trkpt><trkpt lat="43.9626583" lon="11.307985"><ele>209.66666666666669</ele><time>2026-05-02T09:52:27.727Z</time></trkpt><trkpt lat="43.96258" lon="11.3077433"><ele>209.0</ele><time>2026-05-02T09:52:28.728Z</time></trkpt><trkpt lat="43.962505" lon="11.307505"><ele>209.66666666666669</ele><time>2026-05-02T09:52:29.728Z</time></trkpt><trkpt lat="43.96243" lon="11.30728"><ele>210.33333333333331</ele><time>2026-05-02T09:52:30.727Z</time></trkpt><trkpt lat="43.9623583" lon="11.3070567"><ele>211.0</ele><time>2026-05-02T09:52:31.728Z</time></trkpt><trkpt lat="43.96229" lon="11.306855"><ele>211.0</ele><time>2026-05-02T09:52:32.727Z</time></trkpt><trkpt lat="43.9622267" lon="11.3066567"><ele>211.0</ele><time>2026-05-02T09:52:33.728Z</time></trkpt><trkpt lat="43.962165" lon="11.3064733"><ele>211.0</ele><time>2026-05-02T09:52:34.726Z</time></trkpt><trkpt lat="43.9621083" lon="11.3062933"><ele>211.0</ele><time>2026-05-02T09:52:35.727Z</time></trkpt><trkpt lat="43.9620533" lon="11.30613"><ele>211.0</ele><time>2026-05-02T09:52:36.725Z</time></trkpt><trkpt lat="43.9620033" lon="11.3059767"><ele>211.0</ele><time>2026-05-02T09:52:37.726Z</time></trkpt><trkpt lat="43.9619583" lon="11.3058333"><ele>211.0</ele><time>2026-05-02T09:52:38.728Z</time></trkpt><trkpt lat="43.961915" lon="11.305695"><ele>211.0</ele><time>2026-05-02T09:52:39.727Z</time></trkpt><trkpt lat="43.9618733" lon="11.3055567"><ele>211.0</ele><time>2026-05-02T09:52:40.727Z</time></trkpt><trkpt lat="43.96183" lon="11.3054167"><ele>211.0</ele><time>2026-05-02T09:52:41.728Z</time></trkpt><trkpt lat="43.961785" lon="11.305275"><ele>211.0</ele><time>2026-05-02T09:52:42.728Z</time></trkpt><trkpt lat="43.96174" lon="11.305135"><ele>211.0</ele><time>2026-05-02T09:52:43.729Z</time></trkpt><trkpt lat="43.9616933" lon="11.305"><ele>211.0</ele><time>2026-05-02T09:52:44.728Z</time></trkpt><trkpt lat="43.9616483" lon="11.3048567"><ele>211.20000000000002</ele><time>2026-05-02T09:52:45.726Z</time></trkpt><trkpt lat="43.9616017" lon="11.3047183"><ele>211.4</ele><time>2026-05-02T09:52:46.729Z</time></trkpt><trkpt lat="43.9615583" lon="11.30458"><ele>211.6</ele><time>2026-05-02T09:52:47.73Z</time></trkpt><trkpt lat="43.9615167" lon="11.30444"><ele>211.8</ele><time>2026-05-02T09:52:48.729Z</time></trkpt><trkpt lat="43.9614783" lon="11.3043017"><ele>212.0</ele><time>2026-05-02T09:52:49.728Z</time></trkpt><trkpt lat="43.961445" lon="11.3041633"><ele>212.0</ele><time>2026-05-02T09:52:50.728Z</time></trkpt><trkpt lat="43.9614183" lon="11.3040333"><ele>212.0</ele><time>2026-05-02T09:52:51.729Z</time></trkpt><trkpt lat="43.961395" lon="11.3039167"><ele>212.0</ele><time>2026-05-02T09:52:52.728Z</time></trkpt><trkpt lat="43.961375" lon="11.30382"><ele>212.0</ele><time>2026-05-02T09:52:53.729Z</time></trkpt><trkpt lat="43.9613217" lon="11.3037067"><ele>212.0</ele><time>2026-05-02T09:52:55.729Z</time></trkpt><trkpt lat="43.96118" lon="11.3037533"><ele>212.0</ele><time>2026-05-02T09:52:59.728Z</time></trkpt><trkpt lat="43.9611133" lon="11.30383"><ele>212.0</ele><time>2026-05-02T09:53:00.728Z</time></trkpt><trkpt lat="43.961045" lon="11.3039367"><ele>212.0</ele><time>2026-05-02T09:53:01.727Z</time></trkpt><trkpt lat="43.9609533" lon="11.30409"><ele>212.0</ele><time>2026-05-02T09:53:02.728Z</time></trkpt><trkpt lat="43.9608617" lon="11.304255"><ele>212.33333333333334</ele><time>2026-05-02T09:53:03.729Z</time></trkpt><trkpt lat="43.9607683" lon="11.3044283"><ele>212.66666666666669</ele><time>2026-05-02T09:53:04.727Z</time></trkpt><trkpt lat="43.960665" lon="11.3046067"><ele>213.0</ele><time>2026-05-02T09:53:05.726Z</time></trkpt><trkpt lat="43.96055" lon="11.3047833"><ele>215.0</ele><time>2026-05-02T09:53:06.726Z</time></trkpt><trkpt lat="43.960425" lon="11.3049483"><ele>217.0</ele><time>2026-05-02T09:53:07.728Z</time></trkpt><trkpt lat="43.9602833" lon="11.3050917"><ele>219.0</ele><time>2026-05-02T09:53:08.726Z</time></trkpt><trkpt lat="43.96013" lon="11.3052233"><ele>219.33333333333331</ele><time>2026-05-02T09:53:09.726Z</time></trkpt><trkpt lat="43.9599667" lon="11.305345"><ele>219.66666666666666</ele><time>2026-05-02T09:53:10.726Z</time></trkpt><trkpt lat="43.959795" lon="11.3054567"><ele>220.0</ele><time>2026-05-02T09:53:11.727Z</time></trkpt><trkpt lat="43.9596233" lon="11.3055533"><ele>222.0</ele><time>2026-05-02T09:53:12.728Z</time></trkpt><trkpt lat="43.9594533" lon="11.3056433"><ele>224.0</ele><time>2026-05-02T09:53:13.727Z</time></trkpt><trkpt lat="43.9592833" lon="11.3057283"><ele>226.0</ele><time>2026-05-02T09:53:14.729Z</time></trkpt><trkpt lat="43.9591117" lon="11.3058083"><ele>226.0</ele><time>2026-05-02T09:53:15.727Z</time></trkpt><trkpt lat="43.9589383" lon="11.305885"><ele>226.0</ele><time>2026-05-02T09:53:16.726Z</time></trkpt><trkpt lat="43.9587617" lon="11.3059467"><ele>226.0</ele><time>2026-05-02T09:53:17.728Z</time></trkpt><trkpt lat="43.95858" lon="11.3059883"><ele>226.0</ele><time>2026-05-02T09:53:18.728Z</time></trkpt><trkpt lat="43.9583983" lon="11.3060133"><ele>226.0</ele><time>2026-05-02T09:53:19.727Z</time></trkpt><trkpt lat="43.9582167" lon="11.3060433"><ele>226.0</ele><time>2026-05-02T09:53:20.728Z</time></trkpt><trkpt lat="43.9580217" lon="11.306075"><ele>229.0</ele><time>2026-05-02T09:53:21.729Z</time></trkpt><trkpt lat="43.9577967" lon="11.3061033"><ele>232.0</ele><time>2026-05-02T09:53:22.727Z</time></trkpt><trkpt lat="43.95755" lon="11.3061317"><ele>232.5</ele><time>2026-05-02T09:53:23.727Z</time></trkpt><trkpt lat="43.9572983" lon="11.3061633"><ele>233.0</ele><time>2026-05-02T09:53:24.727Z</time></trkpt><trkpt lat="43.9570467" lon="11.30619"><ele>233.0</ele><time>2026-05-02T09:53:25.727Z</time></trkpt><trkpt lat="43.9568033" lon="11.3062117"><ele>233.0</ele><time>2026-05-02T09:53:26.727Z</time></trkpt><trkpt lat="43.956595" lon="11.3062217"><ele>234.66666666666669</ele><time>2026-05-02T09:53:27.727Z</time></trkpt><trkpt lat="43.9563967" lon="11.3062117"><ele>236.33333333333331</ele><time>2026-05-02T09:53:28.726Z</time></trkpt><trkpt lat="43.9562217" lon="11.3061633"><ele>238.0</ele><time>2026-05-02T09:53:29.729Z</time></trkpt><trkpt lat="43.9560483" lon="11.3060783"><ele>238.0</ele><time>2026-05-02T09:53:30.729Z</time></trkpt><trkpt lat="43.9558867" lon="11.3059767"><ele>238.0</ele><time>2026-05-02T09:53:31.728Z</time></trkpt><trkpt lat="43.9557467" lon="11.305875"><ele>238.0</ele><time>2026-05-02T09:53:32.727Z</time></trkpt><trkpt lat="43.9556017" lon="11.3058033"><ele>242.0</ele><time>2026-05-02T09:53:33.728Z</time></trkpt><trkpt lat="43.95545" lon="11.305775"><ele>246.0</ele><time>2026-05-02T09:53:34.727Z</time></trkpt><trkpt lat="43.9552883" lon="11.30581"><ele>250.0</ele><time>2026-05-02T09:53:35.728Z</time></trkpt><trkpt lat="43.9551283" lon="11.3058917"><ele>252.0</ele><time>2026-05-02T09:53:36.729Z</time></trkpt><trkpt lat="43.954955" lon="11.3059833"><ele>254.0</ele><time>2026-05-02T09:53:37.733Z</time></trkpt><trkpt lat="43.954775" lon="11.3060767"><ele>256.0</ele><time>2026-05-02T09:53:38.727Z</time></trkpt><trkpt lat="43.9545883" lon="11.30617"><ele>256.0</ele><time>2026-05-02T09:53:39.727Z</time></trkpt><trkpt lat="43.9544067" lon="11.30626"><ele>256.0</ele><time>2026-05-02T09:53:40.727Z</time></trkpt><trkpt lat="43.9542217" lon="11.3063283"><ele>256.0</ele><time>2026-05-02T09:53:41.726Z</time></trkpt><trkpt lat="43.9540383" lon="11.3063683"><ele>255.66666666666666</ele><time>2026-05-02T09:53:42.727Z</time></trkpt><trkpt lat="43.95385" lon="11.3063933"><ele>255.33333333333331</ele><time>2026-05-02T09:53:43.728Z</time></trkpt><trkpt lat="43.953645" lon="11.3064067"><ele>255.0</ele><time>2026-05-02T09:53:44.728Z</time></trkpt><trkpt lat="43.95347" lon="11.306435"><ele>254.33333333333331</ele><time>2026-05-02T09:53:45.727Z</time></trkpt><trkpt lat="43.95329" lon="11.3065033"><ele>253.66666666666666</ele><time>2026-05-02T09:53:46.729Z</time></trkpt><trkpt lat="43.9531133" lon="11.3066133"><ele>253.0</ele><time>2026-05-02T09:53:47.727Z</time></trkpt><trkpt lat="43.9529467" lon="11.306755"><ele>253.0</ele><time>2026-05-02T09:53:48.728Z</time></trkpt><trkpt lat="43.95278" lon="11.3069083"><ele>253.0</ele><time>2026-05-02T09:53:49.727Z</time></trkpt><trkpt lat="43.9526133" lon="11.3070483"><ele>253.0</ele><time>2026-05-02T09:53:50.729Z</time></trkpt><trkpt lat="43.9524583" lon="11.30718"><ele>249.0</ele><time>2026-05-02T09:53:51.728Z</time></trkpt><trkpt lat="43.9523217" lon="11.3073217"><ele>245.0</ele><time>2026-05-02T09:53:52.727Z</time></trkpt><trkpt lat="43.9522117" lon="11.307485"><ele>241.0</ele><time>2026-05-02T09:53:53.727Z</time></trkpt><trkpt lat="43.9521317" lon="11.307665"><ele>241.0</ele><time>2026-05-02T09:53:54.726Z</time></trkpt><trkpt lat="43.9520833" lon="11.307865"><ele>241.0</ele><time>2026-05-02T09:53:55.727Z</time></trkpt><trkpt lat="43.95207" lon="11.3080783"><ele>241.0</ele><time>2026-05-02T09:53:56.727Z</time></trkpt><trkpt lat="43.9520783" lon="11.3083067"><ele>241.0</ele><time>2026-05-02T09:53:57.729Z</time></trkpt><trkpt lat="43.9521117" lon="11.30855"><ele>241.0</ele><time>2026-05-02T09:53:58.728Z</time></trkpt><trkpt lat="43.9521467" lon="11.3087967"><ele>241.0</ele><time>2026-05-02T09:53:59.728Z</time></trkpt><trkpt lat="43.9521883" lon="11.30905"><ele>239.66666666666666</ele><time>2026-05-02T09:54:00.728Z</time></trkpt><trkpt lat="43.9522367" lon="11.3092967"><ele>238.33333333333331</ele><time>2026-05-02T09:54:01.726Z</time></trkpt><trkpt lat="43.9522783" lon="11.309525"><ele>237.0</ele><time>2026-05-02T09:54:02.728Z</time></trkpt><trkpt lat="43.9523117" lon="11.309745"><ele>235.0</ele><time>2026-05-02T09:54:03.727Z</time></trkpt><trkpt lat="43.9523467" lon="11.3099517"><ele>233.0</ele><time>2026-05-02T09:54:04.728Z</time></trkpt><trkpt lat="43.9523783" lon="11.310145"><ele>231.0</ele><time>2026-05-02T09:54:05.728Z</time></trkpt><trkpt lat="43.95241" lon="11.310325"><ele>229.0</ele><time>2026-05-02T09:54:06.727Z</time></trkpt><trkpt lat="43.952435" lon="11.3104933"><ele>229.0</ele><time>2026-05-02T09:54:07.727Z</time></trkpt><trkpt lat="43.952455" lon="11.3106433"><ele>228.99999999999997</ele><time>2026-05-02T09:54:08.729Z</time></trkpt><trkpt lat="43.952455" lon="11.310775"><ele>228.99999999999997</ele><time>2026-05-02T09:54:09.727Z</time></trkpt><trkpt lat="43.9524333" lon="11.3108967"><ele>229.0</ele><time>2026-05-02T09:54:10.726Z</time></trkpt><trkpt lat="43.95239" lon="11.3110167"><ele>229.0</ele><time>2026-05-02T09:54:11.73Z</time></trkpt><trkpt lat="43.9523333" lon="11.3111367"><ele>229.0</ele><time>2026-05-02T09:54:12.727Z</time></trkpt><trkpt lat="43.9522633" lon="11.31124"><ele>228.99999999999997</ele><time>2026-05-02T09:54:13.727Z</time></trkpt><trkpt lat="43.95217" lon="11.31132"><ele>228.99999999999997</ele><time>2026-05-02T09:54:14.728Z</time></trkpt><trkpt lat="43.9520683" lon="11.3113683"><ele>229.0</ele><time>2026-05-02T09:54:15.727Z</time></trkpt><trkpt lat="43.9519583" lon="11.3113883"><ele>229.0</ele><time>2026-05-02T09:54:16.728Z</time></trkpt><trkpt lat="43.951845" lon="11.3113983"><ele>229.0</ele><time>2026-05-02T09:54:17.727Z</time></trkpt><trkpt lat="43.9517217" lon="11.3114067"><ele>229.0</ele><time>2026-05-02T09:54:18.727Z</time></trkpt><trkpt lat="43.951595" lon="11.3114183"><ele>229.0</ele><time>2026-05-02T09:54:19.729Z</time></trkpt><trkpt lat="43.9514617" lon="11.3114317"><ele>229.0</ele><time>2026-05-02T09:54:20.727Z</time></trkpt><trkpt lat="43.9513267" lon="11.31145"><ele>227.5</ele><time>2026-05-02T09:54:21.726Z</time></trkpt><trkpt lat="43.9511867" lon="11.311465"><ele>226.0</ele><time>2026-05-02T09:54:22.727Z</time></trkpt><trkpt lat="43.9510433" lon="11.3114767"><ele>224.5</ele><time>2026-05-02T09:54:23.727Z</time></trkpt><trkpt lat="43.9509067" lon="11.3114883"><ele>223.0</ele><time>2026-05-02T09:54:24.729Z</time></trkpt><trkpt lat="43.950775" lon="11.3115"><ele>222.75</ele><time>2026-05-02T09:54:25.728Z</time></trkpt><trkpt lat="43.95064" lon="11.31151"><ele>222.5</ele><time>2026-05-02T09:54:26.727Z</time></trkpt><trkpt lat="43.9505017" lon="11.31152"><ele>222.25</ele><time>2026-05-02T09:54:27.728Z</time></trkpt><trkpt lat="43.95036" lon="11.3115317"><ele>222.0</ele><time>2026-05-02T09:54:28.726Z</time></trkpt><trkpt lat="43.9502167" lon="11.31154"><ele>222.0</ele><time>2026-05-02T09:54:29.728Z</time></trkpt><trkpt lat="43.950075" lon="11.3115533"><ele>222.0</ele><time>2026-05-02T09:54:30.729Z</time></trkpt><trkpt lat="43.9499233" lon="11.3115633"><ele>222.0</ele><time>2026-05-02T09:54:31.73Z</time></trkpt><trkpt lat="43.94977" lon="11.3115733"><ele>222.0</ele><time>2026-05-02T09:54:32.73Z</time></trkpt><trkpt lat="43.9496167" lon="11.3115733"><ele>222.25</ele><time>2026-05-02T09:54:33.728Z</time></trkpt><trkpt lat="43.9494667" lon="11.311565"><ele>222.5</ele><time>2026-05-02T09:54:34.728Z</time></trkpt><trkpt lat="43.9493183" lon="11.311545"><ele>222.75</ele><time>2026-05-02T09:54:35.729Z</time></trkpt><trkpt lat="43.9491783" lon="11.3115067"><ele>223.0</ele><time>2026-05-02T09:54:36.729Z</time></trkpt><trkpt lat="43.9490433" lon="11.3114517"><ele>224.66666666666666</ele><time>2026-05-02T09:54:37.727Z</time></trkpt><trkpt lat="43.9489017" lon="11.311395"><ele>226.33333333333331</ele><time>2026-05-02T09:54:38.729Z</time></trkpt><trkpt lat="43.9487583" lon="11.3113333"><ele>228.0</ele><time>2026-05-02T09:54:39.727Z</time></trkpt><trkpt lat="43.94861" lon="11.3112783"><ele>228.0</ele><time>2026-05-02T09:54:40.729Z</time></trkpt><trkpt lat="43.94846" lon="11.3112183"><ele>228.0</ele><time>2026-05-02T09:54:41.727Z</time></trkpt><trkpt lat="43.9483133" lon="11.3111583"><ele>228.0</ele><time>2026-05-02T09:54:42.728Z</time></trkpt><trkpt lat="43.948165" lon="11.3110983"><ele>226.33333333333331</ele><time>2026-05-02T09:54:43.727Z</time></trkpt><trkpt lat="43.9480117" lon="11.3110267"><ele>224.66666666666666</ele><time>2026-05-02T09:54:44.728Z</time></trkpt><trkpt lat="43.9478583" lon="11.31095"><ele>223.0</ele><time>2026-05-02T09:54:45.727Z</time></trkpt><trkpt lat="43.9477017" lon="11.3108633"><ele>223.33333333333331</ele><time>2026-05-02T09:54:46.728Z</time></trkpt><trkpt lat="43.94754" lon="11.3107667"><ele>223.66666666666669</ele><time>2026-05-02T09:54:47.733Z</time></trkpt><trkpt lat="43.9473767" lon="11.3106667"><ele>224.0</ele><time>2026-05-02T09:54:48.728Z</time></trkpt><trkpt lat="43.9472217" lon="11.31057"><ele>225.0</ele><time>2026-05-02T09:54:49.727Z</time></trkpt><trkpt lat="43.947075" lon="11.3104883"><ele>226.0</ele><time>2026-05-02T09:54:50.728Z</time></trkpt><trkpt lat="43.94693" lon="11.31042"><ele>227.0</ele><time>2026-05-02T09:54:51.726Z</time></trkpt><trkpt lat="43.9467833" lon="11.3103533"><ele>226.33333333333334</ele><time>2026-05-02T09:54:52.728Z</time></trkpt><trkpt lat="43.946635" lon="11.3102883"><ele>225.66666666666669</ele><time>2026-05-02T09:54:53.727Z</time></trkpt><trkpt lat="43.946485" lon="11.3102217"><ele>225.0</ele><time>2026-05-02T09:54:54.727Z</time></trkpt><trkpt lat="43.9463333" lon="11.3101533"><ele>225.0</ele><time>2026-05-02T09:54:55.728Z</time></trkpt><trkpt lat="43.94618" lon="11.3100917"><ele>225.0</ele><time>2026-05-02T09:54:56.728Z</time></trkpt><trkpt lat="43.9460217" lon="11.3100417"><ele>225.0</ele><time>2026-05-02T09:54:57.727Z</time></trkpt><trkpt lat="43.94586" lon="11.309995"><ele>226.33333333333331</ele><time>2026-05-02T09:54:58.727Z</time></trkpt><trkpt lat="43.9456967" lon="11.309945"><ele>227.66666666666666</ele><time>2026-05-02T09:54:59.727Z</time></trkpt><trkpt lat="43.9455417" lon="11.3098917"><ele>229.0</ele><time>2026-05-02T09:55:00.728Z</time></trkpt><trkpt lat="43.9453833" lon="11.3098333"><ele>229.0</ele><time>2026-05-02T09:55:01.728Z</time></trkpt><trkpt lat="43.9452167" lon="11.3097533"><ele>229.0</ele><time>2026-05-02T09:55:02.728Z</time></trkpt><trkpt lat="43.9450467" lon="11.3096683"><ele>229.0</ele><time>2026-05-02T09:55:03.728Z</time></trkpt><trkpt lat="43.9448667" lon="11.3095767"><ele>233.33333333333331</ele><time>2026-05-02T09:55:04.729Z</time></trkpt><trkpt lat="43.9446833" lon="11.3094783"><ele>237.66666666666669</ele><time>2026-05-02T09:55:05.728Z</time></trkpt><trkpt lat="43.9444983" lon="11.3093767"><ele>242.0</ele><time>2026-05-02T09:55:06.726Z</time></trkpt><trkpt lat="43.94432" lon="11.3092783"><ele>238.0</ele><time>2026-05-02T09:55:07.728Z</time></trkpt><trkpt lat="43.9441467" lon="11.3091767"><ele>234.0</ele><time>2026-05-02T09:55:08.728Z</time></trkpt><trkpt lat="43.9439783" lon="11.3090767"><ele>230.0</ele><time>2026-05-02T09:55:09.727Z</time></trkpt><trkpt lat="43.9438167" lon="11.308985"><ele>231.66666666666669</ele><time>2026-05-02T09:55:10.729Z</time></trkpt><trkpt lat="43.9436617" lon="11.3089033"><ele>233.33333333333331</ele><time>2026-05-02T09:55:11.728Z</time></trkpt><trkpt lat="43.9435083" lon="11.3088217"><ele>235.0</ele><time>2026-05-02T09:55:12.728Z</time></trkpt><trkpt lat="43.9433567" lon="11.3087433"><ele>235.0</ele><time>2026-05-02T09:55:13.727Z</time></trkpt><trkpt lat="43.9431967" lon="11.3086867"><ele>235.0</ele><time>2026-05-02T09:55:14.727Z</time></trkpt><trkpt lat="43.9430283" lon="11.3086417"><ele>235.0</ele><time>2026-05-02T09:55:15.728Z</time></trkpt><trkpt lat="43.9428533" lon="11.3086117"><ele>235.0</ele><time>2026-05-02T09:55:16.727Z</time></trkpt><trkpt lat="43.9426733" lon="11.3085733"><ele>235.0</ele><time>2026-05-02T09:55:17.726Z</time></trkpt><trkpt lat="43.9425017" lon="11.30851"><ele>235.0</ele><time>2026-05-02T09:55:18.727Z</time></trkpt><trkpt lat="43.9423417" lon="11.30841"><ele>235.0</ele><time>2026-05-02T09:55:19.727Z</time></trkpt><trkpt lat="43.9421967" lon="11.30828"><ele>235.0</ele><time>2026-05-02T09:55:20.727Z</time></trkpt><trkpt lat="43.94206" lon="11.3081283"><ele>235.0</ele><time>2026-05-02T09:55:21.729Z</time></trkpt><trkpt lat="43.9419433" lon="11.3079567"><ele>237.66666666666666</ele><time>2026-05-02T09:55:22.727Z</time></trkpt><trkpt lat="43.94184" lon="11.3077867"><ele>240.33333333333331</ele><time>2026-05-02T09:55:23.728Z</time></trkpt><trkpt lat="43.94174" lon="11.307625"><ele>243.0</ele><time>2026-05-02T09:55:24.726Z</time></trkpt><trkpt lat="43.9416417" lon="11.307465"><ele>243.0</ele><time>2026-05-02T09:55:25.728Z</time></trkpt><trkpt lat="43.94154" lon="11.3073117"><ele>243.0</ele><time>2026-05-02T09:55:26.727Z</time></trkpt><trkpt lat="43.9414417" lon="11.3071483"><ele>243.0</ele><time>2026-05-02T09:55:27.728Z</time></trkpt><trkpt lat="43.941345" lon="11.3069767"><ele>250.66666666666669</ele><time>2026-05-02T09:55:28.727Z</time></trkpt><trkpt lat="43.9412517" lon="11.3068083"><ele>258.33333333333337</ele><time>2026-05-02T09:55:29.728Z</time></trkpt><trkpt lat="43.94116" lon="11.3066317"><ele>266.0</ele><time>2026-05-02T09:55:30.729Z</time></trkpt><trkpt lat="43.9410717" lon="11.3064417"><ele>260.0</ele><time>2026-05-02T09:55:31.728Z</time></trkpt><trkpt lat="43.9409867" lon="11.30625"><ele>254.0</ele><time>2026-05-02T09:55:32.727Z</time></trkpt><trkpt lat="43.9409033" lon="11.3060567"><ele>248.0</ele><time>2026-05-02T09:55:33.728Z</time></trkpt><trkpt lat="43.9408217" lon="11.3058683"><ele>256.5</ele><time>2026-05-02T09:55:34.727Z</time></trkpt><trkpt lat="43.94066" lon="11.3054833"><ele>265.0</ele><time>2026-05-02T09:55:36.728Z</time></trkpt><trkpt lat="43.9405817" lon="11.3052883"><ele>265.0</ele><time>2026-05-02T09:55:37.728Z</time></trkpt><trkpt lat="43.9405033" lon="11.3050933"><ele>265.0</ele><time>2026-05-02T09:55:38.727Z</time></trkpt><trkpt lat="43.940425" lon="11.3048983"><ele>265.0</ele><time>2026-05-02T09:55:39.727Z</time></trkpt><trkpt lat="43.940345" lon="11.3047033"><ele>269.66666666666663</ele><time>2026-05-02T09:55:40.727Z</time></trkpt><trkpt lat="43.940265" lon="11.304505"><ele>274.3333333333333</ele><time>2026-05-02T09:55:41.728Z</time></trkpt><trkpt lat="43.940185" lon="11.3043133"><ele>279.0</ele><time>2026-05-02T09:55:42.728Z</time></trkpt><trkpt lat="43.9400967" lon="11.304135"><ele>273.3333333333333</ele><time>2026-05-02T09:55:43.727Z</time></trkpt><trkpt lat="43.94" lon="11.303955"><ele>267.66666666666663</ele><time>2026-05-02T09:55:44.73Z</time></trkpt><trkpt lat="43.939895" lon="11.3037867"><ele>262.0</ele><time>2026-05-02T09:55:45.729Z</time></trkpt><trkpt lat="43.9397767" lon="11.3036283"><ele>262.0</ele><time>2026-05-02T09:55:46.729Z</time></trkpt><trkpt lat="43.9396467" lon="11.3034783"><ele>262.0</ele><time>2026-05-02T09:55:47.729Z</time></trkpt><trkpt lat="43.9395" lon="11.3033367"><ele>262.0</ele><time>2026-05-02T09:55:48.73Z</time></trkpt><trkpt lat="43.9393333" lon="11.3032067"><ele>267.3333333333333</ele><time>2026-05-02T09:55:49.727Z</time></trkpt><trkpt lat="43.939155" lon="11.3030717"><ele>272.6666666666667</ele><time>2026-05-02T09:55:50.729Z</time></trkpt><trkpt lat="43.9389683" lon="11.3029317"><ele>278.0</ele><time>2026-05-02T09:55:51.728Z</time></trkpt><trkpt lat="43.9387783" lon="11.3027933"><ele>278.0</ele><time>2026-05-02T09:55:52.728Z</time></trkpt><trkpt lat="43.9385867" lon="11.3026483"><ele>278.0</ele><time>2026-05-02T09:55:53.727Z</time></trkpt><trkpt lat="43.9383983" lon="11.3025"><ele>278.0</ele><time>2026-05-02T09:55:54.728Z</time></trkpt><trkpt lat="43.9382117" lon="11.3023483"><ele>281.6666666666667</ele><time>2026-05-02T09:55:55.728Z</time></trkpt><trkpt lat="43.9380283" lon="11.3022"><ele>285.3333333333333</ele><time>2026-05-02T09:55:56.727Z</time></trkpt><trkpt lat="43.9378467" lon="11.302045"><ele>289.0</ele><time>2026-05-02T09:55:57.729Z</time></trkpt><trkpt lat="43.9376717" lon="11.3018933"><ele>280.3333333333333</ele><time>2026-05-02T09:55:58.726Z</time></trkpt><trkpt lat="43.9374817" lon="11.3016967"><ele>271.6666666666667</ele><time>2026-05-02T09:55:59.729Z</time></trkpt><trkpt lat="43.9373133" lon="11.3015567"><ele>263.0</ele><time>2026-05-02T09:56:00.728Z</time></trkpt><trkpt lat="43.93714" lon="11.3013967"><ele>263.0</ele><time>2026-05-02T09:56:01.727Z</time></trkpt><trkpt lat="43.9369783" lon="11.3012167"><ele>263.0</ele><time>2026-05-02T09:56:02.728Z</time></trkpt><trkpt lat="43.9368283" lon="11.3010217"><ele>263.0</ele><time>2026-05-02T09:56:03.729Z</time></trkpt><trkpt lat="43.9366883" lon="11.3008"><ele>260.6666666666667</ele><time>2026-05-02T09:56:04.727Z</time></trkpt><trkpt lat="43.9365517" lon="11.3005567"><ele>258.3333333333333</ele><time>2026-05-02T09:56:05.727Z</time></trkpt><trkpt lat="43.9364267" lon="11.3003067"><ele>256.0</ele><time>2026-05-02T09:56:06.727Z</time></trkpt><trkpt lat="43.93631" lon="11.3000567"><ele>256.0</ele><time>2026-05-02T09:56:07.729Z</time></trkpt><trkpt lat="43.9361917" lon="11.299805"><ele>256.0</ele><time>2026-05-02T09:56:08.728Z</time></trkpt><trkpt lat="43.9360717" lon="11.2995517"><ele>256.0</ele><time>2026-05-02T09:56:09.728Z</time></trkpt><trkpt lat="43.9359483" lon="11.2992967"><ele>257.5</ele><time>2026-05-02T09:56:10.727Z</time></trkpt><trkpt lat="43.9358233" lon="11.299035"><ele>259.0</ele><time>2026-05-02T09:56:11.729Z</time></trkpt><trkpt lat="43.9356967" lon="11.2987667"><ele>259.0</ele><time>2026-05-02T09:56:12.727Z</time></trkpt><trkpt lat="43.9355667" lon="11.2984983"><ele>259.0</ele><time>2026-05-02T09:56:13.728Z</time></trkpt><trkpt lat="43.9354333" lon="11.29823"><ele>263.0</ele><time>2026-05-02T09:56:14.727Z</time></trkpt><trkpt lat="43.935295" lon="11.2979667"><ele>267.0</ele><time>2026-05-02T09:56:15.727Z</time></trkpt><trkpt lat="43.93515" lon="11.2977033"><ele>264.5</ele><time>2026-05-02T09:56:16.728Z</time></trkpt><trkpt lat="43.9350017" lon="11.2974467"><ele>262.0</ele><time>2026-05-02T09:56:17.728Z</time></trkpt><trkpt lat="43.93485" lon="11.2971883"><ele>262.0</ele><time>2026-05-02T09:56:18.728Z</time></trkpt><trkpt lat="43.9346983" lon="11.296935"><ele>262.0</ele><time>2026-05-02T09:56:19.728Z</time></trkpt><trkpt lat="43.9345467" lon="11.2966783"><ele>262.0</ele><time>2026-05-02T09:56:20.728Z</time></trkpt><trkpt lat="43.9343967" lon="11.2964267"><ele>262.0</ele><time>2026-05-02T09:56:21.728Z</time></trkpt><trkpt lat="43.9342467" lon="11.2961717"><ele>262.0</ele><time>2026-05-02T09:56:22.727Z</time></trkpt><trkpt lat="43.9341" lon="11.29592"><ele>262.0</ele><time>2026-05-02T09:56:23.728Z</time></trkpt><trkpt lat="43.9339567" lon="11.2956667"><ele>266.0</ele><time>2026-05-02T09:56:24.727Z</time></trkpt><trkpt lat="43.9338117" lon="11.29541"><ele>270.0</ele><time>2026-05-02T09:56:25.728Z</time></trkpt><trkpt lat="43.9336683" lon="11.2951583"><ele>270.0</ele><time>2026-05-02T09:56:26.728Z</time></trkpt><trkpt lat="43.9335217" lon="11.2949083"><ele>270.0</ele><time>2026-05-02T09:56:27.728Z</time></trkpt><trkpt lat="43.93338" lon="11.2946683"><ele>269.6666666666667</ele><time>2026-05-02T09:56:28.728Z</time></trkpt><trkpt lat="43.9332417" lon="11.2944433"><ele>269.33333333333337</ele><time>2026-05-02T09:56:29.727Z</time></trkpt><trkpt lat="43.9331017" lon="11.2942283"><ele>269.0</ele><time>2026-05-02T09:56:30.726Z</time></trkpt><trkpt lat="43.9329567" lon="11.2940217"><ele>268.6666666666667</ele><time>2026-05-02T09:56:31.728Z</time></trkpt><trkpt lat="43.932805" lon="11.2938183"><ele>268.3333333333333</ele><time>2026-05-02T09:56:32.728Z</time></trkpt><trkpt lat="43.9326483" lon="11.2936133"><ele>268.0</ele><time>2026-05-02T09:56:33.729Z</time></trkpt><trkpt lat="43.93249" lon="11.2934"><ele>268.0</ele><time>2026-05-02T09:56:34.728Z</time></trkpt><trkpt lat="43.93233" lon="11.2931767"><ele>268.0</ele><time>2026-05-02T09:56:35.728Z</time></trkpt><trkpt lat="43.9321667" lon="11.2929567"><ele>272.0</ele><time>2026-05-02T09:56:36.727Z</time></trkpt><trkpt lat="43.9320033" lon="11.2927333"><ele>276.0</ele><time>2026-05-02T09:56:37.729Z</time></trkpt><trkpt lat="43.9318367" lon="11.2925117"><ele>272.0</ele><time>2026-05-02T09:56:38.728Z</time></trkpt><trkpt lat="43.9316667" lon="11.292295"><ele>268.0</ele><time>2026-05-02T09:56:39.73Z</time></trkpt><trkpt lat="43.9314983" lon="11.2920767"><ele>268.0</ele><time>2026-05-02T09:56:40.727Z</time></trkpt><trkpt lat="43.9313317" lon="11.2918667"><ele>268.0</ele><time>2026-05-02T09:56:41.727Z</time></trkpt><trkpt lat="43.9311683" lon="11.2916583"><ele>268.0</ele><time>2026-05-02T09:56:42.729Z</time></trkpt><trkpt lat="43.9310117" lon="11.2914517"><ele>267.3333333333333</ele><time>2026-05-02T09:56:43.732Z</time></trkpt><trkpt lat="43.9308617" lon="11.2912583"><ele>266.6666666666667</ele><time>2026-05-02T09:56:44.728Z</time></trkpt><trkpt lat="43.930705" lon="11.2910817"><ele>266.0</ele><time>2026-05-02T09:56:45.728Z</time></trkpt><trkpt lat="43.9305383" lon="11.2909167"><ele>266.0</ele><time>2026-05-02T09:56:46.728Z</time></trkpt><trkpt lat="43.93036" lon="11.2907667"><ele>266.0</ele><time>2026-05-02T09:56:47.729Z</time></trkpt><trkpt lat="43.9301683" lon="11.2906183"><ele>266.0</ele><time>2026-05-02T09:56:48.732Z</time></trkpt><trkpt lat="43.9299667" lon="11.2904817"><ele>270.6666666666667</ele><time>2026-05-02T09:56:49.729Z</time></trkpt><trkpt lat="43.9297617" lon="11.2903567"><ele>275.3333333333333</ele><time>2026-05-02T09:56:50.729Z</time></trkpt><trkpt lat="43.9295617" lon="11.2902483"><ele>280.0</ele><time>2026-05-02T09:56:51.728Z</time></trkpt><trkpt lat="43.9293783" lon="11.2901567"><ele>278.0</ele><time>2026-05-02T09:56:52.727Z</time></trkpt><trkpt lat="43.9292017" lon="11.290095"><ele>276.0</ele><time>2026-05-02T09:56:53.729Z</time></trkpt><trkpt lat="43.9290217" lon="11.2900683"><ele>274.0</ele><time>2026-05-02T09:56:54.727Z</time></trkpt><trkpt lat="43.928835" lon="11.29011"><ele>274.0</ele><time>2026-05-02T09:56:55.728Z</time></trkpt><trkpt lat="43.92864" lon="11.2901883"><ele>274.0</ele><time>2026-05-02T09:56:56.728Z</time></trkpt><trkpt lat="43.928445" lon="11.2902767"><ele>274.0</ele><time>2026-05-02T09:56:57.729Z</time></trkpt><trkpt lat="43.9282417" lon="11.2903633"><ele>270.66666666666663</ele><time>2026-05-02T09:56:58.729Z</time></trkpt><trkpt lat="43.9280383" lon="11.2904617"><ele>267.3333333333333</ele><time>2026-05-02T09:56:59.728Z</time></trkpt><trkpt lat="43.9278367" lon="11.2905617"><ele>264.0</ele><time>2026-05-02T09:57:00.729Z</time></trkpt><trkpt lat="43.9276367" lon="11.290645"><ele>260.3333333333333</ele><time>2026-05-02T09:57:01.728Z</time></trkpt><trkpt lat="43.92744" lon="11.2906983"><ele>256.66666666666663</ele><time>2026-05-02T09:57:02.729Z</time></trkpt><trkpt lat="43.927245" lon="11.2907033"><ele>253.0</ele><time>2026-05-02T09:57:03.729Z</time></trkpt><trkpt lat="43.927055" lon="11.2906633"><ele>255.66666666666666</ele><time>2026-05-02T09:57:04.728Z</time></trkpt><trkpt lat="43.9268717" lon="11.290585"><ele>258.3333333333333</ele><time>2026-05-02T09:57:05.727Z</time></trkpt><trkpt lat="43.9267117" lon="11.2904717"><ele>261.0</ele><time>2026-05-02T09:57:06.727Z</time></trkpt><trkpt lat="43.9265683" lon="11.2903483"><ele>261.0</ele><time>2026-05-02T09:57:07.727Z</time></trkpt><trkpt lat="43.92644" lon="11.2902283"><ele>261.0</ele><time>2026-05-02T09:57:08.729Z</time></trkpt><trkpt lat="43.9263183" lon="11.2901133"><ele>261.0</ele><time>2026-05-02T09:57:09.729Z</time></trkpt><trkpt lat="43.9262" lon="11.2900067"><ele>261.0</ele><time>2026-05-02T09:57:10.727Z</time></trkpt><trkpt lat="43.9260833" lon="11.2898983"><ele>261.0</ele><time>2026-05-02T09:57:11.728Z</time></trkpt><trkpt lat="43.92596" lon="11.2897867"><ele>261.0</ele><time>2026-05-02T09:57:12.727Z</time></trkpt><trkpt lat="43.9258267" lon="11.2896717"><ele>261.0</ele><time>2026-05-02T09:57:13.729Z</time></trkpt><trkpt lat="43.9256817" lon="11.2895417"><ele>260.3333333333333</ele><time>2026-05-02T09:57:14.728Z</time></trkpt><trkpt lat="43.92552" lon="11.2893883"><ele>259.66666666666663</ele><time>2026-05-02T09:57:15.727Z</time></trkpt><trkpt lat="43.9253533" lon="11.2892183"><ele>259.0</ele><time>2026-05-02T09:57:16.728Z</time></trkpt><trkpt lat="43.9252017" lon="11.28906"><ele>260.0</ele><time>2026-05-02T09:57:17.73Z</time></trkpt><trkpt lat="43.9250617" lon="11.2889367"><ele>261.0</ele><time>2026-05-02T09:57:18.728Z</time></trkpt><trkpt lat="43.92493" lon="11.2888417"><ele>262.0</ele><time>2026-05-02T09:57:19.728Z</time></trkpt><trkpt lat="43.9248083" lon="11.2887667"><ele>263.0</ele><time>2026-05-02T09:57:20.729Z</time></trkpt><trkpt lat="43.9246867" lon="11.28869"><ele>268.0</ele><time>2026-05-02T09:57:21.728Z</time></trkpt><trkpt lat="43.9245533" lon="11.28863"><ele>273.0</ele><time>2026-05-02T09:57:22.729Z</time></trkpt><trkpt lat="43.92441" lon="11.288595"><ele>278.0</ele><time>2026-05-02T09:57:23.731Z</time></trkpt><trkpt lat="43.924255" lon="11.2886017"><ele>283.0</ele><time>2026-05-02T09:57:24.728Z</time></trkpt><trkpt lat="43.9240967" lon="11.28863"><ele>283.0</ele><time>2026-05-02T09:57:25.728Z</time></trkpt><trkpt lat="43.9239483" lon="11.2886567"><ele>283.0</ele><time>2026-05-02T09:57:26.728Z</time></trkpt><trkpt lat="43.9238117" lon="11.2886683"><ele>283.0</ele><time>2026-05-02T09:57:27.728Z</time></trkpt><trkpt lat="43.923685" lon="11.2886733"><ele>283.0</ele><time>2026-05-02T09:57:28.728Z</time></trkpt><trkpt lat="43.92357" lon="11.28867"><ele>283.0</ele><time>2026-05-02T09:57:29.728Z</time></trkpt><trkpt lat="43.9234667" lon="11.2886583"><ele>283.0</ele><time>2026-05-02T09:57:30.728Z</time></trkpt><trkpt lat="43.9233617" lon="11.2886383"><ele>283.0</ele><time>2026-05-02T09:57:31.731Z</time></trkpt><trkpt lat="43.9232533" lon="11.2886033"><ele>283.0</ele><time>2026-05-02T09:57:32.729Z</time></trkpt><trkpt lat="43.923145" lon="11.2885567"><ele>283.0</ele><time>2026-05-02T09:57:33.728Z</time></trkpt><trkpt lat="43.92304" lon="11.2885133"><ele>281.6</ele><time>2026-05-02T09:57:34.734Z</time></trkpt><trkpt lat="43.92294" lon="11.28846"><ele>280.20000000000005</ele><time>2026-05-02T09:57:35.728Z</time></trkpt><trkpt lat="43.9228433" lon="11.2884"><ele>278.8</ele><time>2026-05-02T09:57:36.727Z</time></trkpt><trkpt lat="43.9227483" lon="11.2883233"><ele>277.40000000000003</ele><time>2026-05-02T09:57:37.728Z</time></trkpt><trkpt lat="43.922665" lon="11.288235"><ele>276.0</ele><time>2026-05-02T09:57:38.728Z</time></trkpt><trkpt lat="43.922585" lon="11.28813"><ele>274.6666666666667</ele><time>2026-05-02T09:57:39.727Z</time></trkpt><trkpt lat="43.9224883" lon="11.28799"><ele>273.33333333333337</ele><time>2026-05-02T09:57:40.728Z</time></trkpt><trkpt lat="43.9223683" lon="11.287805"><ele>272.0</ele><time>2026-05-02T09:57:41.728Z</time></trkpt><trkpt lat="43.9222417" lon="11.28758"><ele>272.0</ele><time>2026-05-02T09:57:42.728Z</time></trkpt><trkpt lat="43.9221083" lon="11.28735"><ele>272.0</ele><time>2026-05-02T09:57:43.729Z</time></trkpt><trkpt lat="43.92197" lon="11.28712"><ele>272.0</ele><time>2026-05-02T09:57:44.729Z</time></trkpt><trkpt lat="43.9218283" lon="11.2868917"><ele>271.33333333333337</ele><time>2026-05-02T09:57:45.728Z</time></trkpt><trkpt lat="43.9216867" lon="11.286655"><ele>270.6666666666667</ele><time>2026-05-02T09:57:46.728Z</time></trkpt><trkpt lat="43.9215467" lon="11.28642"><ele>270.0</ele><time>2026-05-02T09:57:47.727Z</time></trkpt><trkpt lat="43.9214067" lon="11.2861933"><ele>270.0</ele><time>2026-05-02T09:57:48.728Z</time></trkpt><trkpt lat="43.9212667" lon="11.2859783"><ele>270.0</ele><time>2026-05-02T09:57:49.729Z</time></trkpt><trkpt lat="43.9211283" lon="11.2857867"><ele>270.0</ele><time>2026-05-02T09:57:50.728Z</time></trkpt><trkpt lat="43.920985" lon="11.28561"><ele>270.0</ele><time>2026-05-02T09:57:51.728Z</time></trkpt><trkpt lat="43.9208383" lon="11.285445"><ele>270.0</ele><time>2026-05-02T09:57:52.728Z</time></trkpt><trkpt lat="43.9206767" lon="11.285305"><ele>270.0</ele><time>2026-05-02T09:57:53.728Z</time></trkpt><trkpt lat="43.920505" lon="11.2851933"><ele>270.0</ele><time>2026-05-02T09:57:54.729Z</time></trkpt><trkpt lat="43.9203267" lon="11.2851067"><ele>270.0</ele><time>2026-05-02T09:57:55.727Z</time></trkpt><trkpt lat="43.92014" lon="11.2850367"><ele>270.0</ele><time>2026-05-02T09:57:56.729Z</time></trkpt><trkpt lat="43.919945" lon="11.28499"><ele>269.0</ele><time>2026-05-02T09:57:57.728Z</time></trkpt><trkpt lat="43.9197417" lon="11.2849783"><ele>268.0</ele><time>2026-05-02T09:57:58.727Z</time></trkpt><trkpt lat="43.9195433" lon="11.2849983"><ele>267.0</ele><time>2026-05-02T09:57:59.728Z</time></trkpt><trkpt lat="43.9193583" lon="11.28502"><ele>267.0</ele><time>2026-05-02T09:58:00.728Z</time></trkpt><trkpt lat="43.9191733" lon="11.285015"><ele>267.0</ele><time>2026-05-02T09:58:01.729Z</time></trkpt><trkpt lat="43.918995" lon="11.2849733"><ele>267.0</ele><time>2026-05-02T09:58:02.729Z</time></trkpt><trkpt lat="43.91882" lon="11.2849083"><ele>267.0</ele><time>2026-05-02T09:58:03.728Z</time></trkpt><trkpt lat="43.91866" lon="11.28483"><ele>267.0</ele><time>2026-05-02T09:58:04.729Z</time></trkpt><trkpt lat="43.9185217" lon="11.2847067"><ele>267.0</ele><time>2026-05-02T09:58:05.727Z</time></trkpt><trkpt lat="43.9183833" lon="11.28455"><ele>270.3333333333333</ele><time>2026-05-02T09:58:06.728Z</time></trkpt><trkpt lat="43.91824" lon="11.2843683"><ele>273.66666666666663</ele><time>2026-05-02T09:58:07.729Z</time></trkpt><trkpt lat="43.9181017" lon="11.2841567"><ele>277.0</ele><time>2026-05-02T09:58:08.727Z</time></trkpt><trkpt lat="43.91796" lon="11.283945"><ele>279.0</ele><time>2026-05-02T09:58:09.728Z</time></trkpt><trkpt lat="43.917805" lon="11.2837417"><ele>281.0</ele><time>2026-05-02T09:58:10.727Z</time></trkpt><trkpt lat="43.9176467" lon="11.28356"><ele>283.0</ele><time>2026-05-02T09:58:11.727Z</time></trkpt><trkpt lat="43.91748" lon="11.28341"><ele>283.0</ele><time>2026-05-02T09:58:12.729Z</time></trkpt><trkpt lat="43.9173133" lon="11.28327"><ele>283.0</ele><time>2026-05-02T09:58:13.73Z</time></trkpt><trkpt lat="43.91714" lon="11.2831483"><ele>283.0</ele><time>2026-05-02T09:58:14.73Z</time></trkpt><trkpt lat="43.9169617" lon="11.28306"><ele>287.3333333333333</ele><time>2026-05-02T09:58:15.728Z</time></trkpt><trkpt lat="43.9167833" lon="11.283"><ele>291.6666666666667</ele><time>2026-05-02T09:58:16.729Z</time></trkpt><trkpt lat="43.9166017" lon="11.2829667"><ele>296.0</ele><time>2026-05-02T09:58:17.728Z</time></trkpt><trkpt lat="43.9164133" lon="11.2829633"><ele>296.0</ele><time>2026-05-02T09:58:18.728Z</time></trkpt><trkpt lat="43.9162267" lon="11.2829767"><ele>296.0</ele><time>2026-05-02T09:58:19.728Z</time></trkpt><trkpt lat="43.9160383" lon="11.2830333"><ele>296.0</ele><time>2026-05-02T09:58:20.729Z</time></trkpt><trkpt lat="43.9158517" lon="11.2831283"><ele>287.0</ele><time>2026-05-02T09:58:21.729Z</time></trkpt><trkpt lat="43.915665" lon="11.28325"><ele>278.0</ele><time>2026-05-02T09:58:22.728Z</time></trkpt><trkpt lat="43.9154817" lon="11.2833933"><ele>269.0</ele><time>2026-05-02T09:58:23.728Z</time></trkpt><trkpt lat="43.9152983" lon="11.28354"><ele>269.0</ele><time>2026-05-02T09:58:24.728Z</time></trkpt><trkpt lat="43.9151167" lon="11.283685"><ele>269.0</ele><time>2026-05-02T09:58:25.727Z</time></trkpt><trkpt lat="43.914935" lon="11.28382"><ele>269.0</ele><time>2026-05-02T09:58:26.728Z</time></trkpt><trkpt lat="43.914745" lon="11.2839383"><ele>271.0</ele><time>2026-05-02T09:58:27.728Z</time></trkpt><trkpt lat="43.9145517" lon="11.284035"><ele>273.0</ele><time>2026-05-02T09:58:28.727Z</time></trkpt><trkpt lat="43.9143483" lon="11.2841"><ele>275.0</ele><time>2026-05-02T09:58:29.725Z</time></trkpt><trkpt lat="43.91414" lon="11.2841333"><ele>276.33333333333337</ele><time>2026-05-02T09:58:30.728Z</time></trkpt><trkpt lat="43.9139317" lon="11.28413"><ele>277.6666666666667</ele><time>2026-05-02T09:58:31.728Z</time></trkpt><trkpt lat="43.9137217" lon="11.2840983"><ele>279.0</ele><time>2026-05-02T09:58:32.728Z</time></trkpt><trkpt lat="43.91352" lon="11.28403"><ele>277.6666666666667</ele><time>2026-05-02T09:58:33.727Z</time></trkpt><trkpt lat="43.9133233" lon="11.2839333"><ele>276.33333333333337</ele><time>2026-05-02T09:58:34.729Z</time></trkpt><trkpt lat="43.9131267" lon="11.2838183"><ele>275.0</ele><time>2026-05-02T09:58:35.726Z</time></trkpt><trkpt lat="43.9129267" lon="11.2837"><ele>275.0</ele><time>2026-05-02T09:58:36.729Z</time></trkpt><trkpt lat="43.9127217" lon="11.2835767"><ele>275.0</ele><time>2026-05-02T09:58:37.727Z</time></trkpt><trkpt lat="43.9125217" lon="11.2834483"><ele>275.0</ele><time>2026-05-02T09:58:38.728Z</time></trkpt><trkpt lat="43.912325" lon="11.2833067"><ele>275.6666666666667</ele><time>2026-05-02T09:58:39.727Z</time></trkpt><trkpt lat="43.9121483" lon="11.283145"><ele>276.3333333333333</ele><time>2026-05-02T09:58:40.728Z</time></trkpt><trkpt lat="43.9119917" lon="11.2829483"><ele>277.0</ele><time>2026-05-02T09:58:41.729Z</time></trkpt><trkpt lat="43.91185" lon="11.2827333"><ele>278.0</ele><time>2026-05-02T09:58:42.733Z</time></trkpt><trkpt lat="43.9117167" lon="11.2825067"><ele>279.0</ele><time>2026-05-02T09:58:43.728Z</time></trkpt><trkpt lat="43.9115667" lon="11.282295"><ele>280.0</ele><time>2026-05-02T09:58:44.728Z</time></trkpt><trkpt lat="43.9113983" lon="11.2821033"><ele>278.66666666666663</ele><time>2026-05-02T09:58:45.728Z</time></trkpt><trkpt lat="43.9112133" lon="11.2819533"><ele>277.3333333333333</ele><time>2026-05-02T09:58:46.728Z</time></trkpt><trkpt lat="43.9110117" lon="11.281855"><ele>276.0</ele><time>2026-05-02T09:58:47.728Z</time></trkpt><trkpt lat="43.9108033" lon="11.2818017"><ele>276.0</ele><time>2026-05-02T09:58:48.729Z</time></trkpt><trkpt lat="43.91059" lon="11.281795"><ele>276.0</ele><time>2026-05-02T09:58:49.729Z</time></trkpt><trkpt lat="43.9103733" lon="11.281835"><ele>276.0</ele><time>2026-05-02T09:58:50.728Z</time></trkpt><trkpt lat="43.9101567" lon="11.2818967"><ele>276.3333333333333</ele><time>2026-05-02T09:58:51.728Z</time></trkpt><trkpt lat="43.9099433" lon="11.28197"><ele>276.66666666666663</ele><time>2026-05-02T09:58:52.727Z</time></trkpt><trkpt lat="43.90973" lon="11.282045"><ele>277.0</ele><time>2026-05-02T09:58:53.728Z</time></trkpt><trkpt lat="43.909515" lon="11.2821167"><ele>277.0</ele><time>2026-05-02T09:58:54.728Z</time></trkpt><trkpt lat="43.909295" lon="11.2821767"><ele>277.0</ele><time>2026-05-02T09:58:55.73Z</time></trkpt><trkpt lat="43.9090717" lon="11.2822183"><ele>277.0</ele><time>2026-05-02T09:58:56.73Z</time></trkpt><trkpt lat="43.9088433" lon="11.282245"><ele>279.5</ele><time>2026-05-02T09:58:57.728Z</time></trkpt><trkpt lat="43.9086083" lon="11.282265"><ele>282.0</ele><time>2026-05-02T09:58:58.728Z</time></trkpt><trkpt lat="43.9083667" lon="11.2822833"><ele>282.5</ele><time>2026-05-02T09:58:59.728Z</time></trkpt><trkpt lat="43.9081267" lon="11.2823017"><ele>283.0</ele><time>2026-05-02T09:59:00.728Z</time></trkpt><trkpt lat="43.90789" lon="11.28232"><ele>283.0</ele><time>2026-05-02T09:59:01.729Z</time></trkpt><trkpt lat="43.90765" lon="11.2823433"><ele>283.0</ele><time>2026-05-02T09:59:02.728Z</time></trkpt><trkpt lat="43.90741" lon="11.2823583"><ele>282.5</ele><time>2026-05-02T09:59:03.728Z</time></trkpt><trkpt lat="43.90717" lon="11.28238"><ele>282.0</ele><time>2026-05-02T09:59:04.728Z</time></trkpt><trkpt lat="43.906935" lon="11.2824033"><ele>283.0</ele><time>2026-05-02T09:59:05.728Z</time></trkpt><trkpt lat="43.9067033" lon="11.2824233"><ele>284.0</ele><time>2026-05-02T09:59:06.729Z</time></trkpt><trkpt lat="43.9064767" lon="11.2824417"><ele>284.0</ele><time>2026-05-02T09:59:07.727Z</time></trkpt><trkpt lat="43.906255" lon="11.282465"><ele>284.0</ele><time>2026-05-02T09:59:08.729Z</time></trkpt><trkpt lat="43.906045" lon="11.2824833"><ele>284.0</ele><time>2026-05-02T09:59:09.729Z</time></trkpt><trkpt lat="43.90584" lon="11.2825033"><ele>284.6666666666667</ele><time>2026-05-02T09:59:10.728Z</time></trkpt><trkpt lat="43.90564" lon="11.28253"><ele>285.3333333333333</ele><time>2026-05-02T09:59:11.729Z</time></trkpt><trkpt lat="43.9054567" lon="11.2825783"><ele>286.0</ele><time>2026-05-02T09:59:12.729Z</time></trkpt><trkpt lat="43.905285" lon="11.2826533"><ele>286.0</ele><time>2026-05-02T09:59:13.729Z</time></trkpt><trkpt lat="43.905105" lon="11.2827367"><ele>286.0</ele><time>2026-05-02T09:59:14.728Z</time></trkpt><trkpt lat="43.9049217" lon="11.2828233"><ele>286.0</ele><time>2026-05-02T09:59:15.728Z</time></trkpt><trkpt lat="43.9047367" lon="11.2828983"><ele>284.66666666666663</ele><time>2026-05-02T09:59:16.729Z</time></trkpt><trkpt lat="43.9045517" lon="11.28298"><ele>283.3333333333333</ele><time>2026-05-02T09:59:17.728Z</time></trkpt><trkpt lat="43.9043917" lon="11.2830733"><ele>282.0</ele><time>2026-05-02T09:59:18.729Z</time></trkpt><trkpt lat="43.9042567" lon="11.2831267"><ele>283.3333333333333</ele><time>2026-05-02T09:59:19.729Z</time></trkpt><trkpt lat="43.9040833" lon="11.2831483"><ele>284.66666666666663</ele><time>2026-05-02T09:59:20.728Z</time></trkpt><trkpt lat="43.9038917" lon="11.28315"><ele>286.0</ele><time>2026-05-02T09:59:21.728Z</time></trkpt><trkpt lat="43.9036833" lon="11.28315"><ele>286.0</ele><time>2026-05-02T09:59:22.728Z</time></trkpt><trkpt lat="43.9034667" lon="11.28315"><ele>286.0</ele><time>2026-05-02T09:59:23.73Z</time></trkpt><trkpt lat="43.9032433" lon="11.2831533"><ele>286.0</ele><time>2026-05-02T09:59:24.729Z</time></trkpt><trkpt lat="43.9030267" lon="11.283155"><ele>287.0</ele><time>2026-05-02T09:59:25.728Z</time></trkpt><trkpt lat="43.9028167" lon="11.283145"><ele>288.0</ele><time>2026-05-02T09:59:26.728Z</time></trkpt><trkpt lat="43.9026167" lon="11.2831183"><ele>289.0</ele><time>2026-05-02T09:59:27.729Z</time></trkpt><trkpt lat="43.902425" lon="11.28307"><ele>290.66666666666663</ele><time>2026-05-02T09:59:28.728Z</time></trkpt><trkpt lat="43.902235" lon="11.283005"><ele>292.3333333333333</ele><time>2026-05-02T09:59:29.728Z</time></trkpt><trkpt lat="43.9020433" lon="11.2829317"><ele>294.0</ele><time>2026-05-02T09:59:30.728Z</time></trkpt><trkpt lat="43.9018467" lon="11.2828583"><ele>293.0</ele><time>2026-05-02T09:59:31.729Z</time></trkpt><trkpt lat="43.901655" lon="11.28279"><ele>292.0</ele><time>2026-05-02T09:59:32.728Z</time></trkpt><trkpt lat="43.90147" lon="11.28272"><ele>291.0</ele><time>2026-05-02T09:59:33.733Z</time></trkpt><trkpt lat="43.9012933" lon="11.2826583"><ele>291.0</ele><time>2026-05-02T09:59:34.728Z</time></trkpt><trkpt lat="43.9011133" lon="11.2826333"><ele>291.0</ele><time>2026-05-02T09:59:35.728Z</time></trkpt><trkpt lat="43.9009267" lon="11.2826383"><ele>291.0</ele><time>2026-05-02T09:59:36.728Z</time></trkpt><trkpt lat="43.9007433" lon="11.28268"><ele>294.0</ele><time>2026-05-02T09:59:37.728Z</time></trkpt><trkpt lat="43.900565" lon="11.2827617"><ele>297.0</ele><time>2026-05-02T09:59:38.728Z</time></trkpt><trkpt lat="43.9004017" lon="11.2828767"><ele>300.0</ele><time>2026-05-02T09:59:39.728Z</time></trkpt><trkpt lat="43.9002517" lon="11.2830033"><ele>297.6666666666667</ele><time>2026-05-02T09:59:40.728Z</time></trkpt><trkpt lat="43.9001017" lon="11.2831033"><ele>295.33333333333337</ele><time>2026-05-02T09:59:41.728Z</time></trkpt><trkpt lat="43.899945" lon="11.28317"><ele>293.0</ele><time>2026-05-02T09:59:42.728Z</time></trkpt><trkpt lat="43.8997733" lon="11.2832067"><ele>293.0</ele><time>2026-05-02T09:59:43.728Z</time></trkpt><trkpt lat="43.8995933" lon="11.283245"><ele>293.0</ele><time>2026-05-02T09:59:44.729Z</time></trkpt><trkpt lat="43.8994033" lon="11.283285"><ele>293.0</ele><time>2026-05-02T09:59:45.727Z</time></trkpt><trkpt lat="43.8992133" lon="11.2833283"><ele>295.33333333333337</ele><time>2026-05-02T09:59:46.728Z</time></trkpt><trkpt lat="43.8990283" lon="11.2833833"><ele>297.6666666666667</ele><time>2026-05-02T09:59:47.729Z</time></trkpt><trkpt lat="43.8988467" lon="11.2834467"><ele>300.0</ele><time>2026-05-02T09:59:48.727Z</time></trkpt><trkpt lat="43.8986683" lon="11.2835133"><ele>300.0</ele><time>2026-05-02T09:59:49.729Z</time></trkpt><trkpt lat="43.8984883" lon="11.2835717"><ele>300.0</ele><time>2026-05-02T09:59:50.727Z</time></trkpt><trkpt lat="43.8983083" lon="11.2835983"><ele>300.0</ele><time>2026-05-02T09:59:51.728Z</time></trkpt><trkpt lat="43.8981433" lon="11.2835983"><ele>303.0</ele><time>2026-05-02T09:59:52.727Z</time></trkpt><trkpt lat="43.8979933" lon="11.2835617"><ele>306.0</ele><time>2026-05-02T09:59:53.729Z</time></trkpt><trkpt lat="43.8978567" lon="11.2835017"><ele>309.0</ele><time>2026-05-02T09:59:54.728Z</time></trkpt><trkpt lat="43.8977317" lon="11.2834133"><ele>312.0</ele><time>2026-05-02T09:59:55.729Z</time></trkpt><trkpt lat="43.8976183" lon="11.283305"><ele>312.25</ele><time>2026-05-02T09:59:56.728Z</time></trkpt><trkpt lat="43.8975083" lon="11.2831883"><ele>312.5</ele><time>2026-05-02T09:59:57.727Z</time></trkpt><trkpt lat="43.897395" lon="11.28308"><ele>312.75</ele><time>2026-05-02T09:59:58.728Z</time></trkpt><trkpt lat="43.8972717" lon="11.2829817"><ele>313.0</ele><time>2026-05-02T09:59:59.726Z</time></trkpt><trkpt lat="43.8971367" lon="11.2829033"><ele>313.0</ele><time>2026-05-02T10:00:00.725Z</time></trkpt><trkpt lat="43.8969983" lon="11.2828617"><ele>313.0</ele><time>2026-05-02T10:00:01.727Z</time></trkpt><trkpt lat="43.896865" lon="11.2828467"><ele>313.0</ele><time>2026-05-02T10:00:02.726Z</time></trkpt><trkpt lat="43.89674" lon="11.2828567"><ele>313.0</ele><time>2026-05-02T10:00:03.726Z</time></trkpt><trkpt lat="43.8966117" lon="11.2829067"><ele>308.3333333333333</ele><time>2026-05-02T10:00:04.727Z</time></trkpt><trkpt lat="43.8964683" lon="11.2829833"><ele>303.6666666666667</ele><time>2026-05-02T10:00:05.728Z</time></trkpt><trkpt lat="43.8963033" lon="11.283075"><ele>299.0</ele><time>2026-05-02T10:00:06.727Z</time></trkpt><trkpt lat="43.89611" lon="11.28318"><ele>299.0</ele><time>2026-05-02T10:00:07.728Z</time></trkpt><trkpt lat="43.8959067" lon="11.2832883"><ele>299.0</ele><time>2026-05-02T10:00:08.727Z</time></trkpt><trkpt lat="43.8957033" lon="11.2834017"><ele>299.0</ele><time>2026-05-02T10:00:09.727Z</time></trkpt><trkpt lat="43.895495" lon="11.2835117"><ele>299.0</ele><time>2026-05-02T10:00:10.727Z</time></trkpt><trkpt lat="43.8952883" lon="11.2836267"><ele>299.0</ele><time>2026-05-02T10:00:11.728Z</time></trkpt><trkpt lat="43.8950917" lon="11.283745"><ele>299.0</ele><time>2026-05-02T10:00:12.728Z</time></trkpt><trkpt lat="43.8948883" lon="11.2838633"><ele>300.6666666666667</ele><time>2026-05-02T10:00:13.727Z</time></trkpt><trkpt lat="43.89469" lon="11.283985"><ele>302.3333333333333</ele><time>2026-05-02T10:00:14.728Z</time></trkpt><trkpt lat="43.89449" lon="11.2841133"><ele>304.0</ele><time>2026-05-02T10:00:15.727Z</time></trkpt><trkpt lat="43.8942933" lon="11.28424"><ele>302.66666666666663</ele><time>2026-05-02T10:00:16.726Z</time></trkpt><trkpt lat="43.894095" lon="11.2843617"><ele>301.3333333333333</ele><time>2026-05-02T10:00:17.727Z</time></trkpt><trkpt lat="43.8939" lon="11.2844867"><ele>300.0</ele><time>2026-05-02T10:00:18.727Z</time></trkpt><trkpt lat="43.8937033" lon="11.2846083"><ele>300.0</ele><time>2026-05-02T10:00:19.727Z</time></trkpt><trkpt lat="43.8935067" lon="11.2847233"><ele>300.0</ele><time>2026-05-02T10:00:20.728Z</time></trkpt><trkpt lat="43.8933067" lon="11.284835"><ele>300.0</ele><time>2026-05-02T10:00:21.729Z</time></trkpt><trkpt lat="43.8931133" lon="11.2849467"><ele>301.0</ele><time>2026-05-02T10:00:22.727Z</time></trkpt><trkpt lat="43.89292" lon="11.2850533"><ele>302.0</ele><time>2026-05-02T10:00:23.726Z</time></trkpt><trkpt lat="43.8927317" lon="11.2851567"><ele>303.0</ele><time>2026-05-02T10:00:24.726Z</time></trkpt><trkpt lat="43.89255" lon="11.2852633"><ele>302.6666666666667</ele><time>2026-05-02T10:00:25.727Z</time></trkpt><trkpt lat="43.8923717" lon="11.285385"><ele>302.33333333333337</ele><time>2026-05-02T10:00:26.728Z</time></trkpt><trkpt lat="43.8922033" lon="11.28554"><ele>302.0</ele><time>2026-05-02T10:00:27.728Z</time></trkpt><trkpt lat="43.89205" lon="11.28572"><ele>302.0</ele><time>2026-05-02T10:00:28.727Z</time></trkpt><trkpt lat="43.89192" lon="11.285905"><ele>302.0</ele><time>2026-05-02T10:00:29.727Z</time></trkpt><trkpt lat="43.8918117" lon="11.28609"><ele>302.0</ele><time>2026-05-02T10:00:30.728Z</time></trkpt><trkpt lat="43.8916983" lon="11.2862517"><ele>303.33333333333337</ele><time>2026-05-02T10:00:31.729Z</time></trkpt><trkpt lat="43.8915683" lon="11.2863767"><ele>304.6666666666667</ele><time>2026-05-02T10:00:32.728Z</time></trkpt><trkpt lat="43.89143" lon="11.286495"><ele>306.0</ele><time>2026-05-02T10:00:33.728Z</time></trkpt><trkpt lat="43.8913067" lon="11.28664"><ele>306.0</ele><time>2026-05-02T10:00:34.726Z</time></trkpt><trkpt lat="43.8912083" lon="11.2868183"><ele>306.0</ele><time>2026-05-02T10:00:35.726Z</time></trkpt><trkpt lat="43.8911433" lon="11.2870367"><ele>306.0</ele><time>2026-05-02T10:00:36.728Z</time></trkpt><trkpt lat="43.8910983" lon="11.2872833"><ele>307.0</ele><time>2026-05-02T10:00:37.728Z</time></trkpt><trkpt lat="43.8910483" lon="11.2875283"><ele>308.0</ele><time>2026-05-02T10:00:38.727Z</time></trkpt><trkpt lat="43.8909767" lon="11.2877433"><ele>309.0</ele><time>2026-05-02T10:00:39.728Z</time></trkpt><trkpt lat="43.8908733" lon="11.2879167"><ele>309.0</ele><time>2026-05-02T10:00:40.727Z</time></trkpt><trkpt lat="43.8907483" lon="11.28803"><ele>309.0</ele><time>2026-05-02T10:00:41.728Z</time></trkpt><trkpt lat="43.890605" lon="11.288085"><ele>309.0</ele><time>2026-05-02T10:00:42.726Z</time></trkpt><trkpt lat="43.8904467" lon="11.2880983"><ele>309.0</ele><time>2026-05-02T10:00:43.727Z</time></trkpt><trkpt lat="43.8902667" lon="11.2881167"><ele>309.0</ele><time>2026-05-02T10:00:44.728Z</time></trkpt><trkpt lat="43.8900833" lon="11.2881783"><ele>309.0</ele><time>2026-05-02T10:00:45.732Z</time></trkpt><trkpt lat="43.8898933" lon="11.2882483"><ele>309.3333333333333</ele><time>2026-05-02T10:00:46.726Z</time></trkpt><trkpt lat="43.8897083" lon="11.2882833"><ele>309.66666666666663</ele><time>2026-05-02T10:00:47.727Z</time></trkpt><trkpt lat="43.8895217" lon="11.2882633"><ele>310.0</ele><time>2026-05-02T10:00:48.727Z</time></trkpt><trkpt lat="43.8893367" lon="11.2881883"><ele>313.0</ele><time>2026-05-02T10:00:49.727Z</time></trkpt><trkpt lat="43.8891567" lon="11.28809"><ele>316.0</ele><time>2026-05-02T10:00:50.728Z</time></trkpt><trkpt lat="43.8889783" lon="11.2880133"><ele>319.0</ele><time>2026-05-02T10:00:51.728Z</time></trkpt><trkpt lat="43.8887917" lon="11.2879917"><ele>319.0</ele><time>2026-05-02T10:00:52.727Z</time></trkpt><trkpt lat="43.8885967" lon="11.28803"><ele>319.0</ele><time>2026-05-02T10:00:53.726Z</time></trkpt><trkpt lat="43.8884" lon="11.2881167"><ele>319.0</ele><time>2026-05-02T10:00:54.727Z</time></trkpt><trkpt lat="43.888215" lon="11.288255"><ele>318.66666666666663</ele><time>2026-05-02T10:00:55.728Z</time></trkpt><trkpt lat="43.8880433" lon="11.28842"><ele>318.3333333333333</ele><time>2026-05-02T10:00:56.729Z</time></trkpt><trkpt lat="43.88789" lon="11.2885883"><ele>318.0</ele><time>2026-05-02T10:00:57.726Z</time></trkpt><trkpt lat="43.88776" lon="11.2887467"><ele>318.0</ele><time>2026-05-02T10:00:58.728Z</time></trkpt><trkpt lat="43.8876233" lon="11.2888717"><ele>318.0</ele><time>2026-05-02T10:00:59.727Z</time></trkpt><trkpt lat="43.8874717" lon="11.2889483"><ele>318.0</ele><time>2026-05-02T10:01:00.727Z</time></trkpt><trkpt lat="43.8872967" lon="11.2889717"><ele>318.3333333333333</ele><time>2026-05-02T10:01:01.727Z</time></trkpt><trkpt lat="43.8871183" lon="11.288965"><ele>318.66666666666663</ele><time>2026-05-02T10:01:02.728Z</time></trkpt><trkpt lat="43.886945" lon="11.2889367"><ele>319.0</ele><time>2026-05-02T10:01:03.727Z</time></trkpt><trkpt lat="43.88679" lon="11.28888"><ele>324.3333333333333</ele><time>2026-05-02T10:01:04.726Z</time></trkpt><trkpt lat="43.8866367" lon="11.28878"><ele>329.6666666666667</ele><time>2026-05-02T10:01:05.727Z</time></trkpt><trkpt lat="43.8864817" lon="11.2886767"><ele>335.0</ele><time>2026-05-02T10:01:06.728Z</time></trkpt><trkpt lat="43.8863133" lon="11.2886"><ele>335.0</ele><time>2026-05-02T10:01:07.727Z</time></trkpt><trkpt lat="43.8861283" lon="11.28857"><ele>335.0</ele><time>2026-05-02T10:01:08.728Z</time></trkpt><trkpt lat="43.8859367" lon="11.2885683"><ele>335.0</ele><time>2026-05-02T10:01:09.728Z</time></trkpt><trkpt lat="43.8857467" lon="11.2885967"><ele>333.6666666666667</ele><time>2026-05-02T10:01:10.727Z</time></trkpt><trkpt lat="43.88556" lon="11.2886533"><ele>332.3333333333333</ele><time>2026-05-02T10:01:11.728Z</time></trkpt><trkpt lat="43.8853767" lon="11.2887083"><ele>331.0</ele><time>2026-05-02T10:01:12.728Z</time></trkpt><trkpt lat="43.8852083" lon="11.2887633"><ele>335.0</ele><time>2026-05-02T10:01:13.726Z</time></trkpt><trkpt lat="43.8850483" lon="11.288815"><ele>339.0</ele><time>2026-05-02T10:01:14.728Z</time></trkpt><trkpt lat="43.8849017" lon="11.2888633"><ele>343.0</ele><time>2026-05-02T10:01:15.729Z</time></trkpt><trkpt lat="43.8847583" lon="11.28891"><ele>338.5</ele><time>2026-05-02T10:01:16.727Z</time></trkpt><trkpt lat="43.8846217" lon="11.2889533"><ele>334.0</ele><time>2026-05-02T10:01:17.729Z</time></trkpt><trkpt lat="43.8844967" lon="11.288985"><ele>329.5</ele><time>2026-05-02T10:01:18.728Z</time></trkpt><trkpt lat="43.88439" lon="11.28902"><ele>325.0</ele><time>2026-05-02T10:01:19.727Z</time></trkpt><trkpt lat="43.8843" lon="11.28905"><ele>326.0</ele><time>2026-05-02T10:01:20.728Z</time></trkpt><trkpt lat="43.88422" lon="11.28907"><ele>327.0</ele><time>2026-05-02T10:01:21.727Z</time></trkpt><trkpt lat="43.8841483" lon="11.2890883"><ele>328.0</ele><time>2026-05-02T10:01:22.728Z</time></trkpt><trkpt lat="43.8840333" lon="11.2891133"><ele>329.0</ele><time>2026-05-02T10:01:24.728Z</time></trkpt><trkpt lat="43.8839617" lon="11.2891367"><ele>330.0</ele><time>2026-05-02T10:01:27.728Z</time></trkpt><trkpt lat="43.8838817" lon="11.289155"><ele>331.0</ele><time>2026-05-02T10:01:33.727Z</time></trkpt><trkpt lat="43.8837833" lon="11.2891733"><ele>331.0</ele><time>2026-05-02T10:02:04.729Z</time></trkpt><trkpt lat="43.8837083" lon="11.2891683"><ele>331.0</ele><time>2026-05-02T10:02:05.727Z</time></trkpt><trkpt lat="43.88362" lon="11.28914"><ele>331.0</ele><time>2026-05-02T10:02:06.727Z</time></trkpt><trkpt lat="43.8835217" lon="11.28905"><ele>331.0</ele><time>2026-05-02T10:02:07.728Z</time></trkpt><trkpt lat="43.8834283" lon="11.2889383"><ele>331.0</ele><time>2026-05-02T10:02:08.728Z</time></trkpt><trkpt lat="43.8833367" lon="11.28882"><ele>338.5</ele><time>2026-05-02T10:02:09.729Z</time></trkpt><trkpt lat="43.88324" lon="11.288705"><ele>346.0</ele><time>2026-05-02T10:02:10.728Z</time></trkpt><trkpt lat="43.8831317" lon="11.2886183"><ele>353.5</ele><time>2026-05-02T10:02:11.728Z</time></trkpt><trkpt lat="43.8830133" lon="11.28854"><ele>361.0</ele><time>2026-05-02T10:02:12.726Z</time></trkpt><trkpt lat="43.8828883" lon="11.2884833"><ele>361.0</ele><time>2026-05-02T10:02:13.726Z</time></trkpt><trkpt lat="43.8827633" lon="11.2884533"><ele>361.0</ele><time>2026-05-02T10:02:14.728Z</time></trkpt><trkpt lat="43.8826233" lon="11.2884517"><ele>361.0</ele><time>2026-05-02T10:02:15.728Z</time></trkpt><trkpt lat="43.8824767" lon="11.2884767"><ele>361.0</ele><time>2026-05-02T10:02:16.728Z</time></trkpt><trkpt lat="43.8823133" lon="11.2885083"><ele>355.0</ele><time>2026-05-02T10:02:17.728Z</time></trkpt><trkpt lat="43.8821417" lon="11.2885417"><ele>349.0</ele><time>2026-05-02T10:02:18.727Z</time></trkpt><trkpt lat="43.88197" lon="11.2885917"><ele>343.0</ele><time>2026-05-02T10:02:19.728Z</time></trkpt><trkpt lat="43.8817933" lon="11.2886367"><ele>344.0</ele><time>2026-05-02T10:02:20.727Z</time></trkpt><trkpt lat="43.8816133" lon="11.2886883"><ele>345.0</ele><time>2026-05-02T10:02:21.728Z</time></trkpt><trkpt lat="43.8814367" lon="11.288745"><ele>346.0</ele><time>2026-05-02T10:02:22.728Z</time></trkpt><trkpt lat="43.88126" lon="11.288805"><ele>346.0</ele><time>2026-05-02T10:02:23.727Z</time></trkpt><trkpt lat="43.8810817" lon="11.288855"><ele>346.0</ele><time>2026-05-02T10:02:24.727Z</time></trkpt><trkpt lat="43.8809167" lon="11.2889"><ele>346.0</ele><time>2026-05-02T10:02:25.726Z</time></trkpt><trkpt lat="43.8807667" lon="11.28895"><ele>341.0</ele><time>2026-05-02T10:02:26.728Z</time></trkpt><trkpt lat="43.8806083" lon="11.2889833"><ele>336.0</ele><time>2026-05-02T10:02:27.727Z</time></trkpt><trkpt lat="43.8804583" lon="11.2890083"><ele>331.0</ele><time>2026-05-02T10:02:28.727Z</time></trkpt><trkpt lat="43.880305" lon="11.2890133"><ele>331.0</ele><time>2026-05-02T10:02:29.728Z</time></trkpt><trkpt lat="43.8801483" lon="11.2890033"><ele>331.0</ele><time>2026-05-02T10:02:30.726Z</time></trkpt><trkpt lat="43.879985" lon="11.2889967"><ele>331.0</ele><time>2026-05-02T10:02:31.735Z</time></trkpt><trkpt lat="43.8798183" lon="11.2890133"><ele>332.0</ele><time>2026-05-02T10:02:32.731Z</time></trkpt><trkpt lat="43.87966" lon="11.2890583"><ele>333.0</ele><time>2026-05-02T10:02:33.728Z</time></trkpt><trkpt lat="43.8794983" lon="11.2891183"><ele>334.0</ele><time>2026-05-02T10:02:34.727Z</time></trkpt><trkpt lat="43.8793517" lon="11.28921"><ele>336.3333333333333</ele><time>2026-05-02T10:02:35.727Z</time></trkpt><trkpt lat="43.87921" lon="11.289315"><ele>338.6666666666667</ele><time>2026-05-02T10:02:36.728Z</time></trkpt><trkpt lat="43.8790717" lon="11.2894367"><ele>341.0</ele><time>2026-05-02T10:02:37.728Z</time></trkpt><trkpt lat="43.878945" lon="11.2895883"><ele>341.0</ele><time>2026-05-02T10:02:38.728Z</time></trkpt><trkpt lat="43.87882" lon="11.289755"><ele>341.0</ele><time>2026-05-02T10:02:39.729Z</time></trkpt><trkpt lat="43.8786967" lon="11.28993"><ele>341.0</ele><time>2026-05-02T10:02:40.727Z</time></trkpt><trkpt lat="43.87858" lon="11.2901017"><ele>341.5</ele><time>2026-05-02T10:02:41.729Z</time></trkpt><trkpt lat="43.878455" lon="11.2902567"><ele>342.0</ele><time>2026-05-02T10:02:42.728Z</time></trkpt><trkpt lat="43.87815" lon="11.29051"><ele>340.0</ele><time>2026-05-02T10:02:44.728Z</time></trkpt><trkpt lat="43.8779883" lon="11.2906133"><ele>338.0</ele><time>2026-05-02T10:02:45.727Z</time></trkpt><trkpt lat="43.8778267" lon="11.29072"><ele>336.0</ele><time>2026-05-02T10:02:46.727Z</time></trkpt><trkpt lat="43.87767" lon="11.2908267"><ele>337.6666666666667</ele><time>2026-05-02T10:02:47.727Z</time></trkpt><trkpt lat="43.8775117" lon="11.2909317"><ele>339.33333333333337</ele><time>2026-05-02T10:02:48.728Z</time></trkpt><trkpt lat="43.87736" lon="11.291035"><ele>341.0</ele><time>2026-05-02T10:02:49.728Z</time></trkpt><trkpt lat="43.877205" lon="11.2911283"><ele>341.0</ele><time>2026-05-02T10:02:50.728Z</time></trkpt><trkpt lat="43.8770533" lon="11.2912233"><ele>341.0</ele><time>2026-05-02T10:02:51.728Z</time></trkpt><trkpt lat="43.8769" lon="11.2913117"><ele>341.0</ele><time>2026-05-02T10:02:52.728Z</time></trkpt><trkpt lat="43.8767433" lon="11.2913833"><ele>341.0</ele><time>2026-05-02T10:02:53.726Z</time></trkpt><trkpt lat="43.8765833" lon="11.291435"><ele>341.0</ele><time>2026-05-02T10:02:54.727Z</time></trkpt><trkpt lat="43.8764217" lon="11.291465"><ele>341.0</ele><time>2026-05-02T10:02:55.727Z</time></trkpt><trkpt lat="43.8762683" lon="11.2914867"><ele>341.0</ele><time>2026-05-02T10:02:56.726Z</time></trkpt><trkpt lat="43.8761217" lon="11.291525"><ele>341.0</ele><time>2026-05-02T10:02:57.727Z</time></trkpt><trkpt lat="43.8759767" lon="11.2915817"><ele>341.0</ele><time>2026-05-02T10:02:58.726Z</time></trkpt><trkpt lat="43.8758367" lon="11.2916517"><ele>341.0</ele><time>2026-05-02T10:02:59.727Z</time></trkpt><trkpt lat="43.8757017" lon="11.29173"><ele>341.5</ele><time>2026-05-02T10:03:00.728Z</time></trkpt><trkpt lat="43.875575" lon="11.291795"><ele>342.0</ele><time>2026-05-02T10:03:01.726Z</time></trkpt><trkpt lat="43.8754567" lon="11.2918567"><ele>342.5</ele><time>2026-05-02T10:03:02.729Z</time></trkpt><trkpt lat="43.875335" lon="11.29191"><ele>343.0</ele><time>2026-05-02T10:03:03.727Z</time></trkpt><trkpt lat="43.8752067" lon="11.2919467"><ele>344.25</ele><time>2026-05-02T10:03:04.727Z</time></trkpt><trkpt lat="43.8750683" lon="11.291945"><ele>345.5</ele><time>2026-05-02T10:03:05.728Z</time></trkpt><trkpt lat="43.87493" lon="11.2919217"><ele>346.75</ele><time>2026-05-02T10:03:06.726Z</time></trkpt><trkpt lat="43.8747967" lon="11.2918867"><ele>348.0</ele><time>2026-05-02T10:03:07.727Z</time></trkpt><trkpt lat="43.87467" lon="11.2918333"><ele>348.0</ele><time>2026-05-02T10:03:08.728Z</time></trkpt><trkpt lat="43.8745433" lon="11.2917667"><ele>348.0</ele><time>2026-05-02T10:03:09.728Z</time></trkpt><trkpt lat="43.8744167" lon="11.2916933"><ele>348.0</ele><time>2026-05-02T10:03:10.728Z</time></trkpt><trkpt lat="43.874285" lon="11.2916167"><ele>348.0</ele><time>2026-05-02T10:03:11.728Z</time></trkpt><trkpt lat="43.8741583" lon="11.2915383"><ele>347.75</ele><time>2026-05-02T10:03:12.728Z</time></trkpt><trkpt lat="43.874035" lon="11.291455"><ele>347.5</ele><time>2026-05-02T10:03:13.728Z</time></trkpt><trkpt lat="43.8739117" lon="11.291375"><ele>347.25</ele><time>2026-05-02T10:03:14.728Z</time></trkpt><trkpt lat="43.8737867" lon="11.2912883"><ele>347.0</ele><time>2026-05-02T10:03:15.726Z</time></trkpt><trkpt lat="43.87366" lon="11.2912017"><ele>348.5</ele><time>2026-05-02T10:03:16.726Z</time></trkpt><trkpt lat="43.8735317" lon="11.2911067"><ele>350.0</ele><time>2026-05-02T10:03:17.732Z</time></trkpt><trkpt lat="43.8733983" lon="11.29101"><ele>351.5</ele><time>2026-05-02T10:03:18.728Z</time></trkpt><trkpt lat="43.8732667" lon="11.2909233"><ele>353.0</ele><time>2026-05-02T10:03:19.728Z</time></trkpt><trkpt lat="43.8731283" lon="11.2908617"><ele>353.0</ele><time>2026-05-02T10:03:20.729Z</time></trkpt><trkpt lat="43.87299" lon="11.29082"><ele>353.0</ele><time>2026-05-02T10:03:21.728Z</time></trkpt><trkpt lat="43.8728467" lon="11.2908117"><ele>353.0</ele><time>2026-05-02T10:03:22.728Z</time></trkpt><trkpt lat="43.8727017" lon="11.2908433"><ele>353.0</ele><time>2026-05-02T10:03:23.726Z</time></trkpt><trkpt lat="43.8725517" lon="11.290895"><ele>355.0</ele><time>2026-05-02T10:03:24.726Z</time></trkpt><trkpt lat="43.8724" lon="11.2909617"><ele>357.0</ele><time>2026-05-02T10:03:25.727Z</time></trkpt><trkpt lat="43.8722433" lon="11.291035"><ele>359.0</ele><time>2026-05-02T10:03:26.727Z</time></trkpt><trkpt lat="43.8720867" lon="11.2911183"><ele>359.0</ele><time>2026-05-02T10:03:27.728Z</time></trkpt><trkpt lat="43.8719267" lon="11.2912033"><ele>359.0</ele><time>2026-05-02T10:03:28.728Z</time></trkpt><trkpt lat="43.8717817" lon="11.2912867"><ele>359.0</ele><time>2026-05-02T10:03:29.727Z</time></trkpt><trkpt lat="43.87164" lon="11.2913667"><ele>358.0</ele><time>2026-05-02T10:03:30.728Z</time></trkpt><trkpt lat="43.8715" lon="11.2914433"><ele>357.0</ele><time>2026-05-02T10:03:31.728Z</time></trkpt><trkpt lat="43.8713583" lon="11.291505"><ele>356.0</ele><time>2026-05-02T10:03:32.729Z</time></trkpt><trkpt lat="43.8712083" lon="11.29153"><ele>356.0</ele><time>2026-05-02T10:03:33.727Z</time></trkpt><trkpt lat="43.8710467" lon="11.291515"><ele>356.0</ele><time>2026-05-02T10:03:34.728Z</time></trkpt><trkpt lat="43.87087" lon="11.29148"><ele>356.0</ele><time>2026-05-02T10:03:35.735Z</time></trkpt><trkpt lat="43.8706767" lon="11.2914417"><ele>358.6666666666667</ele><time>2026-05-02T10:03:36.727Z</time></trkpt><trkpt lat="43.870475" lon="11.2914183"><ele>361.3333333333333</ele><time>2026-05-02T10:03:37.729Z</time></trkpt><trkpt lat="43.8702717" lon="11.2914117"><ele>364.0</ele><time>2026-05-02T10:03:38.728Z</time></trkpt><trkpt lat="43.8700783" lon="11.2914283"><ele>364.0</ele><time>2026-05-02T10:03:39.728Z</time></trkpt><trkpt lat="43.8699033" lon="11.2914567"><ele>364.0</ele><time>2026-05-02T10:03:40.728Z</time></trkpt><trkpt lat="43.8697483" lon="11.2914967"><ele>364.0</ele><time>2026-05-02T10:03:41.728Z</time></trkpt><trkpt lat="43.8696117" lon="11.2915667"><ele>364.0</ele><time>2026-05-02T10:03:42.727Z</time></trkpt><trkpt lat="43.8694983" lon="11.2916917"><ele>364.0</ele><time>2026-05-02T10:03:43.726Z</time></trkpt><trkpt lat="43.86942" lon="11.2918567"><ele>364.0</ele><time>2026-05-02T10:03:44.728Z</time></trkpt><trkpt lat="43.86937" lon="11.2920617"><ele>364.0</ele><time>2026-05-02T10:03:45.726Z</time></trkpt><trkpt lat="43.8693233" lon="11.2922917"><ele>364.3333333333333</ele><time>2026-05-02T10:03:46.727Z</time></trkpt><trkpt lat="43.86928" lon="11.29252"><ele>364.6666666666667</ele><time>2026-05-02T10:03:47.729Z</time></trkpt><trkpt lat="43.869235" lon="11.29274"><ele>365.0</ele><time>2026-05-02T10:03:48.73Z</time></trkpt><trkpt lat="43.8691767" lon="11.2929517"><ele>370.6666666666667</ele><time>2026-05-02T10:03:49.727Z</time></trkpt><trkpt lat="43.8690933" lon="11.2931533"><ele>376.3333333333333</ele><time>2026-05-02T10:03:50.728Z</time></trkpt><trkpt lat="43.8689917" lon="11.2933483"><ele>382.0</ele><time>2026-05-02T10:03:51.73Z</time></trkpt><trkpt lat="43.8688767" lon="11.2935383"><ele>382.0</ele><time>2026-05-02T10:03:52.729Z</time></trkpt><trkpt lat="43.8687433" lon="11.29373"><ele>382.0</ele><time>2026-05-02T10:03:53.727Z</time></trkpt><trkpt lat="43.8686233" lon="11.2939167"><ele>382.0</ele><time>2026-05-02T10:03:54.73Z</time></trkpt><trkpt lat="43.868505" lon="11.2940967"><ele>387.3333333333333</ele><time>2026-05-02T10:03:55.731Z</time></trkpt><trkpt lat="43.86838" lon="11.2942767"><ele>392.66666666666663</ele><time>2026-05-02T10:03:56.728Z</time></trkpt><trkpt lat="43.8682533" lon="11.2944533"><ele>398.0</ele><time>2026-05-02T10:03:57.727Z</time></trkpt><trkpt lat="43.8681117" lon="11.29462"><ele>395.3333333333333</ele><time>2026-05-02T10:03:58.728Z</time></trkpt><trkpt lat="43.86796" lon="11.29477"><ele>392.66666666666663</ele><time>2026-05-02T10:03:59.728Z</time></trkpt><trkpt lat="43.8678183" lon="11.29491"><ele>390.0</ele><time>2026-05-02T10:04:00.727Z</time></trkpt><trkpt lat="43.8677017" lon="11.2950433"><ele>390.0</ele><time>2026-05-02T10:04:01.726Z</time></trkpt><trkpt lat="43.86762" lon="11.2951867"><ele>390.0</ele><time>2026-05-02T10:04:02.728Z</time></trkpt><trkpt lat="43.8675733" lon="11.2953533"><ele>390.0</ele><time>2026-05-02T10:04:03.727Z</time></trkpt><trkpt lat="43.867565" lon="11.29555"><ele>390.0</ele><time>2026-05-02T10:04:04.728Z</time></trkpt><trkpt lat="43.8675583" lon="11.2957633"><ele>393.25</ele><time>2026-05-02T10:04:05.726Z</time></trkpt><trkpt lat="43.8675433" lon="11.2959617"><ele>396.5</ele><time>2026-05-02T10:04:06.729Z</time></trkpt><trkpt lat="43.8675017" lon="11.2961383"><ele>399.75</ele><time>2026-05-02T10:04:07.728Z</time></trkpt><trkpt lat="43.8674167" lon="11.2962917"><ele>403.0</ele><time>2026-05-02T10:04:08.729Z</time></trkpt><trkpt lat="43.867295" lon="11.296425"><ele>404.0</ele><time>2026-05-02T10:04:09.727Z</time></trkpt><trkpt lat="43.867145" lon="11.2965333"><ele>405.0</ele><time>2026-05-02T10:04:10.727Z</time></trkpt><trkpt lat="43.8669733" lon="11.29663"><ele>406.0</ele><time>2026-05-02T10:04:11.728Z</time></trkpt><trkpt lat="43.8667883" lon="11.2967217"><ele>408.33333333333337</ele><time>2026-05-02T10:04:12.728Z</time></trkpt><trkpt lat="43.866605" lon="11.296815"><ele>410.66666666666663</ele><time>2026-05-02T10:04:13.726Z</time></trkpt><trkpt lat="43.8664183" lon="11.2969183"><ele>413.0</ele><time>2026-05-02T10:04:14.73Z</time></trkpt><trkpt lat="43.8662317" lon="11.2970333"><ele>413.0</ele><time>2026-05-02T10:04:15.727Z</time></trkpt><trkpt lat="43.8660517" lon="11.297155"><ele>413.0</ele><time>2026-05-02T10:04:16.727Z</time></trkpt><trkpt lat="43.86587" lon="11.2972733"><ele>413.0</ele><time>2026-05-02T10:04:17.728Z</time></trkpt><trkpt lat="43.8657" lon="11.2973983"><ele>417.0</ele><time>2026-05-02T10:04:18.728Z</time></trkpt><trkpt lat="43.865545" lon="11.2975283"><ele>421.0</ele><time>2026-05-02T10:04:19.726Z</time></trkpt><trkpt lat="43.8654167" lon="11.29766"><ele>425.0</ele><time>2026-05-02T10:04:20.728Z</time></trkpt><trkpt lat="43.8653233" lon="11.2977817"><ele>425.0</ele><time>2026-05-02T10:04:21.728Z</time></trkpt><trkpt lat="43.8652717" lon="11.2979033"><ele>425.0</ele><time>2026-05-02T10:04:22.731Z</time></trkpt><trkpt lat="43.8652617" lon="11.2980467"><ele>425.0</ele><time>2026-05-02T10:04:23.728Z</time></trkpt><trkpt lat="43.8653017" lon="11.2982083"><ele>425.0</ele><time>2026-05-02T10:04:24.728Z</time></trkpt><trkpt lat="43.865355" lon="11.2983917"><ele>425.0</ele><time>2026-05-02T10:04:25.728Z</time></trkpt><trkpt lat="43.8654017" lon="11.2985667"><ele>425.0</ele><time>2026-05-02T10:04:26.727Z</time></trkpt><trkpt lat="43.86542" lon="11.2987217"><ele>425.0</ele><time>2026-05-02T10:04:27.727Z</time></trkpt><trkpt lat="43.865395" lon="11.2988617"><ele>425.0</ele><time>2026-05-02T10:04:28.727Z</time></trkpt><trkpt lat="43.8653233" lon="11.298975"><ele>426.66666666666663</ele><time>2026-05-02T10:04:29.727Z</time></trkpt><trkpt lat="43.865215" lon="11.299065"><ele>428.33333333333337</ele><time>2026-05-02T10:04:30.729Z</time></trkpt><trkpt lat="43.865065" lon="11.2991533"><ele>430.0</ele><time>2026-05-02T10:04:31.727Z</time></trkpt><trkpt lat="43.8648983" lon="11.299265"><ele>435.0</ele><time>2026-05-02T10:04:32.727Z</time></trkpt><trkpt lat="43.86473" lon="11.2993967"><ele>440.0</ele><time>2026-05-02T10:04:33.727Z</time></trkpt><trkpt lat="43.8645617" lon="11.299535"><ele>445.0</ele><time>2026-05-02T10:04:34.727Z</time></trkpt><trkpt lat="43.8643883" lon="11.2996817"><ele>449.6666666666667</ele><time>2026-05-02T10:04:35.728Z</time></trkpt><trkpt lat="43.86422" lon="11.2998317"><ele>454.33333333333337</ele><time>2026-05-02T10:04:36.727Z</time></trkpt><trkpt lat="43.8640567" lon="11.2999833"><ele>459.0</ele><time>2026-05-02T10:04:37.726Z</time></trkpt><trkpt lat="43.863895" lon="11.30013"><ele>459.0</ele><time>2026-05-02T10:04:38.728Z</time></trkpt><trkpt lat="43.8637367" lon="11.3002733"><ele>459.0</ele><time>2026-05-02T10:04:39.728Z</time></trkpt><trkpt lat="43.8635783" lon="11.3004167"><ele>459.0</ele><time>2026-05-02T10:04:40.729Z</time></trkpt><trkpt lat="43.8634267" lon="11.3005517"><ele>461.66666666666663</ele><time>2026-05-02T10:04:41.728Z</time></trkpt><trkpt lat="43.863285" lon="11.3006783"><ele>464.3333333333333</ele><time>2026-05-02T10:04:42.727Z</time></trkpt><trkpt lat="43.8631583" lon="11.3007983"><ele>467.0</ele><time>2026-05-02T10:04:43.727Z</time></trkpt><trkpt lat="43.863025" lon="11.3008967"><ele>467.0</ele><time>2026-05-02T10:04:44.728Z</time></trkpt><trkpt lat="43.8629033" lon="11.30097"><ele>467.00000000000006</ele><time>2026-05-02T10:04:45.728Z</time></trkpt><trkpt lat="43.86279" lon="11.3010017"><ele>467.00000000000006</ele><time>2026-05-02T10:04:46.728Z</time></trkpt><trkpt lat="43.86269" lon="11.3009933"><ele>467.0</ele><time>2026-05-02T10:04:47.728Z</time></trkpt><trkpt lat="43.8626017" lon="11.3009367"><ele>467.0</ele><time>2026-05-02T10:04:48.727Z</time></trkpt><trkpt lat="43.8625267" lon="11.3008217"><ele>468.75</ele><time>2026-05-02T10:04:49.727Z</time></trkpt><trkpt lat="43.8624633" lon="11.3006917"><ele>470.5</ele><time>2026-05-02T10:04:50.728Z</time></trkpt><trkpt lat="43.8623983" lon="11.3005517"><ele>472.25</ele><time>2026-05-02T10:04:51.726Z</time></trkpt><trkpt lat="43.8623267" lon="11.30041"><ele>474.0</ele><time>2026-05-02T10:04:52.729Z</time></trkpt><trkpt lat="43.8622517" lon="11.3002833"><ele>474.79999999999995</ele><time>2026-05-02T10:04:53.727Z</time></trkpt><trkpt lat="43.8621817" lon="11.300165"><ele>475.59999999999997</ele><time>2026-05-02T10:04:54.728Z</time></trkpt><trkpt lat="43.8621117" lon="11.30007"><ele>476.4</ele><time>2026-05-02T10:04:55.728Z</time></trkpt><trkpt lat="43.8620383" lon="11.2999633"><ele>477.2</ele><time>2026-05-02T10:04:56.728Z</time></trkpt><trkpt lat="43.8619633" lon="11.2998567"><ele>478.0</ele><time>2026-05-02T10:04:57.727Z</time></trkpt><trkpt lat="43.861895" lon="11.299765"><ele>477.4</ele><time>2026-05-02T10:04:58.729Z</time></trkpt><trkpt lat="43.8618267" lon="11.29967"><ele>476.79999999999995</ele><time>2026-05-02T10:04:59.727Z</time></trkpt><trkpt lat="43.8617533" lon="11.2995717"><ele>476.2</ele><time>2026-05-02T10:05:00.729Z</time></trkpt><trkpt lat="43.8616767" lon="11.2994667"><ele>475.6</ele><time>2026-05-02T10:05:01.727Z</time></trkpt><trkpt lat="43.861605" lon="11.299365"><ele>475.0</ele><time>2026-05-02T10:05:02.729Z</time></trkpt><trkpt lat="43.8615367" lon="11.2992667"><ele>475.0</ele><time>2026-05-02T10:05:03.727Z</time></trkpt><trkpt lat="43.86147" lon="11.29918"><ele>475.0</ele><time>2026-05-02T10:05:04.728Z</time></trkpt><trkpt lat="43.861405" lon="11.2990967"><ele>475.0</ele><time>2026-05-02T10:05:05.727Z</time></trkpt><trkpt lat="43.8613367" lon="11.2990183"><ele>475.0</ele><time>2026-05-02T10:05:06.728Z</time></trkpt><trkpt lat="43.861265" lon="11.2989367"><ele>475.0</ele><time>2026-05-02T10:05:07.728Z</time></trkpt><trkpt lat="43.8611883" lon="11.2988567"><ele>476.25</ele><time>2026-05-02T10:05:08.728Z</time></trkpt><trkpt lat="43.861105" lon="11.2987667"><ele>477.5</ele><time>2026-05-02T10:05:09.728Z</time></trkpt><trkpt lat="43.861015" lon="11.2986783"><ele>478.75</ele><time>2026-05-02T10:05:10.728Z</time></trkpt><trkpt lat="43.8609167" lon="11.29859"><ele>480.0</ele><time>2026-05-02T10:05:11.728Z</time></trkpt><trkpt lat="43.8608" lon="11.298515"><ele>476.75</ele><time>2026-05-02T10:05:12.727Z</time></trkpt><trkpt lat="43.8606633" lon="11.298455"><ele>473.5</ele><time>2026-05-02T10:05:13.727Z</time></trkpt><trkpt lat="43.860525" lon="11.2984133"><ele>470.25</ele><time>2026-05-02T10:05:14.727Z</time></trkpt><trkpt lat="43.8603733" lon="11.298375"><ele>467.0</ele><time>2026-05-02T10:05:15.727Z</time></trkpt><trkpt lat="43.8602117" lon="11.298335"><ele>463.66666666666663</ele><time>2026-05-02T10:05:16.728Z</time></trkpt><trkpt lat="43.86004" lon="11.2982983"><ele>460.33333333333337</ele><time>2026-05-02T10:05:17.729Z</time></trkpt><trkpt lat="43.8598717" lon="11.298255"><ele>457.0</ele><time>2026-05-02T10:05:18.726Z</time></trkpt><trkpt lat="43.8597117" lon="11.2982233"><ele>457.0</ele><time>2026-05-02T10:05:19.728Z</time></trkpt><trkpt lat="43.8595517" lon="11.2981883"><ele>457.0</ele><time>2026-05-02T10:05:20.728Z</time></trkpt><trkpt lat="43.8593833" lon="11.29816"><ele>457.0</ele><time>2026-05-02T10:05:21.728Z</time></trkpt><trkpt lat="43.85921" lon="11.2981333"><ele>458.33333333333337</ele><time>2026-05-02T10:05:22.728Z</time></trkpt><trkpt lat="43.8590333" lon="11.2981067"><ele>459.66666666666663</ele><time>2026-05-02T10:05:23.728Z</time></trkpt><trkpt lat="43.858855" lon="11.2980833"><ele>461.0</ele><time>2026-05-02T10:05:24.728Z</time></trkpt><trkpt lat="43.8586733" lon="11.2980467"><ele>461.0</ele><time>2026-05-02T10:05:25.728Z</time></trkpt><trkpt lat="43.858495" lon="11.298015"><ele>461.0</ele><time>2026-05-02T10:05:26.728Z</time></trkpt><trkpt lat="43.8583117" lon="11.2979783"><ele>461.0</ele><time>2026-05-02T10:05:27.727Z</time></trkpt><trkpt lat="43.8581333" lon="11.2979417"><ele>462.0</ele><time>2026-05-02T10:05:28.728Z</time></trkpt><trkpt lat="43.857965" lon="11.297915"><ele>463.0</ele><time>2026-05-02T10:05:29.728Z</time></trkpt><trkpt lat="43.8578067" lon="11.2978833"><ele>464.0</ele><time>2026-05-02T10:05:30.727Z</time></trkpt><trkpt lat="43.8576617" lon="11.297845"><ele>461.25</ele><time>2026-05-02T10:05:31.728Z</time></trkpt><trkpt lat="43.8575317" lon="11.2977883"><ele>458.5</ele><time>2026-05-02T10:05:32.729Z</time></trkpt><trkpt lat="43.857415" lon="11.2976967"><ele>455.75</ele><time>2026-05-02T10:05:33.726Z</time></trkpt><trkpt lat="43.8573083" lon="11.2975617"><ele>453.0</ele><time>2026-05-02T10:05:34.727Z</time></trkpt><trkpt lat="43.8572017" lon="11.297405"><ele>459.0</ele><time>2026-05-02T10:05:35.728Z</time></trkpt><trkpt lat="43.8570833" lon="11.2972467"><ele>465.0</ele><time>2026-05-02T10:05:36.728Z</time></trkpt><trkpt lat="43.8569517" lon="11.29709"><ele>471.0</ele><time>2026-05-02T10:05:37.728Z</time></trkpt><trkpt lat="43.8568067" lon="11.29694"><ele>466.0</ele><time>2026-05-02T10:05:38.728Z</time></trkpt><trkpt lat="43.8566517" lon="11.2968033"><ele>461.0</ele><time>2026-05-02T10:05:39.727Z</time></trkpt><trkpt lat="43.85649" lon="11.296675"><ele>456.0</ele><time>2026-05-02T10:05:40.727Z</time></trkpt><trkpt lat="43.85633" lon="11.2965433"><ele>456.0</ele><time>2026-05-02T10:05:41.728Z</time></trkpt><trkpt lat="43.856175" lon="11.2964217"><ele>456.0</ele><time>2026-05-02T10:05:42.726Z</time></trkpt><trkpt lat="43.8560217" lon="11.2963133"><ele>456.0</ele><time>2026-05-02T10:05:43.727Z</time></trkpt><trkpt lat="43.8558667" lon="11.2962217"><ele>454.0</ele><time>2026-05-02T10:05:44.728Z</time></trkpt><trkpt lat="43.8557083" lon="11.29614"><ele>452.0</ele><time>2026-05-02T10:05:45.728Z</time></trkpt><trkpt lat="43.855535" lon="11.2960783"><ele>450.0</ele><time>2026-05-02T10:05:46.728Z</time></trkpt><trkpt lat="43.8553533" lon="11.29605"><ele>450.0</ele><time>2026-05-02T10:05:47.727Z</time></trkpt><trkpt lat="43.855165" lon="11.296035"><ele>450.0</ele><time>2026-05-02T10:05:48.729Z</time></trkpt><trkpt lat="43.8549767" lon="11.2960483"><ele>450.0</ele><time>2026-05-02T10:05:49.727Z</time></trkpt><trkpt lat="43.854795" lon="11.2961"><ele>448.0</ele><time>2026-05-02T10:05:50.73Z</time></trkpt><trkpt lat="43.8546183" lon="11.2961717"><ele>446.0</ele><time>2026-05-02T10:05:51.728Z</time></trkpt><trkpt lat="43.85445" lon="11.2962683"><ele>444.0</ele><time>2026-05-02T10:05:52.728Z</time></trkpt><trkpt lat="43.8542933" lon="11.2963833"><ele>443.0</ele><time>2026-05-02T10:05:53.728Z</time></trkpt><trkpt lat="43.85414" lon="11.2965133"><ele>442.0</ele><time>2026-05-02T10:05:54.729Z</time></trkpt><trkpt lat="43.854005" lon="11.2966933"><ele>441.0</ele><time>2026-05-02T10:05:55.727Z</time></trkpt><trkpt lat="43.8539" lon="11.2968933"><ele>441.0</ele><time>2026-05-02T10:05:56.728Z</time></trkpt><trkpt lat="43.8537817" lon="11.2970917"><ele>441.0</ele><time>2026-05-02T10:05:57.727Z</time></trkpt><trkpt lat="43.8536517" lon="11.29726"><ele>441.0</ele><time>2026-05-02T10:05:58.727Z</time></trkpt><trkpt lat="43.85351" lon="11.297395"><ele>441.0</ele><time>2026-05-02T10:05:59.727Z</time></trkpt><trkpt lat="43.8533533" lon="11.2974867"><ele>441.0</ele><time>2026-05-02T10:06:00.727Z</time></trkpt><trkpt lat="43.8531933" lon="11.297545"><ele>441.0</ele><time>2026-05-02T10:06:01.728Z</time></trkpt><trkpt lat="43.8530367" lon="11.29756"><ele>441.0</ele><time>2026-05-02T10:06:02.728Z</time></trkpt><trkpt lat="43.8528867" lon="11.2975483"><ele>441.0</ele><time>2026-05-02T10:06:03.727Z</time></trkpt><trkpt lat="43.8527433" lon="11.2974883"><ele>441.0</ele><time>2026-05-02T10:06:04.729Z</time></trkpt><trkpt lat="43.852615" lon="11.2973717"><ele>443.0</ele><time>2026-05-02T10:06:05.729Z</time></trkpt><trkpt lat="43.8524917" lon="11.2972167"><ele>445.0</ele><time>2026-05-02T10:06:06.729Z</time></trkpt><trkpt lat="43.8523767" lon="11.297025"><ele>447.0</ele><time>2026-05-02T10:06:07.729Z</time></trkpt><trkpt lat="43.8522817" lon="11.2968133"><ele>447.0</ele><time>2026-05-02T10:06:08.729Z</time></trkpt><trkpt lat="43.8521983" lon="11.2965933"><ele>447.0</ele><time>2026-05-02T10:06:09.728Z</time></trkpt><trkpt lat="43.8520967" lon="11.296395"><ele>447.0</ele><time>2026-05-02T10:06:10.727Z</time></trkpt><trkpt lat="43.8519883" lon="11.2962133"><ele>447.66666666666663</ele><time>2026-05-02T10:06:11.728Z</time></trkpt><trkpt lat="43.8518433" lon="11.296125"><ele>448.3333333333333</ele><time>2026-05-02T10:06:12.729Z</time></trkpt><trkpt lat="43.8517017" lon="11.29602"><ele>449.0</ele><time>2026-05-02T10:06:13.733Z</time></trkpt><trkpt lat="43.8515783" lon="11.29589"><ele>449.0</ele><time>2026-05-02T10:06:14.727Z</time></trkpt><trkpt lat="43.8514783" lon="11.2957183"><ele>449.0</ele><time>2026-05-02T10:06:15.727Z</time></trkpt><trkpt lat="43.85139" lon="11.2955183"><ele>449.0</ele><time>2026-05-02T10:06:16.728Z</time></trkpt><trkpt lat="43.8513033" lon="11.295325"><ele>449.66666666666663</ele><time>2026-05-02T10:06:17.728Z</time></trkpt><trkpt lat="43.851205" lon="11.29516"><ele>450.33333333333337</ele><time>2026-05-02T10:06:18.733Z</time></trkpt><trkpt lat="43.851095" lon="11.2950233"><ele>451.0</ele><time>2026-05-02T10:06:19.726Z</time></trkpt><trkpt lat="43.8509533" lon="11.2949383"><ele>451.0</ele><time>2026-05-02T10:06:20.729Z</time></trkpt><trkpt lat="43.850775" lon="11.294885"><ele>451.0</ele><time>2026-05-02T10:06:21.728Z</time></trkpt><trkpt lat="43.85059" lon="11.294805"><ele>451.0</ele><time>2026-05-02T10:06:22.727Z</time></trkpt><trkpt lat="43.8504133" lon="11.2946917"><ele>451.6666666666667</ele><time>2026-05-02T10:06:23.727Z</time></trkpt><trkpt lat="43.8502483" lon="11.294575"><ele>452.33333333333337</ele><time>2026-05-02T10:06:24.729Z</time></trkpt><trkpt lat="43.850095" lon="11.294465"><ele>453.0</ele><time>2026-05-02T10:06:25.733Z</time></trkpt><trkpt lat="43.8499583" lon="11.294355"><ele>453.0</ele><time>2026-05-02T10:06:26.729Z</time></trkpt><trkpt lat="43.849835" lon="11.2942117"><ele>453.0</ele><time>2026-05-02T10:06:27.727Z</time></trkpt><trkpt lat="43.8497333" lon="11.29403"><ele>453.0</ele><time>2026-05-02T10:06:28.729Z</time></trkpt><trkpt lat="43.8496517" lon="11.2938267"><ele>455.66666666666663</ele><time>2026-05-02T10:06:29.73Z</time></trkpt><trkpt lat="43.84957" lon="11.2936433"><ele>458.3333333333333</ele><time>2026-05-02T10:06:30.728Z</time></trkpt><trkpt lat="43.8494783" lon="11.29348"><ele>461.0</ele><time>2026-05-02T10:06:31.729Z</time></trkpt><trkpt lat="43.8493633" lon="11.2933467"><ele>457.0</ele><time>2026-05-02T10:06:32.729Z</time></trkpt><trkpt lat="43.8492233" lon="11.29321"><ele>453.0</ele><time>2026-05-02T10:06:33.729Z</time></trkpt><trkpt lat="43.8490717" lon="11.2930733"><ele>449.0</ele><time>2026-05-02T10:06:34.728Z</time></trkpt><trkpt lat="43.8489217" lon="11.2929167"><ele>449.0</ele><time>2026-05-02T10:06:35.728Z</time></trkpt><trkpt lat="43.848775" lon="11.2927317"><ele>449.0</ele><time>2026-05-02T10:06:36.727Z</time></trkpt><trkpt lat="43.848625" lon="11.2925633"><ele>449.0</ele><time>2026-05-02T10:06:37.727Z</time></trkpt><trkpt lat="43.8484733" lon="11.2923933"><ele>446.0</ele><time>2026-05-02T10:06:38.729Z</time></trkpt><trkpt lat="43.8483233" lon="11.2922333"><ele>443.0</ele><time>2026-05-02T10:06:39.731Z</time></trkpt><trkpt lat="43.8481783" lon="11.29206"><ele>440.0</ele><time>2026-05-02T10:06:40.728Z</time></trkpt><trkpt lat="43.8480317" lon="11.2919267"><ele>440.0</ele><time>2026-05-02T10:06:41.729Z</time></trkpt><trkpt lat="43.8478783" lon="11.29176"><ele>440.0</ele><time>2026-05-02T10:06:42.729Z</time></trkpt><trkpt lat="43.84772" lon="11.2916533"><ele>440.0</ele><time>2026-05-02T10:06:43.727Z</time></trkpt><trkpt lat="43.8475583" lon="11.2915733"><ele>435.66666666666663</ele><time>2026-05-02T10:06:44.728Z</time></trkpt><trkpt lat="43.8473983" lon="11.291495"><ele>431.33333333333337</ele><time>2026-05-02T10:06:45.728Z</time></trkpt><trkpt lat="43.84724" lon="11.291415"><ele>427.0</ele><time>2026-05-02T10:06:46.73Z</time></trkpt><trkpt lat="43.8470883" lon="11.2913383"><ele>426.5</ele><time>2026-05-02T10:06:47.727Z</time></trkpt><trkpt lat="43.8469467" lon="11.29127"><ele>426.0</ele><time>2026-05-02T10:06:48.728Z</time></trkpt><trkpt lat="43.8468083" lon="11.2912"><ele>425.5</ele><time>2026-05-02T10:06:49.726Z</time></trkpt><trkpt lat="43.8466783" lon="11.291135"><ele>425.0</ele><time>2026-05-02T10:06:50.727Z</time></trkpt><trkpt lat="43.8465517" lon="11.2910733"><ele>423.5</ele><time>2026-05-02T10:06:51.725Z</time></trkpt><trkpt lat="43.8464233" lon="11.291015"><ele>422.0</ele><time>2026-05-02T10:06:52.728Z</time></trkpt><trkpt lat="43.8462917" lon="11.2909583"><ele>420.5</ele><time>2026-05-02T10:06:53.729Z</time></trkpt><trkpt lat="43.8461717" lon="11.2909"><ele>419.0</ele><time>2026-05-02T10:06:54.727Z</time></trkpt><trkpt lat="43.846055" lon="11.2908483"><ele>418.79999999999995</ele><time>2026-05-02T10:06:55.727Z</time></trkpt><trkpt lat="43.8459467" lon="11.2908017"><ele>418.59999999999997</ele><time>2026-05-02T10:06:56.728Z</time></trkpt><trkpt lat="43.84584" lon="11.29076"><ele>418.4</ele><time>2026-05-02T10:06:57.728Z</time></trkpt><trkpt lat="43.8457317" lon="11.2907267"><ele>418.2</ele><time>2026-05-02T10:06:58.728Z</time></trkpt><trkpt lat="43.845625" lon="11.2907017"><ele>418.0</ele><time>2026-05-02T10:06:59.726Z</time></trkpt><trkpt lat="43.845505" lon="11.2906817"><ele>418.0</ele><time>2026-05-02T10:07:00.727Z</time></trkpt><trkpt lat="43.8453817" lon="11.2906567"><ele>418.0</ele><time>2026-05-02T10:07:01.729Z</time></trkpt><trkpt lat="43.8452583" lon="11.2906367"><ele>418.0</ele><time>2026-05-02T10:07:02.73Z</time></trkpt><trkpt lat="43.8451317" lon="11.2906167"><ele>418.0</ele><time>2026-05-02T10:07:03.728Z</time></trkpt><trkpt lat="43.8450083" lon="11.2905933"><ele>415.0</ele><time>2026-05-02T10:07:04.729Z</time></trkpt><trkpt lat="43.8448883" lon="11.2905583"><ele>412.0</ele><time>2026-05-02T10:07:05.728Z</time></trkpt><trkpt lat="43.844775" lon="11.2905133"><ele>409.0</ele><time>2026-05-02T10:07:06.726Z</time></trkpt><trkpt lat="43.84467" lon="11.2904667"><ele>406.0</ele><time>2026-05-02T10:07:07.728Z</time></trkpt><trkpt lat="43.844565" lon="11.290415"><ele>406.0</ele><time>2026-05-02T10:07:08.728Z</time></trkpt><trkpt lat="43.84446" lon="11.29036"><ele>406.0</ele><time>2026-05-02T10:07:09.726Z</time></trkpt><trkpt lat="43.8443517" lon="11.290305"><ele>406.0</ele><time>2026-05-02T10:07:10.727Z</time></trkpt><trkpt lat="43.8442383" lon="11.2902533"><ele>406.0</ele><time>2026-05-02T10:07:11.728Z</time></trkpt><trkpt lat="43.8441267" lon="11.290195"><ele>405.0</ele><time>2026-05-02T10:07:12.728Z</time></trkpt><trkpt lat="43.8440117" lon="11.2901383"><ele>404.0</ele><time>2026-05-02T10:07:13.729Z</time></trkpt><trkpt lat="43.8438983" lon="11.2900783"><ele>403.0</ele><time>2026-05-02T10:07:14.73Z</time></trkpt><trkpt lat="43.8437817" lon="11.2900083"><ele>402.0</ele><time>2026-05-02T10:07:15.728Z</time></trkpt><trkpt lat="43.8436583" lon="11.289935"><ele>402.0</ele><time>2026-05-02T10:07:16.726Z</time></trkpt><trkpt lat="43.8435367" lon="11.28986"><ele>402.0</ele><time>2026-05-02T10:07:17.729Z</time></trkpt><trkpt lat="43.843415" lon="11.2897867"><ele>402.0</ele><time>2026-05-02T10:07:18.729Z</time></trkpt><trkpt lat="43.843295" lon="11.2897117"><ele>402.0</ele><time>2026-05-02T10:07:19.729Z</time></trkpt><trkpt lat="43.8431767" lon="11.2896433"><ele>398.25</ele><time>2026-05-02T10:07:20.728Z</time></trkpt><trkpt lat="43.8430567" lon="11.2895767"><ele>394.5</ele><time>2026-05-02T10:07:21.728Z</time></trkpt><trkpt lat="43.8429367" lon="11.28951"><ele>390.75</ele><time>2026-05-02T10:07:22.729Z</time></trkpt><trkpt lat="43.842815" lon="11.2894417"><ele>387.0</ele><time>2026-05-02T10:07:23.727Z</time></trkpt><trkpt lat="43.8426833" lon="11.289375"><ele>387.25</ele><time>2026-05-02T10:07:24.73Z</time></trkpt><trkpt lat="43.8425483" lon="11.289305"><ele>387.5</ele><time>2026-05-02T10:07:25.727Z</time></trkpt><trkpt lat="43.8424067" lon="11.2892333"><ele>387.75</ele><time>2026-05-02T10:07:26.73Z</time></trkpt><trkpt lat="43.8422633" lon="11.2891617"><ele>388.0</ele><time>2026-05-02T10:07:27.729Z</time></trkpt><trkpt lat="43.8421183" lon="11.289085"><ele>388.0</ele><time>2026-05-02T10:07:28.729Z</time></trkpt><trkpt lat="43.84197" lon="11.2890117"><ele>388.0</ele><time>2026-05-02T10:07:29.729Z</time></trkpt><trkpt lat="43.8418167" lon="11.2889417"><ele>388.0</ele><time>2026-05-02T10:07:30.727Z</time></trkpt><trkpt lat="43.8416583" lon="11.2888833"><ele>388.0</ele><time>2026-05-02T10:07:31.729Z</time></trkpt><trkpt lat="43.841495" lon="11.2888383"><ele>388.0</ele><time>2026-05-02T10:07:32.729Z</time></trkpt><trkpt lat="43.8413233" lon="11.2888267"><ele>388.0</ele><time>2026-05-02T10:07:33.728Z</time></trkpt><trkpt lat="43.8411533" lon="11.2888367"><ele>388.0</ele><time>2026-05-02T10:07:34.728Z</time></trkpt><trkpt lat="43.8409817" lon="11.288855"><ele>388.0</ele><time>2026-05-02T10:07:35.729Z</time></trkpt><trkpt lat="43.8408117" lon="11.2888533"><ele>388.0</ele><time>2026-05-02T10:07:36.728Z</time></trkpt><trkpt lat="43.8406483" lon="11.2888333"><ele>385.33333333333337</ele><time>2026-05-02T10:07:37.73Z</time></trkpt><trkpt lat="43.8404867" lon="11.2888067"><ele>382.6666666666667</ele><time>2026-05-02T10:07:38.729Z</time></trkpt><trkpt lat="43.8403317" lon="11.2887917"><ele>380.0</ele><time>2026-05-02T10:07:39.73Z</time></trkpt><trkpt lat="43.840175" lon="11.2888"><ele>374.0</ele><time>2026-05-02T10:07:40.727Z</time></trkpt><trkpt lat="43.8400183" lon="11.2888417"><ele>368.0</ele><time>2026-05-02T10:07:41.727Z</time></trkpt><trkpt lat="43.8398567" lon="11.288905"><ele>362.0</ele><time>2026-05-02T10:07:42.729Z</time></trkpt><trkpt lat="43.8396883" lon="11.28897"><ele>360.6666666666667</ele><time>2026-05-02T10:07:43.728Z</time></trkpt><trkpt lat="43.839525" lon="11.289025"><ele>359.3333333333333</ele><time>2026-05-02T10:07:44.73Z</time></trkpt><trkpt lat="43.839365" lon="11.2890717"><ele>358.0</ele><time>2026-05-02T10:07:45.728Z</time></trkpt><trkpt lat="43.8392" lon="11.28911"><ele>355.66666666666663</ele><time>2026-05-02T10:07:46.728Z</time></trkpt><trkpt lat="43.8390383" lon="11.2891583"><ele>353.3333333333333</ele><time>2026-05-02T10:07:47.727Z</time></trkpt><trkpt lat="43.83887" lon="11.2892017"><ele>351.0</ele><time>2026-05-02T10:07:48.73Z</time></trkpt><trkpt lat="43.8387117" lon="11.2892483"><ele>351.0</ele><time>2026-05-02T10:07:49.729Z</time></trkpt><trkpt lat="43.838545" lon="11.28928"><ele>351.0</ele><time>2026-05-02T10:07:50.73Z</time></trkpt><trkpt lat="43.83838" lon="11.2893117"><ele>351.0</ele><time>2026-05-02T10:07:51.731Z</time></trkpt><trkpt lat="43.8382217" lon="11.28935"><ele>348.6666666666667</ele><time>2026-05-02T10:07:52.728Z</time></trkpt><trkpt lat="43.8380667" lon="11.2893883"><ele>346.33333333333337</ele><time>2026-05-02T10:07:53.728Z</time></trkpt><trkpt lat="43.837915" lon="11.28943"><ele>344.0</ele><time>2026-05-02T10:07:54.729Z</time></trkpt><trkpt lat="43.8377633" lon="11.2894683"><ele>341.75</ele><time>2026-05-02T10:07:55.728Z</time></trkpt><trkpt lat="43.8376133" lon="11.2895083"><ele>339.5</ele><time>2026-05-02T10:07:56.733Z</time></trkpt><trkpt lat="43.8374667" lon="11.289555"><ele>337.25</ele><time>2026-05-02T10:07:57.727Z</time></trkpt><trkpt lat="43.837325" lon="11.289595"><ele>335.0</ele><time>2026-05-02T10:07:58.729Z</time></trkpt><trkpt lat="43.8371833" lon="11.2896317"><ele>335.0</ele><time>2026-05-02T10:07:59.728Z</time></trkpt><trkpt lat="43.8370483" lon="11.2896617"><ele>335.0</ele><time>2026-05-02T10:08:00.729Z</time></trkpt><trkpt lat="43.836915" lon="11.2896817"><ele>335.0</ele><time>2026-05-02T10:08:01.729Z</time></trkpt><trkpt lat="43.83678" lon="11.2896883"><ele>335.0</ele><time>2026-05-02T10:08:02.728Z</time></trkpt><trkpt lat="43.83665" lon="11.289685"><ele>333.25</ele><time>2026-05-02T10:08:03.729Z</time></trkpt><trkpt lat="43.8365217" lon="11.2896717"><ele>331.5</ele><time>2026-05-02T10:08:04.729Z</time></trkpt><trkpt lat="43.8363917" lon="11.289645"><ele>329.75</ele><time>2026-05-02T10:08:05.727Z</time></trkpt><trkpt lat="43.836265" lon="11.2896033"><ele>328.0</ele><time>2026-05-02T10:08:06.728Z</time></trkpt><trkpt lat="43.8361417" lon="11.2895467"><ele>328.0</ele><time>2026-05-02T10:08:07.729Z</time></trkpt><trkpt lat="43.83603" lon="11.289485"><ele>328.0</ele><time>2026-05-02T10:08:08.728Z</time></trkpt><trkpt lat="43.8359217" lon="11.2894167"><ele>328.0</ele><time>2026-05-02T10:08:09.728Z</time></trkpt><trkpt lat="43.835815" lon="11.2893417"><ele>328.0</ele><time>2026-05-02T10:08:10.728Z</time></trkpt><trkpt lat="43.8357083" lon="11.289265"><ele>327.0</ele><time>2026-05-02T10:08:11.728Z</time></trkpt><trkpt lat="43.8356033" lon="11.28918"><ele>326.0</ele><time>2026-05-02T10:08:12.732Z</time></trkpt><trkpt lat="43.8354983" lon="11.2890983"><ele>325.0</ele><time>2026-05-02T10:08:13.728Z</time></trkpt><trkpt lat="43.83539" lon="11.28902"><ele>324.0</ele><time>2026-05-02T10:08:14.728Z</time></trkpt><trkpt lat="43.83528" lon="11.2889467"><ele>321.75</ele><time>2026-05-02T10:08:15.728Z</time></trkpt><trkpt lat="43.83517" lon="11.2888767"><ele>319.5</ele><time>2026-05-02T10:08:16.728Z</time></trkpt><trkpt lat="43.8350567" lon="11.288805"><ele>317.25</ele><time>2026-05-02T10:08:17.728Z</time></trkpt><trkpt lat="43.8349467" lon="11.2887317"><ele>315.0</ele><time>2026-05-02T10:08:18.729Z</time></trkpt><trkpt lat="43.8348367" lon="11.288665"><ele>315.0</ele><time>2026-05-02T10:08:19.728Z</time></trkpt><trkpt lat="43.834735" lon="11.2885817"><ele>315.0</ele><time>2026-05-02T10:08:20.73Z</time></trkpt><trkpt lat="43.8346333" lon="11.2884917"><ele>315.0</ele><time>2026-05-02T10:08:21.729Z</time></trkpt><trkpt lat="43.8345367" lon="11.2884017"><ele>315.0</ele><time>2026-05-02T10:08:22.728Z</time></trkpt><trkpt lat="43.8344433" lon="11.2883083"><ele>315.0</ele><time>2026-05-02T10:08:23.728Z</time></trkpt><trkpt lat="43.8343483" lon="11.2882167"><ele>315.0</ele><time>2026-05-02T10:08:24.729Z</time></trkpt><trkpt lat="43.8342533" lon="11.28813"><ele>315.0</ele><time>2026-05-02T10:08:25.728Z</time></trkpt><trkpt lat="43.8341617" lon="11.2880433"><ele>315.0</ele><time>2026-05-02T10:08:26.731Z</time></trkpt><trkpt lat="43.834075" lon="11.28796"><ele>315.0</ele><time>2026-05-02T10:08:27.729Z</time></trkpt><trkpt lat="43.8339917" lon="11.2878917"><ele>313.8</ele><time>2026-05-02T10:08:28.728Z</time></trkpt><trkpt lat="43.8339067" lon="11.2878233"><ele>312.6</ele><time>2026-05-02T10:08:29.73Z</time></trkpt><trkpt lat="43.83382" lon="11.2877667"><ele>311.4</ele><time>2026-05-02T10:08:30.728Z</time></trkpt><trkpt lat="43.83373" lon="11.2877117"><ele>310.2</ele><time>2026-05-02T10:08:31.727Z</time></trkpt><trkpt lat="43.8336333" lon="11.2876617"><ele>309.0</ele><time>2026-05-02T10:08:32.731Z</time></trkpt><trkpt lat="43.83353" lon="11.2876133"><ele>307.5</ele><time>2026-05-02T10:08:33.728Z</time></trkpt><trkpt lat="43.8334217" lon="11.2875733"><ele>306.0</ele><time>2026-05-02T10:08:34.728Z</time></trkpt><trkpt lat="43.8333067" lon="11.2875333"><ele>304.5</ele><time>2026-05-02T10:08:35.729Z</time></trkpt><trkpt lat="43.8331917" lon="11.2875033"><ele>303.0</ele><time>2026-05-02T10:08:36.728Z</time></trkpt><trkpt lat="43.8330783" lon="11.2874667"><ele>303.0</ele><time>2026-05-02T10:08:37.728Z</time></trkpt><trkpt lat="43.8329667" lon="11.2874433"><ele>303.0</ele><time>2026-05-02T10:08:38.728Z</time></trkpt><trkpt lat="43.832855" lon="11.2874333"><ele>303.0</ele><time>2026-05-02T10:08:39.729Z</time></trkpt><trkpt lat="43.83274" lon="11.2874383"><ele>303.0</ele><time>2026-05-02T10:08:40.728Z</time></trkpt><trkpt lat="43.8326183" lon="11.28745"><ele>301.0</ele><time>2026-05-02T10:08:41.729Z</time></trkpt><trkpt lat="43.8324967" lon="11.2874733"><ele>299.0</ele><time>2026-05-02T10:08:42.729Z</time></trkpt><trkpt lat="43.8323717" lon="11.2875017"><ele>297.0</ele><time>2026-05-02T10:08:43.728Z</time></trkpt><trkpt lat="43.8322467" lon="11.2875317"><ele>295.0</ele><time>2026-05-02T10:08:44.729Z</time></trkpt><trkpt lat="43.8321233" lon="11.2875567"><ele>295.0</ele><time>2026-05-02T10:08:45.727Z</time></trkpt><trkpt lat="43.8320017" lon="11.2875883"><ele>295.0</ele><time>2026-05-02T10:08:46.728Z</time></trkpt><trkpt lat="43.83188" lon="11.2876167"><ele>295.0</ele><time>2026-05-02T10:08:47.727Z</time></trkpt><trkpt lat="43.83176" lon="11.2876417"><ele>295.0</ele><time>2026-05-02T10:08:48.727Z</time></trkpt><trkpt lat="43.83163" lon="11.2876667"><ele>294.25</ele><time>2026-05-02T10:08:49.726Z</time></trkpt><trkpt lat="43.8315033" lon="11.2876817"><ele>293.5</ele><time>2026-05-02T10:08:50.728Z</time></trkpt><trkpt lat="43.8313767" lon="11.2876817"><ele>292.75</ele><time>2026-05-02T10:08:51.727Z</time></trkpt><trkpt lat="43.8312433" lon="11.2876733"><ele>292.0</ele><time>2026-05-02T10:08:52.726Z</time></trkpt><trkpt lat="43.8311067" lon="11.287665"><ele>291.75</ele><time>2026-05-02T10:08:53.727Z</time></trkpt><trkpt lat="43.830965" lon="11.2876467"><ele>291.5</ele><time>2026-05-02T10:08:54.727Z</time></trkpt><trkpt lat="43.8308283" lon="11.2876267"><ele>291.25</ele><time>2026-05-02T10:08:55.728Z</time></trkpt><trkpt lat="43.8306867" lon="11.2876117"><ele>291.0</ele><time>2026-05-02T10:08:56.728Z</time></trkpt><trkpt lat="43.8305483" lon="11.28763"><ele>291.0</ele><time>2026-05-02T10:08:57.728Z</time></trkpt><trkpt lat="43.83041" lon="11.287665"><ele>291.0</ele><time>2026-05-02T10:08:58.728Z</time></trkpt><trkpt lat="43.8302733" lon="11.2877033"><ele>291.0</ele><time>2026-05-02T10:08:59.726Z</time></trkpt><trkpt lat="43.830135" lon="11.2877367"><ele>291.0</ele><time>2026-05-02T10:09:00.728Z</time></trkpt><trkpt lat="43.8299967" lon="11.2877533"><ele>292.25</ele><time>2026-05-02T10:09:01.726Z</time></trkpt><trkpt lat="43.82985" lon="11.28775"><ele>293.5</ele><time>2026-05-02T10:09:02.727Z</time></trkpt><trkpt lat="43.82971" lon="11.2877317"><ele>294.75</ele><time>2026-05-02T10:09:03.728Z</time></trkpt><trkpt lat="43.8295733" lon="11.2877083"><ele>296.0</ele><time>2026-05-02T10:09:04.727Z</time></trkpt><trkpt lat="43.8294383" lon="11.2876817"><ele>297.25</ele><time>2026-05-02T10:09:05.728Z</time></trkpt><trkpt lat="43.8293017" lon="11.28765"><ele>298.5</ele><time>2026-05-02T10:09:06.726Z</time></trkpt><trkpt lat="43.8291617" lon="11.2876233"><ele>299.75</ele><time>2026-05-02T10:09:07.727Z</time></trkpt><trkpt lat="43.8290233" lon="11.287595"><ele>301.0</ele><time>2026-05-02T10:09:08.729Z</time></trkpt><trkpt lat="43.8288917" lon="11.2875717"><ele>301.0</ele><time>2026-05-02T10:09:09.729Z</time></trkpt><trkpt lat="43.82877" lon="11.28755"><ele>301.0</ele><time>2026-05-02T10:09:10.728Z</time></trkpt><trkpt lat="43.828655" lon="11.2875233"><ele>301.0</ele><time>2026-05-02T10:09:11.729Z</time></trkpt><trkpt lat="43.8285433" lon="11.2874967"><ele>301.0</ele><time>2026-05-02T10:09:12.73Z</time></trkpt><trkpt lat="43.8284233" lon="11.28747"><ele>301.75</ele><time>2026-05-02T10:09:13.728Z</time></trkpt><trkpt lat="43.8283033" lon="11.2874417"><ele>302.5</ele><time>2026-05-02T10:09:14.729Z</time></trkpt><trkpt lat="43.828185" lon="11.2874"><ele>303.25</ele><time>2026-05-02T10:09:15.727Z</time></trkpt><trkpt lat="43.82807" lon="11.2873583"><ele>304.0</ele><time>2026-05-02T10:09:16.727Z</time></trkpt><trkpt lat="43.8279583" lon="11.2873183"><ele>304.0</ele><time>2026-05-02T10:09:17.726Z</time></trkpt><trkpt lat="43.8278483" lon="11.2872783"><ele>304.0</ele><time>2026-05-02T10:09:18.728Z</time></trkpt><trkpt lat="43.8277383" lon="11.2872417"><ele>304.0</ele><time>2026-05-02T10:09:19.726Z</time></trkpt><trkpt lat="43.8276267" lon="11.2872117"><ele>304.0</ele><time>2026-05-02T10:09:20.727Z</time></trkpt><trkpt lat="43.8275117" lon="11.28718"><ele>301.0</ele><time>2026-05-02T10:09:21.728Z</time></trkpt><trkpt lat="43.827395" lon="11.2871567"><ele>298.0</ele><time>2026-05-02T10:09:22.728Z</time></trkpt><trkpt lat="43.827275" lon="11.2871367"><ele>295.0</ele><time>2026-05-02T10:09:23.726Z</time></trkpt><trkpt lat="43.827155" lon="11.2871117"><ele>292.0</ele><time>2026-05-02T10:09:24.726Z</time></trkpt><trkpt lat="43.82704" lon="11.2870933"><ele>292.0</ele><time>2026-05-02T10:09:25.727Z</time></trkpt><trkpt lat="43.8269267" lon="11.2870683"><ele>292.0</ele><time>2026-05-02T10:09:26.727Z</time></trkpt><trkpt lat="43.82682" lon="11.2870283"><ele>292.0</ele><time>2026-05-02T10:09:27.726Z</time></trkpt><trkpt lat="43.8267167" lon="11.286965"><ele>292.0</ele><time>2026-05-02T10:09:28.728Z</time></trkpt><trkpt lat="43.8266167" lon="11.2868917"><ele>292.0</ele><time>2026-05-02T10:09:29.727Z</time></trkpt><trkpt lat="43.8265217" lon="11.2868183"><ele>292.0</ele><time>2026-05-02T10:09:30.726Z</time></trkpt><trkpt lat="43.8264317" lon="11.2867483"><ele>292.0</ele><time>2026-05-02T10:09:31.726Z</time></trkpt><trkpt lat="43.8263483" lon="11.2866817"><ele>292.0</ele><time>2026-05-02T10:09:32.728Z</time></trkpt><trkpt lat="43.8262667" lon="11.2866183"><ele>292.0</ele><time>2026-05-02T10:09:33.727Z</time></trkpt><trkpt lat="43.826185" lon="11.28655"><ele>292.0</ele><time>2026-05-02T10:09:34.728Z</time></trkpt><trkpt lat="43.8261033" lon="11.2864783"><ele>292.0</ele><time>2026-05-02T10:09:35.729Z</time></trkpt><trkpt lat="43.82602" lon="11.2864017"><ele>292.0</ele><time>2026-05-02T10:09:36.727Z</time></trkpt><trkpt lat="43.8259317" lon="11.28632"><ele>292.0</ele><time>2026-05-02T10:09:37.726Z</time></trkpt><trkpt lat="43.8258433" lon="11.2862383"><ele>292.0</ele><time>2026-05-02T10:09:38.728Z</time></trkpt><trkpt lat="43.825755" lon="11.2861617"><ele>290.0</ele><time>2026-05-02T10:09:39.727Z</time></trkpt><trkpt lat="43.8256733" lon="11.2860817"><ele>288.0</ele><time>2026-05-02T10:09:40.727Z</time></trkpt><trkpt lat="43.8255933" lon="11.2860083"><ele>286.0</ele><time>2026-05-02T10:09:41.729Z</time></trkpt><trkpt lat="43.8255133" lon="11.2859417"><ele>284.0</ele><time>2026-05-02T10:09:42.728Z</time></trkpt><trkpt lat="43.82543" lon="11.28587"><ele>282.0</ele><time>2026-05-02T10:09:43.728Z</time></trkpt><trkpt lat="43.825345" lon="11.2857883"><ele>282.0</ele><time>2026-05-02T10:09:44.728Z</time></trkpt><trkpt lat="43.8252517" lon="11.2857033"><ele>282.0</ele><time>2026-05-02T10:09:45.727Z</time></trkpt><trkpt lat="43.8251483" lon="11.2856267"><ele>282.0</ele><time>2026-05-02T10:09:46.726Z</time></trkpt><trkpt lat="43.825035" lon="11.285565"><ele>282.0</ele><time>2026-05-02T10:09:47.728Z</time></trkpt><trkpt lat="43.82492" lon="11.285505"><ele>279.5</ele><time>2026-05-02T10:09:48.728Z</time></trkpt><trkpt lat="43.8248017" lon="11.2854417"><ele>277.0</ele><time>2026-05-02T10:09:49.726Z</time></trkpt><trkpt lat="43.8246833" lon="11.2853767"><ele>274.5</ele><time>2026-05-02T10:09:50.727Z</time></trkpt><trkpt lat="43.8245667" lon="11.2853083"><ele>272.0</ele><time>2026-05-02T10:09:51.727Z</time></trkpt><trkpt lat="43.8244483" lon="11.2852433"><ele>272.0</ele><time>2026-05-02T10:09:52.726Z</time></trkpt><trkpt lat="43.824335" lon="11.28518"><ele>272.0</ele><time>2026-05-02T10:09:53.728Z</time></trkpt><trkpt lat="43.8242217" lon="11.2851117"><ele>272.0</ele><time>2026-05-02T10:09:54.729Z</time></trkpt><trkpt lat="43.82411" lon="11.2850333"><ele>272.0</ele><time>2026-05-02T10:09:55.728Z</time></trkpt><trkpt lat="43.8239983" lon="11.284945"><ele>272.5</ele><time>2026-05-02T10:09:56.726Z</time></trkpt><trkpt lat="43.8238917" lon="11.2848483"><ele>273.0</ele><time>2026-05-02T10:09:57.727Z</time></trkpt><trkpt lat="43.823785" lon="11.2847417"><ele>273.5</ele><time>2026-05-02T10:09:58.728Z</time></trkpt><trkpt lat="43.82368" lon="11.2846367"><ele>274.0</ele><time>2026-05-02T10:09:59.728Z</time></trkpt><trkpt lat="43.8235717" lon="11.2845283"><ele>273.0</ele><time>2026-05-02T10:10:00.727Z</time></trkpt><trkpt lat="43.8234617" lon="11.2844167"><ele>272.0</ele><time>2026-05-02T10:10:01.727Z</time></trkpt><trkpt lat="43.82335" lon="11.2843067"><ele>271.0</ele><time>2026-05-02T10:10:02.729Z</time></trkpt><trkpt lat="43.823235" lon="11.2842017"><ele>270.0</ele><time>2026-05-02T10:10:03.733Z</time></trkpt><trkpt lat="43.8231183" lon="11.2841017"><ele>270.0</ele><time>2026-05-02T10:10:04.727Z</time></trkpt><trkpt lat="43.8229967" lon="11.2840017"><ele>270.0</ele><time>2026-05-02T10:10:05.729Z</time></trkpt><trkpt lat="43.8228717" lon="11.28391"><ele>270.0</ele><time>2026-05-02T10:10:06.727Z</time></trkpt><trkpt lat="43.8227433" lon="11.2838217"><ele>270.0</ele><time>2026-05-02T10:10:07.726Z</time></trkpt><trkpt lat="43.8226067" lon="11.2837433"><ele>268.0</ele><time>2026-05-02T10:10:08.728Z</time></trkpt><trkpt lat="43.822465" lon="11.283675"><ele>266.0</ele><time>2026-05-02T10:10:09.727Z</time></trkpt><trkpt lat="43.8223217" lon="11.283625"><ele>264.0</ele><time>2026-05-02T10:10:10.727Z</time></trkpt><trkpt lat="43.822175" lon="11.2835767"><ele>262.0</ele><time>2026-05-02T10:10:11.726Z</time></trkpt><trkpt lat="43.822025" lon="11.2835417"><ele>262.0</ele><time>2026-05-02T10:10:12.728Z</time></trkpt><trkpt lat="43.8218767" lon="11.28353"><ele>262.0</ele><time>2026-05-02T10:10:13.728Z</time></trkpt><trkpt lat="43.8217267" lon="11.283525"><ele>262.0</ele><time>2026-05-02T10:10:14.727Z</time></trkpt><trkpt lat="43.82158" lon="11.28352"><ele>262.0</ele><time>2026-05-02T10:10:15.727Z</time></trkpt><trkpt lat="43.8214383" lon="11.2835083"><ele>261.75</ele><time>2026-05-02T10:10:16.727Z</time></trkpt><trkpt lat="43.8213117" lon="11.2834917"><ele>261.5</ele><time>2026-05-02T10:10:17.729Z</time></trkpt><trkpt lat="43.8212033" lon="11.2834783"><ele>261.25</ele><time>2026-05-02T10:10:18.728Z</time></trkpt><trkpt lat="43.821095" lon="11.28345"><ele>261.0</ele><time>2026-05-02T10:10:19.727Z</time></trkpt><trkpt lat="43.8209933" lon="11.2833967"><ele>261.75</ele><time>2026-05-02T10:10:20.729Z</time></trkpt><trkpt lat="43.8208867" lon="11.2833217"><ele>262.5</ele><time>2026-05-02T10:10:21.728Z</time></trkpt><trkpt lat="43.820775" lon="11.2832517"><ele>263.25</ele><time>2026-05-02T10:10:22.726Z</time></trkpt><trkpt lat="43.8206583" lon="11.2831783"><ele>264.0</ele><time>2026-05-02T10:10:23.729Z</time></trkpt><trkpt lat="43.8205383" lon="11.283115"><ele>263.75</ele><time>2026-05-02T10:10:24.729Z</time></trkpt><trkpt lat="43.8204183" lon="11.28304"><ele>263.5</ele><time>2026-05-02T10:10:25.727Z</time></trkpt><trkpt lat="43.8203033" lon="11.2829667"><ele>263.25</ele><time>2026-05-02T10:10:26.727Z</time></trkpt><trkpt lat="43.8201883" lon="11.28289"><ele>263.0</ele><time>2026-05-02T10:10:27.727Z</time></trkpt><trkpt lat="43.8200733" lon="11.2828233"><ele>263.0</ele><time>2026-05-02T10:10:28.729Z</time></trkpt><trkpt lat="43.8199567" lon="11.2827667"><ele>263.0</ele><time>2026-05-02T10:10:29.727Z</time></trkpt><trkpt lat="43.8198417" lon="11.2827017"><ele>263.0</ele><time>2026-05-02T10:10:30.731Z</time></trkpt><trkpt lat="43.8197283" lon="11.2826267"><ele>263.0</ele><time>2026-05-02T10:10:31.728Z</time></trkpt><trkpt lat="43.8196167" lon="11.2825433"><ele>263.0</ele><time>2026-05-02T10:10:32.727Z</time></trkpt><trkpt lat="43.8195083" lon="11.28245"><ele>263.0</ele><time>2026-05-02T10:10:33.728Z</time></trkpt><trkpt lat="43.8194033" lon="11.2823567"><ele>263.0</ele><time>2026-05-02T10:10:34.728Z</time></trkpt><trkpt lat="43.8192967" lon="11.2822617"><ele>263.0</ele><time>2026-05-02T10:10:35.728Z</time></trkpt><trkpt lat="43.8191883" lon="11.2821583"><ele>262.5</ele><time>2026-05-02T10:10:36.729Z</time></trkpt><trkpt lat="43.819075" lon="11.28206"><ele>262.0</ele><time>2026-05-02T10:10:37.727Z</time></trkpt><trkpt lat="43.8189583" lon="11.2819533"><ele>261.5</ele><time>2026-05-02T10:10:38.728Z</time></trkpt><trkpt lat="43.81884" lon="11.2818433"><ele>261.0</ele><time>2026-05-02T10:10:39.726Z</time></trkpt><trkpt lat="43.81872" lon="11.2817367"><ele>261.0</ele><time>2026-05-02T10:10:40.728Z</time></trkpt><trkpt lat="43.8185983" lon="11.281635"><ele>261.0</ele><time>2026-05-02T10:10:41.728Z</time></trkpt><trkpt lat="43.818475" lon="11.281535"><ele>261.0</ele><time>2026-05-02T10:10:42.728Z</time></trkpt><trkpt lat="43.8183583" lon="11.281435"><ele>261.0</ele><time>2026-05-02T10:10:43.726Z</time></trkpt><trkpt lat="43.8182483" lon="11.2813383"><ele>261.75</ele><time>2026-05-02T10:10:44.728Z</time></trkpt><trkpt lat="43.8181367" lon="11.2812383"><ele>262.5</ele><time>2026-05-02T10:10:45.727Z</time></trkpt><trkpt lat="43.8180233" lon="11.2811417"><ele>263.25</ele><time>2026-05-02T10:10:46.728Z</time></trkpt><trkpt lat="43.8179033" lon="11.2810483"><ele>264.0</ele><time>2026-05-02T10:10:47.727Z</time></trkpt><trkpt lat="43.8177783" lon="11.2809533"><ele>263.25</ele><time>2026-05-02T10:10:48.728Z</time></trkpt><trkpt lat="43.81765" lon="11.2808633"><ele>262.5</ele><time>2026-05-02T10:10:49.727Z</time></trkpt><trkpt lat="43.81752" lon="11.280765"><ele>261.75</ele><time>2026-05-02T10:10:50.729Z</time></trkpt><trkpt lat="43.8173817" lon="11.280675"><ele>261.0</ele><time>2026-05-02T10:10:51.727Z</time></trkpt><trkpt lat="43.8172417" lon="11.2805917"><ele>261.0</ele><time>2026-05-02T10:10:52.729Z</time></trkpt><trkpt lat="43.8171" lon="11.2805083"><ele>261.0</ele><time>2026-05-02T10:10:53.728Z</time></trkpt><trkpt lat="43.816955" lon="11.280435"><ele>261.0</ele><time>2026-05-02T10:10:54.728Z</time></trkpt><trkpt lat="43.81681" lon="11.2803583"><ele>257.75</ele><time>2026-05-02T10:10:55.729Z</time></trkpt><trkpt lat="43.8166683" lon="11.2802917"><ele>254.5</ele><time>2026-05-02T10:10:56.727Z</time></trkpt><trkpt lat="43.81653" lon="11.28023"><ele>251.25</ele><time>2026-05-02T10:10:57.728Z</time></trkpt><trkpt lat="43.8163933" lon="11.2801633"><ele>248.0</ele><time>2026-05-02T10:10:58.726Z</time></trkpt><trkpt lat="43.81627" lon="11.280105"><ele>248.0</ele><time>2026-05-02T10:10:59.727Z</time></trkpt><trkpt lat="43.8161583" lon="11.2800517"><ele>248.0</ele><time>2026-05-02T10:11:00.727Z</time></trkpt><trkpt lat="43.8160483" lon="11.2800017"><ele>248.0</ele><time>2026-05-02T10:11:01.729Z</time></trkpt><trkpt lat="43.8159367" lon="11.2799517"><ele>248.0</ele><time>2026-05-02T10:11:02.727Z</time></trkpt><trkpt lat="43.81582" lon="11.2799033"><ele>246.25</ele><time>2026-05-02T10:11:03.729Z</time></trkpt><trkpt lat="43.8157" lon="11.279885"><ele>244.5</ele><time>2026-05-02T10:11:04.727Z</time></trkpt><trkpt lat="43.815575" lon="11.2799117"><ele>242.75</ele><time>2026-05-02T10:11:05.727Z</time></trkpt><trkpt lat="43.8154583" lon="11.2799733"><ele>241.0</ele><time>2026-05-02T10:11:06.726Z</time></trkpt><trkpt lat="43.8153467" lon="11.2800817"><ele>241.0</ele><time>2026-05-02T10:11:07.728Z</time></trkpt><trkpt lat="43.815255" lon="11.2802283"><ele>241.0</ele><time>2026-05-02T10:11:08.728Z</time></trkpt><trkpt lat="43.8151917" lon="11.2804033"><ele>241.0</ele><time>2026-05-02T10:11:09.727Z</time></trkpt><trkpt lat="43.81514" lon="11.2805967"><ele>241.0</ele><time>2026-05-02T10:11:10.728Z</time></trkpt><trkpt lat="43.8151083" lon="11.280805"><ele>241.66666666666666</ele><time>2026-05-02T10:11:11.727Z</time></trkpt><trkpt lat="43.8150967" lon="11.2810233"><ele>242.33333333333331</ele><time>2026-05-02T10:11:12.727Z</time></trkpt><trkpt lat="43.815105" lon="11.2812517"><ele>243.0</ele><time>2026-05-02T10:11:13.728Z</time></trkpt><trkpt lat="43.8151333" lon="11.281495"><ele>241.66666666666669</ele><time>2026-05-02T10:11:14.729Z</time></trkpt><trkpt lat="43.8151717" lon="11.281745"><ele>240.33333333333334</ele><time>2026-05-02T10:11:15.727Z</time></trkpt><trkpt lat="43.8152083" lon="11.2819983"><ele>239.0</ele><time>2026-05-02T10:11:16.727Z</time></trkpt><trkpt lat="43.8152433" lon="11.28225"><ele>235.66666666666669</ele><time>2026-05-02T10:11:17.726Z</time></trkpt><trkpt lat="43.8152783" lon="11.282505"><ele>232.33333333333331</ele><time>2026-05-02T10:11:18.728Z</time></trkpt><trkpt lat="43.81531" lon="11.2827617"><ele>229.0</ele><time>2026-05-02T10:11:19.728Z</time></trkpt><trkpt lat="43.8153383" lon="11.283025"><ele>226.66666666666666</ele><time>2026-05-02T10:11:20.73Z</time></trkpt><trkpt lat="43.81537" lon="11.2832833"><ele>224.33333333333331</ele><time>2026-05-02T10:11:21.728Z</time></trkpt><trkpt lat="43.8154" lon="11.283545"><ele>222.0</ele><time>2026-05-02T10:11:22.727Z</time></trkpt><trkpt lat="43.8154333" lon="11.2838067"><ele>221.66666666666669</ele><time>2026-05-02T10:11:23.73Z</time></trkpt><trkpt lat="43.815465" lon="11.2840633"><ele>221.33333333333334</ele><time>2026-05-02T10:11:24.728Z</time></trkpt><trkpt lat="43.8154967" lon="11.28431"><ele>221.0</ele><time>2026-05-02T10:11:25.729Z</time></trkpt><trkpt lat="43.8155283" lon="11.2845483"><ele>221.33333333333334</ele><time>2026-05-02T10:11:26.728Z</time></trkpt><trkpt lat="43.81555" lon="11.28478"><ele>221.66666666666669</ele><time>2026-05-02T10:11:27.726Z</time></trkpt><trkpt lat="43.8155567" lon="11.28501"><ele>222.0</ele><time>2026-05-02T10:11:28.727Z</time></trkpt><trkpt lat="43.815545" lon="11.2852433"><ele>222.0</ele><time>2026-05-02T10:11:29.727Z</time></trkpt><trkpt lat="43.81551" lon="11.28548"><ele>222.0</ele><time>2026-05-02T10:11:30.737Z</time></trkpt><trkpt lat="43.815455" lon="11.2857133"><ele>222.0</ele><time>2026-05-02T10:11:31.726Z</time></trkpt><trkpt lat="43.8153817" lon="11.28593"><ele>222.0</ele><time>2026-05-02T10:11:32.726Z</time></trkpt><trkpt lat="43.81529" lon="11.2861033"><ele>222.0</ele><time>2026-05-02T10:11:33.726Z</time></trkpt><trkpt lat="43.81518" lon="11.2862217"><ele>222.0</ele><time>2026-05-02T10:11:34.726Z</time></trkpt><trkpt lat="43.8150483" lon="11.2862733"><ele>222.0</ele><time>2026-05-02T10:11:35.726Z</time></trkpt><trkpt lat="43.8149133" lon="11.2862583"><ele>222.0</ele><time>2026-05-02T10:11:36.726Z</time></trkpt><trkpt lat="43.8147767" lon="11.286185"><ele>222.0</ele><time>2026-05-02T10:11:37.725Z</time></trkpt><trkpt lat="43.8146467" lon="11.2860617"><ele>222.0</ele><time>2026-05-02T10:11:38.726Z</time></trkpt><trkpt lat="43.8145267" lon="11.28591"><ele>222.0</ele><time>2026-05-02T10:11:39.726Z</time></trkpt><trkpt lat="43.8144133" lon="11.2857317"><ele>222.0</ele><time>2026-05-02T10:11:40.726Z</time></trkpt><trkpt lat="43.8143183" lon="11.2855317"><ele>222.0</ele><time>2026-05-02T10:11:41.727Z</time></trkpt><trkpt lat="43.81424" lon="11.2853233"><ele>220.0</ele><time>2026-05-02T10:11:42.726Z</time></trkpt><trkpt lat="43.8141617" lon="11.28513"><ele>218.0</ele><time>2026-05-02T10:11:43.725Z</time></trkpt><trkpt lat="43.8140633" lon="11.284955"><ele>216.0</ele><time>2026-05-02T10:11:44.725Z</time></trkpt><trkpt lat="43.813935" lon="11.2848067"><ele>226.0</ele><time>2026-05-02T10:11:45.725Z</time></trkpt><trkpt lat="43.8137833" lon="11.28468"><ele>236.0</ele><time>2026-05-02T10:11:46.725Z</time></trkpt><trkpt lat="43.81363" lon="11.2845433"><ele>246.0</ele><time>2026-05-02T10:11:47.726Z</time></trkpt><trkpt lat="43.8134917" lon="11.2843717"><ele>241.66666666666669</ele><time>2026-05-02T10:11:48.727Z</time></trkpt><trkpt lat="43.8133617" lon="11.2841817"><ele>237.33333333333334</ele><time>2026-05-02T10:11:49.726Z</time></trkpt><trkpt lat="43.8132217" lon="11.2839967"><ele>233.0</ele><time>2026-05-02T10:11:50.727Z</time></trkpt><trkpt lat="43.8130717" lon="11.283845"><ele>233.0</ele><time>2026-05-02T10:11:51.726Z</time></trkpt><trkpt lat="43.8129183" lon="11.2837117"><ele>233.0</ele><time>2026-05-02T10:11:52.727Z</time></trkpt><trkpt lat="43.8127733" lon="11.2835617"><ele>233.0</ele><time>2026-05-02T10:11:53.726Z</time></trkpt><trkpt lat="43.8126433" lon="11.2834083"><ele>230.0</ele><time>2026-05-02T10:11:54.727Z</time></trkpt><trkpt lat="43.812525" lon="11.2832533"><ele>227.0</ele><time>2026-05-02T10:11:55.726Z</time></trkpt><trkpt lat="43.812415" lon="11.2830967"><ele>224.0</ele><time>2026-05-02T10:11:56.727Z</time></trkpt><trkpt lat="43.8122967" lon="11.2829567"><ele>224.0</ele><time>2026-05-02T10:11:57.727Z</time></trkpt><trkpt lat="43.8121533" lon="11.2828417"><ele>224.0</ele><time>2026-05-02T10:11:58.727Z</time></trkpt><trkpt lat="43.811995" lon="11.2827333"><ele>224.0</ele><time>2026-05-02T10:11:59.726Z</time></trkpt><trkpt lat="43.8118233" lon="11.28263"><ele>215.0</ele><time>2026-05-02T10:12:00.726Z</time></trkpt><trkpt lat="43.8116483" lon="11.2825267"><ele>206.0</ele><time>2026-05-02T10:12:01.726Z</time></trkpt><trkpt lat="43.811475" lon="11.282425"><ele>197.0</ele><time>2026-05-02T10:12:02.725Z</time></trkpt><trkpt lat="43.8113017" lon="11.2823267"><ele>196.0</ele><time>2026-05-02T10:12:03.725Z</time></trkpt><trkpt lat="43.8111317" lon="11.2822317"><ele>195.0</ele><time>2026-05-02T10:12:04.727Z</time></trkpt><trkpt lat="43.8109683" lon="11.28214"><ele>194.0</ele><time>2026-05-02T10:12:05.727Z</time></trkpt><trkpt lat="43.8108117" lon="11.282045"><ele>194.0</ele><time>2026-05-02T10:12:06.725Z</time></trkpt><trkpt lat="43.810665" lon="11.28194"><ele>194.0</ele><time>2026-05-02T10:12:07.727Z</time></trkpt><trkpt lat="43.81053" lon="11.28183"><ele>194.0</ele><time>2026-05-02T10:12:08.727Z</time></trkpt><trkpt lat="43.8104067" lon="11.28169"><ele>194.0</ele><time>2026-05-02T10:12:09.726Z</time></trkpt><trkpt lat="43.81029" lon="11.2815383"><ele>194.0</ele><time>2026-05-02T10:12:10.726Z</time></trkpt><trkpt lat="43.8101767" lon="11.28137"><ele>194.0</ele><time>2026-05-02T10:12:11.725Z</time></trkpt><trkpt lat="43.81006" lon="11.2811967"><ele>190.33333333333334</ele><time>2026-05-02T10:12:12.725Z</time></trkpt><trkpt lat="43.809945" lon="11.2810267"><ele>186.66666666666669</ele><time>2026-05-02T10:12:13.725Z</time></trkpt><trkpt lat="43.809835" lon="11.2808733"><ele>183.0</ele><time>2026-05-02T10:12:14.726Z</time></trkpt><trkpt lat="43.8097317" lon="11.280735"><ele>187.5</ele><time>2026-05-02T10:12:15.726Z</time></trkpt><trkpt lat="43.809645" lon="11.2805783"><ele>192.0</ele><time>2026-05-02T10:12:16.725Z</time></trkpt><trkpt lat="43.8095833" lon="11.2803933"><ele>196.5</ele><time>2026-05-02T10:12:17.726Z</time></trkpt><trkpt lat="43.8095533" lon="11.2801883"><ele>201.0</ele><time>2026-05-02T10:12:18.728Z</time></trkpt><trkpt lat="43.8095367" lon="11.2799817"><ele>201.0</ele><time>2026-05-02T10:12:19.726Z</time></trkpt><trkpt lat="43.8094983" lon="11.279805"><ele>201.0</ele><time>2026-05-02T10:12:20.727Z</time></trkpt><trkpt lat="43.8094317" lon="11.2796383"><ele>201.0</ele><time>2026-05-02T10:12:21.726Z</time></trkpt><trkpt lat="43.80932" lon="11.2795167"><ele>201.0</ele><time>2026-05-02T10:12:22.727Z</time></trkpt><trkpt lat="43.8091833" lon="11.279415"><ele>193.66666666666666</ele><time>2026-05-02T10:12:23.728Z</time></trkpt><trkpt lat="43.80904" lon="11.2793083"><ele>186.33333333333331</ele><time>2026-05-02T10:12:24.726Z</time></trkpt><trkpt lat="43.8089167" lon="11.27917"><ele>179.0</ele><time>2026-05-02T10:12:25.726Z</time></trkpt><trkpt lat="43.80881" lon="11.2790067"><ele>186.66666666666666</ele><time>2026-05-02T10:12:26.727Z</time></trkpt><trkpt lat="43.80871" lon="11.2788267"><ele>194.33333333333331</ele><time>2026-05-02T10:12:27.727Z</time></trkpt><trkpt lat="43.80861" lon="11.2786367"><ele>202.0</ele><time>2026-05-02T10:12:28.727Z</time></trkpt><trkpt lat="43.8085083" lon="11.2784533"><ele>189.33333333333331</ele><time>2026-05-02T10:12:29.727Z</time></trkpt><trkpt lat="43.8084117" lon="11.2782667"><ele>176.66666666666666</ele><time>2026-05-02T10:12:30.726Z</time></trkpt><trkpt lat="43.80833" lon="11.2780817"><ele>164.0</ele><time>2026-05-02T10:12:31.726Z</time></trkpt><trkpt lat="43.8082733" lon="11.277885"><ele>164.0</ele><time>2026-05-02T10:12:32.727Z</time></trkpt><trkpt lat="43.80824" lon="11.2776817"><ele>164.0</ele><time>2026-05-02T10:12:33.727Z</time></trkpt><trkpt lat="43.8082117" lon="11.2774767"><ele>164.0</ele><time>2026-05-02T10:12:34.727Z</time></trkpt><trkpt lat="43.8081683" lon="11.2772667"><ele>164.33333333333331</ele><time>2026-05-02T10:12:35.726Z</time></trkpt><trkpt lat="43.8081083" lon="11.2770567"><ele>164.66666666666666</ele><time>2026-05-02T10:12:36.728Z</time></trkpt><trkpt lat="43.80803" lon="11.2768683"><ele>165.0</ele><time>2026-05-02T10:12:37.728Z</time></trkpt><trkpt lat="43.8079283" lon="11.2766933"><ele>165.0</ele><time>2026-05-02T10:12:38.728Z</time></trkpt><trkpt lat="43.80781" lon="11.27653"><ele>165.0</ele><time>2026-05-02T10:12:39.729Z</time></trkpt><trkpt lat="43.8076767" lon="11.2763883"><ele>165.0</ele><time>2026-05-02T10:12:40.727Z</time></trkpt><trkpt lat="43.8075383" lon="11.2762633"><ele>160.33333333333334</ele><time>2026-05-02T10:12:41.727Z</time></trkpt><trkpt lat="43.8074033" lon="11.2761417"><ele>155.66666666666669</ele><time>2026-05-02T10:12:42.727Z</time></trkpt><trkpt lat="43.8072733" lon="11.27601"><ele>151.0</ele><time>2026-05-02T10:12:43.729Z</time></trkpt><trkpt lat="43.8071483" lon="11.2758717"><ele>151.0</ele><time>2026-05-02T10:12:44.728Z</time></trkpt><trkpt lat="43.807035" lon="11.2757133"><ele>151.0</ele><time>2026-05-02T10:12:45.729Z</time></trkpt><trkpt lat="43.8069383" lon="11.2755467"><ele>151.0</ele><time>2026-05-02T10:12:46.726Z</time></trkpt><trkpt lat="43.8068533" lon="11.2753833"><ele>150.5</ele><time>2026-05-02T10:12:47.728Z</time></trkpt><trkpt lat="43.8067767" lon="11.2752317"><ele>150.0</ele><time>2026-05-02T10:12:48.728Z</time></trkpt><trkpt lat="43.806705" lon="11.2750917"><ele>149.5</ele><time>2026-05-02T10:12:49.728Z</time></trkpt><trkpt lat="43.8066433" lon="11.2749567"><ele>149.0</ele><time>2026-05-02T10:12:50.728Z</time></trkpt><trkpt lat="43.8065833" lon="11.2748217"><ele>148.5</ele><time>2026-05-02T10:12:51.728Z</time></trkpt><trkpt lat="43.806525" lon="11.2746767"><ele>148.0</ele><time>2026-05-02T10:12:52.728Z</time></trkpt><trkpt lat="43.80646" lon="11.2745467"><ele>147.5</ele><time>2026-05-02T10:12:53.728Z</time></trkpt><trkpt lat="43.8063933" lon="11.27441"><ele>147.0</ele><time>2026-05-02T10:12:54.727Z</time></trkpt><trkpt lat="43.8063233" lon="11.2742733"><ele>147.0</ele><time>2026-05-02T10:12:55.728Z</time></trkpt><trkpt lat="43.80625" lon="11.2741333"><ele>147.0</ele><time>2026-05-02T10:12:56.729Z</time></trkpt><trkpt lat="43.806175" lon="11.2740033"><ele>147.0</ele><time>2026-05-02T10:12:57.727Z</time></trkpt><trkpt lat="43.8061" lon="11.2738617"><ele>147.0</ele><time>2026-05-02T10:12:58.729Z</time></trkpt><trkpt lat="43.8060267" lon="11.273715"><ele>146.75</ele><time>2026-05-02T10:12:59.726Z</time></trkpt><trkpt lat="43.805955" lon="11.273565"><ele>146.5</ele><time>2026-05-02T10:13:00.73Z</time></trkpt><trkpt lat="43.8058833" lon="11.273415"><ele>146.25</ele><time>2026-05-02T10:13:01.729Z</time></trkpt><trkpt lat="43.80581" lon="11.27326"><ele>146.0</ele><time>2026-05-02T10:13:02.728Z</time></trkpt><trkpt lat="43.80574" lon="11.2731017"><ele>146.0</ele><time>2026-05-02T10:13:03.726Z</time></trkpt><trkpt lat="43.80566" lon="11.272945"><ele>146.0</ele><time>2026-05-02T10:13:04.73Z</time></trkpt><trkpt lat="43.805585" lon="11.2727967"><ele>146.0</ele><time>2026-05-02T10:13:05.729Z</time></trkpt><trkpt lat="43.80551" lon="11.272645"><ele>146.0</ele><time>2026-05-02T10:13:06.73Z</time></trkpt><trkpt lat="43.80543" lon="11.2725017"><ele>146.0</ele><time>2026-05-02T10:13:07.728Z</time></trkpt><trkpt lat="43.8053467" lon="11.272365"><ele>146.0</ele><time>2026-05-02T10:13:08.728Z</time></trkpt><trkpt lat="43.8052617" lon="11.2722267"><ele>146.0</ele><time>2026-05-02T10:13:09.727Z</time></trkpt><trkpt lat="43.805175" lon="11.2720933"><ele>146.0</ele><time>2026-05-02T10:13:10.727Z</time></trkpt><trkpt lat="43.8050933" lon="11.2719717"><ele>145.6</ele><time>2026-05-02T10:13:11.728Z</time></trkpt><trkpt lat="43.8050067" lon="11.2718617"><ele>145.2</ele><time>2026-05-02T10:13:12.729Z</time></trkpt><trkpt lat="43.804925" lon="11.27177"><ele>144.8</ele><time>2026-05-02T10:13:13.728Z</time></trkpt><trkpt lat="43.8048517" lon="11.2716983"><ele>144.4</ele><time>2026-05-02T10:13:14.729Z</time></trkpt><trkpt lat="43.804785" lon="11.2716317"><ele>144.0</ele><time>2026-05-02T10:13:15.729Z</time></trkpt><trkpt lat="43.8047267" lon="11.2715883"><ele>144.0</ele><time>2026-05-02T10:13:16.725Z</time></trkpt><trkpt lat="43.8046283" lon="11.2714867"><ele>144.0</ele><time>2026-05-02T10:13:18.729Z</time></trkpt><trkpt lat="43.8045717" lon="11.2714317"><ele>144.0</ele><time>2026-05-02T10:13:19.728Z</time></trkpt><trkpt lat="43.8045" lon="11.2713717"><ele>144.0</ele><time>2026-05-02T10:13:20.729Z</time></trkpt><trkpt lat="43.80442" lon="11.2713117"><ele>144.0</ele><time>2026-05-02T10:13:21.729Z</time></trkpt><trkpt lat="43.804335" lon="11.271245"><ele>143.6</ele><time>2026-05-02T10:13:22.728Z</time></trkpt><trkpt lat="43.8042483" lon="11.2711817"><ele>143.2</ele><time>2026-05-02T10:13:23.729Z</time></trkpt><trkpt lat="43.8041733" lon="11.271105"><ele>142.79999999999998</ele><time>2026-05-02T10:13:24.729Z</time></trkpt><trkpt lat="43.8041117" lon="11.27101"><ele>142.4</ele><time>2026-05-02T10:13:25.728Z</time></trkpt><trkpt lat="43.8040717" lon="11.2708883"><ele>142.0</ele><time>2026-05-02T10:13:26.728Z</time></trkpt><trkpt lat="43.80404" lon="11.2707517"><ele>141.0</ele><time>2026-05-02T10:13:27.729Z</time></trkpt><trkpt lat="43.804005" lon="11.270605"><ele>140.0</ele><time>2026-05-02T10:13:28.728Z</time></trkpt><trkpt lat="43.8039683" lon="11.27045"><ele>139.0</ele><time>2026-05-02T10:13:29.727Z</time></trkpt><trkpt lat="43.8039267" lon="11.2703017"><ele>138.0</ele><time>2026-05-02T10:13:30.728Z</time></trkpt><trkpt lat="43.8038483" lon="11.2700133"><ele>138.0</ele><time>2026-05-02T10:13:32.728Z</time></trkpt><trkpt lat="43.80381" lon="11.26988"><ele>138.0</ele><time>2026-05-02T10:13:33.728Z</time></trkpt><trkpt lat="43.8037683" lon="11.2697417"><ele>138.0</ele><time>2026-05-02T10:13:34.728Z</time></trkpt><trkpt lat="43.8037183" lon="11.2696083"><ele>138.0</ele><time>2026-05-02T10:13:35.732Z</time></trkpt><trkpt lat="43.803665" lon="11.26947"><ele>138.0</ele><time>2026-05-02T10:13:36.729Z</time></trkpt><trkpt lat="43.80361" lon="11.2693283"><ele>137.75</ele><time>2026-05-02T10:13:37.729Z</time></trkpt><trkpt lat="43.8035533" lon="11.2691867"><ele>137.5</ele><time>2026-05-02T10:13:38.728Z</time></trkpt><trkpt lat="43.8034933" lon="11.2690467"><ele>137.25</ele><time>2026-05-02T10:13:39.727Z</time></trkpt><trkpt lat="43.8034283" lon="11.26891"><ele>137.0</ele><time>2026-05-02T10:13:40.729Z</time></trkpt><trkpt lat="43.8033517" lon="11.2687783"><ele>137.0</ele><time>2026-05-02T10:13:41.728Z</time></trkpt><trkpt lat="43.8032633" lon="11.2686683"><ele>137.0</ele><time>2026-05-02T10:13:42.728Z</time></trkpt><trkpt lat="43.8031617" lon="11.2685767"><ele>137.0</ele><time>2026-05-02T10:13:43.727Z</time></trkpt><trkpt lat="43.8030533" lon="11.268505"><ele>137.0</ele><time>2026-05-02T10:13:44.728Z</time></trkpt><trkpt lat="43.8029433" lon="11.2684383"><ele>137.0</ele><time>2026-05-02T10:13:45.727Z</time></trkpt><trkpt lat="43.80283" lon="11.2683717"><ele>137.0</ele><time>2026-05-02T10:13:46.729Z</time></trkpt><trkpt lat="43.8027217" lon="11.268315"><ele>137.0</ele><time>2026-05-02T10:13:47.729Z</time></trkpt><trkpt lat="43.802615" lon="11.26825"><ele>137.0</ele><time>2026-05-02T10:13:48.73Z</time></trkpt><trkpt lat="43.8025067" lon="11.268195"><ele>136.4</ele><time>2026-05-02T10:13:49.727Z</time></trkpt><trkpt lat="43.802405" lon="11.268135"><ele>135.79999999999998</ele><time>2026-05-02T10:13:50.73Z</time></trkpt><trkpt lat="43.8023067" lon="11.268075"><ele>135.2</ele><time>2026-05-02T10:13:51.728Z</time></trkpt><trkpt lat="43.8022117" lon="11.2680083"><ele>134.6</ele><time>2026-05-02T10:13:52.729Z</time></trkpt><trkpt lat="43.8021233" lon="11.2679533"><ele>134.0</ele><time>2026-05-02T10:13:53.727Z</time></trkpt><trkpt lat="43.8020433" lon="11.2679067"><ele>134.0</ele><time>2026-05-02T10:13:54.728Z</time></trkpt><trkpt lat="43.801975" lon="11.2678617"><ele>134.0</ele><time>2026-05-02T10:13:55.726Z</time></trkpt><trkpt lat="43.8019133" lon="11.2678183"><ele>134.0</ele><time>2026-05-02T10:13:56.726Z</time></trkpt><trkpt lat="43.8018117" lon="11.2677483"><ele>134.0</ele><time>2026-05-02T10:13:58.728Z</time></trkpt><trkpt lat="43.8017067" lon="11.2676667"><ele>134.0</ele><time>2026-05-02T10:14:00.727Z</time></trkpt><trkpt lat="43.80164" lon="11.2676167"><ele>132.5</ele><time>2026-05-02T10:14:01.726Z</time></trkpt><trkpt lat="43.801555" lon="11.26755"><ele>131.0</ele><time>2026-05-02T10:14:02.727Z</time></trkpt><trkpt lat="43.801455" lon="11.2674717"><ele>129.5</ele><time>2026-05-02T10:14:03.727Z</time></trkpt><trkpt lat="43.80135" lon="11.2673917"><ele>128.0</ele><time>2026-05-02T10:14:04.726Z</time></trkpt><trkpt lat="43.8012433" lon="11.2673083"><ele>128.5</ele><time>2026-05-02T10:14:05.727Z</time></trkpt><trkpt lat="43.8011317" lon="11.2672233"><ele>129.0</ele><time>2026-05-02T10:14:06.727Z</time></trkpt><trkpt lat="43.8010167" lon="11.2671417"><ele>129.5</ele><time>2026-05-02T10:14:07.728Z</time></trkpt><trkpt lat="43.8009" lon="11.2670617"><ele>130.0</ele><time>2026-05-02T10:14:08.729Z</time></trkpt><trkpt lat="43.8007867" lon="11.2669783"><ele>128.75</ele><time>2026-05-02T10:14:09.729Z</time></trkpt><trkpt lat="43.8006817" lon="11.266885"><ele>127.5</ele><time>2026-05-02T10:14:10.728Z</time></trkpt><trkpt lat="43.8005833" lon="11.2667733"><ele>126.25</ele><time>2026-05-02T10:14:11.726Z</time></trkpt><trkpt lat="43.8004983" lon="11.266635"><ele>125.0</ele><time>2026-05-02T10:14:12.728Z</time></trkpt><trkpt lat="43.8004217" lon="11.26649"><ele>125.0</ele><time>2026-05-02T10:14:13.727Z</time></trkpt><trkpt lat="43.8003467" lon="11.266335"><ele>125.0</ele><time>2026-05-02T10:14:14.729Z</time></trkpt><trkpt lat="43.8002667" lon="11.26618"><ele>125.0</ele><time>2026-05-02T10:14:15.729Z</time></trkpt><trkpt lat="43.8001883" lon="11.26602"><ele>125.0</ele><time>2026-05-02T10:14:16.728Z</time></trkpt><trkpt lat="43.8001083" lon="11.26586"><ele>125.0</ele><time>2026-05-02T10:14:17.729Z</time></trkpt><trkpt lat="43.800025" lon="11.265705"><ele>125.0</ele><time>2026-05-02T10:14:18.725Z</time></trkpt><trkpt lat="43.79994" lon="11.2655483"><ele>125.0</ele><time>2026-05-02T10:14:19.727Z</time></trkpt><trkpt lat="43.7998517" lon="11.265385"><ele>125.0</ele><time>2026-05-02T10:14:20.727Z</time></trkpt><trkpt lat="43.7997617" lon="11.2652133"><ele>123.5</ele><time>2026-05-02T10:14:21.727Z</time></trkpt><trkpt lat="43.7996717" lon="11.2650517"><ele>122.0</ele><time>2026-05-02T10:14:22.726Z</time></trkpt><trkpt lat="43.7995883" lon="11.2648883"><ele>120.5</ele><time>2026-05-02T10:14:23.726Z</time></trkpt><trkpt lat="43.799505" lon="11.26472"><ele>119.0</ele><time>2026-05-02T10:14:24.726Z</time></trkpt><trkpt lat="43.7994183" lon="11.2645667"><ele>118.75</ele><time>2026-05-02T10:14:25.726Z</time></trkpt><trkpt lat="43.79933" lon="11.2644283"><ele>118.5</ele><time>2026-05-02T10:14:26.726Z</time></trkpt><trkpt lat="43.79924" lon="11.2642967"><ele>118.25</ele><time>2026-05-02T10:14:27.729Z</time></trkpt><trkpt lat="43.7991483" lon="11.2641633"><ele>118.0</ele><time>2026-05-02T10:14:28.727Z</time></trkpt><trkpt lat="43.7990517" lon="11.2640367"><ele>116.25</ele><time>2026-05-02T10:14:29.728Z</time></trkpt><trkpt lat="43.7989567" lon="11.26391"><ele>114.5</ele><time>2026-05-02T10:14:30.726Z</time></trkpt><trkpt lat="43.7988683" lon="11.2637917"><ele>112.75</ele><time>2026-05-02T10:14:31.727Z</time></trkpt><trkpt lat="43.7987817" lon="11.2636833"><ele>111.0</ele><time>2026-05-02T10:14:32.727Z</time></trkpt><trkpt lat="43.798695" lon="11.26358"><ele>111.0</ele><time>2026-05-02T10:14:33.727Z</time></trkpt><trkpt lat="43.7986083" lon="11.2634733"><ele>111.0</ele><time>2026-05-02T10:14:34.727Z</time></trkpt><trkpt lat="43.79853" lon="11.2633633"><ele>111.0</ele><time>2026-05-02T10:14:35.728Z</time></trkpt><trkpt lat="43.7984617" lon="11.2632433"><ele>111.0</ele><time>2026-05-02T10:14:36.726Z</time></trkpt><trkpt lat="43.7984133" lon="11.26312"><ele>111.0</ele><time>2026-05-02T10:14:37.73Z</time></trkpt><trkpt lat="43.7983767" lon="11.2629917"><ele>111.6</ele><time>2026-05-02T10:14:38.727Z</time></trkpt><trkpt lat="43.79834" lon="11.2628583"><ele>112.19999999999999</ele><time>2026-05-02T10:14:39.725Z</time></trkpt><trkpt lat="43.798305" lon="11.26272"><ele>112.80000000000001</ele><time>2026-05-02T10:14:40.727Z</time></trkpt><trkpt lat="43.7982683" lon="11.2625883"><ele>113.4</ele><time>2026-05-02T10:14:41.726Z</time></trkpt><trkpt lat="43.798225" lon="11.262465"><ele>114.0</ele><time>2026-05-02T10:14:42.726Z</time></trkpt><trkpt lat="43.798165" lon="11.26237"><ele>114.0</ele><time>2026-05-02T10:14:43.726Z</time></trkpt><trkpt lat="43.7980983" lon="11.26229"><ele>114.0</ele><time>2026-05-02T10:14:44.727Z</time></trkpt><trkpt lat="43.7980017" lon="11.2622417"><ele>114.0</ele><time>2026-05-02T10:14:45.727Z</time></trkpt><trkpt lat="43.7978833" lon="11.2622167"><ele>114.0</ele><time>2026-05-02T10:14:46.729Z</time></trkpt><trkpt lat="43.7977583" lon="11.262205"><ele>114.0</ele><time>2026-05-02T10:14:47.729Z</time></trkpt><trkpt lat="43.797625" lon="11.2622067"><ele>114.0</ele><time>2026-05-02T10:14:48.727Z</time></trkpt><trkpt lat="43.7974917" lon="11.262205"><ele>114.0</ele><time>2026-05-02T10:14:49.73Z</time></trkpt><trkpt lat="43.79735" lon="11.26221"><ele>114.0</ele><time>2026-05-02T10:14:50.729Z</time></trkpt><trkpt lat="43.7972017" lon="11.2621883"><ele>114.0</ele><time>2026-05-02T10:14:51.727Z</time></trkpt><trkpt lat="43.797065" lon="11.2621733"><ele>114.0</ele><time>2026-05-02T10:14:52.728Z</time></trkpt><trkpt lat="43.7969283" lon="11.26215"><ele>114.0</ele><time>2026-05-02T10:14:53.726Z</time></trkpt><trkpt lat="43.796785" lon="11.262115"><ele>114.0</ele><time>2026-05-02T10:14:54.728Z</time></trkpt><trkpt lat="43.7966417" lon="11.2620833"><ele>114.0</ele><time>2026-05-02T10:14:55.729Z</time></trkpt><trkpt lat="43.7965033" lon="11.262055"><ele>112.75</ele><time>2026-05-02T10:14:56.729Z</time></trkpt><trkpt lat="43.7963667" lon="11.2620067"><ele>111.5</ele><time>2026-05-02T10:14:57.727Z</time></trkpt><trkpt lat="43.7962333" lon="11.261945"><ele>110.25</ele><time>2026-05-02T10:14:58.727Z</time></trkpt><trkpt lat="43.7961083" lon="11.2618783"><ele>109.0</ele><time>2026-05-02T10:14:59.728Z</time></trkpt><trkpt lat="43.7959883" lon="11.2618217"><ele>108.25</ele><time>2026-05-02T10:15:00.73Z</time></trkpt><trkpt lat="43.7958717" lon="11.2617583"><ele>107.5</ele><time>2026-05-02T10:15:01.727Z</time></trkpt><trkpt lat="43.795755" lon="11.2616833"><ele>106.75</ele><time>2026-05-02T10:15:02.729Z</time></trkpt><trkpt lat="43.7956467" lon="11.261595"><ele>106.0</ele><time>2026-05-02T10:15:03.728Z</time></trkpt><trkpt lat="43.795545" lon="11.2615017"><ele>105.0</ele><time>2026-05-02T10:15:04.727Z</time></trkpt><trkpt lat="43.79547" lon="11.2614133"><ele>104.0</ele><time>2026-05-02T10:15:05.73Z</time></trkpt><trkpt lat="43.7954017" lon="11.261335"><ele>103.0</ele><time>2026-05-02T10:15:06.729Z</time></trkpt><trkpt lat="43.7953233" lon="11.2612733"><ele>102.0</ele><time>2026-05-02T10:15:07.731Z</time></trkpt><trkpt lat="43.7952317" lon="11.2612283"><ele>101.0</ele><time>2026-05-02T10:15:08.728Z</time></trkpt><trkpt lat="43.795135" lon="11.2611867"><ele>101.0</ele><time>2026-05-02T10:15:09.729Z</time></trkpt><trkpt lat="43.7950217" lon="11.2611617"><ele>101.0</ele><time>2026-05-02T10:15:10.729Z</time></trkpt><trkpt lat="43.794895" lon="11.2611717"><ele>101.0</ele><time>2026-05-02T10:15:11.73Z</time></trkpt><trkpt lat="43.7947683" lon="11.2611967"><ele>101.0</ele><time>2026-05-02T10:15:12.73Z</time></trkpt><trkpt lat="43.7946367" lon="11.2612233"><ele>101.0</ele><time>2026-05-02T10:15:13.728Z</time></trkpt><trkpt lat="43.7945" lon="11.2612567"><ele>101.0</ele><time>2026-05-02T10:15:14.732Z</time></trkpt><trkpt lat="43.7943633" lon="11.2612833"><ele>101.0</ele><time>2026-05-02T10:15:15.727Z</time></trkpt><trkpt lat="43.7942333" lon="11.2612983"><ele>101.0</ele><time>2026-05-02T10:15:16.729Z</time></trkpt><trkpt lat="43.7940983" lon="11.2613067"><ele>101.0</ele><time>2026-05-02T10:15:17.728Z</time></trkpt><trkpt lat="43.7939517" lon="11.2613183"><ele>101.0</ele><time>2026-05-02T10:15:18.727Z</time></trkpt><trkpt lat="43.7938067" lon="11.2613283"><ele>101.0</ele><time>2026-05-02T10:15:19.729Z</time></trkpt><trkpt lat="43.793665" lon="11.2613367"><ele>101.0</ele><time>2026-05-02T10:15:20.73Z</time></trkpt><trkpt lat="43.7935233" lon="11.26134"><ele>101.5</ele><time>2026-05-02T10:15:21.73Z</time></trkpt><trkpt lat="43.79338" lon="11.261345"><ele>102.0</ele><time>2026-05-02T10:15:22.729Z</time></trkpt><trkpt lat="43.7932383" lon="11.2613533"><ele>102.5</ele><time>2026-05-02T10:15:23.729Z</time></trkpt><trkpt lat="43.7930983" lon="11.2613617"><ele>103.0</ele><time>2026-05-02T10:15:24.731Z</time></trkpt><trkpt lat="43.7929617" lon="11.261365"><ele>103.0</ele><time>2026-05-02T10:15:25.73Z</time></trkpt><trkpt lat="43.7928317" lon="11.2613667"><ele>103.0</ele><time>2026-05-02T10:15:26.728Z</time></trkpt><trkpt lat="43.7927117" lon="11.261375"><ele>103.0</ele><time>2026-05-02T10:15:27.73Z</time></trkpt><trkpt lat="43.792595" lon="11.2613783"><ele>103.0</ele><time>2026-05-02T10:15:28.729Z</time></trkpt><trkpt lat="43.792485" lon="11.2613817"><ele>101.80000000000001</ele><time>2026-05-02T10:15:29.728Z</time></trkpt><trkpt lat="43.7923833" lon="11.2613783"><ele>100.6</ele><time>2026-05-02T10:15:30.727Z</time></trkpt><trkpt lat="43.7922883" lon="11.2613683"><ele>99.4</ele><time>2026-05-02T10:15:31.73Z</time></trkpt><trkpt lat="43.7922017" lon="11.2613383"><ele>98.19999999999999</ele><time>2026-05-02T10:15:32.728Z</time></trkpt><trkpt lat="43.7921233" lon="11.2612783"><ele>97.0</ele><time>2026-05-02T10:15:33.725Z</time></trkpt><trkpt lat="43.79206" lon="11.2611783"><ele>97.0</ele><time>2026-05-02T10:15:34.726Z</time></trkpt><trkpt lat="43.7919967" lon="11.2610533"><ele>97.0</ele><time>2026-05-02T10:15:35.725Z</time></trkpt><trkpt lat="43.79193" lon="11.26092"><ele>97.0</ele><time>2026-05-02T10:15:36.725Z</time></trkpt><trkpt lat="43.7918567" lon="11.2607733"><ele>97.0</ele><time>2026-05-02T10:15:37.728Z</time></trkpt><trkpt lat="43.79178" lon="11.26065"><ele>94.75</ele><time>2026-05-02T10:15:38.726Z</time></trkpt><trkpt lat="43.7916867" lon="11.2605233"><ele>92.5</ele><time>2026-05-02T10:15:39.727Z</time></trkpt><trkpt lat="43.7915883" lon="11.2603917"><ele>90.25</ele><time>2026-05-02T10:15:40.728Z</time></trkpt><trkpt lat="43.7914833" lon="11.2602833"><ele>88.0</ele><time>2026-05-02T10:15:41.725Z</time></trkpt><trkpt lat="43.7913733" lon="11.2601817"><ele>88.0</ele><time>2026-05-02T10:15:42.726Z</time></trkpt><trkpt lat="43.791265" lon="11.26008"><ele>88.0</ele><time>2026-05-02T10:15:43.73Z</time></trkpt><trkpt lat="43.791155" lon="11.259975"><ele>88.0</ele><time>2026-05-02T10:15:44.729Z</time></trkpt><trkpt lat="43.7910467" lon="11.259875"><ele>88.0</ele><time>2026-05-02T10:15:45.729Z</time></trkpt><trkpt lat="43.79094" lon="11.2597733"><ele>86.0</ele><time>2026-05-02T10:15:46.728Z</time></trkpt><trkpt lat="43.7908383" lon="11.259685"><ele>84.0</ele><time>2026-05-02T10:15:47.725Z</time></trkpt><trkpt lat="43.7907367" lon="11.2596017"><ele>82.0</ele><time>2026-05-02T10:15:48.726Z</time></trkpt><trkpt lat="43.790635" lon="11.2595117"><ele>80.0</ele><time>2026-05-02T10:15:49.727Z</time></trkpt><trkpt lat="43.7905333" lon="11.25943"><ele>80.0</ele><time>2026-05-02T10:15:50.726Z</time></trkpt><trkpt lat="43.7904317" lon="11.2593383"><ele>80.0</ele><time>2026-05-02T10:15:51.727Z</time></trkpt><trkpt lat="43.7903317" lon="11.25924"><ele>80.0</ele><time>2026-05-02T10:15:52.727Z</time></trkpt><trkpt lat="43.79023" lon="11.259155"><ele>80.0</ele><time>2026-05-02T10:15:53.726Z</time></trkpt><trkpt lat="43.7901333" lon="11.2590733"><ele>78.8</ele><time>2026-05-02T10:15:54.726Z</time></trkpt><trkpt lat="43.7900417" lon="11.2589917"><ele>77.6</ele><time>2026-05-02T10:15:55.727Z</time></trkpt><trkpt lat="43.789955" lon="11.2589183"><ele>76.4</ele><time>2026-05-02T10:15:56.727Z</time></trkpt><trkpt lat="43.7898717" lon="11.2588567"><ele>75.2</ele><time>2026-05-02T10:15:57.728Z</time></trkpt><trkpt lat="43.789795" lon="11.2588117"><ele>74.0</ele><time>2026-05-02T10:15:58.728Z</time></trkpt><trkpt lat="43.7897283" lon="11.2587817"><ele>74.0</ele><time>2026-05-02T10:15:59.728Z</time></trkpt><trkpt lat="43.7896367" lon="11.258815"><ele>74.0</ele><time>2026-05-02T10:16:01.727Z</time></trkpt><trkpt lat="43.7895617" lon="11.2588667"><ele>74.0</ele><time>2026-05-02T10:16:03.725Z</time></trkpt><trkpt lat="43.78947" lon="11.25899"><ele>74.0</ele><time>2026-05-02T10:16:05.726Z</time></trkpt><trkpt lat="43.78944" lon="11.2590917"><ele>74.0</ele><time>2026-05-02T10:16:06.728Z</time></trkpt><trkpt lat="43.7894067" lon="11.2592"><ele>74.0</ele><time>2026-05-02T10:16:07.729Z</time></trkpt><trkpt lat="43.789375" lon="11.259315"><ele>74.0</ele><time>2026-05-02T10:16:08.727Z</time></trkpt><trkpt lat="43.78934" lon="11.259425"><ele>74.0</ele><time>2026-05-02T10:16:09.727Z</time></trkpt><trkpt lat="43.7893067" lon="11.25953"><ele>74.0</ele><time>2026-05-02T10:16:10.728Z</time></trkpt><trkpt lat="43.7892683" lon="11.2596433"><ele>74.0</ele><time>2026-05-02T10:16:11.728Z</time></trkpt><trkpt lat="43.7892333" lon="11.25976"><ele>74.0</ele><time>2026-05-02T10:16:12.734Z</time></trkpt><trkpt lat="43.7891967" lon="11.2598817"><ele>74.60000000000001</ele><time>2026-05-02T10:16:13.727Z</time></trkpt><trkpt lat="43.7891583" lon="11.2600033"><ele>75.2</ele><time>2026-05-02T10:16:14.727Z</time></trkpt><trkpt lat="43.7891133" lon="11.2601267"><ele>75.80000000000001</ele><time>2026-05-02T10:16:15.727Z</time></trkpt><trkpt lat="43.7890817" lon="11.2602483"><ele>76.4</ele><time>2026-05-02T10:16:16.726Z</time></trkpt><trkpt lat="43.7890383" lon="11.26037"><ele>77.0</ele><time>2026-05-02T10:16:17.725Z</time></trkpt><trkpt lat="43.7889967" lon="11.26048"><ele>77.0</ele><time>2026-05-02T10:16:18.727Z</time></trkpt><trkpt lat="43.78897" lon="11.2605867"><ele>77.0</ele><time>2026-05-02T10:16:19.727Z</time></trkpt><trkpt lat="43.7889367" lon="11.2606917"><ele>77.0</ele><time>2026-05-02T10:16:20.728Z</time></trkpt><trkpt lat="43.7889033" lon="11.2607933"><ele>77.0</ele><time>2026-05-02T10:16:21.727Z</time></trkpt><trkpt lat="43.78887" lon="11.2608867"><ele>77.0</ele><time>2026-05-02T10:16:22.728Z</time></trkpt><trkpt lat="43.78884" lon="11.2609833"><ele>77.0</ele><time>2026-05-02T10:16:23.727Z</time></trkpt><trkpt lat="43.7888083" lon="11.2610867"><ele>78.4</ele><time>2026-05-02T10:16:24.727Z</time></trkpt><trkpt lat="43.7887717" lon="11.2612"><ele>79.80000000000001</ele><time>2026-05-02T10:16:25.728Z</time></trkpt><trkpt lat="43.7887383" lon="11.26132"><ele>81.2</ele><time>2026-05-02T10:16:26.728Z</time></trkpt><trkpt lat="43.7886967" lon="11.2614417"><ele>82.60000000000001</ele><time>2026-05-02T10:16:27.726Z</time></trkpt><trkpt lat="43.7886583" lon="11.2615633"><ele>84.0</ele><time>2026-05-02T10:16:28.727Z</time></trkpt><trkpt lat="43.78863" lon="11.2616833"><ele>84.0</ele><time>2026-05-02T10:16:29.726Z</time></trkpt><trkpt lat="43.7886083" lon="11.261805"><ele>84.0</ele><time>2026-05-02T10:16:30.728Z</time></trkpt><trkpt lat="43.7885983" lon="11.26192"><ele>84.0</ele><time>2026-05-02T10:16:31.728Z</time></trkpt><trkpt lat="43.788595" lon="11.26203"><ele>84.0</ele><time>2026-05-02T10:16:32.728Z</time></trkpt><trkpt lat="43.788595" lon="11.26214"><ele>84.0</ele><time>2026-05-02T10:16:33.728Z</time></trkpt><trkpt lat="43.788595" lon="11.262235"><ele>84.0</ele><time>2026-05-02T10:16:34.728Z</time></trkpt><trkpt lat="43.7885933" lon="11.2623917"><ele>82.83333333333333</ele><time>2026-05-02T10:16:36.729Z</time></trkpt><trkpt lat="43.78858" lon="11.2625117"><ele>81.66666666666667</ele><time>2026-05-02T10:16:38.729Z</time></trkpt><trkpt lat="43.7885383" lon="11.2626183"><ele>80.5</ele><time>2026-05-02T10:16:41.727Z</time></trkpt><trkpt lat="43.7884683" lon="11.2626433"><ele>79.33333333333334</ele><time>2026-05-02T10:16:44.728Z</time></trkpt><trkpt lat="43.788395" lon="11.2626517"><ele>78.16666666666667</ele><time>2026-05-02T10:16:45.728Z</time></trkpt><trkpt lat="43.78832" lon="11.26265"><ele>77.0</ele><time>2026-05-02T10:16:46.729Z</time></trkpt><trkpt lat="43.7881833" lon="11.26265"><ele>75.57142857142857</ele><time>2026-05-02T10:16:47.726Z</time></trkpt><trkpt lat="43.78809" lon="11.2626517"><ele>74.14285714285714</ele><time>2026-05-02T10:16:48.728Z</time></trkpt><trkpt lat="43.788015" lon="11.2626533"><ele>72.71428571428572</ele><time>2026-05-02T10:16:49.727Z</time></trkpt><trkpt lat="43.7879433" lon="11.2626617"><ele>71.28571428571428</ele><time>2026-05-02T10:16:50.727Z</time></trkpt><trkpt lat="43.78788" lon="11.2626633"><ele>69.85714285714286</ele><time>2026-05-02T10:16:51.726Z</time></trkpt><trkpt lat="43.787815" lon="11.26267"><ele>68.42857142857143</ele><time>2026-05-02T10:16:52.726Z</time></trkpt><trkpt lat="43.78775" lon="11.2626633"><ele>67.0</ele><time>2026-05-02T10:16:53.726Z</time></trkpt><trkpt lat="43.7876217" lon="11.26266"><ele>66.0</ele><time>2026-05-02T10:16:55.728Z</time></trkpt><trkpt lat="43.787555" lon="11.26265"><ele>65.0</ele><time>2026-05-02T10:16:56.728Z</time></trkpt><trkpt lat="43.787475" lon="11.2626417"><ele>64.0</ele><time>2026-05-02T10:16:57.728Z</time></trkpt><trkpt lat="43.7874033" lon="11.2626317"><ele>63.0</ele><time>2026-05-02T10:16:58.727Z</time></trkpt><trkpt lat="43.7873183" lon="11.2626217"><ele>61.99999999999999</ele><time>2026-05-02T10:16:59.729Z</time></trkpt><trkpt lat="43.78724" lon="11.2626167"><ele>61.0</ele><time>2026-05-02T10:17:00.734Z</time></trkpt><trkpt lat="43.7871617" lon="11.26261"><ele>60.99999999999999</ele><time>2026-05-02T10:17:01.728Z</time></trkpt><trkpt lat="43.787085" lon="11.2626117"><ele>61.0</ele><time>2026-05-02T10:17:02.727Z</time></trkpt><trkpt lat="43.787015" lon="11.2626083"><ele>61.0</ele><time>2026-05-02T10:17:03.728Z</time></trkpt><trkpt lat="43.786945" lon="11.2626"><ele>61.0</ele><time>2026-05-02T10:17:04.727Z</time></trkpt><trkpt lat="43.7868767" lon="11.2625967"><ele>60.99999999999999</ele><time>2026-05-02T10:17:05.727Z</time></trkpt><trkpt lat="43.7867717" lon="11.262575"><ele>61.0</ele><time>2026-05-02T10:17:07.727Z</time></trkpt><trkpt lat="43.786675" lon="11.26255"><ele>60.599999999999994</ele><time>2026-05-02T10:17:09.725Z</time></trkpt><trkpt lat="43.7865717" lon="11.2625383"><ele>60.199999999999996</ele><time>2026-05-02T10:17:11.728Z</time></trkpt><trkpt lat="43.7865067" lon="11.2625317"><ele>59.800000000000004</ele><time>2026-05-02T10:17:13.728Z</time></trkpt><trkpt lat="43.786415" lon="11.2624583"><ele>59.400000000000006</ele><time>2026-05-02T10:17:57.729Z</time></trkpt><trkpt lat="43.7862983" lon="11.262425"><ele>59.0</ele><time>2026-05-02T10:17:59.728Z</time></trkpt><trkpt lat="43.7862283" lon="11.2624117"><ele>59.0</ele><time>2026-05-02T10:18:00.726Z</time></trkpt><trkpt lat="43.7861533" lon="11.2624"><ele>59.00000000000001</ele><time>2026-05-02T10:18:01.729Z</time></trkpt><trkpt lat="43.7860717" lon="11.2623917"><ele>59.00000000000001</ele><time>2026-05-02T10:18:02.729Z</time></trkpt><trkpt lat="43.78598" lon="11.262375"><ele>59.0</ele><time>2026-05-02T10:18:03.73Z</time></trkpt><trkpt lat="43.7858783" lon="11.26236"><ele>59.0</ele><time>2026-05-02T10:18:04.727Z</time></trkpt><trkpt lat="43.7857733" lon="11.2623467"><ele>58.6</ele><time>2026-05-02T10:18:05.728Z</time></trkpt><trkpt lat="43.7856683" lon="11.262335"><ele>58.2</ele><time>2026-05-02T10:18:06.728Z</time></trkpt><trkpt lat="43.785565" lon="11.2623267"><ele>57.800000000000004</ele><time>2026-05-02T10:18:07.728Z</time></trkpt><trkpt lat="43.7854583" lon="11.2623183"><ele>57.400000000000006</ele><time>2026-05-02T10:18:08.729Z</time></trkpt><trkpt lat="43.7853533" lon="11.262305"><ele>57.0</ele><time>2026-05-02T10:18:09.727Z</time></trkpt><trkpt lat="43.7852417" lon="11.2622883"><ele>57.400000000000006</ele><time>2026-05-02T10:18:10.729Z</time></trkpt><trkpt lat="43.7851333" lon="11.2622667"><ele>57.800000000000004</ele><time>2026-05-02T10:18:11.73Z</time></trkpt><trkpt lat="43.7850267" lon="11.2622267"><ele>58.2</ele><time>2026-05-02T10:18:12.729Z</time></trkpt><trkpt lat="43.7849167" lon="11.2621867"><ele>58.6</ele><time>2026-05-02T10:18:13.728Z</time></trkpt><trkpt lat="43.784815" lon="11.2621483"><ele>59.0</ele><time>2026-05-02T10:18:14.728Z</time></trkpt><trkpt lat="43.7847283" lon="11.2621167"><ele>59.00000000000001</ele><time>2026-05-02T10:18:15.729Z</time></trkpt><trkpt lat="43.7846417" lon="11.2620667"><ele>59.0</ele><time>2026-05-02T10:18:16.726Z</time></trkpt><trkpt lat="43.7845833" lon="11.2619967"><ele>59.0</ele><time>2026-05-02T10:18:17.728Z</time></trkpt><trkpt lat="43.78454" lon="11.2619183"><ele>59.0</ele><time>2026-05-02T10:18:18.726Z</time></trkpt><trkpt lat="43.7845117" lon="11.26181"><ele>59.00000000000001</ele><time>2026-05-02T10:18:19.728Z</time></trkpt><trkpt lat="43.78449" lon="11.2616717"><ele>59.0</ele><time>2026-05-02T10:18:20.726Z</time></trkpt><trkpt lat="43.7844633" lon="11.2615167"><ele>59.75</ele><time>2026-05-02T10:18:21.729Z</time></trkpt><trkpt lat="43.7844217" lon="11.2613683"><ele>60.5</ele><time>2026-05-02T10:18:22.727Z</time></trkpt><trkpt lat="43.78436" lon="11.2612317"><ele>61.25</ele><time>2026-05-02T10:18:23.728Z</time></trkpt><trkpt lat="43.784285" lon="11.2611067"><ele>62.0</ele><time>2026-05-02T10:18:24.726Z</time></trkpt><trkpt lat="43.78419" lon="11.261"><ele>62.0</ele><time>2026-05-02T10:18:25.73Z</time></trkpt><trkpt lat="43.784085" lon="11.260905"><ele>62.0</ele><time>2026-05-02T10:18:26.73Z</time></trkpt><trkpt lat="43.7839783" lon="11.2608133"><ele>62.0</ele><time>2026-05-02T10:18:27.727Z</time></trkpt><trkpt lat="43.7838783" lon="11.26072"><ele>62.0</ele><time>2026-05-02T10:18:28.727Z</time></trkpt><trkpt lat="43.7837917" lon="11.260595"><ele>61.75</ele><time>2026-05-02T10:18:29.729Z</time></trkpt><trkpt lat="43.7837267" lon="11.260445"><ele>61.5</ele><time>2026-05-02T10:18:30.728Z</time></trkpt><trkpt lat="43.7836783" lon="11.26028"><ele>61.25</ele><time>2026-05-02T10:18:31.73Z</time></trkpt><trkpt lat="43.7836417" lon="11.2601167"><ele>61.0</ele><time>2026-05-02T10:18:32.729Z</time></trkpt><trkpt lat="43.783605" lon="11.259955"><ele>61.0</ele><time>2026-05-02T10:18:33.729Z</time></trkpt><trkpt lat="43.7835667" lon="11.2597967"><ele>60.99999999999999</ele><time>2026-05-02T10:18:34.728Z</time></trkpt><trkpt lat="43.7835267" lon="11.259655"><ele>60.99999999999999</ele><time>2026-05-02T10:18:35.727Z</time></trkpt><trkpt lat="43.7834867" lon="11.25952"><ele>61.0</ele><time>2026-05-02T10:18:36.727Z</time></trkpt><trkpt lat="43.78345" lon="11.25939"><ele>61.0</ele><time>2026-05-02T10:18:37.73Z</time></trkpt><trkpt lat="43.783415" lon="11.2592567"><ele>60.599999999999994</ele><time>2026-05-02T10:18:38.73Z</time></trkpt><trkpt lat="43.7833817" lon="11.2591217"><ele>60.199999999999996</ele><time>2026-05-02T10:18:39.729Z</time></trkpt><trkpt lat="43.783345" lon="11.2589817"><ele>59.800000000000004</ele><time>2026-05-02T10:18:40.726Z</time></trkpt><trkpt lat="43.78331" lon="11.2588383"><ele>59.400000000000006</ele><time>2026-05-02T10:18:41.728Z</time></trkpt><trkpt lat="43.783275" lon="11.2586917"><ele>59.0</ele><time>2026-05-02T10:18:42.728Z</time></trkpt><trkpt lat="43.7832383" lon="11.2585417"><ele>59.0</ele><time>2026-05-02T10:18:43.727Z</time></trkpt><trkpt lat="43.783205" lon="11.2583833"><ele>59.0</ele><time>2026-05-02T10:18:44.726Z</time></trkpt><trkpt lat="43.7831717" lon="11.25822"><ele>59.0</ele><time>2026-05-02T10:18:45.728Z</time></trkpt><trkpt lat="43.7831367" lon="11.258065"><ele>59.0</ele><time>2026-05-02T10:18:46.728Z</time></trkpt><trkpt lat="43.7831" lon="11.2579267"><ele>59.00000000000001</ele><time>2026-05-02T10:18:47.727Z</time></trkpt><trkpt lat="43.7830733" lon="11.2577983"><ele>59.0</ele><time>2026-05-02T10:18:48.728Z</time></trkpt><trkpt lat="43.7830483" lon="11.2576817"><ele>59.0</ele><time>2026-05-02T10:18:49.729Z</time></trkpt><trkpt lat="43.783025" lon="11.2575767"><ele>59.0</ele><time>2026-05-02T10:18:50.729Z</time></trkpt><trkpt lat="43.7829983" lon="11.2574467"><ele>59.00000000000001</ele><time>2026-05-02T10:18:52.728Z</time></trkpt><trkpt lat="43.782995" lon="11.2573483"><ele>59.0</ele><time>2026-05-02T10:19:29.727Z</time></trkpt><trkpt lat="43.7829583" lon="11.2572617"><ele>58.25</ele><time>2026-05-02T10:19:31.73Z</time></trkpt><trkpt lat="43.7829233" lon="11.257175"><ele>57.5</ele><time>2026-05-02T10:19:32.729Z</time></trkpt><trkpt lat="43.78288" lon="11.25703"><ele>56.75</ele><time>2026-05-02T10:19:33.728Z</time></trkpt><trkpt lat="43.7828333" lon="11.2568467"><ele>56.0</ele><time>2026-05-02T10:19:34.728Z</time></trkpt><trkpt lat="43.782795" lon="11.25667"><ele>56.0</ele><time>2026-05-02T10:19:35.728Z</time></trkpt><trkpt lat="43.7827517" lon="11.25649"><ele>56.0</ele><time>2026-05-02T10:19:36.729Z</time></trkpt><trkpt lat="43.7827017" lon="11.2563117"><ele>56.0</ele><time>2026-05-02T10:19:37.728Z</time></trkpt><trkpt lat="43.782655" lon="11.2561283"><ele>56.0</ele><time>2026-05-02T10:19:38.729Z</time></trkpt><trkpt lat="43.7826117" lon="11.2559383"><ele>56.0</ele><time>2026-05-02T10:19:39.728Z</time></trkpt><trkpt lat="43.7825717" lon="11.2557367"><ele>56.0</ele><time>2026-05-02T10:19:40.726Z</time></trkpt><trkpt lat="43.7825233" lon="11.2555583"><ele>56.0</ele><time>2026-05-02T10:19:41.728Z</time></trkpt><trkpt lat="43.78248" lon="11.25537"><ele>56.0</ele><time>2026-05-02T10:19:42.727Z</time></trkpt><trkpt lat="43.782435" lon="11.2551917"><ele>56.0</ele><time>2026-05-02T10:19:43.728Z</time></trkpt><trkpt lat="43.7823883" lon="11.2550217"><ele>56.0</ele><time>2026-05-02T10:19:44.728Z</time></trkpt><trkpt lat="43.7823483" lon="11.2548317"><ele>56.0</ele><time>2026-05-02T10:19:45.728Z</time></trkpt><trkpt lat="43.78231" lon="11.254655"><ele>56.0</ele><time>2026-05-02T10:19:46.728Z</time></trkpt><trkpt lat="43.7822733" lon="11.2544783"><ele>56.0</ele><time>2026-05-02T10:19:47.726Z</time></trkpt><trkpt lat="43.7822367" lon="11.2543283"><ele>55.99999999999999</ele><time>2026-05-02T10:19:48.727Z</time></trkpt><trkpt lat="43.7822033" lon="11.2541817"><ele>55.99999999999999</ele><time>2026-05-02T10:19:49.726Z</time></trkpt><trkpt lat="43.7821733" lon="11.2540467"><ele>56.0</ele><time>2026-05-02T10:19:50.728Z</time></trkpt><trkpt lat="43.7821467" lon="11.2539217"><ele>56.0</ele><time>2026-05-02T10:19:51.727Z</time></trkpt><trkpt lat="43.782125" lon="11.2538083"><ele>56.333333333333336</ele><time>2026-05-02T10:19:52.726Z</time></trkpt><trkpt lat="43.782105" lon="11.25371"><ele>56.66666666666667</ele><time>2026-05-02T10:19:53.728Z</time></trkpt><trkpt lat="43.7820733" lon="11.25355"><ele>57.0</ele><time>2026-05-02T10:19:55.727Z</time></trkpt><trkpt lat="43.7820433" lon="11.2534383"><ele>57.33333333333333</ele><time>2026-05-02T10:19:57.728Z</time></trkpt><trkpt lat="43.7820183" lon="11.253355"><ele>57.666666666666664</ele><time>2026-05-02T10:19:59.728Z</time></trkpt><trkpt lat="43.7819817" lon="11.2532633"><ele>58.0</ele><time>2026-05-02T10:20:02.728Z</time></trkpt><trkpt lat="43.7819533" lon="11.2531617"><ele>57.166666666666664</ele><time>2026-05-02T10:20:10.726Z</time></trkpt><trkpt lat="43.7819467" lon="11.253045"><ele>56.33333333333333</ele><time>2026-05-02T10:20:12.728Z</time></trkpt><trkpt lat="43.7819633" lon="11.2528833"><ele>55.5</ele><time>2026-05-02T10:20:14.729Z</time></trkpt><trkpt lat="43.7819983" lon="11.2527833"><ele>54.66666666666667</ele><time>2026-05-02T10:20:15.728Z</time></trkpt><trkpt lat="43.7820517" lon="11.2526917"><ele>53.833333333333336</ele><time>2026-05-02T10:20:16.726Z</time></trkpt><trkpt lat="43.7821167" lon="11.2526233"><ele>53.0</ele><time>2026-05-02T10:20:17.727Z</time></trkpt><trkpt lat="43.7822167" lon="11.25257"><ele>53.0</ele><time>2026-05-02T10:20:18.728Z</time></trkpt><trkpt lat="43.7823383" lon="11.2525117"><ele>53.0</ele><time>2026-05-02T10:20:19.727Z</time></trkpt><trkpt lat="43.78247" lon="11.2524483"><ele>53.0</ele><time>2026-05-02T10:20:20.728Z</time></trkpt><trkpt lat="43.7825983" lon="11.2523683"><ele>53.0</ele><time>2026-05-02T10:20:21.727Z</time></trkpt><trkpt lat="43.7827367" lon="11.2522933"><ele>53.25</ele><time>2026-05-02T10:20:22.727Z</time></trkpt><trkpt lat="43.7828767" lon="11.2522183"><ele>53.5</ele><time>2026-05-02T10:20:23.727Z</time></trkpt><trkpt lat="43.7830133" lon="11.25216"><ele>53.75</ele><time>2026-05-02T10:20:24.728Z</time></trkpt><trkpt lat="43.7831467" lon="11.2521133"><ele>54.0</ele><time>2026-05-02T10:20:25.729Z</time></trkpt><trkpt lat="43.7832783" lon="11.2520667"><ele>54.0</ele><time>2026-05-02T10:20:26.73Z</time></trkpt><trkpt lat="43.7834133" lon="11.25202"><ele>54.0</ele><time>2026-05-02T10:20:27.728Z</time></trkpt><trkpt lat="43.7835483" lon="11.251975"><ele>54.0</ele><time>2026-05-02T10:20:28.729Z</time></trkpt><trkpt lat="43.783685" lon="11.25193"><ele>54.0</ele><time>2026-05-02T10:20:29.729Z</time></trkpt><trkpt lat="43.7838183" lon="11.25187"><ele>53.5</ele><time>2026-05-02T10:20:30.728Z</time></trkpt><trkpt lat="43.78387" lon="11.2516367"><ele>53.0</ele><time>2026-05-02T10:20:31.728Z</time></trkpt><trkpt lat="43.7837217" lon="11.2511467"><ele>53.0</ele><time>2026-05-02T10:20:32.729Z</time></trkpt><trkpt lat="43.7836283" lon="11.25072"><ele>53.0</ele><time>2026-05-02T10:20:33.729Z</time></trkpt><trkpt lat="43.7835817" lon="11.250485"><ele>53.25</ele><time>2026-05-02T10:20:34.729Z</time></trkpt><trkpt lat="43.783565" lon="11.25026"><ele>53.5</ele><time>2026-05-02T10:20:35.729Z</time></trkpt><trkpt lat="43.7835483" lon="11.2500633"><ele>53.75</ele><time>2026-05-02T10:20:36.729Z</time></trkpt><trkpt lat="43.7835383" lon="11.2498817"><ele>54.0</ele><time>2026-05-02T10:20:37.728Z</time></trkpt><trkpt lat="43.7835283" lon="11.2497117"><ele>54.0</ele><time>2026-05-02T10:20:38.727Z</time></trkpt><trkpt lat="43.7835217" lon="11.2495417"><ele>54.0</ele><time>2026-05-02T10:20:39.73Z</time></trkpt><trkpt lat="43.783525" lon="11.249375"><ele>54.0</ele><time>2026-05-02T10:20:40.728Z</time></trkpt><trkpt lat="43.78353" lon="11.2492117"><ele>54.0</ele><time>2026-05-02T10:20:41.729Z</time></trkpt><trkpt lat="43.7835317" lon="11.2490633"><ele>53.666666666666664</ele><time>2026-05-02T10:20:42.728Z</time></trkpt><trkpt lat="43.7835383" lon="11.2489483"><ele>53.33333333333333</ele><time>2026-05-02T10:20:43.729Z</time></trkpt><trkpt lat="43.78354" lon="11.248855"><ele>53.0</ele><time>2026-05-02T10:20:44.727Z</time></trkpt><trkpt lat="43.7835317" lon="11.248715"><ele>52.666666666666664</ele><time>2026-05-02T10:20:46.727Z</time></trkpt><trkpt lat="43.7835317" lon="11.24862"><ele>52.33333333333333</ele><time>2026-05-02T10:20:48.729Z</time></trkpt><trkpt lat="43.78354" lon="11.2485233"><ele>52.0</ele><time>2026-05-02T10:20:52.727Z</time></trkpt><trkpt lat="43.7835383" lon="11.2484117"><ele>51.99999999999999</ele><time>2026-05-02T10:20:56.729Z</time></trkpt><trkpt lat="43.7835383" lon="11.24832"><ele>52.0</ele><time>2026-05-02T10:20:58.727Z</time></trkpt><trkpt lat="43.7835383" lon="11.2481767"><ele>52.0</ele><time>2026-05-02T10:21:00.729Z</time></trkpt><trkpt lat="43.7835367" lon="11.248085"><ele>52.0</ele><time>2026-05-02T10:21:01.729Z</time></trkpt><trkpt lat="43.7835367" lon="11.247975"><ele>51.99999999999999</ele><time>2026-05-02T10:21:02.728Z</time></trkpt><trkpt lat="43.78354" lon="11.2478433"><ele>52.0</ele><time>2026-05-02T10:21:03.727Z</time></trkpt><trkpt lat="43.78354" lon="11.2476983"><ele>52.0</ele><time>2026-05-02T10:21:04.729Z</time></trkpt><trkpt lat="43.7835383" lon="11.2475417"><ele>52.0</ele><time>2026-05-02T10:21:05.729Z</time></trkpt><trkpt lat="43.7835317" lon="11.2473717"><ele>52.0</ele><time>2026-05-02T10:21:06.729Z</time></trkpt><trkpt lat="43.78352" lon="11.24719"><ele>52.0</ele><time>2026-05-02T10:21:07.728Z</time></trkpt><trkpt lat="43.7834967" lon="11.2470067"><ele>50.75</ele><time>2026-05-02T10:21:08.729Z</time></trkpt><trkpt lat="43.7834667" lon="11.2468167"><ele>49.5</ele><time>2026-05-02T10:21:09.729Z</time></trkpt><trkpt lat="43.7834267" lon="11.24663"><ele>48.25</ele><time>2026-05-02T10:21:10.728Z</time></trkpt><trkpt lat="43.7833817" lon="11.2464367"><ele>47.0</ele><time>2026-05-02T10:21:11.728Z</time></trkpt><trkpt lat="43.783335" lon="11.2462567"><ele>46.75</ele><time>2026-05-02T10:21:12.728Z</time></trkpt><trkpt lat="43.78328" lon="11.2460833"><ele>46.5</ele><time>2026-05-02T10:21:13.728Z</time></trkpt><trkpt lat="43.7832167" lon="11.2459067"><ele>46.25</ele><time>2026-05-02T10:21:14.729Z</time></trkpt><trkpt lat="43.78315" lon="11.2457283"><ele>46.0</ele><time>2026-05-02T10:21:15.729Z</time></trkpt><trkpt lat="43.7830867" lon="11.24554"><ele>47.0</ele><time>2026-05-02T10:21:16.729Z</time></trkpt><trkpt lat="43.7830283" lon="11.2453517"><ele>48.0</ele><time>2026-05-02T10:21:17.729Z</time></trkpt><trkpt lat="43.7829767" lon="11.2451533"><ele>49.0</ele><time>2026-05-02T10:21:18.727Z</time></trkpt><trkpt lat="43.7829233" lon="11.2449533"><ele>49.5</ele><time>2026-05-02T10:21:19.729Z</time></trkpt><trkpt lat="43.7828667" lon="11.2447533"><ele>50.0</ele><time>2026-05-02T10:21:20.729Z</time></trkpt><trkpt lat="43.7828317" lon="11.2445567"><ele>50.5</ele><time>2026-05-02T10:21:21.729Z</time></trkpt><trkpt lat="43.7827867" lon="11.2443883"><ele>51.0</ele><time>2026-05-02T10:21:22.728Z</time></trkpt><trkpt lat="43.7827617" lon="11.2442917"><ele>51.0</ele><time>2026-05-02T10:21:23.728Z</time></trkpt><trkpt lat="43.782705" lon="11.24416"><ele>51.0</ele><time>2026-05-02T10:21:24.727Z</time></trkpt><trkpt lat="43.7826517" lon="11.24403"><ele>51.0</ele><time>2026-05-02T10:21:25.728Z</time></trkpt><trkpt lat="43.7825883" lon="11.2439233"><ele>51.0</ele><time>2026-05-02T10:21:26.728Z</time></trkpt><trkpt lat="43.782525" lon="11.2438233"><ele>51.0</ele><time>2026-05-02T10:21:27.727Z</time></trkpt><trkpt lat="43.7824617" lon="11.243725"><ele>50.4</ele><time>2026-05-02T10:21:28.728Z</time></trkpt><trkpt lat="43.7823967" lon="11.2436283"><ele>49.8</ele><time>2026-05-02T10:21:29.728Z</time></trkpt><trkpt lat="43.782325" lon="11.243525"><ele>49.199999999999996</ele><time>2026-05-02T10:21:30.73Z</time></trkpt><trkpt lat="43.7822483" lon="11.2434283"><ele>48.599999999999994</ele><time>2026-05-02T10:21:31.727Z</time></trkpt><trkpt lat="43.78217" lon="11.24333"><ele>48.0</ele><time>2026-05-02T10:21:32.728Z</time></trkpt><trkpt lat="43.7820883" lon="11.2432367"><ele>48.0</ele><time>2026-05-02T10:21:33.728Z</time></trkpt><trkpt lat="43.7820067" lon="11.2431533"><ele>48.0</ele><time>2026-05-02T10:21:34.729Z</time></trkpt><trkpt lat="43.781925" lon="11.2430767"><ele>48.0</ele><time>2026-05-02T10:21:35.729Z</time></trkpt><trkpt lat="43.7818417" lon="11.2430083"><ele>48.0</ele><time>2026-05-02T10:21:36.727Z</time></trkpt><trkpt lat="43.7817633" lon="11.242935"><ele>48.0</ele><time>2026-05-02T10:21:37.729Z</time></trkpt><trkpt lat="43.7816833" lon="11.242865"><ele>47.599999999999994</ele><time>2026-05-02T10:21:38.729Z</time></trkpt><trkpt lat="43.78161" lon="11.2427933"><ele>47.199999999999996</ele><time>2026-05-02T10:21:39.726Z</time></trkpt><trkpt lat="43.7815383" lon="11.2427167"><ele>46.8</ele><time>2026-05-02T10:21:40.729Z</time></trkpt><trkpt lat="43.7814633" lon="11.242645"><ele>46.4</ele><time>2026-05-02T10:21:41.726Z</time></trkpt><trkpt lat="43.7813783" lon="11.24256"><ele>46.0</ele><time>2026-05-02T10:21:42.728Z</time></trkpt><trkpt lat="43.7812783" lon="11.2424767"><ele>46.0</ele><time>2026-05-02T10:21:43.725Z</time></trkpt><trkpt lat="43.781165" lon="11.2423867"><ele>46.0</ele><time>2026-05-02T10:21:44.726Z</time></trkpt><trkpt lat="43.7810417" lon="11.2423017"><ele>46.0</ele><time>2026-05-02T10:21:45.726Z</time></trkpt><trkpt lat="43.7809217" lon="11.2422083"><ele>46.0</ele><time>2026-05-02T10:21:46.729Z</time></trkpt><trkpt lat="43.7808017" lon="11.2421167"><ele>46.0</ele><time>2026-05-02T10:21:47.728Z</time></trkpt><trkpt lat="43.7806783" lon="11.2420267"><ele>46.0</ele><time>2026-05-02T10:21:48.727Z</time></trkpt><trkpt lat="43.780555" lon="11.2419417"><ele>46.0</ele><time>2026-05-02T10:21:49.728Z</time></trkpt><trkpt lat="43.7804333" lon="11.2418433"><ele>46.0</ele><time>2026-05-02T10:21:50.728Z</time></trkpt><trkpt lat="43.7803167" lon="11.2417533"><ele>46.0</ele><time>2026-05-02T10:21:51.725Z</time></trkpt><trkpt lat="43.7802133" lon="11.2416733"><ele>46.0</ele><time>2026-05-02T10:21:52.73Z</time></trkpt><trkpt lat="43.7801183" lon="11.2416067"><ele>46.0</ele><time>2026-05-02T10:21:53.728Z</time></trkpt><trkpt lat="43.780035" lon="11.2415517"><ele>46.0</ele><time>2026-05-02T10:21:54.727Z</time></trkpt><trkpt lat="43.77996" lon="11.241495"><ele>46.0</ele><time>2026-05-02T10:21:55.727Z</time></trkpt><trkpt lat="43.7799017" lon="11.2414467"><ele>46.199999999999996</ele><time>2026-05-02T10:21:56.727Z</time></trkpt><trkpt lat="43.7798067" lon="11.241365"><ele>46.4</ele><time>2026-05-02T10:21:58.728Z</time></trkpt><trkpt lat="43.7797083" lon="11.2412983"><ele>46.6</ele><time>2026-05-02T10:22:00.727Z</time></trkpt><trkpt lat="43.779605" lon="11.2412267"><ele>46.8</ele><time>2026-05-02T10:22:02.734Z</time></trkpt><trkpt lat="43.7795317" lon="11.24119"><ele>47.0</ele><time>2026-05-02T10:22:04.728Z</time></trkpt><trkpt lat="43.7794633" lon="11.241155"><ele>47.0</ele><time>2026-05-02T10:22:07.729Z</time></trkpt><trkpt lat="43.7793883" lon="11.2411067"><ele>47.0</ele><time>2026-05-02T10:22:13.728Z</time></trkpt><trkpt lat="43.7793283" lon="11.2410667"><ele>47.0</ele><time>2026-05-02T10:22:15.727Z</time></trkpt><trkpt lat="43.77921" lon="11.2409967"><ele>47.0</ele><time>2026-05-02T10:22:23.727Z</time></trkpt><trkpt lat="43.7791517" lon="11.2409633"><ele>47.0</ele><time>2026-05-02T10:22:24.726Z</time></trkpt><trkpt lat="43.7790867" lon="11.24092"><ele>47.0</ele><time>2026-05-02T10:22:25.729Z</time></trkpt><trkpt lat="43.7790183" lon="11.2408833"><ele>47.0</ele><time>2026-05-02T10:22:26.73Z</time></trkpt><trkpt lat="43.7789533" lon="11.240845"><ele>47.0</ele><time>2026-05-02T10:22:27.727Z</time></trkpt><trkpt lat="43.778885" lon="11.240805"><ele>47.0</ele><time>2026-05-02T10:22:28.727Z</time></trkpt><trkpt lat="43.7788133" lon="11.2407617"><ele>47.0</ele><time>2026-05-02T10:22:29.729Z</time></trkpt><trkpt lat="43.778745" lon="11.2407217"><ele>47.0</ele><time>2026-05-02T10:22:30.728Z</time></trkpt><trkpt lat="43.7786767" lon="11.2406867"><ele>47.0</ele><time>2026-05-02T10:22:31.727Z</time></trkpt><trkpt lat="43.7786067" lon="11.240655"><ele>47.0</ele><time>2026-05-02T10:22:32.727Z</time></trkpt><trkpt lat="43.7785367" lon="11.24061"><ele>47.166666666666664</ele><time>2026-05-02T10:22:33.727Z</time></trkpt><trkpt lat="43.7784767" lon="11.240555"><ele>47.33333333333333</ele><time>2026-05-02T10:22:34.727Z</time></trkpt><trkpt lat="43.7784267" lon="11.2404983"><ele>47.5</ele><time>2026-05-02T10:22:35.728Z</time></trkpt><trkpt lat="43.7783517" lon="11.2404017"><ele>47.666666666666664</ele><time>2026-05-02T10:22:37.728Z</time></trkpt><trkpt lat="43.7782933" lon="11.240345"><ele>47.833333333333336</ele><time>2026-05-02T10:22:45.728Z</time></trkpt><trkpt lat="43.7782333" lon="11.2402633"><ele>48.0</ele><time>2026-05-02T10:22:47.727Z</time></trkpt><trkpt lat="43.7781833" lon="11.2401767"><ele>48.0</ele><time>2026-05-02T10:22:48.727Z</time></trkpt><trkpt lat="43.7781333" lon="11.2400833"><ele>48.0</ele><time>2026-05-02T10:22:49.728Z</time></trkpt><trkpt lat="43.7780867" lon="11.2399833"><ele>48.0</ele><time>2026-05-02T10:22:50.727Z</time></trkpt><trkpt lat="43.7780383" lon="11.2398833"><ele>48.0</ele><time>2026-05-02T10:22:51.726Z</time></trkpt><trkpt lat="43.7779967" lon="11.2397917"><ele>48.0</ele><time>2026-05-02T10:22:52.727Z</time></trkpt><trkpt lat="43.7779567" lon="11.2397017"><ele>48.0</ele><time>2026-05-02T10:22:53.727Z</time></trkpt><trkpt lat="43.7779217" lon="11.23962"><ele>48.0</ele><time>2026-05-02T10:22:54.726Z</time></trkpt><trkpt lat="43.7778867" lon="11.239525"><ele>48.0</ele><time>2026-05-02T10:22:55.727Z</time></trkpt><trkpt lat="43.7778583" lon="11.239425"><ele>48.0</ele><time>2026-05-02T10:22:56.727Z</time></trkpt><trkpt lat="43.7778317" lon="11.2393167"><ele>48.0</ele><time>2026-05-02T10:22:57.728Z</time></trkpt><trkpt lat="43.777805" lon="11.239205"><ele>48.0</ele><time>2026-05-02T10:22:58.727Z</time></trkpt><trkpt lat="43.7777767" lon="11.2390867"><ele>48.0</ele><time>2026-05-02T10:22:59.727Z</time></trkpt><trkpt lat="43.7777467" lon="11.2389717"><ele>47.666666666666664</ele><time>2026-05-02T10:23:00.727Z</time></trkpt><trkpt lat="43.777715" lon="11.238865"><ele>47.333333333333336</ele><time>2026-05-02T10:23:01.728Z</time></trkpt><trkpt lat="43.777685" lon="11.238765"><ele>47.0</ele><time>2026-05-02T10:23:02.728Z</time></trkpt><trkpt lat="43.7776517" lon="11.2386667"><ele>46.66666666666667</ele><time>2026-05-02T10:23:03.727Z</time></trkpt><trkpt lat="43.7776083" lon="11.2385683"><ele>46.333333333333336</ele><time>2026-05-02T10:23:04.726Z</time></trkpt><trkpt lat="43.7775517" lon="11.23846"><ele>46.0</ele><time>2026-05-02T10:23:05.728Z</time></trkpt><trkpt lat="43.7774933" lon="11.2383417"><ele>46.0</ele><time>2026-05-02T10:23:06.728Z</time></trkpt><trkpt lat="43.7774333" lon="11.2382067"><ele>46.0</ele><time>2026-05-02T10:23:07.726Z</time></trkpt><trkpt lat="43.777375" lon="11.2380717"><ele>46.0</ele><time>2026-05-02T10:23:08.728Z</time></trkpt><trkpt lat="43.7773167" lon="11.2379333"><ele>46.0</ele><time>2026-05-02T10:23:09.728Z</time></trkpt><trkpt lat="43.77726" lon="11.237795"><ele>46.0</ele><time>2026-05-02T10:23:10.727Z</time></trkpt><trkpt lat="43.7771983" lon="11.2376617"><ele>46.0</ele><time>2026-05-02T10:23:11.726Z</time></trkpt><trkpt lat="43.77714" lon="11.23753"><ele>46.0</ele><time>2026-05-02T10:23:12.729Z</time></trkpt><trkpt lat="43.7770817" lon="11.2374117"><ele>46.0</ele><time>2026-05-02T10:23:13.726Z</time></trkpt><trkpt lat="43.7770267" lon="11.2373"><ele>46.0</ele><time>2026-05-02T10:23:14.728Z</time></trkpt><trkpt lat="43.7769667" lon="11.2371967"><ele>46.0</ele><time>2026-05-02T10:23:15.727Z</time></trkpt><trkpt lat="43.7769033" lon="11.2370983"><ele>46.0</ele><time>2026-05-02T10:23:16.728Z</time></trkpt><trkpt lat="43.77683" lon="11.2370067"><ele>46.0</ele><time>2026-05-02T10:23:17.728Z</time></trkpt><trkpt lat="43.7767483" lon="11.23692"><ele>46.0</ele><time>2026-05-02T10:23:18.727Z</time></trkpt><trkpt lat="43.7766533" lon="11.2368367"><ele>46.0</ele><time>2026-05-02T10:23:19.727Z</time></trkpt><trkpt lat="43.7765483" lon="11.236755"><ele>46.0</ele><time>2026-05-02T10:23:20.728Z</time></trkpt><trkpt lat="43.776435" lon="11.23667"><ele>46.0</ele><time>2026-05-02T10:23:21.728Z</time></trkpt><trkpt lat="43.776305" lon="11.23657"><ele>46.0</ele><time>2026-05-02T10:23:22.727Z</time></trkpt><trkpt lat="43.7761717" lon="11.2364567"><ele>46.0</ele><time>2026-05-02T10:23:23.728Z</time></trkpt><trkpt lat="43.7760467" lon="11.2363433"><ele>46.0</ele><time>2026-05-02T10:23:24.726Z</time></trkpt><trkpt lat="43.77594" lon="11.2362267"><ele>46.0</ele><time>2026-05-02T10:23:25.728Z</time></trkpt><trkpt lat="43.77584" lon="11.2361033"><ele>46.0</ele><time>2026-05-02T10:23:26.73Z</time></trkpt><trkpt lat="43.7757567" lon="11.23591"><ele>46.0</ele><time>2026-05-02T10:23:27.727Z</time></trkpt><trkpt lat="43.7757" lon="11.235745"><ele>45.8</ele><time>2026-05-02T10:23:28.726Z</time></trkpt><trkpt lat="43.7756583" lon="11.2355867"><ele>45.599999999999994</ele><time>2026-05-02T10:23:29.727Z</time></trkpt><trkpt lat="43.775625" lon="11.2354267"><ele>45.4</ele><time>2026-05-02T10:23:30.728Z</time></trkpt><trkpt lat="43.7755917" lon="11.2352883"><ele>45.2</ele><time>2026-05-02T10:23:31.727Z</time></trkpt><trkpt lat="43.77556" lon="11.2351717"><ele>45.0</ele><time>2026-05-02T10:23:32.728Z</time></trkpt><trkpt lat="43.7755317" lon="11.2350767"><ele>45.0</ele><time>2026-05-02T10:23:33.728Z</time></trkpt><trkpt lat="43.7755017" lon="11.23499"><ele>45.0</ele><time>2026-05-02T10:23:34.728Z</time></trkpt><trkpt lat="43.775465" lon="11.234915"><ele>45.0</ele><time>2026-05-02T10:23:35.73Z</time></trkpt><trkpt lat="43.77542" lon="11.23485"><ele>45.0</ele><time>2026-05-02T10:23:36.729Z</time></trkpt><trkpt lat="43.7753667" lon="11.2348033"><ele>45.0</ele><time>2026-05-02T10:23:37.729Z</time></trkpt><trkpt lat="43.7753033" lon="11.234765"><ele>45.0</ele><time>2026-05-02T10:23:38.729Z</time></trkpt><trkpt lat="43.77524" lon="11.2347283"><ele>45.0</ele><time>2026-05-02T10:23:39.729Z</time></trkpt><trkpt lat="43.7751783" lon="11.2346967"><ele>44.0</ele><time>2026-05-02T10:23:40.728Z</time></trkpt><trkpt lat="43.77511" lon="11.234665"><ele>43.0</ele><time>2026-05-02T10:23:41.727Z</time></trkpt><trkpt lat="43.7750333" lon="11.2346283"><ele>42.0</ele><time>2026-05-02T10:23:42.727Z</time></trkpt><trkpt lat="43.7749517" lon="11.2345883"><ele>41.0</ele><time>2026-05-02T10:23:43.727Z</time></trkpt><trkpt lat="43.7748633" lon="11.2345433"><ele>40.0</ele><time>2026-05-02T10:23:44.727Z</time></trkpt><trkpt lat="43.77477" lon="11.234495"><ele>39.0</ele><time>2026-05-02T10:23:45.727Z</time></trkpt><trkpt lat="43.774675" lon="11.23445"><ele>39.0</ele><time>2026-05-02T10:23:46.727Z</time></trkpt><trkpt lat="43.774585" lon="11.2344"><ele>39.0</ele><time>2026-05-02T10:23:47.728Z</time></trkpt><trkpt lat="43.7745" lon="11.2343533"><ele>39.0</ele><time>2026-05-02T10:23:48.727Z</time></trkpt><trkpt lat="43.7744217" lon="11.2343"><ele>39.0</ele><time>2026-05-02T10:23:49.727Z</time></trkpt><trkpt lat="43.77435" lon="11.23424"><ele>39.0</ele><time>2026-05-02T10:23:50.728Z</time></trkpt><trkpt lat="43.7742917" lon="11.2341683"><ele>39.0</ele><time>2026-05-02T10:23:51.725Z</time></trkpt><trkpt lat="43.7742367" lon="11.2340783"><ele>39.666666666666664</ele><time>2026-05-02T10:23:52.728Z</time></trkpt><trkpt lat="43.774185" lon="11.2339767"><ele>40.333333333333336</ele><time>2026-05-02T10:23:53.726Z</time></trkpt><trkpt lat="43.7741317" lon="11.2338783"><ele>41.0</ele><time>2026-05-02T10:23:54.727Z</time></trkpt><trkpt lat="43.7740783" lon="11.23378"><ele>41.66666666666667</ele><time>2026-05-02T10:23:55.726Z</time></trkpt><trkpt lat="43.7740267" lon="11.23369"><ele>42.333333333333336</ele><time>2026-05-02T10:23:56.728Z</time></trkpt><trkpt lat="43.77398" lon="11.233595"><ele>43.0</ele><time>2026-05-02T10:23:57.728Z</time></trkpt><trkpt lat="43.773945" lon="11.2334867"><ele>43.16666666666667</ele><time>2026-05-02T10:23:58.726Z</time></trkpt><trkpt lat="43.773925" lon="11.2333783"><ele>43.333333333333336</ele><time>2026-05-02T10:23:59.728Z</time></trkpt><trkpt lat="43.77392" lon="11.2332717"><ele>43.5</ele><time>2026-05-02T10:24:00.728Z</time></trkpt><trkpt lat="43.77393" lon="11.2331683"><ele>43.666666666666664</ele><time>2026-05-02T10:24:01.727Z</time></trkpt><trkpt lat="43.773955" lon="11.2330583"><ele>43.83333333333333</ele><time>2026-05-02T10:24:02.728Z</time></trkpt><trkpt lat="43.77398" lon="11.2329483"><ele>44.0</ele><time>2026-05-02T10:24:03.728Z</time></trkpt><trkpt lat="43.77401" lon="11.2328383"><ele>44.166666666666664</ele><time>2026-05-02T10:24:04.727Z</time></trkpt><trkpt lat="43.7740383" lon="11.232725"><ele>44.33333333333333</ele><time>2026-05-02T10:24:05.728Z</time></trkpt><trkpt lat="43.7740667" lon="11.2326167"><ele>44.5</ele><time>2026-05-02T10:24:06.728Z</time></trkpt><trkpt lat="43.7740967" lon="11.2325083"><ele>44.666666666666664</ele><time>2026-05-02T10:24:07.729Z</time></trkpt><trkpt lat="43.7741217" lon="11.232395"><ele>44.833333333333336</ele><time>2026-05-02T10:24:08.728Z</time></trkpt><trkpt lat="43.77414" lon="11.232285"><ele>45.0</ele><time>2026-05-02T10:24:09.726Z</time></trkpt><trkpt lat="43.7741567" lon="11.232175"><ele>45.0</ele><time>2026-05-02T10:24:10.728Z</time></trkpt><trkpt lat="43.7741817" lon="11.232055"><ele>45.0</ele><time>2026-05-02T10:24:11.728Z</time></trkpt><trkpt lat="43.77421" lon="11.23193"><ele>45.0</ele><time>2026-05-02T10:24:12.728Z</time></trkpt><trkpt lat="43.774245" lon="11.231805"><ele>45.0</ele><time>2026-05-02T10:24:13.727Z</time></trkpt><trkpt lat="43.7742817" lon="11.2316767"><ele>45.0</ele><time>2026-05-02T10:24:14.728Z</time></trkpt><trkpt lat="43.7743117" lon="11.2315483"><ele>45.0</ele><time>2026-05-02T10:24:15.728Z</time></trkpt><trkpt lat="43.7743517" lon="11.231415"><ele>45.0</ele><time>2026-05-02T10:24:16.728Z</time></trkpt><trkpt lat="43.774385" lon="11.2312833"><ele>45.0</ele><time>2026-05-02T10:24:17.728Z</time></trkpt><trkpt lat="43.77442" lon="11.2311633"><ele>45.0</ele><time>2026-05-02T10:24:18.729Z</time></trkpt><trkpt lat="43.7744517" lon="11.231035"><ele>45.0</ele><time>2026-05-02T10:24:19.726Z</time></trkpt><trkpt lat="43.774485" lon="11.23091"><ele>45.0</ele><time>2026-05-02T10:24:20.728Z</time></trkpt><trkpt lat="43.7745183" lon="11.2307917"><ele>45.0</ele><time>2026-05-02T10:24:21.727Z</time></trkpt><trkpt lat="43.7745483" lon="11.2306817"><ele>45.0</ele><time>2026-05-02T10:24:22.728Z</time></trkpt><trkpt lat="43.774575" lon="11.2305817"><ele>45.0</ele><time>2026-05-02T10:24:23.725Z</time></trkpt><trkpt lat="43.774595" lon="11.2304883"><ele>45.0</ele><time>2026-05-02T10:24:24.727Z</time></trkpt><trkpt lat="43.7746167" lon="11.2303967"><ele>45.0</ele><time>2026-05-02T10:24:25.729Z</time></trkpt><trkpt lat="43.7746383" lon="11.2303067"><ele>45.2</ele><time>2026-05-02T10:24:26.73Z</time></trkpt><trkpt lat="43.77466" lon="11.2302133"><ele>45.4</ele><time>2026-05-02T10:24:27.729Z</time></trkpt><trkpt lat="43.774685" lon="11.2300583"><ele>45.599999999999994</ele><time>2026-05-02T10:24:29.729Z</time></trkpt><trkpt lat="43.7747233" lon="11.229905"><ele>45.8</ele><time>2026-05-02T10:24:31.726Z</time></trkpt><trkpt lat="43.7747617" lon="11.2297267"><ele>46.0</ele><time>2026-05-02T10:24:33.728Z</time></trkpt><trkpt lat="43.77479" lon="11.229615"><ele>45.5</ele><time>2026-05-02T10:24:34.727Z</time></trkpt><trkpt lat="43.7748217" lon="11.2294517"><ele>45.0</ele><time>2026-05-02T10:24:35.727Z</time></trkpt><trkpt lat="43.77485" lon="11.2293033"><ele>44.5</ele><time>2026-05-02T10:24:36.727Z</time></trkpt><trkpt lat="43.77488" lon="11.2291467"><ele>44.0</ele><time>2026-05-02T10:24:37.726Z</time></trkpt><trkpt lat="43.7749117" lon="11.2289883"><ele>44.0</ele><time>2026-05-02T10:24:38.728Z</time></trkpt><trkpt lat="43.7749217" lon="11.228835"><ele>44.0</ele><time>2026-05-02T10:24:39.726Z</time></trkpt><trkpt lat="43.7749133" lon="11.22868"><ele>44.0</ele><time>2026-05-02T10:24:40.727Z</time></trkpt><trkpt lat="43.774905" lon="11.22853"><ele>44.0</ele><time>2026-05-02T10:24:41.728Z</time></trkpt><trkpt lat="43.7748983" lon="11.2283917"><ele>44.0</ele><time>2026-05-02T10:24:42.727Z</time></trkpt><trkpt lat="43.77489" lon="11.22827"><ele>44.0</ele><time>2026-05-02T10:24:43.727Z</time></trkpt><trkpt lat="43.7748817" lon="11.2281617"><ele>44.0</ele><time>2026-05-02T10:24:44.728Z</time></trkpt><trkpt lat="43.7748717" lon="11.2280533"><ele>44.0</ele><time>2026-05-02T10:24:45.727Z</time></trkpt><trkpt lat="43.7748633" lon="11.2279367"><ele>44.0</ele><time>2026-05-02T10:24:46.727Z</time></trkpt><trkpt lat="43.7748533" lon="11.227815"><ele>44.0</ele><time>2026-05-02T10:24:47.726Z</time></trkpt><trkpt lat="43.774845" lon="11.2276817"><ele>44.0</ele><time>2026-05-02T10:24:48.728Z</time></trkpt><trkpt lat="43.7748317" lon="11.22755"><ele>44.0</ele><time>2026-05-02T10:24:49.726Z</time></trkpt><trkpt lat="43.7748183" lon="11.2274183"><ele>44.0</ele><time>2026-05-02T10:24:50.728Z</time></trkpt><trkpt lat="43.774805" lon="11.227285"><ele>44.0</ele><time>2026-05-02T10:24:51.729Z</time></trkpt><trkpt lat="43.7747917" lon="11.2271433"><ele>44.0</ele><time>2026-05-02T10:24:52.728Z</time></trkpt><trkpt lat="43.7747783" lon="11.227"><ele>44.0</ele><time>2026-05-02T10:24:53.727Z</time></trkpt><trkpt lat="43.7747667" lon="11.2268533"><ele>43.75</ele><time>2026-05-02T10:24:54.728Z</time></trkpt><trkpt lat="43.774755" lon="11.2266983"><ele>43.5</ele><time>2026-05-02T10:24:55.727Z</time></trkpt><trkpt lat="43.77474" lon="11.2265417"><ele>43.25</ele><time>2026-05-02T10:24:56.728Z</time></trkpt><trkpt lat="43.7747217" lon="11.226385"><ele>43.0</ele><time>2026-05-02T10:24:57.727Z</time></trkpt><trkpt lat="43.7747017" lon="11.2262317"><ele>43.0</ele><time>2026-05-02T10:24:58.728Z</time></trkpt><trkpt lat="43.77468" lon="11.22608"><ele>43.0</ele><time>2026-05-02T10:24:59.729Z</time></trkpt><trkpt lat="43.7746567" lon="11.2259317"><ele>43.0</ele><time>2026-05-02T10:25:00.727Z</time></trkpt><trkpt lat="43.7746367" lon="11.2257833"><ele>43.0</ele><time>2026-05-02T10:25:01.728Z</time></trkpt><trkpt lat="43.77461" lon="11.2256467"><ele>43.0</ele><time>2026-05-02T10:25:02.728Z</time></trkpt><trkpt lat="43.774585" lon="11.2255233"><ele>43.0</ele><time>2026-05-02T10:25:03.728Z</time></trkpt><trkpt lat="43.7745633" lon="11.2254033"><ele>43.0</ele><time>2026-05-02T10:25:04.727Z</time></trkpt><trkpt lat="43.7745483" lon="11.2252933"><ele>43.0</ele><time>2026-05-02T10:25:05.728Z</time></trkpt><trkpt lat="43.7745383" lon="11.2251867"><ele>43.0</ele><time>2026-05-02T10:25:06.726Z</time></trkpt><trkpt lat="43.7745317" lon="11.225025"><ele>43.0</ele><time>2026-05-02T10:25:08.727Z</time></trkpt><trkpt lat="43.774515" lon="11.2249233"><ele>43.0</ele><time>2026-05-02T10:25:10.731Z</time></trkpt><trkpt lat="43.7744967" lon="11.224835"><ele>43.0</ele><time>2026-05-02T10:25:13.728Z</time></trkpt><trkpt lat="43.7744767" lon="11.2246783"><ele>43.0</ele><time>2026-05-02T10:25:15.728Z</time></trkpt><trkpt lat="43.7744717" lon="11.22454"><ele>43.0</ele><time>2026-05-02T10:25:17.728Z</time></trkpt><trkpt lat="43.77446" lon="11.224415"><ele>43.0</ele><time>2026-05-02T10:25:20.73Z</time></trkpt><trkpt lat="43.774435" lon="11.2243033"><ele>43.0</ele><time>2026-05-02T10:26:20.727Z</time></trkpt><trkpt lat="43.7743217" lon="11.2242433"><ele>43.0</ele><time>2026-05-02T10:26:22.727Z</time></trkpt><trkpt lat="43.7742417" lon="11.22423"><ele>43.0</ele><time>2026-05-02T10:26:23.727Z</time></trkpt><trkpt lat="43.7741567" lon="11.2242233"><ele>43.0</ele><time>2026-05-02T10:26:24.729Z</time></trkpt><trkpt lat="43.7740617" lon="11.2242167"><ele>43.0</ele><time>2026-05-02T10:26:25.728Z</time></trkpt><trkpt lat="43.7739633" lon="11.2242083"><ele>43.0</ele><time>2026-05-02T10:26:26.729Z</time></trkpt><trkpt lat="43.7738683" lon="11.224195"><ele>43.0</ele><time>2026-05-02T10:26:27.729Z</time></trkpt><trkpt lat="43.7737667" lon="11.2241817"><ele>43.0</ele><time>2026-05-02T10:26:28.728Z</time></trkpt><trkpt lat="43.7736667" lon="11.22417"><ele>43.0</ele><time>2026-05-02T10:26:29.728Z</time></trkpt><trkpt lat="43.773565" lon="11.2241417"><ele>43.0</ele><time>2026-05-02T10:26:30.729Z</time></trkpt><trkpt lat="43.7734633" lon="11.2241333"><ele>43.0</ele><time>2026-05-02T10:26:31.728Z</time></trkpt><trkpt lat="43.7733683" lon="11.2241217"><ele>43.66666666666667</ele><time>2026-05-02T10:26:32.728Z</time></trkpt><trkpt lat="43.773275" lon="11.224115"><ele>44.333333333333336</ele><time>2026-05-02T10:26:33.728Z</time></trkpt><trkpt lat="43.773205" lon="11.22412"><ele>45.0</ele><time>2026-05-02T10:26:34.729Z</time></trkpt><trkpt lat="43.7731317" lon="11.2241067"><ele>45.666666666666664</ele><time>2026-05-02T10:26:35.728Z</time></trkpt><trkpt lat="43.7730483" lon="11.2240917"><ele>46.33333333333333</ele><time>2026-05-02T10:26:36.728Z</time></trkpt><trkpt lat="43.7729783" lon="11.22409"><ele>47.0</ele><time>2026-05-02T10:26:37.729Z</time></trkpt><trkpt lat="43.7728933" lon="11.22409"><ele>47.0</ele><time>2026-05-02T10:26:38.729Z</time></trkpt><trkpt lat="43.7728" lon="11.22408"><ele>47.0</ele><time>2026-05-02T10:26:39.729Z</time></trkpt><trkpt lat="43.7727333" lon="11.224055"><ele>47.0</ele><time>2026-05-02T10:26:40.728Z</time></trkpt><trkpt lat="43.7726683" lon="11.2239983"><ele>47.0</ele><time>2026-05-02T10:26:41.728Z</time></trkpt><trkpt lat="43.7726217" lon="11.2239317"><ele>47.0</ele><time>2026-05-02T10:26:42.729Z</time></trkpt><trkpt lat="43.7725767" lon="11.22377"><ele>47.0</ele><time>2026-05-02T10:26:44.729Z</time></trkpt><trkpt lat="43.772525" lon="11.2235967"><ele>46.5</ele><time>2026-05-02T10:26:46.728Z</time></trkpt><trkpt lat="43.7725017" lon="11.223505"><ele>46.0</ele><time>2026-05-02T10:26:47.728Z</time></trkpt><trkpt lat="43.7724767" lon="11.2233983"><ele>45.5</ele><time>2026-05-02T10:26:48.726Z</time></trkpt><trkpt lat="43.772455" lon="11.223295"><ele>45.0</ele><time>2026-05-02T10:26:49.727Z</time></trkpt><trkpt lat="43.7724333" lon="11.2231967"><ele>44.5</ele><time>2026-05-02T10:26:50.727Z</time></trkpt><trkpt lat="43.7724167" lon="11.22309"><ele>44.0</ele><time>2026-05-02T10:26:51.729Z</time></trkpt><trkpt lat="43.77239" lon="11.22297"><ele>44.0</ele><time>2026-05-02T10:26:52.727Z</time></trkpt><trkpt lat="43.77237" lon="11.22285"><ele>44.0</ele><time>2026-05-02T10:26:53.729Z</time></trkpt><trkpt lat="43.7723533" lon="11.2227317"><ele>44.0</ele><time>2026-05-02T10:26:54.728Z</time></trkpt><trkpt lat="43.7723333" lon="11.2226217"><ele>44.0</ele><time>2026-05-02T10:26:55.727Z</time></trkpt><trkpt lat="43.7723117" lon="11.222515"><ele>44.0</ele><time>2026-05-02T10:26:56.727Z</time></trkpt><trkpt lat="43.7722917" lon="11.2224067"><ele>44.0</ele><time>2026-05-02T10:26:57.728Z</time></trkpt><trkpt lat="43.772275" lon="11.2222683"><ele>44.0</ele><time>2026-05-02T10:26:58.728Z</time></trkpt><trkpt lat="43.7722483" lon="11.2221767"><ele>44.0</ele><time>2026-05-02T10:26:59.728Z</time></trkpt><trkpt lat="43.7722283" lon="11.2220683"><ele>44.0</ele><time>2026-05-02T10:27:00.729Z</time></trkpt><trkpt lat="43.7722" lon="11.2219583"><ele>44.0</ele><time>2026-05-02T10:27:01.729Z</time></trkpt><trkpt lat="43.7721717" lon="11.221845"><ele>44.0</ele><time>2026-05-02T10:27:02.728Z</time></trkpt><trkpt lat="43.7721433" lon="11.2217217"><ele>44.0</ele><time>2026-05-02T10:27:03.729Z</time></trkpt><trkpt lat="43.772115" lon="11.2216033"><ele>44.0</ele><time>2026-05-02T10:27:04.728Z</time></trkpt><trkpt lat="43.77209" lon="11.2214867"><ele>44.0</ele><time>2026-05-02T10:27:05.728Z</time></trkpt><trkpt lat="43.7720633" lon="11.2213717"><ele>44.0</ele><time>2026-05-02T10:27:06.728Z</time></trkpt><trkpt lat="43.7720383" lon="11.22126"><ele>44.0</ele><time>2026-05-02T10:27:07.729Z</time></trkpt><trkpt lat="43.7720117" lon="11.2211567"><ele>44.0</ele><time>2026-05-02T10:27:08.728Z</time></trkpt><trkpt lat="43.77199" lon="11.221065"><ele>44.0</ele><time>2026-05-02T10:27:09.727Z</time></trkpt><trkpt lat="43.7719633" lon="11.2208983"><ele>44.0</ele><time>2026-05-02T10:27:11.728Z</time></trkpt><trkpt lat="43.7718517" lon="11.2208667"><ele>44.0</ele><time>2026-05-02T10:27:13.728Z</time></trkpt><trkpt lat="43.771775" lon="11.2208917"><ele>44.0</ele><time>2026-05-02T10:27:14.728Z</time></trkpt><trkpt lat="43.771695" lon="11.2209183"><ele>44.0</ele><time>2026-05-02T10:27:15.727Z</time></trkpt><trkpt lat="43.7716267" lon="11.2209633"><ele>44.0</ele><time>2026-05-02T10:27:16.729Z</time></trkpt><trkpt lat="43.7715633" lon="11.220995"><ele>44.0</ele><time>2026-05-02T10:27:17.728Z</time></trkpt><trkpt lat="43.7714567" lon="11.221035"><ele>44.0</ele><time>2026-05-02T10:27:19.728Z</time></trkpt><trkpt lat="43.7713617" lon="11.221065"><ele>44.0</ele><time>2026-05-02T10:27:21.727Z</time></trkpt><trkpt lat="43.771285" lon="11.2210867"><ele>44.0</ele><time>2026-05-02T10:27:23.727Z</time></trkpt><trkpt lat="43.771225" lon="11.2211267"><ele>44.0</ele><time>2026-05-02T10:27:26.728Z</time></trkpt><trkpt lat="43.77115" lon="11.2211833"><ele>44.0</ele><time>2026-05-02T10:27:34.728Z</time></trkpt><trkpt lat="43.7710767" lon="11.2212217"><ele>44.0</ele><time>2026-05-02T10:27:36.729Z</time></trkpt><trkpt lat="43.770995" lon="11.2212533"><ele>44.0</ele><time>2026-05-02T10:27:38.728Z</time></trkpt><trkpt lat="43.7709083" lon="11.2213083"><ele>44.0</ele><time>2026-05-02T10:27:40.728Z</time></trkpt><trkpt lat="43.7708383" lon="11.2213417"><ele>44.0</ele><time>2026-05-02T10:27:41.725Z</time></trkpt><trkpt lat="43.7707667" lon="11.2213783"><ele>44.0</ele><time>2026-05-02T10:27:42.726Z</time></trkpt><trkpt lat="43.7706817" lon="11.2214267"><ele>44.0</ele><time>2026-05-02T10:27:43.727Z</time></trkpt><trkpt lat="43.7706017" lon="11.2214667"><ele>44.0</ele><time>2026-05-02T10:27:44.726Z</time></trkpt><trkpt lat="43.7705317" lon="11.2215133"><ele>44.166666666666664</ele><time>2026-05-02T10:27:45.727Z</time></trkpt><trkpt lat="43.7704717" lon="11.221555"><ele>44.33333333333333</ele><time>2026-05-02T10:27:46.726Z</time></trkpt><trkpt lat="43.7703633" lon="11.2216033"><ele>44.5</ele><time>2026-05-02T10:27:47.728Z</time></trkpt><trkpt lat="43.77029" lon="11.2216367"><ele>44.666666666666664</ele><time>2026-05-02T10:27:48.728Z</time></trkpt><trkpt lat="43.7702217" lon="11.2216467"><ele>44.833333333333336</ele><time>2026-05-02T10:27:49.727Z</time></trkpt><trkpt lat="43.7701483" lon="11.22164"><ele>45.0</ele><time>2026-05-02T10:27:50.728Z</time></trkpt><trkpt lat="43.7700567" lon="11.2216233"><ele>45.2</ele><time>2026-05-02T10:27:51.727Z</time></trkpt><trkpt lat="43.76999" lon="11.221585"><ele>45.4</ele><time>2026-05-02T10:27:52.728Z</time></trkpt><trkpt lat="43.7699117" lon="11.2215083"><ele>45.599999999999994</ele><time>2026-05-02T10:27:53.728Z</time></trkpt><trkpt lat="43.76981" lon="11.2214017"><ele>45.8</ele><time>2026-05-02T10:27:54.728Z</time></trkpt><trkpt lat="43.769715" lon="11.2212833"><ele>46.0</ele><time>2026-05-02T10:27:55.727Z</time></trkpt><trkpt lat="43.7696167" lon="11.22116"><ele>46.0</ele><time>2026-05-02T10:27:56.729Z</time></trkpt><trkpt lat="43.7695167" lon="11.2210417"><ele>46.0</ele><time>2026-05-02T10:27:57.727Z</time></trkpt><trkpt lat="43.7694117" lon="11.2209217"><ele>46.0</ele><time>2026-05-02T10:27:58.729Z</time></trkpt><trkpt lat="43.7693017" lon="11.2208033"><ele>46.0</ele><time>2026-05-02T10:27:59.727Z</time></trkpt><trkpt lat="43.7692" lon="11.2206867"><ele>46.75</ele><time>2026-05-02T10:28:00.727Z</time></trkpt><trkpt lat="43.769095" lon="11.220575"><ele>47.5</ele><time>2026-05-02T10:28:01.728Z</time></trkpt><trkpt lat="43.7689833" lon="11.2204717"><ele>48.25</ele><time>2026-05-02T10:28:02.727Z</time></trkpt><trkpt lat="43.76889" lon="11.2203717"><ele>49.0</ele><time>2026-05-02T10:28:03.727Z</time></trkpt><trkpt lat="43.7687967" lon="11.220265"><ele>49.0</ele><time>2026-05-02T10:28:04.726Z</time></trkpt><trkpt lat="43.768715" lon="11.2201817"><ele>49.0</ele><time>2026-05-02T10:28:05.726Z</time></trkpt><trkpt lat="43.76864" lon="11.2201067"><ele>49.0</ele><time>2026-05-02T10:28:06.728Z</time></trkpt><trkpt lat="43.7685667" lon="11.2200083"><ele>49.0</ele><time>2026-05-02T10:28:07.727Z</time></trkpt><trkpt lat="43.7685067" lon="11.219935"><ele>49.0</ele><time>2026-05-02T10:28:08.729Z</time></trkpt><trkpt lat="43.7684517" lon="11.21986"><ele>48.666666666666664</ele><time>2026-05-02T10:28:09.727Z</time></trkpt><trkpt lat="43.7683867" lon="11.219775"><ele>48.33333333333333</ele><time>2026-05-02T10:28:10.729Z</time></trkpt><trkpt lat="43.7683383" lon="11.2196883"><ele>48.0</ele><time>2026-05-02T10:28:11.726Z</time></trkpt><trkpt lat="43.76828" lon="11.2196133"><ele>47.666666666666664</ele><time>2026-05-02T10:28:12.726Z</time></trkpt><trkpt lat="43.768205" lon="11.2195517"><ele>47.33333333333333</ele><time>2026-05-02T10:28:13.727Z</time></trkpt><trkpt lat="43.7681183" lon="11.219485"><ele>47.0</ele><time>2026-05-02T10:28:14.728Z</time></trkpt><trkpt lat="43.7680267" lon="11.2194083"><ele>47.0</ele><time>2026-05-02T10:28:15.727Z</time></trkpt><trkpt lat="43.767935" lon="11.2193317"><ele>47.0</ele><time>2026-05-02T10:28:16.727Z</time></trkpt><trkpt lat="43.7678467" lon="11.21925"><ele>47.0</ele><time>2026-05-02T10:28:17.727Z</time></trkpt><trkpt lat="43.7677583" lon="11.2191633"><ele>47.0</ele><time>2026-05-02T10:28:18.728Z</time></trkpt><trkpt lat="43.76768" lon="11.2190833"><ele>47.0</ele><time>2026-05-02T10:28:19.727Z</time></trkpt><trkpt lat="43.7676033" lon="11.219015"><ele>47.0</ele><time>2026-05-02T10:28:20.729Z</time></trkpt><trkpt lat="43.7675333" lon="11.2189433"><ele>47.0</ele><time>2026-05-02T10:28:21.727Z</time></trkpt><trkpt lat="43.7674783" lon="11.2188633"><ele>47.0</ele><time>2026-05-02T10:28:22.727Z</time></trkpt><trkpt lat="43.76742" lon="11.2188"><ele>47.0</ele><time>2026-05-02T10:28:23.726Z</time></trkpt><trkpt lat="43.76733" lon="11.2186983"><ele>47.0</ele><time>2026-05-02T10:28:25.728Z</time></trkpt><trkpt lat="43.767265" lon="11.2185983"><ele>47.0</ele><time>2026-05-02T10:28:27.727Z</time></trkpt><trkpt lat="43.767215" lon="11.218535"><ele>47.0</ele><time>2026-05-02T10:28:28.725Z</time></trkpt><trkpt lat="43.7671617" lon="11.21847"><ele>47.0</ele><time>2026-05-02T10:28:29.726Z</time></trkpt><trkpt lat="43.767095" lon="11.2183617"><ele>47.0</ele><time>2026-05-02T10:28:30.727Z</time></trkpt><trkpt lat="43.7670117" lon="11.2182917"><ele>47.0</ele><time>2026-05-02T10:28:31.726Z</time></trkpt><trkpt lat="43.766925" lon="11.2182183"><ele>47.0</ele><time>2026-05-02T10:28:32.729Z</time></trkpt><trkpt lat="43.7668317" lon="11.2181333"><ele>47.0</ele><time>2026-05-02T10:28:33.728Z</time></trkpt><trkpt lat="43.766735" lon="11.21804"><ele>47.0</ele><time>2026-05-02T10:28:34.728Z</time></trkpt><trkpt lat="43.766645" lon="11.217945"><ele>47.0</ele><time>2026-05-02T10:28:35.728Z</time></trkpt><trkpt lat="43.766555" lon="11.21785"><ele>47.0</ele><time>2026-05-02T10:28:36.725Z</time></trkpt><trkpt lat="43.76646" lon="11.2177433"><ele>47.0</ele><time>2026-05-02T10:28:37.726Z</time></trkpt><trkpt lat="43.7663683" lon="11.217645"><ele>47.0</ele><time>2026-05-02T10:28:38.727Z</time></trkpt><trkpt lat="43.7662867" lon="11.21756"><ele>47.0</ele><time>2026-05-02T10:28:39.728Z</time></trkpt><trkpt lat="43.766205" lon="11.217475"><ele>47.0</ele><time>2026-05-02T10:28:40.728Z</time></trkpt><trkpt lat="43.7661367" lon="11.217405"><ele>47.0</ele><time>2026-05-02T10:28:41.725Z</time></trkpt><trkpt lat="43.766085" lon="11.2173417"><ele>47.0</ele><time>2026-05-02T10:28:42.727Z</time></trkpt><trkpt lat="43.7660733" lon="11.2172267"><ele>47.0</ele><time>2026-05-02T10:28:44.728Z</time></trkpt><trkpt lat="43.7661033" lon="11.2170617"><ele>47.0</ele><time>2026-05-02T10:28:46.728Z</time></trkpt><trkpt lat="43.7661383" lon="11.2169483"><ele>47.0</ele><time>2026-05-02T10:28:47.728Z</time></trkpt><trkpt lat="43.7661767" lon="11.2168233"><ele>47.0</ele><time>2026-05-02T10:28:48.726Z</time></trkpt><trkpt lat="43.7662233" lon="11.2166833"><ele>47.0</ele><time>2026-05-02T10:28:49.73Z</time></trkpt><trkpt lat="43.766265" lon="11.2165483"><ele>47.0</ele><time>2026-05-02T10:28:50.728Z</time></trkpt><trkpt lat="43.76631" lon="11.2164183"><ele>47.0</ele><time>2026-05-02T10:28:51.728Z</time></trkpt><trkpt lat="43.766345" lon="11.2162917"><ele>47.0</ele><time>2026-05-02T10:28:52.731Z</time></trkpt><trkpt lat="43.7663833" lon="11.2161667"><ele>47.0</ele><time>2026-05-02T10:28:53.728Z</time></trkpt><trkpt lat="43.7664167" lon="11.21605"><ele>47.0</ele><time>2026-05-02T10:28:54.728Z</time></trkpt><trkpt lat="43.7664533" lon="11.2159317"><ele>47.0</ele><time>2026-05-02T10:28:55.727Z</time></trkpt><trkpt lat="43.7664917" lon="11.2158233"><ele>47.0</ele><time>2026-05-02T10:28:56.728Z</time></trkpt><trkpt lat="43.7665233" lon="11.21572"><ele>47.0</ele><time>2026-05-02T10:28:57.727Z</time></trkpt><trkpt lat="43.7665583" lon="11.2156217"><ele>47.0</ele><time>2026-05-02T10:28:58.726Z</time></trkpt><trkpt lat="43.7665917" lon="11.215535"><ele>47.0</ele><time>2026-05-02T10:28:59.726Z</time></trkpt><trkpt lat="43.7666233" lon="11.215455"><ele>46.8</ele><time>2026-05-02T10:29:00.726Z</time></trkpt><trkpt lat="43.766695" lon="11.2153367"><ele>46.6</ele><time>2026-05-02T10:29:02.727Z</time></trkpt><trkpt lat="43.76672" lon="11.2152383"><ele>46.4</ele><time>2026-05-02T10:29:04.726Z</time></trkpt><trkpt lat="43.766715" lon="11.2150867"><ele>46.199999999999996</ele><time>2026-05-02T10:29:06.727Z</time></trkpt><trkpt lat="43.766705" lon="11.214985"><ele>46.0</ele><time>2026-05-02T10:29:07.728Z</time></trkpt><trkpt lat="43.7666767" lon="11.21487"><ele>45.4</ele><time>2026-05-02T10:29:08.726Z</time></trkpt><trkpt lat="43.7666417" lon="11.214735"><ele>44.8</ele><time>2026-05-02T10:29:09.729Z</time></trkpt><trkpt lat="43.766595" lon="11.2146017"><ele>44.199999999999996</ele><time>2026-05-02T10:29:10.728Z</time></trkpt><trkpt lat="43.7665533" lon="11.2144633"><ele>43.599999999999994</ele><time>2026-05-02T10:29:11.729Z</time></trkpt><trkpt lat="43.7665217" lon="11.2143267"><ele>43.0</ele><time>2026-05-02T10:29:12.729Z</time></trkpt><trkpt lat="43.7665033" lon="11.2141933"><ele>43.0</ele><time>2026-05-02T10:29:13.727Z</time></trkpt><trkpt lat="43.7664833" lon="11.2140683"><ele>43.0</ele><time>2026-05-02T10:29:14.728Z</time></trkpt><trkpt lat="43.76647" lon="11.2139317"><ele>43.0</ele><time>2026-05-02T10:29:15.728Z</time></trkpt><trkpt lat="43.766455" lon="11.2138033"><ele>43.0</ele><time>2026-05-02T10:29:16.728Z</time></trkpt><trkpt lat="43.7664333" lon="11.2136917"><ele>43.0</ele><time>2026-05-02T10:29:17.727Z</time></trkpt><trkpt lat="43.7664033" lon="11.2135867"><ele>43.16666666666667</ele><time>2026-05-02T10:29:18.73Z</time></trkpt><trkpt lat="43.766375" lon="11.2134917"><ele>43.333333333333336</ele><time>2026-05-02T10:29:19.729Z</time></trkpt><trkpt lat="43.7663467" lon="11.2133917"><ele>43.5</ele><time>2026-05-02T10:29:20.729Z</time></trkpt><trkpt lat="43.7663183" lon="11.2133"><ele>43.666666666666664</ele><time>2026-05-02T10:29:21.73Z</time></trkpt><trkpt lat="43.7662933" lon="11.2132167"><ele>43.83333333333333</ele><time>2026-05-02T10:29:22.727Z</time></trkpt><trkpt lat="43.7662567" lon="11.21311"><ele>44.0</ele><time>2026-05-02T10:29:24.727Z</time></trkpt><trkpt lat="43.76623" lon="11.2129983"><ele>44.0</ele><time>2026-05-02T10:29:59.728Z</time></trkpt><trkpt lat="43.7662283" lon="11.21291"><ele>44.0</ele><time>2026-05-02T10:30:00.727Z</time></trkpt><trkpt lat="43.766245" lon="11.2127933"><ele>44.0</ele><time>2026-05-02T10:30:01.728Z</time></trkpt><trkpt lat="43.76628" lon="11.21265"><ele>44.0</ele><time>2026-05-02T10:30:02.729Z</time></trkpt><trkpt lat="43.7663283" lon="11.21249"><ele>44.0</ele><time>2026-05-02T10:30:03.728Z</time></trkpt><trkpt lat="43.76638" lon="11.2123267"><ele>43.75</ele><time>2026-05-02T10:30:04.729Z</time></trkpt><trkpt lat="43.7664383" lon="11.2121533"><ele>43.5</ele><time>2026-05-02T10:30:05.728Z</time></trkpt><trkpt lat="43.7664917" lon="11.2119783"><ele>43.25</ele><time>2026-05-02T10:30:06.729Z</time></trkpt><trkpt lat="43.7665433" lon="11.2118033"><ele>43.0</ele><time>2026-05-02T10:30:07.729Z</time></trkpt><trkpt lat="43.76659" lon="11.2116417"><ele>43.0</ele><time>2026-05-02T10:30:08.73Z</time></trkpt><trkpt lat="43.7666383" lon="11.2114867"><ele>43.0</ele><time>2026-05-02T10:30:09.729Z</time></trkpt><trkpt lat="43.7666867" lon="11.211345"><ele>43.0</ele><time>2026-05-02T10:30:10.728Z</time></trkpt><trkpt lat="43.766725" lon="11.2112133"><ele>43.0</ele><time>2026-05-02T10:30:11.727Z</time></trkpt><trkpt lat="43.7667633" lon="11.2110767"><ele>43.0</ele><time>2026-05-02T10:30:12.729Z</time></trkpt><trkpt lat="43.7668017" lon="11.21093"><ele>43.0</ele><time>2026-05-02T10:30:13.729Z</time></trkpt><trkpt lat="43.766845" lon="11.2107783"><ele>43.0</ele><time>2026-05-02T10:30:14.729Z</time></trkpt><trkpt lat="43.766885" lon="11.210625"><ele>43.0</ele><time>2026-05-02T10:30:15.726Z</time></trkpt><trkpt lat="43.7669317" lon="11.2104817"><ele>43.0</ele><time>2026-05-02T10:30:16.727Z</time></trkpt><trkpt lat="43.7669817" lon="11.21035"><ele>43.0</ele><time>2026-05-02T10:30:17.729Z</time></trkpt><trkpt lat="43.7670183" lon="11.2102333"><ele>43.0</ele><time>2026-05-02T10:30:18.727Z</time></trkpt><trkpt lat="43.7670483" lon="11.2101283"><ele>43.0</ele><time>2026-05-02T10:30:19.727Z</time></trkpt><trkpt lat="43.7670783" lon="11.2100417"><ele>43.0</ele><time>2026-05-02T10:30:20.728Z</time></trkpt><trkpt lat="43.7671183" lon="11.2098783"><ele>43.0</ele><time>2026-05-02T10:30:22.727Z</time></trkpt><trkpt lat="43.7671533" lon="11.2097267"><ele>42.833333333333336</ele><time>2026-05-02T10:30:24.728Z</time></trkpt><trkpt lat="43.767185" lon="11.2096083"><ele>42.66666666666667</ele><time>2026-05-02T10:30:26.73Z</time></trkpt><trkpt lat="43.767245" lon="11.2095283"><ele>42.5</ele><time>2026-05-02T10:30:29.728Z</time></trkpt><trkpt lat="43.76736" lon="11.2095017"><ele>42.333333333333336</ele><time>2026-05-02T10:30:31.728Z</time></trkpt><trkpt lat="43.7674317" lon="11.2094933"><ele>42.166666666666664</ele><time>2026-05-02T10:30:32.73Z</time></trkpt><trkpt lat="43.767515" lon="11.2094833"><ele>42.0</ele><time>2026-05-02T10:30:34.728Z</time></trkpt><trkpt lat="43.7675867" lon="11.2094717"><ele>42.0</ele><time>2026-05-02T10:30:39.727Z</time></trkpt><trkpt lat="43.7676417" lon="11.2093733"><ele>42.0</ele><time>2026-05-02T10:30:41.728Z</time></trkpt><trkpt lat="43.7676067" lon="11.2092583"><ele>42.0</ele><time>2026-05-02T10:30:43.726Z</time></trkpt><trkpt lat="43.7675567" lon="11.209185"><ele>42.0</ele><time>2026-05-02T10:30:44.728Z</time></trkpt><trkpt lat="43.7674817" lon="11.209115"><ele>42.0</ele><time>2026-05-02T10:30:45.728Z</time></trkpt><trkpt lat="43.7673917" lon="11.2090683"><ele>42.0</ele><time>2026-05-02T10:30:46.726Z</time></trkpt><trkpt lat="43.767305" lon="11.20902"><ele>42.0</ele><time>2026-05-02T10:30:47.728Z</time></trkpt><trkpt lat="43.7672183" lon="11.2089733"><ele>42.0</ele><time>2026-05-02T10:30:48.727Z</time></trkpt><trkpt lat="43.7671333" lon="11.2089133"><ele>42.0</ele><time>2026-05-02T10:30:49.728Z</time></trkpt><trkpt lat="43.76704" lon="11.2088467"><ele>42.0</ele><time>2026-05-02T10:30:50.729Z</time></trkpt><trkpt lat="43.7669483" lon="11.2087617"><ele>42.0</ele><time>2026-05-02T10:30:51.728Z</time></trkpt><trkpt lat="43.76686" lon="11.208665"><ele>41.75</ele><time>2026-05-02T10:30:52.729Z</time></trkpt><trkpt lat="43.7667733" lon="11.2085617"><ele>41.5</ele><time>2026-05-02T10:30:53.729Z</time></trkpt><trkpt lat="43.7666883" lon="11.2084583"><ele>41.25</ele><time>2026-05-02T10:30:54.727Z</time></trkpt><trkpt lat="43.7666017" lon="11.2083433"><ele>41.0</ele><time>2026-05-02T10:30:55.727Z</time></trkpt><trkpt lat="43.766515" lon="11.2082267"><ele>41.199999999999996</ele><time>2026-05-02T10:30:56.728Z</time></trkpt><trkpt lat="43.7664283" lon="11.2081167"><ele>41.4</ele><time>2026-05-02T10:30:57.727Z</time></trkpt><trkpt lat="43.7663467" lon="11.2080083"><ele>41.6</ele><time>2026-05-02T10:30:58.727Z</time></trkpt><trkpt lat="43.76627" lon="11.2079"><ele>41.8</ele><time>2026-05-02T10:30:59.73Z</time></trkpt><trkpt lat="43.7661967" lon="11.2078"><ele>42.0</ele><time>2026-05-02T10:31:00.731Z</time></trkpt><trkpt lat="43.766125" lon="11.2076883"><ele>42.0</ele><time>2026-05-02T10:31:01.728Z</time></trkpt><trkpt lat="43.7660517" lon="11.2075583"><ele>42.0</ele><time>2026-05-02T10:31:02.731Z</time></trkpt><trkpt lat="43.7659767" lon="11.2074217"><ele>42.0</ele><time>2026-05-02T10:31:03.729Z</time></trkpt><trkpt lat="43.7659" lon="11.20728"><ele>42.0</ele><time>2026-05-02T10:31:04.727Z</time></trkpt><trkpt lat="43.7658217" lon="11.2071367"><ele>41.5</ele><time>2026-05-02T10:31:05.729Z</time></trkpt><trkpt lat="43.7657433" lon="11.20699"><ele>41.0</ele><time>2026-05-02T10:31:06.727Z</time></trkpt><trkpt lat="43.7656633" lon="11.2068433"><ele>40.5</ele><time>2026-05-02T10:31:07.73Z</time></trkpt><trkpt lat="43.7655833" lon="11.2066933"><ele>40.0</ele><time>2026-05-02T10:31:08.731Z</time></trkpt><trkpt lat="43.7655017" lon="11.2065417"><ele>40.0</ele><time>2026-05-02T10:31:09.73Z</time></trkpt><trkpt lat="43.7654217" lon="11.2063883"><ele>40.0</ele><time>2026-05-02T10:31:10.73Z</time></trkpt><trkpt lat="43.765345" lon="11.2062283"><ele>40.0</ele><time>2026-05-02T10:31:11.729Z</time></trkpt><trkpt lat="43.7652767" lon="11.2060667"><ele>40.0</ele><time>2026-05-02T10:31:12.729Z</time></trkpt><trkpt lat="43.7652167" lon="11.205895"><ele>40.0</ele><time>2026-05-02T10:31:13.728Z</time></trkpt><trkpt lat="43.7651633" lon="11.20572"><ele>40.0</ele><time>2026-05-02T10:31:14.735Z</time></trkpt><trkpt lat="43.76512" lon="11.20554"><ele>40.0</ele><time>2026-05-02T10:31:15.726Z</time></trkpt><trkpt lat="43.7650817" lon="11.2053583"><ele>40.0</ele><time>2026-05-02T10:31:16.729Z</time></trkpt><trkpt lat="43.76505" lon="11.2051717"><ele>40.0</ele><time>2026-05-02T10:31:17.728Z</time></trkpt><trkpt lat="43.76502" lon="11.2049867"><ele>40.0</ele><time>2026-05-02T10:31:18.727Z</time></trkpt><trkpt lat="43.7649917" lon="11.204805"><ele>40.0</ele><time>2026-05-02T10:31:19.728Z</time></trkpt><trkpt lat="43.7649617" lon="11.20462"><ele>40.0</ele><time>2026-05-02T10:31:20.728Z</time></trkpt><trkpt lat="43.7649333" lon="11.2044367"><ele>40.25</ele><time>2026-05-02T10:31:21.728Z</time></trkpt><trkpt lat="43.764905" lon="11.2042583"><ele>40.5</ele><time>2026-05-02T10:31:22.727Z</time></trkpt><trkpt lat="43.7648783" lon="11.2040833"><ele>40.75</ele><time>2026-05-02T10:31:23.729Z</time></trkpt><trkpt lat="43.764855" lon="11.2039017"><ele>41.0</ele><time>2026-05-02T10:31:24.729Z</time></trkpt><trkpt lat="43.7648367" lon="11.2037283"><ele>41.0</ele><time>2026-05-02T10:31:25.728Z</time></trkpt><trkpt lat="43.7648233" lon="11.2035667"><ele>41.0</ele><time>2026-05-02T10:31:26.728Z</time></trkpt><trkpt lat="43.7648117" lon="11.2034217"><ele>41.0</ele><time>2026-05-02T10:31:27.728Z</time></trkpt><trkpt lat="43.764805" lon="11.2032983"><ele>41.0</ele><time>2026-05-02T10:31:28.729Z</time></trkpt><trkpt lat="43.7648033" lon="11.2032067"><ele>41.0</ele><time>2026-05-02T10:31:29.727Z</time></trkpt><trkpt lat="43.7648283" lon="11.2031067"><ele>41.0</ele><time>2026-05-02T10:31:31.73Z</time></trkpt><trkpt lat="43.7649317" lon="11.2031633"><ele>41.0</ele><time>2026-05-02T10:31:34.729Z</time></trkpt><trkpt lat="43.7649933" lon="11.203235"><ele>41.0</ele><time>2026-05-02T10:31:35.729Z</time></trkpt><trkpt lat="43.7650583" lon="11.2033083"><ele>41.0</ele><time>2026-05-02T10:31:36.729Z</time></trkpt><trkpt lat="43.7651117" lon="11.2033833"><ele>41.0</ele><time>2026-05-02T10:31:37.729Z</time></trkpt><trkpt lat="43.765145" lon="11.2034717"><ele>41.0</ele><time>2026-05-02T10:31:38.727Z</time></trkpt><trkpt lat="43.7651517" lon="11.2035617"><ele>41.0</ele><time>2026-05-02T10:31:39.728Z</time></trkpt><trkpt lat="43.765165" lon="11.2037033"><ele>41.0</ele><time>2026-05-02T10:31:41.728Z</time></trkpt><trkpt lat="43.76524" lon="11.203675"><ele>41.0</ele><time>2026-05-02T10:31:49.727Z</time></trkpt><trkpt lat="43.76531" lon="11.2035183"><ele>41.0</ele><time>2026-05-02T10:31:51.727Z</time></trkpt><trkpt lat="43.7653617" lon="11.2034183"><ele>41.0</ele><time>2026-05-02T10:31:52.727Z</time></trkpt><trkpt lat="43.7654117" lon="11.203315"><ele>41.0</ele><time>2026-05-02T10:31:53.726Z</time></trkpt><trkpt lat="43.7654617" lon="11.203215"><ele>41.0</ele><time>2026-05-02T10:31:54.726Z</time></trkpt><trkpt lat="43.7655067" lon="11.2031167"><ele>41.0</ele><time>2026-05-02T10:31:55.729Z</time></trkpt><trkpt lat="43.7655483" lon="11.20302"><ele>41.0</ele><time>2026-05-02T10:31:56.727Z</time></trkpt><trkpt lat="43.7655833" lon="11.202925"><ele>41.0</ele><time>2026-05-02T10:31:57.727Z</time></trkpt><trkpt lat="43.7656233" lon="11.2028367"><ele>41.0</ele><time>2026-05-02T10:31:58.726Z</time></trkpt><trkpt lat="43.765665" lon="11.2027667"><ele>41.0</ele><time>2026-05-02T10:31:59.728Z</time></trkpt><trkpt lat="43.7657083" lon="11.2026683"><ele>41.0</ele><time>2026-05-02T10:32:01.729Z</time></trkpt><trkpt lat="43.7656833" lon="11.2025317"><ele>41.0</ele><time>2026-05-02T10:32:04.729Z</time></trkpt><trkpt lat="43.765685" lon="11.2024333"><ele>41.0</ele><time>2026-05-02T10:32:08.729Z</time></trkpt><trkpt lat="43.7657767" lon="11.2023867"><ele>41.0</ele><time>2026-05-02T10:34:04.727Z</time></trkpt><trkpt lat="43.7658576" lon="11.2023319"><ele>41.0</ele><time>2026-05-02T10:34:48.728Z</time></trkpt><trkpt lat="43.7657551" lon="11.202435"><ele>41.0</ele><time>2026-05-02T10:38:01.729Z</time></trkpt><trkpt lat="43.765753" lon="11.2025287"><ele>41.0</ele><time>2026-05-02T10:38:04.79Z</time></trkpt><trkpt lat="43.7657585" lon="11.2026207"><ele>41.0</ele><time>2026-05-02T10:38:06.84Z</time></trkpt><trkpt lat="43.7657193" lon="11.2027053"><ele>41.0</ele><time>2026-05-02T10:38:08.786Z</time></trkpt><trkpt lat="43.7656676" lon="11.2027955"><ele>41.0</ele><time>2026-05-02T10:38:10.734Z</time></trkpt><trkpt lat="43.7656448" lon="11.2029576"><ele>41.0</ele><time>2026-05-02T10:38:11.728Z</time></trkpt><trkpt lat="43.7656092" lon="11.2030795"><ele>40.8</ele><time>2026-05-02T10:38:12.73Z</time></trkpt><trkpt lat="43.7655652" lon="11.2031925"><ele>40.599999999999994</ele><time>2026-05-02T10:38:13.728Z</time></trkpt><trkpt lat="43.7655193" lon="11.2032975"><ele>40.4</ele><time>2026-05-02T10:38:14.73Z</time></trkpt><trkpt lat="43.7654717" lon="11.2033994"><ele>40.2</ele><time>2026-05-02T10:38:15.73Z</time></trkpt><trkpt lat="43.7654216" lon="11.2035024"><ele>40.0</ele><time>2026-05-02T10:38:16.729Z</time></trkpt><trkpt lat="43.7653483" lon="11.2036"><ele>40.0</ele><time>2026-05-02T10:38:17.73Z</time></trkpt><trkpt lat="43.765295" lon="11.203695"><ele>40.0</ele><time>2026-05-02T10:38:18.729Z</time></trkpt><trkpt lat="43.765245" lon="11.203795"><ele>40.0</ele><time>2026-05-02T10:38:20.731Z</time></trkpt><trkpt lat="43.7652717" lon="11.2038783"><ele>40.0</ele><time>2026-05-02T10:38:22.73Z</time></trkpt><trkpt lat="43.7653683" lon="11.2039917"><ele>40.0</ele><time>2026-05-02T10:38:24.729Z</time></trkpt><trkpt lat="43.7654383" lon="11.20405"><ele>40.0</ele><time>2026-05-02T10:38:25.729Z</time></trkpt><trkpt lat="43.7655133" lon="11.204115"><ele>40.2</ele><time>2026-05-02T10:38:26.729Z</time></trkpt><trkpt lat="43.76559" lon="11.2041833"><ele>40.4</ele><time>2026-05-02T10:38:27.726Z</time></trkpt><trkpt lat="43.7656683" lon="11.204255"><ele>40.599999999999994</ele><time>2026-05-02T10:38:28.726Z</time></trkpt><trkpt lat="43.7657483" lon="11.20432"><ele>40.8</ele><time>2026-05-02T10:38:29.727Z</time></trkpt><trkpt lat="43.76583" lon="11.2043883"><ele>41.0</ele><time>2026-05-02T10:38:30.726Z</time></trkpt><trkpt lat="43.76591" lon="11.2044633"><ele>41.0</ele><time>2026-05-02T10:38:31.727Z</time></trkpt><trkpt lat="43.76599" lon="11.20453"><ele>41.0</ele><time>2026-05-02T10:38:32.727Z</time></trkpt><trkpt lat="43.7660717" lon="11.2045917"><ele>41.0</ele><time>2026-05-02T10:38:33.726Z</time></trkpt><trkpt lat="43.76615" lon="11.20465"><ele>41.0</ele><time>2026-05-02T10:38:34.729Z</time></trkpt><trkpt lat="43.7662283" lon="11.2047217"><ele>41.0</ele><time>2026-05-02T10:38:35.726Z</time></trkpt><trkpt lat="43.7663" lon="11.2047833"><ele>40.83333333333333</ele><time>2026-05-02T10:38:36.727Z</time></trkpt><trkpt lat="43.7663683" lon="11.2048383"><ele>40.666666666666664</ele><time>2026-05-02T10:38:37.726Z</time></trkpt><trkpt lat="43.7664333" lon="11.2048867"><ele>40.5</ele><time>2026-05-02T10:38:38.726Z</time></trkpt><trkpt lat="43.7665067" lon="11.20495"><ele>40.333333333333336</ele><time>2026-05-02T10:38:40.727Z</time></trkpt><trkpt lat="43.7665383" lon="11.2048617"><ele>40.16666666666667</ele><time>2026-05-02T10:38:42.726Z</time></trkpt><trkpt lat="43.766595" lon="11.2047033"><ele>40.0</ele><time>2026-05-02T10:38:44.727Z</time></trkpt><trkpt lat="43.766635" lon="11.204615"><ele>40.0</ele><time>2026-05-02T10:38:45.727Z</time></trkpt><trkpt lat="43.766685" lon="11.2045017"><ele>40.0</ele><time>2026-05-02T10:38:46.729Z</time></trkpt><trkpt lat="43.7667333" lon="11.2044"><ele>40.0</ele><time>2026-05-02T10:38:47.725Z</time></trkpt><trkpt lat="43.766785" lon="11.2042917"><ele>40.0</ele><time>2026-05-02T10:38:48.729Z</time></trkpt><trkpt lat="43.7668417" lon="11.2041767"><ele>40.0</ele><time>2026-05-02T10:38:49.726Z</time></trkpt><trkpt lat="43.766895" lon="11.20405"><ele>40.4</ele><time>2026-05-02T10:38:50.728Z</time></trkpt><trkpt lat="43.7669467" lon="11.203925"><ele>40.8</ele><time>2026-05-02T10:38:51.727Z</time></trkpt><trkpt lat="43.7669983" lon="11.2037983"><ele>41.2</ele><time>2026-05-02T10:38:52.727Z</time></trkpt><trkpt lat="43.7670533" lon="11.203675"><ele>41.6</ele><time>2026-05-02T10:38:53.728Z</time></trkpt><trkpt lat="43.7671083" lon="11.2035533"><ele>42.0</ele><time>2026-05-02T10:38:54.728Z</time></trkpt><trkpt lat="43.7671567" lon="11.2034267"><ele>42.0</ele><time>2026-05-02T10:38:55.728Z</time></trkpt><trkpt lat="43.7672017" lon="11.2033133"><ele>42.0</ele><time>2026-05-02T10:38:56.726Z</time></trkpt><trkpt lat="43.7672483" lon="11.2032017"><ele>42.0</ele><time>2026-05-02T10:38:57.728Z</time></trkpt><trkpt lat="43.7672817" lon="11.2031117"><ele>42.0</ele><time>2026-05-02T10:38:58.729Z</time></trkpt><trkpt lat="43.7673233" lon="11.202995"><ele>42.0</ele><time>2026-05-02T10:39:00.729Z</time></trkpt><trkpt lat="43.7673267" lon="11.2028933"><ele>42.0</ele><time>2026-05-02T10:39:04.729Z</time></trkpt><trkpt lat="43.7672683" lon="11.2027817"><ele>42.0</ele><time>2026-05-02T10:39:06.727Z</time></trkpt><trkpt lat="43.767195" lon="11.2027133"><ele>42.0</ele><time>2026-05-02T10:39:07.726Z</time></trkpt><trkpt lat="43.7671183" lon="11.202635"><ele>42.0</ele><time>2026-05-02T10:39:08.727Z</time></trkpt><trkpt lat="43.7670033" lon="11.2025433"><ele>42.0</ele><time>2026-05-02T10:39:09.727Z</time></trkpt><trkpt lat="43.7668933" lon="11.202445"><ele>42.0</ele><time>2026-05-02T10:39:10.726Z</time></trkpt><trkpt lat="43.7667833" lon="11.2023467"><ele>41.75</ele><time>2026-05-02T10:39:11.729Z</time></trkpt><trkpt lat="43.7666717" lon="11.2022567"><ele>41.5</ele><time>2026-05-02T10:39:12.726Z</time></trkpt><trkpt lat="43.7665583" lon="11.2021583"><ele>41.25</ele><time>2026-05-02T10:39:13.725Z</time></trkpt><trkpt lat="43.76645" lon="11.2020533"><ele>41.0</ele><time>2026-05-02T10:39:14.726Z</time></trkpt><trkpt lat="43.7663433" lon="11.2019467"><ele>41.0</ele><time>2026-05-02T10:39:15.725Z</time></trkpt><trkpt lat="43.7662333" lon="11.2018483"><ele>41.0</ele><time>2026-05-02T10:39:16.727Z</time></trkpt><trkpt lat="43.7661283" lon="11.2017517"><ele>41.0</ele><time>2026-05-02T10:39:17.728Z</time></trkpt><trkpt lat="43.766025" lon="11.2016617"><ele>41.0</ele><time>2026-05-02T10:39:18.731Z</time></trkpt><trkpt lat="43.765925" lon="11.2015717"><ele>41.25</ele><time>2026-05-02T10:39:19.727Z</time></trkpt><trkpt lat="43.76582" lon="11.2014867"><ele>41.5</ele><time>2026-05-02T10:39:20.728Z</time></trkpt><trkpt lat="43.765715" lon="11.2014"><ele>41.75</ele><time>2026-05-02T10:39:21.728Z</time></trkpt><trkpt lat="43.765605" lon="11.2013133"><ele>42.0</ele><time>2026-05-02T10:39:22.728Z</time></trkpt><trkpt lat="43.765495" lon="11.20122"><ele>42.0</ele><time>2026-05-02T10:39:23.728Z</time></trkpt><trkpt lat="43.76538" lon="11.2011217"><ele>42.0</ele><time>2026-05-02T10:39:24.729Z</time></trkpt><trkpt lat="43.7652617" lon="11.2010167"><ele>42.0</ele><time>2026-05-02T10:39:25.726Z</time></trkpt><trkpt lat="43.7651433" lon="11.20091"><ele>42.0</ele><time>2026-05-02T10:39:26.728Z</time></trkpt><trkpt lat="43.76503" lon="11.2008067"><ele>42.0</ele><time>2026-05-02T10:39:27.729Z</time></trkpt><trkpt lat="43.7649283" lon="11.200715"><ele>42.0</ele><time>2026-05-02T10:39:28.728Z</time></trkpt><trkpt lat="43.7648333" lon="11.20063"><ele>42.0</ele><time>2026-05-02T10:39:29.729Z</time></trkpt><trkpt lat="43.764755" lon="11.20056"><ele>42.0</ele><time>2026-05-02T10:39:30.729Z</time></trkpt><trkpt lat="43.7646883" lon="11.2005067"><ele>42.0</ele><time>2026-05-02T10:39:31.728Z</time></trkpt><trkpt lat="43.7646" lon="11.200415"><ele>41.8</ele><time>2026-05-02T10:39:33.728Z</time></trkpt><trkpt lat="43.7645567" lon="11.2002733"><ele>41.6</ele><time>2026-05-02T10:39:35.727Z</time></trkpt><trkpt lat="43.76456" lon="11.2001317"><ele>41.4</ele><time>2026-05-02T10:39:37.729Z</time></trkpt><trkpt lat="43.7645967" lon="11.199965"><ele>41.199999999999996</ele><time>2026-05-02T10:39:39.727Z</time></trkpt><trkpt lat="43.7646433" lon="11.19985"><ele>41.0</ele><time>2026-05-02T10:39:40.729Z</time></trkpt><trkpt lat="43.76469" lon="11.1997283"><ele>40.599999999999994</ele><time>2026-05-02T10:39:41.728Z</time></trkpt><trkpt lat="43.7647083" lon="11.1996033"><ele>40.199999999999996</ele><time>2026-05-02T10:39:42.727Z</time></trkpt><trkpt lat="43.7647067" lon="11.1994833"><ele>39.8</ele><time>2026-05-02T10:39:43.728Z</time></trkpt><trkpt lat="43.76469" lon="11.199355"><ele>39.4</ele><time>2026-05-02T10:39:44.728Z</time></trkpt><trkpt lat="43.7646267" lon="11.1992317"><ele>39.0</ele><time>2026-05-02T10:39:45.728Z</time></trkpt><trkpt lat="43.764555" lon="11.1990917"><ele>39.25</ele><time>2026-05-02T10:39:46.726Z</time></trkpt><trkpt lat="43.7644933" lon="11.198945"><ele>39.5</ele><time>2026-05-02T10:39:47.725Z</time></trkpt><trkpt lat="43.76444" lon="11.1987883"><ele>39.75</ele><time>2026-05-02T10:39:48.728Z</time></trkpt><trkpt lat="43.76439" lon="11.19863"><ele>40.0</ele><time>2026-05-02T10:39:49.729Z</time></trkpt><trkpt lat="43.7643467" lon="11.1984683"><ele>39.75</ele><time>2026-05-02T10:39:50.728Z</time></trkpt><trkpt lat="43.7643033" lon="11.1983017"><ele>39.5</ele><time>2026-05-02T10:39:51.731Z</time></trkpt><trkpt lat="43.7642583" lon="11.198135"><ele>39.25</ele><time>2026-05-02T10:39:52.727Z</time></trkpt><trkpt lat="43.764215" lon="11.1979633"><ele>39.0</ele><time>2026-05-02T10:39:53.728Z</time></trkpt><trkpt lat="43.7641717" lon="11.1977833"><ele>39.0</ele><time>2026-05-02T10:39:54.727Z</time></trkpt><trkpt lat="43.7641317" lon="11.1975967"><ele>39.0</ele><time>2026-05-02T10:39:55.728Z</time></trkpt><trkpt lat="43.7640967" lon="11.197415"><ele>39.0</ele><time>2026-05-02T10:39:56.729Z</time></trkpt><trkpt lat="43.7640683" lon="11.1972367"><ele>39.0</ele><time>2026-05-02T10:39:57.729Z</time></trkpt><trkpt lat="43.7640467" lon="11.1970583"><ele>39.0</ele><time>2026-05-02T10:39:58.728Z</time></trkpt><trkpt lat="43.764025" lon="11.1968883"><ele>39.0</ele><time>2026-05-02T10:39:59.728Z</time></trkpt><trkpt lat="43.7639983" lon="11.1967283"><ele>39.0</ele><time>2026-05-02T10:40:00.726Z</time></trkpt><trkpt lat="43.76397" lon="11.19659"><ele>39.0</ele><time>2026-05-02T10:40:01.729Z</time></trkpt><trkpt lat="43.7639417" lon="11.19648"><ele>39.0</ele><time>2026-05-02T10:40:02.727Z</time></trkpt><trkpt lat="43.76391" lon="11.19639"><ele>39.166666666666664</ele><time>2026-05-02T10:40:03.727Z</time></trkpt><trkpt lat="43.7638817" lon="11.1963083"><ele>39.333333333333336</ele><time>2026-05-02T10:40:04.728Z</time></trkpt><trkpt lat="43.7638483" lon="11.1962317"><ele>39.5</ele><time>2026-05-02T10:40:05.727Z</time></trkpt><trkpt lat="43.7638" lon="11.196155"><ele>39.66666666666667</ele><time>2026-05-02T10:40:06.728Z</time></trkpt><trkpt lat="43.7637433" lon="11.1960633"><ele>39.833333333333336</ele><time>2026-05-02T10:40:07.728Z</time></trkpt><trkpt lat="43.763675" lon="11.1959383"><ele>40.0</ele><time>2026-05-02T10:40:08.727Z</time></trkpt><trkpt lat="43.7636067" lon="11.195775"><ele>40.333333333333336</ele><time>2026-05-02T10:40:09.727Z</time></trkpt><trkpt lat="43.7635417" lon="11.19559"><ele>40.666666666666664</ele><time>2026-05-02T10:40:10.728Z</time></trkpt><trkpt lat="43.7634817" lon="11.1953833"><ele>41.0</ele><time>2026-05-02T10:40:11.727Z</time></trkpt><trkpt lat="43.7634267" lon="11.1951583"><ele>41.0</ele><time>2026-05-02T10:40:12.727Z</time></trkpt><trkpt lat="43.763375" lon="11.1949283"><ele>41.0</ele><time>2026-05-02T10:40:13.728Z</time></trkpt><trkpt lat="43.7633217" lon="11.1947067"><ele>41.0</ele><time>2026-05-02T10:40:14.728Z</time></trkpt><trkpt lat="43.7632733" lon="11.1944867"><ele>41.33333333333333</ele><time>2026-05-02T10:40:15.729Z</time></trkpt><trkpt lat="43.7632283" lon="11.194265"><ele>41.666666666666664</ele><time>2026-05-02T10:40:16.728Z</time></trkpt><trkpt lat="43.7631867" lon="11.1940417"><ele>42.0</ele><time>2026-05-02T10:40:17.728Z</time></trkpt><trkpt lat="43.76315" lon="11.1938183"><ele>42.0</ele><time>2026-05-02T10:40:18.727Z</time></trkpt><trkpt lat="43.763115" lon="11.1935917"><ele>42.0</ele><time>2026-05-02T10:40:19.728Z</time></trkpt><trkpt lat="43.76308" lon="11.1933617"><ele>42.0</ele><time>2026-05-02T10:40:20.728Z</time></trkpt><trkpt lat="43.76304" lon="11.19313"><ele>41.333333333333336</ele><time>2026-05-02T10:40:21.727Z</time></trkpt><trkpt lat="43.7630017" lon="11.1928967"><ele>40.66666666666667</ele><time>2026-05-02T10:40:22.729Z</time></trkpt><trkpt lat="43.7629633" lon="11.1926733"><ele>40.0</ele><time>2026-05-02T10:40:23.728Z</time></trkpt><trkpt lat="43.7629283" lon="11.1924617"><ele>39.5</ele><time>2026-05-02T10:40:24.729Z</time></trkpt><trkpt lat="43.7628967" lon="11.1922567"><ele>39.0</ele><time>2026-05-02T10:40:25.729Z</time></trkpt><trkpt lat="43.7628667" lon="11.1920567"><ele>38.5</ele><time>2026-05-02T10:40:26.728Z</time></trkpt><trkpt lat="43.76284" lon="11.1918617"><ele>38.0</ele><time>2026-05-02T10:40:27.728Z</time></trkpt><trkpt lat="43.7628133" lon="11.1916767"><ele>38.75</ele><time>2026-05-02T10:40:28.728Z</time></trkpt><trkpt lat="43.7627883" lon="11.1915033"><ele>39.5</ele><time>2026-05-02T10:40:29.729Z</time></trkpt><trkpt lat="43.7627633" lon="11.1913383"><ele>40.25</ele><time>2026-05-02T10:40:30.728Z</time></trkpt><trkpt lat="43.76274" lon="11.1911817"><ele>41.0</ele><time>2026-05-02T10:40:31.726Z</time></trkpt><trkpt lat="43.76272" lon="11.1910433"><ele>41.0</ele><time>2026-05-02T10:40:32.726Z</time></trkpt><trkpt lat="43.7626983" lon="11.1909283"><ele>41.0</ele><time>2026-05-02T10:40:33.728Z</time></trkpt><trkpt lat="43.7626733" lon="11.1908233"><ele>41.0</ele><time>2026-05-02T10:40:34.727Z</time></trkpt><trkpt lat="43.7626583" lon="11.1907333"><ele>41.0</ele><time>2026-05-02T10:40:35.729Z</time></trkpt><trkpt lat="43.762645" lon="11.1906467"><ele>41.0</ele><time>2026-05-02T10:40:36.729Z</time></trkpt><trkpt lat="43.7626467" lon="11.19048"><ele>41.0</ele><time>2026-05-02T10:40:38.729Z</time></trkpt><trkpt lat="43.7626617" lon="11.190385"><ele>41.0</ele><time>2026-05-02T10:40:39.729Z</time></trkpt><trkpt lat="43.762675" lon="11.19028"><ele>41.0</ele><time>2026-05-02T10:40:40.728Z</time></trkpt><trkpt lat="43.7626733" lon="11.1901683"><ele>41.0</ele><time>2026-05-02T10:40:41.727Z</time></trkpt><trkpt lat="43.7626633" lon="11.190055"><ele>41.0</ele><time>2026-05-02T10:40:42.727Z</time></trkpt><trkpt lat="43.7626367" lon="11.1899417"><ele>41.0</ele><time>2026-05-02T10:40:43.728Z</time></trkpt><trkpt lat="43.7625733" lon="11.1898167"><ele>41.0</ele><time>2026-05-02T10:40:44.729Z</time></trkpt><trkpt lat="43.7625217" lon="11.1896717"><ele>41.0</ele><time>2026-05-02T10:40:45.727Z</time></trkpt><trkpt lat="43.7624783" lon="11.1895133"><ele>41.0</ele><time>2026-05-02T10:40:46.727Z</time></trkpt><trkpt lat="43.762445" lon="11.189345"><ele>41.0</ele><time>2026-05-02T10:40:47.727Z</time></trkpt><trkpt lat="43.76241" lon="11.18916"><ele>41.0</ele><time>2026-05-02T10:40:48.729Z</time></trkpt><trkpt lat="43.7623733" lon="11.18896"><ele>40.666666666666664</ele><time>2026-05-02T10:40:49.729Z</time></trkpt><trkpt lat="43.7623367" lon="11.188755"><ele>40.333333333333336</ele><time>2026-05-02T10:40:50.729Z</time></trkpt><trkpt lat="43.7622967" lon="11.1885433"><ele>40.0</ele><time>2026-05-02T10:40:51.728Z</time></trkpt><trkpt lat="43.7622583" lon="11.188335"><ele>40.0</ele><time>2026-05-02T10:40:52.728Z</time></trkpt><trkpt lat="43.7622217" lon="11.1881233"><ele>40.0</ele><time>2026-05-02T10:40:53.728Z</time></trkpt><trkpt lat="43.762175" lon="11.1879167"><ele>40.0</ele><time>2026-05-02T10:40:54.73Z</time></trkpt><trkpt lat="43.7621217" lon="11.18771"><ele>40.0</ele><time>2026-05-02T10:40:55.727Z</time></trkpt><trkpt lat="43.7620633" lon="11.187515"><ele>40.0</ele><time>2026-05-02T10:40:56.731Z</time></trkpt><trkpt lat="43.762005" lon="11.1873217"><ele>40.0</ele><time>2026-05-02T10:40:57.727Z</time></trkpt><trkpt lat="43.7619467" lon="11.187135"><ele>40.0</ele><time>2026-05-02T10:40:58.728Z</time></trkpt><trkpt lat="43.7618867" lon="11.1869517"><ele>40.0</ele><time>2026-05-02T10:40:59.727Z</time></trkpt><trkpt lat="43.7618267" lon="11.1867783"><ele>40.0</ele><time>2026-05-02T10:41:00.729Z</time></trkpt><trkpt lat="43.76176" lon="11.1866083"><ele>40.0</ele><time>2026-05-02T10:41:01.728Z</time></trkpt><trkpt lat="43.76169" lon="11.1864417"><ele>40.0</ele><time>2026-05-02T10:41:02.729Z</time></trkpt><trkpt lat="43.7616167" lon="11.1862817"><ele>40.0</ele><time>2026-05-02T10:41:03.728Z</time></trkpt><trkpt lat="43.7615433" lon="11.18613"><ele>40.0</ele><time>2026-05-02T10:41:04.727Z</time></trkpt><trkpt lat="43.7614683" lon="11.1859967"><ele>40.0</ele><time>2026-05-02T10:41:05.728Z</time></trkpt><trkpt lat="43.761395" lon="11.18588"><ele>40.0</ele><time>2026-05-02T10:41:06.727Z</time></trkpt><trkpt lat="43.7613317" lon="11.1857767"><ele>40.0</ele><time>2026-05-02T10:41:07.728Z</time></trkpt><trkpt lat="43.7612867" lon="11.185675"><ele>40.0</ele><time>2026-05-02T10:41:08.728Z</time></trkpt><trkpt lat="43.7612567" lon="11.185575"><ele>40.0</ele><time>2026-05-02T10:41:09.728Z</time></trkpt><trkpt lat="43.7612417" lon="11.1854733"><ele>40.0</ele><time>2026-05-02T10:41:10.728Z</time></trkpt><trkpt lat="43.761245" lon="11.1853717"><ele>40.0</ele><time>2026-05-02T10:41:11.725Z</time></trkpt><trkpt lat="43.7612667" lon="11.185265"><ele>40.2</ele><time>2026-05-02T10:41:12.729Z</time></trkpt><trkpt lat="43.7613067" lon="11.1851617"><ele>40.4</ele><time>2026-05-02T10:41:13.729Z</time></trkpt><trkpt lat="43.7613733" lon="11.1850533"><ele>40.599999999999994</ele><time>2026-05-02T10:41:14.728Z</time></trkpt><trkpt lat="43.7614467" lon="11.1849417"><ele>40.8</ele><time>2026-05-02T10:41:15.729Z</time></trkpt><trkpt lat="43.761525" lon="11.1848317"><ele>41.0</ele><time>2026-05-02T10:41:16.728Z</time></trkpt><trkpt lat="43.761605" lon="11.1847167"><ele>41.0</ele><time>2026-05-02T10:41:17.729Z</time></trkpt><trkpt lat="43.761685" lon="11.1845967"><ele>41.0</ele><time>2026-05-02T10:41:18.728Z</time></trkpt><trkpt lat="43.7617617" lon="11.1844717"><ele>41.0</ele><time>2026-05-02T10:41:19.729Z</time></trkpt><trkpt lat="43.7618367" lon="11.1843483"><ele>41.0</ele><time>2026-05-02T10:41:20.729Z</time></trkpt><trkpt lat="43.7619017" lon="11.1842333"><ele>41.0</ele><time>2026-05-02T10:41:21.728Z</time></trkpt><trkpt lat="43.7619583" lon="11.1841267"><ele>41.0</ele><time>2026-05-02T10:41:22.727Z</time></trkpt><trkpt lat="43.7620133" lon="11.18403"><ele>41.0</ele><time>2026-05-02T10:41:23.728Z</time></trkpt><trkpt lat="43.762065" lon="11.1839383"><ele>41.0</ele><time>2026-05-02T10:41:24.729Z</time></trkpt><trkpt lat="43.76211" lon="11.183855"><ele>41.0</ele><time>2026-05-02T10:41:25.726Z</time></trkpt><trkpt lat="43.7621517" lon="11.1837717"><ele>41.0</ele><time>2026-05-02T10:41:26.727Z</time></trkpt><trkpt lat="43.762195" lon="11.1836933"><ele>41.0</ele><time>2026-05-02T10:41:27.727Z</time></trkpt><trkpt lat="43.7622317" lon="11.1836217"><ele>41.0</ele><time>2026-05-02T10:41:28.728Z</time></trkpt><trkpt lat="43.7622783" lon="11.1834967"><ele>41.0</ele><time>2026-05-02T10:41:30.731Z</time></trkpt><trkpt lat="43.762255" lon="11.1833717"><ele>41.0</ele><time>2026-05-02T10:41:32.73Z</time></trkpt><trkpt lat="43.76215" lon="11.1832533"><ele>41.0</ele><time>2026-05-02T10:41:34.727Z</time></trkpt><trkpt lat="43.762075" lon="11.1831933"><ele>41.199999999999996</ele><time>2026-05-02T10:41:35.727Z</time></trkpt><trkpt lat="43.7619967" lon="11.1831283"><ele>41.4</ele><time>2026-05-02T10:41:36.726Z</time></trkpt><trkpt lat="43.7619167" lon="11.1830617"><ele>41.6</ele><time>2026-05-02T10:41:37.729Z</time></trkpt><trkpt lat="43.7618383" lon="11.1829933"><ele>41.8</ele><time>2026-05-02T10:41:38.729Z</time></trkpt><trkpt lat="43.7617617" lon="11.1829317"><ele>42.0</ele><time>2026-05-02T10:41:39.727Z</time></trkpt><trkpt lat="43.761685" lon="11.1828733"><ele>42.0</ele><time>2026-05-02T10:41:40.727Z</time></trkpt><trkpt lat="43.761605" lon="11.18282"><ele>42.0</ele><time>2026-05-02T10:41:41.727Z</time></trkpt><trkpt lat="43.7615267" lon="11.1827633"><ele>42.0</ele><time>2026-05-02T10:41:42.727Z</time></trkpt><trkpt lat="43.7614567" lon="11.1827117"><ele>42.0</ele><time>2026-05-02T10:41:43.728Z</time></trkpt><trkpt lat="43.7613867" lon="11.1826583"><ele>42.0</ele><time>2026-05-02T10:41:44.727Z</time></trkpt><trkpt lat="43.7613167" lon="11.1825967"><ele>42.0</ele><time>2026-05-02T10:41:45.727Z</time></trkpt><trkpt lat="43.7612417" lon="11.1825467"><ele>42.0</ele><time>2026-05-02T10:41:46.73Z</time></trkpt><trkpt lat="43.7611633" lon="11.1824917"><ele>42.0</ele><time>2026-05-02T10:41:47.728Z</time></trkpt><trkpt lat="43.761095" lon="11.18244"><ele>42.0</ele><time>2026-05-02T10:41:48.727Z</time></trkpt><trkpt lat="43.76101" lon="11.1823633"><ele>42.0</ele><time>2026-05-02T10:41:50.728Z</time></trkpt><trkpt lat="43.7609367" lon="11.1822967"><ele>42.0</ele><time>2026-05-02T10:41:52.729Z</time></trkpt><trkpt lat="43.7608383" lon="11.1821917"><ele>41.8</ele><time>2026-05-02T10:41:54.728Z</time></trkpt><trkpt lat="43.7607733" lon="11.1821267"><ele>41.6</ele><time>2026-05-02T10:41:55.728Z</time></trkpt><trkpt lat="43.76069" lon="11.18206"><ele>41.4</ele><time>2026-05-02T10:41:56.727Z</time></trkpt><trkpt lat="43.7606033" lon="11.1819983"><ele>41.199999999999996</ele><time>2026-05-02T10:41:57.727Z</time></trkpt><trkpt lat="43.7605133" lon="11.1819233"><ele>41.0</ele><time>2026-05-02T10:41:58.729Z</time></trkpt><trkpt lat="43.7604133" lon="11.1818483"><ele>41.0</ele><time>2026-05-02T10:41:59.728Z</time></trkpt><trkpt lat="43.76031" lon="11.1817667"><ele>41.0</ele><time>2026-05-02T10:42:00.729Z</time></trkpt><trkpt lat="43.7602067" lon="11.1816833"><ele>41.0</ele><time>2026-05-02T10:42:01.73Z</time></trkpt><trkpt lat="43.7601083" lon="11.1816017"><ele>41.0</ele><time>2026-05-02T10:42:02.73Z</time></trkpt><trkpt lat="43.760015" lon="11.181525"><ele>41.599999999999994</ele><time>2026-05-02T10:42:03.728Z</time></trkpt><trkpt lat="43.75993" lon="11.1814533"><ele>42.2</ele><time>2026-05-02T10:42:04.729Z</time></trkpt><trkpt lat="43.759855" lon="11.1813917"><ele>42.8</ele><time>2026-05-02T10:42:05.729Z</time></trkpt><trkpt lat="43.75979" lon="11.1813383"><ele>43.400000000000006</ele><time>2026-05-02T10:42:06.73Z</time></trkpt><trkpt lat="43.7596917" lon="11.181255"><ele>44.0</ele><time>2026-05-02T10:42:08.729Z</time></trkpt><trkpt lat="43.7596233" lon="11.1811833"><ele>44.0</ele><time>2026-05-02T10:42:10.728Z</time></trkpt><trkpt lat="43.759555" lon="11.181095"><ele>44.0</ele><time>2026-05-02T10:42:12.729Z</time></trkpt><trkpt lat="43.7594917" lon="11.181075"><ele>44.0</ele><time>2026-05-02T10:42:16.727Z</time></trkpt><trkpt lat="43.759395" lon="11.1810417"><ele>44.0</ele><time>2026-05-02T10:42:19.729Z</time></trkpt><trkpt lat="43.7593017" lon="11.1809867"><ele>44.0</ele><time>2026-05-02T10:42:21.727Z</time></trkpt><trkpt lat="43.759195" lon="11.1809033"><ele>44.5</ele><time>2026-05-02T10:42:23.728Z</time></trkpt><trkpt lat="43.759135" lon="11.18085"><ele>45.0</ele><time>2026-05-02T10:42:24.725Z</time></trkpt><trkpt lat="43.75907" lon="11.180795"><ele>45.5</ele><time>2026-05-02T10:42:25.728Z</time></trkpt><trkpt lat="43.759005" lon="11.18074"><ele>46.0</ele><time>2026-05-02T10:42:26.728Z</time></trkpt><trkpt lat="43.7589383" lon="11.1806883"><ele>46.5</ele><time>2026-05-02T10:42:27.729Z</time></trkpt><trkpt lat="43.7588583" lon="11.1806217"><ele>47.0</ele><time>2026-05-02T10:42:28.729Z</time></trkpt><trkpt lat="43.7587817" lon="11.18055"><ele>47.33333333333333</ele><time>2026-05-02T10:42:29.729Z</time></trkpt><trkpt lat="43.7587067" lon="11.1804833"><ele>47.666666666666664</ele><time>2026-05-02T10:42:30.728Z</time></trkpt><trkpt lat="43.7586417" lon="11.1804267"><ele>48.0</ele><time>2026-05-02T10:42:31.729Z</time></trkpt><trkpt lat="43.75858" lon="11.1803667"><ele>48.33333333333333</ele><time>2026-05-02T10:42:32.728Z</time></trkpt><trkpt lat="43.758525" lon="11.1803067"><ele>48.666666666666664</ele><time>2026-05-02T10:42:33.728Z</time></trkpt><trkpt lat="43.758465" lon="11.1802433"><ele>49.0</ele><time>2026-05-02T10:42:34.729Z</time></trkpt><trkpt lat="43.7584033" lon="11.180175"><ele>48.166666666666664</ele><time>2026-05-02T10:42:35.729Z</time></trkpt><trkpt lat="43.7583433" lon="11.1800983"><ele>47.33333333333333</ele><time>2026-05-02T10:42:36.73Z</time></trkpt><trkpt lat="43.7582833" lon="11.1800083"><ele>46.5</ele><time>2026-05-02T10:42:37.728Z</time></trkpt><trkpt lat="43.758225" lon="11.1799133"><ele>45.666666666666664</ele><time>2026-05-02T10:42:38.728Z</time></trkpt><trkpt lat="43.7581667" lon="11.1798183"><ele>44.83333333333333</ele><time>2026-05-02T10:42:39.727Z</time></trkpt><trkpt lat="43.7581083" lon="11.17973"><ele>44.0</ele><time>2026-05-02T10:42:40.728Z</time></trkpt><trkpt lat="43.7580483" lon="11.1796467"><ele>44.0</ele><time>2026-05-02T10:42:41.729Z</time></trkpt><trkpt lat="43.7579883" lon="11.1795817"><ele>44.0</ele><time>2026-05-02T10:42:42.728Z</time></trkpt><trkpt lat="43.7579283" lon="11.1795217"><ele>44.0</ele><time>2026-05-02T10:42:43.728Z</time></trkpt><trkpt lat="43.7578583" lon="11.1794683"><ele>44.0</ele><time>2026-05-02T10:42:44.73Z</time></trkpt><trkpt lat="43.7577917" lon="11.1794183"><ele>44.0</ele><time>2026-05-02T10:42:45.728Z</time></trkpt><trkpt lat="43.7576967" lon="11.1793317"><ele>44.0</ele><time>2026-05-02T10:42:47.728Z</time></trkpt><trkpt lat="43.75761" lon="11.1792683"><ele>43.400000000000006</ele><time>2026-05-02T10:42:49.729Z</time></trkpt><trkpt lat="43.757525" lon="11.1792083"><ele>42.8</ele><time>2026-05-02T10:42:51.728Z</time></trkpt><trkpt lat="43.75747" lon="11.17916"><ele>42.2</ele><time>2026-05-02T10:42:52.727Z</time></trkpt><trkpt lat="43.7574067" lon="11.17909"><ele>41.599999999999994</ele><time>2026-05-02T10:42:53.728Z</time></trkpt><trkpt lat="43.7573167" lon="11.1790117"><ele>41.0</ele><time>2026-05-02T10:42:54.73Z</time></trkpt><trkpt lat="43.75716" lon="11.1789233"><ele>41.0</ele><time>2026-05-02T10:42:55.729Z</time></trkpt><trkpt lat="43.7570183" lon="11.1788317"><ele>41.0</ele><time>2026-05-02T10:42:56.73Z</time></trkpt><trkpt lat="43.7568633" lon="11.1787433"><ele>41.0</ele><time>2026-05-02T10:42:57.728Z</time></trkpt><trkpt lat="43.7567267" lon="11.1786567"><ele>41.25</ele><time>2026-05-02T10:42:58.729Z</time></trkpt><trkpt lat="43.7566067" lon="11.1785783"><ele>41.5</ele><time>2026-05-02T10:42:59.729Z</time></trkpt><trkpt lat="43.7565033" lon="11.1785"><ele>41.75</ele><time>2026-05-02T10:43:00.731Z</time></trkpt><trkpt lat="43.75641" lon="11.1784417"><ele>42.0</ele><time>2026-05-02T10:43:01.729Z</time></trkpt><trkpt lat="43.756325" lon="11.1783767"><ele>42.0</ele><time>2026-05-02T10:43:02.727Z</time></trkpt><trkpt lat="43.7562417" lon="11.1783233"><ele>42.0</ele><time>2026-05-02T10:43:03.727Z</time></trkpt><trkpt lat="43.7561617" lon="11.1782667"><ele>42.0</ele><time>2026-05-02T10:43:04.728Z</time></trkpt><trkpt lat="43.7560683" lon="11.1781883"><ele>42.0</ele><time>2026-05-02T10:43:05.729Z</time></trkpt><trkpt lat="43.755965" lon="11.178115"><ele>42.0</ele><time>2026-05-02T10:43:06.73Z</time></trkpt><trkpt lat="43.755855" lon="11.178035"><ele>42.0</ele><time>2026-05-02T10:43:07.727Z</time></trkpt><trkpt lat="43.7557283" lon="11.1779483"><ele>42.0</ele><time>2026-05-02T10:43:08.73Z</time></trkpt><trkpt lat="43.7555933" lon="11.177865"><ele>42.0</ele><time>2026-05-02T10:43:09.729Z</time></trkpt><trkpt lat="43.7554617" lon="11.177775"><ele>42.0</ele><time>2026-05-02T10:43:10.728Z</time></trkpt><trkpt lat="43.75534" lon="11.1776633"><ele>42.0</ele><time>2026-05-02T10:43:11.73Z</time></trkpt><trkpt lat="43.755225" lon="11.1775567"><ele>42.0</ele><time>2026-05-02T10:43:12.729Z</time></trkpt><trkpt lat="43.755115" lon="11.1774567"><ele>42.0</ele><time>2026-05-02T10:43:13.728Z</time></trkpt><trkpt lat="43.7549983" lon="11.1773717"><ele>42.0</ele><time>2026-05-02T10:43:14.727Z</time></trkpt><trkpt lat="43.754875" lon="11.1773183"><ele>42.0</ele><time>2026-05-02T10:43:15.729Z</time></trkpt><trkpt lat="43.75475" lon="11.1772667"><ele>42.0</ele><time>2026-05-02T10:43:16.729Z</time></trkpt><trkpt lat="43.75462" lon="11.1772083"><ele>42.0</ele><time>2026-05-02T10:43:17.729Z</time></trkpt><trkpt lat="43.7544917" lon="11.1771267"><ele>42.0</ele><time>2026-05-02T10:43:18.728Z</time></trkpt><trkpt lat="43.7543667" lon="11.1770417"><ele>42.0</ele><time>2026-05-02T10:43:19.727Z</time></trkpt><trkpt lat="43.7542533" lon="11.176975"><ele>42.0</ele><time>2026-05-02T10:43:20.729Z</time></trkpt><trkpt lat="43.7541533" lon="11.176905"><ele>42.0</ele><time>2026-05-02T10:43:21.729Z</time></trkpt><trkpt lat="43.7540733" lon="11.176835"><ele>42.0</ele><time>2026-05-02T10:43:22.728Z</time></trkpt><trkpt lat="43.7540017" lon="11.1767683"><ele>42.0</ele><time>2026-05-02T10:43:23.727Z</time></trkpt><trkpt lat="43.753915" lon="11.1767"><ele>42.0</ele><time>2026-05-02T10:43:25.728Z</time></trkpt><trkpt lat="43.75388" lon="11.1768083"><ele>42.0</ele><time>2026-05-02T10:43:32.731Z</time></trkpt><trkpt lat="43.753875" lon="11.1769017"><ele>42.0</ele><time>2026-05-02T10:43:33.727Z</time></trkpt><trkpt lat="43.7538717" lon="11.1770067"><ele>42.0</ele><time>2026-05-02T10:43:34.729Z</time></trkpt><trkpt lat="43.75388" lon="11.1771283"><ele>42.0</ele><time>2026-05-02T10:43:35.729Z</time></trkpt><trkpt lat="43.7539433" lon="11.17734"><ele>41.75</ele><time>2026-05-02T10:43:36.727Z</time></trkpt><trkpt lat="43.754" lon="11.1775283"><ele>41.5</ele><time>2026-05-02T10:43:37.728Z</time></trkpt><trkpt lat="43.75406" lon="11.1776983"><ele>41.25</ele><time>2026-05-02T10:43:38.727Z</time></trkpt><trkpt lat="43.7541317" lon="11.1778533"><ele>41.0</ele><time>2026-05-02T10:43:39.728Z</time></trkpt><trkpt lat="43.7542167" lon="11.17798"><ele>41.0</ele><time>2026-05-02T10:43:40.727Z</time></trkpt><trkpt lat="43.7542983" lon="11.1780733"><ele>41.0</ele><time>2026-05-02T10:43:41.729Z</time></trkpt><trkpt lat="43.75438" lon="11.1781517"><ele>41.0</ele><time>2026-05-02T10:43:42.729Z</time></trkpt><trkpt lat="43.75444" lon="11.1782183"><ele>41.0</ele><time>2026-05-02T10:43:43.728Z</time></trkpt><trkpt lat="43.7544883" lon="11.1782833"><ele>41.0</ele><time>2026-05-02T10:43:44.728Z</time></trkpt><trkpt lat="43.7545067" lon="11.1784167"><ele>41.0</ele><time>2026-05-02T10:43:46.728Z</time></trkpt><trkpt lat="43.754435" lon="11.1785683"><ele>41.4</ele><time>2026-05-02T10:43:48.728Z</time></trkpt><trkpt lat="43.7543833" lon="11.1786617"><ele>41.8</ele><time>2026-05-02T10:43:49.727Z</time></trkpt><trkpt lat="43.75433" lon="11.17876"><ele>42.199999999999996</ele><time>2026-05-02T10:43:50.733Z</time></trkpt><trkpt lat="43.754265" lon="11.178875"><ele>42.599999999999994</ele><time>2026-05-02T10:43:51.729Z</time></trkpt><trkpt lat="43.7541883" lon="11.179025"><ele>43.0</ele><time>2026-05-02T10:43:52.727Z</time></trkpt><trkpt lat="43.754105" lon="11.1791833"><ele>43.25</ele><time>2026-05-02T10:43:53.728Z</time></trkpt><trkpt lat="43.7540233" lon="11.179335"><ele>43.5</ele><time>2026-05-02T10:43:54.727Z</time></trkpt><trkpt lat="43.75394" lon="11.1794917"><ele>43.75</ele><time>2026-05-02T10:43:55.729Z</time></trkpt><trkpt lat="43.7538633" lon="11.1796417"><ele>44.0</ele><time>2026-05-02T10:43:56.728Z</time></trkpt><trkpt lat="43.7537933" lon="11.1797867"><ele>44.75</ele><time>2026-05-02T10:43:57.728Z</time></trkpt><trkpt lat="43.7537267" lon="11.1799233"><ele>45.5</ele><time>2026-05-02T10:43:58.727Z</time></trkpt><trkpt lat="43.7536583" lon="11.1800533"><ele>46.25</ele><time>2026-05-02T10:43:59.729Z</time></trkpt><trkpt lat="43.7535883" lon="11.1801783"><ele>47.0</ele><time>2026-05-02T10:44:00.729Z</time></trkpt><trkpt lat="43.7535267" lon="11.1802967"><ele>47.0</ele><time>2026-05-02T10:44:01.728Z</time></trkpt><trkpt lat="43.7534683" lon="11.1804067"><ele>47.0</ele><time>2026-05-02T10:44:02.728Z</time></trkpt><trkpt lat="43.7534233" lon="11.1805133"><ele>47.0</ele><time>2026-05-02T10:44:03.727Z</time></trkpt><trkpt lat="43.7533833" lon="11.1806083"><ele>47.0</ele><time>2026-05-02T10:44:04.727Z</time></trkpt><trkpt lat="43.75335" lon="11.180695"><ele>47.0</ele><time>2026-05-02T10:44:05.728Z</time></trkpt><trkpt lat="43.7532883" lon="11.1808367"><ele>47.0</ele><time>2026-05-02T10:44:07.725Z</time></trkpt><trkpt lat="43.7532333" lon="11.1809633"><ele>47.0</ele><time>2026-05-02T10:44:09.727Z</time></trkpt><trkpt lat="43.75319" lon="11.1810933"><ele>47.0</ele><time>2026-05-02T10:44:11.727Z</time></trkpt><trkpt lat="43.7531333" lon="11.181255"><ele>47.0</ele><time>2026-05-02T10:44:13.728Z</time></trkpt><trkpt lat="43.7530983" lon="11.1813583"><ele>47.0</ele><time>2026-05-02T10:44:14.727Z</time></trkpt><trkpt lat="43.7530583" lon="11.181485"><ele>47.0</ele><time>2026-05-02T10:44:15.728Z</time></trkpt><trkpt lat="43.753015" lon="11.18163"><ele>47.0</ele><time>2026-05-02T10:44:16.726Z</time></trkpt><trkpt lat="43.7529667" lon="11.18178"><ele>47.0</ele><time>2026-05-02T10:44:17.727Z</time></trkpt><trkpt lat="43.7529217" lon="11.18193"><ele>47.0</ele><time>2026-05-02T10:44:18.728Z</time></trkpt><trkpt lat="43.7528933" lon="11.18208"><ele>47.0</ele><time>2026-05-02T10:44:19.728Z</time></trkpt><trkpt lat="43.7528617" lon="11.1822267"><ele>47.0</ele><time>2026-05-02T10:44:20.727Z</time></trkpt><trkpt lat="43.7528217" lon="11.18236"><ele>47.0</ele><time>2026-05-02T10:44:21.727Z</time></trkpt><trkpt lat="43.7527833" lon="11.1825"><ele>47.0</ele><time>2026-05-02T10:44:22.727Z</time></trkpt><trkpt lat="43.752725" lon="11.1826317"><ele>47.0</ele><time>2026-05-02T10:44:23.728Z</time></trkpt><trkpt lat="43.7526533" lon="11.1827517"><ele>46.8</ele><time>2026-05-02T10:44:24.727Z</time></trkpt><trkpt lat="43.7525767" lon="11.182865"><ele>46.6</ele><time>2026-05-02T10:44:25.727Z</time></trkpt><trkpt lat="43.7525133" lon="11.1829617"><ele>46.4</ele><time>2026-05-02T10:44:26.728Z</time></trkpt><trkpt lat="43.7524433" lon="11.183045"><ele>46.199999999999996</ele><time>2026-05-02T10:44:27.728Z</time></trkpt><trkpt lat="43.7523717" lon="11.1831117"><ele>46.0</ele><time>2026-05-02T10:44:28.727Z</time></trkpt><trkpt lat="43.7522867" lon="11.183165"><ele>46.199999999999996</ele><time>2026-05-02T10:44:29.726Z</time></trkpt><trkpt lat="43.7521833" lon="11.183195"><ele>46.4</ele><time>2026-05-02T10:44:30.728Z</time></trkpt><trkpt lat="43.7521" lon="11.1832217"><ele>46.6</ele><time>2026-05-02T10:44:31.727Z</time></trkpt><trkpt lat="43.75202" lon="11.18326"><ele>46.8</ele><time>2026-05-02T10:44:32.729Z</time></trkpt><trkpt lat="43.7519367" lon="11.183305"><ele>47.0</ele><time>2026-05-02T10:44:33.728Z</time></trkpt><trkpt lat="43.7518583" lon="11.1833683"><ele>47.0</ele><time>2026-05-02T10:44:34.727Z</time></trkpt><trkpt lat="43.7518" lon="11.1834383"><ele>47.0</ele><time>2026-05-02T10:44:35.727Z</time></trkpt><trkpt lat="43.751705" lon="11.1835267"><ele>47.0</ele><time>2026-05-02T10:44:37.728Z</time></trkpt><trkpt lat="43.7516317" lon="11.1835467"><ele>47.0</ele><time>2026-05-02T10:44:39.728Z</time></trkpt><trkpt lat="43.7515117" lon="11.183505"><ele>47.0</ele><time>2026-05-02T10:44:41.727Z</time></trkpt><trkpt lat="43.7514433" lon="11.1834517"><ele>47.0</ele><time>2026-05-02T10:44:42.726Z</time></trkpt><trkpt lat="43.751365" lon="11.1833833"><ele>47.0</ele><time>2026-05-02T10:44:43.728Z</time></trkpt><trkpt lat="43.751255" lon="11.1832933"><ele>47.0</ele><time>2026-05-02T10:44:44.726Z</time></trkpt><trkpt lat="43.7511583" lon="11.1832067"><ele>47.0</ele><time>2026-05-02T10:44:45.728Z</time></trkpt><trkpt lat="43.7510567" lon="11.1831283"><ele>46.8</ele><time>2026-05-02T10:44:46.726Z</time></trkpt><trkpt lat="43.7509683" lon="11.1830433"><ele>46.6</ele><time>2026-05-02T10:44:47.727Z</time></trkpt><trkpt lat="43.7508867" lon="11.1829583"><ele>46.4</ele><time>2026-05-02T10:44:48.728Z</time></trkpt><trkpt lat="43.7508067" lon="11.1828733"><ele>46.199999999999996</ele><time>2026-05-02T10:44:49.725Z</time></trkpt><trkpt lat="43.7507217" lon="11.1827817"><ele>46.0</ele><time>2026-05-02T10:44:50.727Z</time></trkpt><trkpt lat="43.75063" lon="11.18269"><ele>46.0</ele><time>2026-05-02T10:44:51.726Z</time></trkpt><trkpt lat="43.7505417" lon="11.182585"><ele>46.0</ele><time>2026-05-02T10:44:52.728Z</time></trkpt><trkpt lat="43.7504183" lon="11.1824683"><ele>46.0</ele><time>2026-05-02T10:44:53.728Z</time></trkpt><trkpt lat="43.7503033" lon="11.182345"><ele>46.0</ele><time>2026-05-02T10:44:54.73Z</time></trkpt><trkpt lat="43.7501883" lon="11.1822233"><ele>46.5</ele><time>2026-05-02T10:44:55.729Z</time></trkpt><trkpt lat="43.7500733" lon="11.1821067"><ele>47.0</ele><time>2026-05-02T10:44:56.729Z</time></trkpt><trkpt lat="43.7499617" lon="11.18199"><ele>47.5</ele><time>2026-05-02T10:44:57.728Z</time></trkpt><trkpt lat="43.7498483" lon="11.181875"><ele>48.0</ele><time>2026-05-02T10:44:58.728Z</time></trkpt><trkpt lat="43.7497433" lon="11.181765"><ele>48.0</ele><time>2026-05-02T10:44:59.727Z</time></trkpt><trkpt lat="43.7496167" lon="11.1816667"><ele>48.0</ele><time>2026-05-02T10:45:00.728Z</time></trkpt><trkpt lat="43.7495267" lon="11.181565"><ele>48.0</ele><time>2026-05-02T10:45:01.728Z</time></trkpt><trkpt lat="43.7494517" lon="11.181455"><ele>48.0</ele><time>2026-05-02T10:45:02.729Z</time></trkpt><trkpt lat="43.7493733" lon="11.1813517"><ele>48.8</ele><time>2026-05-02T10:45:03.728Z</time></trkpt><trkpt lat="43.7493" lon="11.1812467"><ele>49.599999999999994</ele><time>2026-05-02T10:45:04.725Z</time></trkpt><trkpt lat="43.7492267" lon="11.1811433"><ele>50.400000000000006</ele><time>2026-05-02T10:45:05.727Z</time></trkpt><trkpt lat="43.7491517" lon="11.1810533"><ele>51.2</ele><time>2026-05-02T10:45:06.727Z</time></trkpt><trkpt lat="43.7490817" lon="11.1809717"><ele>52.0</ele><time>2026-05-02T10:45:07.729Z</time></trkpt><trkpt lat="43.7490233" lon="11.180895"><ele>51.99999999999999</ele><time>2026-05-02T10:45:08.728Z</time></trkpt><trkpt lat="43.7489633" lon="11.18083"><ele>52.0</ele><time>2026-05-02T10:45:09.726Z</time></trkpt><trkpt lat="43.7488867" lon="11.1807417"><ele>52.0</ele><time>2026-05-02T10:45:11.727Z</time></trkpt><trkpt lat="43.7488117" lon="11.1807167"><ele>52.0</ele><time>2026-05-02T10:45:14.729Z</time></trkpt><trkpt lat="43.748735" lon="11.1808017"><ele>51.99999999999999</ele><time>2026-05-02T10:45:17.728Z</time></trkpt><trkpt lat="43.748685" lon="11.1808883"><ele>52.0</ele><time>2026-05-02T10:45:18.729Z</time></trkpt><trkpt lat="43.7486383" lon="11.1809883"><ele>52.0</ele><time>2026-05-02T10:45:19.729Z</time></trkpt><trkpt lat="43.7485917" lon="11.1810767"><ele>52.0</ele><time>2026-05-02T10:45:20.728Z</time></trkpt><trkpt lat="43.74855" lon="11.1811567"><ele>52.0</ele><time>2026-05-02T10:45:21.729Z</time></trkpt><trkpt lat="43.7484683" lon="11.1812867"><ele>52.0</ele><time>2026-05-02T10:45:23.729Z</time></trkpt><trkpt lat="43.748405" lon="11.1813433"><ele>52.0</ele><time>2026-05-02T10:45:24.727Z</time></trkpt><trkpt lat="43.7482967" lon="11.1813333"><ele>51.8</ele><time>2026-05-02T10:45:26.727Z</time></trkpt><trkpt lat="43.748225" lon="11.181235"><ele>51.6</ele><time>2026-05-02T10:45:27.729Z</time></trkpt><trkpt lat="43.748155" lon="11.181145"><ele>51.4</ele><time>2026-05-02T10:45:28.727Z</time></trkpt><trkpt lat="43.7480717" lon="11.1810683"><ele>51.199999999999996</ele><time>2026-05-02T10:45:29.728Z</time></trkpt><trkpt lat="43.747985" lon="11.180985"><ele>51.0</ele><time>2026-05-02T10:45:30.728Z</time></trkpt><trkpt lat="43.7479117" lon="11.1809"><ele>51.0</ele><time>2026-05-02T10:45:31.728Z</time></trkpt><trkpt lat="43.7478283" lon="11.18081"><ele>51.0</ele><time>2026-05-02T10:45:32.729Z</time></trkpt><trkpt lat="43.74775" lon="11.1807333"><ele>51.0</ele><time>2026-05-02T10:45:33.729Z</time></trkpt><trkpt lat="43.747675" lon="11.180655"><ele>51.0</ele><time>2026-05-02T10:45:34.726Z</time></trkpt><trkpt lat="43.7476117" lon="11.18056"><ele>51.0</ele><time>2026-05-02T10:45:35.729Z</time></trkpt><trkpt lat="43.747545" lon="11.1804617"><ele>51.599999999999994</ele><time>2026-05-02T10:45:36.728Z</time></trkpt><trkpt lat="43.7474717" lon="11.180375"><ele>52.2</ele><time>2026-05-02T10:45:37.727Z</time></trkpt><trkpt lat="43.7474" lon="11.1802933"><ele>52.800000000000004</ele><time>2026-05-02T10:45:38.729Z</time></trkpt><trkpt lat="43.7473283" lon="11.180205"><ele>53.400000000000006</ele><time>2026-05-02T10:45:39.729Z</time></trkpt><trkpt lat="43.747255" lon="11.1801167"><ele>54.0</ele><time>2026-05-02T10:45:40.726Z</time></trkpt><trkpt lat="43.747175" lon="11.18002"><ele>54.0</ele><time>2026-05-02T10:45:41.729Z</time></trkpt><trkpt lat="43.7470883" lon="11.1799217"><ele>54.00000000000001</ele><time>2026-05-02T10:45:42.727Z</time></trkpt><trkpt lat="43.74701" lon="11.179825"><ele>54.00000000000001</ele><time>2026-05-02T10:45:43.727Z</time></trkpt><trkpt lat="43.7469367" lon="11.1797217"><ele>54.0</ele><time>2026-05-02T10:45:44.732Z</time></trkpt><trkpt lat="43.746855" lon="11.1796317"><ele>54.0</ele><time>2026-05-02T10:45:45.727Z</time></trkpt><trkpt lat="43.7467617" lon="11.1795767"><ele>53.6</ele><time>2026-05-02T10:45:46.727Z</time></trkpt><trkpt lat="43.746665" lon="11.1795283"><ele>53.2</ele><time>2026-05-02T10:45:47.728Z</time></trkpt><trkpt lat="43.7465683" lon="11.17951"><ele>52.800000000000004</ele><time>2026-05-02T10:45:48.727Z</time></trkpt><trkpt lat="43.7464817" lon="11.1795267"><ele>52.400000000000006</ele><time>2026-05-02T10:45:49.727Z</time></trkpt><trkpt lat="43.7464017" lon="11.179585"><ele>52.0</ele><time>2026-05-02T10:45:50.726Z</time></trkpt><trkpt lat="43.7463383" lon="11.1796617"><ele>51.99999999999999</ele><time>2026-05-02T10:45:51.73Z</time></trkpt><trkpt lat="43.7462833" lon="11.1797367"><ele>52.0</ele><time>2026-05-02T10:45:52.73Z</time></trkpt><trkpt lat="43.7462333" lon="11.1797983"><ele>52.0</ele><time>2026-05-02T10:45:53.729Z</time></trkpt><trkpt lat="43.7461633" lon="11.179865"><ele>52.0</ele><time>2026-05-02T10:45:55.728Z</time></trkpt><trkpt lat="43.7460383" lon="11.1799317"><ele>51.99999999999999</ele><time>2026-05-02T10:46:02.727Z</time></trkpt><trkpt lat="43.7459583" lon="11.1799633"><ele>52.0</ele><time>2026-05-02T10:46:03.728Z</time></trkpt><trkpt lat="43.74586" lon="11.179995"><ele>51.8</ele><time>2026-05-02T10:46:04.726Z</time></trkpt><trkpt lat="43.745755" lon="11.18003"><ele>51.6</ele><time>2026-05-02T10:46:05.728Z</time></trkpt><trkpt lat="43.7456617" lon="11.1800767"><ele>51.4</ele><time>2026-05-02T10:46:06.729Z</time></trkpt><trkpt lat="43.7455833" lon="11.1801333"><ele>51.199999999999996</ele><time>2026-05-02T10:46:07.729Z</time></trkpt><trkpt lat="43.74552" lon="11.1802283"><ele>51.0</ele><time>2026-05-02T10:46:08.729Z</time></trkpt><trkpt lat="43.7454867" lon="11.180345"><ele>51.0</ele><time>2026-05-02T10:46:09.728Z</time></trkpt><trkpt lat="43.74547" lon="11.180465"><ele>51.0</ele><time>2026-05-02T10:46:10.728Z</time></trkpt><trkpt lat="43.7454633" lon="11.1805917"><ele>51.0</ele><time>2026-05-02T10:46:11.727Z</time></trkpt><trkpt lat="43.7454967" lon="11.1807083"><ele>51.0</ele><time>2026-05-02T10:46:12.727Z</time></trkpt><trkpt lat="43.7455133" lon="11.1808233"><ele>51.0</ele><time>2026-05-02T10:46:13.727Z</time></trkpt><trkpt lat="43.74551" lon="11.18095"><ele>51.0</ele><time>2026-05-02T10:46:14.728Z</time></trkpt><trkpt lat="43.745495" lon="11.1810683"><ele>51.5</ele><time>2026-05-02T10:46:15.726Z</time></trkpt><trkpt lat="43.7454417" lon="11.181175"><ele>52.0</ele><time>2026-05-02T10:46:16.73Z</time></trkpt><trkpt lat="43.7453483" lon="11.181265"><ele>52.5</ele><time>2026-05-02T10:46:17.728Z</time></trkpt><trkpt lat="43.7452233" lon="11.1813433"><ele>53.0</ele><time>2026-05-02T10:46:18.726Z</time></trkpt><trkpt lat="43.7450833" lon="11.1814133"><ele>53.333333333333336</ele><time>2026-05-02T10:46:19.728Z</time></trkpt><trkpt lat="43.7449417" lon="11.1814917"><ele>53.66666666666667</ele><time>2026-05-02T10:46:20.726Z</time></trkpt><trkpt lat="43.7448" lon="11.181575"><ele>54.0</ele><time>2026-05-02T10:46:21.726Z</time></trkpt><trkpt lat="43.744655" lon="11.18165"><ele>54.0</ele><time>2026-05-02T10:46:22.728Z</time></trkpt><trkpt lat="43.7445017" lon="11.1817183"><ele>54.0</ele><time>2026-05-02T10:46:23.73Z</time></trkpt><trkpt lat="43.7443533" lon="11.1817767"><ele>54.0</ele><time>2026-05-02T10:46:24.726Z</time></trkpt><trkpt lat="43.744205" lon="11.18182"><ele>54.0</ele><time>2026-05-02T10:46:25.729Z</time></trkpt><trkpt lat="43.7440683" lon="11.18183"><ele>54.0</ele><time>2026-05-02T10:46:26.728Z</time></trkpt><trkpt lat="43.74394" lon="11.1817983"><ele>54.0</ele><time>2026-05-02T10:46:27.729Z</time></trkpt><trkpt lat="43.743825" lon="11.181735"><ele>54.0</ele><time>2026-05-02T10:46:28.728Z</time></trkpt><trkpt lat="43.7437283" lon="11.1816583"><ele>54.0</ele><time>2026-05-02T10:46:29.728Z</time></trkpt><trkpt lat="43.7436533" lon="11.1815617"><ele>54.0</ele><time>2026-05-02T10:46:30.729Z</time></trkpt><trkpt lat="43.7436083" lon="11.181455"><ele>54.0</ele><time>2026-05-02T10:46:31.728Z</time></trkpt><trkpt lat="43.7435683" lon="11.1813567"><ele>54.0</ele><time>2026-05-02T10:46:32.73Z</time></trkpt><trkpt lat="43.74353" lon="11.181285"><ele>54.0</ele><time>2026-05-02T10:46:33.727Z</time></trkpt><trkpt lat="43.7434467" lon="11.1813133"><ele>54.0</ele><time>2026-05-02T10:46:35.728Z</time></trkpt><trkpt lat="43.7434067" lon="11.1813983"><ele>54.0</ele><time>2026-05-02T10:46:36.728Z</time></trkpt><trkpt lat="43.743365" lon="11.181575"><ele>54.0</ele><time>2026-05-02T10:46:37.727Z</time></trkpt><trkpt lat="43.7433167" lon="11.18175"><ele>54.0</ele><time>2026-05-02T10:46:38.726Z</time></trkpt><trkpt lat="43.7432533" lon="11.181935"><ele>54.0</ele><time>2026-05-02T10:46:39.73Z</time></trkpt><trkpt lat="43.7431583" lon="11.1821117"><ele>54.0</ele><time>2026-05-02T10:46:40.729Z</time></trkpt><trkpt lat="43.74304" lon="11.1822783"><ele>54.0</ele><time>2026-05-02T10:46:41.726Z</time></trkpt><trkpt lat="43.7428917" lon="11.1824267"><ele>54.0</ele><time>2026-05-02T10:46:42.728Z</time></trkpt><trkpt lat="43.742745" lon="11.1825767"><ele>54.0</ele><time>2026-05-02T10:46:43.73Z</time></trkpt><trkpt lat="43.7426017" lon="11.182745"><ele>54.0</ele><time>2026-05-02T10:46:44.732Z</time></trkpt><trkpt lat="43.7424683" lon="11.1829433"><ele>54.0</ele><time>2026-05-02T10:46:45.727Z</time></trkpt><trkpt lat="43.74235" lon="11.1831483"><ele>54.0</ele><time>2026-05-02T10:46:46.729Z</time></trkpt><trkpt lat="43.7422217" lon="11.18334"><ele>54.0</ele><time>2026-05-02T10:46:47.729Z</time></trkpt><trkpt lat="43.7420683" lon="11.1835"><ele>54.0</ele><time>2026-05-02T10:46:48.727Z</time></trkpt><trkpt lat="43.7419067" lon="11.1836317"><ele>54.5</ele><time>2026-05-02T10:46:49.729Z</time></trkpt><trkpt lat="43.7417417" lon="11.1837417"><ele>55.0</ele><time>2026-05-02T10:46:50.729Z</time></trkpt><trkpt lat="43.7414667" lon="11.18393"><ele>55.2</ele><time>2026-05-02T10:46:52.728Z</time></trkpt><trkpt lat="43.7413717" lon="11.1840183"><ele>55.4</ele><time>2026-05-02T10:46:53.731Z</time></trkpt><trkpt lat="43.7413017" lon="11.184115"><ele>55.599999999999994</ele><time>2026-05-02T10:46:54.728Z</time></trkpt><trkpt lat="43.74125" lon="11.18424"><ele>55.8</ele><time>2026-05-02T10:46:55.731Z</time></trkpt><trkpt lat="43.7412283" lon="11.1844067"><ele>56.0</ele><time>2026-05-02T10:46:56.728Z</time></trkpt><trkpt lat="43.7412033" lon="11.1845983"><ele>56.0</ele><time>2026-05-02T10:46:57.729Z</time></trkpt><trkpt lat="43.74118" lon="11.1848017"><ele>56.0</ele><time>2026-05-02T10:46:58.726Z</time></trkpt><trkpt lat="43.7411483" lon="11.1850033"><ele>56.0</ele><time>2026-05-02T10:46:59.73Z</time></trkpt><trkpt lat="43.7411067" lon="11.1851933"><ele>56.0</ele><time>2026-05-02T10:47:00.727Z</time></trkpt><trkpt lat="43.7410567" lon="11.1853683"><ele>57.0</ele><time>2026-05-02T10:47:01.729Z</time></trkpt><trkpt lat="43.74099" lon="11.1855333"><ele>58.0</ele><time>2026-05-02T10:47:02.728Z</time></trkpt><trkpt lat="43.7409017" lon="11.1856917"><ele>59.0</ele><time>2026-05-02T10:47:03.729Z</time></trkpt><trkpt lat="43.7408083" lon="11.185845"><ele>60.0</ele><time>2026-05-02T10:47:04.727Z</time></trkpt><trkpt lat="43.74072" lon="11.186005"><ele>62.33333333333333</ele><time>2026-05-02T10:47:05.728Z</time></trkpt><trkpt lat="43.7406283" lon="11.1861783"><ele>64.66666666666666</ele><time>2026-05-02T10:47:06.73Z</time></trkpt><trkpt lat="43.7405467" lon="11.1863683"><ele>67.0</ele><time>2026-05-02T10:47:07.729Z</time></trkpt><trkpt lat="43.7404667" lon="11.1865667"><ele>68.33333333333333</ele><time>2026-05-02T10:47:08.727Z</time></trkpt><trkpt lat="43.7403883" lon="11.18676"><ele>69.66666666666667</ele><time>2026-05-02T10:47:09.727Z</time></trkpt><trkpt lat="43.7403167" lon="11.1869383"><ele>71.0</ele><time>2026-05-02T10:47:10.729Z</time></trkpt><trkpt lat="43.740245" lon="11.1871167"><ele>73.0</ele><time>2026-05-02T10:47:11.729Z</time></trkpt><trkpt lat="43.740175" lon="11.1872867"><ele>75.0</ele><time>2026-05-02T10:47:12.726Z</time></trkpt><trkpt lat="43.740105" lon="11.18745"><ele>77.0</ele><time>2026-05-02T10:47:13.728Z</time></trkpt><trkpt lat="43.7400333" lon="11.1876067"><ele>79.0</ele><time>2026-05-02T10:47:14.727Z</time></trkpt><trkpt lat="43.7399767" lon="11.1877567"><ele>79.5</ele><time>2026-05-02T10:47:15.729Z</time></trkpt><trkpt lat="43.7399217" lon="11.1879033"><ele>80.0</ele><time>2026-05-02T10:47:16.728Z</time></trkpt><trkpt lat="43.7398617" lon="11.1880417"><ele>80.5</ele><time>2026-05-02T10:47:17.728Z</time></trkpt><trkpt lat="43.7398" lon="11.1881717"><ele>81.0</ele><time>2026-05-02T10:47:18.729Z</time></trkpt><trkpt lat="43.7397417" lon="11.1883017"><ele>81.0</ele><time>2026-05-02T10:47:19.728Z</time></trkpt><trkpt lat="43.7396817" lon="11.1884283"><ele>81.0</ele><time>2026-05-02T10:47:20.728Z</time></trkpt><trkpt lat="43.73962" lon="11.1885567"><ele>81.0</ele><time>2026-05-02T10:47:21.728Z</time></trkpt><trkpt lat="43.7395583" lon="11.1886867"><ele>81.0</ele><time>2026-05-02T10:47:22.73Z</time></trkpt><trkpt lat="43.7394967" lon="11.1888167"><ele>81.0</ele><time>2026-05-02T10:47:23.73Z</time></trkpt><trkpt lat="43.7394333" lon="11.1889467"><ele>83.25</ele><time>2026-05-02T10:47:24.727Z</time></trkpt><trkpt lat="43.7393683" lon="11.1890817"><ele>85.5</ele><time>2026-05-02T10:47:25.728Z</time></trkpt><trkpt lat="43.7392983" lon="11.189225"><ele>87.75</ele><time>2026-05-02T10:47:26.73Z</time></trkpt><trkpt lat="43.7392183" lon="11.18938"><ele>90.0</ele><time>2026-05-02T10:47:27.728Z</time></trkpt><trkpt lat="43.7391233" lon="11.189555"><ele>90.0</ele><time>2026-05-02T10:47:28.73Z</time></trkpt><trkpt lat="43.73902" lon="11.1897433"><ele>90.0</ele><time>2026-05-02T10:47:29.726Z</time></trkpt><trkpt lat="43.738915" lon="11.189935"><ele>90.0</ele><time>2026-05-02T10:47:30.727Z</time></trkpt><trkpt lat="43.738805" lon="11.19013"><ele>91.33333333333333</ele><time>2026-05-02T10:47:31.728Z</time></trkpt><trkpt lat="43.73869" lon="11.1903233"><ele>92.66666666666666</ele><time>2026-05-02T10:47:32.728Z</time></trkpt><trkpt lat="43.7385717" lon="11.1905183"><ele>94.0</ele><time>2026-05-02T10:47:33.728Z</time></trkpt><trkpt lat="43.7384517" lon="11.1907183"><ele>96.33333333333333</ele><time>2026-05-02T10:47:34.727Z</time></trkpt><trkpt lat="43.7383233" lon="11.190915"><ele>98.66666666666666</ele><time>2026-05-02T10:47:35.728Z</time></trkpt><trkpt lat="43.7381883" lon="11.1911017"><ele>101.0</ele><time>2026-05-02T10:47:36.729Z</time></trkpt><trkpt lat="43.7380417" lon="11.1912633"><ele>101.0</ele><time>2026-05-02T10:47:37.729Z</time></trkpt><trkpt lat="43.7378783" lon="11.1914033"><ele>101.0</ele><time>2026-05-02T10:47:38.728Z</time></trkpt><trkpt lat="43.7377067" lon="11.1915317"><ele>101.0</ele><time>2026-05-02T10:47:39.729Z</time></trkpt><trkpt lat="43.73753" lon="11.1916533"><ele>102.66666666666666</ele><time>2026-05-02T10:47:40.727Z</time></trkpt><trkpt lat="43.7373533" lon="11.19177"><ele>104.33333333333334</ele><time>2026-05-02T10:47:41.728Z</time></trkpt><trkpt lat="43.7371767" lon="11.1918833"><ele>106.0</ele><time>2026-05-02T10:47:42.728Z</time></trkpt><trkpt lat="43.7369983" lon="11.1920067"><ele>107.33333333333334</ele><time>2026-05-02T10:47:43.728Z</time></trkpt><trkpt lat="43.7368133" lon="11.19212"><ele>108.66666666666666</ele><time>2026-05-02T10:47:44.731Z</time></trkpt><trkpt lat="43.7366333" lon="11.1922333"><ele>110.0</ele><time>2026-05-02T10:47:45.728Z</time></trkpt><trkpt lat="43.736455" lon="11.1923433"><ele>111.33333333333333</ele><time>2026-05-02T10:47:46.729Z</time></trkpt><trkpt lat="43.736285" lon="11.1924417"><ele>112.66666666666666</ele><time>2026-05-02T10:47:47.727Z</time></trkpt><trkpt lat="43.7361317" lon="11.1925233"><ele>114.0</ele><time>2026-05-02T10:47:48.729Z</time></trkpt><trkpt lat="43.7359933" lon="11.1926017"><ele>115.25</ele><time>2026-05-02T10:47:49.729Z</time></trkpt><trkpt lat="43.73588" lon="11.1926833"><ele>116.5</ele><time>2026-05-02T10:47:50.727Z</time></trkpt><trkpt lat="43.73579" lon="11.192795"><ele>117.75</ele><time>2026-05-02T10:47:51.727Z</time></trkpt><trkpt lat="43.73572" lon="11.1929383"><ele>119.0</ele><time>2026-05-02T10:47:52.727Z</time></trkpt><trkpt lat="43.735655" lon="11.1930917"><ele>119.0</ele><time>2026-05-02T10:47:53.73Z</time></trkpt><trkpt lat="43.73558" lon="11.1932417"><ele>119.0</ele><time>2026-05-02T10:47:54.727Z</time></trkpt><trkpt lat="43.7354817" lon="11.1933567"><ele>119.0</ele><time>2026-05-02T10:47:55.728Z</time></trkpt><trkpt lat="43.7353617" lon="11.1934383"><ele>119.0</ele><time>2026-05-02T10:47:56.729Z</time></trkpt><trkpt lat="43.73522" lon="11.1934983"><ele>120.0</ele><time>2026-05-02T10:47:57.729Z</time></trkpt><trkpt lat="43.7350667" lon="11.1935567"><ele>121.0</ele><time>2026-05-02T10:47:58.728Z</time></trkpt><trkpt lat="43.734905" lon="11.19362"><ele>122.0</ele><time>2026-05-02T10:47:59.729Z</time></trkpt><trkpt lat="43.7347333" lon="11.193685"><ele>122.0</ele><time>2026-05-02T10:48:00.729Z</time></trkpt><trkpt lat="43.73456" lon="11.19374"><ele>122.0</ele><time>2026-05-02T10:48:01.729Z</time></trkpt><trkpt lat="43.7343867" lon="11.1938"><ele>122.0</ele><time>2026-05-02T10:48:02.728Z</time></trkpt><trkpt lat="43.7342033" lon="11.1938733"><ele>121.66666666666666</ele><time>2026-05-02T10:48:03.729Z</time></trkpt><trkpt lat="43.7340217" lon="11.19396"><ele>121.33333333333334</ele><time>2026-05-02T10:48:04.728Z</time></trkpt><trkpt lat="43.7338483" lon="11.1940783"><ele>121.0</ele><time>2026-05-02T10:48:05.729Z</time></trkpt><trkpt lat="43.7336833" lon="11.1942167"><ele>123.66666666666667</ele><time>2026-05-02T10:48:06.727Z</time></trkpt><trkpt lat="43.7335267" lon="11.1943617"><ele>126.33333333333334</ele><time>2026-05-02T10:48:07.728Z</time></trkpt><trkpt lat="43.73338" lon="11.194495"><ele>129.0</ele><time>2026-05-02T10:48:08.729Z</time></trkpt><trkpt lat="43.7332383" lon="11.1946167"><ele>129.0</ele><time>2026-05-02T10:48:09.729Z</time></trkpt><trkpt lat="43.733105" lon="11.1947383"><ele>129.0</ele><time>2026-05-02T10:48:10.728Z</time></trkpt><trkpt lat="43.732985" lon="11.19486"><ele>129.0</ele><time>2026-05-02T10:48:11.729Z</time></trkpt><trkpt lat="43.73288" lon="11.1949983"><ele>126.75</ele><time>2026-05-02T10:48:12.728Z</time></trkpt><trkpt lat="43.732805" lon="11.1951583"><ele>124.5</ele><time>2026-05-02T10:48:13.728Z</time></trkpt><trkpt lat="43.7327683" lon="11.1953367"><ele>122.25</ele><time>2026-05-02T10:48:14.728Z</time></trkpt><trkpt lat="43.7327633" lon="11.1955417"><ele>120.0</ele><time>2026-05-02T10:48:15.729Z</time></trkpt><trkpt lat="43.7327833" lon="11.1957567"><ele>119.66666666666666</ele><time>2026-05-02T10:48:16.729Z</time></trkpt><trkpt lat="43.7328283" lon="11.1959917"><ele>119.33333333333333</ele><time>2026-05-02T10:48:17.728Z</time></trkpt><trkpt lat="43.7328767" lon="11.1962283"><ele>119.0</ele><time>2026-05-02T10:48:18.728Z</time></trkpt><trkpt lat="43.73292" lon="11.1964583"><ele>120.0</ele><time>2026-05-02T10:48:19.728Z</time></trkpt><trkpt lat="43.7329533" lon="11.196675"><ele>121.0</ele><time>2026-05-02T10:48:20.728Z</time></trkpt><trkpt lat="43.7329417" lon="11.1970567"><ele>122.0</ele><time>2026-05-02T10:48:22.729Z</time></trkpt><trkpt lat="43.7328767" lon="11.1972167"><ele>123.33333333333333</ele><time>2026-05-02T10:48:23.728Z</time></trkpt><trkpt lat="43.7327817" lon="11.1973617"><ele>124.66666666666666</ele><time>2026-05-02T10:48:24.727Z</time></trkpt><trkpt lat="43.7326583" lon="11.197505"><ele>126.0</ele><time>2026-05-02T10:48:25.728Z</time></trkpt><trkpt lat="43.73253" lon="11.19766"><ele>127.33333333333334</ele><time>2026-05-02T10:48:26.73Z</time></trkpt><trkpt lat="43.7324083" lon="11.197845"><ele>128.66666666666669</ele><time>2026-05-02T10:48:27.729Z</time></trkpt><trkpt lat="43.7322983" lon="11.1980633"><ele>130.0</ele><time>2026-05-02T10:48:28.727Z</time></trkpt><trkpt lat="43.7322017" lon="11.1983117"><ele>131.0</ele><time>2026-05-02T10:48:29.728Z</time></trkpt><trkpt lat="43.732115" lon="11.1985633"><ele>132.0</ele><time>2026-05-02T10:48:30.728Z</time></trkpt><trkpt lat="43.73204" lon="11.198795"><ele>133.0</ele><time>2026-05-02T10:48:31.728Z</time></trkpt><trkpt lat="43.732" lon="11.1990267"><ele>134.0</ele><time>2026-05-02T10:48:32.728Z</time></trkpt><trkpt lat="43.7319967" lon="11.1992667"><ele>135.0</ele><time>2026-05-02T10:48:33.728Z</time></trkpt><trkpt lat="43.7320217" lon="11.1995217"><ele>136.0</ele><time>2026-05-02T10:48:34.73Z</time></trkpt><trkpt lat="43.73207" lon="11.1997767"><ele>139.0</ele><time>2026-05-02T10:48:35.727Z</time></trkpt><trkpt lat="43.732125" lon="11.2000483"><ele>142.0</ele><time>2026-05-02T10:48:36.729Z</time></trkpt><trkpt lat="43.73218" lon="11.200325"><ele>145.0</ele><time>2026-05-02T10:48:37.73Z</time></trkpt><trkpt lat="43.73223" lon="11.20059"><ele>148.0</ele><time>2026-05-02T10:48:38.727Z</time></trkpt><trkpt lat="43.7322767" lon="11.2008217"><ele>151.0</ele><time>2026-05-02T10:48:39.728Z</time></trkpt><trkpt lat="43.732315" lon="11.2010317"><ele>154.0</ele><time>2026-05-02T10:48:40.729Z</time></trkpt><trkpt lat="43.7323467" lon="11.2012117"><ele>154.0</ele><time>2026-05-02T10:48:41.729Z</time></trkpt><trkpt lat="43.7323733" lon="11.2013783"><ele>154.0</ele><time>2026-05-02T10:48:42.729Z</time></trkpt><trkpt lat="43.7323967" lon="11.2015467"><ele>154.0</ele><time>2026-05-02T10:48:43.73Z</time></trkpt><trkpt lat="43.7324067" lon="11.20171"><ele>154.0</ele><time>2026-05-02T10:48:44.73Z</time></trkpt><trkpt lat="43.73239" lon="11.2018767"><ele>155.33333333333334</ele><time>2026-05-02T10:48:45.728Z</time></trkpt><trkpt lat="43.732365" lon="11.2020617"><ele>156.66666666666666</ele><time>2026-05-02T10:48:46.73Z</time></trkpt><trkpt lat="43.73233" lon="11.2022767"><ele>158.0</ele><time>2026-05-02T10:48:47.73Z</time></trkpt><trkpt lat="43.7322833" lon="11.2025333"><ele>159.0</ele><time>2026-05-02T10:48:48.73Z</time></trkpt><trkpt lat="43.7322333" lon="11.202805"><ele>160.0</ele><time>2026-05-02T10:48:49.729Z</time></trkpt><trkpt lat="43.732175" lon="11.2030517"><ele>161.0</ele><time>2026-05-02T10:48:50.729Z</time></trkpt><trkpt lat="43.73212" lon="11.2032617"><ele>162.0</ele><time>2026-05-02T10:48:51.729Z</time></trkpt><trkpt lat="43.7320733" lon="11.2034283"><ele>163.0</ele><time>2026-05-02T10:48:52.729Z</time></trkpt><trkpt lat="43.73201" lon="11.2035367"><ele>164.0</ele><time>2026-05-02T10:48:53.726Z</time></trkpt><trkpt lat="43.73192" lon="11.2035967"><ele>165.0</ele><time>2026-05-02T10:48:54.728Z</time></trkpt><trkpt lat="43.7317983" lon="11.2036217"><ele>162.33333333333334</ele><time>2026-05-02T10:48:55.729Z</time></trkpt><trkpt lat="43.7316417" lon="11.2036317"><ele>159.66666666666669</ele><time>2026-05-02T10:48:56.73Z</time></trkpt><trkpt lat="43.7314417" lon="11.20365"><ele>157.0</ele><time>2026-05-02T10:48:57.727Z</time></trkpt><trkpt lat="43.731215" lon="11.203685"><ele>158.0</ele><time>2026-05-02T10:48:58.727Z</time></trkpt><trkpt lat="43.7309933" lon="11.203695"><ele>159.0</ele><time>2026-05-02T10:48:59.726Z</time></trkpt><trkpt lat="43.7307833" lon="11.203695"><ele>160.0</ele><time>2026-05-02T10:49:00.726Z</time></trkpt><trkpt lat="43.7305883" lon="11.2036983"><ele>160.0</ele><time>2026-05-02T10:49:01.727Z</time></trkpt><trkpt lat="43.7304" lon="11.20371"><ele>160.0</ele><time>2026-05-02T10:49:02.727Z</time></trkpt><trkpt lat="43.7302167" lon="11.2037517"><ele>160.0</ele><time>2026-05-02T10:49:03.727Z</time></trkpt><trkpt lat="43.7300467" lon="11.20384"><ele>160.5</ele><time>2026-05-02T10:49:04.726Z</time></trkpt><trkpt lat="43.729905" lon="11.2039433"><ele>161.0</ele><time>2026-05-02T10:49:05.727Z</time></trkpt><trkpt lat="43.72978" lon="11.204015"><ele>161.5</ele><time>2026-05-02T10:49:06.726Z</time></trkpt><trkpt lat="43.7296867" lon="11.2040517"><ele>162.0</ele><time>2026-05-02T10:49:07.727Z</time></trkpt><trkpt lat="43.7295933" lon="11.204085"><ele>162.0</ele><time>2026-05-02T10:49:09.725Z</time></trkpt><trkpt lat="43.7295067" lon="11.204045"><ele>162.0</ele><time>2026-05-02T10:49:12.732Z</time></trkpt><trkpt lat="43.7294533" lon="11.2039683"><ele>162.0</ele><time>2026-05-02T10:49:13.726Z</time></trkpt><trkpt lat="43.7293717" lon="11.2038533"><ele>162.0</ele><time>2026-05-02T10:49:14.727Z</time></trkpt><trkpt lat="43.7292733" lon="11.2036833"><ele>162.0</ele><time>2026-05-02T10:49:15.727Z</time></trkpt><trkpt lat="43.729155" lon="11.203505"><ele>160.66666666666666</ele><time>2026-05-02T10:49:16.727Z</time></trkpt><trkpt lat="43.7290283" lon="11.20332"><ele>159.33333333333331</ele><time>2026-05-02T10:49:17.726Z</time></trkpt><trkpt lat="43.7288867" lon="11.2031317"><ele>158.0</ele><time>2026-05-02T10:49:18.728Z</time></trkpt><trkpt lat="43.7287183" lon="11.20296"><ele>159.33333333333331</ele><time>2026-05-02T10:49:19.727Z</time></trkpt><trkpt lat="43.728545" lon="11.2027933"><ele>160.66666666666666</ele><time>2026-05-02T10:49:20.728Z</time></trkpt><trkpt lat="43.7283733" lon="11.2026233"><ele>162.0</ele><time>2026-05-02T10:49:21.728Z</time></trkpt><trkpt lat="43.7282067" lon="11.2024533"><ele>161.33333333333334</ele><time>2026-05-02T10:49:22.727Z</time></trkpt><trkpt lat="43.728045" lon="11.20228"><ele>160.66666666666669</ele><time>2026-05-02T10:49:23.727Z</time></trkpt><trkpt lat="43.72789" lon="11.2020983"><ele>160.0</ele><time>2026-05-02T10:49:24.727Z</time></trkpt><trkpt lat="43.7277383" lon="11.201915"><ele>162.0</ele><time>2026-05-02T10:49:25.728Z</time></trkpt><trkpt lat="43.7275833" lon="11.2017183"><ele>164.0</ele><time>2026-05-02T10:49:26.725Z</time></trkpt><trkpt lat="43.727425" lon="11.2015217"><ele>166.0</ele><time>2026-05-02T10:49:27.725Z</time></trkpt><trkpt lat="43.7272683" lon="11.2013283"><ele>168.33333333333334</ele><time>2026-05-02T10:49:28.726Z</time></trkpt><trkpt lat="43.72711" lon="11.2011417"><ele>170.66666666666666</ele><time>2026-05-02T10:49:29.726Z</time></trkpt><trkpt lat="43.726945" lon="11.2009767"><ele>173.0</ele><time>2026-05-02T10:49:30.725Z</time></trkpt><trkpt lat="43.7267817" lon="11.2008333"><ele>173.0</ele><time>2026-05-02T10:49:31.724Z</time></trkpt><trkpt lat="43.7266133" lon="11.200705"><ele>173.0</ele><time>2026-05-02T10:49:32.726Z</time></trkpt><trkpt lat="43.726435" lon="11.2005967"><ele>173.0</ele><time>2026-05-02T10:49:33.726Z</time></trkpt><trkpt lat="43.7262517" lon="11.2004967"><ele>174.66666666666666</ele><time>2026-05-02T10:49:34.726Z</time></trkpt><trkpt lat="43.726075" lon="11.2003833"><ele>176.33333333333334</ele><time>2026-05-02T10:49:35.726Z</time></trkpt><trkpt lat="43.7258967" lon="11.200235"><ele>178.0</ele><time>2026-05-02T10:49:36.725Z</time></trkpt><trkpt lat="43.7257233" lon="11.20006"><ele>178.0</ele><time>2026-05-02T10:49:37.726Z</time></trkpt><trkpt lat="43.7255433" lon="11.19987"><ele>178.0</ele><time>2026-05-02T10:49:38.726Z</time></trkpt><trkpt lat="43.72536" lon="11.1996767"><ele>178.0</ele><time>2026-05-02T10:49:39.726Z</time></trkpt><trkpt lat="43.72517" lon="11.1994717"><ele>178.0</ele><time>2026-05-02T10:49:40.728Z</time></trkpt><trkpt lat="43.724985" lon="11.199275"><ele>178.0</ele><time>2026-05-02T10:49:41.727Z</time></trkpt><trkpt lat="43.72482" lon="11.1990817"><ele>178.0</ele><time>2026-05-02T10:49:42.728Z</time></trkpt><trkpt lat="43.7246733" lon="11.1989067"><ele>178.0</ele><time>2026-05-02T10:49:43.733Z</time></trkpt><trkpt lat="43.7245217" lon="11.1987817"><ele>179.66666666666669</ele><time>2026-05-02T10:49:44.728Z</time></trkpt><trkpt lat="43.7243567" lon="11.1987217"><ele>181.33333333333334</ele><time>2026-05-02T10:49:45.728Z</time></trkpt><trkpt lat="43.724185" lon="11.1987133"><ele>183.0</ele><time>2026-05-02T10:49:46.726Z</time></trkpt><trkpt lat="43.7240217" lon="11.1987317"><ele>183.0</ele><time>2026-05-02T10:49:47.727Z</time></trkpt><trkpt lat="43.7238733" lon="11.1987633"><ele>183.0</ele><time>2026-05-02T10:49:48.726Z</time></trkpt><trkpt lat="43.7237267" lon="11.1988017"><ele>183.0</ele><time>2026-05-02T10:49:49.726Z</time></trkpt><trkpt lat="43.723575" lon="11.198885"><ele>180.66666666666666</ele><time>2026-05-02T10:49:50.727Z</time></trkpt><trkpt lat="43.72338" lon="11.1989817"><ele>178.33333333333331</ele><time>2026-05-02T10:49:51.728Z</time></trkpt><trkpt lat="43.72317" lon="11.1990867"><ele>176.0</ele><time>2026-05-02T10:49:52.728Z</time></trkpt><trkpt lat="43.722955" lon="11.1991833"><ele>176.0</ele><time>2026-05-02T10:49:53.727Z</time></trkpt><trkpt lat="43.7227467" lon="11.1992683"><ele>176.0</ele><time>2026-05-02T10:49:54.729Z</time></trkpt><trkpt lat="43.7225333" lon="11.1993083"><ele>176.0</ele><time>2026-05-02T10:49:55.727Z</time></trkpt><trkpt lat="43.722315" lon="11.1993133"><ele>174.66666666666666</ele><time>2026-05-02T10:49:56.728Z</time></trkpt><trkpt lat="43.7221" lon="11.1993017"><ele>173.33333333333334</ele><time>2026-05-02T10:49:57.726Z</time></trkpt><trkpt lat="43.7218967" lon="11.19928"><ele>172.0</ele><time>2026-05-02T10:49:58.727Z</time></trkpt><trkpt lat="43.7217117" lon="11.1992267"><ele>172.0</ele><time>2026-05-02T10:49:59.727Z</time></trkpt><trkpt lat="43.7215467" lon="11.199125"><ele>172.0</ele><time>2026-05-02T10:50:00.727Z</time></trkpt><trkpt lat="43.7214083" lon="11.1989767"><ele>172.0</ele><time>2026-05-02T10:50:01.727Z</time></trkpt><trkpt lat="43.7213" lon="11.1987783"><ele>172.33333333333334</ele><time>2026-05-02T10:50:02.727Z</time></trkpt><trkpt lat="43.72122" lon="11.1985333"><ele>172.66666666666666</ele><time>2026-05-02T10:50:03.726Z</time></trkpt><trkpt lat="43.7211533" lon="11.1982533"><ele>173.0</ele><time>2026-05-02T10:50:04.729Z</time></trkpt><trkpt lat="43.72109" lon="11.19795"><ele>175.5</ele><time>2026-05-02T10:50:05.726Z</time></trkpt><trkpt lat="43.7210167" lon="11.1976217"><ele>178.0</ele><time>2026-05-02T10:50:06.727Z</time></trkpt><trkpt lat="43.7209383" lon="11.197265"><ele>178.0</ele><time>2026-05-02T10:50:07.726Z</time></trkpt><trkpt lat="43.72086" lon="11.196885"><ele>178.0</ele><time>2026-05-02T10:50:08.728Z</time></trkpt><trkpt lat="43.720775" lon="11.19651"><ele>176.5</ele><time>2026-05-02T10:50:09.727Z</time></trkpt><trkpt lat="43.720695" lon="11.1961567"><ele>175.0</ele><time>2026-05-02T10:50:10.729Z</time></trkpt><trkpt lat="43.72062" lon="11.1958283"><ele>174.33333333333334</ele><time>2026-05-02T10:50:11.727Z</time></trkpt><trkpt lat="43.7205583" lon="11.1955217"><ele>173.66666666666666</ele><time>2026-05-02T10:50:12.726Z</time></trkpt><trkpt lat="43.7205067" lon="11.19523"><ele>173.0</ele><time>2026-05-02T10:50:13.727Z</time></trkpt><trkpt lat="43.7204767" lon="11.1949517"><ele>174.66666666666666</ele><time>2026-05-02T10:50:14.727Z</time></trkpt><trkpt lat="43.72048" lon="11.1946667"><ele>176.33333333333334</ele><time>2026-05-02T10:50:15.728Z</time></trkpt><trkpt lat="43.7205133" lon="11.19439"><ele>178.0</ele><time>2026-05-02T10:50:16.727Z</time></trkpt><trkpt lat="43.720575" lon="11.1941283"><ele>180.0</ele><time>2026-05-02T10:50:17.728Z</time></trkpt><trkpt lat="43.7206533" lon="11.1938833"><ele>182.0</ele><time>2026-05-02T10:50:18.729Z</time></trkpt><trkpt lat="43.7207133" lon="11.193655"><ele>184.0</ele><time>2026-05-02T10:50:19.727Z</time></trkpt><trkpt lat="43.720755" lon="11.1934383"><ele>184.0</ele><time>2026-05-02T10:50:20.729Z</time></trkpt><trkpt lat="43.72077" lon="11.1932433"><ele>184.0</ele><time>2026-05-02T10:50:21.729Z</time></trkpt><trkpt lat="43.7207433" lon="11.1930667"><ele>184.0</ele><time>2026-05-02T10:50:22.727Z</time></trkpt><trkpt lat="43.7206817" lon="11.1929117"><ele>184.0</ele><time>2026-05-02T10:50:23.728Z</time></trkpt><trkpt lat="43.7206017" lon="11.1927867"><ele>184.0</ele><time>2026-05-02T10:50:24.727Z</time></trkpt><trkpt lat="43.720495" lon="11.192715"><ele>184.0</ele><time>2026-05-02T10:50:25.729Z</time></trkpt><trkpt lat="43.7203767" lon="11.1927133"><ele>184.0</ele><time>2026-05-02T10:50:26.727Z</time></trkpt><trkpt lat="43.7202417" lon="11.1927683"><ele>184.0</ele><time>2026-05-02T10:50:27.728Z</time></trkpt><trkpt lat="43.7201" lon="11.1928783"><ele>185.66666666666669</ele><time>2026-05-02T10:50:28.728Z</time></trkpt><trkpt lat="43.7199333" lon="11.1930333"><ele>187.33333333333334</ele><time>2026-05-02T10:50:29.729Z</time></trkpt><trkpt lat="43.7197417" lon="11.19321"><ele>189.0</ele><time>2026-05-02T10:50:30.728Z</time></trkpt><trkpt lat="43.719535" lon="11.193375"><ele>184.5</ele><time>2026-05-02T10:50:31.728Z</time></trkpt><trkpt lat="43.7193317" lon="11.1935467"><ele>180.0</ele><time>2026-05-02T10:50:32.728Z</time></trkpt><trkpt lat="43.719135" lon="11.1937067"><ele>180.0</ele><time>2026-05-02T10:50:33.729Z</time></trkpt><trkpt lat="43.7189633" lon="11.1938417"><ele>180.0</ele><time>2026-05-02T10:50:34.727Z</time></trkpt><trkpt lat="43.7188183" lon="11.1939617"><ele>180.0</ele><time>2026-05-02T10:50:35.727Z</time></trkpt><trkpt lat="43.7186817" lon="11.19407"><ele>180.33333333333334</ele><time>2026-05-02T10:50:36.728Z</time></trkpt><trkpt lat="43.7185433" lon="11.1941417"><ele>180.66666666666669</ele><time>2026-05-02T10:50:37.728Z</time></trkpt><trkpt lat="43.7184" lon="11.1941433"><ele>181.0</ele><time>2026-05-02T10:50:38.727Z</time></trkpt><trkpt lat="43.7182383" lon="11.1940783"><ele>182.0</ele><time>2026-05-02T10:50:39.727Z</time></trkpt><trkpt lat="43.7180517" lon="11.1939617"><ele>183.0</ele><time>2026-05-02T10:50:40.727Z</time></trkpt><trkpt lat="43.7178283" lon="11.19382"><ele>181.5</ele><time>2026-05-02T10:50:41.726Z</time></trkpt><trkpt lat="43.7175933" lon="11.1936567"><ele>180.0</ele><time>2026-05-02T10:50:42.727Z</time></trkpt><trkpt lat="43.7173683" lon="11.193475"><ele>180.0</ele><time>2026-05-02T10:50:43.727Z</time></trkpt><trkpt lat="43.7171617" lon="11.1932783"><ele>180.0</ele><time>2026-05-02T10:50:44.727Z</time></trkpt><trkpt lat="43.71697" lon="11.1930717"><ele>178.0</ele><time>2026-05-02T10:50:45.727Z</time></trkpt><trkpt lat="43.716795" lon="11.1928483"><ele>176.0</ele><time>2026-05-02T10:50:46.729Z</time></trkpt><trkpt lat="43.7166367" lon="11.1926167"><ele>176.0</ele><time>2026-05-02T10:50:47.727Z</time></trkpt><trkpt lat="43.7164983" lon="11.19239"><ele>176.0</ele><time>2026-05-02T10:50:48.727Z</time></trkpt><trkpt lat="43.716375" lon="11.1921833"><ele>176.0</ele><time>2026-05-02T10:50:49.727Z</time></trkpt><trkpt lat="43.7162783" lon="11.19199"><ele>177.0</ele><time>2026-05-02T10:50:50.728Z</time></trkpt><trkpt lat="43.7162133" lon="11.1917933"><ele>178.0</ele><time>2026-05-02T10:50:51.728Z</time></trkpt><trkpt lat="43.7161967" lon="11.1915833"><ele>179.0</ele><time>2026-05-02T10:50:52.728Z</time></trkpt><trkpt lat="43.71623" lon="11.1913533"><ele>179.0</ele><time>2026-05-02T10:50:53.73Z</time></trkpt><trkpt lat="43.7163067" lon="11.191115"><ele>179.0</ele><time>2026-05-02T10:50:54.729Z</time></trkpt><trkpt lat="43.716385" lon="11.1908567"><ele>179.0</ele><time>2026-05-02T10:50:55.727Z</time></trkpt><trkpt lat="43.7164467" lon="11.1905817"><ele>179.0</ele><time>2026-05-02T10:50:56.728Z</time></trkpt><trkpt lat="43.7164733" lon="11.1903033"><ele>179.0</ele><time>2026-05-02T10:50:57.728Z</time></trkpt><trkpt lat="43.7164733" lon="11.19003"><ele>179.0</ele><time>2026-05-02T10:50:58.727Z</time></trkpt><trkpt lat="43.71646" lon="11.1897683"><ele>179.0</ele><time>2026-05-02T10:50:59.727Z</time></trkpt><trkpt lat="43.7164267" lon="11.1895417"><ele>179.0</ele><time>2026-05-02T10:51:00.727Z</time></trkpt><trkpt lat="43.71635" lon="11.1893333"><ele>179.0</ele><time>2026-05-02T10:51:01.729Z</time></trkpt><trkpt lat="43.716225" lon="11.18916"><ele>175.33333333333331</ele><time>2026-05-02T10:51:02.728Z</time></trkpt><trkpt lat="43.7160833" lon="11.1889817"><ele>171.66666666666666</ele><time>2026-05-02T10:51:03.729Z</time></trkpt><trkpt lat="43.7159433" lon="11.1887667"><ele>168.0</ele><time>2026-05-02T10:51:04.728Z</time></trkpt><trkpt lat="43.7157933" lon="11.188535"><ele>174.0</ele><time>2026-05-02T10:51:05.728Z</time></trkpt><trkpt lat="43.715615" lon="11.18832"><ele>180.0</ele><time>2026-05-02T10:51:06.729Z</time></trkpt><trkpt lat="43.7154017" lon="11.1881217"><ele>187.0</ele><time>2026-05-02T10:51:07.728Z</time></trkpt><trkpt lat="43.715175" lon="11.18793"><ele>194.0</ele><time>2026-05-02T10:51:08.727Z</time></trkpt><trkpt lat="43.7149667" lon="11.18776"><ele>194.0</ele><time>2026-05-02T10:51:09.727Z</time></trkpt><trkpt lat="43.7147717" lon="11.1875967"><ele>194.0</ele><time>2026-05-02T10:51:10.728Z</time></trkpt><trkpt lat="43.7145967" lon="11.1874483"><ele>194.0</ele><time>2026-05-02T10:51:11.727Z</time></trkpt><trkpt lat="43.714425" lon="11.18733"><ele>195.33333333333334</ele><time>2026-05-02T10:51:12.726Z</time></trkpt><trkpt lat="43.7142367" lon="11.1872683"><ele>196.66666666666669</ele><time>2026-05-02T10:51:13.727Z</time></trkpt><trkpt lat="43.7140267" lon="11.1872617"><ele>198.0</ele><time>2026-05-02T10:51:14.727Z</time></trkpt><trkpt lat="43.7138017" lon="11.1872983"><ele>201.66666666666669</ele><time>2026-05-02T10:51:15.728Z</time></trkpt><trkpt lat="43.713575" lon="11.187345"><ele>205.33333333333334</ele><time>2026-05-02T10:51:16.726Z</time></trkpt><trkpt lat="43.7133683" lon="11.1874067"><ele>209.0</ele><time>2026-05-02T10:51:17.727Z</time></trkpt><trkpt lat="43.7131817" lon="11.1874783"><ele>210.33333333333334</ele><time>2026-05-02T10:51:18.727Z</time></trkpt><trkpt lat="43.713015" lon="11.1875833"><ele>211.66666666666669</ele><time>2026-05-02T10:51:19.727Z</time></trkpt><trkpt lat="43.7128617" lon="11.187725"><ele>213.0</ele><time>2026-05-02T10:51:20.728Z</time></trkpt><trkpt lat="43.7127283" lon="11.1879133"><ele>213.33333333333331</ele><time>2026-05-02T10:51:21.727Z</time></trkpt><trkpt lat="43.7126467" lon="11.1881583"><ele>213.66666666666666</ele><time>2026-05-02T10:51:22.727Z</time></trkpt><trkpt lat="43.7125883" lon="11.18842"><ele>214.0</ele><time>2026-05-02T10:51:23.727Z</time></trkpt><trkpt lat="43.7125283" lon="11.1886583"><ele>214.0</ele><time>2026-05-02T10:51:24.73Z</time></trkpt><trkpt lat="43.7124367" lon="11.188855"><ele>214.0</ele><time>2026-05-02T10:51:25.729Z</time></trkpt><trkpt lat="43.712325" lon="11.189005"><ele>214.0</ele><time>2026-05-02T10:51:26.728Z</time></trkpt><trkpt lat="43.7121867" lon="11.1891067"><ele>214.66666666666666</ele><time>2026-05-02T10:51:27.729Z</time></trkpt><trkpt lat="43.712015" lon="11.1891517"><ele>215.33333333333331</ele><time>2026-05-02T10:51:28.729Z</time></trkpt><trkpt lat="43.71183" lon="11.1891667"><ele>216.0</ele><time>2026-05-02T10:51:29.728Z</time></trkpt><trkpt lat="43.7116417" lon="11.1891767"><ele>216.0</ele><time>2026-05-02T10:51:30.729Z</time></trkpt><trkpt lat="43.7114633" lon="11.18918"><ele>216.0</ele><time>2026-05-02T10:51:31.727Z</time></trkpt><trkpt lat="43.711285" lon="11.1891667"><ele>216.0</ele><time>2026-05-02T10:51:32.728Z</time></trkpt><trkpt lat="43.7111183" lon="11.1891283"><ele>215.5</ele><time>2026-05-02T10:51:33.73Z</time></trkpt><trkpt lat="43.7109633" lon="11.1890833"><ele>215.0</ele><time>2026-05-02T10:51:34.727Z</time></trkpt><trkpt lat="43.7108217" lon="11.1890433"><ele>214.5</ele><time>2026-05-02T10:51:35.729Z</time></trkpt><trkpt lat="43.710695" lon="11.1890017"><ele>214.0</ele><time>2026-05-02T10:51:36.728Z</time></trkpt><trkpt lat="43.7105767" lon="11.188965"><ele>213.79999999999998</ele><time>2026-05-02T10:51:37.728Z</time></trkpt><trkpt lat="43.71047" lon="11.188925"><ele>213.59999999999997</ele><time>2026-05-02T10:51:38.729Z</time></trkpt><trkpt lat="43.71037" lon="11.18888"><ele>213.4</ele><time>2026-05-02T10:51:39.728Z</time></trkpt><trkpt lat="43.7102733" lon="11.1888267"><ele>213.2</ele><time>2026-05-02T10:51:40.727Z</time></trkpt><trkpt lat="43.7101733" lon="11.188765"><ele>213.0</ele><time>2026-05-02T10:51:41.728Z</time></trkpt><trkpt lat="43.7100683" lon="11.1886967"><ele>213.0</ele><time>2026-05-02T10:51:42.728Z</time></trkpt><trkpt lat="43.70995" lon="11.1886117"><ele>213.0</ele><time>2026-05-02T10:51:43.728Z</time></trkpt><trkpt lat="43.709815" lon="11.18851"><ele>213.0</ele><time>2026-05-02T10:51:44.728Z</time></trkpt><trkpt lat="43.7096767" lon="11.1883933"><ele>213.0</ele><time>2026-05-02T10:51:45.727Z</time></trkpt><trkpt lat="43.7095383" lon="11.1882767"><ele>213.0</ele><time>2026-05-02T10:51:46.73Z</time></trkpt><trkpt lat="43.7094" lon="11.18816"><ele>213.0</ele><time>2026-05-02T10:51:47.727Z</time></trkpt><trkpt lat="43.709255" lon="11.188035"><ele>213.0</ele><time>2026-05-02T10:51:48.729Z</time></trkpt><trkpt lat="43.7091117" lon="11.1879083"><ele>213.0</ele><time>2026-05-02T10:51:49.728Z</time></trkpt><trkpt lat="43.7089683" lon="11.1877733"><ele>213.0</ele><time>2026-05-02T10:51:50.728Z</time></trkpt><trkpt lat="43.70883" lon="11.18764"><ele>213.0</ele><time>2026-05-02T10:51:51.728Z</time></trkpt><trkpt lat="43.7086983" lon="11.18751"><ele>213.0</ele><time>2026-05-02T10:51:52.728Z</time></trkpt><trkpt lat="43.7085767" lon="11.187385"><ele>213.0</ele><time>2026-05-02T10:51:53.729Z</time></trkpt><trkpt lat="43.7084633" lon="11.1872733"><ele>213.0</ele><time>2026-05-02T10:51:54.73Z</time></trkpt><trkpt lat="43.7083633" lon="11.187135"><ele>213.0</ele><time>2026-05-02T10:51:55.73Z</time></trkpt><trkpt lat="43.7082733" lon="11.1869633"><ele>214.33333333333331</ele><time>2026-05-02T10:51:56.728Z</time></trkpt><trkpt lat="43.7081917" lon="11.1867683"><ele>215.66666666666666</ele><time>2026-05-02T10:51:57.728Z</time></trkpt><trkpt lat="43.7081133" lon="11.1865683"><ele>217.0</ele><time>2026-05-02T10:51:58.73Z</time></trkpt><trkpt lat="43.7080383" lon="11.1863633"><ele>218.0</ele><time>2026-05-02T10:51:59.729Z</time></trkpt><trkpt lat="43.7079717" lon="11.186135"><ele>219.0</ele><time>2026-05-02T10:52:00.728Z</time></trkpt><trkpt lat="43.70791" lon="11.185905"><ele>220.0</ele><time>2026-05-02T10:52:01.728Z</time></trkpt><trkpt lat="43.707855" lon="11.1856717"><ele>222.33333333333331</ele><time>2026-05-02T10:52:02.729Z</time></trkpt><trkpt lat="43.7078133" lon="11.185435"><ele>224.66666666666669</ele><time>2026-05-02T10:52:03.727Z</time></trkpt><trkpt lat="43.707785" lon="11.185195"><ele>227.0</ele><time>2026-05-02T10:52:04.728Z</time></trkpt><trkpt lat="43.7077667" lon="11.184955"><ele>228.0</ele><time>2026-05-02T10:52:05.729Z</time></trkpt><trkpt lat="43.7077517" lon="11.1847183"><ele>229.0</ele><time>2026-05-02T10:52:06.726Z</time></trkpt><trkpt lat="43.70769" lon="11.1842417"><ele>233.0</ele><time>2026-05-02T10:52:08.726Z</time></trkpt><trkpt lat="43.7076367" lon="11.183995"><ele>237.0</ele><time>2026-05-02T10:52:09.735Z</time></trkpt><trkpt lat="43.7075733" lon="11.1837483"><ele>241.0</ele><time>2026-05-02T10:52:10.732Z</time></trkpt><trkpt lat="43.707495" lon="11.18349"><ele>241.0</ele><time>2026-05-02T10:52:11.73Z</time></trkpt><trkpt lat="43.707415" lon="11.1832283"><ele>241.0</ele><time>2026-05-02T10:52:12.727Z</time></trkpt><trkpt lat="43.7073367" lon="11.1829733"><ele>241.0</ele><time>2026-05-02T10:52:13.727Z</time></trkpt><trkpt lat="43.7072567" lon="11.182745"><ele>242.5</ele><time>2026-05-02T10:52:14.728Z</time></trkpt><trkpt lat="43.7071683" lon="11.1825667"><ele>244.0</ele><time>2026-05-02T10:52:15.728Z</time></trkpt><trkpt lat="43.7070717" lon="11.1824067"><ele>245.5</ele><time>2026-05-02T10:52:16.728Z</time></trkpt><trkpt lat="43.7069917" lon="11.18226"><ele>247.0</ele><time>2026-05-02T10:52:17.726Z</time></trkpt><trkpt lat="43.7069333" lon="11.1821083"><ele>251.0</ele><time>2026-05-02T10:52:18.726Z</time></trkpt><trkpt lat="43.706895" lon="11.181925"><ele>255.0</ele><time>2026-05-02T10:52:19.727Z</time></trkpt><trkpt lat="43.7068683" lon="11.1817067"><ele>259.0</ele><time>2026-05-02T10:52:20.727Z</time></trkpt><trkpt lat="43.70685" lon="11.1814867"><ele>259.3333333333333</ele><time>2026-05-02T10:52:21.726Z</time></trkpt><trkpt lat="43.7068333" lon="11.181255"><ele>259.6666666666667</ele><time>2026-05-02T10:52:22.727Z</time></trkpt><trkpt lat="43.70681" lon="11.1810283"><ele>260.0</ele><time>2026-05-02T10:52:23.726Z</time></trkpt><trkpt lat="43.706785" lon="11.1807967"><ele>260.6666666666667</ele><time>2026-05-02T10:52:24.727Z</time></trkpt><trkpt lat="43.70677" lon="11.1805667"><ele>261.3333333333333</ele><time>2026-05-02T10:52:25.728Z</time></trkpt><trkpt lat="43.7067883" lon="11.1803367"><ele>262.0</ele><time>2026-05-02T10:52:26.727Z</time></trkpt><trkpt lat="43.7068367" lon="11.18011"><ele>263.3333333333333</ele><time>2026-05-02T10:52:27.729Z</time></trkpt><trkpt lat="43.7069133" lon="11.1798733"><ele>264.6666666666667</ele><time>2026-05-02T10:52:28.728Z</time></trkpt><trkpt lat="43.7070067" lon="11.17963"><ele>266.0</ele><time>2026-05-02T10:52:29.727Z</time></trkpt><trkpt lat="43.707095" lon="11.17938"><ele>266.0</ele><time>2026-05-02T10:52:30.727Z</time></trkpt><trkpt lat="43.7071683" lon="11.1791183"><ele>266.0</ele><time>2026-05-02T10:52:31.728Z</time></trkpt><trkpt lat="43.7072233" lon="11.178855"><ele>266.0</ele><time>2026-05-02T10:52:32.728Z</time></trkpt><trkpt lat="43.7072733" lon="11.1785983"><ele>267.33333333333337</ele><time>2026-05-02T10:52:33.727Z</time></trkpt><trkpt lat="43.7073167" lon="11.1783467"><ele>268.6666666666667</ele><time>2026-05-02T10:52:34.727Z</time></trkpt><trkpt lat="43.7073567" lon="11.17811"><ele>270.0</ele><time>2026-05-02T10:52:35.729Z</time></trkpt><trkpt lat="43.7073933" lon="11.1778833"><ele>270.0</ele><time>2026-05-02T10:52:36.728Z</time></trkpt><trkpt lat="43.7074367" lon="11.1776633"><ele>270.0</ele><time>2026-05-02T10:52:37.727Z</time></trkpt><trkpt lat="43.7074883" lon="11.1774467"><ele>270.0</ele><time>2026-05-02T10:52:38.727Z</time></trkpt><trkpt lat="43.7075583" lon="11.1772217"><ele>269.6666666666667</ele><time>2026-05-02T10:52:39.728Z</time></trkpt><trkpt lat="43.7076383" lon="11.1770017"><ele>269.33333333333337</ele><time>2026-05-02T10:52:40.727Z</time></trkpt><trkpt lat="43.7076967" lon="11.1767933"><ele>269.0</ele><time>2026-05-02T10:52:41.728Z</time></trkpt><trkpt lat="43.707795" lon="11.1765833"><ele>270.33333333333337</ele><time>2026-05-02T10:52:42.728Z</time></trkpt><trkpt lat="43.7079183" lon="11.1763917"><ele>271.6666666666667</ele><time>2026-05-02T10:52:43.728Z</time></trkpt><trkpt lat="43.70805" lon="11.1762083"><ele>273.0</ele><time>2026-05-02T10:52:44.727Z</time></trkpt><trkpt lat="43.7081733" lon="11.1760317"><ele>273.0</ele><time>2026-05-02T10:52:45.728Z</time></trkpt><trkpt lat="43.7082733" lon="11.175845"><ele>273.0</ele><time>2026-05-02T10:52:46.728Z</time></trkpt><trkpt lat="43.7083367" lon="11.1756233"><ele>273.0</ele><time>2026-05-02T10:52:47.728Z</time></trkpt><trkpt lat="43.708395" lon="11.1753867"><ele>274.6666666666667</ele><time>2026-05-02T10:52:48.728Z</time></trkpt><trkpt lat="43.7084483" lon="11.1751567"><ele>276.33333333333337</ele><time>2026-05-02T10:52:49.728Z</time></trkpt><trkpt lat="43.7084767" lon="11.174935"><ele>278.0</ele><time>2026-05-02T10:52:50.728Z</time></trkpt><trkpt lat="43.7084817" lon="11.17472"><ele>280.33333333333337</ele><time>2026-05-02T10:52:51.727Z</time></trkpt><trkpt lat="43.7084683" lon="11.1744917"><ele>282.6666666666667</ele><time>2026-05-02T10:52:52.728Z</time></trkpt><trkpt lat="43.7084433" lon="11.17425"><ele>285.0</ele><time>2026-05-02T10:52:53.726Z</time></trkpt><trkpt lat="43.7084217" lon="11.1740067"><ele>288.0</ele><time>2026-05-02T10:52:54.727Z</time></trkpt><trkpt lat="43.708395" lon="11.173755"><ele>291.0</ele><time>2026-05-02T10:52:55.728Z</time></trkpt><trkpt lat="43.70836" lon="11.17352"><ele>294.0</ele><time>2026-05-02T10:52:56.727Z</time></trkpt><trkpt lat="43.708325" lon="11.1732783"><ele>296.0</ele><time>2026-05-02T10:52:57.728Z</time></trkpt><trkpt lat="43.7083" lon="11.173035"><ele>298.0</ele><time>2026-05-02T10:52:58.728Z</time></trkpt><trkpt lat="43.708285" lon="11.1728"><ele>300.0</ele><time>2026-05-02T10:52:59.728Z</time></trkpt><trkpt lat="43.7082667" lon="11.1725883"><ele>300.0</ele><time>2026-05-02T10:53:00.727Z</time></trkpt><trkpt lat="43.7082367" lon="11.1724167"><ele>300.0</ele><time>2026-05-02T10:53:01.728Z</time></trkpt><trkpt lat="43.7082033" lon="11.1722617"><ele>300.0</ele><time>2026-05-02T10:53:02.728Z</time></trkpt><trkpt lat="43.7081567" lon="11.17212"><ele>300.0</ele><time>2026-05-02T10:53:03.731Z</time></trkpt><trkpt lat="43.7081083" lon="11.1719633"><ele>299.75</ele><time>2026-05-02T10:53:04.728Z</time></trkpt><trkpt lat="43.7080633" lon="11.171805"><ele>299.5</ele><time>2026-05-02T10:53:05.728Z</time></trkpt><trkpt lat="43.7079967" lon="11.1716467"><ele>299.25</ele><time>2026-05-02T10:53:06.727Z</time></trkpt><trkpt lat="43.7079333" lon="11.1714667"><ele>299.0</ele><time>2026-05-02T10:53:07.731Z</time></trkpt><trkpt lat="43.7078817" lon="11.1712683"><ele>296.6666666666667</ele><time>2026-05-02T10:53:08.728Z</time></trkpt><trkpt lat="43.7078433" lon="11.1710583"><ele>294.3333333333333</ele><time>2026-05-02T10:53:09.729Z</time></trkpt><trkpt lat="43.7078083" lon="11.1708317"><ele>292.0</ele><time>2026-05-02T10:53:10.728Z</time></trkpt><trkpt lat="43.70777" lon="11.1706167"><ele>288.66666666666663</ele><time>2026-05-02T10:53:11.728Z</time></trkpt><trkpt lat="43.7077367" lon="11.1704"><ele>285.3333333333333</ele><time>2026-05-02T10:53:12.728Z</time></trkpt><trkpt lat="43.7076883" lon="11.1701617"><ele>282.0</ele><time>2026-05-02T10:53:13.728Z</time></trkpt><trkpt lat="43.7076383" lon="11.1699417"><ele>280.3333333333333</ele><time>2026-05-02T10:53:14.728Z</time></trkpt><trkpt lat="43.7075867" lon="11.1697283"><ele>278.66666666666663</ele><time>2026-05-02T10:53:15.728Z</time></trkpt><trkpt lat="43.7075267" lon="11.16954"><ele>277.0</ele><time>2026-05-02T10:53:16.729Z</time></trkpt><trkpt lat="43.70747" lon="11.1693433"><ele>277.0</ele><time>2026-05-02T10:53:17.729Z</time></trkpt><trkpt lat="43.7074" lon="11.169175"><ele>277.0</ele><time>2026-05-02T10:53:18.73Z</time></trkpt><trkpt lat="43.707295" lon="11.16905"><ele>277.0</ele><time>2026-05-02T10:53:19.728Z</time></trkpt><trkpt lat="43.7071683" lon="11.16895"><ele>277.0</ele><time>2026-05-02T10:53:20.73Z</time></trkpt><trkpt lat="43.707025" lon="11.16886"><ele>276.3333333333333</ele><time>2026-05-02T10:53:21.729Z</time></trkpt><trkpt lat="43.7068767" lon="11.168785"><ele>275.6666666666667</ele><time>2026-05-02T10:53:22.729Z</time></trkpt><trkpt lat="43.70673" lon="11.1687233"><ele>275.0</ele><time>2026-05-02T10:53:23.729Z</time></trkpt><trkpt lat="43.7065817" lon="11.1686883"><ele>275.0</ele><time>2026-05-02T10:53:24.729Z</time></trkpt><trkpt lat="43.70643" lon="11.16868"><ele>275.0</ele><time>2026-05-02T10:53:25.729Z</time></trkpt><trkpt lat="43.7062833" lon="11.1686967"><ele>275.0</ele><time>2026-05-02T10:53:26.729Z</time></trkpt><trkpt lat="43.7061417" lon="11.168745"><ele>275.0</ele><time>2026-05-02T10:53:27.728Z</time></trkpt><trkpt lat="43.7059917" lon="11.1687667"><ele>273.25</ele><time>2026-05-02T10:53:28.728Z</time></trkpt><trkpt lat="43.7058483" lon="11.1687783"><ele>271.5</ele><time>2026-05-02T10:53:29.727Z</time></trkpt><trkpt lat="43.7057133" lon="11.16877"><ele>269.75</ele><time>2026-05-02T10:53:30.729Z</time></trkpt><trkpt lat="43.705585" lon="11.1687317"><ele>268.0</ele><time>2026-05-02T10:53:31.729Z</time></trkpt><trkpt lat="43.7054533" lon="11.1686817"><ele>268.0</ele><time>2026-05-02T10:53:32.729Z</time></trkpt><trkpt lat="43.70532" lon="11.1686067"><ele>268.0</ele><time>2026-05-02T10:53:33.729Z</time></trkpt><trkpt lat="43.7051917" lon="11.1685367"><ele>268.0</ele><time>2026-05-02T10:53:34.728Z</time></trkpt><trkpt lat="43.7050733" lon="11.16844"><ele>268.0</ele><time>2026-05-02T10:53:35.727Z</time></trkpt><trkpt lat="43.7049567" lon="11.16835"><ele>267.0</ele><time>2026-05-02T10:53:36.728Z</time></trkpt><trkpt lat="43.704845" lon="11.1682483"><ele>266.0</ele><time>2026-05-02T10:53:37.728Z</time></trkpt><trkpt lat="43.7047333" lon="11.1681383"><ele>265.0</ele><time>2026-05-02T10:53:38.729Z</time></trkpt><trkpt lat="43.7046167" lon="11.1680517"><ele>264.0</ele><time>2026-05-02T10:53:39.729Z</time></trkpt><trkpt lat="43.7044917" lon="11.1679633"><ele>263.25</ele><time>2026-05-02T10:53:40.729Z</time></trkpt><trkpt lat="43.7043667" lon="11.1678883"><ele>262.5</ele><time>2026-05-02T10:53:41.728Z</time></trkpt><trkpt lat="43.704245" lon="11.1678117"><ele>261.75</ele><time>2026-05-02T10:53:42.728Z</time></trkpt><trkpt lat="43.704125" lon="11.167735"><ele>261.0</ele><time>2026-05-02T10:53:43.728Z</time></trkpt><trkpt lat="43.7040083" lon="11.1676717"><ele>261.0</ele><time>2026-05-02T10:53:44.728Z</time></trkpt><trkpt lat="43.7038967" lon="11.16761"><ele>261.0</ele><time>2026-05-02T10:53:45.728Z</time></trkpt><trkpt lat="43.7037867" lon="11.1675433"><ele>261.0</ele><time>2026-05-02T10:53:46.728Z</time></trkpt><trkpt lat="43.7036767" lon="11.1674767"><ele>261.0</ele><time>2026-05-02T10:53:47.728Z</time></trkpt><trkpt lat="43.7035767" lon="11.16741"><ele>259.75</ele><time>2026-05-02T10:53:48.727Z</time></trkpt><trkpt lat="43.7034733" lon="11.16734"><ele>258.5</ele><time>2026-05-02T10:53:49.729Z</time></trkpt><trkpt lat="43.7033733" lon="11.1672433"><ele>257.25</ele><time>2026-05-02T10:53:50.727Z</time></trkpt><trkpt lat="43.7032833" lon="11.16712"><ele>256.0</ele><time>2026-05-02T10:53:51.729Z</time></trkpt><trkpt lat="43.703195" lon="11.1669933"><ele>256.0</ele><time>2026-05-02T10:53:52.729Z</time></trkpt><trkpt lat="43.7031067" lon="11.1668583"><ele>256.0</ele><time>2026-05-02T10:53:53.728Z</time></trkpt><trkpt lat="43.7030233" lon="11.16672"><ele>256.0</ele><time>2026-05-02T10:53:54.729Z</time></trkpt><trkpt lat="43.7029383" lon="11.1665867"><ele>256.0</ele><time>2026-05-02T10:53:55.729Z</time></trkpt><trkpt lat="43.70286" lon="11.166445"><ele>254.25</ele><time>2026-05-02T10:53:56.728Z</time></trkpt><trkpt lat="43.7027933" lon="11.1663"><ele>252.5</ele><time>2026-05-02T10:53:57.729Z</time></trkpt><trkpt lat="43.7027367" lon="11.16614"><ele>250.75</ele><time>2026-05-02T10:53:58.729Z</time></trkpt><trkpt lat="43.7026883" lon="11.16597"><ele>249.0</ele><time>2026-05-02T10:53:59.728Z</time></trkpt><trkpt lat="43.7026417" lon="11.1658033"><ele>248.25</ele><time>2026-05-02T10:54:00.729Z</time></trkpt><trkpt lat="43.70259" lon="11.1656433"><ele>247.5</ele><time>2026-05-02T10:54:01.729Z</time></trkpt><trkpt lat="43.7025383" lon="11.1654933"><ele>246.75</ele><time>2026-05-02T10:54:02.729Z</time></trkpt><trkpt lat="43.702485" lon="11.165345"><ele>246.0</ele><time>2026-05-02T10:54:03.729Z</time></trkpt><trkpt lat="43.702425" lon="11.1652133"><ele>246.0</ele><time>2026-05-02T10:54:04.729Z</time></trkpt><trkpt lat="43.702355" lon="11.1650867"><ele>246.0</ele><time>2026-05-02T10:54:05.73Z</time></trkpt><trkpt lat="43.702285" lon="11.1649667"><ele>246.0</ele><time>2026-05-02T10:54:06.728Z</time></trkpt><trkpt lat="43.7022067" lon="11.16485"><ele>246.0</ele><time>2026-05-02T10:54:07.729Z</time></trkpt><trkpt lat="43.7021317" lon="11.16473"><ele>245.5</ele><time>2026-05-02T10:54:08.729Z</time></trkpt><trkpt lat="43.7020567" lon="11.1646117"><ele>245.0</ele><time>2026-05-02T10:54:09.729Z</time></trkpt><trkpt lat="43.7019783" lon="11.1644867"><ele>244.5</ele><time>2026-05-02T10:54:10.728Z</time></trkpt><trkpt lat="43.7018967" lon="11.1643667"><ele>244.0</ele><time>2026-05-02T10:54:11.728Z</time></trkpt><trkpt lat="43.701815" lon="11.1642533"><ele>244.0</ele><time>2026-05-02T10:54:12.728Z</time></trkpt><trkpt lat="43.7017367" lon="11.1641367"><ele>244.0</ele><time>2026-05-02T10:54:13.729Z</time></trkpt><trkpt lat="43.701665" lon="11.16401"><ele>244.0</ele><time>2026-05-02T10:54:14.729Z</time></trkpt><trkpt lat="43.7015917" lon="11.16389"><ele>244.0</ele><time>2026-05-02T10:54:15.735Z</time></trkpt><trkpt lat="43.7015167" lon="11.1637683"><ele>243.79999999999998</ele><time>2026-05-02T10:54:16.727Z</time></trkpt><trkpt lat="43.7014367" lon="11.163645"><ele>243.59999999999997</ele><time>2026-05-02T10:54:17.726Z</time></trkpt><trkpt lat="43.7013583" lon="11.163535"><ele>243.4</ele><time>2026-05-02T10:54:18.727Z</time></trkpt><trkpt lat="43.7012767" lon="11.16345"><ele>243.2</ele><time>2026-05-02T10:54:19.728Z</time></trkpt><trkpt lat="43.7011933" lon="11.1634067"><ele>243.0</ele><time>2026-05-02T10:54:20.728Z</time></trkpt><trkpt lat="43.7011183" lon="11.163375"><ele>243.33333333333334</ele><time>2026-05-02T10:54:21.728Z</time></trkpt><trkpt lat="43.7010533" lon="11.1633567"><ele>243.66666666666669</ele><time>2026-05-02T10:54:22.728Z</time></trkpt><trkpt lat="43.7010483" lon="11.1635333"><ele>244.0</ele><time>2026-05-02T10:54:24.091Z</time></trkpt><trkpt lat="43.7009767" lon="11.1635467"><ele>244.33333333333334</ele><time>2026-05-02T10:54:27.727Z</time></trkpt><trkpt lat="43.70096" lon="11.16366"><ele>244.66666666666669</ele><time>2026-05-02T10:54:29.73Z</time></trkpt><trkpt lat="43.7009333" lon="11.1637583"><ele>245.0</ele><time>2026-05-02T10:54:31.729Z</time></trkpt><trkpt lat="43.7009383" lon="11.1638517"><ele>245.0</ele><time>2026-05-02T10:54:34.73Z</time></trkpt><trkpt lat="43.70099" lon="11.1639033"><ele>245.0</ele><time>2026-05-02T10:54:36.73Z</time></trkpt><trkpt lat="43.7010683" lon="11.1639567"><ele>245.0</ele><time>2026-05-02T10:54:38.729Z</time></trkpt><trkpt lat="43.7011317" lon="11.1639867"><ele>245.0</ele><time>2026-05-02T10:54:42.73Z</time></trkpt><trkpt lat="43.70115" lon="11.163895"><ele>245.0</ele><time>2026-05-02T10:56:43.73Z</time></trkpt><trkpt lat="43.7011517" lon="11.1639917"><ele>245.0</ele><time>2026-05-02T10:56:52.728Z</time></trkpt><trkpt lat="43.7011083" lon="11.164055"><ele>245.0</ele><time>2026-05-02T10:57:24.727Z</time></trkpt><trkpt lat="43.7011584" lon="11.1639995"><ele>243.0</ele><time>2026-05-02T10:59:07.765Z</time></trkpt><trkpt lat="43.7011766" lon="11.1639135"><ele>243.0</ele><time>2026-05-02T11:00:57.821Z</time></trkpt><trkpt lat="43.7012524" lon="11.1638805"><ele>243.0</ele><time>2026-05-02T11:01:18.729Z</time></trkpt><trkpt lat="43.7012497" lon="11.1637897"><ele>243.0</ele><time>2026-05-02T11:01:58.735Z</time></trkpt><trkpt lat="43.7012175" lon="11.1638655"><ele>243.0</ele><time>2026-05-02T11:02:12.83Z</time></trkpt></trkseg></trk></gpx>